<?xml version="1.0" encoding="UTF-8"?>
<gpx version="1.1" creator="Runtastic: Life is short - live long, http://www.runtastic.com" xsi:schemaLocation="http://www.topografix.com/GPX/1/1
                                http://www.topografix.com/GPX/1/1/gpx.xsd
                                http://www.garmin.com/xmlschemas/GpxExtensions/v3
                                http://www.garmin.com/xmlschemas/GpxExtensionsv3.xsd
                                http://www.garmin.com/xmlschemas/TrackPointExtension/v1
                                http://www.garmin.com/xmlschemas/TrackPointExtensionv1.xsd" xmlns="http://www.topografix.com/GPX/1/1" xmlns:gpxtpx="http://www.garmin.com/xmlschemas/TrackPointExtension/v1" xmlns:gpxx="http://www.garmin.com/xmlschemas/GpxExtensions/v3" xmlns:xsi="http://www.w3.org/2001/XMLSchema-instance">
  <metadata>
    <copyright author="www.runtastic.com">
      <year>2016</year>
      <license>http://www.runtastic.com</license>
    </copyright>
    <link href="http://www.runtastic.com">
      <text>runtastic</text>
    </link>
    <time>2016-09-21T10:40:50.000Z</time>
  </metadata>
  <trk>
    <link href="http://www.runtastic.com/sport-sessions/1396348810">
      <text>Cliquez sur ce lien pour voir cette activité sur Runtastic.com</text>
    </link>
    <trkseg>
      <trkpt lon="0.2224995493888855" lat="49.1501083374023438">
        <ele>41.8681640625</ele>
        <time>2016-09-21T10:40:50.000Z</time>
      </trkpt>
      <trkpt lon="0.2225154787302017" lat="49.1500778198242188">
        <ele>41.896976470947266</ele>
        <time>2016-09-21T10:40:56.000Z</time>
      </trkpt>
      <trkpt lon="0.2225435525178909" lat="49.1500549316406250">
        <ele>41.92595291137695</ele>
        <time>2016-09-21T10:40:58.000Z</time>
      </trkpt>
      <trkpt lon="0.2225745618343353" lat="49.1500167846679688">
        <ele>41.961952209472656</ele>
        <time>2016-09-21T10:41:00.000Z</time>
      </trkpt>
      <trkpt lon="0.2226002216339111" lat="49.1499443054199219">
        <ele>42.007286071777344</ele>
        <time>2016-09-21T10:41:02.000Z</time>
      </trkpt>
      <trkpt lon="0.2226344943046570" lat="49.1498107910156250">
        <ele>42.1108512878418</ele>
        <time>2016-09-21T10:41:05.000Z</time>
      </trkpt>
      <trkpt lon="0.2226701229810715" lat="49.1496620178222656">
        <ele>42.247581481933594</ele>
        <time>2016-09-21T10:41:08.000Z</time>
      </trkpt>
      <trkpt lon="0.2227087616920471" lat="49.1495780944824219">
        <ele>42.4024658203125</ele>
        <time>2016-09-21T10:41:10.000Z</time>
      </trkpt>
      <trkpt lon="0.2227613180875778" lat="49.1494712829589844">
        <ele>42.57814407348633</ele>
        <time>2016-09-21T10:41:13.000Z</time>
      </trkpt>
      <trkpt lon="0.2227785885334015" lat="49.1493721008300781">
        <ele>42.757667541503906</ele>
        <time>2016-09-21T10:41:16.000Z</time>
      </trkpt>
      <trkpt lon="0.2228153795003891" lat="49.1492919921875000">
        <ele>42.92608642578125</ele>
        <time>2016-09-21T10:41:18.000Z</time>
      </trkpt>
      <trkpt lon="0.2228709459304810" lat="49.1491775512695312">
        <ele>43.09049606323242</ele>
        <time>2016-09-21T10:41:21.000Z</time>
      </trkpt>
      <trkpt lon="0.2229095101356506" lat="49.1490707397460938">
        <ele>43.25977325439453</ele>
        <time>2016-09-21T10:41:24.000Z</time>
      </trkpt>
      <trkpt lon="0.2229149490594864" lat="49.1490020751953125">
        <ele>43.40894317626953</ele>
        <time>2016-09-21T10:41:26.000Z</time>
      </trkpt>
      <trkpt lon="0.2229585349559784" lat="49.1488914489746094">
        <ele>43.5673713684082</ele>
        <time>2016-09-21T10:41:29.000Z</time>
      </trkpt>
      <trkpt lon="0.2230240851640701" lat="49.1488037109375000">
        <ele>43.734642028808594</ele>
        <time>2016-09-21T10:41:31.000Z</time>
      </trkpt>
      <trkpt lon="0.2231489717960358" lat="49.1486930847167969">
        <ele>43.91757583618164</ele>
        <time>2016-09-21T10:41:33.000Z</time>
      </trkpt>
      <trkpt lon="0.2231732010841370" lat="49.1486244201660156">
        <ele>44.08828353881836</ele>
        <time>2016-09-21T10:41:35.000Z</time>
      </trkpt>
      <trkpt lon="0.2232170403003693" lat="49.1485061645507812">
        <ele>44.27992630004883</ele>
        <time>2016-09-21T10:41:38.000Z</time>
      </trkpt>
      <trkpt lon="0.2233312875032425" lat="49.1483650207519531">
        <ele>44.49634552001953</ele>
        <time>2016-09-21T10:41:41.000Z</time>
      </trkpt>
      <trkpt lon="0.2233822494745255" lat="49.1482582092285156">
        <ele>44.723846435546875</ele>
        <time>2016-09-21T10:41:43.000Z</time>
      </trkpt>
      <trkpt lon="0.2234707623720169" lat="49.1481361389160156">
        <ele>44.960060119628906</ele>
        <time>2016-09-21T10:41:46.000Z</time>
      </trkpt>
      <trkpt lon="0.2235382348299026" lat="49.1480598449707031">
        <ele>45.216400146484375</ele>
        <time>2016-09-21T10:41:48.000Z</time>
      </trkpt>
      <trkpt lon="0.2236143350601196" lat="49.1479644775390625">
        <ele>45.47930908203125</ele>
        <time>2016-09-21T10:41:50.000Z</time>
      </trkpt>
      <trkpt lon="0.2236968129873276" lat="49.1478424072265625">
        <ele>45.727989196777344</ele>
        <time>2016-09-21T10:41:53.000Z</time>
      </trkpt>
      <trkpt lon="0.2237920314073563" lat="49.1477546691894531">
        <ele>45.97028350830078</ele>
        <time>2016-09-21T10:41:56.000Z</time>
      </trkpt>
      <trkpt lon="0.2240466028451920" lat="49.1477775573730469">
        <ele>46.226402282714844</ele>
        <time>2016-09-21T10:41:59.000Z</time>
      </trkpt>
      <trkpt lon="0.2241950333118439" lat="49.1478118896484375">
        <ele>46.4894905090332</ele>
        <time>2016-09-21T10:42:02.000Z</time>
      </trkpt>
      <trkpt lon="0.2243665307760239" lat="49.1478652954101562">
        <ele>46.771095275878906</ele>
        <time>2016-09-21T10:42:05.000Z</time>
      </trkpt>
      <trkpt lon="0.2245191633701324" lat="49.1479530334472656">
        <ele>47.05350875854492</ele>
        <time>2016-09-21T10:42:07.000Z</time>
      </trkpt>
      <trkpt lon="0.2246495038270950" lat="49.1480026245117188">
        <ele>47.33275604248047</ele>
        <time>2016-09-21T10:42:09.000Z</time>
      </trkpt>
      <trkpt lon="0.2248390167951584" lat="49.1480827331542969">
        <ele>47.58094024658203</ele>
        <time>2016-09-21T10:42:12.000Z</time>
      </trkpt>
      <trkpt lon="0.2249830216169357" lat="49.1481056213378906">
        <ele>47.81974411010742</ele>
        <time>2016-09-21T10:42:14.000Z</time>
      </trkpt>
      <trkpt lon="0.2251821756362915" lat="49.1481399536132812">
        <ele>47.99103546142578</ele>
        <time>2016-09-21T10:42:17.000Z</time>
      </trkpt>
      <trkpt lon="0.2253921478986740" lat="49.1481933593750000">
        <ele>48.10144805908203</ele>
        <time>2016-09-21T10:42:20.000Z</time>
      </trkpt>
      <trkpt lon="0.2256166040897369" lat="49.1482810974121094">
        <ele>48.15161895751953</ele>
        <time>2016-09-21T10:42:23.000Z</time>
      </trkpt>
      <trkpt lon="0.2257634550333023" lat="49.1482658386230469">
        <ele>48.15789031982422</ele>
        <time>2016-09-21T10:42:25.000Z</time>
      </trkpt>
      <trkpt lon="0.2258933037519455" lat="49.1482772827148438">
        <ele>48.164276123046875</ele>
        <time>2016-09-21T10:42:27.000Z</time>
      </trkpt>
      <trkpt lon="0.2260767817497253" lat="49.1483039855957031">
        <ele>48.30049514770508</ele>
        <time>2016-09-21T10:42:30.000Z</time>
      </trkpt>
      <trkpt lon="0.2262899279594421" lat="49.1483192443847656">
        <ele>48.598968505859375</ele>
        <time>2016-09-21T10:42:33.000Z</time>
      </trkpt>
      <trkpt lon="0.2264753431081772" lat="49.1483535766601562">
        <ele>49.040122985839844</ele>
        <time>2016-09-21T10:42:35.000Z</time>
      </trkpt>
      <trkpt lon="0.2265982180833817" lat="49.1483573913574219">
        <ele>49.563880920410156</ele>
        <time>2016-09-21T10:42:38.000Z</time>
      </trkpt>
      <trkpt lon="0.2267966121435165" lat="49.1483764648437500">
        <ele>50.30360794067383</ele>
        <time>2016-09-21T10:42:40.000Z</time>
      </trkpt>
      <trkpt lon="0.2268795073032379" lat="49.1483688354492188">
        <ele>51.05971908569336</ele>
        <time>2016-09-21T10:42:43.000Z</time>
      </trkpt>
      <trkpt lon="0.2270374298095703" lat="49.1483650207519531">
        <ele>51.93239212036133</ele>
        <time>2016-09-21T10:42:46.000Z</time>
      </trkpt>
      <trkpt lon="0.2271398603916168" lat="49.1483612060546875">
        <ele>52.85752487182617</ele>
        <time>2016-09-21T10:42:48.000Z</time>
      </trkpt>
      <trkpt lon="0.2273015379905701" lat="49.1483688354492188">
        <ele>53.96113204956055</ele>
        <time>2016-09-21T10:42:51.000Z</time>
      </trkpt>
      <trkpt lon="0.2274611294269562" lat="49.1483802795410156">
        <ele>55.06638717651367</ele>
        <time>2016-09-21T10:42:53.000Z</time>
      </trkpt>
      <trkpt lon="0.2275658994913101" lat="49.1483840942382812">
        <ele>56.12345504760742</ele>
        <time>2016-09-21T10:42:56.000Z</time>
      </trkpt>
      <trkpt lon="0.2277058809995651" lat="49.1483955383300781">
        <ele>56.9755973815918</ele>
        <time>2016-09-21T10:42:59.000Z</time>
      </trkpt>
      <trkpt lon="0.2278229743242264" lat="49.1484031677246094">
        <ele>57.70731735229492</ele>
        <time>2016-09-21T10:43:02.000Z</time>
      </trkpt>
      <trkpt lon="0.2279328703880310" lat="49.1483917236328125">
        <ele>58.23634719848633</ele>
        <time>2016-09-21T10:43:05.000Z</time>
      </trkpt>
      <trkpt lon="0.2279959022998810" lat="49.1483764648437500">
        <ele>58.548240661621094</ele>
        <time>2016-09-21T10:43:07.000Z</time>
      </trkpt>
      <trkpt lon="0.2280839085578918" lat="49.1483764648437500">
        <ele>58.80902862548828</ele>
        <time>2016-09-21T10:43:10.000Z</time>
      </trkpt>
      <trkpt lon="0.2281758636236191" lat="49.1483879089355469">
        <ele>59.04749298095703</ele>
        <time>2016-09-21T10:43:13.000Z</time>
      </trkpt>
      <trkpt lon="0.2282522171735764" lat="49.1483802795410156">
        <ele>59.2746696472168</ele>
        <time>2016-09-21T10:43:16.000Z</time>
      </trkpt>
      <trkpt lon="0.2283059507608414" lat="49.1483535766601562">
        <ele>59.47998809814453</ele>
        <time>2016-09-21T10:43:18.000Z</time>
      </trkpt>
      <trkpt lon="0.2283300906419754" lat="49.1483192443847656">
        <ele>59.665260314941406</ele>
        <time>2016-09-21T10:43:21.000Z</time>
      </trkpt>
      <trkpt lon="0.2283828854560852" lat="49.1483154296875000">
        <ele>59.84446334838867</ele>
        <time>2016-09-21T10:43:23.000Z</time>
      </trkpt>
      <trkpt lon="0.2285492718219757" lat="49.1483383178710938">
        <ele>60.1022834777832</ele>
        <time>2016-09-21T10:43:26.000Z</time>
      </trkpt>
      <trkpt lon="0.2287298142910004" lat="49.1483383178710938">
        <ele>60.44881057739258</ele>
        <time>2016-09-21T10:43:29.000Z</time>
      </trkpt>
      <trkpt lon="0.2288978695869446" lat="49.1483154296875000">
        <ele>60.87755584716797</ele>
        <time>2016-09-21T10:43:32.000Z</time>
      </trkpt>
      <trkpt lon="0.2289994657039642" lat="49.1482963562011719">
        <ele>61.3587646484375</ele>
        <time>2016-09-21T10:43:34.000Z</time>
      </trkpt>
      <trkpt lon="0.2291193306446075" lat="49.1482772827148438">
        <ele>61.888999938964844</ele>
        <time>2016-09-21T10:43:37.000Z</time>
      </trkpt>
      <trkpt lon="0.2292207479476929" lat="49.1482620239257812">
        <ele>62.39741897583008</ele>
        <time>2016-09-21T10:43:40.000Z</time>
      </trkpt>
      <trkpt lon="0.2293059825897217" lat="49.1482505798339844">
        <ele>62.87077713012695</ele>
        <time>2016-09-21T10:43:42.000Z</time>
      </trkpt>
      <trkpt lon="0.2294365763664246" lat="49.1482238769531250">
        <ele>63.36314010620117</ele>
        <time>2016-09-21T10:43:45.000Z</time>
      </trkpt>
      <trkpt lon="0.2295292764902115" lat="49.1481933593750000">
        <ele>63.874794006347656</ele>
        <time>2016-09-21T10:43:47.000Z</time>
      </trkpt>
      <trkpt lon="0.2296239137649536" lat="49.1481704711914062">
        <ele>64.39263916015625</ele>
        <time>2016-09-21T10:43:49.000Z</time>
      </trkpt>
      <trkpt lon="0.2297208160161972" lat="49.1481513977050781">
        <ele>64.90953063964844</ele>
        <time>2016-09-21T10:43:51.000Z</time>
      </trkpt>
      <trkpt lon="0.2298186272382736" lat="49.1481437683105469">
        <ele>65.4283447265625</ele>
        <time>2016-09-21T10:43:53.000Z</time>
      </trkpt>
      <trkpt lon="0.2299571782350540" lat="49.1481323242187500">
        <ele>65.94084167480469</ele>
        <time>2016-09-21T10:43:56.000Z</time>
      </trkpt>
      <trkpt lon="0.2300866842269897" lat="49.1481323242187500">
        <ele>66.4414291381836</ele>
        <time>2016-09-21T10:43:58.000Z</time>
      </trkpt>
      <trkpt lon="0.2301637977361679" lat="49.1481361389160156">
        <ele>66.88520812988281</ele>
        <time>2016-09-21T10:44:01.000Z</time>
      </trkpt>
      <trkpt lon="0.2302827388048172" lat="49.1481437683105469">
        <ele>67.29112243652344</ele>
        <time>2016-09-21T10:44:04.000Z</time>
      </trkpt>
      <trkpt lon="0.2303585857152939" lat="49.1481513977050781">
        <ele>67.63850402832031</ele>
        <time>2016-09-21T10:44:06.000Z</time>
      </trkpt>
      <trkpt lon="0.2304782867431641" lat="49.1481628417968750">
        <ele>67.90877532958984</ele>
        <time>2016-09-21T10:44:08.000Z</time>
      </trkpt>
      <trkpt lon="0.2305706441402435" lat="49.1481819152832031">
        <ele>68.15625</ele>
        <time>2016-09-21T10:44:11.000Z</time>
      </trkpt>
      <trkpt lon="0.2307115495204926" lat="49.1482086181640625">
        <ele>68.45584869384766</ele>
        <time>2016-09-21T10:44:14.000Z</time>
      </trkpt>
      <trkpt lon="0.2308003157377243" lat="49.1482162475585938">
        <ele>68.74575805664062</ele>
        <time>2016-09-21T10:44:16.000Z</time>
      </trkpt>
      <trkpt lon="0.2309288084506989" lat="49.1482315063476562">
        <ele>69.05174255371094</ele>
        <time>2016-09-21T10:44:19.000Z</time>
      </trkpt>
      <trkpt lon="0.2310533672571182" lat="49.1482391357421875">
        <ele>69.34362030029297</ele>
        <time>2016-09-21T10:44:22.000Z</time>
      </trkpt>
      <trkpt lon="0.2311750650405884" lat="49.1482429504394531">
        <ele>69.61674499511719</ele>
        <time>2016-09-21T10:44:25.000Z</time>
      </trkpt>
      <trkpt lon="0.2313011288642883" lat="49.1482582092285156">
        <ele>69.85018157958984</ele>
        <time>2016-09-21T10:44:28.000Z</time>
      </trkpt>
      <trkpt lon="0.2314357459545135" lat="49.1482696533203125">
        <ele>70.08203887939453</ele>
        <time>2016-09-21T10:44:31.000Z</time>
      </trkpt>
      <trkpt lon="0.2315788269042969" lat="49.1482810974121094">
        <ele>70.3048095703125</ele>
        <time>2016-09-21T10:44:34.000Z</time>
      </trkpt>
      <trkpt lon="0.2316710203886032" lat="49.1482810974121094">
        <ele>70.50822448730469</ele>
        <time>2016-09-21T10:44:36.000Z</time>
      </trkpt>
      <trkpt lon="0.2318186312913895" lat="49.1482696533203125">
        <ele>70.70491027832031</ele>
        <time>2016-09-21T10:44:39.000Z</time>
      </trkpt>
      <trkpt lon="0.2319631427526474" lat="49.1482543945312500">
        <ele>70.88433837890625</ele>
        <time>2016-09-21T10:44:42.000Z</time>
      </trkpt>
      <trkpt lon="0.2321009337902069" lat="49.1482353210449219">
        <ele>71.04715728759766</ele>
        <time>2016-09-21T10:44:45.000Z</time>
      </trkpt>
      <trkpt lon="0.2322383075952530" lat="49.1482467651367188">
        <ele>71.20475769042969</ele>
        <time>2016-09-21T10:44:48.000Z</time>
      </trkpt>
      <trkpt lon="0.2323702424764633" lat="49.1482887268066406">
        <ele>71.38385772705078</ele>
        <time>2016-09-21T10:44:51.000Z</time>
      </trkpt>
      <trkpt lon="0.2324455976486206" lat="49.1483345031738281">
        <ele>71.56346130371094</ele>
        <time>2016-09-21T10:44:53.000Z</time>
      </trkpt>
      <trkpt lon="0.2325283288955688" lat="49.1483650207519531">
        <ele>71.77266693115234</ele>
        <time>2016-09-21T10:44:55.000Z</time>
      </trkpt>
      <trkpt lon="0.2326810508966446" lat="49.1483917236328125">
        <ele>72.11717224121094</ele>
        <time>2016-09-21T10:44:58.000Z</time>
      </trkpt>
      <trkpt lon="0.2328330129384995" lat="49.1484222412109375">
        <ele>72.58198547363281</ele>
        <time>2016-09-21T10:45:01.000Z</time>
      </trkpt>
      <trkpt lon="0.2329239547252655" lat="49.1484642028808594">
        <ele>73.11228942871094</ele>
        <time>2016-09-21T10:45:03.000Z</time>
      </trkpt>
      <trkpt lon="0.2330026626586914" lat="49.1485099792480469">
        <ele>73.70816802978516</ele>
        <time>2016-09-21T10:45:05.000Z</time>
      </trkpt>
      <trkpt lon="0.2330741584300995" lat="49.1485443115234375">
        <ele>74.32659912109375</ele>
        <time>2016-09-21T10:45:07.000Z</time>
      </trkpt>
      <trkpt lon="0.2331909984350204" lat="49.1486015319824219">
        <ele>74.91553497314453</ele>
        <time>2016-09-21T10:45:10.000Z</time>
      </trkpt>
      <trkpt lon="0.2333026528358459" lat="49.1486625671386719">
        <ele>75.47185516357422</ele>
        <time>2016-09-21T10:45:13.000Z</time>
      </trkpt>
      <trkpt lon="0.2333728075027466" lat="49.1486892700195312">
        <ele>75.99049377441406</ele>
        <time>2016-09-21T10:45:15.000Z</time>
      </trkpt>
      <trkpt lon="0.2334501743316650" lat="49.1487159729003906">
        <ele>76.48805236816406</ele>
        <time>2016-09-21T10:45:17.000Z</time>
      </trkpt>
      <trkpt lon="0.2335706949234009" lat="49.1487541198730469">
        <ele>77.02180480957031</ele>
        <time>2016-09-21T10:45:20.000Z</time>
      </trkpt>
      <trkpt lon="0.2336890548467636" lat="49.1487808227539062">
        <ele>77.52925109863281</ele>
        <time>2016-09-21T10:45:23.000Z</time>
      </trkpt>
      <trkpt lon="0.2338037192821503" lat="49.1487998962402344">
        <ele>78.01060485839844</ele>
        <time>2016-09-21T10:45:26.000Z</time>
      </trkpt>
      <trkpt lon="0.2339224070310593" lat="49.1488151550292969">
        <ele>78.52092742919922</ele>
        <time>2016-09-21T10:45:28.000Z</time>
      </trkpt>
      <trkpt lon="0.2340046316385269" lat="49.1488304138183594">
        <ele>79.0262222290039</ele>
        <time>2016-09-21T10:45:31.000Z</time>
      </trkpt>
      <trkpt lon="0.2340803146362305" lat="49.1488456726074219">
        <ele>79.47727966308594</ele>
        <time>2016-09-21T10:45:33.000Z</time>
      </trkpt>
      <trkpt lon="0.2341486364603043" lat="49.1488609313964844">
        <ele>79.87940979003906</ele>
        <time>2016-09-21T10:45:35.000Z</time>
      </trkpt>
      <trkpt lon="0.2342244833707809" lat="49.1488494873046875">
        <ele>80.23571014404297</ele>
        <time>2016-09-21T10:45:37.000Z</time>
      </trkpt>
      <trkpt lon="0.2343438416719437" lat="49.1488304138183594">
        <ele>80.57612609863281</ele>
        <time>2016-09-21T10:45:40.000Z</time>
      </trkpt>
      <trkpt lon="0.2344238907098770" lat="49.1488380432128906">
        <ele>80.90736389160156</ele>
        <time>2016-09-21T10:45:42.000Z</time>
      </trkpt>
      <trkpt lon="0.2344929575920105" lat="49.1488533020019531">
        <ele>81.23370361328125</ele>
        <time>2016-09-21T10:45:44.000Z</time>
      </trkpt>
      <trkpt lon="0.2346024364233017" lat="49.1488761901855469">
        <ele>81.5978012084961</ele>
        <time>2016-09-21T10:45:47.000Z</time>
      </trkpt>
      <trkpt lon="0.2347119003534317" lat="49.1488990783691406">
        <ele>82.00344848632812</ele>
        <time>2016-09-21T10:45:50.000Z</time>
      </trkpt>
      <trkpt lon="0.2348165810108185" lat="49.1489219665527344">
        <ele>82.42118835449219</ele>
        <time>2016-09-21T10:45:53.000Z</time>
      </trkpt>
      <trkpt lon="0.2349258065223694" lat="49.1489486694335938">
        <ele>82.88468170166016</ele>
        <time>2016-09-21T10:45:56.000Z</time>
      </trkpt>
      <trkpt lon="0.2349984794855118" lat="49.1489601135253906">
        <ele>83.35459899902344</ele>
        <time>2016-09-21T10:45:58.000Z</time>
      </trkpt>
      <trkpt lon="0.2351228594779968" lat="49.1489715576171875">
        <ele>83.87950134277344</ele>
        <time>2016-09-21T10:46:00.000Z</time>
      </trkpt>
      <trkpt lon="0.2352020740509033" lat="49.1489830017089844">
        <ele>84.4103775024414</ele>
        <time>2016-09-21T10:46:03.000Z</time>
      </trkpt>
      <trkpt lon="0.2353329956531525" lat="49.1490325927734375">
        <ele>85.0544204711914</ele>
        <time>2016-09-21T10:46:06.000Z</time>
      </trkpt>
      <trkpt lon="0.2354503422975540" lat="49.1490936279296875">
        <ele>85.81940460205078</ele>
        <time>2016-09-21T10:46:09.000Z</time>
      </trkpt>
      <trkpt lon="0.2355409562587738" lat="49.1491127014160156">
        <ele>86.66915130615234</ele>
        <time>2016-09-21T10:46:11.000Z</time>
      </trkpt>
      <trkpt lon="0.2356280386447906" lat="49.1491317749023438">
        <ele>87.518310546875</ele>
        <time>2016-09-21T10:46:13.000Z</time>
      </trkpt>
      <trkpt lon="0.2357048988342285" lat="49.1491470336914062">
        <ele>88.39161682128906</ele>
        <time>2016-09-21T10:46:15.000Z</time>
      </trkpt>
      <trkpt lon="0.2357738912105560" lat="49.1491622924804688">
        <ele>89.17960357666016</ele>
        <time>2016-09-21T10:46:17.000Z</time>
      </trkpt>
      <trkpt lon="0.2358714491128922" lat="49.1491889953613281">
        <ele>89.8104476928711</ele>
        <time>2016-09-21T10:46:20.000Z</time>
      </trkpt>
      <trkpt lon="0.2359292060136795" lat="49.1492080688476562">
        <ele>90.30147552490234</ele>
        <time>2016-09-21T10:46:22.000Z</time>
      </trkpt>
      <trkpt lon="0.2360166311264038" lat="49.1492271423339844">
        <ele>90.67227172851562</ele>
        <time>2016-09-21T10:46:25.000Z</time>
      </trkpt>
      <trkpt lon="0.2361197173595428" lat="49.1492576599121094">
        <ele>90.9456558227539</ele>
        <time>2016-09-21T10:46:28.000Z</time>
      </trkpt>
      <trkpt lon="0.2361873686313629" lat="49.1492843627929688">
        <ele>91.11366271972656</ele>
        <time>2016-09-21T10:46:30.000Z</time>
      </trkpt>
      <trkpt lon="0.2362882792949677" lat="49.1493148803710938">
        <ele>91.25748443603516</ele>
        <time>2016-09-21T10:46:33.000Z</time>
      </trkpt>
      <trkpt lon="0.2363718450069427" lat="49.1493148803710938">
        <ele>91.47162628173828</ele>
        <time>2016-09-21T10:46:35.000Z</time>
      </trkpt>
      <trkpt lon="0.2364875972270966" lat="49.1493148803710938">
        <ele>91.767578125</ele>
        <time>2016-09-21T10:46:38.000Z</time>
      </trkpt>
      <trkpt lon="0.2366011738777161" lat="49.1493377685546875">
        <ele>92.12700653076172</ele>
        <time>2016-09-21T10:46:40.000Z</time>
      </trkpt>
      <trkpt lon="0.2366870939731598" lat="49.1493682861328125">
        <ele>92.52604675292969</ele>
        <time>2016-09-21T10:46:43.000Z</time>
      </trkpt>
      <trkpt lon="0.2367705702781677" lat="49.1493949890136719">
        <ele>92.93368530273438</ele>
        <time>2016-09-21T10:46:45.000Z</time>
      </trkpt>
      <trkpt lon="0.2368868291378021" lat="49.1494331359863281">
        <ele>93.33165740966797</ele>
        <time>2016-09-21T10:46:47.000Z</time>
      </trkpt>
      <trkpt lon="0.2369662970304489" lat="49.1494674682617188">
        <ele>93.6602554321289</ele>
        <time>2016-09-21T10:46:50.000Z</time>
      </trkpt>
      <trkpt lon="0.2370804548263550" lat="49.1495132446289062">
        <ele>93.95679473876953</ele>
        <time>2016-09-21T10:46:53.000Z</time>
      </trkpt>
      <trkpt lon="0.2371883243322372" lat="49.1495323181152344">
        <ele>94.26707458496094</ele>
        <time>2016-09-21T10:46:56.000Z</time>
      </trkpt>
      <trkpt lon="0.2373022437095642" lat="49.1495704650878906">
        <ele>94.584716796875</ele>
        <time>2016-09-21T10:46:59.000Z</time>
      </trkpt>
      <trkpt lon="0.2374173253774643" lat="49.1495933532714844">
        <ele>94.90452575683594</ele>
        <time>2016-09-21T10:47:02.000Z</time>
      </trkpt>
      <trkpt lon="0.2374947667121887" lat="49.1495971679687500">
        <ele>95.24134826660156</ele>
        <time>2016-09-21T10:47:04.000Z</time>
      </trkpt>
      <trkpt lon="0.2376060038805008" lat="49.1495971679687500">
        <ele>95.67219543457031</ele>
        <time>2016-09-21T10:47:06.000Z</time>
      </trkpt>
      <trkpt lon="0.2376791685819626" lat="49.1496009826660156">
        <ele>96.12834930419922</ele>
        <time>2016-09-21T10:47:08.000Z</time>
      </trkpt>
      <trkpt lon="0.2377495020627975" lat="49.1496086120605469">
        <ele>96.61177062988281</ele>
        <time>2016-09-21T10:47:11.000Z</time>
      </trkpt>
      <trkpt lon="0.2378183156251907" lat="49.1496162414550781">
        <ele>97.10965728759766</ele>
        <time>2016-09-21T10:47:13.000Z</time>
      </trkpt>
      <trkpt lon="0.2379240989685059" lat="49.1496238708496094">
        <ele>97.68704986572266</ele>
        <time>2016-09-21T10:47:15.000Z</time>
      </trkpt>
      <trkpt lon="0.2379983514547348" lat="49.1496353149414062">
        <ele>98.2032470703125</ele>
        <time>2016-09-21T10:47:18.000Z</time>
      </trkpt>
      <trkpt lon="0.2380715310573578" lat="49.1496505737304688">
        <ele>98.70127868652344</ele>
        <time>2016-09-21T10:47:20.000Z</time>
      </trkpt>
      <trkpt lon="0.2381692677736282" lat="49.1496620178222656">
        <ele>99.22828674316406</ele>
        <time>2016-09-21T10:47:22.000Z</time>
      </trkpt>
      <trkpt lon="0.2382701039314270" lat="49.1496658325195312">
        <ele>99.80142974853516</ele>
        <time>2016-09-21T10:47:26.000Z</time>
      </trkpt>
      <trkpt lon="0.2383752018213272" lat="49.1496772766113281">
        <ele>100.35711669921875</ele>
        <time>2016-09-21T10:47:29.000Z</time>
      </trkpt>
      <trkpt lon="0.2384427636861801" lat="49.1496849060058594">
        <ele>100.89140319824219</ele>
        <time>2016-09-21T10:47:31.000Z</time>
      </trkpt>
      <trkpt lon="0.2385426014661789" lat="49.1497116088867188">
        <ele>101.43697357177734</ele>
        <time>2016-09-21T10:47:34.000Z</time>
      </trkpt>
      <trkpt lon="0.2386464476585388" lat="49.1497306823730469">
        <ele>101.96858978271484</ele>
        <time>2016-09-21T10:47:37.000Z</time>
      </trkpt>
      <trkpt lon="0.2387170195579529" lat="49.1497344970703125">
        <ele>102.4510498046875</ele>
        <time>2016-09-21T10:47:39.000Z</time>
      </trkpt>
      <trkpt lon="0.2388257384300232" lat="49.1497459411621094">
        <ele>102.93641662597656</ele>
        <time>2016-09-21T10:47:42.000Z</time>
      </trkpt>
      <trkpt lon="0.2389364540576935" lat="49.1497611999511719">
        <ele>103.47821044921875</ele>
        <time>2016-09-21T10:47:45.000Z</time>
      </trkpt>
      <trkpt lon="0.2390072047710419" lat="49.1497688293457031">
        <ele>104.0099868774414</ele>
        <time>2016-09-21T10:47:47.000Z</time>
      </trkpt>
      <trkpt lon="0.2390754371881485" lat="49.1497840881347656">
        <ele>104.5078125</ele>
        <time>2016-09-21T10:47:49.000Z</time>
      </trkpt>
      <trkpt lon="0.2391378730535507" lat="49.1497840881347656">
        <ele>105.0020523071289</ele>
        <time>2016-09-21T10:47:51.000Z</time>
      </trkpt>
      <trkpt lon="0.2391965538263321" lat="49.1497688293457031">
        <ele>105.4577865600586</ele>
        <time>2016-09-21T10:47:53.000Z</time>
      </trkpt>
      <trkpt lon="0.2392869144678116" lat="49.1497802734375000">
        <ele>105.87461853027344</ele>
        <time>2016-09-21T10:47:56.000Z</time>
      </trkpt>
      <trkpt lon="0.2393507808446884" lat="49.1497879028320312">
        <ele>106.27311706542969</ele>
        <time>2016-09-21T10:47:58.000Z</time>
      </trkpt>
      <trkpt lon="0.2394203543663025" lat="49.1497955322265625">
        <ele>106.6709976196289</ele>
        <time>2016-09-21T10:48:00.000Z</time>
      </trkpt>
      <trkpt lon="0.2394890785217285" lat="49.1498031616210938">
        <ele>107.05812072753906</ele>
        <time>2016-09-21T10:48:02.000Z</time>
      </trkpt>
      <trkpt lon="0.2395824491977692" lat="49.1498184204101562">
        <ele>107.45438385009766</ele>
        <time>2016-09-21T10:48:04.000Z</time>
      </trkpt>
      <trkpt lon="0.2396360188722610" lat="49.1498260498046875">
        <ele>107.8143081665039</ele>
        <time>2016-09-21T10:48:07.000Z</time>
      </trkpt>
      <trkpt lon="0.2396920025348663" lat="49.1498336791992188">
        <ele>108.16678619384766</ele>
        <time>2016-09-21T10:48:09.000Z</time>
      </trkpt>
      <trkpt lon="0.2397837936878204" lat="49.1498413085937500">
        <ele>108.5466079711914</ele>
        <time>2016-09-21T10:48:12.000Z</time>
      </trkpt>
      <trkpt lon="0.2398416996002197" lat="49.1498451232910156">
        <ele>108.91876220703125</ele>
        <time>2016-09-21T10:48:14.000Z</time>
      </trkpt>
      <trkpt lon="0.2398981153964996" lat="49.1498413085937500">
        <ele>109.26261901855469</ele>
        <time>2016-09-21T10:48:16.000Z</time>
      </trkpt>
      <trkpt lon="0.2399528473615646" lat="49.1498413085937500">
        <ele>109.61491394042969</ele>
        <time>2016-09-21T10:48:18.000Z</time>
      </trkpt>
      <trkpt lon="0.2400062382221222" lat="49.1498413085937500">
        <ele>109.97190856933594</ele>
        <time>2016-09-21T10:48:20.000Z</time>
      </trkpt>
      <trkpt lon="0.2400907278060913" lat="49.1498451232910156">
        <ele>110.33548736572266</ele>
        <time>2016-09-21T10:48:22.000Z</time>
      </trkpt>
      <trkpt lon="0.2401922345161438" lat="49.1498489379882812">
        <ele>110.7628173828125</ele>
        <time>2016-09-21T10:48:26.000Z</time>
      </trkpt>
      <trkpt lon="0.2403003573417664" lat="49.1498565673828125">
        <ele>111.25376892089844</ele>
        <time>2016-09-21T10:48:29.000Z</time>
      </trkpt>
      <trkpt lon="0.2403733730316162" lat="49.1498641967773438">
        <ele>111.7675552368164</ele>
        <time>2016-09-21T10:48:31.000Z</time>
      </trkpt>
      <trkpt lon="0.2404706776142120" lat="49.1498794555664062">
        <ele>112.33103942871094</ele>
        <time>2016-09-21T10:48:34.000Z</time>
      </trkpt>
      <trkpt lon="0.2405623048543930" lat="49.1498908996582031">
        <ele>112.89222717285156</ele>
        <time>2016-09-21T10:48:37.000Z</time>
      </trkpt>
      <trkpt lon="0.2406214773654938" lat="49.1498947143554688">
        <ele>113.39627838134766</ele>
        <time>2016-09-21T10:48:39.000Z</time>
      </trkpt>
      <trkpt lon="0.2407156080007553" lat="49.1498947143554688">
        <ele>113.88719177246094</ele>
        <time>2016-09-21T10:48:41.000Z</time>
      </trkpt>
      <trkpt lon="0.2407780438661575" lat="49.1498985290527344">
        <ele>114.36607360839844</ele>
        <time>2016-09-21T10:48:44.000Z</time>
      </trkpt>
      <trkpt lon="0.2408404052257538" lat="49.1498947143554688">
        <ele>114.8152847290039</ele>
        <time>2016-09-21T10:48:46.000Z</time>
      </trkpt>
      <trkpt lon="0.2409285008907318" lat="49.1498985290527344">
        <ele>115.25653076171875</ele>
        <time>2016-09-21T10:48:49.000Z</time>
      </trkpt>
      <trkpt lon="0.2410223037004471" lat="49.1499061584472656">
        <ele>115.72560119628906</ele>
        <time>2016-09-21T10:48:52.000Z</time>
      </trkpt>
      <trkpt lon="0.2410901933908463" lat="49.1499099731445312">
        <ele>116.14949035644531</ele>
        <time>2016-09-21T10:48:54.000Z</time>
      </trkpt>
      <trkpt lon="0.2411873340606689" lat="49.1499176025390625">
        <ele>116.60285949707031</ele>
        <time>2016-09-21T10:48:57.000Z</time>
      </trkpt>
      <trkpt lon="0.2412607669830322" lat="49.1499176025390625">
        <ele>117.05839538574219</ele>
        <time>2016-09-21T10:48:59.000Z</time>
      </trkpt>
      <trkpt lon="0.2413656264543533" lat="49.1499290466308594">
        <ele>117.52823638916016</ele>
        <time>2016-09-21T10:49:02.000Z</time>
      </trkpt>
      <trkpt lon="0.2414568960666656" lat="49.1499290466308594">
        <ele>118.00578308105469</ele>
        <time>2016-09-21T10:49:04.000Z</time>
      </trkpt>
      <trkpt lon="0.2415162473917007" lat="49.1499328613281250">
        <ele>118.47538757324219</ele>
        <time>2016-09-21T10:49:07.000Z</time>
      </trkpt>
      <trkpt lon="0.2416112124919891" lat="49.1499366760253906">
        <ele>118.9519271850586</ele>
        <time>2016-09-21T10:49:10.000Z</time>
      </trkpt>
      <trkpt lon="0.2416769266128540" lat="49.1499404907226562">
        <ele>119.40989685058594</ele>
        <time>2016-09-21T10:49:12.000Z</time>
      </trkpt>
      <trkpt lon="0.2417726516723633" lat="49.1499443054199219">
        <ele>119.79776763916016</ele>
        <time>2016-09-21T10:49:15.000Z</time>
      </trkpt>
      <trkpt lon="0.2418365180492401" lat="49.1499481201171875">
        <ele>120.10577392578125</ele>
        <time>2016-09-21T10:49:17.000Z</time>
      </trkpt>
      <trkpt lon="0.2419507652521133" lat="49.1499404907226562">
        <ele>120.40409088134766</ele>
        <time>2016-09-21T10:49:20.000Z</time>
      </trkpt>
      <trkpt lon="0.2420298010110855" lat="49.1499328613281250">
        <ele>120.6292495727539</ele>
        <time>2016-09-21T10:49:22.000Z</time>
      </trkpt>
      <trkpt lon="0.2421294599771500" lat="49.1499176025390625">
        <ele>120.83976745605469</ele>
        <time>2016-09-21T10:49:24.000Z</time>
      </trkpt>
      <trkpt lon="0.2421927452087402" lat="49.1499023437500000">
        <ele>121.04460144042969</ele>
        <time>2016-09-21T10:49:27.000Z</time>
      </trkpt>
      <trkpt lon="0.2422554492950439" lat="49.1498870849609375">
        <ele>121.25616455078125</ele>
        <time>2016-09-21T10:49:29.000Z</time>
      </trkpt>
      <trkpt lon="0.2423514127731323" lat="49.1498641967773438">
        <ele>121.4582290649414</ele>
        <time>2016-09-21T10:49:32.000Z</time>
      </trkpt>
      <trkpt lon="0.2424198985099792" lat="49.1498565673828125">
        <ele>121.6529769897461</ele>
        <time>2016-09-21T10:49:34.000Z</time>
      </trkpt>
      <trkpt lon="0.2425297796726227" lat="49.1498641967773438">
        <ele>121.84529876708984</ele>
        <time>2016-09-21T10:49:37.000Z</time>
      </trkpt>
      <trkpt lon="0.2425951659679413" lat="49.1498718261718750">
        <ele>122.04469299316406</ele>
        <time>2016-09-21T10:49:39.000Z</time>
      </trkpt>
      <trkpt lon="0.2426830083131790" lat="49.1498565673828125">
        <ele>122.2696304321289</ele>
        <time>2016-09-21T10:49:42.000Z</time>
      </trkpt>
      <trkpt lon="0.2427758723497391" lat="49.1498527526855469">
        <ele>122.50773620605469</ele>
        <time>2016-09-21T10:49:44.000Z</time>
      </trkpt>
      <trkpt lon="0.2428439408540726" lat="49.1498451232910156">
        <ele>122.75955963134766</ele>
        <time>2016-09-21T10:49:47.000Z</time>
      </trkpt>
      <trkpt lon="0.2429235577583313" lat="49.1498298645019531">
        <ele>123.0124740600586</ele>
        <time>2016-09-21T10:49:49.000Z</time>
      </trkpt>
      <trkpt lon="0.2430015951395035" lat="49.1498184204101562">
        <ele>123.27203369140625</ele>
        <time>2016-09-21T10:49:51.000Z</time>
      </trkpt>
      <trkpt lon="0.2431144267320633" lat="49.1498107910156250">
        <ele>123.54216003417969</ele>
        <time>2016-09-21T10:49:54.000Z</time>
      </trkpt>
      <trkpt lon="0.2432322651147842" lat="49.1498184204101562">
        <ele>123.82559967041016</ele>
        <time>2016-09-21T10:49:57.000Z</time>
      </trkpt>
      <trkpt lon="0.2433115690946579" lat="49.1498336791992188">
        <ele>124.11785888671875</ele>
        <time>2016-09-21T10:49:59.000Z</time>
      </trkpt>
      <trkpt lon="0.2433886826038361" lat="49.1498298645019531">
        <ele>124.4096908569336</ele>
        <time>2016-09-21T10:50:01.000Z</time>
      </trkpt>
      <trkpt lon="0.2435014098882675" lat="49.1498260498046875">
        <ele>124.7280502319336</ele>
        <time>2016-09-21T10:50:04.000Z</time>
      </trkpt>
      <trkpt lon="0.2436148971319199" lat="49.1498184204101562">
        <ele>125.0509262084961</ele>
        <time>2016-09-21T10:50:07.000Z</time>
      </trkpt>
      <trkpt lon="0.2436903417110443" lat="49.1498146057128906">
        <ele>125.349853515625</ele>
        <time>2016-09-21T10:50:09.000Z</time>
      </trkpt>
      <trkpt lon="0.2438131421804428" lat="49.1498336791992188">
        <ele>125.68585205078125</ele>
        <time>2016-09-21T10:50:12.000Z</time>
      </trkpt>
      <trkpt lon="0.2438991367816925" lat="49.1498565673828125">
        <ele>126.03974914550781</ele>
        <time>2016-09-21T10:50:14.000Z</time>
      </trkpt>
      <trkpt lon="0.2440444827079773" lat="49.1498870849609375">
        <ele>126.43052673339844</ele>
        <time>2016-09-21T10:50:17.000Z</time>
      </trkpt>
      <trkpt lon="0.2441433817148209" lat="49.1498947143554688">
        <ele>126.81974792480469</ele>
        <time>2016-09-21T10:50:19.000Z</time>
      </trkpt>
      <trkpt lon="0.2442378401756287" lat="49.1499137878417969">
        <ele>127.23709869384766</ele>
        <time>2016-09-21T10:50:21.000Z</time>
      </trkpt>
      <trkpt lon="0.2443693578243256" lat="49.1499519348144531">
        <ele>127.6772232055664</ele>
        <time>2016-09-21T10:50:24.000Z</time>
      </trkpt>
      <trkpt lon="0.2444624751806259" lat="49.1499748229980469">
        <ele>128.12850952148438</ele>
        <time>2016-09-21T10:50:26.000Z</time>
      </trkpt>
      <trkpt lon="0.2445490658283234" lat="49.1499977111816406">
        <ele>128.54052734375</ele>
        <time>2016-09-21T10:50:28.000Z</time>
      </trkpt>
      <trkpt lon="0.2446801662445068" lat="49.1500244140625000">
        <ele>128.96311950683594</ele>
        <time>2016-09-21T10:50:31.000Z</time>
      </trkpt>
      <trkpt lon="0.2448158562183380" lat="49.1500473022460938">
        <ele>129.394287109375</ele>
        <time>2016-09-21T10:50:33.000Z</time>
      </trkpt>
      <trkpt lon="0.2449063807725906" lat="49.1500625610351562">
        <ele>129.7734375</ele>
        <time>2016-09-21T10:50:36.000Z</time>
      </trkpt>
      <trkpt lon="0.2450334578752518" lat="49.1500930786132812">
        <ele>130.15133666992188</ele>
        <time>2016-09-21T10:50:39.000Z</time>
      </trkpt>
      <trkpt lon="0.2451633810997009" lat="49.1501274108886719">
        <ele>130.5350341796875</ele>
        <time>2016-09-21T10:50:42.000Z</time>
      </trkpt>
      <trkpt lon="0.2452963143587112" lat="49.1501617431640625">
        <ele>130.91452026367188</ele>
        <time>2016-09-21T10:50:45.000Z</time>
      </trkpt>
      <trkpt lon="0.2454210370779037" lat="49.1501998901367188">
        <ele>131.2805633544922</ele>
        <time>2016-09-21T10:50:48.000Z</time>
      </trkpt>
      <trkpt lon="0.2455686479806900" lat="49.1502456665039062">
        <ele>131.67117309570312</ele>
        <time>2016-09-21T10:50:51.000Z</time>
      </trkpt>
      <trkpt lon="0.2457214444875717" lat="49.1502952575683594">
        <ele>132.06886291503906</ele>
        <time>2016-09-21T10:50:54.000Z</time>
      </trkpt>
      <trkpt lon="0.2458858937025070" lat="49.1503219604492188">
        <ele>132.50595092773438</ele>
        <time>2016-09-21T10:50:56.000Z</time>
      </trkpt>
      <trkpt lon="0.2460073530673981" lat="49.1503181457519531">
        <ele>132.97947692871094</ele>
        <time>2016-09-21T10:50:59.000Z</time>
      </trkpt>
      <trkpt lon="0.2461209297180176" lat="49.1503295898437500">
        <ele>133.47705078125</ele>
        <time>2016-09-21T10:51:01.000Z</time>
      </trkpt>
      <trkpt lon="0.2462757378816605" lat="49.1503486633300781">
        <ele>134.01397705078125</ele>
        <time>2016-09-21T10:51:04.000Z</time>
      </trkpt>
      <trkpt lon="0.2464522570371628" lat="49.1503791809082031">
        <ele>134.59580993652344</ele>
        <time>2016-09-21T10:51:07.000Z</time>
      </trkpt>
      <trkpt lon="0.2465825229883194" lat="49.1504058837890625">
        <ele>135.1419677734375</ele>
        <time>2016-09-21T10:51:09.000Z</time>
      </trkpt>
      <trkpt lon="0.2467685937881470" lat="49.1504478454589844">
        <ele>135.654541015625</ele>
        <time>2016-09-21T10:51:12.000Z</time>
      </trkpt>
      <trkpt lon="0.2469542473554611" lat="49.1504821777343750">
        <ele>136.130126953125</ele>
        <time>2016-09-21T10:51:15.000Z</time>
      </trkpt>
      <trkpt lon="0.2470756173133850" lat="49.1505088806152344">
        <ele>136.5034942626953</ele>
        <time>2016-09-21T10:51:17.000Z</time>
      </trkpt>
      <trkpt lon="0.2472513020038605" lat="49.1505546569824219">
        <ele>136.762451171875</ele>
        <time>2016-09-21T10:51:20.000Z</time>
      </trkpt>
      <trkpt lon="0.2473680675029755" lat="49.1505851745605469">
        <ele>136.937255859375</ele>
        <time>2016-09-21T10:51:22.000Z</time>
      </trkpt>
      <trkpt lon="0.2474849969148636" lat="49.1506156921386719">
        <ele>137.02981567382812</ele>
        <time>2016-09-21T10:51:24.000Z</time>
      </trkpt>
      <trkpt lon="0.2476750910282135" lat="49.1506614685058594">
        <ele>137.0503692626953</ele>
        <time>2016-09-21T10:51:26.000Z</time>
      </trkpt>
      <trkpt lon="0.2478059381246567" lat="49.1506881713867188">
        <ele>137.07077026367188</ele>
        <time>2016-09-21T10:51:29.000Z</time>
      </trkpt>
      <trkpt lon="0.2479935288429260" lat="49.1507225036621094">
        <ele>137.12484741210938</ele>
        <time>2016-09-21T10:51:32.000Z</time>
      </trkpt>
      <trkpt lon="0.2481076866388321" lat="49.1507453918457031">
        <ele>137.2244110107422</ele>
        <time>2016-09-21T10:51:34.000Z</time>
      </trkpt>
      <trkpt lon="0.2482987940311432" lat="49.1507873535156250">
        <ele>137.4093780517578</ele>
        <time>2016-09-21T10:51:37.000Z</time>
      </trkpt>
      <trkpt lon="0.2484864592552185" lat="49.1508293151855469">
        <ele>137.646240234375</ele>
        <time>2016-09-21T10:51:40.000Z</time>
      </trkpt>
      <trkpt lon="0.2486634850502014" lat="49.1508750915527344">
        <ele>137.86062622070312</ele>
        <time>2016-09-21T10:51:43.000Z</time>
      </trkpt>
      <trkpt lon="0.2488446235656738" lat="49.1509132385253906">
        <ele>138.04086303710938</ele>
        <time>2016-09-21T10:51:46.000Z</time>
      </trkpt>
      <trkpt lon="0.2490255832672119" lat="49.1509590148925781">
        <ele>138.19058227539062</ele>
        <time>2016-09-21T10:51:49.000Z</time>
      </trkpt>
      <trkpt lon="0.2491447776556015" lat="49.1509857177734375">
        <ele>138.2755889892578</ele>
        <time>2016-09-21T10:51:51.000Z</time>
      </trkpt>
      <trkpt lon="0.2493559271097183" lat="49.1510200500488281">
        <ele>138.32272338867188</ele>
        <time>2016-09-21T10:51:54.000Z</time>
      </trkpt>
      <trkpt lon="0.2495530694723129" lat="49.1510658264160156">
        <ele>138.36959838867188</ele>
        <time>2016-09-21T10:51:56.000Z</time>
      </trkpt>
      <trkpt lon="0.2497029304504395" lat="49.1510353088378906">
        <ele>138.43533325195312</ele>
        <time>2016-09-21T10:51:59.000Z</time>
      </trkpt>
      <trkpt lon="0.2498965561389923" lat="49.1510391235351562">
        <ele>138.50973510742188</ele>
        <time>2016-09-21T10:52:01.000Z</time>
      </trkpt>
      <trkpt lon="0.2500947713851929" lat="49.1510543823242188">
        <ele>138.57894897460938</ele>
        <time>2016-09-21T10:52:04.000Z</time>
      </trkpt>
      <trkpt lon="0.2503330111503601" lat="49.1510505676269531">
        <ele>138.66262817382812</ele>
        <time>2016-09-21T10:52:06.000Z</time>
      </trkpt>
      <trkpt lon="0.2504750788211823" lat="49.1510467529296875">
        <ele>138.75650024414062</ele>
        <time>2016-09-21T10:52:09.000Z</time>
      </trkpt>
      <trkpt lon="0.2506166398525238" lat="49.1510162353515625">
        <ele>138.8273162841797</ele>
        <time>2016-09-21T10:52:11.000Z</time>
      </trkpt>
      <trkpt lon="0.2509458959102631" lat="49.1510925292968750">
        <ele>138.88851928710938</ele>
        <time>2016-09-21T10:52:14.000Z</time>
      </trkpt>
      <trkpt lon="0.2512329518795013" lat="49.1511535644531250">
        <ele>138.93540954589844</ele>
        <time>2016-09-21T10:52:17.000Z</time>
      </trkpt>
      <trkpt lon="0.2515270709991455" lat="49.1512336730957031">
        <ele>138.9665985107422</ele>
        <time>2016-09-21T10:52:20.000Z</time>
      </trkpt>
      <trkpt lon="0.2517708241939545" lat="49.1513137817382812">
        <ele>138.9990997314453</ele>
        <time>2016-09-21T10:52:23.000Z</time>
      </trkpt>
      <trkpt lon="0.2519441545009613" lat="49.1514244079589844">
        <ele>139.0299530029297</ele>
        <time>2016-09-21T10:52:26.000Z</time>
      </trkpt>
      <trkpt lon="0.2521392107009888" lat="49.1514930725097656">
        <ele>139.0535430908203</ele>
        <time>2016-09-21T10:52:29.000Z</time>
      </trkpt>
      <trkpt lon="0.2523662745952606" lat="49.1515121459960938">
        <ele>139.08436584472656</ele>
        <time>2016-09-21T10:52:32.000Z</time>
      </trkpt>
      <trkpt lon="0.2525428831577301" lat="49.1515312194824219">
        <ele>139.13270568847656</ele>
        <time>2016-09-21T10:52:34.000Z</time>
      </trkpt>
      <trkpt lon="0.2527646720409393" lat="49.1515808105468750">
        <ele>139.25015258789062</ele>
        <time>2016-09-21T10:52:37.000Z</time>
      </trkpt>
      <trkpt lon="0.2529626488685608" lat="49.1516532897949219">
        <ele>139.4505157470703</ele>
        <time>2016-09-21T10:52:40.000Z</time>
      </trkpt>
      <trkpt lon="0.2531701922416687" lat="49.1517181396484375">
        <ele>139.76072692871094</ele>
        <time>2016-09-21T10:52:43.000Z</time>
      </trkpt>
      <trkpt lon="0.2533772289752960" lat="49.1517715454101562">
        <ele>140.16525268554688</ele>
        <time>2016-09-21T10:52:46.000Z</time>
      </trkpt>
      <trkpt lon="0.2535040378570557" lat="49.1518173217773438">
        <ele>140.59439086914062</ele>
        <time>2016-09-21T10:52:48.000Z</time>
      </trkpt>
      <trkpt lon="0.2537138462066650" lat="49.1518669128417969">
        <ele>141.00592041015625</ele>
        <time>2016-09-21T10:52:51.000Z</time>
      </trkpt>
      <trkpt lon="0.2539055347442627" lat="49.1519088745117188">
        <ele>141.38153076171875</ele>
        <time>2016-09-21T10:52:54.000Z</time>
      </trkpt>
      <trkpt lon="0.2540888488292694" lat="49.1519660949707031">
        <ele>141.7007293701172</ele>
        <time>2016-09-21T10:52:56.000Z</time>
      </trkpt>
      <trkpt lon="0.2542210221290588" lat="49.1519927978515625">
        <ele>141.9569549560547</ele>
        <time>2016-09-21T10:52:58.000Z</time>
      </trkpt>
      <trkpt lon="0.2543675303459167" lat="49.1520233154296875">
        <ele>142.21302795410156</ele>
        <time>2016-09-21T10:53:01.000Z</time>
      </trkpt>
      <trkpt lon="0.2545802891254425" lat="49.1520881652832031">
        <ele>142.4737091064453</ele>
        <time>2016-09-21T10:53:04.000Z</time>
      </trkpt>
      <trkpt lon="0.2547878026962280" lat="49.1521415710449219">
        <ele>142.74111938476562</ele>
        <time>2016-09-21T10:53:07.000Z</time>
      </trkpt>
      <trkpt lon="0.2549719512462616" lat="49.1521377563476562">
        <ele>142.9940643310547</ele>
        <time>2016-09-21T10:53:09.000Z</time>
      </trkpt>
      <trkpt lon="0.2551661729812622" lat="49.1521148681640625">
        <ele>143.25021362304688</ele>
        <time>2016-09-21T10:53:12.000Z</time>
      </trkpt>
      <trkpt lon="0.2553729414939880" lat="49.1521263122558594">
        <ele>143.5168914794922</ele>
        <time>2016-09-21T10:53:15.000Z</time>
      </trkpt>
      <trkpt lon="0.2555631399154663" lat="49.1522254943847656">
        <ele>143.78598022460938</ele>
        <time>2016-09-21T10:53:18.000Z</time>
      </trkpt>
      <trkpt lon="0.2556896209716797" lat="49.1522483825683594">
        <ele>144.02877807617188</ele>
        <time>2016-09-21T10:53:20.000Z</time>
      </trkpt>
      <trkpt lon="0.2559000849723816" lat="49.1523017883300781">
        <ele>144.2793426513672</ele>
        <time>2016-09-21T10:53:23.000Z</time>
      </trkpt>
      <trkpt lon="0.2560552358627319" lat="49.1523590087890625">
        <ele>144.50698852539062</ele>
        <time>2016-09-21T10:53:25.000Z</time>
      </trkpt>
      <trkpt lon="0.2562378942966461" lat="49.1523895263671875">
        <ele>144.69297790527344</ele>
        <time>2016-09-21T10:53:28.000Z</time>
      </trkpt>
      <trkpt lon="0.2563714087009430" lat="49.1524276733398438">
        <ele>144.817626953125</ele>
        <time>2016-09-21T10:53:30.000Z</time>
      </trkpt>
      <trkpt lon="0.2565953731536865" lat="49.1524848937988281">
        <ele>144.91180419921875</ele>
        <time>2016-09-21T10:53:33.000Z</time>
      </trkpt>
      <trkpt lon="0.2567960321903229" lat="49.1525115966796875">
        <ele>144.9242401123047</ele>
        <time>2016-09-21T10:53:36.000Z</time>
      </trkpt>
      <trkpt lon="0.2570075094699860" lat="49.1525573730468750">
        <ele>144.86709594726562</ele>
        <time>2016-09-21T10:53:38.000Z</time>
      </trkpt>
      <trkpt lon="0.2571546137332916" lat="49.1525955200195312">
        <ele>144.7637481689453</ele>
        <time>2016-09-21T10:53:40.000Z</time>
      </trkpt>
      <trkpt lon="0.2573011219501495" lat="49.1526451110839844">
        <ele>144.61749267578125</ele>
        <time>2016-09-21T10:53:43.000Z</time>
      </trkpt>
      <trkpt lon="0.2574503123760223" lat="49.1526641845703125">
        <ele>144.42971801757812</ele>
        <time>2016-09-21T10:53:45.000Z</time>
      </trkpt>
      <trkpt lon="0.2576624751091003" lat="49.1527137756347656">
        <ele>144.27078247070312</ele>
        <time>2016-09-21T10:53:48.000Z</time>
      </trkpt>
      <trkpt lon="0.2578714191913605" lat="49.1527595520019531">
        <ele>144.1802520751953</ele>
        <time>2016-09-21T10:53:51.000Z</time>
      </trkpt>
      <trkpt lon="0.2580938041210175" lat="49.1528053283691406">
        <ele>144.14926147460938</ele>
        <time>2016-09-21T10:53:54.000Z</time>
      </trkpt>
      <trkpt lon="0.2582766115665436" lat="49.1528320312500000">
        <ele>144.17581176757812</ele>
        <time>2016-09-21T10:53:57.000Z</time>
      </trkpt>
      <trkpt lon="0.2584951221942902" lat="49.1528701782226562">
        <ele>144.31283569335938</ele>
        <time>2016-09-21T10:53:59.000Z</time>
      </trkpt>
      <trkpt lon="0.2586264014244080" lat="49.1529083251953125">
        <ele>144.50717163085938</ele>
        <time>2016-09-21T10:54:02.000Z</time>
      </trkpt>
      <trkpt lon="0.2587647736072540" lat="49.1529273986816406">
        <ele>144.73583984375</ele>
        <time>2016-09-21T10:54:04.000Z</time>
      </trkpt>
      <trkpt lon="0.2589919269084930" lat="49.1529350280761719">
        <ele>145.02188110351562</ele>
        <time>2016-09-21T10:54:07.000Z</time>
      </trkpt>
      <trkpt lon="0.2591423690319061" lat="49.1529922485351562">
        <ele>145.3394012451172</ele>
        <time>2016-09-21T10:54:09.000Z</time>
      </trkpt>
      <trkpt lon="0.2594053149223328" lat="49.1530303955078125">
        <ele>145.55392456054688</ele>
        <time>2016-09-21T10:54:12.000Z</time>
      </trkpt>
      <trkpt lon="0.2596063911914825" lat="49.1530838012695312">
        <ele>145.67555236816406</ele>
        <time>2016-09-21T10:54:15.000Z</time>
      </trkpt>
      <trkpt lon="0.2598980963230133" lat="49.1531410217285156">
        <ele>145.68411254882812</ele>
        <time>2016-09-21T10:54:18.000Z</time>
      </trkpt>
      <trkpt lon="0.2600765526294708" lat="49.1531791687011719">
        <ele>145.58689880371094</ele>
        <time>2016-09-21T10:54:20.000Z</time>
      </trkpt>
      <trkpt lon="0.2602643072605133" lat="49.1532211303710938">
        <ele>145.43011474609375</ele>
        <time>2016-09-21T10:54:22.000Z</time>
      </trkpt>
      <trkpt lon="0.2605366110801697" lat="49.1532669067382812">
        <ele>145.2926483154297</ele>
        <time>2016-09-21T10:54:25.000Z</time>
      </trkpt>
      <trkpt lon="0.2608159184455872" lat="49.1533241271972656">
        <ele>145.1708984375</ele>
        <time>2016-09-21T10:54:28.000Z</time>
      </trkpt>
      <trkpt lon="0.2611167430877686" lat="49.1533660888671875">
        <ele>145.0201416015625</ele>
        <time>2016-09-21T10:54:31.000Z</time>
      </trkpt>
      <trkpt lon="0.2614035606384277" lat="49.1534423828125000">
        <ele>144.77230834960938</ele>
        <time>2016-09-21T10:54:34.000Z</time>
      </trkpt>
      <trkpt lon="0.2616823613643646" lat="49.1534919738769531">
        <ele>144.41844177246094</ele>
        <time>2016-09-21T10:54:37.000Z</time>
      </trkpt>
      <trkpt lon="0.2618851065635681" lat="49.1535148620605469">
        <ele>143.98580932617188</ele>
        <time>2016-09-21T10:54:39.000Z</time>
      </trkpt>
      <trkpt lon="0.2620830833911896" lat="49.1535377502441406">
        <ele>143.48712158203125</ele>
        <time>2016-09-21T10:54:41.000Z</time>
      </trkpt>
      <trkpt lon="0.2623478770256042" lat="49.1535644531250000">
        <ele>142.952392578125</ele>
        <time>2016-09-21T10:54:44.000Z</time>
      </trkpt>
      <trkpt lon="0.2625450193881989" lat="49.1535987854003906">
        <ele>142.42202758789062</ele>
        <time>2016-09-21T10:54:46.000Z</time>
      </trkpt>
      <trkpt lon="0.2627862393856049" lat="49.1536064147949219">
        <ele>141.87881469726562</ele>
        <time>2016-09-21T10:54:49.000Z</time>
      </trkpt>
      <trkpt lon="0.2629917562007904" lat="49.1536331176757812">
        <ele>141.27944946289062</ele>
        <time>2016-09-21T10:54:51.000Z</time>
      </trkpt>
      <trkpt lon="0.2633114457130432" lat="49.1536788940429688">
        <ele>140.52317810058594</ele>
        <time>2016-09-21T10:54:54.000Z</time>
      </trkpt>
      <trkpt lon="0.2635251879692078" lat="49.1537170410156250">
        <ele>139.80313110351562</ele>
        <time>2016-09-21T10:54:56.000Z</time>
      </trkpt>
      <trkpt lon="0.2639000415802002" lat="49.1537666320800781">
        <ele>139.10623168945312</ele>
        <time>2016-09-21T10:54:59.000Z</time>
      </trkpt>
      <trkpt lon="0.2640316188335419" lat="49.1538162231445312">
        <ele>138.440185546875</ele>
        <time>2016-09-21T10:55:01.000Z</time>
      </trkpt>
      <trkpt lon="0.2642534971237183" lat="49.1538162231445312">
        <ele>137.92471313476562</ele>
        <time>2016-09-21T10:55:04.000Z</time>
      </trkpt>
      <trkpt lon="0.2644206285476685" lat="49.1538085937500000">
        <ele>137.68006896972656</ele>
        <time>2016-09-21T10:55:06.000Z</time>
      </trkpt>
      <trkpt lon="0.2645346224308014" lat="49.1536293029785156">
        <ele>137.80088806152344</ele>
        <time>2016-09-21T10:55:09.000Z</time>
      </trkpt>
      <trkpt lon="0.2645966410636902" lat="49.1534729003906250">
        <ele>138.22714233398438</ele>
        <time>2016-09-21T10:55:12.000Z</time>
      </trkpt>
      <trkpt lon="0.2646495401859283" lat="49.1534004211425781">
        <ele>138.8302764892578</ele>
        <time>2016-09-21T10:55:14.000Z</time>
      </trkpt>
      <trkpt lon="0.2646031975746155" lat="49.1533508300781250">
        <ele>139.51449584960938</ele>
        <time>2016-09-21T10:55:16.000Z</time>
      </trkpt>
      <trkpt lon="0.2646455168724060" lat="49.1532402038574219">
        <ele>140.24798583984375</ele>
        <time>2016-09-21T10:55:19.000Z</time>
      </trkpt>
      <trkpt lon="0.2646385729312897" lat="49.1532135009765625">
        <ele>140.72682189941406</ele>
        <time>2016-09-21T10:55:21.000Z</time>
      </trkpt>
      <trkpt lon="0.2646806240081787" lat="49.1531715393066406">
        <ele>141.00601196289062</ele>
        <time>2016-09-21T10:55:24.000Z</time>
      </trkpt>
      <trkpt lon="0.2647248804569244" lat="49.1531677246093750">
        <ele>141.1837615966797</ele>
        <time>2016-09-21T10:55:26.000Z</time>
      </trkpt>
      <trkpt lon="0.2647836506366730" lat="49.1531867980957031">
        <ele>141.23089599609375</ele>
        <time>2016-09-21T10:55:28.000Z</time>
      </trkpt>
      <trkpt lon="0.2648226320743561" lat="49.1532096862792969">
        <ele>141.1663818359375</ele>
        <time>2016-09-21T10:55:31.000Z</time>
      </trkpt>
      <trkpt lon="0.2648657858371735" lat="49.1532287597656250">
        <ele>141.0456085205078</ele>
        <time>2016-09-21T10:55:33.000Z</time>
      </trkpt>
      <trkpt lon="0.2649860680103302" lat="49.1532592773437500">
        <ele>140.8345489501953</ele>
        <time>2016-09-21T10:55:35.000Z</time>
      </trkpt>
      <trkpt lon="0.2651271522045135" lat="49.1532859802246094">
        <ele>140.6434326171875</ele>
        <time>2016-09-21T10:55:38.000Z</time>
      </trkpt>
      <trkpt lon="0.2653767466545105" lat="49.1533927917480469">
        <ele>140.4661407470703</ele>
        <time>2016-09-21T10:55:41.000Z</time>
      </trkpt>
      <trkpt lon="0.2655336558818817" lat="49.1534614562988281">
        <ele>140.29638671875</ele>
        <time>2016-09-21T10:55:43.000Z</time>
      </trkpt>
      <trkpt lon="0.2656795978546143" lat="49.1535224914550781">
        <ele>140.138427734375</ele>
        <time>2016-09-21T10:55:45.000Z</time>
      </trkpt>
      <trkpt lon="0.2658354938030243" lat="49.1536026000976562">
        <ele>140.0225830078125</ele>
        <time>2016-09-21T10:55:47.000Z</time>
      </trkpt>
      <trkpt lon="0.2661018669605255" lat="49.1537170410156250">
        <ele>139.9493408203125</ele>
        <time>2016-09-21T10:55:50.000Z</time>
      </trkpt>
      <trkpt lon="0.2663538455963135" lat="49.1538200378417969">
        <ele>139.9716796875</ele>
        <time>2016-09-21T10:55:53.000Z</time>
      </trkpt>
      <trkpt lon="0.2665233910083771" lat="49.1538963317871094">
        <ele>140.06910705566406</ele>
        <time>2016-09-21T10:55:55.000Z</time>
      </trkpt>
      <trkpt lon="0.2666702568531036" lat="49.1539611816406250">
        <ele>140.2359619140625</ele>
        <time>2016-09-21T10:55:57.000Z</time>
      </trkpt>
      <trkpt lon="0.2669107317924500" lat="49.1540679931640625">
        <ele>140.413818359375</ele>
        <time>2016-09-21T10:56:00.000Z</time>
      </trkpt>
      <trkpt lon="0.2671466767787933" lat="49.1541900634765625">
        <ele>140.51963806152344</ele>
        <time>2016-09-21T10:56:03.000Z</time>
      </trkpt>
      <trkpt lon="0.2673013210296631" lat="49.1542778015136719">
        <ele>140.517822265625</ele>
        <time>2016-09-21T10:56:05.000Z</time>
      </trkpt>
      <trkpt lon="0.2675325870513916" lat="49.1543960571289062">
        <ele>140.4077606201172</ele>
        <time>2016-09-21T10:56:08.000Z</time>
      </trkpt>
      <trkpt lon="0.2677033245563507" lat="49.1544990539550781">
        <ele>140.20864868164062</ele>
        <time>2016-09-21T10:56:10.000Z</time>
      </trkpt>
      <trkpt lon="0.2679451406002045" lat="49.1546096801757812">
        <ele>140.0245361328125</ele>
        <time>2016-09-21T10:56:13.000Z</time>
      </trkpt>
      <trkpt lon="0.2682032287120819" lat="49.1547164916992188">
        <ele>139.88296508789062</ele>
        <time>2016-09-21T10:56:16.000Z</time>
      </trkpt>
      <trkpt lon="0.2684691846370697" lat="49.1548385620117188">
        <ele>139.77902221679688</ele>
        <time>2016-09-21T10:56:19.000Z</time>
      </trkpt>
      <trkpt lon="0.2686467766761780" lat="49.1549263000488281">
        <ele>139.71517944335938</ele>
        <time>2016-09-21T10:56:21.000Z</time>
      </trkpt>
      <trkpt lon="0.2688191235065460" lat="49.1550140380859375">
        <ele>139.69131469726562</ele>
        <time>2016-09-21T10:56:23.000Z</time>
      </trkpt>
      <trkpt lon="0.2691268920898438" lat="49.1551437377929688">
        <ele>139.81423950195312</ele>
        <time>2016-09-21T10:56:26.000Z</time>
      </trkpt>
      <trkpt lon="0.2693222761154175" lat="49.1552391052246094">
        <ele>139.94479370117188</ele>
        <time>2016-09-21T10:56:28.000Z</time>
      </trkpt>
      <trkpt lon="0.2696145474910736" lat="49.1553916931152344">
        <ele>140.0320281982422</ele>
        <time>2016-09-21T10:56:31.000Z</time>
      </trkpt>
      <trkpt lon="0.2698101103305817" lat="49.1554946899414062">
        <ele>140.0671844482422</ele>
        <time>2016-09-21T10:56:33.000Z</time>
      </trkpt>
      <trkpt lon="0.2700165510177612" lat="49.1555938720703125">
        <ele>139.98953247070312</ele>
        <time>2016-09-21T10:56:35.000Z</time>
      </trkpt>
      <trkpt lon="0.2703487277030945" lat="49.1557464599609375">
        <ele>139.5074920654297</ele>
        <time>2016-09-21T10:56:38.000Z</time>
      </trkpt>
      <trkpt lon="0.2706898748874664" lat="49.1558761596679688">
        <ele>138.7342071533203</ele>
        <time>2016-09-21T10:56:41.000Z</time>
      </trkpt>
      <trkpt lon="0.2709416747093201" lat="49.1559906005859375">
        <ele>137.87841796875</ele>
        <time>2016-09-21T10:56:43.000Z</time>
      </trkpt>
      <trkpt lon="0.2711943686008453" lat="49.1561012268066406">
        <ele>136.978759765625</ele>
        <time>2016-09-21T10:56:45.000Z</time>
      </trkpt>
      <trkpt lon="0.2715350091457367" lat="49.1562500000000000">
        <ele>136.01129150390625</ele>
        <time>2016-09-21T10:56:48.000Z</time>
      </trkpt>
      <trkpt lon="0.2717255353927612" lat="49.1563644409179688">
        <ele>135.22348022460938</ele>
        <time>2016-09-21T10:56:50.000Z</time>
      </trkpt>
      <trkpt lon="0.2719924151897430" lat="49.1565361022949219">
        <ele>134.647705078125</ele>
        <time>2016-09-21T10:56:53.000Z</time>
      </trkpt>
      <trkpt lon="0.2721914947032928" lat="49.1566467285156250">
        <ele>134.14382934570312</ele>
        <time>2016-09-21T10:56:55.000Z</time>
      </trkpt>
      <trkpt lon="0.2723589539527893" lat="49.1567726135253906">
        <ele>133.6190185546875</ele>
        <time>2016-09-21T10:56:57.000Z</time>
      </trkpt>
      <trkpt lon="0.2724985182285309" lat="49.1569595336914062">
        <ele>133.06082153320312</ele>
        <time>2016-09-21T10:56:59.000Z</time>
      </trkpt>
      <trkpt lon="0.2726395130157471" lat="49.1572380065917969">
        <ele>132.3560791015625</ele>
        <time>2016-09-21T10:57:02.000Z</time>
      </trkpt>
      <trkpt lon="0.2727082371711731" lat="49.1575050354003906">
        <ele>131.51754760742188</ele>
        <time>2016-09-21T10:57:05.000Z</time>
      </trkpt>
      <trkpt lon="0.2727550864219666" lat="49.1577301025390625">
        <ele>130.46438598632812</ele>
        <time>2016-09-21T10:57:07.000Z</time>
      </trkpt>
      <trkpt lon="0.2727317810058594" lat="49.1580734252929688">
        <ele>129.0890350341797</ele>
        <time>2016-09-21T10:57:10.000Z</time>
      </trkpt>
      <trkpt lon="0.2727674841880798" lat="49.1583938598632812">
        <ele>127.51253509521484</ele>
        <time>2016-09-21T10:57:13.000Z</time>
      </trkpt>
      <trkpt lon="0.2727840840816498" lat="49.1586456298828125">
        <ele>125.72306060791016</ele>
        <time>2016-09-21T10:57:15.000Z</time>
      </trkpt>
      <trkpt lon="0.2728510797023773" lat="49.1588745117187500">
        <ele>123.78011322021484</ele>
        <time>2016-09-21T10:57:17.000Z</time>
      </trkpt>
      <trkpt lon="0.2728573381900787" lat="49.1590614318847656">
        <ele>121.7761001586914</ele>
        <time>2016-09-21T10:57:19.000Z</time>
      </trkpt>
      <trkpt lon="0.2729444503784180" lat="49.1595764160156250">
        <ele>119.70526123046875</ele>
        <time>2016-09-21T10:57:23.000Z</time>
      </trkpt>
      <trkpt lon="0.2729781270027161" lat="49.1598205566406250">
        <ele>117.8379135131836</ele>
        <time>2016-09-21T10:57:25.000Z</time>
      </trkpt>
      <trkpt lon="0.2729882895946503" lat="49.1600608825683594">
        <ele>116.1317138671875</ele>
        <time>2016-09-21T10:57:27.000Z</time>
      </trkpt>
      <trkpt lon="0.2730342149734497" lat="49.1604652404785156">
        <ele>114.14909362792969</ele>
        <time>2016-09-21T10:57:30.000Z</time>
      </trkpt>
      <trkpt lon="0.2731057107448578" lat="49.1608161926269531">
        <ele>112.1025161743164</ele>
        <time>2016-09-21T10:57:33.000Z</time>
      </trkpt>
      <trkpt lon="0.2732461988925934" lat="49.1609954833984375">
        <ele>110.61563873291016</ele>
        <time>2016-09-21T10:57:35.000Z</time>
      </trkpt>
      <trkpt lon="0.2733676433563232" lat="49.1612014770507812">
        <ele>109.16251373291016</ele>
        <time>2016-09-21T10:57:37.000Z</time>
      </trkpt>
      <trkpt lon="0.2735477685928345" lat="49.1614952087402344">
        <ele>107.48661804199219</ele>
        <time>2016-09-21T10:57:40.000Z</time>
      </trkpt>
      <trkpt lon="0.2738610804080963" lat="49.1618499755859375">
        <ele>105.8590087890625</ele>
        <time>2016-09-21T10:57:43.000Z</time>
      </trkpt>
      <trkpt lon="0.2742069363594055" lat="49.1622276306152344">
        <ele>103.9629898071289</ele>
        <time>2016-09-21T10:57:46.000Z</time>
      </trkpt>
      <trkpt lon="0.2745982706546783" lat="49.1625709533691406">
        <ele>101.56169891357422</ele>
        <time>2016-09-21T10:57:49.000Z</time>
      </trkpt>
      <trkpt lon="0.2748387455940247" lat="49.1627616882324219">
        <ele>99.27298736572266</ele>
        <time>2016-09-21T10:57:51.000Z</time>
      </trkpt>
      <trkpt lon="0.2752336263656616" lat="49.1630630493164062">
        <ele>97.28326416015625</ele>
        <time>2016-09-21T10:57:54.000Z</time>
      </trkpt>
      <trkpt lon="0.2755473554134369" lat="49.1632041931152344">
        <ele>95.62586975097656</ele>
        <time>2016-09-21T10:57:56.000Z</time>
      </trkpt>
      <trkpt lon="0.2758840620517731" lat="49.1633300781250000">
        <ele>94.34284973144531</ele>
        <time>2016-09-21T10:57:58.000Z</time>
      </trkpt>
      <trkpt lon="0.2763127982616425" lat="49.1633987426757812">
        <ele>93.21165466308594</ele>
        <time>2016-09-21T10:58:00.000Z</time>
      </trkpt>
      <trkpt lon="0.2768914699554443" lat="49.1632804870605469">
        <ele>92.17045593261719</ele>
        <time>2016-09-21T10:58:03.000Z</time>
      </trkpt>
      <trkpt lon="0.2774474620819092" lat="49.1631622314453125">
        <ele>91.01094055175781</ele>
        <time>2016-09-21T10:58:06.000Z</time>
      </trkpt>
      <trkpt lon="0.2778006494045258" lat="49.1631088256835938">
        <ele>89.76420593261719</ele>
        <time>2016-09-21T10:58:08.000Z</time>
      </trkpt>
      <trkpt lon="0.2781957983970642" lat="49.1630706787109375">
        <ele>88.43083953857422</ele>
        <time>2016-09-21T10:58:10.000Z</time>
      </trkpt>
      <trkpt lon="0.2787219882011414" lat="49.1630592346191406">
        <ele>86.91622924804688</ele>
        <time>2016-09-21T10:58:13.000Z</time>
      </trkpt>
      <trkpt lon="0.2790562808513641" lat="49.1630821228027344">
        <ele>85.03004455566406</ele>
        <time>2016-09-21T10:58:15.000Z</time>
      </trkpt>
      <trkpt lon="0.2796880304813385" lat="49.1631431579589844">
        <ele>82.88912200927734</ele>
        <time>2016-09-21T10:58:18.000Z</time>
      </trkpt>
      <trkpt lon="0.2800565659999847" lat="49.1632118225097656">
        <ele>80.72246551513672</ele>
        <time>2016-09-21T10:58:20.000Z</time>
      </trkpt>
      <trkpt lon="0.2805432081222534" lat="49.1633987426757812">
        <ele>78.3758773803711</ele>
        <time>2016-09-21T10:58:23.000Z</time>
      </trkpt>
      <trkpt lon="0.2809820175170898" lat="49.1636238098144531">
        <ele>75.94332885742188</ele>
        <time>2016-09-21T10:58:26.000Z</time>
      </trkpt>
      <trkpt lon="0.2813832461833954" lat="49.1638259887695312">
        <ele>73.54193878173828</ele>
        <time>2016-09-21T10:58:29.000Z</time>
      </trkpt>
      <trkpt lon="0.2815501391887665" lat="49.1640396118164062">
        <ele>71.56841278076172</ele>
        <time>2016-09-21T10:58:31.000Z</time>
      </trkpt>
      <trkpt lon="0.2817761301994324" lat="49.1643447875976562">
        <ele>69.96400451660156</ele>
        <time>2016-09-21T10:58:34.000Z</time>
      </trkpt>
      <trkpt lon="0.2819660604000092" lat="49.1646499633789062">
        <ele>69.00834655761719</ele>
        <time>2016-09-21T10:58:37.000Z</time>
      </trkpt>
      <trkpt lon="0.2821485102176666" lat="49.1649436950683594">
        <ele>68.69493103027344</ele>
        <time>2016-09-21T10:58:40.000Z</time>
      </trkpt>
      <trkpt lon="0.2824272215366364" lat="49.1652679443359375">
        <ele>68.69773864746094</ele>
        <time>2016-09-21T10:58:42.000Z</time>
      </trkpt>
      <trkpt lon="0.2825661003589630" lat="49.1654968261718750">
        <ele>68.73577117919922</ele>
        <time>2016-09-21T10:58:45.000Z</time>
      </trkpt>
      <trkpt lon="0.2827064990997314" lat="49.1657066345214844">
        <ele>68.64170837402344</ele>
        <time>2016-09-21T10:58:47.000Z</time>
      </trkpt>
      <trkpt lon="0.2829276919364929" lat="49.1660079956054688">
        <ele>68.36748504638672</ele>
        <time>2016-09-21T10:58:50.000Z</time>
      </trkpt>
      <trkpt lon="0.2831417024135590" lat="49.1662559509277344">
        <ele>68.01271057128906</ele>
        <time>2016-09-21T10:58:53.000Z</time>
      </trkpt>
      <trkpt lon="0.2833503186702728" lat="49.1665153503417969">
        <ele>67.55292510986328</ele>
        <time>2016-09-21T10:58:56.000Z</time>
      </trkpt>
      <trkpt lon="0.2835389077663422" lat="49.1667709350585938">
        <ele>67.0561752319336</ele>
        <time>2016-09-21T10:58:59.000Z</time>
      </trkpt>
      <trkpt lon="0.2836861908435822" lat="49.1669387817382812">
        <ele>66.60904693603516</ele>
        <time>2016-09-21T10:59:01.000Z</time>
      </trkpt>
      <trkpt lon="0.2838550806045532" lat="49.1672325134277344">
        <ele>66.09370422363281</ele>
        <time>2016-09-21T10:59:04.000Z</time>
      </trkpt>
      <trkpt lon="0.2840273380279541" lat="49.1674499511718750">
        <ele>65.47190856933594</ele>
        <time>2016-09-21T10:59:07.000Z</time>
      </trkpt>
      <trkpt lon="0.2841503620147705" lat="49.1676025390625000">
        <ele>64.99447631835938</ele>
        <time>2016-09-21T10:59:09.000Z</time>
      </trkpt>
      <trkpt lon="0.2845074534416199" lat="49.1677818298339844">
        <ele>64.8071517944336</ele>
        <time>2016-09-21T10:59:11.000Z</time>
      </trkpt>
      <trkpt lon="0.2846871614456177" lat="49.1678886413574219">
        <ele>64.85850524902344</ele>
        <time>2016-09-21T10:59:14.000Z</time>
      </trkpt>
      <trkpt lon="0.2848850488662720" lat="49.1679534912109375">
        <ele>65.23240661621094</ele>
        <time>2016-09-21T10:59:16.000Z</time>
      </trkpt>
      <trkpt lon="0.2851645052433014" lat="49.1680145263671875">
        <ele>65.93968200683594</ele>
        <time>2016-09-21T10:59:19.000Z</time>
      </trkpt>
      <trkpt lon="0.2854403555393219" lat="49.1680870056152344">
        <ele>66.85271453857422</ele>
        <time>2016-09-21T10:59:22.000Z</time>
      </trkpt>
      <trkpt lon="0.2856437861919403" lat="49.1681480407714844">
        <ele>67.852783203125</ele>
        <time>2016-09-21T10:59:25.000Z</time>
      </trkpt>
      <trkpt lon="0.2858957350254059" lat="49.1681976318359375">
        <ele>68.89407348632812</ele>
        <time>2016-09-21T10:59:28.000Z</time>
      </trkpt>
      <trkpt lon="0.2860238254070282" lat="49.1682052612304688">
        <ele>69.81977844238281</ele>
        <time>2016-09-21T10:59:30.000Z</time>
      </trkpt>
      <trkpt lon="0.2861717641353607" lat="49.1682128906250000">
        <ele>70.59969329833984</ele>
        <time>2016-09-21T10:59:32.000Z</time>
      </trkpt>
      <trkpt lon="0.2863386273384094" lat="49.1682357788085938">
        <ele>71.24549865722656</ele>
        <time>2016-09-21T10:59:35.000Z</time>
      </trkpt>
      <trkpt lon="0.2864646911621094" lat="49.1682739257812500">
        <ele>71.81008911132812</ele>
        <time>2016-09-21T10:59:38.000Z</time>
      </trkpt>
      <trkpt lon="0.2866026759147644" lat="49.1682891845703125">
        <ele>72.2421875</ele>
        <time>2016-09-21T10:59:40.000Z</time>
      </trkpt>
      <trkpt lon="0.2866850495338440" lat="49.1683082580566406">
        <ele>72.6903305053711</ele>
        <time>2016-09-21T10:59:42.000Z</time>
      </trkpt>
      <trkpt lon="0.2868728041648865" lat="49.1683273315429688">
        <ele>73.14818572998047</ele>
        <time>2016-09-21T10:59:44.000Z</time>
      </trkpt>
      <trkpt lon="0.2869794368743896" lat="49.1683464050292969">
        <ele>73.57182312011719</ele>
        <time>2016-09-21T10:59:47.000Z</time>
      </trkpt>
      <trkpt lon="0.2870791852474213" lat="49.1683692932128906">
        <ele>73.93750762939453</ele>
        <time>2016-09-21T10:59:49.000Z</time>
      </trkpt>
      <trkpt lon="0.2871891558170319" lat="49.1683921813964844">
        <ele>74.32044982910156</ele>
        <time>2016-09-21T10:59:51.000Z</time>
      </trkpt>
      <trkpt lon="0.2873801589012146" lat="49.1684112548828125">
        <ele>74.72330474853516</ele>
        <time>2016-09-21T10:59:54.000Z</time>
      </trkpt>
      <trkpt lon="0.2875673472881317" lat="49.1684303283691406">
        <ele>75.143798828125</ele>
        <time>2016-09-21T10:59:57.000Z</time>
      </trkpt>
      <trkpt lon="0.2876921594142914" lat="49.1684455871582031">
        <ele>75.57807922363281</ele>
        <time>2016-09-21T10:59:59.000Z</time>
      </trkpt>
      <trkpt lon="0.2878068089485168" lat="49.1684646606445312">
        <ele>76.03099822998047</ele>
        <time>2016-09-21T11:00:01.000Z</time>
      </trkpt>
      <trkpt lon="0.2879720926284790" lat="49.1684989929199219">
        <ele>76.53648376464844</ele>
        <time>2016-09-21T11:00:04.000Z</time>
      </trkpt>
      <trkpt lon="0.2880870103836060" lat="49.1685180664062500">
        <ele>77.04927825927734</ele>
        <time>2016-09-21T11:00:06.000Z</time>
      </trkpt>
      <trkpt lon="0.2882507145404816" lat="49.1685333251953125">
        <ele>77.56169128417969</ele>
        <time>2016-09-21T11:00:09.000Z</time>
      </trkpt>
      <trkpt lon="0.2883646190166473" lat="49.1685371398925781">
        <ele>78.0000991821289</ele>
        <time>2016-09-21T11:00:11.000Z</time>
      </trkpt>
      <trkpt lon="0.2884759306907654" lat="49.1685409545898438">
        <ele>78.31340026855469</ele>
        <time>2016-09-21T11:00:13.000Z</time>
      </trkpt>
      <trkpt lon="0.2886379659175873" lat="49.1685485839843750">
        <ele>78.43115997314453</ele>
        <time>2016-09-21T11:00:15.000Z</time>
      </trkpt>
      <trkpt lon="0.2887324988842010" lat="49.1685638427734375">
        <ele>78.47663879394531</ele>
        <time>2016-09-21T11:00:18.000Z</time>
      </trkpt>
      <trkpt lon="0.2888315021991730" lat="49.1685714721679688">
        <ele>78.43099212646484</ele>
        <time>2016-09-21T11:00:20.000Z</time>
      </trkpt>
      <trkpt lon="0.2889880836009979" lat="49.1685791015625000">
        <ele>78.33885955810547</ele>
        <time>2016-09-21T11:00:23.000Z</time>
      </trkpt>
      <trkpt lon="0.2890962064266205" lat="49.1685829162597656">
        <ele>78.24388122558594</ele>
        <time>2016-09-21T11:00:25.000Z</time>
      </trkpt>
      <trkpt lon="0.2892689406871796" lat="49.1685943603515625">
        <ele>78.1475830078125</ele>
        <time>2016-09-21T11:00:28.000Z</time>
      </trkpt>
      <trkpt lon="0.2894152998924255" lat="49.1686058044433594">
        <ele>77.9866714477539</ele>
        <time>2016-09-21T11:00:31.000Z</time>
      </trkpt>
      <trkpt lon="0.2895058989524841" lat="49.1686210632324219">
        <ele>77.8218765258789</ele>
        <time>2016-09-21T11:00:33.000Z</time>
      </trkpt>
      <trkpt lon="0.2896426022052765" lat="49.1686401367187500">
        <ele>77.67366027832031</ele>
        <time>2016-09-21T11:00:36.000Z</time>
      </trkpt>
      <trkpt lon="0.2897440493106842" lat="49.1686515808105469">
        <ele>77.53224182128906</ele>
        <time>2016-09-21T11:00:38.000Z</time>
      </trkpt>
      <trkpt lon="0.2898463904857635" lat="49.1686668395996094">
        <ele>77.42565155029297</ele>
        <time>2016-09-21T11:00:40.000Z</time>
      </trkpt>
      <trkpt lon="0.2899498939514160" lat="49.1686859130859375">
        <ele>77.35060119628906</ele>
        <time>2016-09-21T11:00:42.000Z</time>
      </trkpt>
      <trkpt lon="0.2901054620742798" lat="49.1687126159667969">
        <ele>77.36973571777344</ele>
        <time>2016-09-21T11:00:45.000Z</time>
      </trkpt>
      <trkpt lon="0.2902518212795258" lat="49.1687316894531250">
        <ele>77.4989242553711</ele>
        <time>2016-09-21T11:00:48.000Z</time>
      </trkpt>
      <trkpt lon="0.2903991639614105" lat="49.1687507629394531">
        <ele>77.72960662841797</ele>
        <time>2016-09-21T11:00:51.000Z</time>
      </trkpt>
      <trkpt lon="0.2904978096485138" lat="49.1687622070312500">
        <ele>78.02654266357422</ele>
        <time>2016-09-21T11:00:53.000Z</time>
      </trkpt>
      <trkpt lon="0.2905909419059753" lat="49.1687774658203125">
        <ele>78.39909362792969</ele>
        <time>2016-09-21T11:00:55.000Z</time>
      </trkpt>
      <trkpt lon="0.2907309234142303" lat="49.1688003540039062">
        <ele>78.77250671386719</ele>
        <time>2016-09-21T11:00:58.000Z</time>
      </trkpt>
      <trkpt lon="0.2908327579498291" lat="49.1688117980957031">
        <ele>79.10295104980469</ele>
        <time>2016-09-21T11:01:00.000Z</time>
      </trkpt>
      <trkpt lon="0.2909283936023712" lat="49.1688232421875000">
        <ele>79.45539093017578</ele>
        <time>2016-09-21T11:01:02.000Z</time>
      </trkpt>
      <trkpt lon="0.2910285592079163" lat="49.1688308715820312">
        <ele>79.84928894042969</ele>
        <time>2016-09-21T11:01:04.000Z</time>
      </trkpt>
      <trkpt lon="0.2911301553249359" lat="49.1688423156738281">
        <ele>80.28944396972656</ele>
        <time>2016-09-21T11:01:06.000Z</time>
      </trkpt>
      <trkpt lon="0.2912774980068207" lat="49.1688652038574219">
        <ele>80.81634521484375</ele>
        <time>2016-09-21T11:01:09.000Z</time>
      </trkpt>
      <trkpt lon="0.2913692891597748" lat="49.1688766479492188">
        <ele>81.39753723144531</ele>
        <time>2016-09-21T11:01:11.000Z</time>
      </trkpt>
      <trkpt lon="0.2915143668651581" lat="49.1688919067382812">
        <ele>82.03730010986328</ele>
        <time>2016-09-21T11:01:14.000Z</time>
      </trkpt>
      <trkpt lon="0.2916573882102966" lat="49.1689033508300781">
        <ele>82.7300796508789</ele>
        <time>2016-09-21T11:01:17.000Z</time>
      </trkpt>
      <trkpt lon="0.2918073236942291" lat="49.1689147949218750">
        <ele>83.37826538085938</ele>
        <time>2016-09-21T11:01:20.000Z</time>
      </trkpt>
      <trkpt lon="0.2919600307941437" lat="49.1689376831054688">
        <ele>83.96533966064453</ele>
        <time>2016-09-21T11:01:23.000Z</time>
      </trkpt>
      <trkpt lon="0.2921181321144104" lat="49.1689605712890625">
        <ele>84.55550384521484</ele>
        <time>2016-09-21T11:01:26.000Z</time>
      </trkpt>
      <trkpt lon="0.2922644019126892" lat="49.1689834594726562">
        <ele>85.07893371582031</ele>
        <time>2016-09-21T11:01:29.000Z</time>
      </trkpt>
      <trkpt lon="0.2923985123634338" lat="49.1690139770507812">
        <ele>85.5784912109375</ele>
        <time>2016-09-21T11:01:32.000Z</time>
      </trkpt>
      <trkpt lon="0.2924885153770447" lat="49.1690368652343750">
        <ele>86.0935287475586</ele>
        <time>2016-09-21T11:01:34.000Z</time>
      </trkpt>
      <trkpt lon="0.2926186919212341" lat="49.1690826416015625">
        <ele>86.64784240722656</ele>
        <time>2016-09-21T11:01:37.000Z</time>
      </trkpt>
      <trkpt lon="0.2927065491676331" lat="49.1691131591796875">
        <ele>87.17633056640625</ele>
        <time>2016-09-21T11:01:39.000Z</time>
      </trkpt>
      <trkpt lon="0.2928332686424255" lat="49.1691589355468750">
        <ele>87.73771667480469</ele>
        <time>2016-09-21T11:01:42.000Z</time>
      </trkpt>
      <trkpt lon="0.2929558157920837" lat="49.1692085266113281">
        <ele>88.31324768066406</ele>
        <time>2016-09-21T11:01:45.000Z</time>
      </trkpt>
      <trkpt lon="0.2930838763713837" lat="49.1692695617675781">
        <ele>88.96066284179688</ele>
        <time>2016-09-21T11:01:48.000Z</time>
      </trkpt>
      <trkpt lon="0.2931697964668274" lat="49.1693115234375000">
        <ele>89.55818939208984</ele>
        <time>2016-09-21T11:01:50.000Z</time>
      </trkpt>
      <trkpt lon="0.2932785153388977" lat="49.1693649291992188">
        <ele>90.19282531738281</ele>
        <time>2016-09-21T11:01:53.000Z</time>
      </trkpt>
      <trkpt lon="0.2933650314807892" lat="49.1693992614746094">
        <ele>90.78038024902344</ele>
        <time>2016-09-21T11:01:56.000Z</time>
      </trkpt>
      <trkpt lon="0.2934104502201080" lat="49.1694107055664062">
        <ele>91.24412536621094</ele>
        <time>2016-09-21T11:01:58.000Z</time>
      </trkpt>
      <trkpt lon="0.2934885621070862" lat="49.1694374084472656">
        <ele>91.61743927001953</ele>
        <time>2016-09-21T11:02:01.000Z</time>
      </trkpt>
      <trkpt lon="0.2935619056224823" lat="49.1694679260253906">
        <ele>91.95516967773438</ele>
        <time>2016-09-21T11:02:03.000Z</time>
      </trkpt>
      <trkpt lon="0.2936412990093231" lat="49.1694946289062500">
        <ele>92.23233795166016</ele>
        <time>2016-09-21T11:02:05.000Z</time>
      </trkpt>
      <trkpt lon="0.2937813401222229" lat="49.1695594787597656">
        <ele>92.56461334228516</ele>
        <time>2016-09-21T11:02:08.000Z</time>
      </trkpt>
      <trkpt lon="0.2938697040081024" lat="49.1696090698242188">
        <ele>92.98026275634766</ele>
        <time>2016-09-21T11:02:10.000Z</time>
      </trkpt>
      <trkpt lon="0.2939831018447876" lat="49.1696777343750000">
        <ele>93.472900390625</ele>
        <time>2016-09-21T11:02:13.000Z</time>
      </trkpt>
      <trkpt lon="0.2940510809421539" lat="49.1697158813476562">
        <ele>93.97510528564453</ele>
        <time>2016-09-21T11:02:15.000Z</time>
      </trkpt>
      <trkpt lon="0.2941965758800507" lat="49.1697959899902344">
        <ele>94.55609893798828</ele>
        <time>2016-09-21T11:02:18.000Z</time>
      </trkpt>
      <trkpt lon="0.2943119108676910" lat="49.1698570251464844">
        <ele>95.05550384521484</ele>
        <time>2016-09-21T11:02:20.000Z</time>
      </trkpt>
      <trkpt lon="0.2944606244564056" lat="49.1699256896972656">
        <ele>95.49788665771484</ele>
        <time>2016-09-21T11:02:23.000Z</time>
      </trkpt>
      <trkpt lon="0.2945795655250549" lat="49.1699943542480469">
        <ele>95.85971069335938</ele>
        <time>2016-09-21T11:02:26.000Z</time>
      </trkpt>
      <trkpt lon="0.2946948111057281" lat="49.1700668334960938">
        <ele>96.29750061035156</ele>
        <time>2016-09-21T11:02:29.000Z</time>
      </trkpt>
      <trkpt lon="0.2947696447372437" lat="49.1701049804687500">
        <ele>96.65885162353516</ele>
        <time>2016-09-21T11:02:31.000Z</time>
      </trkpt>
      <trkpt lon="0.2948771119117737" lat="49.1701545715332031">
        <ele>97.04061126708984</ele>
        <time>2016-09-21T11:02:34.000Z</time>
      </trkpt>
      <trkpt lon="0.2949763536453247" lat="49.1702003479003906">
        <ele>97.44384765625</ele>
        <time>2016-09-21T11:02:37.000Z</time>
      </trkpt>
      <trkpt lon="0.2950769364833832" lat="49.1702575683593750">
        <ele>97.85037231445312</ele>
        <time>2016-09-21T11:02:40.000Z</time>
      </trkpt>
      <trkpt lon="0.2951798737049103" lat="49.1703376770019531">
        <ele>98.22920989990234</ele>
        <time>2016-09-21T11:02:43.000Z</time>
      </trkpt>
      <trkpt lon="0.2952602505683899" lat="49.1703948974609375">
        <ele>98.6159439086914</ele>
        <time>2016-09-21T11:02:45.000Z</time>
      </trkpt>
      <trkpt lon="0.2953379452228546" lat="49.1704406738281250">
        <ele>98.97478485107422</ele>
        <time>2016-09-21T11:02:47.000Z</time>
      </trkpt>
      <trkpt lon="0.2954976260662079" lat="49.1705245971679688">
        <ele>99.29975891113281</ele>
        <time>2016-09-21T11:02:50.000Z</time>
      </trkpt>
      <trkpt lon="0.2956070005893707" lat="49.1705627441406250">
        <ele>99.53547668457031</ele>
        <time>2016-09-21T11:02:52.000Z</time>
      </trkpt>
      <trkpt lon="0.2957195937633514" lat="49.1705970764160156">
        <ele>99.59397888183594</ele>
        <time>2016-09-21T11:02:54.000Z</time>
      </trkpt>
      <trkpt lon="0.2958969473838806" lat="49.1706314086914062">
        <ele>99.548095703125</ele>
        <time>2016-09-21T11:02:57.000Z</time>
      </trkpt>
      <trkpt lon="0.2960726320743561" lat="49.1706581115722656">
        <ele>99.62355041503906</ele>
        <time>2016-09-21T11:03:00.000Z</time>
      </trkpt>
      <trkpt lon="0.2961887121200562" lat="49.1706695556640625">
        <ele>99.7645034790039</ele>
        <time>2016-09-21T11:03:02.000Z</time>
      </trkpt>
      <trkpt lon="0.2963383197784424" lat="49.1706924438476562">
        <ele>100.07940673828125</ele>
        <time>2016-09-21T11:03:05.000Z</time>
      </trkpt>
      <trkpt lon="0.2965262532234192" lat="49.1706619262695312">
        <ele>100.43922424316406</ele>
        <time>2016-09-21T11:03:08.000Z</time>
      </trkpt>
      <trkpt lon="0.2966463565826416" lat="49.1706390380859375">
        <ele>100.7922134399414</ele>
        <time>2016-09-21T11:03:10.000Z</time>
      </trkpt>
      <trkpt lon="0.2967557609081268" lat="49.1706237792968750">
        <ele>101.03826904296875</ele>
        <time>2016-09-21T11:03:12.000Z</time>
      </trkpt>
      <trkpt lon="0.2969284951686859" lat="49.1705856323242188">
        <ele>101.26134490966797</ele>
        <time>2016-09-21T11:03:15.000Z</time>
      </trkpt>
      <trkpt lon="0.2970356941223145" lat="49.1705627441406250">
        <ele>101.39008331298828</ele>
        <time>2016-09-21T11:03:17.000Z</time>
      </trkpt>
      <trkpt lon="0.2971859872341156" lat="49.1705398559570312">
        <ele>101.61878204345703</ele>
        <time>2016-09-21T11:03:20.000Z</time>
      </trkpt>
      <trkpt lon="0.2972891032695770" lat="49.1705169677734375">
        <ele>101.91217803955078</ele>
        <time>2016-09-21T11:03:22.000Z</time>
      </trkpt>
      <trkpt lon="0.2973868250846863" lat="49.1704940795898438">
        <ele>102.17704010009766</ele>
        <time>2016-09-21T11:03:24.000Z</time>
      </trkpt>
      <trkpt lon="0.2975410521030426" lat="49.1704635620117188">
        <ele>102.40433502197266</ele>
        <time>2016-09-21T11:03:27.000Z</time>
      </trkpt>
      <trkpt lon="0.2976884841918945" lat="49.1704483032226562">
        <ele>102.66168212890625</ele>
        <time>2016-09-21T11:03:30.000Z</time>
      </trkpt>
      <trkpt lon="0.2977837920188904" lat="49.1704406738281250">
        <ele>102.91566467285156</ele>
        <time>2016-09-21T11:03:32.000Z</time>
      </trkpt>
      <trkpt lon="0.2978847920894623" lat="49.1704254150390625">
        <ele>103.18489837646484</ele>
        <time>2016-09-21T11:03:34.000Z</time>
      </trkpt>
      <trkpt lon="0.2980261147022247" lat="49.1704139709472656">
        <ele>103.52406311035156</ele>
        <time>2016-09-21T11:03:37.000Z</time>
      </trkpt>
      <trkpt lon="0.2981188297271729" lat="49.1704101562500000">
        <ele>103.91200256347656</ele>
        <time>2016-09-21T11:03:39.000Z</time>
      </trkpt>
      <trkpt lon="0.2982687652111053" lat="49.1704139709472656">
        <ele>104.39678955078125</ele>
        <time>2016-09-21T11:03:42.000Z</time>
      </trkpt>
      <trkpt lon="0.2984479665756226" lat="49.1704368591308594">
        <ele>104.973876953125</ele>
        <time>2016-09-21T11:03:45.000Z</time>
      </trkpt>
      <trkpt lon="0.2985711991786957" lat="49.1704483032226562">
        <ele>105.55501556396484</ele>
        <time>2016-09-21T11:03:47.000Z</time>
      </trkpt>
      <trkpt lon="0.2987458705902100" lat="49.1704635620117188">
        <ele>106.10792541503906</ele>
        <time>2016-09-21T11:03:50.000Z</time>
      </trkpt>
      <trkpt lon="0.2989103198051453" lat="49.1704826354980469">
        <ele>106.65800476074219</ele>
        <time>2016-09-21T11:03:53.000Z</time>
      </trkpt>
      <trkpt lon="0.2990774512290955" lat="49.1704864501953125">
        <ele>107.05290222167969</ele>
        <time>2016-09-21T11:03:56.000Z</time>
      </trkpt>
      <trkpt lon="0.2991881072521210" lat="49.1704940795898438">
        <ele>107.30421447753906</ele>
        <time>2016-09-21T11:03:58.000Z</time>
      </trkpt>
      <trkpt lon="0.2993538975715637" lat="49.1705169677734375">
        <ele>107.58670806884766</ele>
        <time>2016-09-21T11:04:01.000Z</time>
      </trkpt>
      <trkpt lon="0.2994600832462311" lat="49.1705322265625000">
        <ele>107.8556900024414</ele>
        <time>2016-09-21T11:04:03.000Z</time>
      </trkpt>
      <trkpt lon="0.2996057569980621" lat="49.1705589294433594">
        <ele>108.14930725097656</ele>
        <time>2016-09-21T11:04:06.000Z</time>
      </trkpt>
      <trkpt lon="0.2996917665004730" lat="49.1705780029296875">
        <ele>108.48233795166016</ele>
        <time>2016-09-21T11:04:08.000Z</time>
      </trkpt>
      <trkpt lon="0.2998314797878265" lat="49.1706123352050781">
        <ele>108.92494201660156</ele>
        <time>2016-09-21T11:04:11.000Z</time>
      </trkpt>
      <trkpt lon="0.2999252080917358" lat="49.1706275939941406">
        <ele>109.348388671875</ele>
        <time>2016-09-21T11:04:13.000Z</time>
      </trkpt>
      <trkpt lon="0.3000180721282959" lat="49.1706352233886719">
        <ele>109.73197937011719</ele>
        <time>2016-09-21T11:04:15.000Z</time>
      </trkpt>
      <trkpt lon="0.3001615703105927" lat="49.1706695556640625">
        <ele>109.98902893066406</ele>
        <time>2016-09-21T11:04:17.000Z</time>
      </trkpt>
      <trkpt lon="0.3002583682537079" lat="49.1707038879394531">
        <ele>110.19059753417969</ele>
        <time>2016-09-21T11:04:20.000Z</time>
      </trkpt>
      <trkpt lon="0.3003547787666321" lat="49.1707420349121094">
        <ele>110.28018951416016</ele>
        <time>2016-09-21T11:04:22.000Z</time>
      </trkpt>
      <trkpt lon="0.3004889786243439" lat="49.1707878112792969">
        <ele>110.30726623535156</ele>
        <time>2016-09-21T11:04:25.000Z</time>
      </trkpt>
      <trkpt lon="0.3005785644054413" lat="49.1708106994628906">
        <ele>110.27363586425781</ele>
        <time>2016-09-21T11:04:27.000Z</time>
      </trkpt>
      <trkpt lon="0.3007231652736664" lat="49.1708526611328125">
        <ele>110.22513580322266</ele>
        <time>2016-09-21T11:04:30.000Z</time>
      </trkpt>
      <trkpt lon="0.3008704185485840" lat="49.1709213256835938">
        <ele>110.20172119140625</ele>
        <time>2016-09-21T11:04:33.000Z</time>
      </trkpt>
      <trkpt lon="0.3009585142135620" lat="49.1709632873535156">
        <ele>110.15296936035156</ele>
        <time>2016-09-21T11:04:35.000Z</time>
      </trkpt>
      <trkpt lon="0.3010773062705994" lat="49.1710281372070312">
        <ele>110.15374755859375</ele>
        <time>2016-09-21T11:04:38.000Z</time>
      </trkpt>
      <trkpt lon="0.3011943995952606" lat="49.1711044311523438">
        <ele>110.2826919555664</ele>
        <time>2016-09-21T11:04:41.000Z</time>
      </trkpt>
      <trkpt lon="0.3012741804122925" lat="49.1711578369140625">
        <ele>110.51045989990234</ele>
        <time>2016-09-21T11:04:43.000Z</time>
      </trkpt>
      <trkpt lon="0.3013502955436707" lat="49.1712074279785156">
        <ele>110.76286315917969</ele>
        <time>2016-09-21T11:04:45.000Z</time>
      </trkpt>
      <trkpt lon="0.3014461696147919" lat="49.1712875366210938">
        <ele>111.1519775390625</ele>
        <time>2016-09-21T11:04:48.000Z</time>
      </trkpt>
      <trkpt lon="0.3015382885932922" lat="49.1713714599609375">
        <ele>111.64990234375</ele>
        <time>2016-09-21T11:04:51.000Z</time>
      </trkpt>
      <trkpt lon="0.3016071021556854" lat="49.1714439392089844">
        <ele>112.2170181274414</ele>
        <time>2016-09-21T11:04:54.000Z</time>
      </trkpt>
      <trkpt lon="0.3016454875469208" lat="49.1714897155761719">
        <ele>112.82252502441406</ele>
        <time>2016-09-21T11:04:56.000Z</time>
      </trkpt>
      <trkpt lon="0.3016763329505920" lat="49.1715812683105469">
        <ele>113.63221740722656</ele>
        <time>2016-09-21T11:04:59.000Z</time>
      </trkpt>
      <trkpt lon="0.3017108738422394" lat="49.1716880798339844">
        <ele>114.51932525634766</ele>
        <time>2016-09-21T11:05:02.000Z</time>
      </trkpt>
      <trkpt lon="0.3017393648624420" lat="49.1717491149902344">
        <ele>115.26969909667969</ele>
        <time>2016-09-21T11:05:04.000Z</time>
      </trkpt>
      <trkpt lon="0.3017826378345490" lat="49.1718254089355469">
        <ele>115.85093688964844</ele>
        <time>2016-09-21T11:05:07.000Z</time>
      </trkpt>
      <trkpt lon="0.3018189370632172" lat="49.1719017028808594">
        <ele>116.3306655883789</ele>
        <time>2016-09-21T11:05:10.000Z</time>
      </trkpt>
      <trkpt lon="0.3018322587013245" lat="49.1719894409179688">
        <ele>116.62934875488281</ele>
        <time>2016-09-21T11:05:13.000Z</time>
      </trkpt>
      <trkpt lon="0.3018267154693604" lat="49.1720848083496094">
        <ele>116.8701171875</ele>
        <time>2016-09-21T11:05:16.000Z</time>
      </trkpt>
      <trkpt lon="0.3017965555191040" lat="49.1721878051757812">
        <ele>117.35472106933594</ele>
        <time>2016-09-21T11:05:19.000Z</time>
      </trkpt>
      <trkpt lon="0.3017722368240356" lat="49.1722908020019531">
        <ele>118.09580993652344</ele>
        <time>2016-09-21T11:05:22.000Z</time>
      </trkpt>
      <trkpt lon="0.3017480075359344" lat="49.1724205017089844">
        <ele>119.13188171386719</ele>
        <time>2016-09-21T11:05:25.000Z</time>
      </trkpt>
      <trkpt lon="0.3016953766345978" lat="49.1725387573242188">
        <ele>120.37391662597656</ele>
        <time>2016-09-21T11:05:28.000Z</time>
      </trkpt>
      <trkpt lon="0.3016337752342224" lat="49.1726150512695312">
        <ele>121.5600357055664</ele>
        <time>2016-09-21T11:05:30.000Z</time>
      </trkpt>
      <trkpt lon="0.3015451729297638" lat="49.1727142333984375">
        <ele>122.63551330566406</ele>
        <time>2016-09-21T11:05:33.000Z</time>
      </trkpt>
      <trkpt lon="0.3014954626560211" lat="49.1727676391601562">
        <ele>123.56257629394531</ele>
        <time>2016-09-21T11:05:35.000Z</time>
      </trkpt>
      <trkpt lon="0.3014405667781830" lat="49.1728286743164062">
        <ele>124.3057632446289</ele>
        <time>2016-09-21T11:05:37.000Z</time>
      </trkpt>
      <trkpt lon="0.3013772666454315" lat="49.1729164123535156">
        <ele>124.8832015991211</ele>
        <time>2016-09-21T11:05:40.000Z</time>
      </trkpt>
      <trkpt lon="0.3013249635696411" lat="49.1729736328125000">
        <ele>125.4844970703125</ele>
        <time>2016-09-21T11:05:42.000Z</time>
      </trkpt>
      <trkpt lon="0.3012225627899170" lat="49.1730613708496094">
        <ele>126.23260498046875</ele>
        <time>2016-09-21T11:05:45.000Z</time>
      </trkpt>
      <trkpt lon="0.3011418282985687" lat="49.1731300354003906">
        <ele>127.13875579833984</ele>
        <time>2016-09-21T11:05:47.000Z</time>
      </trkpt>
      <trkpt lon="0.3009861111640930" lat="49.1732711791992188">
        <ele>128.45767211914062</ele>
        <time>2016-09-21T11:05:50.000Z</time>
      </trkpt>
      <trkpt lon="0.3008632957935333" lat="49.1733818054199219">
        <ele>130.01747131347656</ele>
        <time>2016-09-21T11:05:53.000Z</time>
      </trkpt>
      <trkpt lon="0.3008009493350983" lat="49.1734542846679688">
        <ele>131.45657348632812</ele>
        <time>2016-09-21T11:05:55.000Z</time>
      </trkpt>
      <trkpt lon="0.3007221519947052" lat="49.1735649108886719">
        <ele>132.49639892578125</ele>
        <time>2016-09-21T11:05:58.000Z</time>
      </trkpt>
      <trkpt lon="0.3006758093833923" lat="49.1736488342285156">
        <ele>133.17373657226562</ele>
        <time>2016-09-21T11:06:00.000Z</time>
      </trkpt>
      <trkpt lon="0.3006414473056793" lat="49.1737251281738281">
        <ele>133.21499633789062</ele>
        <time>2016-09-21T11:06:02.000Z</time>
      </trkpt>
      <trkpt lon="0.3006296157836914" lat="49.1737899780273438">
        <ele>132.76649475097656</ele>
        <time>2016-09-21T11:06:04.000Z</time>
      </trkpt>
      <trkpt lon="0.3006291091442108" lat="49.1738739013671875">
        <ele>132.12120056152344</ele>
        <time>2016-09-21T11:06:07.000Z</time>
      </trkpt>
      <trkpt lon="0.3005975186824799" lat="49.1739616394042969">
        <ele>131.4388427734375</ele>
        <time>2016-09-21T11:06:10.000Z</time>
      </trkpt>
      <trkpt lon="0.3005429506301880" lat="49.1740493774414062">
        <ele>130.78231811523438</ele>
        <time>2016-09-21T11:06:13.000Z</time>
      </trkpt>
      <trkpt lon="0.3005106747150421" lat="49.1741104125976562">
        <ele>130.16578674316406</ele>
        <time>2016-09-21T11:06:15.000Z</time>
      </trkpt>
      <trkpt lon="0.3004428744316101" lat="49.1742134094238281">
        <ele>129.60000610351562</ele>
        <time>2016-09-21T11:06:18.000Z</time>
      </trkpt>
      <trkpt lon="0.3003343939781189" lat="49.1742973327636719">
        <ele>129.2880859375</ele>
        <time>2016-09-21T11:06:21.000Z</time>
      </trkpt>
      <trkpt lon="0.3002731204032898" lat="49.1743507385253906">
        <ele>129.13223266601562</ele>
        <time>2016-09-21T11:06:23.000Z</time>
      </trkpt>
      <trkpt lon="0.3001799285411835" lat="49.1744155883789062">
        <ele>129.09869384765625</ele>
        <time>2016-09-21T11:06:26.000Z</time>
      </trkpt>
      <trkpt lon="0.3000706136226654" lat="49.1744880676269531">
        <ele>129.17245483398438</ele>
        <time>2016-09-21T11:06:29.000Z</time>
      </trkpt>
      <trkpt lon="0.2999411225318909" lat="49.1745834350585938">
        <ele>129.3008270263672</ele>
        <time>2016-09-21T11:06:32.000Z</time>
      </trkpt>
      <trkpt lon="0.2998524308204651" lat="49.1746368408203125">
        <ele>129.37472534179688</ele>
        <time>2016-09-21T11:06:34.000Z</time>
      </trkpt>
      <trkpt lon="0.2996910810470581" lat="49.1747627258300781">
        <ele>129.42037963867188</ele>
        <time>2016-09-21T11:06:37.000Z</time>
      </trkpt>
      <trkpt lon="0.2995491027832031" lat="49.1748619079589844">
        <ele>129.47738647460938</ele>
        <time>2016-09-21T11:06:40.000Z</time>
      </trkpt>
      <trkpt lon="0.2993910908699036" lat="49.1749496459960938">
        <ele>129.62539672851562</ele>
        <time>2016-09-21T11:06:43.000Z</time>
      </trkpt>
      <trkpt lon="0.2993057072162628" lat="49.1750030517578125">
        <ele>129.8729248046875</ele>
        <time>2016-09-21T11:06:45.000Z</time>
      </trkpt>
      <trkpt lon="0.2991975545883179" lat="49.1750869750976562">
        <ele>130.22171020507812</ele>
        <time>2016-09-21T11:06:48.000Z</time>
      </trkpt>
      <trkpt lon="0.2991494536399841" lat="49.1751480102539062">
        <ele>130.62069702148438</ele>
        <time>2016-09-21T11:06:50.000Z</time>
      </trkpt>
      <trkpt lon="0.2990809679031372" lat="49.1752510070800781">
        <ele>131.04507446289062</ele>
        <time>2016-09-21T11:06:53.000Z</time>
      </trkpt>
      <trkpt lon="0.2989927828311920" lat="49.1753273010253906">
        <ele>131.51943969726562</ele>
        <time>2016-09-21T11:06:56.000Z</time>
      </trkpt>
      <trkpt lon="0.2989301085472107" lat="49.1753768920898438">
        <ele>132.04391479492188</ele>
        <time>2016-09-21T11:06:58.000Z</time>
      </trkpt>
      <trkpt lon="0.2988327145576477" lat="49.1754684448242188">
        <ele>132.64952087402344</ele>
        <time>2016-09-21T11:07:01.000Z</time>
      </trkpt>
      <trkpt lon="0.2987863421440125" lat="49.1755409240722656">
        <ele>133.2801513671875</ele>
        <time>2016-09-21T11:07:03.000Z</time>
      </trkpt>
      <trkpt lon="0.2987429201602936" lat="49.1755981445312500">
        <ele>133.90545654296875</ele>
        <time>2016-09-21T11:07:05.000Z</time>
      </trkpt>
      <trkpt lon="0.2986840009689331" lat="49.1756820678710938">
        <ele>134.44384765625</ele>
        <time>2016-09-21T11:07:08.000Z</time>
      </trkpt>
      <trkpt lon="0.2986444532871246" lat="49.1757431030273438">
        <ele>134.91329956054688</ele>
        <time>2016-09-21T11:07:10.000Z</time>
      </trkpt>
      <trkpt lon="0.2985856831073761" lat="49.1758270263671875">
        <ele>135.2882537841797</ele>
        <time>2016-09-21T11:07:13.000Z</time>
      </trkpt>
      <trkpt lon="0.2985493242740631" lat="49.1758804321289062">
        <ele>135.6492156982422</ele>
        <time>2016-09-21T11:07:15.000Z</time>
      </trkpt>
      <trkpt lon="0.2985098361968994" lat="49.1759452819824219">
        <ele>135.9747772216797</ele>
        <time>2016-09-21T11:07:17.000Z</time>
      </trkpt>
      <trkpt lon="0.2984388470649719" lat="49.1760368347167969">
        <ele>136.299072265625</ele>
        <time>2016-09-21T11:07:20.000Z</time>
      </trkpt>
      <trkpt lon="0.2983501553535461" lat="49.1761283874511719">
        <ele>136.7039794921875</ele>
        <time>2016-09-21T11:07:23.000Z</time>
      </trkpt>
      <trkpt lon="0.2982979416847229" lat="49.1761779785156250">
        <ele>137.05101013183594</ele>
        <time>2016-09-21T11:07:25.000Z</time>
      </trkpt>
      <trkpt lon="0.2982650101184845" lat="49.1762275695800781">
        <ele>137.345703125</ele>
        <time>2016-09-21T11:07:27.000Z</time>
      </trkpt>
      <trkpt lon="0.2982164621353149" lat="49.1763076782226562">
        <ele>137.5918731689453</ele>
        <time>2016-09-21T11:07:30.000Z</time>
      </trkpt>
      <trkpt lon="0.2981399297714233" lat="49.1763992309570312">
        <ele>137.77517700195312</ele>
        <time>2016-09-21T11:07:33.000Z</time>
      </trkpt>
      <trkpt lon="0.2980754077434540" lat="49.1764602661132812">
        <ele>137.8708038330078</ele>
        <time>2016-09-21T11:07:35.000Z</time>
      </trkpt>
      <trkpt lon="0.2980154752731323" lat="49.1765213012695312">
        <ele>137.97215270996094</ele>
        <time>2016-09-21T11:07:37.000Z</time>
      </trkpt>
      <trkpt lon="0.2979329824447632" lat="49.1766242980957031">
        <ele>138.1282958984375</ele>
        <time>2016-09-21T11:07:40.000Z</time>
      </trkpt>
      <trkpt lon="0.2978822886943817" lat="49.1766967773437500">
        <ele>138.3407745361328</ele>
        <time>2016-09-21T11:07:42.000Z</time>
      </trkpt>
      <trkpt lon="0.2978045642375946" lat="49.1768264770507812">
        <ele>138.63351440429688</ele>
        <time>2016-09-21T11:07:45.000Z</time>
      </trkpt>
      <trkpt lon="0.2977500259876251" lat="49.1769523620605469">
        <ele>138.93296813964844</ele>
        <time>2016-09-21T11:07:48.000Z</time>
      </trkpt>
      <trkpt lon="0.2977298200130463" lat="49.1770935058593750">
        <ele>139.1640167236328</ele>
        <time>2016-09-21T11:07:51.000Z</time>
      </trkpt>
      <trkpt lon="0.2977086901664734" lat="49.1771736145019531">
        <ele>139.35330200195312</ele>
        <time>2016-09-21T11:07:53.000Z</time>
      </trkpt>
      <trkpt lon="0.2976777553558350" lat="49.1772499084472656">
        <ele>139.529541015625</ele>
        <time>2016-09-21T11:07:55.000Z</time>
      </trkpt>
      <trkpt lon="0.2976412177085876" lat="49.1773185729980469">
        <ele>139.6460723876953</ele>
        <time>2016-09-21T11:07:57.000Z</time>
      </trkpt>
      <trkpt lon="0.2975929379463196" lat="49.1774330139160156">
        <ele>139.75494384765625</ele>
        <time>2016-09-21T11:08:00.000Z</time>
      </trkpt>
      <trkpt lon="0.2975619137287140" lat="49.1775169372558594">
        <ele>139.9346923828125</ele>
        <time>2016-09-21T11:08:02.000Z</time>
      </trkpt>
      <trkpt lon="0.2975187599658966" lat="49.1776313781738281">
        <ele>140.28271484375</ele>
        <time>2016-09-21T11:08:05.000Z</time>
      </trkpt>
      <trkpt lon="0.2974942028522491" lat="49.1777038574218750">
        <ele>140.69970703125</ele>
        <time>2016-09-21T11:08:07.000Z</time>
      </trkpt>
      <trkpt lon="0.2974584996700287" lat="49.1778068542480469">
        <ele>141.19192504882812</ele>
        <time>2016-09-21T11:08:10.000Z</time>
      </trkpt>
      <trkpt lon="0.2974189221858978" lat="49.1779174804687500">
        <ele>141.7584686279297</ele>
        <time>2016-09-21T11:08:13.000Z</time>
      </trkpt>
      <trkpt lon="0.2973760962486267" lat="49.1780319213867188">
        <ele>142.4021453857422</ele>
        <time>2016-09-21T11:08:16.000Z</time>
      </trkpt>
      <trkpt lon="0.2973560690879822" lat="49.1781044006347656">
        <ele>142.9403839111328</ele>
        <time>2016-09-21T11:08:18.000Z</time>
      </trkpt>
      <trkpt lon="0.2973234653472900" lat="49.1782035827636719">
        <ele>143.47579956054688</ele>
        <time>2016-09-21T11:08:21.000Z</time>
      </trkpt>
      <trkpt lon="0.2972945272922516" lat="49.1783065795898438">
        <ele>143.98397827148438</ele>
        <time>2016-09-21T11:08:24.000Z</time>
      </trkpt>
      <trkpt lon="0.2972831428050995" lat="49.1783714294433594">
        <ele>144.40139770507812</ele>
        <time>2016-09-21T11:08:26.000Z</time>
      </trkpt>
      <trkpt lon="0.2972683012485504" lat="49.1784744262695312">
        <ele>144.72525024414062</ele>
        <time>2016-09-21T11:08:29.000Z</time>
      </trkpt>
      <trkpt lon="0.2972615957260132" lat="49.1785545349121094">
        <ele>144.99984741210938</ele>
        <time>2016-09-21T11:08:31.000Z</time>
      </trkpt>
      <trkpt lon="0.2972718179225922" lat="49.1786956787109375">
        <ele>145.1934356689453</ele>
        <time>2016-09-21T11:08:34.000Z</time>
      </trkpt>
      <trkpt lon="0.2972814738750458" lat="49.1787872314453125">
        <ele>145.30166625976562</ele>
        <time>2016-09-21T11:08:36.000Z</time>
      </trkpt>
      <trkpt lon="0.2972839772701263" lat="49.1789054870605469">
        <ele>145.39566040039062</ele>
        <time>2016-09-21T11:08:39.000Z</time>
      </trkpt>
      <trkpt lon="0.2972929477691650" lat="49.1790161132812500">
        <ele>145.47059631347656</ele>
        <time>2016-09-21T11:08:42.000Z</time>
      </trkpt>
      <trkpt lon="0.2973144948482513" lat="49.1791152954101562">
        <ele>145.5272216796875</ele>
        <time>2016-09-21T11:08:45.000Z</time>
      </trkpt>
      <trkpt lon="0.2973244488239288" lat="49.1791839599609375">
        <ele>145.5855712890625</ele>
        <time>2016-09-21T11:08:47.000Z</time>
      </trkpt>
      <trkpt lon="0.2973181009292603" lat="49.1792869567871094">
        <ele>145.73060607910156</ele>
        <time>2016-09-21T11:08:50.000Z</time>
      </trkpt>
      <trkpt lon="0.2973007559776306" lat="49.1793594360351562">
        <ele>145.9264678955078</ele>
        <time>2016-09-21T11:08:52.000Z</time>
      </trkpt>
      <trkpt lon="0.2972836494445801" lat="49.1794319152832031">
        <ele>146.1812744140625</ele>
        <time>2016-09-21T11:08:54.000Z</time>
      </trkpt>
      <trkpt lon="0.2972698211669922" lat="49.1794891357421875">
        <ele>146.48927307128906</ele>
        <time>2016-09-21T11:08:56.000Z</time>
      </trkpt>
      <trkpt lon="0.2972588241100311" lat="49.1795349121093750">
        <ele>146.82321166992188</ele>
        <time>2016-09-21T11:08:58.000Z</time>
      </trkpt>
      <trkpt lon="0.2972553074359894" lat="49.1795845031738281">
        <ele>147.10733032226562</ele>
        <time>2016-09-21T11:09:00.000Z</time>
      </trkpt>
      <trkpt lon="0.2972604334354401" lat="49.1796493530273438">
        <ele>147.3727264404297</ele>
        <time>2016-09-21T11:09:02.000Z</time>
      </trkpt>
      <trkpt lon="0.2972820401191711" lat="49.1797637939453125">
        <ele>147.65206909179688</ele>
        <time>2016-09-21T11:09:05.000Z</time>
      </trkpt>
      <trkpt lon="0.2973126471042633" lat="49.1798744201660156">
        <ele>147.9585418701172</ele>
        <time>2016-09-21T11:09:07.000Z</time>
      </trkpt>
      <trkpt lon="0.2973332703113556" lat="49.1799545288085938">
        <ele>148.2862548828125</ele>
        <time>2016-09-21T11:09:09.000Z</time>
      </trkpt>
      <trkpt lon="0.2973642647266388" lat="49.1800804138183594">
        <ele>148.68836975097656</ele>
        <time>2016-09-21T11:09:12.000Z</time>
      </trkpt>
      <trkpt lon="0.2973906099796295" lat="49.1801948547363281">
        <ele>149.16091918945312</ele>
        <time>2016-09-21T11:09:15.000Z</time>
      </trkpt>
      <trkpt lon="0.2974092960357666" lat="49.1802902221679688">
        <ele>149.65158081054688</ele>
        <time>2016-09-21T11:09:18.000Z</time>
      </trkpt>
      <trkpt lon="0.2974276542663574" lat="49.1803817749023438">
        <ele>150.16677856445312</ele>
        <time>2016-09-21T11:09:21.000Z</time>
      </trkpt>
      <trkpt lon="0.2974541187286377" lat="49.1804924011230469">
        <ele>150.74798583984375</ele>
        <time>2016-09-21T11:09:24.000Z</time>
      </trkpt>
      <trkpt lon="0.2974822223186493" lat="49.1805725097656250">
        <ele>151.31130981445312</ele>
        <time>2016-09-21T11:09:26.000Z</time>
      </trkpt>
      <trkpt lon="0.2975214421749115" lat="49.1806755065917969">
        <ele>151.8932647705078</ele>
        <time>2016-09-21T11:09:29.000Z</time>
      </trkpt>
      <trkpt lon="0.2975480854511261" lat="49.1807785034179688">
        <ele>152.51321411132812</ele>
        <time>2016-09-21T11:09:32.000Z</time>
      </trkpt>
      <trkpt lon="0.2975871562957764" lat="49.1808815002441406">
        <ele>153.132568359375</ele>
        <time>2016-09-21T11:09:35.000Z</time>
      </trkpt>
      <trkpt lon="0.2976035773754120" lat="49.1809577941894531">
        <ele>153.64987182617188</ele>
        <time>2016-09-21T11:09:37.000Z</time>
      </trkpt>
      <trkpt lon="0.2976204156875610" lat="49.1810455322265625">
        <ele>154.09544372558594</ele>
        <time>2016-09-21T11:09:39.000Z</time>
      </trkpt>
      <trkpt lon="0.2976668775081635" lat="49.1811714172363281">
        <ele>154.45571899414062</ele>
        <time>2016-09-21T11:09:42.000Z</time>
      </trkpt>
      <trkpt lon="0.2976979613304138" lat="49.1812858581542969">
        <ele>154.71450805664062</ele>
        <time>2016-09-21T11:09:45.000Z</time>
      </trkpt>
      <trkpt lon="0.2977093458175659" lat="49.1813583374023438">
        <ele>154.8871612548828</ele>
        <time>2016-09-21T11:09:47.000Z</time>
      </trkpt>
      <trkpt lon="0.2977314889431000" lat="49.1814689636230469">
        <ele>155.06356811523438</ele>
        <time>2016-09-21T11:09:50.000Z</time>
      </trkpt>
      <trkpt lon="0.2977710366249084" lat="49.1815910339355469">
        <ele>155.2510528564453</ele>
        <time>2016-09-21T11:09:53.000Z</time>
      </trkpt>
      <trkpt lon="0.2978407740592957" lat="49.1817245483398438">
        <ele>155.43194580078125</ele>
        <time>2016-09-21T11:09:56.000Z</time>
      </trkpt>
      <trkpt lon="0.2978838682174683" lat="49.1818161010742188">
        <ele>155.59353637695312</ele>
        <time>2016-09-21T11:09:58.000Z</time>
      </trkpt>
      <trkpt lon="0.2979346513748169" lat="49.1819076538085938">
        <ele>155.7543182373047</ele>
        <time>2016-09-21T11:10:00.000Z</time>
      </trkpt>
      <trkpt lon="0.2979890704154968" lat="49.1820411682128906">
        <ele>155.8965606689453</ele>
        <time>2016-09-21T11:10:03.000Z</time>
      </trkpt>
      <trkpt lon="0.2980528473854065" lat="49.1821670532226562">
        <ele>156.0048065185547</ele>
        <time>2016-09-21T11:10:06.000Z</time>
      </trkpt>
      <trkpt lon="0.2980866432189941" lat="49.1822395324707031">
        <ele>156.064208984375</ele>
        <time>2016-09-21T11:10:08.000Z</time>
      </trkpt>
      <trkpt lon="0.2981157004833221" lat="49.1823692321777344">
        <ele>156.0921630859375</ele>
        <time>2016-09-21T11:10:11.000Z</time>
      </trkpt>
      <trkpt lon="0.2981560230255127" lat="49.1824913024902344">
        <ele>156.08726501464844</ele>
        <time>2016-09-21T11:10:14.000Z</time>
      </trkpt>
      <trkpt lon="0.2981953322887421" lat="49.1826286315917969">
        <ele>156.13531494140625</ele>
        <time>2016-09-21T11:10:17.000Z</time>
      </trkpt>
      <trkpt lon="0.2982225716114044" lat="49.1827087402343750">
        <ele>156.2148895263672</ele>
        <time>2016-09-21T11:10:19.000Z</time>
      </trkpt>
      <trkpt lon="0.2982507348060608" lat="49.1827888488769531">
        <ele>156.33444213867188</ele>
        <time>2016-09-21T11:10:21.000Z</time>
      </trkpt>
      <trkpt lon="0.2982867956161499" lat="49.1829071044921875">
        <ele>156.51980590820312</ele>
        <time>2016-09-21T11:10:24.000Z</time>
      </trkpt>
      <trkpt lon="0.2983162105083466" lat="49.1829910278320312">
        <ele>156.7569122314453</ele>
        <time>2016-09-21T11:10:26.000Z</time>
      </trkpt>
      <trkpt lon="0.2983441948890686" lat="49.1830711364746094">
        <ele>156.96287536621094</ele>
        <time>2016-09-21T11:10:28.000Z</time>
      </trkpt>
      <trkpt lon="0.2983683347702026" lat="49.1831550598144531">
        <ele>157.16453552246094</ele>
        <time>2016-09-21T11:10:30.000Z</time>
      </trkpt>
      <trkpt lon="0.2983956634998322" lat="49.1832695007324219">
        <ele>157.37435913085938</ele>
        <time>2016-09-21T11:10:33.000Z</time>
      </trkpt>
      <trkpt lon="0.2984179556369781" lat="49.1833534240722656">
        <ele>157.56883239746094</ele>
        <time>2016-09-21T11:10:35.000Z</time>
      </trkpt>
      <trkpt lon="0.2984545826911926" lat="49.1834793090820312">
        <ele>157.8119659423828</ele>
        <time>2016-09-21T11:10:38.000Z</time>
      </trkpt>
      <trkpt lon="0.2984831035137177" lat="49.1835594177246094">
        <ele>158.07669067382812</ele>
        <time>2016-09-21T11:10:40.000Z</time>
      </trkpt>
      <trkpt lon="0.2985270917415619" lat="49.1836929321289062">
        <ele>158.4005126953125</ele>
        <time>2016-09-21T11:10:43.000Z</time>
      </trkpt>
      <trkpt lon="0.2985650599002838" lat="49.1838035583496094">
        <ele>158.7612762451172</ele>
        <time>2016-09-21T11:10:46.000Z</time>
      </trkpt>
      <trkpt lon="0.2986114919185638" lat="49.1839027404785156">
        <ele>159.15548706054688</ele>
        <time>2016-09-21T11:10:49.000Z</time>
      </trkpt>
      <trkpt lon="0.2986654043197632" lat="49.1840667724609375">
        <ele>159.59170532226562</ele>
        <time>2016-09-21T11:10:52.000Z</time>
      </trkpt>
      <trkpt lon="0.2987051308155060" lat="49.1841812133789062">
        <ele>160.0554962158203</ele>
        <time>2016-09-21T11:10:55.000Z</time>
      </trkpt>
      <trkpt lon="0.2987571954727173" lat="49.1842918395996094">
        <ele>160.4391632080078</ele>
        <time>2016-09-21T11:10:58.000Z</time>
      </trkpt>
      <trkpt lon="0.2987754642963409" lat="49.1843605041503906">
        <ele>160.7450714111328</ele>
        <time>2016-09-21T11:11:00.000Z</time>
      </trkpt>
      <trkpt lon="0.2988224625587463" lat="49.1844482421875000">
        <ele>160.9839324951172</ele>
        <time>2016-09-21T11:11:02.000Z</time>
      </trkpt>
      <trkpt lon="0.2988595962524414" lat="49.1845855712890625">
        <ele>161.10337829589844</ele>
        <time>2016-09-21T11:11:05.000Z</time>
      </trkpt>
      <trkpt lon="0.2988873422145844" lat="49.1846656799316406">
        <ele>161.1416473388672</ele>
        <time>2016-09-21T11:11:07.000Z</time>
      </trkpt>
      <trkpt lon="0.2989180386066437" lat="49.1847496032714844">
        <ele>161.1684112548828</ele>
        <time>2016-09-21T11:11:09.000Z</time>
      </trkpt>
      <trkpt lon="0.2989587783813477" lat="49.1848678588867188">
        <ele>161.18873596191406</ele>
        <time>2016-09-21T11:11:12.000Z</time>
      </trkpt>
      <trkpt lon="0.2989880144596100" lat="49.1849479675292969">
        <ele>161.2010498046875</ele>
        <time>2016-09-21T11:11:14.000Z</time>
      </trkpt>
      <trkpt lon="0.2990308403968811" lat="49.1850662231445312">
        <ele>161.22853088378906</ele>
        <time>2016-09-21T11:11:17.000Z</time>
      </trkpt>
      <trkpt lon="0.2990612685680389" lat="49.1851539611816406">
        <ele>161.28688049316406</ele>
        <time>2016-09-21T11:11:19.000Z</time>
      </trkpt>
      <trkpt lon="0.2991017699241638" lat="49.1852874755859375">
        <ele>161.39822387695312</ele>
        <time>2016-09-21T11:11:22.000Z</time>
      </trkpt>
      <trkpt lon="0.2991394698619843" lat="49.1854248046875000">
        <ele>161.5667266845703</ele>
        <time>2016-09-21T11:11:25.000Z</time>
      </trkpt>
      <trkpt lon="0.2991795539855957" lat="49.1855545043945312">
        <ele>161.79185485839844</ele>
        <time>2016-09-21T11:11:28.000Z</time>
      </trkpt>
      <trkpt lon="0.2992202937602997" lat="49.1856727600097656">
        <ele>162.0423583984375</ele>
        <time>2016-09-21T11:11:31.000Z</time>
      </trkpt>
      <trkpt lon="0.2992702424526215" lat="49.1858062744140625">
        <ele>162.30821228027344</ele>
        <time>2016-09-21T11:11:34.000Z</time>
      </trkpt>
      <trkpt lon="0.2993209362030029" lat="49.1859436035156250">
        <ele>162.55006408691406</ele>
        <time>2016-09-21T11:11:37.000Z</time>
      </trkpt>
      <trkpt lon="0.2993526458740234" lat="49.1860923767089844">
        <ele>162.77096557617188</ele>
        <time>2016-09-21T11:11:40.000Z</time>
      </trkpt>
      <trkpt lon="0.2994304895401001" lat="49.1862411499023438">
        <ele>162.9716033935547</ele>
        <time>2016-09-21T11:11:43.000Z</time>
      </trkpt>
      <trkpt lon="0.2994787693023682" lat="49.1864013671875000">
        <ele>163.16897583007812</ele>
        <time>2016-09-21T11:11:46.000Z</time>
      </trkpt>
      <trkpt lon="0.2995152473449707" lat="49.1865615844726562">
        <ele>163.36846923828125</ele>
        <time>2016-09-21T11:11:49.000Z</time>
      </trkpt>
      <trkpt lon="0.2995671331882477" lat="49.1866760253906250">
        <ele>163.56808471679688</ele>
        <time>2016-09-21T11:11:51.000Z</time>
      </trkpt>
      <trkpt lon="0.2996047735214233" lat="49.1868095397949219">
        <ele>163.66879272460938</ele>
        <time>2016-09-21T11:11:53.000Z</time>
      </trkpt>
      <trkpt lon="0.2996602356433868" lat="49.1870079040527344">
        <ele>163.6390838623047</ele>
        <time>2016-09-21T11:11:56.000Z</time>
      </trkpt>
      <trkpt lon="0.2997159957885742" lat="49.1872138977050781">
        <ele>163.46331787109375</ele>
        <time>2016-09-21T11:11:59.000Z</time>
      </trkpt>
      <trkpt lon="0.2997610867023468" lat="49.1873550415039062">
        <ele>163.169921875</ele>
        <time>2016-09-21T11:12:01.000Z</time>
      </trkpt>
      <trkpt lon="0.2998178303241730" lat="49.1875038146972656">
        <ele>162.7724609375</ele>
        <time>2016-09-21T11:12:03.000Z</time>
      </trkpt>
      <trkpt lon="0.2998681068420410" lat="49.1876564025878906">
        <ele>162.3291015625</ele>
        <time>2016-09-21T11:12:05.000Z</time>
      </trkpt>
      <trkpt lon="0.2999322414398193" lat="49.1878852844238281">
        <ele>161.814453125</ele>
        <time>2016-09-21T11:12:08.000Z</time>
      </trkpt>
      <trkpt lon="0.2999722957611084" lat="49.1881141662597656">
        <ele>161.2353515625</ele>
        <time>2016-09-21T11:12:11.000Z</time>
      </trkpt>
      <trkpt lon="0.3001066744327545" lat="49.1884193420410156">
        <ele>160.5465850830078</ele>
        <time>2016-09-21T11:12:14.000Z</time>
      </trkpt>
      <trkpt lon="0.3001756370067596" lat="49.1886138916015625">
        <ele>159.84225463867188</ele>
        <time>2016-09-21T11:12:16.000Z</time>
      </trkpt>
      <trkpt lon="0.3002257049083710" lat="49.1887893676757812">
        <ele>159.15896606445312</ele>
        <time>2016-09-21T11:12:18.000Z</time>
      </trkpt>
      <trkpt lon="0.3003024756908417" lat="49.1890296936035156">
        <ele>158.5148162841797</ele>
        <time>2016-09-21T11:12:21.000Z</time>
      </trkpt>
      <trkpt lon="0.3003414571285248" lat="49.1892242431640625">
        <ele>157.92906188964844</ele>
        <time>2016-09-21T11:12:23.000Z</time>
      </trkpt>
      <trkpt lon="0.3004297912120819" lat="49.1894264221191406">
        <ele>157.42369079589844</ele>
        <time>2016-09-21T11:12:25.000Z</time>
      </trkpt>
      <trkpt lon="0.3005048930644989" lat="49.1896934509277344">
        <ele>156.87820434570312</ele>
        <time>2016-09-21T11:12:28.000Z</time>
      </trkpt>
      <trkpt lon="0.3006094098091125" lat="49.1899147033691406">
        <ele>156.3146514892578</ele>
        <time>2016-09-21T11:12:30.000Z</time>
      </trkpt>
      <trkpt lon="0.3007288575172424" lat="49.1901741027832031">
        <ele>155.83189392089844</ele>
        <time>2016-09-21T11:12:33.000Z</time>
      </trkpt>
      <trkpt lon="0.3009051978588104" lat="49.1904182434082031">
        <ele>155.4686279296875</ele>
        <time>2016-09-21T11:12:36.000Z</time>
      </trkpt>
      <trkpt lon="0.3011478781700134" lat="49.1905899047851562">
        <ele>155.2146453857422</ele>
        <time>2016-09-21T11:12:39.000Z</time>
      </trkpt>
      <trkpt lon="0.3013125658035278" lat="49.1907424926757812">
        <ele>155.07984924316406</ele>
        <time>2016-09-21T11:12:41.000Z</time>
      </trkpt>
      <trkpt lon="0.3014734983444214" lat="49.1908950805664062">
        <ele>155.03469848632812</ele>
        <time>2016-09-21T11:12:43.000Z</time>
      </trkpt>
      <trkpt lon="0.3016232848167419" lat="49.1910476684570312">
        <ele>155.0372314453125</ele>
        <time>2016-09-21T11:12:45.000Z</time>
      </trkpt>
      <trkpt lon="0.3018393814563751" lat="49.1912612915039062">
        <ele>155.04983520507812</ele>
        <time>2016-09-21T11:12:48.000Z</time>
      </trkpt>
      <trkpt lon="0.3019987046718597" lat="49.1913948059082031">
        <ele>155.0812530517578</ele>
        <time>2016-09-21T11:12:50.000Z</time>
      </trkpt>
      <trkpt lon="0.3021573126316071" lat="49.1915245056152344">
        <ele>155.1664276123047</ele>
        <time>2016-09-21T11:12:52.000Z</time>
      </trkpt>
      <trkpt lon="0.3023836910724640" lat="49.1917304992675781">
        <ele>155.34185791015625</ele>
        <time>2016-09-21T11:12:55.000Z</time>
      </trkpt>
      <trkpt lon="0.3025322258472443" lat="49.1918411254882812">
        <ele>155.5429229736328</ele>
        <time>2016-09-21T11:12:57.000Z</time>
      </trkpt>
      <trkpt lon="0.3027590513229370" lat="49.1920204162597656">
        <ele>155.69528198242188</ele>
        <time>2016-09-21T11:13:00.000Z</time>
      </trkpt>
      <trkpt lon="0.3029986619949341" lat="49.1921768188476562">
        <ele>155.7686309814453</ele>
        <time>2016-09-21T11:13:03.000Z</time>
      </trkpt>
      <trkpt lon="0.3032154440879822" lat="49.1923751831054688">
        <ele>155.72512817382812</ele>
        <time>2016-09-21T11:13:06.000Z</time>
      </trkpt>
      <trkpt lon="0.3034282624721527" lat="49.1925964355468750">
        <ele>155.48751831054688</ele>
        <time>2016-09-21T11:13:09.000Z</time>
      </trkpt>
      <trkpt lon="0.3036440014839172" lat="49.1927680969238281">
        <ele>155.10940551757812</ele>
        <time>2016-09-21T11:13:12.000Z</time>
      </trkpt>
      <trkpt lon="0.3038508594036102" lat="49.1929702758789062">
        <ele>154.65646362304688</ele>
        <time>2016-09-21T11:13:15.000Z</time>
      </trkpt>
      <trkpt lon="0.3040691316127777" lat="49.1931343078613281">
        <ele>154.18252563476562</ele>
        <time>2016-09-21T11:13:18.000Z</time>
      </trkpt>
      <trkpt lon="0.3042869865894318" lat="49.1933135986328125">
        <ele>153.76113891601562</ele>
        <time>2016-09-21T11:13:21.000Z</time>
      </trkpt>
      <trkpt lon="0.3045134544372559" lat="49.1934890747070312">
        <ele>153.45675659179688</ele>
        <time>2016-09-21T11:13:24.000Z</time>
      </trkpt>
      <trkpt lon="0.3046478033065796" lat="49.1936073303222656">
        <ele>153.2481689453125</ele>
        <time>2016-09-21T11:13:26.000Z</time>
      </trkpt>
      <trkpt lon="0.3047812581062317" lat="49.1937217712402344">
        <ele>153.11312866210938</ele>
        <time>2016-09-21T11:13:28.000Z</time>
      </trkpt>
      <trkpt lon="0.3049780726432800" lat="49.1938858032226562">
        <ele>152.99388122558594</ele>
        <time>2016-09-21T11:13:31.000Z</time>
      </trkpt>
      <trkpt lon="0.3051992654800415" lat="49.1940765380859375">
        <ele>152.84226989746094</ele>
        <time>2016-09-21T11:13:34.000Z</time>
      </trkpt>
      <trkpt lon="0.3054119050502777" lat="49.1942558288574219">
        <ele>152.70034790039062</ele>
        <time>2016-09-21T11:13:37.000Z</time>
      </trkpt>
      <trkpt lon="0.3056104779243469" lat="49.1944351196289062">
        <ele>152.61807250976562</ele>
        <time>2016-09-21T11:13:40.000Z</time>
      </trkpt>
      <trkpt lon="0.3057474493980408" lat="49.1945419311523438">
        <ele>152.60250854492188</ele>
        <time>2016-09-21T11:13:42.000Z</time>
      </trkpt>
      <trkpt lon="0.3058671355247498" lat="49.1946487426757812">
        <ele>152.66064453125</ele>
        <time>2016-09-21T11:13:44.000Z</time>
      </trkpt>
      <trkpt lon="0.3059905171394348" lat="49.1947555541992188">
        <ele>152.74179077148438</ele>
        <time>2016-09-21T11:13:46.000Z</time>
      </trkpt>
      <trkpt lon="0.3061800301074982" lat="49.1949195861816406">
        <ele>152.77041625976562</ele>
        <time>2016-09-21T11:13:49.000Z</time>
      </trkpt>
      <trkpt lon="0.3063642680644989" lat="49.1950683593750000">
        <ele>152.7076416015625</ele>
        <time>2016-09-21T11:13:52.000Z</time>
      </trkpt>
      <trkpt lon="0.3064835369586945" lat="49.1951675415039062">
        <ele>152.57278442382812</ele>
        <time>2016-09-21T11:13:54.000Z</time>
      </trkpt>
      <trkpt lon="0.3066651821136475" lat="49.1953277587890625">
        <ele>152.381103515625</ele>
        <time>2016-09-21T11:13:57.000Z</time>
      </trkpt>
      <trkpt lon="0.3067787587642670" lat="49.1954269409179688">
        <ele>152.27261352539062</ele>
        <time>2016-09-21T11:13:59.000Z</time>
      </trkpt>
      <trkpt lon="0.3069024682044983" lat="49.1955299377441406">
        <ele>152.26901245117188</ele>
        <time>2016-09-21T11:14:01.000Z</time>
      </trkpt>
      <trkpt lon="0.3071083128452301" lat="49.1957054138183594">
        <ele>152.41439819335938</ele>
        <time>2016-09-21T11:14:04.000Z</time>
      </trkpt>
      <trkpt lon="0.3072436153888702" lat="49.1958160400390625">
        <ele>152.65611267089844</ele>
        <time>2016-09-21T11:14:06.000Z</time>
      </trkpt>
      <trkpt lon="0.3073664009571075" lat="49.1959228515625000">
        <ele>152.95225524902344</ele>
        <time>2016-09-21T11:14:08.000Z</time>
      </trkpt>
      <trkpt lon="0.3075633645057678" lat="49.1960906982421875">
        <ele>153.1648712158203</ele>
        <time>2016-09-21T11:14:11.000Z</time>
      </trkpt>
      <trkpt lon="0.3076832294464111" lat="49.1961975097656250">
        <ele>153.25125122070312</ele>
        <time>2016-09-21T11:14:13.000Z</time>
      </trkpt>
      <trkpt lon="0.3078649640083313" lat="49.1963615417480469">
        <ele>153.1533660888672</ele>
        <time>2016-09-21T11:14:16.000Z</time>
      </trkpt>
      <trkpt lon="0.3079833090305328" lat="49.1964721679687500">
        <ele>152.94271850585938</ele>
        <time>2016-09-21T11:14:18.000Z</time>
      </trkpt>
      <trkpt lon="0.3082126379013062" lat="49.1966400146484375">
        <ele>152.65399169921875</ele>
        <time>2016-09-21T11:14:21.000Z</time>
      </trkpt>
      <trkpt lon="0.3084161579608917" lat="49.1968154907226562">
        <ele>152.3968963623047</ele>
        <time>2016-09-21T11:14:24.000Z</time>
      </trkpt>
      <trkpt lon="0.3085587322711945" lat="49.1969184875488281">
        <ele>152.2021484375</ele>
        <time>2016-09-21T11:14:26.000Z</time>
      </trkpt>
      <trkpt lon="0.3087634146213531" lat="49.1971168518066406">
        <ele>152.02462768554688</ele>
        <time>2016-09-21T11:14:29.000Z</time>
      </trkpt>
      <trkpt lon="0.3089019656181335" lat="49.1972389221191406">
        <ele>151.8145294189453</ele>
        <time>2016-09-21T11:14:31.000Z</time>
      </trkpt>
      <trkpt lon="0.3091195523738861" lat="49.1974029541015625">
        <ele>151.49478149414062</ele>
        <time>2016-09-21T11:14:34.000Z</time>
      </trkpt>
      <trkpt lon="0.3093385100364685" lat="49.1975708007812500">
        <ele>151.11593627929688</ele>
        <time>2016-09-21T11:14:37.000Z</time>
      </trkpt>
      <trkpt lon="0.3094757795333862" lat="49.1976890563964844">
        <ele>150.78494262695312</ele>
        <time>2016-09-21T11:14:39.000Z</time>
      </trkpt>
      <trkpt lon="0.3097063899040222" lat="49.1978607177734375">
        <ele>150.56509399414062</ele>
        <time>2016-09-21T11:14:42.000Z</time>
      </trkpt>
      <trkpt lon="0.3098809719085693" lat="49.1979675292968750">
        <ele>150.4365692138672</ele>
        <time>2016-09-21T11:14:44.000Z</time>
      </trkpt>
      <trkpt lon="0.3101608455181122" lat="49.1981201171875000">
        <ele>150.4589385986328</ele>
        <time>2016-09-21T11:14:47.000Z</time>
      </trkpt>
      <trkpt lon="0.3104591667652130" lat="49.1982612609863281">
        <ele>150.5012664794922</ele>
        <time>2016-09-21T11:14:50.000Z</time>
      </trkpt>
      <trkpt lon="0.3107754886150360" lat="49.1983909606933594">
        <ele>150.41281127929688</ele>
        <time>2016-09-21T11:14:53.000Z</time>
      </trkpt>
      <trkpt lon="0.3111028075218201" lat="49.1985130310058594">
        <ele>150.05718994140625</ele>
        <time>2016-09-21T11:14:56.000Z</time>
      </trkpt>
      <trkpt lon="0.3114397525787354" lat="49.1986351013183594">
        <ele>149.5062255859375</ele>
        <time>2016-09-21T11:14:59.000Z</time>
      </trkpt>
      <trkpt lon="0.3117662370204926" lat="49.1987495422363281">
        <ele>148.92010498046875</ele>
        <time>2016-09-21T11:15:02.000Z</time>
      </trkpt>
      <trkpt lon="0.3121069669723511" lat="49.1988639831542969">
        <ele>148.48049926757812</ele>
        <time>2016-09-21T11:15:05.000Z</time>
      </trkpt>
      <trkpt lon="0.3124299049377441" lat="49.1989860534667969">
        <ele>148.2351531982422</ele>
        <time>2016-09-21T11:15:08.000Z</time>
      </trkpt>
      <trkpt lon="0.3126341700553894" lat="49.1990547180175781">
        <ele>148.2152557373047</ele>
        <time>2016-09-21T11:15:10.000Z</time>
      </trkpt>
      <trkpt lon="0.3128474056720734" lat="49.1991157531738281">
        <ele>148.34326171875</ele>
        <time>2016-09-21T11:15:12.000Z</time>
      </trkpt>
      <trkpt lon="0.3130714595317841" lat="49.1991958618164062">
        <ele>148.4886474609375</ele>
        <time>2016-09-21T11:15:14.000Z</time>
      </trkpt>
      <trkpt lon="0.3133866190910339" lat="49.1993064880371094">
        <ele>148.5000457763672</ele>
        <time>2016-09-21T11:15:17.000Z</time>
      </trkpt>
      <trkpt lon="0.3136918842792511" lat="49.1994171142578125">
        <ele>148.48046875</ele>
        <time>2016-09-21T11:15:20.000Z</time>
      </trkpt>
      <trkpt lon="0.3139894604682922" lat="49.1995315551757812">
        <ele>148.51535034179688</ele>
        <time>2016-09-21T11:15:23.000Z</time>
      </trkpt>
      <trkpt lon="0.3141913712024689" lat="49.1996116638183594">
        <ele>148.61700439453125</ele>
        <time>2016-09-21T11:15:25.000Z</time>
      </trkpt>
      <trkpt lon="0.3144789636135101" lat="49.1997108459472656">
        <ele>148.84544372558594</ele>
        <time>2016-09-21T11:15:28.000Z</time>
      </trkpt>
      <trkpt lon="0.3147598206996918" lat="49.1998138427734375">
        <ele>149.22161865234375</ele>
        <time>2016-09-21T11:15:31.000Z</time>
      </trkpt>
      <trkpt lon="0.3150339126586914" lat="49.1999130249023438">
        <ele>149.66017150878906</ele>
        <time>2016-09-21T11:15:34.000Z</time>
      </trkpt>
      <trkpt lon="0.3152955174446106" lat="49.2000083923339844">
        <ele>150.08279418945312</ele>
        <time>2016-09-21T11:15:37.000Z</time>
      </trkpt>
      <trkpt lon="0.3155747950077057" lat="49.2001113891601562">
        <ele>150.46824645996094</ele>
        <time>2016-09-21T11:15:40.000Z</time>
      </trkpt>
      <trkpt lon="0.3158320486545563" lat="49.2002029418945312">
        <ele>150.77023315429688</ele>
        <time>2016-09-21T11:15:43.000Z</time>
      </trkpt>
      <trkpt lon="0.3160996735095978" lat="49.2002983093261719">
        <ele>150.97225952148438</ele>
        <time>2016-09-21T11:15:46.000Z</time>
      </trkpt>
      <trkpt lon="0.3163656294345856" lat="49.2003898620605469">
        <ele>151.0731658935547</ele>
        <time>2016-09-21T11:15:49.000Z</time>
      </trkpt>
      <trkpt lon="0.3166331946849823" lat="49.2004890441894531">
        <ele>151.1868896484375</ele>
        <time>2016-09-21T11:15:52.000Z</time>
      </trkpt>
      <trkpt lon="0.3169107139110565" lat="49.2005729675292969">
        <ele>151.27035522460938</ele>
        <time>2016-09-21T11:15:55.000Z</time>
      </trkpt>
      <trkpt lon="0.3172013163566589" lat="49.2006645202636719">
        <ele>151.25155639648438</ele>
        <time>2016-09-21T11:15:58.000Z</time>
      </trkpt>
      <trkpt lon="0.3174424469470978" lat="49.2007446289062500">
        <ele>151.0945587158203</ele>
        <time>2016-09-21T11:16:01.000Z</time>
      </trkpt>
      <trkpt lon="0.3176219165325165" lat="49.2007942199707031">
        <ele>150.82455444335938</ele>
        <time>2016-09-21T11:16:03.000Z</time>
      </trkpt>
      <trkpt lon="0.3178131878376007" lat="49.2008628845214844">
        <ele>150.4298858642578</ele>
        <time>2016-09-21T11:16:05.000Z</time>
      </trkpt>
      <trkpt lon="0.3179907202720642" lat="49.2009239196777344">
        <ele>150.01513671875</ele>
        <time>2016-09-21T11:16:07.000Z</time>
      </trkpt>
      <trkpt lon="0.3182544112205505" lat="49.2010192871093750">
        <ele>149.60882568359375</ele>
        <time>2016-09-21T11:16:10.000Z</time>
      </trkpt>
      <trkpt lon="0.3185200393199921" lat="49.2011108398437500">
        <ele>149.2465362548828</ele>
        <time>2016-09-21T11:16:13.000Z</time>
      </trkpt>
      <trkpt lon="0.3187840580940247" lat="49.2011985778808594">
        <ele>148.90805053710938</ele>
        <time>2016-09-21T11:16:16.000Z</time>
      </trkpt>
      <trkpt lon="0.3190562129020691" lat="49.2012825012207031">
        <ele>148.6024932861328</ele>
        <time>2016-09-21T11:16:19.000Z</time>
      </trkpt>
      <trkpt lon="0.3192506134510040" lat="49.2013473510742188">
        <ele>148.34194946289062</ele>
        <time>2016-09-21T11:16:21.000Z</time>
      </trkpt>
      <trkpt lon="0.3194442093372345" lat="49.2014122009277344">
        <ele>148.16714477539062</ele>
        <time>2016-09-21T11:16:23.000Z</time>
      </trkpt>
      <trkpt lon="0.3197605609893799" lat="49.2015380859375000">
        <ele>148.06362915039062</ele>
        <time>2016-09-21T11:16:26.000Z</time>
      </trkpt>
      <trkpt lon="0.3199822604656219" lat="49.2015953063964844">
        <ele>148.01223754882812</ele>
        <time>2016-09-21T11:16:28.000Z</time>
      </trkpt>
      <trkpt lon="0.3202515542507172" lat="49.2017250061035156">
        <ele>147.91574096679688</ele>
        <time>2016-09-21T11:16:31.000Z</time>
      </trkpt>
      <trkpt lon="0.3205806314945221" lat="49.2018470764160156">
        <ele>147.71987915039062</ele>
        <time>2016-09-21T11:16:34.000Z</time>
      </trkpt>
      <trkpt lon="0.3207929432392120" lat="49.2019271850585938">
        <ele>147.46365356445312</ele>
        <time>2016-09-21T11:16:36.000Z</time>
      </trkpt>
      <trkpt lon="0.3211397826671600" lat="49.2020225524902344">
        <ele>147.1675262451172</ele>
        <time>2016-09-21T11:16:39.000Z</time>
      </trkpt>
      <trkpt lon="0.3214513659477234" lat="49.2021293640136719">
        <ele>146.87271118164062</ele>
        <time>2016-09-21T11:16:42.000Z</time>
      </trkpt>
      <trkpt lon="0.3216570317745209" lat="49.2021980285644531">
        <ele>146.6836700439453</ele>
        <time>2016-09-21T11:16:44.000Z</time>
      </trkpt>
      <trkpt lon="0.3218769133090973" lat="49.2023048400878906">
        <ele>146.64419555664062</ele>
        <time>2016-09-21T11:16:46.000Z</time>
      </trkpt>
      <trkpt lon="0.3221668303012848" lat="49.2023849487304688">
        <ele>146.68936157226562</ele>
        <time>2016-09-21T11:16:49.000Z</time>
      </trkpt>
      <trkpt lon="0.3224036097526550" lat="49.2024574279785156">
        <ele>146.7843017578125</ele>
        <time>2016-09-21T11:16:51.000Z</time>
      </trkpt>
      <trkpt lon="0.3226181268692017" lat="49.2025032043457031">
        <ele>146.87742614746094</ele>
        <time>2016-09-21T11:16:53.000Z</time>
      </trkpt>
      <trkpt lon="0.3229554891586304" lat="49.2026367187500000">
        <ele>146.87020874023438</ele>
        <time>2016-09-21T11:16:56.000Z</time>
      </trkpt>
      <trkpt lon="0.3231987357139587" lat="49.2027282714843750">
        <ele>146.78817749023438</ele>
        <time>2016-09-21T11:16:58.000Z</time>
      </trkpt>
      <trkpt lon="0.3234190940856934" lat="49.2028045654296875">
        <ele>146.67416381835938</ele>
        <time>2016-09-21T11:17:00.000Z</time>
      </trkpt>
      <trkpt lon="0.3236279785633087" lat="49.2028846740722656">
        <ele>146.56129455566406</ele>
        <time>2016-09-21T11:17:02.000Z</time>
      </trkpt>
      <trkpt lon="0.3239384293556213" lat="49.2029991149902344">
        <ele>146.46873474121094</ele>
        <time>2016-09-21T11:17:05.000Z</time>
      </trkpt>
      <trkpt lon="0.3241399228572845" lat="49.2030715942382812">
        <ele>146.46820068359375</ele>
        <time>2016-09-21T11:17:07.000Z</time>
      </trkpt>
      <trkpt lon="0.3244425058364868" lat="49.2031555175781250">
        <ele>146.46994018554688</ele>
        <time>2016-09-21T11:17:10.000Z</time>
      </trkpt>
      <trkpt lon="0.3246690034866333" lat="49.2032318115234375">
        <ele>146.4442901611328</ele>
        <time>2016-09-21T11:17:12.000Z</time>
      </trkpt>
      <trkpt lon="0.3248621225357056" lat="49.2033081054687500">
        <ele>146.37045288085938</ele>
        <time>2016-09-21T11:17:14.000Z</time>
      </trkpt>
      <trkpt lon="0.3251747488975525" lat="49.2034187316894531">
        <ele>146.36459350585938</ele>
        <time>2016-09-21T11:17:17.000Z</time>
      </trkpt>
      <trkpt lon="0.3253661990165710" lat="49.2034988403320312">
        <ele>146.44375610351562</ele>
        <time>2016-09-21T11:17:19.000Z</time>
      </trkpt>
      <trkpt lon="0.3255593180656433" lat="49.2035675048828125">
        <ele>146.6464080810547</ele>
        <time>2016-09-21T11:17:21.000Z</time>
      </trkpt>
      <trkpt lon="0.3258230090141296" lat="49.2036666870117188">
        <ele>146.9932403564453</ele>
        <time>2016-09-21T11:17:24.000Z</time>
      </trkpt>
      <trkpt lon="0.3259941637516022" lat="49.2037391662597656">
        <ele>147.38113403320312</ele>
        <time>2016-09-21T11:17:26.000Z</time>
      </trkpt>
      <trkpt lon="0.3262021243572235" lat="49.2037658691406250">
        <ele>147.68118286132812</ele>
        <time>2016-09-21T11:17:28.000Z</time>
      </trkpt>
      <trkpt lon="0.3264563679695129" lat="49.2038650512695312">
        <ele>147.88308715820312</ele>
        <time>2016-09-21T11:17:31.000Z</time>
      </trkpt>
      <trkpt lon="0.3267205655574799" lat="49.2039451599121094">
        <ele>147.9994659423828</ele>
        <time>2016-09-21T11:17:34.000Z</time>
      </trkpt>
      <trkpt lon="0.3269887864589691" lat="49.2040214538574219">
        <ele>148.01699829101562</ele>
        <time>2016-09-21T11:17:37.000Z</time>
      </trkpt>
      <trkpt lon="0.3272570073604584" lat="49.2040901184082031">
        <ele>148.0301513671875</ele>
        <time>2016-09-21T11:17:40.000Z</time>
      </trkpt>
      <trkpt lon="0.3275263905525208" lat="49.2041625976562500">
        <ele>148.03749084472656</ele>
        <time>2016-09-21T11:17:43.000Z</time>
      </trkpt>
      <trkpt lon="0.3277257084846497" lat="49.2041969299316406">
        <ele>148.09664916992188</ele>
        <time>2016-09-21T11:17:45.000Z</time>
      </trkpt>
      <trkpt lon="0.3278974592685699" lat="49.2042427062988281">
        <ele>148.1983184814453</ele>
        <time>2016-09-21T11:17:47.000Z</time>
      </trkpt>
      <trkpt lon="0.3281745612621307" lat="49.2043151855468750">
        <ele>148.3533172607422</ele>
        <time>2016-09-21T11:17:50.000Z</time>
      </trkpt>
      <trkpt lon="0.3283554315567017" lat="49.2043685913085938">
        <ele>148.54017639160156</ele>
        <time>2016-09-21T11:17:52.000Z</time>
      </trkpt>
      <trkpt lon="0.3286154568195343" lat="49.2044372558593750">
        <ele>148.7328338623047</ele>
        <time>2016-09-21T11:17:55.000Z</time>
      </trkpt>
      <trkpt lon="0.3288980722427368" lat="49.2045249938964844">
        <ele>148.87368774414062</ele>
        <time>2016-09-21T11:17:58.000Z</time>
      </trkpt>
      <trkpt lon="0.3291800618171692" lat="49.2046089172363281">
        <ele>148.97201538085938</ele>
        <time>2016-09-21T11:18:01.000Z</time>
      </trkpt>
      <trkpt lon="0.3294722437858582" lat="49.2046661376953125">
        <ele>149.09152221679688</ele>
        <time>2016-09-21T11:18:04.000Z</time>
      </trkpt>
      <trkpt lon="0.3297635912895203" lat="49.2047462463378906">
        <ele>149.29019165039062</ele>
        <time>2016-09-21T11:18:07.000Z</time>
      </trkpt>
      <trkpt lon="0.3300374448299408" lat="49.2048759460449219">
        <ele>149.61477661132812</ele>
        <time>2016-09-21T11:18:10.000Z</time>
      </trkpt>
      <trkpt lon="0.3303225040435791" lat="49.2049674987792969">
        <ele>149.85061645507812</ele>
        <time>2016-09-21T11:18:13.000Z</time>
      </trkpt>
      <trkpt lon="0.3306157886981964" lat="49.2050704956054688">
        <ele>149.939208984375</ele>
        <time>2016-09-21T11:18:16.000Z</time>
      </trkpt>
      <trkpt lon="0.3309141099452972" lat="49.2051506042480469">
        <ele>149.79188537597656</ele>
        <time>2016-09-21T11:18:19.000Z</time>
      </trkpt>
      <trkpt lon="0.3310980796813965" lat="49.2052040100097656">
        <ele>149.46507263183594</ele>
        <time>2016-09-21T11:18:21.000Z</time>
      </trkpt>
      <trkpt lon="0.3314472734928131" lat="49.2052803039550781">
        <ele>148.8757781982422</ele>
        <time>2016-09-21T11:18:24.000Z</time>
      </trkpt>
      <trkpt lon="0.3317680358886719" lat="49.2053413391113281">
        <ele>148.2511444091797</ele>
        <time>2016-09-21T11:18:27.000Z</time>
      </trkpt>
      <trkpt lon="0.3319745659828186" lat="49.2053909301757812">
        <ele>147.6973419189453</ele>
        <time>2016-09-21T11:18:29.000Z</time>
      </trkpt>
      <trkpt lon="0.3321708738803864" lat="49.2054595947265625">
        <ele>147.21449279785156</ele>
        <time>2016-09-21T11:18:31.000Z</time>
      </trkpt>
      <trkpt lon="0.3325170576572418" lat="49.2055358886718750">
        <ele>146.68228149414062</ele>
        <time>2016-09-21T11:18:34.000Z</time>
      </trkpt>
      <trkpt lon="0.3328606188297272" lat="49.2056274414062500">
        <ele>146.15927124023438</ele>
        <time>2016-09-21T11:18:37.000Z</time>
      </trkpt>
      <trkpt lon="0.3330680727958679" lat="49.2057113647460938">
        <ele>145.66952514648438</ele>
        <time>2016-09-21T11:18:39.000Z</time>
      </trkpt>
      <trkpt lon="0.3333966434001923" lat="49.2058258056640625">
        <ele>145.11923217773438</ele>
        <time>2016-09-21T11:18:42.000Z</time>
      </trkpt>
      <trkpt lon="0.3337677121162415" lat="49.2059288024902344">
        <ele>144.52230834960938</ele>
        <time>2016-09-21T11:18:45.000Z</time>
      </trkpt>
      <trkpt lon="0.3339543044567108" lat="49.2060127258300781">
        <ele>143.9579620361328</ele>
        <time>2016-09-21T11:18:47.000Z</time>
      </trkpt>
      <trkpt lon="0.3342961966991425" lat="49.2061157226562500">
        <ele>143.4412078857422</ele>
        <time>2016-09-21T11:18:50.000Z</time>
      </trkpt>
      <trkpt lon="0.3344908356666565" lat="49.2061767578125000">
        <ele>143.03271484375</ele>
        <time>2016-09-21T11:18:52.000Z</time>
      </trkpt>
      <trkpt lon="0.3348264396190643" lat="49.2062683105468750">
        <ele>142.79531860351562</ele>
        <time>2016-09-21T11:18:55.000Z</time>
      </trkpt>
      <trkpt lon="0.3351031243801117" lat="49.2063903808593750">
        <ele>142.7091522216797</ele>
        <time>2016-09-21T11:18:58.000Z</time>
      </trkpt>
      <trkpt lon="0.3353918790817261" lat="49.2064857482910156">
        <ele>142.78829956054688</ele>
        <time>2016-09-21T11:19:01.000Z</time>
      </trkpt>
      <trkpt lon="0.3355818092823029" lat="49.2065505981445312">
        <ele>143.0081329345703</ele>
        <time>2016-09-21T11:19:03.000Z</time>
      </trkpt>
      <trkpt lon="0.3358468413352966" lat="49.2066497802734375">
        <ele>143.30587768554688</ele>
        <time>2016-09-21T11:19:06.000Z</time>
      </trkpt>
      <trkpt lon="0.3360449969768524" lat="49.2066993713378906">
        <ele>143.645751953125</ele>
        <time>2016-09-21T11:19:08.000Z</time>
      </trkpt>
      <trkpt lon="0.3362357020378113" lat="49.2067604064941406">
        <ele>144.0206756591797</ele>
        <time>2016-09-21T11:19:10.000Z</time>
      </trkpt>
      <trkpt lon="0.3365181684494019" lat="49.2068557739257812">
        <ele>144.37466430664062</ele>
        <time>2016-09-21T11:19:13.000Z</time>
      </trkpt>
      <trkpt lon="0.3367077708244324" lat="49.2069320678710938">
        <ele>144.67343139648438</ele>
        <time>2016-09-21T11:19:15.000Z</time>
      </trkpt>
      <trkpt lon="0.3369699418544769" lat="49.2070198059082031">
        <ele>144.87057495117188</ele>
        <time>2016-09-21T11:19:18.000Z</time>
      </trkpt>
      <trkpt lon="0.3371576964855194" lat="49.2070808410644531">
        <ele>144.99942016601562</ele>
        <time>2016-09-21T11:19:20.000Z</time>
      </trkpt>
      <trkpt lon="0.3374464511871338" lat="49.2071685791015625">
        <ele>145.1134490966797</ele>
        <time>2016-09-21T11:19:23.000Z</time>
      </trkpt>
      <trkpt lon="0.3377414941787720" lat="49.2072486877441406">
        <ele>145.13058471679688</ele>
        <time>2016-09-21T11:19:26.000Z</time>
      </trkpt>
      <trkpt lon="0.3380102217197418" lat="49.2073554992675781">
        <ele>145.1087188720703</ele>
        <time>2016-09-21T11:19:29.000Z</time>
      </trkpt>
      <trkpt lon="0.3381994962692261" lat="49.2074279785156250">
        <ele>145.0894775390625</ele>
        <time>2016-09-21T11:19:31.000Z</time>
      </trkpt>
      <trkpt lon="0.3384501934051514" lat="49.2075233459472656">
        <ele>145.0355987548828</ele>
        <time>2016-09-21T11:19:34.000Z</time>
      </trkpt>
      <trkpt lon="0.3387197554111481" lat="49.2076187133789062">
        <ele>144.9010772705078</ele>
        <time>2016-09-21T11:19:37.000Z</time>
      </trkpt>
      <trkpt lon="0.3390080034732819" lat="49.2077102661132812">
        <ele>144.85818481445312</ele>
        <time>2016-09-21T11:19:40.000Z</time>
      </trkpt>
      <trkpt lon="0.3391900658607483" lat="49.2077713012695312">
        <ele>144.9362335205078</ele>
        <time>2016-09-21T11:19:42.000Z</time>
      </trkpt>
      <trkpt lon="0.3394421935081482" lat="49.2078666687011719">
        <ele>145.20167541503906</ele>
        <time>2016-09-21T11:19:45.000Z</time>
      </trkpt>
      <trkpt lon="0.3395768702030182" lat="49.2079010009765625">
        <ele>145.57162475585938</ele>
        <time>2016-09-21T11:19:47.000Z</time>
      </trkpt>
      <trkpt lon="0.3398584425449371" lat="49.2079963684082031">
        <ele>146.15145874023438</ele>
        <time>2016-09-21T11:19:50.000Z</time>
      </trkpt>
      <trkpt lon="0.3401011824607849" lat="49.2080879211425781">
        <ele>146.85165405273438</ele>
        <time>2016-09-21T11:19:53.000Z</time>
      </trkpt>
      <trkpt lon="0.3403518795967102" lat="49.2081718444824219">
        <ele>147.68447875976562</ele>
        <time>2016-09-21T11:19:56.000Z</time>
      </trkpt>
      <trkpt lon="0.3405228555202484" lat="49.2082252502441406">
        <ele>148.49472045898438</ele>
        <time>2016-09-21T11:19:58.000Z</time>
      </trkpt>
      <trkpt lon="0.3406858146190643" lat="49.2082748413085938">
        <ele>149.3896484375</ele>
        <time>2016-09-21T11:20:00.000Z</time>
      </trkpt>
      <trkpt lon="0.3409262895584106" lat="49.2083625793457031">
        <ele>150.29345703125</ele>
        <time>2016-09-21T11:20:03.000Z</time>
      </trkpt>
      <trkpt lon="0.3411473035812378" lat="49.2084655761718750">
        <ele>151.0613555908203</ele>
        <time>2016-09-21T11:20:06.000Z</time>
      </trkpt>
      <trkpt lon="0.3413891196250916" lat="49.2085571289062500">
        <ele>151.62979125976562</ele>
        <time>2016-09-21T11:20:09.000Z</time>
      </trkpt>
      <trkpt lon="0.3416244983673096" lat="49.2086219787597656">
        <ele>152.03834533691406</ele>
        <time>2016-09-21T11:20:12.000Z</time>
      </trkpt>
      <trkpt lon="0.3418591022491455" lat="49.2087020874023438">
        <ele>152.24562072753906</ele>
        <time>2016-09-21T11:20:15.000Z</time>
      </trkpt>
      <trkpt lon="0.3421087265014648" lat="49.2088088989257812">
        <ele>152.25599670410156</ele>
        <time>2016-09-21T11:20:18.000Z</time>
      </trkpt>
      <trkpt lon="0.3422932028770447" lat="49.2088928222656250">
        <ele>152.241943359375</ele>
        <time>2016-09-21T11:20:20.000Z</time>
      </trkpt>
      <trkpt lon="0.3424910902976990" lat="49.2089424133300781">
        <ele>152.2109375</ele>
        <time>2016-09-21T11:20:23.000Z</time>
      </trkpt>
      <trkpt lon="0.3427159786224365" lat="49.2090377807617188">
        <ele>152.3923797607422</ele>
        <time>2016-09-21T11:20:26.000Z</time>
      </trkpt>
      <trkpt lon="0.3429596424102783" lat="49.2091064453125000">
        <ele>152.83447265625</ele>
        <time>2016-09-21T11:20:29.000Z</time>
      </trkpt>
      <trkpt lon="0.3431164622306824" lat="49.2091484069824219">
        <ele>153.43751525878906</ele>
        <time>2016-09-21T11:20:31.000Z</time>
      </trkpt>
      <trkpt lon="0.3433422148227692" lat="49.2092170715332031">
        <ele>154.28196716308594</ele>
        <time>2016-09-21T11:20:34.000Z</time>
      </trkpt>
      <trkpt lon="0.3435519039630890" lat="49.2092895507812500">
        <ele>155.18765258789062</ele>
        <time>2016-09-21T11:20:37.000Z</time>
      </trkpt>
      <trkpt lon="0.3436844348907471" lat="49.2093276977539062">
        <ele>155.9009246826172</ele>
        <time>2016-09-21T11:20:39.000Z</time>
      </trkpt>
      <trkpt lon="0.3438733518123627" lat="49.2094345092773438">
        <ele>156.50234985351562</ele>
        <time>2016-09-21T11:20:42.000Z</time>
      </trkpt>
      <trkpt lon="0.3441218137741089" lat="49.2095184326171875">
        <ele>156.99639892578125</ele>
        <time>2016-09-21T11:20:45.000Z</time>
      </trkpt>
      <trkpt lon="0.3442721664905548" lat="49.2095680236816406">
        <ele>157.21571350097656</ele>
        <time>2016-09-21T11:20:47.000Z</time>
      </trkpt>
      <trkpt lon="0.3444053530693054" lat="49.2096138000488281">
        <ele>157.3389434814453</ele>
        <time>2016-09-21T11:20:49.000Z</time>
      </trkpt>
      <trkpt lon="0.3445980548858643" lat="49.2096824645996094">
        <ele>157.3809814453125</ele>
        <time>2016-09-21T11:20:52.000Z</time>
      </trkpt>
      <trkpt lon="0.3448075354099274" lat="49.2097282409667969">
        <ele>157.19451904296875</ele>
        <time>2016-09-21T11:20:55.000Z</time>
      </trkpt>
      <trkpt lon="0.3450327515602112" lat="49.2097854614257812">
        <ele>156.8511505126953</ele>
        <time>2016-09-21T11:20:58.000Z</time>
      </trkpt>
      <trkpt lon="0.3452670276165009" lat="49.2098464965820312">
        <ele>156.4468231201172</ele>
        <time>2016-09-21T11:21:01.000Z</time>
      </trkpt>
      <trkpt lon="0.3453817665576935" lat="49.2098960876464844">
        <ele>156.03683471679688</ele>
        <time>2016-09-21T11:21:03.000Z</time>
      </trkpt>
      <trkpt lon="0.3455516695976257" lat="49.2099609375000000">
        <ele>155.6111297607422</ele>
        <time>2016-09-21T11:21:06.000Z</time>
      </trkpt>
      <trkpt lon="0.3457412719726562" lat="49.2100143432617188">
        <ele>155.19796752929688</ele>
        <time>2016-09-21T11:21:09.000Z</time>
      </trkpt>
      <trkpt lon="0.3458646535873413" lat="49.2100677490234375">
        <ele>154.8992462158203</ele>
        <time>2016-09-21T11:21:11.000Z</time>
      </trkpt>
      <trkpt lon="0.3460916280746460" lat="49.2101287841796875">
        <ele>154.72789001464844</ele>
        <time>2016-09-21T11:21:14.000Z</time>
      </trkpt>
      <trkpt lon="0.3462170958518982" lat="49.2101745605468750">
        <ele>154.6182403564453</ele>
        <time>2016-09-21T11:21:16.000Z</time>
      </trkpt>
      <trkpt lon="0.3463432490825653" lat="49.2102203369140625">
        <ele>154.60243225097656</ele>
        <time>2016-09-21T11:21:18.000Z</time>
      </trkpt>
      <trkpt lon="0.3464747667312622" lat="49.2102737426757812">
        <ele>154.6981201171875</ele>
        <time>2016-09-21T11:21:20.000Z</time>
      </trkpt>
      <trkpt lon="0.3466202914714813" lat="49.2103118896484375">
        <ele>154.78152465820312</ele>
        <time>2016-09-21T11:21:22.000Z</time>
      </trkpt>
      <trkpt lon="0.3467496037483215" lat="49.2103614807128906">
        <ele>154.82077026367188</ele>
        <time>2016-09-21T11:21:24.000Z</time>
      </trkpt>
      <trkpt lon="0.3469700515270233" lat="49.2104339599609375">
        <ele>154.84092712402344</ele>
        <time>2016-09-21T11:21:27.000Z</time>
      </trkpt>
      <trkpt lon="0.3470875620841980" lat="49.2104644775390625">
        <ele>154.83984375</ele>
        <time>2016-09-21T11:21:29.000Z</time>
      </trkpt>
      <trkpt lon="0.3472302258014679" lat="49.2105140686035156">
        <ele>154.8261260986328</ele>
        <time>2016-09-21T11:21:31.000Z</time>
      </trkpt>
      <trkpt lon="0.3474189043045044" lat="49.2105827331542969">
        <ele>154.818115234375</ele>
        <time>2016-09-21T11:21:33.000Z</time>
      </trkpt>
      <trkpt lon="0.3475443720817566" lat="49.2106399536132812">
        <ele>154.8184051513672</ele>
        <time>2016-09-21T11:21:35.000Z</time>
      </trkpt>
      <trkpt lon="0.3477474749088287" lat="49.2106971740722656">
        <ele>154.87521362304688</ele>
        <time>2016-09-21T11:21:38.000Z</time>
      </trkpt>
      <trkpt lon="0.3478814065456390" lat="49.2107429504394531">
        <ele>154.97787475585938</ele>
        <time>2016-09-21T11:21:40.000Z</time>
      </trkpt>
      <trkpt lon="0.3480712771415710" lat="49.2108345031738281">
        <ele>155.1521759033203</ele>
        <time>2016-09-21T11:21:43.000Z</time>
      </trkpt>
      <trkpt lon="0.3482874333858490" lat="49.2109184265136719">
        <ele>155.4075927734375</ele>
        <time>2016-09-21T11:21:46.000Z</time>
      </trkpt>
      <trkpt lon="0.3485249876976013" lat="49.2109718322753906">
        <ele>155.7220458984375</ele>
        <time>2016-09-21T11:21:49.000Z</time>
      </trkpt>
      <trkpt lon="0.3486355543136597" lat="49.2110214233398438">
        <ele>156.0133056640625</ele>
        <time>2016-09-21T11:21:51.000Z</time>
      </trkpt>
      <trkpt lon="0.3487649559974670" lat="49.2110633850097656">
        <ele>156.30250549316406</ele>
        <time>2016-09-21T11:21:53.000Z</time>
      </trkpt>
      <trkpt lon="0.3489868342876434" lat="49.2111282348632812">
        <ele>156.59255981445312</ele>
        <time>2016-09-21T11:21:56.000Z</time>
      </trkpt>
      <trkpt lon="0.3491398096084595" lat="49.2111701965332031">
        <ele>156.857666015625</ele>
        <time>2016-09-21T11:21:58.000Z</time>
      </trkpt>
      <trkpt lon="0.3492720723152161" lat="49.2112426757812500">
        <ele>157.0899658203125</ele>
        <time>2016-09-21T11:22:00.000Z</time>
      </trkpt>
      <trkpt lon="0.3494209945201874" lat="49.2112655639648438">
        <ele>157.3052978515625</ele>
        <time>2016-09-21T11:22:02.000Z</time>
      </trkpt>
      <trkpt lon="0.3495580554008484" lat="49.2112960815429688">
        <ele>157.49920654296875</ele>
        <time>2016-09-21T11:22:04.000Z</time>
      </trkpt>
      <trkpt lon="0.3497732877731323" lat="49.2113571166992188">
        <ele>157.65121459960938</ele>
        <time>2016-09-21T11:22:07.000Z</time>
      </trkpt>
      <trkpt lon="0.3500581979751587" lat="49.2114830017089844">
        <ele>157.76611328125</ele>
        <time>2016-09-21T11:22:10.000Z</time>
      </trkpt>
      <trkpt lon="0.3502106666564941" lat="49.2115631103515625">
        <ele>157.8106689453125</ele>
        <time>2016-09-21T11:22:12.000Z</time>
      </trkpt>
      <trkpt lon="0.3504638075828552" lat="49.2116508483886719">
        <ele>157.7682647705078</ele>
        <time>2016-09-21T11:22:15.000Z</time>
      </trkpt>
      <trkpt lon="0.3506224751472473" lat="49.2117042541503906">
        <ele>157.66610717773438</ele>
        <time>2016-09-21T11:22:17.000Z</time>
      </trkpt>
      <trkpt lon="0.3508828878402710" lat="49.2118110656738281">
        <ele>157.4940948486328</ele>
        <time>2016-09-21T11:22:20.000Z</time>
      </trkpt>
      <trkpt lon="0.3511733412742615" lat="49.2119064331054688">
        <ele>157.3397216796875</ele>
        <time>2016-09-21T11:22:23.000Z</time>
      </trkpt>
      <trkpt lon="0.3513519465923309" lat="49.2119712829589844">
        <ele>157.2176055908203</ele>
        <time>2016-09-21T11:22:25.000Z</time>
      </trkpt>
      <trkpt lon="0.3516438901424408" lat="49.2120819091796875">
        <ele>157.12777709960938</ele>
        <time>2016-09-21T11:22:28.000Z</time>
      </trkpt>
      <trkpt lon="0.3519248366355896" lat="49.2121925354003906">
        <ele>156.94065856933594</ele>
        <time>2016-09-21T11:22:31.000Z</time>
      </trkpt>
      <trkpt lon="0.3521019518375397" lat="49.2122497558593750">
        <ele>156.71792602539062</ele>
        <time>2016-09-21T11:22:33.000Z</time>
      </trkpt>
      <trkpt lon="0.3523925542831421" lat="49.2123374938964844">
        <ele>156.35305786132812</ele>
        <time>2016-09-21T11:22:36.000Z</time>
      </trkpt>
      <trkpt lon="0.3527062833309174" lat="49.2124290466308594">
        <ele>155.89071655273438</ele>
        <time>2016-09-21T11:22:39.000Z</time>
      </trkpt>
      <trkpt lon="0.3530176877975464" lat="49.2125244140625000">
        <ele>155.35946655273438</ele>
        <time>2016-09-21T11:22:42.000Z</time>
      </trkpt>
      <trkpt lon="0.3532142341136932" lat="49.2125968933105469">
        <ele>154.901123046875</ele>
        <time>2016-09-21T11:22:44.000Z</time>
      </trkpt>
      <trkpt lon="0.3534184992313385" lat="49.2126655578613281">
        <ele>154.5292510986328</ele>
        <time>2016-09-21T11:22:46.000Z</time>
      </trkpt>
      <trkpt lon="0.3536937534809113" lat="49.2127647399902344">
        <ele>154.4004669189453</ele>
        <time>2016-09-21T11:22:49.000Z</time>
      </trkpt>
      <trkpt lon="0.3539881408214569" lat="49.2128791809082031">
        <ele>154.46717834472656</ele>
        <time>2016-09-21T11:22:52.000Z</time>
      </trkpt>
      <trkpt lon="0.3542835116386414" lat="49.2129821777343750">
        <ele>154.65158081054688</ele>
        <time>2016-09-21T11:22:55.000Z</time>
      </trkpt>
      <trkpt lon="0.3545859456062317" lat="49.2130661010742188">
        <ele>154.83920288085938</ele>
        <time>2016-09-21T11:22:58.000Z</time>
      </trkpt>
      <trkpt lon="0.3548651337623596" lat="49.2131576538085938">
        <ele>154.9514923095703</ele>
        <time>2016-09-21T11:23:01.000Z</time>
      </trkpt>
      <trkpt lon="0.3551454246044159" lat="49.2132492065429688">
        <ele>154.8991241455078</ele>
        <time>2016-09-21T11:23:04.000Z</time>
      </trkpt>
      <trkpt lon="0.3554254770278931" lat="49.2133407592773438">
        <ele>154.7600860595703</ele>
        <time>2016-09-21T11:23:07.000Z</time>
      </trkpt>
      <trkpt lon="0.3556727468967438" lat="49.2134208679199219">
        <ele>154.62982177734375</ele>
        <time>2016-09-21T11:23:10.000Z</time>
      </trkpt>
      <trkpt lon="0.3559510111808777" lat="49.2135124206542969">
        <ele>154.55072021484375</ele>
        <time>2016-09-21T11:23:13.000Z</time>
      </trkpt>
      <trkpt lon="0.3561290502548218" lat="49.2135848999023438">
        <ele>154.50384521484375</ele>
        <time>2016-09-21T11:23:15.000Z</time>
      </trkpt>
      <trkpt lon="0.3563969433307648" lat="49.2136917114257812">
        <ele>154.44284057617188</ele>
        <time>2016-09-21T11:23:18.000Z</time>
      </trkpt>
      <trkpt lon="0.3565779030323029" lat="49.2137641906738281">
        <ele>154.33653259277344</ele>
        <time>2016-09-21T11:23:20.000Z</time>
      </trkpt>
      <trkpt lon="0.3568565845489502" lat="49.2138633728027344">
        <ele>154.2037811279297</ele>
        <time>2016-09-21T11:23:23.000Z</time>
      </trkpt>
      <trkpt lon="0.3571185171604156" lat="49.2139472961425781">
        <ele>154.10324096679688</ele>
        <time>2016-09-21T11:23:26.000Z</time>
      </trkpt>
      <trkpt lon="0.3573055267333984" lat="49.2140083312988281">
        <ele>154.05343627929688</ele>
        <time>2016-09-21T11:23:28.000Z</time>
      </trkpt>
      <trkpt lon="0.3575633466243744" lat="49.2141075134277344">
        <ele>154.05422973632812</ele>
        <time>2016-09-21T11:23:31.000Z</time>
      </trkpt>
      <trkpt lon="0.3577512800693512" lat="49.2141876220703125">
        <ele>154.0511016845703</ele>
        <time>2016-09-21T11:23:33.000Z</time>
      </trkpt>
      <trkpt lon="0.3579269647598267" lat="49.2142257690429688">
        <ele>154.0316925048828</ele>
        <time>2016-09-21T11:23:35.000Z</time>
      </trkpt>
      <trkpt lon="0.3582055866718292" lat="49.2143402099609375">
        <ele>153.9357452392578</ele>
        <time>2016-09-21T11:23:38.000Z</time>
      </trkpt>
      <trkpt lon="0.3585053980350494" lat="49.2144279479980469">
        <ele>153.73995971679688</ele>
        <time>2016-09-21T11:23:41.000Z</time>
      </trkpt>
      <trkpt lon="0.3587087392807007" lat="49.2145118713378906">
        <ele>153.4564971923828</ele>
        <time>2016-09-21T11:23:43.000Z</time>
      </trkpt>
      <trkpt lon="0.3589980900287628" lat="49.2146148681640625">
        <ele>153.0918731689453</ele>
        <time>2016-09-21T11:23:46.000Z</time>
      </trkpt>
      <trkpt lon="0.3593012690544128" lat="49.2147026062011719">
        <ele>152.67251586914062</ele>
        <time>2016-09-21T11:23:49.000Z</time>
      </trkpt>
      <trkpt lon="0.3596070408821106" lat="49.2148056030273438">
        <ele>152.30465698242188</ele>
        <time>2016-09-21T11:23:52.000Z</time>
      </trkpt>
      <trkpt lon="0.3598261475563049" lat="49.2148780822753906">
        <ele>152.0424041748047</ele>
        <time>2016-09-21T11:23:54.000Z</time>
      </trkpt>
      <trkpt lon="0.3601220250129700" lat="49.2149772644042969">
        <ele>151.8973388671875</ele>
        <time>2016-09-21T11:23:57.000Z</time>
      </trkpt>
      <trkpt lon="0.3603260219097137" lat="49.2150497436523438">
        <ele>151.8430938720703</ele>
        <time>2016-09-21T11:23:59.000Z</time>
      </trkpt>
      <trkpt lon="0.3606415987014771" lat="49.2151565551757812">
        <ele>151.7861785888672</ele>
        <time>2016-09-21T11:24:02.000Z</time>
      </trkpt>
      <trkpt lon="0.3608525693416595" lat="49.2152175903320312">
        <ele>151.67396545410156</ele>
        <time>2016-09-21T11:24:04.000Z</time>
      </trkpt>
      <trkpt lon="0.3611516356468201" lat="49.2153205871582031">
        <ele>151.36734008789062</ele>
        <time>2016-09-21T11:24:07.000Z</time>
      </trkpt>
      <trkpt lon="0.3613609373569489" lat="49.2153854370117188">
        <ele>150.90505981445312</ele>
        <time>2016-09-21T11:24:09.000Z</time>
      </trkpt>
      <trkpt lon="0.3615733385086060" lat="49.2154808044433594">
        <ele>150.30657958984375</ele>
        <time>2016-09-21T11:24:11.000Z</time>
      </trkpt>
      <trkpt lon="0.3618858158588409" lat="49.2155723571777344">
        <ele>149.62879943847656</ele>
        <time>2016-09-21T11:24:14.000Z</time>
      </trkpt>
      <trkpt lon="0.3621144890785217" lat="49.2156333923339844">
        <ele>148.9322052001953</ele>
        <time>2016-09-21T11:24:16.000Z</time>
      </trkpt>
      <trkpt lon="0.3624525070190430" lat="49.2157402038574219">
        <ele>148.3160858154297</ele>
        <time>2016-09-21T11:24:19.000Z</time>
      </trkpt>
      <trkpt lon="0.3626755774021149" lat="49.2158126831054688">
        <ele>147.78741455078125</ele>
        <time>2016-09-21T11:24:21.000Z</time>
      </trkpt>
      <trkpt lon="0.3629757165908813" lat="49.2159042358398438">
        <ele>147.4153289794922</ele>
        <time>2016-09-21T11:24:24.000Z</time>
      </trkpt>
      <trkpt lon="0.3633054494857788" lat="49.2160186767578125">
        <ele>147.19752502441406</ele>
        <time>2016-09-21T11:24:27.000Z</time>
      </trkpt>
      <trkpt lon="0.3636223077774048" lat="49.2161598205566406">
        <ele>147.05697631835938</ele>
        <time>2016-09-21T11:24:30.000Z</time>
      </trkpt>
      <trkpt lon="0.3639641106128693" lat="49.2163352966308594">
        <ele>147.0090789794922</ele>
        <time>2016-09-21T11:24:33.000Z</time>
      </trkpt>
      <trkpt lon="0.3642634451389313" lat="49.2165031433105469">
        <ele>147.0</ele>
        <time>2016-09-21T11:24:36.000Z</time>
      </trkpt>
      <trkpt lon="0.3645565509796143" lat="49.2166976928710938">
        <ele>146.9921875</ele>
        <time>2016-09-21T11:24:39.000Z</time>
      </trkpt>
      <trkpt lon="0.3648559451103210" lat="49.2168960571289062">
        <ele>146.9375</ele>
        <time>2016-09-21T11:24:42.000Z</time>
      </trkpt>
      <trkpt lon="0.3651306927204132" lat="49.2171020507812500">
        <ele>146.84658813476562</ele>
        <time>2016-09-21T11:24:45.000Z</time>
      </trkpt>
      <trkpt lon="0.3654006123542786" lat="49.2172775268554688">
        <ele>146.68112182617188</ele>
        <time>2016-09-21T11:24:48.000Z</time>
      </trkpt>
      <trkpt lon="0.3657152652740479" lat="49.2174606323242188">
        <ele>146.3436737060547</ele>
        <time>2016-09-21T11:24:51.000Z</time>
      </trkpt>
      <trkpt lon="0.3659355342388153" lat="49.2175788879394531">
        <ele>145.94918823242188</ele>
        <time>2016-09-21T11:24:53.000Z</time>
      </trkpt>
      <trkpt lon="0.3661154210567474" lat="49.2177047729492188">
        <ele>145.5872802734375</ele>
        <time>2016-09-21T11:24:55.000Z</time>
      </trkpt>
      <trkpt lon="0.3664520382881165" lat="49.2179183959960938">
        <ele>145.203369140625</ele>
        <time>2016-09-21T11:24:58.000Z</time>
      </trkpt>
      <trkpt lon="0.3666740655899048" lat="49.2180557250976562">
        <ele>144.83641052246094</ele>
        <time>2016-09-21T11:25:00.000Z</time>
      </trkpt>
      <trkpt lon="0.3668815195560455" lat="49.2181968688964844">
        <ele>144.61514282226562</ele>
        <time>2016-09-21T11:25:02.000Z</time>
      </trkpt>
      <trkpt lon="0.3671535849571228" lat="49.2184104919433594">
        <ele>144.3684844970703</ele>
        <time>2016-09-21T11:25:05.000Z</time>
      </trkpt>
      <trkpt lon="0.3673453032970428" lat="49.2185516357421875">
        <ele>144.03829956054688</ele>
        <time>2016-09-21T11:25:07.000Z</time>
      </trkpt>
      <trkpt lon="0.3675201237201691" lat="49.2187118530273438">
        <ele>143.65219116210938</ele>
        <time>2016-09-21T11:25:09.000Z</time>
      </trkpt>
      <trkpt lon="0.3677222132682800" lat="49.2189636230468750">
        <ele>143.22499084472656</ele>
        <time>2016-09-21T11:25:12.000Z</time>
      </trkpt>
      <trkpt lon="0.3678901195526123" lat="49.2192726135253906">
        <ele>142.62892150878906</ele>
        <time>2016-09-21T11:25:15.000Z</time>
      </trkpt>
      <trkpt lon="0.3680015802383423" lat="49.2194480895996094">
        <ele>142.04847717285156</ele>
        <time>2016-09-21T11:25:17.000Z</time>
      </trkpt>
      <trkpt lon="0.3681719005107880" lat="49.2197265625000000">
        <ele>141.40542602539062</ele>
        <time>2016-09-21T11:25:20.000Z</time>
      </trkpt>
      <trkpt lon="0.3683827221393585" lat="49.2200164794921875">
        <ele>140.693115234375</ele>
        <time>2016-09-21T11:25:23.000Z</time>
      </trkpt>
      <trkpt lon="0.3684890866279602" lat="49.2201919555664062">
        <ele>140.14759826660156</ele>
        <time>2016-09-21T11:25:25.000Z</time>
      </trkpt>
      <trkpt lon="0.3686279654502869" lat="49.2203598022460938">
        <ele>139.83853149414062</ele>
        <time>2016-09-21T11:25:27.000Z</time>
      </trkpt>
      <trkpt lon="0.3688816130161285" lat="49.2206115722656250">
        <ele>139.58770751953125</ele>
        <time>2016-09-21T11:25:30.000Z</time>
      </trkpt>
      <trkpt lon="0.3691651821136475" lat="49.2208137512207031">
        <ele>139.38760375976562</ele>
        <time>2016-09-21T11:25:33.000Z</time>
      </trkpt>
      <trkpt lon="0.3693559467792511" lat="49.2209091186523438">
        <ele>139.44918823242188</ele>
        <time>2016-09-21T11:25:35.000Z</time>
      </trkpt>
      <trkpt lon="0.3695643842220306" lat="49.2210273742675781">
        <ele>139.4802703857422</ele>
        <time>2016-09-21T11:25:37.000Z</time>
      </trkpt>
      <trkpt lon="0.3698549270629883" lat="49.2212181091308594">
        <ele>139.38414001464844</ele>
        <time>2016-09-21T11:25:40.000Z</time>
      </trkpt>
      <trkpt lon="0.3700869381427765" lat="49.2213897705078125">
        <ele>139.10806274414062</ele>
        <time>2016-09-21T11:25:42.000Z</time>
      </trkpt>
      <trkpt lon="0.3704137504100800" lat="49.2216644287109375">
        <ele>138.405517578125</ele>
        <time>2016-09-21T11:25:45.000Z</time>
      </trkpt>
      <trkpt lon="0.3707823753356934" lat="49.2219429016113281">
        <ele>137.1200408935547</ele>
        <time>2016-09-21T11:25:48.000Z</time>
      </trkpt>
      <trkpt lon="0.3710492551326752" lat="49.2221984863281250">
        <ele>135.48568725585938</ele>
        <time>2016-09-21T11:25:51.000Z</time>
      </trkpt>
      <trkpt lon="0.3711355924606323" lat="49.2223739624023438">
        <ele>133.72515869140625</ele>
        <time>2016-09-21T11:25:53.000Z</time>
      </trkpt>
      <trkpt lon="0.3713428676128387" lat="49.2227935791015625">
        <ele>131.78219604492188</ele>
        <time>2016-09-21T11:25:57.000Z</time>
      </trkpt>
      <trkpt lon="0.3715387582778931" lat="49.2231521606445312">
        <ele>129.78187561035156</ele>
        <time>2016-09-21T11:26:00.000Z</time>
      </trkpt>
      <trkpt lon="0.3716582059860229" lat="49.2233581542968750">
        <ele>127.81585693359375</ele>
        <time>2016-09-21T11:26:02.000Z</time>
      </trkpt>
      <trkpt lon="0.3717782199382782" lat="49.2236404418945312">
        <ele>126.3808364868164</ele>
        <time>2016-09-21T11:26:05.000Z</time>
      </trkpt>
      <trkpt lon="0.3718954026699066" lat="49.2239265441894531">
        <ele>125.21208190917969</ele>
        <time>2016-09-21T11:26:08.000Z</time>
      </trkpt>
      <trkpt lon="0.3719921410083771" lat="49.2241477966308594">
        <ele>124.32450103759766</ele>
        <time>2016-09-21T11:26:10.000Z</time>
      </trkpt>
      <trkpt lon="0.3720703423023224" lat="49.2243537902832031">
        <ele>123.82173156738281</ele>
        <time>2016-09-21T11:26:12.000Z</time>
      </trkpt>
      <trkpt lon="0.3721981644630432" lat="49.2246360778808594">
        <ele>123.44879150390625</ele>
        <time>2016-09-21T11:26:15.000Z</time>
      </trkpt>
      <trkpt lon="0.3723320066928864" lat="49.2249794006347656">
        <ele>122.4478530883789</ele>
        <time>2016-09-21T11:26:18.000Z</time>
      </trkpt>
      <trkpt lon="0.3724589943885803" lat="49.2252578735351562">
        <ele>121.15579986572266</ele>
        <time>2016-09-21T11:26:21.000Z</time>
      </trkpt>
      <trkpt lon="0.3725936114788055" lat="49.2255706787109375">
        <ele>119.8710708618164</ele>
        <time>2016-09-21T11:26:24.000Z</time>
      </trkpt>
      <trkpt lon="0.3726797699928284" lat="49.2257804870605469">
        <ele>118.7384262084961</ele>
        <time>2016-09-21T11:26:26.000Z</time>
      </trkpt>
      <trkpt lon="0.3728069365024567" lat="49.2260818481445312">
        <ele>117.8916244506836</ele>
        <time>2016-09-21T11:26:29.000Z</time>
      </trkpt>
      <trkpt lon="0.3728720545768738" lat="49.2262611389160156">
        <ele>117.36384582519531</ele>
        <time>2016-09-21T11:26:31.000Z</time>
      </trkpt>
      <trkpt lon="0.3729538023471832" lat="49.2264633178710938">
        <ele>116.89691162109375</ele>
        <time>2016-09-21T11:26:33.000Z</time>
      </trkpt>
      <trkpt lon="0.3730749189853668" lat="49.2267723083496094">
        <ele>116.234619140625</ele>
        <time>2016-09-21T11:26:36.000Z</time>
      </trkpt>
      <trkpt lon="0.3731416165828705" lat="49.2269821166992188">
        <ele>115.55445861816406</ele>
        <time>2016-09-21T11:26:38.000Z</time>
      </trkpt>
      <trkpt lon="0.3733053207397461" lat="49.2272796630859375">
        <ele>114.60417175292969</ele>
        <time>2016-09-21T11:26:41.000Z</time>
      </trkpt>
      <trkpt lon="0.3734629154205322" lat="49.2275199890136719">
        <ele>113.7699203491211</ele>
        <time>2016-09-21T11:26:44.000Z</time>
      </trkpt>
      <trkpt lon="0.3735315501689911" lat="49.2278442382812500">
        <ele>113.60136413574219</ele>
        <time>2016-09-21T11:26:47.000Z</time>
      </trkpt>
      <trkpt lon="0.3736482262611389" lat="49.2279891967773438">
        <ele>113.76780700683594</ele>
        <time>2016-09-21T11:26:49.000Z</time>
      </trkpt>
      <trkpt lon="0.3737904727458954" lat="49.2281608581542969">
        <ele>113.89225769042969</ele>
        <time>2016-09-21T11:26:51.000Z</time>
      </trkpt>
      <trkpt lon="0.3740289211273193" lat="49.2283897399902344">
        <ele>113.88570404052734</ele>
        <time>2016-09-21T11:26:54.000Z</time>
      </trkpt>
      <trkpt lon="0.3742119073867798" lat="49.2286758422851562">
        <ele>113.9422836303711</ele>
        <time>2016-09-21T11:26:57.000Z</time>
      </trkpt>
      <trkpt lon="0.3743239045143127" lat="49.2288551330566406">
        <ele>113.67268371582031</ele>
        <time>2016-09-21T11:26:59.000Z</time>
      </trkpt>
      <trkpt lon="0.3745414912700653" lat="49.2290611267089844">
        <ele>113.25691223144531</ele>
        <time>2016-09-21T11:27:02.000Z</time>
      </trkpt>
      <trkpt lon="0.3747512102127075" lat="49.2293052673339844">
        <ele>112.77752685546875</ele>
        <time>2016-09-21T11:27:05.000Z</time>
      </trkpt>
      <trkpt lon="0.3749180138111115" lat="49.2294921875000000">
        <ele>112.55517578125</ele>
        <time>2016-09-21T11:27:07.000Z</time>
      </trkpt>
      <trkpt lon="0.3750687241554260" lat="49.2296409606933594">
        <ele>112.07242584228516</ele>
        <time>2016-09-21T11:27:09.000Z</time>
      </trkpt>
      <trkpt lon="0.3752673566341400" lat="49.2298965454101562">
        <ele>111.2345962524414</ele>
        <time>2016-09-21T11:27:12.000Z</time>
      </trkpt>
      <trkpt lon="0.3753805160522461" lat="49.2300567626953125">
        <ele>110.4786376953125</ele>
        <time>2016-09-21T11:27:14.000Z</time>
      </trkpt>
      <trkpt lon="0.3755303919315338" lat="49.2302246093750000">
        <ele>110.0997543334961</ele>
        <time>2016-09-21T11:27:16.000Z</time>
      </trkpt>
      <trkpt lon="0.3757485747337341" lat="49.2304687500000000">
        <ele>110.02970123291016</ele>
        <time>2016-09-21T11:27:19.000Z</time>
      </trkpt>
      <trkpt lon="0.3759553432464600" lat="49.2307014465332031">
        <ele>110.17315673828125</ele>
        <time>2016-09-21T11:27:22.000Z</time>
      </trkpt>
      <trkpt lon="0.3760714232921600" lat="49.2308197021484375">
        <ele>110.44471740722656</ele>
        <time>2016-09-21T11:27:24.000Z</time>
      </trkpt>
      <trkpt lon="0.3763700127601624" lat="49.2311439514160156">
        <ele>110.49436950683594</ele>
        <time>2016-09-21T11:27:28.000Z</time>
      </trkpt>
      <trkpt lon="0.3765171766281128" lat="49.2313079833984375">
        <ele>110.17440032958984</ele>
        <time>2016-09-21T11:27:30.000Z</time>
      </trkpt>
      <trkpt lon="0.3766346275806427" lat="49.2314338684082031">
        <ele>109.5714111328125</ele>
        <time>2016-09-21T11:27:32.000Z</time>
      </trkpt>
      <trkpt lon="0.3767219483852386" lat="49.2316093444824219">
        <ele>109.00590515136719</ele>
        <time>2016-09-21T11:27:34.000Z</time>
      </trkpt>
      <trkpt lon="0.3769318461418152" lat="49.2318267822265625">
        <ele>108.4594955444336</ele>
        <time>2016-09-21T11:27:37.000Z</time>
      </trkpt>
      <trkpt lon="0.3771434128284454" lat="49.2320480346679688">
        <ele>108.00175476074219</ele>
        <time>2016-09-21T11:27:40.000Z</time>
      </trkpt>
      <trkpt lon="0.3772687911987305" lat="49.2321777343750000">
        <ele>107.5782470703125</ele>
        <time>2016-09-21T11:27:42.000Z</time>
      </trkpt>
      <trkpt lon="0.3774739801883698" lat="49.2324066162109375">
        <ele>107.02767181396484</ele>
        <time>2016-09-21T11:27:45.000Z</time>
      </trkpt>
      <trkpt lon="0.3776561319828033" lat="49.2326240539550781">
        <ele>106.10135650634766</ele>
        <time>2016-09-21T11:27:48.000Z</time>
      </trkpt>
      <trkpt lon="0.3777732849121094" lat="49.2328567504882812">
        <ele>105.0052261352539</ele>
        <time>2016-09-21T11:27:51.000Z</time>
      </trkpt>
      <trkpt lon="0.3779125213623047" lat="49.2330856323242188">
        <ele>103.7618408203125</ele>
        <time>2016-09-21T11:27:54.000Z</time>
      </trkpt>
      <trkpt lon="0.3780938982963562" lat="49.2333259582519531">
        <ele>102.222900390625</ele>
        <time>2016-09-21T11:27:57.000Z</time>
      </trkpt>
      <trkpt lon="0.3782232403755188" lat="49.2335891723632812">
        <ele>100.64035034179688</ele>
        <time>2016-09-21T11:28:00.000Z</time>
      </trkpt>
      <trkpt lon="0.3783613741397858" lat="49.2337684631347656">
        <ele>99.10404968261719</ele>
        <time>2016-09-21T11:28:02.000Z</time>
      </trkpt>
      <trkpt lon="0.3784269094467163" lat="49.2339477539062500">
        <ele>97.72712707519531</ele>
        <time>2016-09-21T11:28:04.000Z</time>
      </trkpt>
      <trkpt lon="0.3785193860530853" lat="49.2342376708984375">
        <ele>96.52237701416016</ele>
        <time>2016-09-21T11:28:07.000Z</time>
      </trkpt>
      <trkpt lon="0.3785279095172882" lat="49.2344322204589844">
        <ele>95.69647216796875</ele>
        <time>2016-09-21T11:28:09.000Z</time>
      </trkpt>
      <trkpt lon="0.3784962296485901" lat="49.2347106933593750">
        <ele>95.17826843261719</ele>
        <time>2016-09-21T11:28:12.000Z</time>
      </trkpt>
      <trkpt lon="0.3785526454448700" lat="49.2349090576171875">
        <ele>94.80707550048828</ele>
        <time>2016-09-21T11:28:14.000Z</time>
      </trkpt>
      <trkpt lon="0.3786412477493286" lat="49.2350845336914062">
        <ele>94.48624420166016</ele>
        <time>2016-09-21T11:28:16.000Z</time>
      </trkpt>
      <trkpt lon="0.3788573443889618" lat="49.2353286743164062">
        <ele>94.28132629394531</ele>
        <time>2016-09-21T11:28:19.000Z</time>
      </trkpt>
      <trkpt lon="0.3790444135665894" lat="49.2354736328125000">
        <ele>93.95987701416016</ele>
        <time>2016-09-21T11:28:21.000Z</time>
      </trkpt>
      <trkpt lon="0.3792931139469147" lat="49.2357025146484375">
        <ele>93.49681091308594</ele>
        <time>2016-09-21T11:28:24.000Z</time>
      </trkpt>
      <trkpt lon="0.3795621693134308" lat="49.2359542846679688">
        <ele>93.07353973388672</ele>
        <time>2016-09-21T11:28:27.000Z</time>
      </trkpt>
      <trkpt lon="0.3796982169151306" lat="49.2361183166503906">
        <ele>92.64434051513672</ele>
        <time>2016-09-21T11:28:29.000Z</time>
      </trkpt>
      <trkpt lon="0.3797838687896729" lat="49.2362899780273438">
        <ele>92.24870300292969</ele>
        <time>2016-09-21T11:28:31.000Z</time>
      </trkpt>
      <trkpt lon="0.3799191415309906" lat="49.2365455627441406">
        <ele>92.03636932373047</ele>
        <time>2016-09-21T11:28:34.000Z</time>
      </trkpt>
      <trkpt lon="0.3799646496772766" lat="49.2366943359375000">
        <ele>92.0065689086914</ele>
        <time>2016-09-21T11:28:36.000Z</time>
      </trkpt>
      <trkpt lon="0.3800495862960815" lat="49.2368202209472656">
        <ele>91.88719177246094</ele>
        <time>2016-09-21T11:28:38.000Z</time>
      </trkpt>
      <trkpt lon="0.3801580369472504" lat="49.2369537353515625">
        <ele>91.59452819824219</ele>
        <time>2016-09-21T11:28:40.000Z</time>
      </trkpt>
      <trkpt lon="0.3802305459976196" lat="49.2371139526367188">
        <ele>91.12904357910156</ele>
        <time>2016-09-21T11:28:42.000Z</time>
      </trkpt>
      <trkpt lon="0.3803353011608124" lat="49.2373924255371094">
        <ele>90.43194580078125</ele>
        <time>2016-09-21T11:28:45.000Z</time>
      </trkpt>
      <trkpt lon="0.3804009556770325" lat="49.2375450134277344">
        <ele>89.60488891601562</ele>
        <time>2016-09-21T11:28:47.000Z</time>
      </trkpt>
      <trkpt lon="0.3804842531681061" lat="49.2378120422363281">
        <ele>88.72073364257812</ele>
        <time>2016-09-21T11:28:50.000Z</time>
      </trkpt>
      <trkpt lon="0.3806540668010712" lat="49.2380676269531250">
        <ele>87.73419952392578</ele>
        <time>2016-09-21T11:28:53.000Z</time>
      </trkpt>
      <trkpt lon="0.3806628882884979" lat="49.2382850646972656">
        <ele>86.7823257446289</ele>
        <time>2016-09-21T11:28:56.000Z</time>
      </trkpt>
      <trkpt lon="0.3805743753910065" lat="49.2384262084960938">
        <ele>86.11377716064453</ele>
        <time>2016-09-21T11:28:58.000Z</time>
      </trkpt>
      <trkpt lon="0.3805319368839264" lat="49.2386589050292969">
        <ele>85.60284423828125</ele>
        <time>2016-09-21T11:29:01.000Z</time>
      </trkpt>
      <trkpt lon="0.3805219829082489" lat="49.2388267517089844">
        <ele>85.3027114868164</ele>
        <time>2016-09-21T11:29:03.000Z</time>
      </trkpt>
      <trkpt lon="0.3805198669433594" lat="49.2389831542968750">
        <ele>85.28501892089844</ele>
        <time>2016-09-21T11:29:05.000Z</time>
      </trkpt>
      <trkpt lon="0.3805091381072998" lat="49.2392311096191406">
        <ele>85.31599426269531</ele>
        <time>2016-09-21T11:29:08.000Z</time>
      </trkpt>
      <trkpt lon="0.3805174529552460" lat="49.2394027709960938">
        <ele>85.11355590820312</ele>
        <time>2016-09-21T11:29:10.000Z</time>
      </trkpt>
      <trkpt lon="0.3803414404392242" lat="49.2396087646484375">
        <ele>84.72549438476562</ele>
        <time>2016-09-21T11:29:13.000Z</time>
      </trkpt>
      <trkpt lon="0.3804445266723633" lat="49.2400779724121094">
        <ele>83.8768081665039</ele>
        <time>2016-09-21T11:29:17.000Z</time>
      </trkpt>
      <trkpt lon="0.3803960680961609" lat="49.2402496337890625">
        <ele>82.92032623291016</ele>
        <time>2016-09-21T11:29:19.000Z</time>
      </trkpt>
      <trkpt lon="0.3804664015769958" lat="49.2405357360839844">
        <ele>81.80519104003906</ele>
        <time>2016-09-21T11:29:22.000Z</time>
      </trkpt>
      <trkpt lon="0.3804361522197723" lat="49.2407112121582031">
        <ele>80.74129486083984</ele>
        <time>2016-09-21T11:29:24.000Z</time>
      </trkpt>
      <trkpt lon="0.3804087340831757" lat="49.2409934997558594">
        <ele>79.6319808959961</ele>
        <time>2016-09-21T11:29:27.000Z</time>
      </trkpt>
      <trkpt lon="0.3803473114967346" lat="49.2413139343261719">
        <ele>78.76761627197266</ele>
        <time>2016-09-21T11:29:30.000Z</time>
      </trkpt>
      <trkpt lon="0.3803408443927765" lat="49.2415122985839844">
        <ele>77.87267303466797</ele>
        <time>2016-09-21T11:29:32.000Z</time>
      </trkpt>
      <trkpt lon="0.3803436160087585" lat="49.2417106628417969">
        <ele>77.03397369384766</ele>
        <time>2016-09-21T11:29:34.000Z</time>
      </trkpt>
      <trkpt lon="0.3802814185619354" lat="49.2419929504394531">
        <ele>75.99201202392578</ele>
        <time>2016-09-21T11:29:37.000Z</time>
      </trkpt>
      <trkpt lon="0.3802934885025024" lat="49.2422027587890625">
        <ele>74.89173889160156</ele>
        <time>2016-09-21T11:29:39.000Z</time>
      </trkpt>
      <trkpt lon="0.3802897036075592" lat="49.2424964904785156">
        <ele>73.65458679199219</ele>
        <time>2016-09-21T11:29:42.000Z</time>
      </trkpt>
      <trkpt lon="0.3802721202373505" lat="49.2428054809570312">
        <ele>72.46232604980469</ele>
        <time>2016-09-21T11:29:45.000Z</time>
      </trkpt>
      <trkpt lon="0.3802395164966583" lat="49.2431297302246094">
        <ele>71.34590148925781</ele>
        <time>2016-09-21T11:29:48.000Z</time>
      </trkpt>
      <trkpt lon="0.3802100718021393" lat="49.2434349060058594">
        <ele>70.50321960449219</ele>
        <time>2016-09-21T11:29:51.000Z</time>
      </trkpt>
      <trkpt lon="0.3801719546318054" lat="49.2437400817871094">
        <ele>69.93565368652344</ele>
        <time>2016-09-21T11:29:54.000Z</time>
      </trkpt>
      <trkpt lon="0.3801487386226654" lat="49.2439956665039062">
        <ele>69.7298812866211</ele>
        <time>2016-09-21T11:29:57.000Z</time>
      </trkpt>
      <trkpt lon="0.3801680803298950" lat="49.2442054748535156">
        <ele>69.5988540649414</ele>
        <time>2016-09-21T11:29:59.000Z</time>
      </trkpt>
      <trkpt lon="0.3802408576011658" lat="49.2444152832031250">
        <ele>69.46769714355469</ele>
        <time>2016-09-21T11:30:01.000Z</time>
      </trkpt>
      <trkpt lon="0.3802380859851837" lat="49.2446479797363281">
        <ele>69.32188415527344</ele>
        <time>2016-09-21T11:30:03.000Z</time>
      </trkpt>
      <trkpt lon="0.3801906406879425" lat="49.2448921203613281">
        <ele>69.08380126953125</ele>
        <time>2016-09-21T11:30:06.000Z</time>
      </trkpt>
      <trkpt lon="0.3801727890968323" lat="49.2451515197753906">
        <ele>68.7966537475586</ele>
        <time>2016-09-21T11:30:09.000Z</time>
      </trkpt>
      <trkpt lon="0.3801461458206177" lat="49.2453498840332031">
        <ele>68.52549743652344</ele>
        <time>2016-09-21T11:30:11.000Z</time>
      </trkpt>
      <trkpt lon="0.3800957500934601" lat="49.2455787658691406">
        <ele>68.33223724365234</ele>
        <time>2016-09-21T11:30:14.000Z</time>
      </trkpt>
      <trkpt lon="0.3800660073757172" lat="49.2458000183105469">
        <ele>68.19473266601562</ele>
        <time>2016-09-21T11:30:17.000Z</time>
      </trkpt>
      <trkpt lon="0.3800519108772278" lat="49.2460060119628906">
        <ele>68.4122314453125</ele>
        <time>2016-09-21T11:30:20.000Z</time>
      </trkpt>
      <trkpt lon="0.3800427913665771" lat="49.2461624145507812">
        <ele>68.91654205322266</ele>
        <time>2016-09-21T11:30:23.000Z</time>
      </trkpt>
      <trkpt lon="0.3800334036350250" lat="49.2462425231933594">
        <ele>69.54057312011719</ele>
        <time>2016-09-21T11:30:25.000Z</time>
      </trkpt>
      <trkpt lon="0.3800832629203796" lat="49.2462615966796875">
        <ele>70.30651092529297</ele>
        <time>2016-09-21T11:30:27.000Z</time>
      </trkpt>
      <trkpt lon="0.3800603747367859" lat="49.2463378906250000">
        <ele>71.1633529663086</ele>
        <time>2016-09-21T11:30:30.000Z</time>
      </trkpt>
      <trkpt lon="0.3799738883972168" lat="49.2463989257812500">
        <ele>71.66191101074219</ele>
        <time>2016-09-21T11:30:32.000Z</time>
      </trkpt>
      <trkpt lon="0.3798907399177551" lat="49.2464561462402344">
        <ele>71.92762756347656</ele>
        <time>2016-09-21T11:30:34.000Z</time>
      </trkpt>
      <trkpt lon="0.3796939253807068" lat="49.2465629577636719">
        <ele>72.05125427246094</ele>
        <time>2016-09-21T11:30:37.000Z</time>
      </trkpt>
      <trkpt lon="0.3796704709529877" lat="49.2466468811035156">
        <ele>72.12342071533203</ele>
        <time>2016-09-21T11:30:39.000Z</time>
      </trkpt>
      <trkpt lon="0.3794091939926147" lat="49.2467079162597656">
        <ele>71.97975158691406</ele>
        <time>2016-09-21T11:30:42.000Z</time>
      </trkpt>
      <trkpt lon="0.3791218698024750" lat="49.2468109130859375">
        <ele>71.73100280761719</ele>
        <time>2016-09-21T11:30:45.000Z</time>
      </trkpt>
      <trkpt lon="0.3789427280426025" lat="49.2469024658203125">
        <ele>71.4656753540039</ele>
        <time>2016-09-21T11:30:48.000Z</time>
      </trkpt>
      <trkpt lon="0.3787284195423126" lat="49.2469711303710938">
        <ele>71.1624984741211</ele>
        <time>2016-09-21T11:30:51.000Z</time>
      </trkpt>
      <trkpt lon="0.3785859346389771" lat="49.2470779418945312">
        <ele>70.7790756225586</ele>
        <time>2016-09-21T11:30:53.000Z</time>
      </trkpt>
      <trkpt lon="0.3783265948295593" lat="49.2472305297851562">
        <ele>70.45172882080078</ele>
        <time>2016-09-21T11:30:56.000Z</time>
      </trkpt>
      <trkpt lon="0.3781091570854187" lat="49.2472686767578125">
        <ele>70.23162841796875</ele>
        <time>2016-09-21T11:30:58.000Z</time>
      </trkpt>
      <trkpt lon="0.3778841197490692" lat="49.2473640441894531">
        <ele>69.97142028808594</ele>
        <time>2016-09-21T11:31:01.000Z</time>
      </trkpt>
      <trkpt lon="0.3776727914810181" lat="49.2474975585937500">
        <ele>69.77302551269531</ele>
        <time>2016-09-21T11:31:04.000Z</time>
      </trkpt>
      <trkpt lon="0.3773890733718872" lat="49.2476005554199219">
        <ele>69.55492401123047</ele>
        <time>2016-09-21T11:31:07.000Z</time>
      </trkpt>
      <trkpt lon="0.3771716356277466" lat="49.2477226257324219">
        <ele>69.41941833496094</ele>
        <time>2016-09-21T11:31:10.000Z</time>
      </trkpt>
      <trkpt lon="0.3769960403442383" lat="49.2478561401367188">
        <ele>69.37446594238281</ele>
        <time>2016-09-21T11:31:13.000Z</time>
      </trkpt>
      <trkpt lon="0.3768973052501678" lat="49.2479171752929688">
        <ele>69.35456848144531</ele>
        <time>2016-09-21T11:31:15.000Z</time>
      </trkpt>
      <trkpt lon="0.3768178522586823" lat="49.2479972839355469">
        <ele>69.34793090820312</ele>
        <time>2016-09-21T11:31:17.000Z</time>
      </trkpt>
      <trkpt lon="0.3766677975654602" lat="49.2481727600097656">
        <ele>69.37391662597656</ele>
        <time>2016-09-21T11:31:20.000Z</time>
      </trkpt>
      <trkpt lon="0.3766063749790192" lat="49.2483062744140625">
        <ele>69.41755676269531</ele>
        <time>2016-09-21T11:31:22.000Z</time>
      </trkpt>
      <trkpt lon="0.3765366375446320" lat="49.2484588623046875">
        <ele>69.3798828125</ele>
        <time>2016-09-21T11:31:25.000Z</time>
      </trkpt>
      <trkpt lon="0.3765542209148407" lat="49.2486381530761719">
        <ele>69.37891387939453</ele>
        <time>2016-09-21T11:31:28.000Z</time>
      </trkpt>
      <trkpt lon="0.3765133321285248" lat="49.2488594055175781">
        <ele>69.32035827636719</ele>
        <time>2016-09-21T11:31:31.000Z</time>
      </trkpt>
      <trkpt lon="0.3764714300632477" lat="49.2490653991699219">
        <ele>69.20052337646484</ele>
        <time>2016-09-21T11:31:34.000Z</time>
      </trkpt>
      <trkpt lon="0.3764217197895050" lat="49.2492446899414062">
        <ele>69.01513671875</ele>
        <time>2016-09-21T11:31:37.000Z</time>
      </trkpt>
      <trkpt lon="0.3763959705829620" lat="49.2493667602539062">
        <ele>68.89398956298828</ele>
        <time>2016-09-21T11:31:39.000Z</time>
      </trkpt>
      <trkpt lon="0.3764078021049500" lat="49.2495498657226562">
        <ele>68.80989074707031</ele>
        <time>2016-09-21T11:31:42.000Z</time>
      </trkpt>
      <trkpt lon="0.3764631152153015" lat="49.2496337890625000">
        <ele>68.86175537109375</ele>
        <time>2016-09-21T11:31:44.000Z</time>
      </trkpt>
      <trkpt lon="0.3764995932579041" lat="49.2497749328613281">
        <ele>69.0418472290039</ele>
        <time>2016-09-21T11:31:47.000Z</time>
      </trkpt>
      <trkpt lon="0.3764885962009430" lat="49.2499198913574219">
        <ele>69.28422546386719</ele>
        <time>2016-09-21T11:31:50.000Z</time>
      </trkpt>
      <trkpt lon="0.3765231370925903" lat="49.2502212524414062">
        <ele>69.5455322265625</ele>
        <time>2016-09-21T11:31:54.000Z</time>
      </trkpt>
      <trkpt lon="0.3765376508235931" lat="49.2503509521484375">
        <ele>69.73875427246094</ele>
        <time>2016-09-21T11:31:56.000Z</time>
      </trkpt>
      <trkpt lon="0.3765669763088226" lat="49.2505149841308594">
        <ele>69.84207916259766</ele>
        <time>2016-09-21T11:31:58.000Z</time>
      </trkpt>
      <trkpt lon="0.3766115605831146" lat="49.2507057189941406">
        <ele>69.87236022949219</ele>
        <time>2016-09-21T11:32:01.000Z</time>
      </trkpt>
      <trkpt lon="0.3765965700149536" lat="49.2508316040039062">
        <ele>69.83901977539062</ele>
        <time>2016-09-21T11:32:03.000Z</time>
      </trkpt>
      <trkpt lon="0.3765671551227570" lat="49.2510337829589844">
        <ele>69.66899871826172</ele>
        <time>2016-09-21T11:32:06.000Z</time>
      </trkpt>
      <trkpt lon="0.3765261471271515" lat="49.2511672973632812">
        <ele>69.41288757324219</ele>
        <time>2016-09-21T11:32:08.000Z</time>
      </trkpt>
      <trkpt lon="0.3765003383159637" lat="49.2513542175292969">
        <ele>69.05663299560547</ele>
        <time>2016-09-21T11:32:11.000Z</time>
      </trkpt>
      <trkpt lon="0.3764876723289490" lat="49.2515068054199219">
        <ele>68.6207046508789</ele>
        <time>2016-09-21T11:32:13.000Z</time>
      </trkpt>
      <trkpt lon="0.3764823079109192" lat="49.2516517639160156">
        <ele>68.16077423095703</ele>
        <time>2016-09-21T11:32:15.000Z</time>
      </trkpt>
      <trkpt lon="0.3764752745628357" lat="49.2517852783203125">
        <ele>67.85970306396484</ele>
        <time>2016-09-21T11:32:17.000Z</time>
      </trkpt>
      <trkpt lon="0.3764098882675171" lat="49.2520141601562500">
        <ele>67.69783020019531</ele>
        <time>2016-09-21T11:32:20.000Z</time>
      </trkpt>
      <trkpt lon="0.3764165937900543" lat="49.2522048950195312">
        <ele>67.7226333618164</ele>
        <time>2016-09-21T11:32:23.000Z</time>
      </trkpt>
      <trkpt lon="0.3764280080795288" lat="49.2524147033691406">
        <ele>67.91754150390625</ele>
        <time>2016-09-21T11:32:26.000Z</time>
      </trkpt>
      <trkpt lon="0.3764379918575287" lat="49.2525291442871094">
        <ele>68.24137878417969</ele>
        <time>2016-09-21T11:32:28.000Z</time>
      </trkpt>
      <trkpt lon="0.3764145970344543" lat="49.2527427673339844">
        <ele>68.62037658691406</ele>
        <time>2016-09-21T11:32:31.000Z</time>
      </trkpt>
      <trkpt lon="0.3763998448848724" lat="49.2528724670410156">
        <ele>69.01554870605469</ele>
        <time>2016-09-21T11:32:33.000Z</time>
      </trkpt>
      <trkpt lon="0.3763904571533203" lat="49.2530021667480469">
        <ele>69.3920669555664</ele>
        <time>2016-09-21T11:32:35.000Z</time>
      </trkpt>
      <trkpt lon="0.3763839006423950" lat="49.2531166076660156">
        <ele>69.73188018798828</ele>
        <time>2016-09-21T11:32:37.000Z</time>
      </trkpt>
      <trkpt lon="0.3763680756092072" lat="49.2533264160156250">
        <ele>70.11678314208984</ele>
        <time>2016-09-21T11:32:40.000Z</time>
      </trkpt>
      <trkpt lon="0.3763433396816254" lat="49.2535400390625000">
        <ele>70.23204040527344</ele>
        <time>2016-09-21T11:32:43.000Z</time>
      </trkpt>
      <trkpt lon="0.3763267397880554" lat="49.2536697387695312">
        <ele>70.1784439086914</ele>
        <time>2016-09-21T11:32:45.000Z</time>
      </trkpt>
      <trkpt lon="0.3762809932231903" lat="49.2538604736328125">
        <ele>69.89480590820312</ele>
        <time>2016-09-21T11:32:48.000Z</time>
      </trkpt>
      <trkpt lon="0.3762687444686890" lat="49.2539710998535156">
        <ele>69.46715545654297</ele>
        <time>2016-09-21T11:32:50.000Z</time>
      </trkpt>
      <trkpt lon="0.3762445151805878" lat="49.2541656494140625">
        <ele>68.78358459472656</ele>
        <time>2016-09-21T11:32:53.000Z</time>
      </trkpt>
      <trkpt lon="0.3761429488658905" lat="49.2543601989746094">
        <ele>68.23320770263672</ele>
        <time>2016-09-21T11:32:56.000Z</time>
      </trkpt>
      <trkpt lon="0.3760681748390198" lat="49.2545013427734375">
        <ele>67.76921081542969</ele>
        <time>2016-09-21T11:32:58.000Z</time>
      </trkpt>
      <trkpt lon="0.3759658336639404" lat="49.2546195983886719">
        <ele>67.45115661621094</ele>
        <time>2016-09-21T11:33:00.000Z</time>
      </trkpt>
      <trkpt lon="0.3758126795291901" lat="49.2547988891601562">
        <ele>67.19161224365234</ele>
        <time>2016-09-21T11:33:03.000Z</time>
      </trkpt>
      <trkpt lon="0.3756324648857117" lat="49.2549667358398438">
        <ele>66.99284362792969</ele>
        <time>2016-09-21T11:33:06.000Z</time>
      </trkpt>
      <trkpt lon="0.3755612373352051" lat="49.2550621032714844">
        <ele>66.8302001953125</ele>
        <time>2016-09-21T11:33:08.000Z</time>
      </trkpt>
      <trkpt lon="0.3753128051757812" lat="49.2552185058593750">
        <ele>66.61799621582031</ele>
        <time>2016-09-21T11:33:11.000Z</time>
      </trkpt>
      <trkpt lon="0.3750855624675751" lat="49.2554206848144531">
        <ele>66.35563659667969</ele>
        <time>2016-09-21T11:33:14.000Z</time>
      </trkpt>
      <trkpt lon="0.3748585879802704" lat="49.2556152343750000">
        <ele>66.07279968261719</ele>
        <time>2016-09-21T11:33:17.000Z</time>
      </trkpt>
      <trkpt lon="0.3747193515300751" lat="49.2557296752929688">
        <ele>65.87210845947266</ele>
        <time>2016-09-21T11:33:19.000Z</time>
      </trkpt>
      <trkpt lon="0.3745583295822144" lat="49.2558364868164062">
        <ele>65.67147064208984</ele>
        <time>2016-09-21T11:33:21.000Z</time>
      </trkpt>
      <trkpt lon="0.3743167817592621" lat="49.2560157775878906">
        <ele>65.44255065917969</ele>
        <time>2016-09-21T11:33:24.000Z</time>
      </trkpt>
      <trkpt lon="0.3741585314273834" lat="49.2561569213867188">
        <ele>65.20890808105469</ele>
        <time>2016-09-21T11:33:26.000Z</time>
      </trkpt>
      <trkpt lon="0.3740086555480957" lat="49.2562675476074219">
        <ele>64.92431640625</ele>
        <time>2016-09-21T11:33:28.000Z</time>
      </trkpt>
      <trkpt lon="0.3737893104553223" lat="49.2564468383789062">
        <ele>64.49708557128906</ele>
        <time>2016-09-21T11:33:31.000Z</time>
      </trkpt>
      <trkpt lon="0.3736403584480286" lat="49.2565727233886719">
        <ele>63.97369384765625</ele>
        <time>2016-09-21T11:33:33.000Z</time>
      </trkpt>
      <trkpt lon="0.3735121190547943" lat="49.2566871643066406">
        <ele>63.46651077270508</ele>
        <time>2016-09-21T11:33:35.000Z</time>
      </trkpt>
      <trkpt lon="0.3733140528202057" lat="49.2568664550781250">
        <ele>62.98937225341797</ele>
        <time>2016-09-21T11:33:38.000Z</time>
      </trkpt>
      <trkpt lon="0.3731780052185059" lat="49.2569656372070312">
        <ele>62.593238830566406</ele>
        <time>2016-09-21T11:33:40.000Z</time>
      </trkpt>
      <trkpt lon="0.3729387819766998" lat="49.2571601867675781">
        <ele>62.36305618286133</ele>
        <time>2016-09-21T11:33:43.000Z</time>
      </trkpt>
      <trkpt lon="0.3727592527866364" lat="49.2572822570800781">
        <ele>62.26930618286133</ele>
        <time>2016-09-21T11:33:45.000Z</time>
      </trkpt>
      <trkpt lon="0.3726218640804291" lat="49.2573890686035156">
        <ele>62.3119010925293</ele>
        <time>2016-09-21T11:33:47.000Z</time>
      </trkpt>
      <trkpt lon="0.3723995685577393" lat="49.2575607299804688">
        <ele>62.4288215637207</ele>
        <time>2016-09-21T11:33:50.000Z</time>
      </trkpt>
      <trkpt lon="0.3722179532051086" lat="49.2577476501464844">
        <ele>62.54047775268555</ele>
        <time>2016-09-21T11:33:53.000Z</time>
      </trkpt>
      <trkpt lon="0.3720250725746155" lat="49.2579345703125000">
        <ele>62.62474822998047</ele>
        <time>2016-09-21T11:33:56.000Z</time>
      </trkpt>
      <trkpt lon="0.3718797266483307" lat="49.2580490112304688">
        <ele>62.66295623779297</ele>
        <time>2016-09-21T11:33:58.000Z</time>
      </trkpt>
      <trkpt lon="0.3716718554496765" lat="49.2582130432128906">
        <ele>62.64966583251953</ele>
        <time>2016-09-21T11:34:01.000Z</time>
      </trkpt>
      <trkpt lon="0.3715451359748840" lat="49.2583312988281250">
        <ele>62.60380172729492</ele>
        <time>2016-09-21T11:34:03.000Z</time>
      </trkpt>
      <trkpt lon="0.3713337481021881" lat="49.2585105895996094">
        <ele>62.58305740356445</ele>
        <time>2016-09-21T11:34:06.000Z</time>
      </trkpt>
      <trkpt lon="0.3712278604507446" lat="49.2586135864257812">
        <ele>62.57508087158203</ele>
        <time>2016-09-21T11:34:08.000Z</time>
      </trkpt>
      <trkpt lon="0.3710191547870636" lat="49.2587547302246094">
        <ele>62.521522521972656</ele>
        <time>2016-09-21T11:34:11.000Z</time>
      </trkpt>
      <trkpt lon="0.3708692789077759" lat="49.2589073181152344">
        <ele>62.4516487121582</ele>
        <time>2016-09-21T11:34:14.000Z</time>
      </trkpt>
      <trkpt lon="0.3706326782703400" lat="49.2590637207031250">
        <ele>62.2855339050293</ele>
        <time>2016-09-21T11:34:17.000Z</time>
      </trkpt>
      <trkpt lon="0.3704983890056610" lat="49.2591743469238281">
        <ele>62.05457305908203</ele>
        <time>2016-09-21T11:34:19.000Z</time>
      </trkpt>
      <trkpt lon="0.3703778684139252" lat="49.2592849731445312">
        <ele>61.76915740966797</ele>
        <time>2016-09-21T11:34:21.000Z</time>
      </trkpt>
      <trkpt lon="0.3701662123203278" lat="49.2594451904296875">
        <ele>61.414093017578125</ele>
        <time>2016-09-21T11:34:24.000Z</time>
      </trkpt>
      <trkpt lon="0.3700281679630280" lat="49.2595863342285156">
        <ele>61.00120162963867</ele>
        <time>2016-09-21T11:34:26.000Z</time>
      </trkpt>
      <trkpt lon="0.3697954118251801" lat="49.2597312927246094">
        <ele>60.62849807739258</ele>
        <time>2016-09-21T11:34:29.000Z</time>
      </trkpt>
      <trkpt lon="0.3696661591529846" lat="49.2598495483398438">
        <ele>60.312721252441406</ele>
        <time>2016-09-21T11:34:31.000Z</time>
      </trkpt>
      <trkpt lon="0.3695359826087952" lat="49.2599563598632812">
        <ele>60.036582946777344</ele>
        <time>2016-09-21T11:34:33.000Z</time>
      </trkpt>
      <trkpt lon="0.3693521618843079" lat="49.2601242065429688">
        <ele>59.93171310424805</ele>
        <time>2016-09-21T11:34:36.000Z</time>
      </trkpt>
      <trkpt lon="0.3691983520984650" lat="49.2602233886718750">
        <ele>59.925384521484375</ele>
        <time>2016-09-21T11:34:38.000Z</time>
      </trkpt>
      <trkpt lon="0.3689922392368317" lat="49.2603797912597656">
        <ele>60.051918029785156</ele>
        <time>2016-09-21T11:34:41.000Z</time>
      </trkpt>
      <trkpt lon="0.3688310682773590" lat="49.2605514526367188">
        <ele>60.304710388183594</ele>
        <time>2016-09-21T11:34:44.000Z</time>
      </trkpt>
      <trkpt lon="0.3686907589435577" lat="49.2606658935546875">
        <ele>60.64910888671875</ele>
        <time>2016-09-21T11:34:46.000Z</time>
      </trkpt>
      <trkpt lon="0.3685259521007538" lat="49.2608718872070312">
        <ele>61.1201171875</ele>
        <time>2016-09-21T11:34:49.000Z</time>
      </trkpt>
      <trkpt lon="0.3684549629688263" lat="49.2609863281250000">
        <ele>61.62842559814453</ele>
        <time>2016-09-21T11:34:51.000Z</time>
      </trkpt>
      <trkpt lon="0.3682401478290558" lat="49.2611351013183594">
        <ele>62.08781051635742</ele>
        <time>2016-09-21T11:34:54.000Z</time>
      </trkpt>
      <trkpt lon="0.3681166768074036" lat="49.2612342834472656">
        <ele>62.424644470214844</ele>
        <time>2016-09-21T11:34:56.000Z</time>
      </trkpt>
      <trkpt lon="0.3679350316524506" lat="49.2613830566406250">
        <ele>62.69744873046875</ele>
        <time>2016-09-21T11:34:59.000Z</time>
      </trkpt>
      <trkpt lon="0.3677520751953125" lat="49.2615356445312500">
        <ele>62.829994201660156</ele>
        <time>2016-09-21T11:35:02.000Z</time>
      </trkpt>
      <trkpt lon="0.3675622045993805" lat="49.2616844177246094">
        <ele>62.94964599609375</ele>
        <time>2016-09-21T11:35:05.000Z</time>
      </trkpt>
      <trkpt lon="0.3674007654190063" lat="49.2617950439453125">
        <ele>63.04636764526367</ele>
        <time>2016-09-21T11:35:07.000Z</time>
      </trkpt>
      <trkpt lon="0.3673385083675385" lat="49.2619056701660156">
        <ele>63.20940399169922</ele>
        <time>2016-09-21T11:35:09.000Z</time>
      </trkpt>
      <trkpt lon="0.3671302795410156" lat="49.2620239257812500">
        <ele>63.2713623046875</ele>
        <time>2016-09-21T11:35:12.000Z</time>
      </trkpt>
      <trkpt lon="0.3669772446155548" lat="49.2621536254882812">
        <ele>63.2763671875</ele>
        <time>2016-09-21T11:35:15.000Z</time>
      </trkpt>
      <trkpt lon="0.3668051660060883" lat="49.2622947692871094">
        <ele>63.18550491333008</ele>
        <time>2016-09-21T11:35:18.000Z</time>
      </trkpt>
      <trkpt lon="0.3666297197341919" lat="49.2624282836914062">
        <ele>63.03227615356445</ele>
        <time>2016-09-21T11:35:21.000Z</time>
      </trkpt>
      <trkpt lon="0.3664212822914124" lat="49.2625541687011719">
        <ele>62.8033561706543</ele>
        <time>2016-09-21T11:35:24.000Z</time>
      </trkpt>
      <trkpt lon="0.3663104474544525" lat="49.2626686096191406">
        <ele>62.717140197753906</ele>
        <time>2016-09-21T11:35:26.000Z</time>
      </trkpt>
      <trkpt lon="0.3661051988601685" lat="49.2628059387207031">
        <ele>62.6439208984375</ele>
        <time>2016-09-21T11:35:29.000Z</time>
      </trkpt>
      <trkpt lon="0.3659881651401520" lat="49.2628974914550781">
        <ele>62.610984802246094</ele>
        <time>2016-09-21T11:35:31.000Z</time>
      </trkpt>
      <trkpt lon="0.3657882809638977" lat="49.2630271911621094">
        <ele>62.5587158203125</ele>
        <time>2016-09-21T11:35:34.000Z</time>
      </trkpt>
      <trkpt lon="0.3656064569950104" lat="49.2631568908691406">
        <ele>62.39220428466797</ele>
        <time>2016-09-21T11:35:37.000Z</time>
      </trkpt>
      <trkpt lon="0.3654096424579620" lat="49.2633094787597656">
        <ele>62.015655517578125</ele>
        <time>2016-09-21T11:35:40.000Z</time>
      </trkpt>
      <trkpt lon="0.3652856051921844" lat="49.2634658813476562">
        <ele>61.69977569580078</ele>
        <time>2016-09-21T11:35:43.000Z</time>
      </trkpt>
      <trkpt lon="0.3650949299335480" lat="49.2636299133300781">
        <ele>61.39885330200195</ele>
        <time>2016-09-21T11:35:46.000Z</time>
      </trkpt>
      <trkpt lon="0.3649965226650238" lat="49.2637519836425781">
        <ele>61.250587463378906</ele>
        <time>2016-09-21T11:35:48.000Z</time>
      </trkpt>
      <trkpt lon="0.3648336529731750" lat="49.2639122009277344">
        <ele>61.349647521972656</ele>
        <time>2016-09-21T11:35:51.000Z</time>
      </trkpt>
      <trkpt lon="0.3646481633186340" lat="49.2640533447265625">
        <ele>61.66161346435547</ele>
        <time>2016-09-21T11:35:54.000Z</time>
      </trkpt>
      <trkpt lon="0.3644169867038727" lat="49.2641906738281250">
        <ele>61.916290283203125</ele>
        <time>2016-09-21T11:35:57.000Z</time>
      </trkpt>
      <trkpt lon="0.3642135560512543" lat="49.2643432617187500">
        <ele>62.1490592956543</ele>
        <time>2016-09-21T11:36:00.000Z</time>
      </trkpt>
      <trkpt lon="0.3639997243881226" lat="49.2645111083984375">
        <ele>62.24176788330078</ele>
        <time>2016-09-21T11:36:03.000Z</time>
      </trkpt>
      <trkpt lon="0.3637759387493134" lat="49.2646865844726562">
        <ele>62.11207962036133</ele>
        <time>2016-09-21T11:36:06.000Z</time>
      </trkpt>
      <trkpt lon="0.3635706603527069" lat="49.2648735046386719">
        <ele>61.83750534057617</ele>
        <time>2016-09-21T11:36:09.000Z</time>
      </trkpt>
      <trkpt lon="0.3633595407009125" lat="49.2650260925292969">
        <ele>61.431968688964844</ele>
        <time>2016-09-21T11:36:12.000Z</time>
      </trkpt>
      <trkpt lon="0.3631437718868256" lat="49.2651634216308594">
        <ele>61.032020568847656</ele>
        <time>2016-09-21T11:36:15.000Z</time>
      </trkpt>
      <trkpt lon="0.3629030585289001" lat="49.2653274536132812">
        <ele>60.72051239013672</ele>
        <time>2016-09-21T11:36:18.000Z</time>
      </trkpt>
      <trkpt lon="0.3627609014511108" lat="49.2654342651367188">
        <ele>60.53398513793945</ele>
        <time>2016-09-21T11:36:20.000Z</time>
      </trkpt>
      <trkpt lon="0.3626112043857574" lat="49.2655410766601562">
        <ele>60.451148986816406</ele>
        <time>2016-09-21T11:36:22.000Z</time>
      </trkpt>
      <trkpt lon="0.3624011278152466" lat="49.2657051086425781">
        <ele>60.6016960144043</ele>
        <time>2016-09-21T11:36:25.000Z</time>
      </trkpt>
      <trkpt lon="0.3621796965599060" lat="49.2658309936523438">
        <ele>60.86201858520508</ele>
        <time>2016-09-21T11:36:28.000Z</time>
      </trkpt>
      <trkpt lon="0.3619844019412994" lat="49.2659835815429688">
        <ele>61.22050857543945</ele>
        <time>2016-09-21T11:36:31.000Z</time>
      </trkpt>
      <trkpt lon="0.3618298172950745" lat="49.2660598754882812">
        <ele>61.61310958862305</ele>
        <time>2016-09-21T11:36:33.000Z</time>
      </trkpt>
      <trkpt lon="0.3616591691970825" lat="49.2661743164062500">
        <ele>62.091163635253906</ele>
        <time>2016-09-21T11:36:36.000Z</time>
      </trkpt>
      <trkpt lon="0.3614991605281830" lat="49.2662925720214844">
        <ele>62.541221618652344</ele>
        <time>2016-09-21T11:36:39.000Z</time>
      </trkpt>
      <trkpt lon="0.3614013493061066" lat="49.2663421630859375">
        <ele>62.90117263793945</ele>
        <time>2016-09-21T11:36:41.000Z</time>
      </trkpt>
      <trkpt lon="0.3612264990806580" lat="49.2665023803710938">
        <ele>63.2523307800293</ele>
        <time>2016-09-21T11:36:44.000Z</time>
      </trkpt>
      <trkpt lon="0.3610362410545349" lat="49.2666282653808594">
        <ele>63.604827880859375</ele>
        <time>2016-09-21T11:36:47.000Z</time>
      </trkpt>
      <trkpt lon="0.3609202206134796" lat="49.2667160034179688">
        <ele>63.9112548828125</ele>
        <time>2016-09-21T11:36:49.000Z</time>
      </trkpt>
      <trkpt lon="0.3607020378112793" lat="49.2668266296386719">
        <ele>64.09233093261719</ele>
        <time>2016-09-21T11:36:52.000Z</time>
      </trkpt>
      <trkpt lon="0.3606058061122894" lat="49.2668991088867188">
        <ele>64.24706268310547</ele>
        <time>2016-09-21T11:36:54.000Z</time>
      </trkpt>
      <trkpt lon="0.3604229986667633" lat="49.2670211791992188">
        <ele>64.25621032714844</ele>
        <time>2016-09-21T11:36:57.000Z</time>
      </trkpt>
      <trkpt lon="0.3602902293205261" lat="49.2671012878417969">
        <ele>64.18385314941406</ele>
        <time>2016-09-21T11:36:59.000Z</time>
      </trkpt>
      <trkpt lon="0.3601869642734528" lat="49.2671775817871094">
        <ele>64.07022857666016</ele>
        <time>2016-09-21T11:37:01.000Z</time>
      </trkpt>
      <trkpt lon="0.3600583970546722" lat="49.2672576904296875">
        <ele>64.01583862304688</ele>
        <time>2016-09-21T11:37:03.000Z</time>
      </trkpt>
      <trkpt lon="0.3599027395248413" lat="49.2673797607421875">
        <ele>64.0728530883789</ele>
        <time>2016-09-21T11:37:06.000Z</time>
      </trkpt>
      <trkpt lon="0.3597154915332794" lat="49.2675361633300781">
        <ele>64.33427429199219</ele>
        <time>2016-09-21T11:37:09.000Z</time>
      </trkpt>
      <trkpt lon="0.3595761060714722" lat="49.2676162719726562">
        <ele>64.65426635742188</ele>
        <time>2016-09-21T11:37:11.000Z</time>
      </trkpt>
      <trkpt lon="0.3594000041484833" lat="49.2677230834960938">
        <ele>65.0163345336914</ele>
        <time>2016-09-21T11:37:14.000Z</time>
      </trkpt>
      <trkpt lon="0.3592872619628906" lat="49.2678108215332031">
        <ele>65.43775939941406</ele>
        <time>2016-09-21T11:37:16.000Z</time>
      </trkpt>
      <trkpt lon="0.3591413199901581" lat="49.2679214477539062">
        <ele>65.82514190673828</ele>
        <time>2016-09-21T11:37:19.000Z</time>
      </trkpt>
      <trkpt lon="0.3589401543140411" lat="49.2680587768554688">
        <ele>66.08161926269531</ele>
        <time>2016-09-21T11:37:22.000Z</time>
      </trkpt>
      <trkpt lon="0.3588098287582397" lat="49.2681312561035156">
        <ele>66.29888916015625</ele>
        <time>2016-09-21T11:37:24.000Z</time>
      </trkpt>
      <trkpt lon="0.3586249947547913" lat="49.2682456970214844">
        <ele>66.47077941894531</ele>
        <time>2016-09-21T11:37:27.000Z</time>
      </trkpt>
      <trkpt lon="0.3585231602191925" lat="49.2683181762695312">
        <ele>66.60989379882812</ele>
        <time>2016-09-21T11:37:29.000Z</time>
      </trkpt>
      <trkpt lon="0.3583541810512543" lat="49.2684326171875000">
        <ele>66.64349365234375</ele>
        <time>2016-09-21T11:37:32.000Z</time>
      </trkpt>
      <trkpt lon="0.3582320511341095" lat="49.2685089111328125">
        <ele>66.58134460449219</ele>
        <time>2016-09-21T11:37:34.000Z</time>
      </trkpt>
      <trkpt lon="0.3580791056156158" lat="49.2686080932617188">
        <ele>66.46136474609375</ele>
        <time>2016-09-21T11:37:36.000Z</time>
      </trkpt>
      <trkpt lon="0.3579438924789429" lat="49.2687454223632812">
        <ele>66.35032653808594</ele>
        <time>2016-09-21T11:37:39.000Z</time>
      </trkpt>
      <trkpt lon="0.3578065037727356" lat="49.2688293457031250">
        <ele>66.18977355957031</ele>
        <time>2016-09-21T11:37:41.000Z</time>
      </trkpt>
      <trkpt lon="0.3576597571372986" lat="49.2689247131347656">
        <ele>66.06425476074219</ele>
        <time>2016-09-21T11:37:43.000Z</time>
      </trkpt>
      <trkpt lon="0.3574714064598083" lat="49.2690582275390625">
        <ele>66.03577423095703</ele>
        <time>2016-09-21T11:37:46.000Z</time>
      </trkpt>
      <trkpt lon="0.3572970628738403" lat="49.2691535949707031">
        <ele>66.11844635009766</ele>
        <time>2016-09-21T11:37:49.000Z</time>
      </trkpt>
      <trkpt lon="0.3572083115577698" lat="49.2692527770996094">
        <ele>66.2625961303711</ele>
        <time>2016-09-21T11:37:51.000Z</time>
      </trkpt>
      <trkpt lon="0.3570633828639984" lat="49.2693328857421875">
        <ele>66.45420837402344</ele>
        <time>2016-09-21T11:37:53.000Z</time>
      </trkpt>
      <trkpt lon="0.3568675816059113" lat="49.2694435119628906">
        <ele>66.69151306152344</ele>
        <time>2016-09-21T11:37:56.000Z</time>
      </trkpt>
      <trkpt lon="0.3567079007625580" lat="49.2695274353027344">
        <ele>66.91410064697266</ele>
        <time>2016-09-21T11:37:58.000Z</time>
      </trkpt>
      <trkpt lon="0.3565143644809723" lat="49.2696418762207031">
        <ele>67.15008544921875</ele>
        <time>2016-09-21T11:38:01.000Z</time>
      </trkpt>
      <trkpt lon="0.3563155531883240" lat="49.2697677612304688">
        <ele>67.39752197265625</ele>
        <time>2016-09-21T11:38:04.000Z</time>
      </trkpt>
      <trkpt lon="0.3560740649700165" lat="49.2698822021484375">
        <ele>67.70377349853516</ele>
        <time>2016-09-21T11:38:07.000Z</time>
      </trkpt>
      <trkpt lon="0.3559110462665558" lat="49.2699508666992188">
        <ele>68.02554321289062</ele>
        <time>2016-09-21T11:38:09.000Z</time>
      </trkpt>
      <trkpt lon="0.3556553721427917" lat="49.2700843811035156">
        <ele>68.29727172851562</ele>
        <time>2016-09-21T11:38:12.000Z</time>
      </trkpt>
      <trkpt lon="0.3554661273956299" lat="49.2701568603515625">
        <ele>68.3961410522461</ele>
        <time>2016-09-21T11:38:14.000Z</time>
      </trkpt>
      <trkpt lon="0.3551740944385529" lat="49.2702636718750000">
        <ele>68.19831085205078</ele>
        <time>2016-09-21T11:38:17.000Z</time>
      </trkpt>
      <trkpt lon="0.3549855947494507" lat="49.2703323364257812">
        <ele>67.7659683227539</ele>
        <time>2016-09-21T11:38:19.000Z</time>
      </trkpt>
      <trkpt lon="0.3546597957611084" lat="49.2704505920410156">
        <ele>66.9751968383789</ele>
        <time>2016-09-21T11:38:22.000Z</time>
      </trkpt>
      <trkpt lon="0.3543667495250702" lat="49.2705497741699219">
        <ele>66.01900482177734</ele>
        <time>2016-09-21T11:38:25.000Z</time>
      </trkpt>
      <trkpt lon="0.3540377616882324" lat="49.2706604003906250">
        <ele>65.06420135498047</ele>
        <time>2016-09-21T11:38:28.000Z</time>
      </trkpt>
      <trkpt lon="0.3538002073764801" lat="49.2707252502441406">
        <ele>64.22706604003906</ele>
        <time>2016-09-21T11:38:30.000Z</time>
      </trkpt>
      <trkpt lon="0.3534647822380066" lat="49.2708396911621094">
        <ele>63.464698791503906</ele>
        <time>2016-09-21T11:38:33.000Z</time>
      </trkpt>
      <trkpt lon="0.3531367182731628" lat="49.2709388732910156">
        <ele>62.79461669921875</ele>
        <time>2016-09-21T11:38:36.000Z</time>
      </trkpt>
      <trkpt lon="0.3528946340084076" lat="49.2709999084472656">
        <ele>62.12562942504883</ele>
        <time>2016-09-21T11:38:38.000Z</time>
      </trkpt>
      <trkpt lon="0.3526444435119629" lat="49.2710647583007812">
        <ele>61.37018966674805</ele>
        <time>2016-09-21T11:38:40.000Z</time>
      </trkpt>
      <trkpt lon="0.3523855209350586" lat="49.2711334228515625">
        <ele>60.509071350097656</ele>
        <time>2016-09-21T11:38:42.000Z</time>
      </trkpt>
      <trkpt lon="0.3520017266273499" lat="49.2712440490722656">
        <ele>59.48540496826172</ele>
        <time>2016-09-21T11:38:45.000Z</time>
      </trkpt>
      <trkpt lon="0.3515808582305908" lat="49.2713432312011719">
        <ele>58.4325065612793</ele>
        <time>2016-09-21T11:38:48.000Z</time>
      </trkpt>
      <trkpt lon="0.3511751592159271" lat="49.2714653015136719">
        <ele>57.41381072998047</ele>
        <time>2016-09-21T11:38:51.000Z</time>
      </trkpt>
      <trkpt lon="0.3507725000381470" lat="49.2715721130371094">
        <ele>56.413787841796875</ele>
        <time>2016-09-21T11:38:54.000Z</time>
      </trkpt>
      <trkpt lon="0.3504973351955414" lat="49.2716407775878906">
        <ele>55.51844024658203</ele>
        <time>2016-09-21T11:38:56.000Z</time>
      </trkpt>
      <trkpt lon="0.3500861227512360" lat="49.2717552185058594">
        <ele>54.7071647644043</ele>
        <time>2016-09-21T11:38:59.000Z</time>
      </trkpt>
      <trkpt lon="0.3498101830482483" lat="49.2718162536621094">
        <ele>54.06340408325195</ele>
        <time>2016-09-21T11:39:01.000Z</time>
      </trkpt>
      <trkpt lon="0.3494035601615906" lat="49.2719154357910156">
        <ele>53.4997673034668</ele>
        <time>2016-09-21T11:39:04.000Z</time>
      </trkpt>
      <trkpt lon="0.3490445911884308" lat="49.2719955444335938">
        <ele>53.02643966674805</ele>
        <time>2016-09-21T11:39:07.000Z</time>
      </trkpt>
      <trkpt lon="0.3488053679466248" lat="49.2720642089843750">
        <ele>52.5676155090332</ele>
        <time>2016-09-21T11:39:09.000Z</time>
      </trkpt>
      <trkpt lon="0.3484270870685577" lat="49.2721252441406250">
        <ele>52.1560173034668</ele>
        <time>2016-09-21T11:39:12.000Z</time>
      </trkpt>
      <trkpt lon="0.3480511605739594" lat="49.2722053527832031">
        <ele>51.847450256347656</ele>
        <time>2016-09-21T11:39:15.000Z</time>
      </trkpt>
      <trkpt lon="0.3476842045783997" lat="49.2722625732421875">
        <ele>51.66095733642578</ele>
        <time>2016-09-21T11:39:18.000Z</time>
      </trkpt>
      <trkpt lon="0.3474462330341339" lat="49.2723159790039062">
        <ele>51.5841064453125</ele>
        <time>2016-09-21T11:39:20.000Z</time>
      </trkpt>
      <trkpt lon="0.3471941053867340" lat="49.2723541259765625">
        <ele>51.586692810058594</ele>
        <time>2016-09-21T11:39:22.000Z</time>
      </trkpt>
      <trkpt lon="0.3468375504016876" lat="49.2724304199218750">
        <ele>51.715850830078125</ele>
        <time>2016-09-21T11:39:25.000Z</time>
      </trkpt>
      <trkpt lon="0.3464879989624023" lat="49.2724990844726562">
        <ele>51.74741744995117</ele>
        <time>2016-09-21T11:39:28.000Z</time>
      </trkpt>
      <trkpt lon="0.3461259901523590" lat="49.2725639343261719">
        <ele>51.548011779785156</ele>
        <time>2016-09-21T11:39:31.000Z</time>
      </trkpt>
      <trkpt lon="0.3458907306194305" lat="49.2726058959960938">
        <ele>51.19609451293945</ele>
        <time>2016-09-21T11:39:33.000Z</time>
      </trkpt>
      <trkpt lon="0.3456693589687347" lat="49.2726516723632812">
        <ele>50.74779510498047</ele>
        <time>2016-09-21T11:39:35.000Z</time>
      </trkpt>
      <trkpt lon="0.3454664349555969" lat="49.2727050781250000">
        <ele>50.20603561401367</ele>
        <time>2016-09-21T11:39:37.000Z</time>
      </trkpt>
      <trkpt lon="0.3451655209064484" lat="49.2727622985839844">
        <ele>49.61868667602539</ele>
        <time>2016-09-21T11:39:40.000Z</time>
      </trkpt>
      <trkpt lon="0.3448867201805115" lat="49.2728080749511719">
        <ele>49.150718688964844</ele>
        <time>2016-09-21T11:39:43.000Z</time>
      </trkpt>
      <trkpt lon="0.3447262346744537" lat="49.2728385925292969">
        <ele>48.81102752685547</ele>
        <time>2016-09-21T11:39:45.000Z</time>
      </trkpt>
      <trkpt lon="0.3447362780570984" lat="49.2729492187500000">
        <ele>48.5125846862793</ele>
        <time>2016-09-21T11:39:47.000Z</time>
      </trkpt>
      <trkpt lon="0.3447667956352234" lat="49.2730598449707031">
        <ele>48.24072265625</ele>
        <time>2016-09-21T11:39:49.000Z</time>
      </trkpt>
      <trkpt lon="0.3448476791381836" lat="49.2732162475585938">
        <ele>48.001243591308594</ele>
        <time>2016-09-21T11:39:52.000Z</time>
      </trkpt>
      <trkpt lon="0.3448936045169830" lat="49.2733078002929688">
        <ele>47.775733947753906</ele>
        <time>2016-09-21T11:39:54.000Z</time>
      </trkpt>
      <trkpt lon="0.3449477553367615" lat="49.2734413146972656">
        <ele>47.5958251953125</ele>
        <time>2016-09-21T11:39:57.000Z</time>
      </trkpt>
      <trkpt lon="0.3449764251708984" lat="49.2735214233398438">
        <ele>47.514366149902344</ele>
        <time>2016-09-21T11:39:59.000Z</time>
      </trkpt>
      <trkpt lon="0.3450179994106293" lat="49.2736244201660156">
        <ele>47.5635871887207</ele>
        <time>2016-09-21T11:40:02.000Z</time>
      </trkpt>
      <trkpt lon="0.3450740575790405" lat="49.2737541198730469">
        <ele>47.81568908691406</ele>
        <time>2016-09-21T11:40:05.000Z</time>
      </trkpt>
      <trkpt lon="0.3451572060585022" lat="49.2739372253417969">
        <ele>48.289268493652344</ele>
        <time>2016-09-21T11:40:08.000Z</time>
      </trkpt>
      <trkpt lon="0.3451945185661316" lat="49.2740135192871094">
        <ele>48.789703369140625</ele>
        <time>2016-09-21T11:40:10.000Z</time>
      </trkpt>
      <trkpt lon="0.3452362716197968" lat="49.2741508483886719">
        <ele>49.35377502441406</ele>
        <time>2016-09-21T11:40:13.000Z</time>
      </trkpt>
      <trkpt lon="0.3452877998352051" lat="49.2742614746093750">
        <ele>49.97795486450195</ele>
        <time>2016-09-21T11:40:16.000Z</time>
      </trkpt>
      <trkpt lon="0.3453852832317352" lat="49.2744369506835938">
        <ele>50.745094299316406</ele>
        <time>2016-09-21T11:40:19.000Z</time>
      </trkpt>
      <trkpt lon="0.3454397022724152" lat="49.2745399475097656">
        <ele>51.49852752685547</ele>
        <time>2016-09-21T11:40:22.000Z</time>
      </trkpt>
      <trkpt lon="0.3454902172088623" lat="49.2746315002441406">
        <ele>52.32471466064453</ele>
        <time>2016-09-21T11:40:25.000Z</time>
      </trkpt>
      <trkpt lon="0.3455215692520142" lat="49.2746963500976562">
        <ele>53.139671325683594</ele>
        <time>2016-09-21T11:40:27.000Z</time>
      </trkpt>
      <trkpt lon="0.3455680906772614" lat="49.2747840881347656">
        <ele>53.96485137939453</ele>
        <time>2016-09-21T11:40:30.000Z</time>
      </trkpt>
      <trkpt lon="0.3456043899059296" lat="49.2748641967773438">
        <ele>54.66320037841797</ele>
        <time>2016-09-21T11:40:33.000Z</time>
      </trkpt>
      <trkpt lon="0.3456284403800964" lat="49.2749061584472656">
        <ele>55.2785530090332</ele>
        <time>2016-09-21T11:40:35.000Z</time>
      </trkpt>
      <trkpt lon="0.3456519246101379" lat="49.2749519348144531">
        <ele>55.8286018371582</ele>
        <time>2016-09-21T11:40:37.000Z</time>
      </trkpt>
      <trkpt lon="0.3456834256649017" lat="49.2750358581542969">
        <ele>56.414146423339844</ele>
        <time>2016-09-21T11:40:40.000Z</time>
      </trkpt>
      <trkpt lon="0.3456856012344360" lat="49.2751235961914062">
        <ele>56.95624923706055</ele>
        <time>2016-09-21T11:40:42.000Z</time>
      </trkpt>
      <trkpt lon="0.3456794023513794" lat="49.2751998901367188">
        <ele>57.4520149230957</ele>
        <time>2016-09-21T11:40:44.000Z</time>
      </trkpt>
      <trkpt lon="0.3456763029098511" lat="49.2753295898437500">
        <ele>58.032081604003906</ele>
        <time>2016-09-21T11:40:47.000Z</time>
      </trkpt>
      <trkpt lon="0.3456672430038452" lat="49.2754478454589844">
        <ele>58.6705207824707</ele>
        <time>2016-09-21T11:40:50.000Z</time>
      </trkpt>
      <trkpt lon="0.3456520736217499" lat="49.2755508422851562">
        <ele>59.28275680541992</ele>
        <time>2016-09-21T11:40:53.000Z</time>
      </trkpt>
      <trkpt lon="0.3456318974494934" lat="49.2756156921386719">
        <ele>59.852455139160156</ele>
        <time>2016-09-21T11:40:55.000Z</time>
      </trkpt>
      <trkpt lon="0.3456151187419891" lat="49.2756805419921875">
        <ele>60.400794982910156</ele>
        <time>2016-09-21T11:40:57.000Z</time>
      </trkpt>
      <trkpt lon="0.3455920815467834" lat="49.2757797241210938">
        <ele>60.90131378173828</ele>
        <time>2016-09-21T11:41:00.000Z</time>
      </trkpt>
      <trkpt lon="0.3455643355846405" lat="49.2758216857910156">
        <ele>61.29401397705078</ele>
        <time>2016-09-21T11:41:02.000Z</time>
      </trkpt>
      <trkpt lon="0.3454812765121460" lat="49.2758903503417969">
        <ele>61.629615783691406</ele>
        <time>2016-09-21T11:41:05.000Z</time>
      </trkpt>
      <trkpt lon="0.3454276919364929" lat="49.2759819030761719">
        <ele>62.02266311645508</ele>
        <time>2016-09-21T11:41:08.000Z</time>
      </trkpt>
      <trkpt lon="0.3453956842422485" lat="49.2760505676269531">
        <ele>62.449859619140625</ele>
        <time>2016-09-21T11:41:10.000Z</time>
      </trkpt>
      <trkpt lon="0.3453422188758850" lat="49.2761383056640625">
        <ele>62.8934211730957</ele>
        <time>2016-09-21T11:41:13.000Z</time>
      </trkpt>
      <trkpt lon="0.3452998697757721" lat="49.2762260437011719">
        <ele>63.43532180786133</ele>
        <time>2016-09-21T11:41:16.000Z</time>
      </trkpt>
      <trkpt lon="0.3452700376510620" lat="49.2762832641601562">
        <ele>64.00636291503906</ele>
        <time>2016-09-21T11:41:18.000Z</time>
      </trkpt>
      <trkpt lon="0.3452110290527344" lat="49.2763519287109375">
        <ele>64.54798889160156</ele>
        <time>2016-09-21T11:41:21.000Z</time>
      </trkpt>
      <trkpt lon="0.3451480865478516" lat="49.2764205932617188">
        <ele>65.08029174804688</ele>
        <time>2016-09-21T11:41:24.000Z</time>
      </trkpt>
      <trkpt lon="0.3450956940650940" lat="49.2764892578125000">
        <ele>65.58674621582031</ele>
        <time>2016-09-21T11:41:27.000Z</time>
      </trkpt>
      <trkpt lon="0.3450568914413452" lat="49.2765350341796875">
        <ele>66.02787017822266</ele>
        <time>2016-09-21T11:41:29.000Z</time>
      </trkpt>
      <trkpt lon="0.3450088500976562" lat="49.2765846252441406">
        <ele>66.45091247558594</ele>
        <time>2016-09-21T11:41:31.000Z</time>
      </trkpt>
      <trkpt lon="0.3449524343013763" lat="49.2766647338867188">
        <ele>66.92049407958984</ele>
        <time>2016-09-21T11:41:34.000Z</time>
      </trkpt>
      <trkpt lon="0.3449034094810486" lat="49.2767410278320312">
        <ele>67.44670867919922</ele>
        <time>2016-09-21T11:41:37.000Z</time>
      </trkpt>
      <trkpt lon="0.3448770046234131" lat="49.2767868041992188">
        <ele>67.9569091796875</ele>
        <time>2016-09-21T11:41:39.000Z</time>
      </trkpt>
      <trkpt lon="0.3448107242584229" lat="49.2768516540527344">
        <ele>68.51557922363281</ele>
        <time>2016-09-21T11:41:42.000Z</time>
      </trkpt>
      <trkpt lon="0.3447369635105133" lat="49.2769050598144531">
        <ele>69.0862045288086</ele>
        <time>2016-09-21T11:41:45.000Z</time>
      </trkpt>
      <trkpt lon="0.3446696400642395" lat="49.2769508361816406">
        <ele>69.57931518554688</ele>
        <time>2016-09-21T11:41:48.000Z</time>
      </trkpt>
      <trkpt lon="0.3446272313594818" lat="49.2769889831542969">
        <ele>69.98396301269531</ele>
        <time>2016-09-21T11:41:50.000Z</time>
      </trkpt>
      <trkpt lon="0.3445627689361572" lat="49.2770500183105469">
        <ele>70.3915786743164</ele>
        <time>2016-09-21T11:41:53.000Z</time>
      </trkpt>
      <trkpt lon="0.3445080518722534" lat="49.2771263122558594">
        <ele>70.80597686767578</ele>
        <time>2016-09-21T11:41:56.000Z</time>
      </trkpt>
      <trkpt lon="0.3444532155990601" lat="49.2772102355957031">
        <ele>71.26210021972656</ele>
        <time>2016-09-21T11:41:59.000Z</time>
      </trkpt>
      <trkpt lon="0.3444186747074127" lat="49.2772598266601562">
        <ele>71.72547912597656</ele>
        <time>2016-09-21T11:42:01.000Z</time>
      </trkpt>
      <trkpt lon="0.3443456888198853" lat="49.2773284912109375">
        <ele>72.20772552490234</ele>
        <time>2016-09-21T11:42:04.000Z</time>
      </trkpt>
      <trkpt lon="0.3442899286746979" lat="49.2773628234863281">
        <ele>72.6304931640625</ele>
        <time>2016-09-21T11:42:06.000Z</time>
      </trkpt>
      <trkpt lon="0.3442554175853729" lat="49.2773971557617188">
        <ele>72.96761322021484</ele>
        <time>2016-09-21T11:42:08.000Z</time>
      </trkpt>
      <trkpt lon="0.3442228138446808" lat="49.2774543762207031">
        <ele>73.25833892822266</ele>
        <time>2016-09-21T11:42:11.000Z</time>
      </trkpt>
      <trkpt lon="0.3442065417766571" lat="49.2775039672851562">
        <ele>73.54916381835938</ele>
        <time>2016-09-21T11:42:13.000Z</time>
      </trkpt>
      <trkpt lon="0.3441784679889679" lat="49.2775878906250000">
        <ele>73.8216552734375</ele>
        <time>2016-09-21T11:42:16.000Z</time>
      </trkpt>
      <trkpt lon="0.3441598415374756" lat="49.2776489257812500">
        <ele>74.10563659667969</ele>
        <time>2016-09-21T11:42:18.000Z</time>
      </trkpt>
      <trkpt lon="0.3441689014434814" lat="49.2777099609375000">
        <ele>74.42424011230469</ele>
        <time>2016-09-21T11:42:20.000Z</time>
      </trkpt>
      <trkpt lon="0.3441672325134277" lat="49.2777519226074219">
        <ele>74.70441436767578</ele>
        <time>2016-09-21T11:42:22.000Z</time>
      </trkpt>
      <trkpt lon="0.3441621959209442" lat="49.2778129577636719">
        <ele>74.96713256835938</ele>
        <time>2016-09-21T11:42:25.000Z</time>
      </trkpt>
      <trkpt lon="0.3441598415374756" lat="49.2778625488281250">
        <ele>75.21516418457031</ele>
        <time>2016-09-21T11:42:27.000Z</time>
      </trkpt>
      <trkpt lon="0.3441373109817505" lat="49.2779541015625000">
        <ele>75.48112487792969</ele>
        <time>2016-09-21T11:42:30.000Z</time>
      </trkpt>
      <trkpt lon="0.3441146910190582" lat="49.2780303955078125">
        <ele>75.7253189086914</ele>
        <time>2016-09-21T11:42:33.000Z</time>
      </trkpt>
      <trkpt lon="0.3441103100776672" lat="49.2780799865722656">
        <ele>75.97354888916016</ele>
        <time>2016-09-21T11:42:35.000Z</time>
      </trkpt>
      <trkpt lon="0.3441170156002045" lat="49.2781486511230469">
        <ele>76.24351501464844</ele>
        <time>2016-09-21T11:42:38.000Z</time>
      </trkpt>
      <trkpt lon="0.3440991640090942" lat="49.2782020568847656">
        <ele>76.49495697021484</ele>
        <time>2016-09-21T11:42:41.000Z</time>
      </trkpt>
      <trkpt lon="0.3440893590450287" lat="49.2782440185546875">
        <ele>76.71473693847656</ele>
        <time>2016-09-21T11:42:43.000Z</time>
      </trkpt>
      <trkpt lon="0.3440845906734467" lat="49.2783355712890625">
        <ele>76.97314453125</ele>
        <time>2016-09-21T11:42:46.000Z</time>
      </trkpt>
      <trkpt lon="0.3440974056720734" lat="49.2784156799316406">
        <ele>77.31663513183594</ele>
        <time>2016-09-21T11:42:48.000Z</time>
      </trkpt>
      <trkpt lon="0.3441187143325806" lat="49.2784881591796875">
        <ele>77.71675109863281</ele>
        <time>2016-09-21T11:42:50.000Z</time>
      </trkpt>
      <trkpt lon="0.3441296815872192" lat="49.2785491943359375">
        <ele>78.18852233886719</ele>
        <time>2016-09-21T11:42:52.000Z</time>
      </trkpt>
      <trkpt lon="0.3441319465637207" lat="49.2786026000976562">
        <ele>78.71190643310547</ele>
        <time>2016-09-21T11:42:54.000Z</time>
      </trkpt>
      <trkpt lon="0.3441447615623474" lat="49.2787094116210938">
        <ele>79.32318115234375</ele>
        <time>2016-09-21T11:42:57.000Z</time>
      </trkpt>
      <trkpt lon="0.3441684842109680" lat="49.2787895202636719">
        <ele>79.94844818115234</ele>
        <time>2016-09-21T11:43:00.000Z</time>
      </trkpt>
      <trkpt lon="0.3441747725009918" lat="49.2788391113281250">
        <ele>80.52977752685547</ele>
        <time>2016-09-21T11:43:02.000Z</time>
      </trkpt>
      <trkpt lon="0.3441887795925140" lat="49.2789154052734375">
        <ele>81.1407470703125</ele>
        <time>2016-09-21T11:43:05.000Z</time>
      </trkpt>
      <trkpt lon="0.3441945612430573" lat="49.2789840698242188">
        <ele>81.78382873535156</ele>
        <time>2016-09-21T11:43:08.000Z</time>
      </trkpt>
      <trkpt lon="0.3442078828811646" lat="49.2790412902832031">
        <ele>82.36088562011719</ele>
        <time>2016-09-21T11:43:10.000Z</time>
      </trkpt>
      <trkpt lon="0.3442420065402985" lat="49.2791213989257812">
        <ele>82.9809799194336</ele>
        <time>2016-09-21T11:43:13.000Z</time>
      </trkpt>
      <trkpt lon="0.3442780375480652" lat="49.2792015075683594">
        <ele>83.66829681396484</ele>
        <time>2016-09-21T11:43:16.000Z</time>
      </trkpt>
      <trkpt lon="0.3443111479282379" lat="49.2792663574218750">
        <ele>84.32066345214844</ele>
        <time>2016-09-21T11:43:19.000Z</time>
      </trkpt>
      <trkpt lon="0.3443326950073242" lat="49.2793006896972656">
        <ele>84.92334747314453</ele>
        <time>2016-09-21T11:43:21.000Z</time>
      </trkpt>
      <trkpt lon="0.3443719148635864" lat="49.2793579101562500">
        <ele>85.5260238647461</ele>
        <time>2016-09-21T11:43:24.000Z</time>
      </trkpt>
      <trkpt lon="0.3443927764892578" lat="49.2793960571289062">
        <ele>86.00611877441406</ele>
        <time>2016-09-21T11:43:26.000Z</time>
      </trkpt>
      <trkpt lon="0.3444180190563202" lat="49.2794494628906250">
        <ele>86.41344451904297</ele>
        <time>2016-09-21T11:43:29.000Z</time>
      </trkpt>
      <trkpt lon="0.3444599211215973" lat="49.2795143127441406">
        <ele>86.84337615966797</ele>
        <time>2016-09-21T11:43:32.000Z</time>
      </trkpt>
      <trkpt lon="0.3444887697696686" lat="49.2795600891113281">
        <ele>87.29826354980469</ele>
        <time>2016-09-21T11:43:34.000Z</time>
      </trkpt>
      <trkpt lon="0.3445204496383667" lat="49.2796401977539062">
        <ele>87.75495910644531</ele>
        <time>2016-09-21T11:43:37.000Z</time>
      </trkpt>
      <trkpt lon="0.3445637822151184" lat="49.2797203063964844">
        <ele>88.28797149658203</ele>
        <time>2016-09-21T11:43:40.000Z</time>
      </trkpt>
      <trkpt lon="0.3445831537246704" lat="49.2797737121582031">
        <ele>88.81144714355469</ele>
        <time>2016-09-21T11:43:42.000Z</time>
      </trkpt>
      <trkpt lon="0.3445940315723419" lat="49.2798080444335938">
        <ele>89.26145935058594</ele>
        <time>2016-09-21T11:43:44.000Z</time>
      </trkpt>
      <trkpt lon="0.3445796072483063" lat="49.2798728942871094">
        <ele>89.6338119506836</ele>
        <time>2016-09-21T11:43:47.000Z</time>
      </trkpt>
      <trkpt lon="0.3446253836154938" lat="49.2799644470214844">
        <ele>90.0488052368164</ele>
        <time>2016-09-21T11:43:50.000Z</time>
      </trkpt>
      <trkpt lon="0.3446549773216248" lat="49.2800445556640625">
        <ele>90.40579223632812</ele>
        <time>2016-09-21T11:43:52.000Z</time>
      </trkpt>
      <trkpt lon="0.3446645438671112" lat="49.2801132202148438">
        <ele>90.70133209228516</ele>
        <time>2016-09-21T11:43:54.000Z</time>
      </trkpt>
      <trkpt lon="0.3446812927722931" lat="49.2802124023437500">
        <ele>90.97318267822266</ele>
        <time>2016-09-21T11:43:57.000Z</time>
      </trkpt>
      <trkpt lon="0.3447025716304779" lat="49.2802696228027344">
        <ele>91.27226257324219</ele>
        <time>2016-09-21T11:43:59.000Z</time>
      </trkpt>
      <trkpt lon="0.3447246253490448" lat="49.2803230285644531">
        <ele>91.45677185058594</ele>
        <time>2016-09-21T11:44:01.000Z</time>
      </trkpt>
      <trkpt lon="0.3447456657886505" lat="49.2803726196289062">
        <ele>91.59719848632812</ele>
        <time>2016-09-21T11:44:03.000Z</time>
      </trkpt>
      <trkpt lon="0.3447775244712830" lat="49.2804450988769531">
        <ele>91.7795181274414</ele>
        <time>2016-09-21T11:44:06.000Z</time>
      </trkpt>
      <trkpt lon="0.3447954654693604" lat="49.2804985046386719">
        <ele>91.96759033203125</ele>
        <time>2016-09-21T11:44:08.000Z</time>
      </trkpt>
      <trkpt lon="0.3448161482810974" lat="49.2805557250976562">
        <ele>92.15083312988281</ele>
        <time>2016-09-21T11:44:10.000Z</time>
      </trkpt>
      <trkpt lon="0.3448324203491211" lat="49.2806053161621094">
        <ele>92.31906127929688</ele>
        <time>2016-09-21T11:44:12.000Z</time>
      </trkpt>
      <trkpt lon="0.3448466658592224" lat="49.2806854248046875">
        <ele>92.4650650024414</ele>
        <time>2016-09-21T11:44:15.000Z</time>
      </trkpt>
      <trkpt lon="0.3448639214038849" lat="49.2807426452636719">
        <ele>92.58097839355469</ele>
        <time>2016-09-21T11:44:17.000Z</time>
      </trkpt>
      <trkpt lon="0.3448967039585114" lat="49.2808189392089844">
        <ele>92.71753692626953</ele>
        <time>2016-09-21T11:44:20.000Z</time>
      </trkpt>
      <trkpt lon="0.3449282348155975" lat="49.2808914184570312">
        <ele>92.8853759765625</ele>
        <time>2016-09-21T11:44:23.000Z</time>
      </trkpt>
      <trkpt lon="0.3449438214302063" lat="49.2809638977050781">
        <ele>93.06439971923828</ele>
        <time>2016-09-21T11:44:26.000Z</time>
      </trkpt>
      <trkpt lon="0.3449710607528687" lat="49.2810668945312500">
        <ele>93.28184509277344</ele>
        <time>2016-09-21T11:44:29.000Z</time>
      </trkpt>
      <trkpt lon="0.3449828028678894" lat="49.2811317443847656">
        <ele>93.49757385253906</ele>
        <time>2016-09-21T11:44:31.000Z</time>
      </trkpt>
      <trkpt lon="0.3449842929840088" lat="49.2812232971191406">
        <ele>93.66971588134766</ele>
        <time>2016-09-21T11:44:34.000Z</time>
      </trkpt>
      <trkpt lon="0.3449810445308685" lat="49.2813110351562500">
        <ele>93.77668762207031</ele>
        <time>2016-09-21T11:44:37.000Z</time>
      </trkpt>
      <trkpt lon="0.3450098633766174" lat="49.2813568115234375">
        <ele>93.90357208251953</ele>
        <time>2016-09-21T11:44:39.000Z</time>
      </trkpt>
      <trkpt lon="0.3450526893138885" lat="49.2814025878906250">
        <ele>94.09912109375</ele>
        <time>2016-09-21T11:44:41.000Z</time>
      </trkpt>
      <trkpt lon="0.3450914919376373" lat="49.2814483642578125">
        <ele>94.3840103149414</ele>
        <time>2016-09-21T11:44:43.000Z</time>
      </trkpt>
      <trkpt lon="0.3451294004917145" lat="49.2815132141113281">
        <ele>94.77410125732422</ele>
        <time>2016-09-21T11:44:46.000Z</time>
      </trkpt>
      <trkpt lon="0.3451482355594635" lat="49.2815475463867188">
        <ele>95.221923828125</ele>
        <time>2016-09-21T11:44:48.000Z</time>
      </trkpt>
      <trkpt lon="0.3451906740665436" lat="49.2816085815429688">
        <ele>95.74034118652344</ele>
        <time>2016-09-21T11:44:51.000Z</time>
      </trkpt>
      <trkpt lon="0.3452278077602386" lat="49.2816619873046875">
        <ele>96.24830627441406</ele>
        <time>2016-09-21T11:44:53.000Z</time>
      </trkpt>
      <trkpt lon="0.3452555239200592" lat="49.2817153930664062">
        <ele>96.74909973144531</ele>
        <time>2016-09-21T11:44:55.000Z</time>
      </trkpt>
      <trkpt lon="0.3452813625335693" lat="49.2818031311035156">
        <ele>97.25801849365234</ele>
        <time>2016-09-21T11:44:58.000Z</time>
      </trkpt>
      <trkpt lon="0.3453185558319092" lat="49.2818717956542969">
        <ele>97.85240173339844</ele>
        <time>2016-09-21T11:45:01.000Z</time>
      </trkpt>
      <trkpt lon="0.3453489840030670" lat="49.2819175720214844">
        <ele>98.43186950683594</ele>
        <time>2016-09-21T11:45:03.000Z</time>
      </trkpt>
      <trkpt lon="0.3453826904296875" lat="49.2819976806640625">
        <ele>99.03765869140625</ele>
        <time>2016-09-21T11:45:06.000Z</time>
      </trkpt>
      <trkpt lon="0.3453972637653351" lat="49.2820510864257812">
        <ele>99.60791015625</ele>
        <time>2016-09-21T11:45:08.000Z</time>
      </trkpt>
      <trkpt lon="0.3454193174839020" lat="49.2821350097656250">
        <ele>100.1654052734375</ele>
        <time>2016-09-21T11:45:11.000Z</time>
      </trkpt>
      <trkpt lon="0.3454505801200867" lat="49.2822227478027344">
        <ele>100.71368408203125</ele>
        <time>2016-09-21T11:45:14.000Z</time>
      </trkpt>
      <trkpt lon="0.3454783260822296" lat="49.2822990417480469">
        <ele>101.26971435546875</ele>
        <time>2016-09-21T11:45:17.000Z</time>
      </trkpt>
      <trkpt lon="0.3454978466033936" lat="49.2823448181152344">
        <ele>101.767333984375</ele>
        <time>2016-09-21T11:45:19.000Z</time>
      </trkpt>
      <trkpt lon="0.3455341458320618" lat="49.2824249267578125">
        <ele>102.34124755859375</ele>
        <time>2016-09-21T11:45:22.000Z</time>
      </trkpt>
      <trkpt lon="0.3455665111541748" lat="49.2825164794921875">
        <ele>102.93743896484375</ele>
        <time>2016-09-21T11:45:25.000Z</time>
      </trkpt>
      <trkpt lon="0.3456098437309265" lat="49.2825851440429688">
        <ele>103.50401306152344</ele>
        <time>2016-09-21T11:45:28.000Z</time>
      </trkpt>
      <trkpt lon="0.3456273674964905" lat="49.2826232910156250">
        <ele>103.98309326171875</ele>
        <time>2016-09-21T11:45:30.000Z</time>
      </trkpt>
      <trkpt lon="0.3456684350967407" lat="49.2826843261718750">
        <ele>104.45149993896484</ele>
        <time>2016-09-21T11:45:33.000Z</time>
      </trkpt>
      <trkpt lon="0.3456980288028717" lat="49.2827377319335938">
        <ele>104.80250549316406</ele>
        <time>2016-09-21T11:45:35.000Z</time>
      </trkpt>
      <trkpt lon="0.3457438647747040" lat="49.2827796936035156">
        <ele>105.080322265625</ele>
        <time>2016-09-21T11:45:37.000Z</time>
      </trkpt>
      <trkpt lon="0.3458281755447388" lat="49.2828254699707031">
        <ele>105.35150146484375</ele>
        <time>2016-09-21T11:45:40.000Z</time>
      </trkpt>
      <trkpt lon="0.3458690047264099" lat="49.2828598022460938">
        <ele>105.70405578613281</ele>
        <time>2016-09-21T11:45:42.000Z</time>
      </trkpt>
      <trkpt lon="0.3459431827068329" lat="49.2829246520996094">
        <ele>106.21240234375</ele>
        <time>2016-09-21T11:45:45.000Z</time>
      </trkpt>
      <trkpt lon="0.3460420072078705" lat="49.2829856872558594">
        <ele>107.01651763916016</ele>
        <time>2016-09-21T11:45:48.000Z</time>
      </trkpt>
      <trkpt lon="0.3461133539676666" lat="49.2830429077148438">
        <ele>107.97770690917969</ele>
        <time>2016-09-21T11:45:51.000Z</time>
      </trkpt>
      <trkpt lon="0.3461597859859467" lat="49.2830696105957031">
        <ele>108.99609375</ele>
        <time>2016-09-21T11:45:53.000Z</time>
      </trkpt>
      <trkpt lon="0.3462318480014801" lat="49.2831306457519531">
        <ele>110.1041488647461</ele>
        <time>2016-09-21T11:45:56.000Z</time>
      </trkpt>
      <trkpt lon="0.3462759554386139" lat="49.2831687927246094">
        <ele>111.1047592163086</ele>
        <time>2016-09-21T11:45:58.000Z</time>
      </trkpt>
      <trkpt lon="0.3463209569454193" lat="49.2832069396972656">
        <ele>111.90611267089844</ele>
        <time>2016-09-21T11:46:00.000Z</time>
      </trkpt>
      <trkpt lon="0.3463846743106842" lat="49.2832756042480469">
        <ele>112.64115142822266</ele>
        <time>2016-09-21T11:46:03.000Z</time>
      </trkpt>
      <trkpt lon="0.3464618623256683" lat="49.2833480834960938">
        <ele>113.4220199584961</ele>
        <time>2016-09-21T11:46:06.000Z</time>
      </trkpt>
      <trkpt lon="0.3465067744255066" lat="49.2833938598632812">
        <ele>114.1259994506836</ele>
        <time>2016-09-21T11:46:08.000Z</time>
      </trkpt>
      <trkpt lon="0.3465709090232849" lat="49.2834587097167969">
        <ele>114.84913635253906</ele>
        <time>2016-09-21T11:46:11.000Z</time>
      </trkpt>
      <trkpt lon="0.3466009199619293" lat="49.2835044860839844">
        <ele>115.47401428222656</ele>
        <time>2016-09-21T11:46:13.000Z</time>
      </trkpt>
      <trkpt lon="0.3466315865516663" lat="49.2835464477539062">
        <ele>115.9721908569336</ele>
        <time>2016-09-21T11:46:15.000Z</time>
      </trkpt>
      <trkpt lon="0.3466668725013733" lat="49.2835922241210938">
        <ele>116.27115631103516</ele>
        <time>2016-09-21T11:46:17.000Z</time>
      </trkpt>
      <trkpt lon="0.3467082083225250" lat="49.2836380004882812">
        <ele>116.45518493652344</ele>
        <time>2016-09-21T11:46:19.000Z</time>
      </trkpt>
      <trkpt lon="0.3467758595943451" lat="49.2837066650390625">
        <ele>116.51792907714844</ele>
        <time>2016-09-21T11:46:22.000Z</time>
      </trkpt>
      <trkpt lon="0.3468471765518188" lat="49.2837715148925781">
        <ele>116.57524108886719</ele>
        <time>2016-09-21T11:46:25.000Z</time>
      </trkpt>
      <trkpt lon="0.3468889296054840" lat="49.2838134765625000">
        <ele>116.61539459228516</ele>
        <time>2016-09-21T11:46:27.000Z</time>
      </trkpt>
      <trkpt lon="0.3469448387622833" lat="49.2838706970214844">
        <ele>116.64591217041016</ele>
        <time>2016-09-21T11:46:30.000Z</time>
      </trkpt>
      <trkpt lon="0.3470110297203064" lat="49.2839241027832031">
        <ele>116.67903137207031</ele>
        <time>2016-09-21T11:46:33.000Z</time>
      </trkpt>
      <trkpt lon="0.3470533788204193" lat="49.2839622497558594">
        <ele>116.68562316894531</ele>
        <time>2016-09-21T11:46:35.000Z</time>
      </trkpt>
      <trkpt lon="0.3470984697341919" lat="49.2839965820312500">
        <ele>116.68080139160156</ele>
        <time>2016-09-21T11:46:37.000Z</time>
      </trkpt>
      <trkpt lon="0.3471753299236298" lat="49.2840614318847656">
        <ele>116.6565170288086</ele>
        <time>2016-09-21T11:46:40.000Z</time>
      </trkpt>
      <trkpt lon="0.3472441434860229" lat="49.2841148376464844">
        <ele>116.63029479980469</ele>
        <time>2016-09-21T11:46:43.000Z</time>
      </trkpt>
      <trkpt lon="0.3472976088523865" lat="49.2841567993164062">
        <ele>116.57820129394531</ele>
        <time>2016-09-21T11:46:45.000Z</time>
      </trkpt>
      <trkpt lon="0.3473480045795441" lat="49.2842140197753906">
        <ele>116.66646575927734</ele>
        <time>2016-09-21T11:46:47.000Z</time>
      </trkpt>
      <trkpt lon="0.3473916649818420" lat="49.2842712402343750">
        <ele>116.89969635009766</ele>
        <time>2016-09-21T11:46:49.000Z</time>
      </trkpt>
      <trkpt lon="0.3474882245063782" lat="49.2843704223632812">
        <ele>117.4135971069336</ele>
        <time>2016-09-21T11:46:52.000Z</time>
      </trkpt>
      <trkpt lon="0.3476196527481079" lat="49.2844200134277344">
        <ele>118.22120666503906</ele>
        <time>2016-09-21T11:46:55.000Z</time>
      </trkpt>
      <trkpt lon="0.3477276265621185" lat="49.2844467163085938">
        <ele>119.24910736083984</ele>
        <time>2016-09-21T11:46:57.000Z</time>
      </trkpt>
      <trkpt lon="0.3478170335292816" lat="49.2844696044921875">
        <ele>120.30693054199219</ele>
        <time>2016-09-21T11:46:59.000Z</time>
      </trkpt>
      <trkpt lon="0.3479324579238892" lat="49.2845077514648438">
        <ele>121.40208435058594</ele>
        <time>2016-09-21T11:47:02.000Z</time>
      </trkpt>
      <trkpt lon="0.3480477035045624" lat="49.2845344543457031">
        <ele>122.4043960571289</ele>
        <time>2016-09-21T11:47:05.000Z</time>
      </trkpt>
      <trkpt lon="0.3481576740741730" lat="49.2845573425292969">
        <ele>123.2728500366211</ele>
        <time>2016-09-21T11:47:08.000Z</time>
      </trkpt>
      <trkpt lon="0.3482322096824646" lat="49.2845573425292969">
        <ele>124.0389175415039</ele>
        <time>2016-09-21T11:47:10.000Z</time>
      </trkpt>
      <trkpt lon="0.3483057916164398" lat="49.2845764160156250">
        <ele>124.73182678222656</ele>
        <time>2016-09-21T11:47:12.000Z</time>
      </trkpt>
      <trkpt lon="0.3484140932559967" lat="49.2846145629882812">
        <ele>125.39290618896484</ele>
        <time>2016-09-21T11:47:15.000Z</time>
      </trkpt>
      <trkpt lon="0.3484967350959778" lat="49.2846374511718750">
        <ele>126.02764892578125</ele>
        <time>2016-09-21T11:47:17.000Z</time>
      </trkpt>
      <trkpt lon="0.3486047089099884" lat="49.2846794128417969">
        <ele>126.69001770019531</ele>
        <time>2016-09-21T11:47:20.000Z</time>
      </trkpt>
      <trkpt lon="0.3487004935741425" lat="49.2847366333007812">
        <ele>127.39571380615234</ele>
        <time>2016-09-21T11:47:23.000Z</time>
      </trkpt>
      <trkpt lon="0.3487784564495087" lat="49.2847976684570312">
        <ele>128.1312255859375</ele>
        <time>2016-09-21T11:47:26.000Z</time>
      </trkpt>
      <trkpt lon="0.3488204479217529" lat="49.2848358154296875">
        <ele>128.76950073242188</ele>
        <time>2016-09-21T11:47:28.000Z</time>
      </trkpt>
      <trkpt lon="0.3488614261150360" lat="49.2848854064941406">
        <ele>129.31793212890625</ele>
        <time>2016-09-21T11:47:31.000Z</time>
      </trkpt>
      <trkpt lon="0.3488894999027252" lat="49.2849502563476562">
        <ele>129.7088623046875</ele>
        <time>2016-09-21T11:47:34.000Z</time>
      </trkpt>
      <trkpt lon="0.3489145040512085" lat="49.2849998474121094">
        <ele>129.97596740722656</ele>
        <time>2016-09-21T11:47:36.000Z</time>
      </trkpt>
      <trkpt lon="0.3489530384540558" lat="49.2850646972656250">
        <ele>130.27175903320312</ele>
        <time>2016-09-21T11:47:39.000Z</time>
      </trkpt>
      <trkpt lon="0.3489748537540436" lat="49.2850990295410156">
        <ele>130.5791473388672</ele>
        <time>2016-09-21T11:47:41.000Z</time>
      </trkpt>
      <trkpt lon="0.3489938676357269" lat="49.2851295471191406">
        <ele>130.89471435546875</ele>
        <time>2016-09-21T11:47:43.000Z</time>
      </trkpt>
      <trkpt lon="0.3489885926246643" lat="49.2851905822753906">
        <ele>131.23434448242188</ele>
        <time>2016-09-21T11:47:46.000Z</time>
      </trkpt>
      <trkpt lon="0.3489798605442047" lat="49.2852478027343750">
        <ele>131.58444213867188</ele>
        <time>2016-09-21T11:47:48.000Z</time>
      </trkpt>
      <trkpt lon="0.3489772677421570" lat="49.2853355407714844">
        <ele>131.86502075195312</ele>
        <time>2016-09-21T11:47:51.000Z</time>
      </trkpt>
      <trkpt lon="0.3489824533462524" lat="49.2853927612304688">
        <ele>132.1293182373047</ele>
        <time>2016-09-21T11:47:53.000Z</time>
      </trkpt>
      <trkpt lon="0.3489938676357269" lat="49.2854576110839844">
        <ele>132.40234375</ele>
        <time>2016-09-21T11:47:55.000Z</time>
      </trkpt>
      <trkpt lon="0.3489737510681152" lat="49.2855491638183594">
        <ele>132.6905975341797</ele>
        <time>2016-09-21T11:47:58.000Z</time>
      </trkpt>
      <trkpt lon="0.3489479422569275" lat="49.2856254577636719">
        <ele>132.98597717285156</ele>
        <time>2016-09-21T11:48:01.000Z</time>
      </trkpt>
      <trkpt lon="0.3489391207695007" lat="49.2857017517089844">
        <ele>133.27313232421875</ele>
        <time>2016-09-21T11:48:04.000Z</time>
      </trkpt>
      <trkpt lon="0.3489280641078949" lat="49.2857551574707031">
        <ele>133.5466766357422</ele>
        <time>2016-09-21T11:48:06.000Z</time>
      </trkpt>
      <trkpt lon="0.3488923609256744" lat="49.2858428955078125">
        <ele>133.82376098632812</ele>
        <time>2016-09-21T11:48:09.000Z</time>
      </trkpt>
      <trkpt lon="0.3488673865795135" lat="49.2859230041503906">
        <ele>134.13870239257812</ele>
        <time>2016-09-21T11:48:12.000Z</time>
      </trkpt>
      <trkpt lon="0.3488547205924988" lat="49.2859802246093750">
        <ele>134.4864501953125</ele>
        <time>2016-09-21T11:48:14.000Z</time>
      </trkpt>
      <trkpt lon="0.3488340973854065" lat="49.2860565185546875">
        <ele>134.8689422607422</ele>
        <time>2016-09-21T11:48:17.000Z</time>
      </trkpt>
      <trkpt lon="0.3488175868988037" lat="49.2861061096191406">
        <ele>135.27145385742188</ele>
        <time>2016-09-21T11:48:19.000Z</time>
      </trkpt>
      <trkpt lon="0.3488110601902008" lat="49.2861595153808594">
        <ele>135.6787872314453</ele>
        <time>2016-09-21T11:48:21.000Z</time>
      </trkpt>
      <trkpt lon="0.3488183617591858" lat="49.2862129211425781">
        <ele>136.0680694580078</ele>
        <time>2016-09-21T11:48:23.000Z</time>
      </trkpt>
      <trkpt lon="0.3488156795501709" lat="49.2863044738769531">
        <ele>136.50900268554688</ele>
        <time>2016-09-21T11:48:26.000Z</time>
      </trkpt>
      <trkpt lon="0.3488112986087799" lat="49.2863655090332031">
        <ele>136.9353790283203</ele>
        <time>2016-09-21T11:48:28.000Z</time>
      </trkpt>
      <trkpt lon="0.3488084673881531" lat="49.2864265441894531">
        <ele>137.38450622558594</ele>
        <time>2016-09-21T11:48:30.000Z</time>
      </trkpt>
      <trkpt lon="0.3488120734691620" lat="49.2865219116210938">
        <ele>137.89334106445312</ele>
        <time>2016-09-21T11:48:33.000Z</time>
      </trkpt>
      <trkpt lon="0.3488207757472992" lat="49.2865829467773438">
        <ele>138.4120635986328</ele>
        <time>2016-09-21T11:48:35.000Z</time>
      </trkpt>
      <trkpt lon="0.3488213717937469" lat="49.2866783142089844">
        <ele>138.9264678955078</ele>
        <time>2016-09-21T11:48:38.000Z</time>
      </trkpt>
      <trkpt lon="0.3488318324089050" lat="49.2867507934570312">
        <ele>139.3911895751953</ele>
        <time>2016-09-21T11:48:41.000Z</time>
      </trkpt>
      <trkpt lon="0.3488338589668274" lat="49.2868003845214844">
        <ele>139.7940216064453</ele>
        <time>2016-09-21T11:48:43.000Z</time>
      </trkpt>
      <trkpt lon="0.3488016724586487" lat="49.2868804931640625">
        <ele>140.0982666015625</ele>
        <time>2016-09-21T11:48:46.000Z</time>
      </trkpt>
      <trkpt lon="0.3487590849399567" lat="49.2869720458984375">
        <ele>140.359375</ele>
        <time>2016-09-21T11:48:49.000Z</time>
      </trkpt>
      <trkpt lon="0.3487424850463867" lat="49.2870368957519531">
        <ele>140.53125</ele>
        <time>2016-09-21T11:48:51.000Z</time>
      </trkpt>
      <trkpt lon="0.3487403988838196" lat="49.2870864868164062">
        <ele>140.69140625</ele>
        <time>2016-09-21T11:48:53.000Z</time>
      </trkpt>
      <trkpt lon="0.3487529754638672" lat="49.2871513366699219">
        <ele>140.859375</ele>
        <time>2016-09-21T11:48:56.000Z</time>
      </trkpt>
      <trkpt lon="0.3487527072429657" lat="49.2871894836425781">
        <ele>141.0078125</ele>
        <time>2016-09-21T11:48:58.000Z</time>
      </trkpt>
      <trkpt lon="0.3487440943717957" lat="49.2872352600097656">
        <ele>141.134765625</ele>
        <time>2016-09-21T11:49:01.000Z</time>
      </trkpt>
      <trkpt lon="0.3487248122692108" lat="49.2872962951660156">
        <ele>141.259765625</ele>
        <time>2016-09-21T11:49:04.000Z</time>
      </trkpt>
      <trkpt lon="0.3487142324447632" lat="49.2873458862304688">
        <ele>141.384765625</ele>
        <time>2016-09-21T11:49:06.000Z</time>
      </trkpt>
      <trkpt lon="0.3487148284912109" lat="49.2874145507812500">
        <ele>141.51171875</ele>
        <time>2016-09-21T11:49:09.000Z</time>
      </trkpt>
      <trkpt lon="0.3487099707126617" lat="49.2874832153320312">
        <ele>141.65234375</ele>
        <time>2016-09-21T11:49:12.000Z</time>
      </trkpt>
      <trkpt lon="0.3486956357955933" lat="49.2875442504882812">
        <ele>141.79470825195312</ele>
        <time>2016-09-21T11:49:14.000Z</time>
      </trkpt>
      <trkpt lon="0.3486853241920471" lat="49.2876434326171875">
        <ele>141.94097900390625</ele>
        <time>2016-09-21T11:49:17.000Z</time>
      </trkpt>
      <trkpt lon="0.3486868441104889" lat="49.2876968383789062">
        <ele>142.0819549560547</ele>
        <time>2016-09-21T11:49:19.000Z</time>
      </trkpt>
      <trkpt lon="0.3487133383750916" lat="49.2877960205078125">
        <ele>142.22677612304688</ele>
        <time>2016-09-21T11:49:22.000Z</time>
      </trkpt>
      <trkpt lon="0.3487294912338257" lat="49.2878570556640625">
        <ele>142.3613739013672</ele>
        <time>2016-09-21T11:49:24.000Z</time>
      </trkpt>
      <trkpt lon="0.3487361371517181" lat="49.2879524230957031">
        <ele>142.5067596435547</ele>
        <time>2016-09-21T11:49:27.000Z</time>
      </trkpt>
      <trkpt lon="0.3487542271614075" lat="49.2880668640136719">
        <ele>142.6624298095703</ele>
        <time>2016-09-21T11:49:30.000Z</time>
      </trkpt>
      <trkpt lon="0.3487495481967926" lat="49.2881584167480469">
        <ele>142.83290100097656</ele>
        <time>2016-09-21T11:49:33.000Z</time>
      </trkpt>
      <trkpt lon="0.3487318456172943" lat="49.2882232666015625">
        <ele>142.98605346679688</ele>
        <time>2016-09-21T11:49:35.000Z</time>
      </trkpt>
      <trkpt lon="0.3486966490745544" lat="49.2883758544921875">
        <ele>143.1676483154297</ele>
        <time>2016-09-21T11:49:38.000Z</time>
      </trkpt>
      <trkpt lon="0.3486786186695099" lat="49.2885169982910156">
        <ele>143.3855743408203</ele>
        <time>2016-09-21T11:49:41.000Z</time>
      </trkpt>
      <trkpt lon="0.3486645519733429" lat="49.2886505126953125">
        <ele>143.62916564941406</ele>
        <time>2016-09-21T11:49:44.000Z</time>
      </trkpt>
      <trkpt lon="0.3486371338367462" lat="49.2887802124023438">
        <ele>143.90924072265625</ele>
        <time>2016-09-21T11:49:47.000Z</time>
      </trkpt>
      <trkpt lon="0.3486122488975525" lat="49.2888946533203125">
        <ele>144.23377990722656</ele>
        <time>2016-09-21T11:49:49.000Z</time>
      </trkpt>
      <trkpt lon="0.3486052751541138" lat="49.2890396118164062">
        <ele>144.58767700195312</ele>
        <time>2016-09-21T11:49:52.000Z</time>
      </trkpt>
      <trkpt lon="0.3486090600490570" lat="49.2891769409179688">
        <ele>144.9373016357422</ele>
        <time>2016-09-21T11:49:55.000Z</time>
      </trkpt>
      <trkpt lon="0.3485978245735168" lat="49.2893028259277344">
        <ele>145.14878845214844</ele>
        <time>2016-09-21T11:49:58.000Z</time>
      </trkpt>
      <trkpt lon="0.3485612869262695" lat="49.2894134521484375">
        <ele>145.2321014404297</ele>
        <time>2016-09-21T11:50:01.000Z</time>
      </trkpt>
      <trkpt lon="0.3485472798347473" lat="49.2894935607910156">
        <ele>145.20404052734375</ele>
        <time>2016-09-21T11:50:03.000Z</time>
      </trkpt>
      <trkpt lon="0.3485232293605804" lat="49.2896232604980469">
        <ele>145.0168914794922</ele>
        <time>2016-09-21T11:50:06.000Z</time>
      </trkpt>
      <trkpt lon="0.3485284149646759" lat="49.2897796630859375">
        <ele>144.6698760986328</ele>
        <time>2016-09-21T11:50:09.000Z</time>
      </trkpt>
      <trkpt lon="0.3485321104526520" lat="49.2898712158203125">
        <ele>144.3355712890625</ele>
        <time>2016-09-21T11:50:11.000Z</time>
      </trkpt>
      <trkpt lon="0.3485300242900848" lat="49.2899589538574219">
        <ele>144.0078582763672</ele>
        <time>2016-09-21T11:50:13.000Z</time>
      </trkpt>
      <trkpt lon="0.3485243022441864" lat="49.2900657653808594">
        <ele>143.71275329589844</ele>
        <time>2016-09-21T11:50:16.000Z</time>
      </trkpt>
      <trkpt lon="0.3484995961189270" lat="49.2901992797851562">
        <ele>143.5155029296875</ele>
        <time>2016-09-21T11:50:19.000Z</time>
      </trkpt>
      <trkpt lon="0.3485036790370941" lat="49.2903709411621094">
        <ele>143.44622802734375</ele>
        <time>2016-09-21T11:50:22.000Z</time>
      </trkpt>
      <trkpt lon="0.3484995067119598" lat="49.2905120849609375">
        <ele>143.459228515625</ele>
        <time>2016-09-21T11:50:25.000Z</time>
      </trkpt>
      <trkpt lon="0.3484654724597931" lat="49.2906455993652344">
        <ele>143.5483856201172</ele>
        <time>2016-09-21T11:50:28.000Z</time>
      </trkpt>
      <trkpt lon="0.3484499752521515" lat="49.2908248901367188">
        <ele>143.68821716308594</ele>
        <time>2016-09-21T11:50:31.000Z</time>
      </trkpt>
      <trkpt lon="0.3484103977680206" lat="49.2909469604492188">
        <ele>143.81033325195312</ele>
        <time>2016-09-21T11:50:34.000Z</time>
      </trkpt>
      <trkpt lon="0.3483856022357941" lat="49.2910766601562500">
        <ele>143.8982696533203</ele>
        <time>2016-09-21T11:50:37.000Z</time>
      </trkpt>
      <trkpt lon="0.3484008610248566" lat="49.2911491394042969">
        <ele>143.96018981933594</ele>
        <time>2016-09-21T11:50:39.000Z</time>
      </trkpt>
      <trkpt lon="0.3483849167823792" lat="49.2912864685058594">
        <ele>143.99815368652344</ele>
        <time>2016-09-21T11:50:42.000Z</time>
      </trkpt>
      <trkpt lon="0.3483709990978241" lat="49.2914428710937500">
        <ele>144.0</ele>
        <time>2016-09-21T11:50:45.000Z</time>
      </trkpt>
      <trkpt lon="0.3483362197875977" lat="49.2918014526367188">
        <ele>144.03233337402344</ele>
        <time>2016-09-21T11:50:53.000Z</time>
      </trkpt>
      <trkpt lon="0.3483472168445587" lat="49.2919502258300781">
        <ele>144.10183715820312</ele>
        <time>2016-09-21T11:50:56.000Z</time>
      </trkpt>
      <trkpt lon="0.3483350574970245" lat="49.2920417785644531">
        <ele>144.19186401367188</ele>
        <time>2016-09-21T11:50:58.000Z</time>
      </trkpt>
      <trkpt lon="0.3483161926269531" lat="49.2921867370605469">
        <ele>144.3112030029297</ele>
        <time>2016-09-21T11:51:01.000Z</time>
      </trkpt>
      <trkpt lon="0.3483027815818787" lat="49.2922706604003906">
        <ele>144.4463653564453</ele>
        <time>2016-09-21T11:51:03.000Z</time>
      </trkpt>
      <trkpt lon="0.3482765555381775" lat="49.2923583984375000">
        <ele>144.56410217285156</ele>
        <time>2016-09-21T11:51:05.000Z</time>
      </trkpt>
      <trkpt lon="0.3482638895511627" lat="49.2924880981445312">
        <ele>144.6749725341797</ele>
        <time>2016-09-21T11:51:08.000Z</time>
      </trkpt>
      <trkpt lon="0.3482481241226196" lat="49.2926254272460938">
        <ele>144.82545471191406</ele>
        <time>2016-09-21T11:51:11.000Z</time>
      </trkpt>
      <trkpt lon="0.3482322990894318" lat="49.2927131652832031">
        <ele>144.9838104248047</ele>
        <time>2016-09-21T11:51:13.000Z</time>
      </trkpt>
      <trkpt lon="0.3481681644916534" lat="49.2928771972656250">
        <ele>145.19100952148438</ele>
        <time>2016-09-21T11:51:16.000Z</time>
      </trkpt>
      <trkpt lon="0.3481507301330566" lat="49.2929611206054688">
        <ele>145.41824340820312</ele>
        <time>2016-09-21T11:51:19.000Z</time>
      </trkpt>
      <trkpt lon="0.3481205701828003" lat="49.2931213378906250">
        <ele>145.68600463867188</ele>
        <time>2016-09-21T11:51:22.000Z</time>
      </trkpt>
      <trkpt lon="0.3481830060482025" lat="49.2933464050292969">
        <ele>146.0166778564453</ele>
        <time>2016-09-21T11:51:25.000Z</time>
      </trkpt>
      <trkpt lon="0.3481840789318085" lat="49.2934913635253906">
        <ele>146.38485717773438</ele>
        <time>2016-09-21T11:51:28.000Z</time>
      </trkpt>
      <trkpt lon="0.3481597006320953" lat="49.2936248779296875">
        <ele>146.75479125976562</ele>
        <time>2016-09-21T11:51:31.000Z</time>
      </trkpt>
      <trkpt lon="0.3481362164020538" lat="49.2937126159667969">
        <ele>147.1342010498047</ele>
        <time>2016-09-21T11:51:33.000Z</time>
      </trkpt>
      <trkpt lon="0.3481468856334686" lat="49.2938385009765625">
        <ele>147.51144409179688</ele>
        <time>2016-09-21T11:51:36.000Z</time>
      </trkpt>
      <trkpt lon="0.3481228947639465" lat="49.2939834594726562">
        <ele>147.84042358398438</ele>
        <time>2016-09-21T11:51:39.000Z</time>
      </trkpt>
      <trkpt lon="0.3480876088142395" lat="49.2940635681152344">
        <ele>148.13760375976562</ele>
        <time>2016-09-21T11:51:41.000Z</time>
      </trkpt>
      <trkpt lon="0.3480799794197083" lat="49.2941589355468750">
        <ele>148.41989135742188</ele>
        <time>2016-09-21T11:51:43.000Z</time>
      </trkpt>
      <trkpt lon="0.3480623960494995" lat="49.2942695617675781">
        <ele>148.6632080078125</ele>
        <time>2016-09-21T11:51:46.000Z</time>
      </trkpt>
      <trkpt lon="0.3480136096477509" lat="49.2944374084472656">
        <ele>148.83779907226562</ele>
        <time>2016-09-21T11:51:49.000Z</time>
      </trkpt>
      <trkpt lon="0.3479913175106049" lat="49.2946014404296875">
        <ele>148.9376678466797</ele>
        <time>2016-09-21T11:51:52.000Z</time>
      </trkpt>
      <trkpt lon="0.3479652404785156" lat="49.2947006225585938">
        <ele>148.99459838867188</ele>
        <time>2016-09-21T11:51:54.000Z</time>
      </trkpt>
      <trkpt lon="0.3479337990283966" lat="49.2948379516601562">
        <ele>149.0</ele>
        <time>2016-09-21T11:51:57.000Z</time>
      </trkpt>
      <trkpt lon="0.3479262590408325" lat="49.2949333190917969">
        <ele>149.0</ele>
        <time>2016-09-21T11:51:59.000Z</time>
      </trkpt>
      <trkpt lon="0.3479394316673279" lat="49.2950286865234375">
        <ele>148.99649047851562</ele>
        <time>2016-09-21T11:52:01.000Z</time>
      </trkpt>
      <trkpt lon="0.3479376733303070" lat="49.2951889038085938">
        <ele>148.9724884033203</ele>
        <time>2016-09-21T11:52:04.000Z</time>
      </trkpt>
      <trkpt lon="0.3479299545288086" lat="49.2953224182128906">
        <ele>148.9327850341797</ele>
        <time>2016-09-21T11:52:06.000Z</time>
      </trkpt>
      <trkpt lon="0.3479204773902893" lat="49.2954978942871094">
        <ele>148.87228393554688</ele>
        <time>2016-09-21T11:52:09.000Z</time>
      </trkpt>
      <trkpt lon="0.3479241728782654" lat="49.2957038879394531">
        <ele>148.78640747070312</ele>
        <time>2016-09-21T11:52:12.000Z</time>
      </trkpt>
      <trkpt lon="0.3479231595993042" lat="49.2958374023437500">
        <ele>148.68637084960938</ele>
        <time>2016-09-21T11:52:14.000Z</time>
      </trkpt>
      <trkpt lon="0.3479105830192566" lat="49.2960510253906250">
        <ele>148.50637817382812</ele>
        <time>2016-09-21T11:52:17.000Z</time>
      </trkpt>
      <trkpt lon="0.3478906452655792" lat="49.2962455749511719">
        <ele>148.2550506591797</ele>
        <time>2016-09-21T11:52:20.000Z</time>
      </trkpt>
      <trkpt lon="0.3478661775588989" lat="49.2963905334472656">
        <ele>147.96011352539062</ele>
        <time>2016-09-21T11:52:22.000Z</time>
      </trkpt>
      <trkpt lon="0.3478555977344513" lat="49.2966117858886719">
        <ele>147.5876007080078</ele>
        <time>2016-09-21T11:52:25.000Z</time>
      </trkpt>
      <trkpt lon="0.3478155434131622" lat="49.2968406677246094">
        <ele>147.16294860839844</ele>
        <time>2016-09-21T11:52:28.000Z</time>
      </trkpt>
      <trkpt lon="0.3478010296821594" lat="49.2970542907714844">
        <ele>146.7759552001953</ele>
        <time>2016-09-21T11:52:31.000Z</time>
      </trkpt>
      <trkpt lon="0.3477844297885895" lat="49.2972831726074219">
        <ele>146.40419006347656</ele>
        <time>2016-09-21T11:52:34.000Z</time>
      </trkpt>
      <trkpt lon="0.3477571904659271" lat="49.2975120544433594">
        <ele>146.0190887451172</ele>
        <time>2016-09-21T11:52:37.000Z</time>
      </trkpt>
      <trkpt lon="0.3477546870708466" lat="49.2977523803710938">
        <ele>145.69627380371094</ele>
        <time>2016-09-21T11:52:40.000Z</time>
      </trkpt>
      <trkpt lon="0.3477345705032349" lat="49.2979087829589844">
        <ele>145.41030883789062</ele>
        <time>2016-09-21T11:52:42.000Z</time>
      </trkpt>
      <trkpt lon="0.3477087616920471" lat="49.2980499267578125">
        <ele>145.15231323242188</ele>
        <time>2016-09-21T11:52:44.000Z</time>
      </trkpt>
      <trkpt lon="0.3476898968219757" lat="49.2982482910156250">
        <ele>144.921630859375</ele>
        <time>2016-09-21T11:52:47.000Z</time>
      </trkpt>
      <trkpt lon="0.3476350903511047" lat="49.2984695434570312">
        <ele>144.7766876220703</ele>
        <time>2016-09-21T11:52:50.000Z</time>
      </trkpt>
      <trkpt lon="0.3476392626762390" lat="49.2986030578613281">
        <ele>144.72219848632812</ele>
        <time>2016-09-21T11:52:52.000Z</time>
      </trkpt>
      <trkpt lon="0.3476298749446869" lat="49.2988319396972656">
        <ele>144.78216552734375</ele>
        <time>2016-09-21T11:52:55.000Z</time>
      </trkpt>
      <trkpt lon="0.3475832641124725" lat="49.2990608215332031">
        <ele>144.96768188476562</ele>
        <time>2016-09-21T11:52:58.000Z</time>
      </trkpt>
      <trkpt lon="0.3475369215011597" lat="49.2992057800292969">
        <ele>145.2340087890625</ele>
        <time>2016-09-21T11:53:00.000Z</time>
      </trkpt>
      <trkpt lon="0.3474234342575073" lat="49.2994079589843750">
        <ele>145.4152069091797</ele>
        <time>2016-09-21T11:53:03.000Z</time>
      </trkpt>
      <trkpt lon="0.3472965359687805" lat="49.2996063232421875">
        <ele>145.4917449951172</ele>
        <time>2016-09-21T11:53:06.000Z</time>
      </trkpt>
      <trkpt lon="0.3472060859203339" lat="49.2997283935546875">
        <ele>145.4717254638672</ele>
        <time>2016-09-21T11:53:08.000Z</time>
      </trkpt>
      <trkpt lon="0.3471164107322693" lat="49.2998466491699219">
        <ele>145.35939025878906</ele>
        <time>2016-09-21T11:53:10.000Z</time>
      </trkpt>
      <trkpt lon="0.3469851315021515" lat="49.3000411987304688">
        <ele>145.21788024902344</ele>
        <time>2016-09-21T11:53:13.000Z</time>
      </trkpt>
      <trkpt lon="0.3468956947326660" lat="49.3001899719238281">
        <ele>145.133056640625</ele>
        <time>2016-09-21T11:53:15.000Z</time>
      </trkpt>
      <trkpt lon="0.3467941284179688" lat="49.3003349304199219">
        <ele>145.08309936523438</ele>
        <time>2016-09-21T11:53:17.000Z</time>
      </trkpt>
      <trkpt lon="0.3466669619083405" lat="49.3005409240722656">
        <ele>144.99746704101562</ele>
        <time>2016-09-21T11:53:20.000Z</time>
      </trkpt>
      <trkpt lon="0.3465926945209503" lat="49.3006858825683594">
        <ele>144.79611206054688</ele>
        <time>2016-09-21T11:53:22.000Z</time>
      </trkpt>
      <trkpt lon="0.3465052843093872" lat="49.3008308410644531">
        <ele>144.45046997070312</ele>
        <time>2016-09-21T11:53:24.000Z</time>
      </trkpt>
      <trkpt lon="0.3464272320270538" lat="49.3009910583496094">
        <ele>143.97433471679688</ele>
        <time>2016-09-21T11:53:26.000Z</time>
      </trkpt>
      <trkpt lon="0.3462787270545959" lat="49.3012237548828125">
        <ele>143.3097381591797</ele>
        <time>2016-09-21T11:53:29.000Z</time>
      </trkpt>
      <trkpt lon="0.3462435901165009" lat="49.3014183044433594">
        <ele>142.5855255126953</ele>
        <time>2016-09-21T11:53:31.000Z</time>
      </trkpt>
      <trkpt lon="0.3462491333484650" lat="49.3016166687011719">
        <ele>141.88705444335938</ele>
        <time>2016-09-21T11:53:33.000Z</time>
      </trkpt>
      <trkpt lon="0.3462327718734741" lat="49.3017616271972656">
        <ele>141.31007385253906</ele>
        <time>2016-09-21T11:53:35.000Z</time>
      </trkpt>
      <trkpt lon="0.3462453484535217" lat="49.3019943237304688">
        <ele>140.91476440429688</ele>
        <time>2016-09-21T11:53:38.000Z</time>
      </trkpt>
      <trkpt lon="0.3462887704372406" lat="49.3021583557128906">
        <ele>140.74014282226562</ele>
        <time>2016-09-21T11:53:40.000Z</time>
      </trkpt>
      <trkpt lon="0.3462935388088226" lat="49.3023719787597656">
        <ele>140.6927947998047</ele>
        <time>2016-09-21T11:53:43.000Z</time>
      </trkpt>
      <trkpt lon="0.3463247418403625" lat="49.3025856018066406">
        <ele>140.75265502929688</ele>
        <time>2016-09-21T11:53:46.000Z</time>
      </trkpt>
      <trkpt lon="0.3463421761989594" lat="49.3028106689453125">
        <ele>140.87451171875</ele>
        <time>2016-09-21T11:53:49.000Z</time>
      </trkpt>
      <trkpt lon="0.3463483750820160" lat="49.3030166625976562">
        <ele>141.011474609375</ele>
        <time>2016-09-21T11:53:52.000Z</time>
      </trkpt>
      <trkpt lon="0.3463610410690308" lat="49.3031730651855469">
        <ele>141.168212890625</ele>
        <time>2016-09-21T11:53:54.000Z</time>
      </trkpt>
      <trkpt lon="0.3463711738586426" lat="49.3033866882324219">
        <ele>141.3495330810547</ele>
        <time>2016-09-21T11:53:57.000Z</time>
      </trkpt>
      <trkpt lon="0.3463708460330963" lat="49.3035621643066406">
        <ele>141.5424346923828</ele>
        <time>2016-09-21T11:54:00.000Z</time>
      </trkpt>
      <trkpt lon="0.3463707566261292" lat="49.3036956787109375">
        <ele>141.70982360839844</ele>
        <time>2016-09-21T11:54:02.000Z</time>
      </trkpt>
      <trkpt lon="0.3463782966136932" lat="49.3039054870605469">
        <ele>141.86175537109375</ele>
        <time>2016-09-21T11:54:05.000Z</time>
      </trkpt>
      <trkpt lon="0.3463897705078125" lat="49.3040466308593750">
        <ele>142.00021362304688</ele>
        <time>2016-09-21T11:54:07.000Z</time>
      </trkpt>
      <trkpt lon="0.3463926315307617" lat="49.3041839599609375">
        <ele>142.10693359375</ele>
        <time>2016-09-21T11:54:09.000Z</time>
      </trkpt>
      <trkpt lon="0.3463988304138184" lat="49.3043937683105469">
        <ele>142.065185546875</ele>
        <time>2016-09-21T11:54:12.000Z</time>
      </trkpt>
      <trkpt lon="0.3464093804359436" lat="49.3045997619628906">
        <ele>141.88235473632812</ele>
        <time>2016-09-21T11:54:15.000Z</time>
      </trkpt>
      <trkpt lon="0.3464346230030060" lat="49.3047447204589844">
        <ele>141.57089233398438</ele>
        <time>2016-09-21T11:54:17.000Z</time>
      </trkpt>
      <trkpt lon="0.3464636206626892" lat="49.3049316406250000">
        <ele>141.11141967773438</ele>
        <time>2016-09-21T11:54:20.000Z</time>
      </trkpt>
      <trkpt lon="0.3464714288711548" lat="49.3050575256347656">
        <ele>140.61248779296875</ele>
        <time>2016-09-21T11:54:22.000Z</time>
      </trkpt>
      <trkpt lon="0.3464830815792084" lat="49.3051910400390625">
        <ele>140.26556396484375</ele>
        <time>2016-09-21T11:54:24.000Z</time>
      </trkpt>
      <trkpt lon="0.3464967310428619" lat="49.3054008483886719">
        <ele>140.08822631835938</ele>
        <time>2016-09-21T11:54:27.000Z</time>
      </trkpt>
      <trkpt lon="0.3465260565280914" lat="49.3055992126464844">
        <ele>140.04058837890625</ele>
        <time>2016-09-21T11:54:30.000Z</time>
      </trkpt>
      <trkpt lon="0.3465296626091003" lat="49.3057899475097656">
        <ele>140.17263793945312</ele>
        <time>2016-09-21T11:54:33.000Z</time>
      </trkpt>
      <trkpt lon="0.3465330302715302" lat="49.3059196472167969">
        <ele>140.3925323486328</ele>
        <time>2016-09-21T11:54:35.000Z</time>
      </trkpt>
      <trkpt lon="0.3465201854705811" lat="49.3060417175292969">
        <ele>140.66000366210938</ele>
        <time>2016-09-21T11:54:37.000Z</time>
      </trkpt>
      <trkpt lon="0.3465160131454468" lat="49.3061714172363281">
        <ele>140.9522705078125</ele>
        <time>2016-09-21T11:54:39.000Z</time>
      </trkpt>
      <trkpt lon="0.3465060293674469" lat="49.3064002990722656">
        <ele>141.34066772460938</ele>
        <time>2016-09-21T11:54:42.000Z</time>
      </trkpt>
      <trkpt lon="0.3464966416358948" lat="49.3065185546875000">
        <ele>141.7435760498047</ele>
        <time>2016-09-21T11:54:44.000Z</time>
      </trkpt>
      <trkpt lon="0.3465213775634766" lat="49.3067626953125000">
        <ele>142.166015625</ele>
        <time>2016-09-21T11:54:47.000Z</time>
      </trkpt>
      <trkpt lon="0.3465311825275421" lat="49.3069534301757812">
        <ele>142.5100860595703</ele>
        <time>2016-09-21T11:54:50.000Z</time>
      </trkpt>
      <trkpt lon="0.3465467691421509" lat="49.3070793151855469">
        <ele>142.78001403808594</ele>
        <time>2016-09-21T11:54:52.000Z</time>
      </trkpt>
      <trkpt lon="0.3465490341186523" lat="49.3072357177734375">
        <ele>142.92236328125</ele>
        <time>2016-09-21T11:54:54.000Z</time>
      </trkpt>
      <trkpt lon="0.3465596735477448" lat="49.3073616027832031">
        <ele>143.0</ele>
        <time>2016-09-21T11:54:56.000Z</time>
      </trkpt>
      <trkpt lon="0.3465932905673981" lat="49.3075370788574219">
        <ele>142.99923706054688</ele>
        <time>2016-09-21T11:54:59.000Z</time>
      </trkpt>
      <trkpt lon="0.3466057777404785" lat="49.3077316284179688">
        <ele>142.9951934814453</ele>
        <time>2016-09-21T11:55:02.000Z</time>
      </trkpt>
      <trkpt lon="0.3465990722179413" lat="49.3078727722167969">
        <ele>142.9879150390625</ele>
        <time>2016-09-21T11:55:04.000Z</time>
      </trkpt>
      <trkpt lon="0.3466119766235352" lat="49.3081054687500000">
        <ele>142.97837829589844</ele>
        <time>2016-09-21T11:55:07.000Z</time>
      </trkpt>
      <trkpt lon="0.3466239571571350" lat="49.3082046508789062">
        <ele>142.9697265625</ele>
        <time>2016-09-21T11:55:09.000Z</time>
      </trkpt>
      <trkpt lon="0.3466407358646393" lat="49.3085021972656250">
        <ele>142.92196655273438</ele>
        <time>2016-09-21T11:55:13.000Z</time>
      </trkpt>
      <trkpt lon="0.3466393947601318" lat="49.3087196350097656">
        <ele>142.8236541748047</ele>
        <time>2016-09-21T11:55:16.000Z</time>
      </trkpt>
      <trkpt lon="0.3466648757457733" lat="49.3089447021484375">
        <ele>142.68370056152344</ele>
        <time>2016-09-21T11:55:19.000Z</time>
      </trkpt>
      <trkpt lon="0.3466770946979523" lat="49.3090782165527344">
        <ele>142.5117645263672</ele>
        <time>2016-09-21T11:55:21.000Z</time>
      </trkpt>
      <trkpt lon="0.3466869890689850" lat="49.3093147277832031">
        <ele>142.21121215820312</ele>
        <time>2016-09-21T11:55:24.000Z</time>
      </trkpt>
      <trkpt lon="0.3466820418834686" lat="49.3094444274902344">
        <ele>141.85867309570312</ele>
        <time>2016-09-21T11:55:26.000Z</time>
      </trkpt>
      <trkpt lon="0.3466894328594208" lat="49.3096046447753906">
        <ele>141.44723510742188</ele>
        <time>2016-09-21T11:55:28.000Z</time>
      </trkpt>
      <trkpt lon="0.3467189371585846" lat="49.3098335266113281">
        <ele>140.92098999023438</ele>
        <time>2016-09-21T11:55:31.000Z</time>
      </trkpt>
      <trkpt lon="0.3466973006725311" lat="49.3100471496582031">
        <ele>140.29827880859375</ele>
        <time>2016-09-21T11:55:34.000Z</time>
      </trkpt>
      <trkpt lon="0.3467366993427277" lat="49.3102073669433594">
        <ele>139.76986694335938</ele>
        <time>2016-09-21T11:55:36.000Z</time>
      </trkpt>
      <trkpt lon="0.3467684686183929" lat="49.3104362487792969">
        <ele>139.27764892578125</ele>
        <time>2016-09-21T11:55:39.000Z</time>
      </trkpt>
      <trkpt lon="0.3467723131179810" lat="49.3105888366699219">
        <ele>138.85791015625</ele>
        <time>2016-09-21T11:55:41.000Z</time>
      </trkpt>
      <trkpt lon="0.3467434048652649" lat="49.3108177185058594">
        <ele>138.53501892089844</ele>
        <time>2016-09-21T11:55:44.000Z</time>
      </trkpt>
      <trkpt lon="0.3466937839984894" lat="49.3109626770019531">
        <ele>138.3700714111328</ele>
        <time>2016-09-21T11:55:46.000Z</time>
      </trkpt>
      <trkpt lon="0.3466287553310394" lat="49.3111763000488281">
        <ele>138.27902221679688</ele>
        <time>2016-09-21T11:55:49.000Z</time>
      </trkpt>
      <trkpt lon="0.3466088771820068" lat="49.3113784790039062">
        <ele>138.27560424804688</ele>
        <time>2016-09-21T11:55:52.000Z</time>
      </trkpt>
      <trkpt lon="0.3465662896633148" lat="49.3115234375000000">
        <ele>138.31494140625</ele>
        <time>2016-09-21T11:55:54.000Z</time>
      </trkpt>
      <trkpt lon="0.3465268313884735" lat="49.3116760253906250">
        <ele>138.4088134765625</ele>
        <time>2016-09-21T11:55:56.000Z</time>
      </trkpt>
      <trkpt lon="0.3464783728122711" lat="49.3118820190429688">
        <ele>138.4141082763672</ele>
        <time>2016-09-21T11:55:59.000Z</time>
      </trkpt>
      <trkpt lon="0.3464454412460327" lat="49.3120422363281250">
        <ele>138.34097290039062</ele>
        <time>2016-09-21T11:56:01.000Z</time>
      </trkpt>
      <trkpt lon="0.3464249670505524" lat="49.3121871948242188">
        <ele>138.2112274169922</ele>
        <time>2016-09-21T11:56:03.000Z</time>
      </trkpt>
      <trkpt lon="0.3463622033596039" lat="49.3124122619628906">
        <ele>138.0381622314453</ele>
        <time>2016-09-21T11:56:06.000Z</time>
      </trkpt>
      <trkpt lon="0.3463399112224579" lat="49.3126449584960938">
        <ele>137.80569458007812</ele>
        <time>2016-09-21T11:56:09.000Z</time>
      </trkpt>
      <trkpt lon="0.3462758660316467" lat="49.3128623962402344">
        <ele>137.5426788330078</ele>
        <time>2016-09-21T11:56:12.000Z</time>
      </trkpt>
      <trkpt lon="0.3462395668029785" lat="49.3130722045898438">
        <ele>137.23715209960938</ele>
        <time>2016-09-21T11:56:15.000Z</time>
      </trkpt>
      <trkpt lon="0.3462182879447937" lat="49.3132247924804688">
        <ele>136.90182495117188</ele>
        <time>2016-09-21T11:56:17.000Z</time>
      </trkpt>
      <trkpt lon="0.3461656570434570" lat="49.3134422302246094">
        <ele>136.5691375732422</ele>
        <time>2016-09-21T11:56:20.000Z</time>
      </trkpt>
      <trkpt lon="0.3461209833621979" lat="49.3135833740234375">
        <ele>136.3040771484375</ele>
        <time>2016-09-21T11:56:22.000Z</time>
      </trkpt>
      <trkpt lon="0.3460820913314819" lat="49.3137931823730469">
        <ele>136.1309356689453</ele>
        <time>2016-09-21T11:56:25.000Z</time>
      </trkpt>
      <trkpt lon="0.3460503220558167" lat="49.3139724731445312">
        <ele>136.0382537841797</ele>
        <time>2016-09-21T11:56:27.000Z</time>
      </trkpt>
      <trkpt lon="0.3460327982902527" lat="49.3141365051269531">
        <ele>136.0</ele>
        <time>2016-09-21T11:56:29.000Z</time>
      </trkpt>
      <trkpt lon="0.3459654748439789" lat="49.3143577575683594">
        <ele>135.87582397460938</ele>
        <time>2016-09-21T11:56:32.000Z</time>
      </trkpt>
      <trkpt lon="0.3459051251411438" lat="49.3145599365234375">
        <ele>135.609619140625</ele>
        <time>2016-09-21T11:56:35.000Z</time>
      </trkpt>
      <trkpt lon="0.3459135293960571" lat="49.3147125244140625">
        <ele>135.2411346435547</ele>
        <time>2016-09-21T11:56:37.000Z</time>
      </trkpt>
      <trkpt lon="0.3458901345729828" lat="49.3148612976074219">
        <ele>134.7646026611328</ele>
        <time>2016-09-21T11:56:39.000Z</time>
      </trkpt>
      <trkpt lon="0.3458736240863800" lat="49.3151245117187500">
        <ele>134.18246459960938</ele>
        <time>2016-09-21T11:56:42.000Z</time>
      </trkpt>
      <trkpt lon="0.3458767235279083" lat="49.3153457641601562">
        <ele>133.7231903076172</ele>
        <time>2016-09-21T11:56:45.000Z</time>
      </trkpt>
      <trkpt lon="0.3458763062953949" lat="49.3155784606933594">
        <ele>133.40283203125</ele>
        <time>2016-09-21T11:56:48.000Z</time>
      </trkpt>
      <trkpt lon="0.3458726108074188" lat="49.3157196044921875">
        <ele>133.18206787109375</ele>
        <time>2016-09-21T11:56:50.000Z</time>
      </trkpt>
      <trkpt lon="0.3458637297153473" lat="49.3159294128417969">
        <ele>133.06588745117188</ele>
        <time>2016-09-21T11:56:53.000Z</time>
      </trkpt>
      <trkpt lon="0.3458840847015381" lat="49.3161544799804688">
        <ele>133.0601806640625</ele>
        <time>2016-09-21T11:56:56.000Z</time>
      </trkpt>
      <trkpt lon="0.3458777964115143" lat="49.3163032531738281">
        <ele>133.0543212890625</ele>
        <time>2016-09-21T11:56:58.000Z</time>
      </trkpt>
      <trkpt lon="0.3459157049655914" lat="49.3164825439453125">
        <ele>133.06063842773438</ele>
        <time>2016-09-21T11:57:01.000Z</time>
      </trkpt>
      <trkpt lon="0.3459311127662659" lat="49.3166923522949219">
        <ele>133.06753540039062</ele>
        <time>2016-09-21T11:57:04.000Z</time>
      </trkpt>
      <trkpt lon="0.3459359109401703" lat="49.3168449401855469">
        <ele>133.04188537597656</ele>
        <time>2016-09-21T11:57:06.000Z</time>
      </trkpt>
      <trkpt lon="0.3459613025188446" lat="49.3170661926269531">
        <ele>132.9647216796875</ele>
        <time>2016-09-21T11:57:09.000Z</time>
      </trkpt>
      <trkpt lon="0.3459646403789520" lat="49.3173027038574219">
        <ele>132.83322143554688</ele>
        <time>2016-09-21T11:57:12.000Z</time>
      </trkpt>
      <trkpt lon="0.3459837436676025" lat="49.3174552917480469">
        <ele>132.6601104736328</ele>
        <time>2016-09-21T11:57:14.000Z</time>
      </trkpt>
      <trkpt lon="0.3460032045841217" lat="49.3176689147949219">
        <ele>132.5234832763672</ele>
        <time>2016-09-21T11:57:17.000Z</time>
      </trkpt>
      <trkpt lon="0.3460208773612976" lat="49.3178100585937500">
        <ele>132.46127319335938</ele>
        <time>2016-09-21T11:57:19.000Z</time>
      </trkpt>
      <trkpt lon="0.3460381627082825" lat="49.3179512023925781">
        <ele>132.4840087890625</ele>
        <time>2016-09-21T11:57:21.000Z</time>
      </trkpt>
      <trkpt lon="0.3460326194763184" lat="49.3181610107421875">
        <ele>132.61105346679688</ele>
        <time>2016-09-21T11:57:24.000Z</time>
      </trkpt>
      <trkpt lon="0.3460402488708496" lat="49.3183670043945312">
        <ele>132.8058624267578</ele>
        <time>2016-09-21T11:57:27.000Z</time>
      </trkpt>
      <trkpt lon="0.3460678160190582" lat="49.3185577392578125">
        <ele>132.92703247070312</ele>
        <time>2016-09-21T11:57:30.000Z</time>
      </trkpt>
      <trkpt lon="0.3460516631603241" lat="49.3186721801757812">
        <ele>132.9785614013672</ele>
        <time>2016-09-21T11:57:32.000Z</time>
      </trkpt>
      <trkpt lon="0.3460482954978943" lat="49.3188705444335938">
        <ele>132.94308471679688</ele>
        <time>2016-09-21T11:57:35.000Z</time>
      </trkpt>
      <trkpt lon="0.3460488915443420" lat="49.3189697265625000">
        <ele>132.83587646484375</ele>
        <time>2016-09-21T11:57:37.000Z</time>
      </trkpt>
      <trkpt lon="0.3461023569107056" lat="49.3191795349121094">
        <ele>132.6589813232422</ele>
        <time>2016-09-21T11:57:40.000Z</time>
      </trkpt>
      <trkpt lon="0.3461096584796906" lat="49.3194122314453125">
        <ele>132.5231170654297</ele>
        <time>2016-09-21T11:57:43.000Z</time>
      </trkpt>
      <trkpt lon="0.3461346328258514" lat="49.3196182250976562">
        <ele>132.4244842529297</ele>
        <time>2016-09-21T11:57:46.000Z</time>
      </trkpt>
      <trkpt lon="0.3461382389068604" lat="49.3198089599609375">
        <ele>132.37538146972656</ele>
        <time>2016-09-21T11:57:49.000Z</time>
      </trkpt>
      <trkpt lon="0.3461398184299469" lat="49.3199424743652344">
        <ele>132.3499298095703</ele>
        <time>2016-09-21T11:57:51.000Z</time>
      </trkpt>
      <trkpt lon="0.3461404144763947" lat="49.3201484680175781">
        <ele>132.3590545654297</ele>
        <time>2016-09-21T11:57:54.000Z</time>
      </trkpt>
      <trkpt lon="0.3461106717586517" lat="49.3203239440917969">
        <ele>132.3592987060547</ele>
        <time>2016-09-21T11:57:57.000Z</time>
      </trkpt>
      <trkpt lon="0.3460830748081207" lat="49.3205146789550781">
        <ele>132.346923828125</ele>
        <time>2016-09-21T11:58:00.000Z</time>
      </trkpt>
      <trkpt lon="0.3460369706153870" lat="49.3206748962402344">
        <ele>132.3226318359375</ele>
        <time>2016-09-21T11:58:02.000Z</time>
      </trkpt>
      <trkpt lon="0.3460000157356262" lat="49.3208885192871094">
        <ele>132.27540588378906</ele>
        <time>2016-09-21T11:58:05.000Z</time>
      </trkpt>
      <trkpt lon="0.3459642231464386" lat="49.3210067749023438">
        <ele>132.1911163330078</ele>
        <time>2016-09-21T11:58:07.000Z</time>
      </trkpt>
      <trkpt lon="0.3458963334560394" lat="49.3212242126464844">
        <ele>132.04592895507812</ele>
        <time>2016-09-21T11:58:10.000Z</time>
      </trkpt>
      <trkpt lon="0.3458385765552521" lat="49.3213996887207031">
        <ele>131.8515167236328</ele>
        <time>2016-09-21T11:58:12.000Z</time>
      </trkpt>
      <trkpt lon="0.3457682728767395" lat="49.3215332031250000">
        <ele>131.63717651367188</ele>
        <time>2016-09-21T11:58:14.000Z</time>
      </trkpt>
      <trkpt lon="0.3456738889217377" lat="49.3217353820800781">
        <ele>131.40762329101562</ele>
        <time>2016-09-21T11:58:17.000Z</time>
      </trkpt>
      <trkpt lon="0.3455804288387299" lat="49.3219337463378906">
        <ele>131.19888305664062</ele>
        <time>2016-09-21T11:58:20.000Z</time>
      </trkpt>
      <trkpt lon="0.3455382585525513" lat="49.3220672607421875">
        <ele>131.04354858398438</ele>
        <time>2016-09-21T11:58:22.000Z</time>
      </trkpt>
      <trkpt lon="0.3454394340515137" lat="49.3222618103027344">
        <ele>130.9105682373047</ele>
        <time>2016-09-21T11:58:25.000Z</time>
      </trkpt>
      <trkpt lon="0.3453722894191742" lat="49.3223915100097656">
        <ele>130.77975463867188</ele>
        <time>2016-09-21T11:58:27.000Z</time>
      </trkpt>
      <trkpt lon="0.3453215062618256" lat="49.3225212097167969">
        <ele>130.66012573242188</ele>
        <time>2016-09-21T11:58:29.000Z</time>
      </trkpt>
      <trkpt lon="0.3452588915824890" lat="49.3226547241210938">
        <ele>130.5415802001953</ele>
        <time>2016-09-21T11:58:31.000Z</time>
      </trkpt>
      <trkpt lon="0.3451706171035767" lat="49.3228530883789062">
        <ele>130.41647338867188</ele>
        <time>2016-09-21T11:58:34.000Z</time>
      </trkpt>
      <trkpt lon="0.3451121151447296" lat="49.3229789733886719">
        <ele>130.3108673095703</ele>
        <time>2016-09-21T11:58:36.000Z</time>
      </trkpt>
      <trkpt lon="0.3450299799442291" lat="49.3231849670410156">
        <ele>130.21435546875</ele>
        <time>2016-09-21T11:58:39.000Z</time>
      </trkpt>
      <trkpt lon="0.3449818789958954" lat="49.3233222961425781">
        <ele>130.1458282470703</ele>
        <time>2016-09-21T11:58:41.000Z</time>
      </trkpt>
      <trkpt lon="0.3449412286281586" lat="49.3234443664550781">
        <ele>130.11000061035156</ele>
        <time>2016-09-21T11:58:43.000Z</time>
      </trkpt>
      <trkpt lon="0.3448701500892639" lat="49.3236427307128906">
        <ele>130.119873046875</ele>
        <time>2016-09-21T11:58:46.000Z</time>
      </trkpt>
      <trkpt lon="0.3448088765144348" lat="49.3238372802734375">
        <ele>130.1570281982422</ele>
        <time>2016-09-21T11:58:49.000Z</time>
      </trkpt>
      <trkpt lon="0.3447821140289307" lat="49.3240127563476562">
        <ele>130.2118682861328</ele>
        <time>2016-09-21T11:58:52.000Z</time>
      </trkpt>
      <trkpt lon="0.3447809517383575" lat="49.3241462707519531">
        <ele>130.25714111328125</ele>
        <time>2016-09-21T11:58:54.000Z</time>
      </trkpt>
      <trkpt lon="0.3447424769401550" lat="49.3243370056152344">
        <ele>130.25181579589844</ele>
        <time>2016-09-21T11:58:57.000Z</time>
      </trkpt>
      <trkpt lon="0.3447246253490448" lat="49.3245162963867188">
        <ele>130.18328857421875</ele>
        <time>2016-09-21T11:59:00.000Z</time>
      </trkpt>
      <trkpt lon="0.3447170853614807" lat="49.3246307373046875">
        <ele>130.07598876953125</ele>
        <time>2016-09-21T11:59:02.000Z</time>
      </trkpt>
      <trkpt lon="0.3446994721889496" lat="49.3247413635253906">
        <ele>129.94857788085938</ele>
        <time>2016-09-21T11:59:04.000Z</time>
      </trkpt>
      <trkpt lon="0.3447183370590210" lat="49.3249397277832031">
        <ele>129.7769317626953</ele>
        <time>2016-09-21T11:59:07.000Z</time>
      </trkpt>
      <trkpt lon="0.3446828722953796" lat="49.3251686096191406">
        <ele>129.65682983398438</ele>
        <time>2016-09-21T11:59:10.000Z</time>
      </trkpt>
      <trkpt lon="0.3447050154209137" lat="49.3254241943359375">
        <ele>129.6109619140625</ele>
        <time>2016-09-21T11:59:13.000Z</time>
      </trkpt>
      <trkpt lon="0.3446935415267944" lat="49.3255615234375000">
        <ele>129.6129608154297</ele>
        <time>2016-09-21T11:59:15.000Z</time>
      </trkpt>
      <trkpt lon="0.3447206914424896" lat="49.3256874084472656">
        <ele>129.6550750732422</ele>
        <time>2016-09-21T11:59:17.000Z</time>
      </trkpt>
      <trkpt lon="0.3447279930114746" lat="49.3258934020996094">
        <ele>129.7728271484375</ele>
        <time>2016-09-21T11:59:20.000Z</time>
      </trkpt>
      <trkpt lon="0.3446968793869019" lat="49.3260307312011719">
        <ele>129.87191772460938</ele>
        <time>2016-09-21T11:59:22.000Z</time>
      </trkpt>
      <trkpt lon="0.3447119593620300" lat="49.3261642456054688">
        <ele>129.93551635742188</ele>
        <time>2016-09-21T11:59:24.000Z</time>
      </trkpt>
      <trkpt lon="0.3446967899799347" lat="49.3263320922851562">
        <ele>129.9767608642578</ele>
        <time>2016-09-21T11:59:27.000Z</time>
      </trkpt>
      <trkpt lon="0.3447120487689972" lat="49.3264465332031250">
        <ele>130.0</ele>
        <time>2016-09-21T11:59:29.000Z</time>
      </trkpt>
      <trkpt lon="0.3446986377239227" lat="49.3266258239746094">
        <ele>130.0</ele>
        <time>2016-09-21T11:59:32.000Z</time>
      </trkpt>
      <trkpt lon="0.3447019159793854" lat="49.3267631530761719">
        <ele>129.9918212890625</ele>
        <time>2016-09-21T11:59:34.000Z</time>
      </trkpt>
      <trkpt lon="0.3446879982948303" lat="49.3269004821777344">
        <ele>129.97084045410156</ele>
        <time>2016-09-21T11:59:36.000Z</time>
      </trkpt>
      <trkpt lon="0.3446762561798096" lat="49.3270874023437500">
        <ele>129.93161010742188</ele>
        <time>2016-09-21T11:59:39.000Z</time>
      </trkpt>
      <trkpt lon="0.3446570634841919" lat="49.3272094726562500">
        <ele>129.8780059814453</ele>
        <time>2016-09-21T11:59:41.000Z</time>
      </trkpt>
      <trkpt lon="0.3446560502052307" lat="49.3273468017578125">
        <ele>129.81051635742188</ele>
        <time>2016-09-21T11:59:43.000Z</time>
      </trkpt>
      <trkpt lon="0.3446358740329742" lat="49.3275032043457031">
        <ele>129.73130798339844</ele>
        <time>2016-09-21T11:59:46.000Z</time>
      </trkpt>
      <trkpt lon="0.3446217775344849" lat="49.3276252746582031">
        <ele>129.66152954101562</ele>
        <time>2016-09-21T11:59:48.000Z</time>
      </trkpt>
      <trkpt lon="0.3445963859558105" lat="49.3278236389160156">
        <ele>129.6038818359375</ele>
        <time>2016-09-21T11:59:51.000Z</time>
      </trkpt>
      <trkpt lon="0.3445792794227600" lat="49.3279342651367188">
        <ele>129.5565185546875</ele>
        <time>2016-09-21T11:59:53.000Z</time>
      </trkpt>
      <trkpt lon="0.3444916009902954" lat="49.3281021118164062">
        <ele>129.50198364257812</ele>
        <time>2016-09-21T11:59:56.000Z</time>
      </trkpt>
      <trkpt lon="0.3444342911243439" lat="49.3282165527343750">
        <ele>129.45361328125</ele>
        <time>2016-09-21T11:59:58.000Z</time>
      </trkpt>
      <trkpt lon="0.3443900942802429" lat="49.3282966613769531">
        <ele>129.3979949951172</ele>
        <time>2016-09-21T12:00:00.000Z</time>
      </trkpt>
      <trkpt lon="0.3442912101745605" lat="49.3284378051757812">
        <ele>129.4180145263672</ele>
        <time>2016-09-21T12:00:03.000Z</time>
      </trkpt>
      <trkpt lon="0.3442207872867584" lat="49.3286018371582031">
        <ele>129.5806427001953</ele>
        <time>2016-09-21T12:00:06.000Z</time>
      </trkpt>
      <trkpt lon="0.3441328704357147" lat="49.3287429809570312">
        <ele>129.89230346679688</ele>
        <time>2016-09-21T12:00:09.000Z</time>
      </trkpt>
      <trkpt lon="0.3440560102462769" lat="49.3288726806640625">
        <ele>130.33749389648438</ele>
        <time>2016-09-21T12:00:12.000Z</time>
      </trkpt>
      <trkpt lon="0.3440226316452026" lat="49.3289566040039062">
        <ele>130.87196350097656</ele>
        <time>2016-09-21T12:00:14.000Z</time>
      </trkpt>
      <trkpt lon="0.3439887762069702" lat="49.3290443420410156">
        <ele>131.42538452148438</ele>
        <time>2016-09-21T12:00:16.000Z</time>
      </trkpt>
      <trkpt lon="0.3439470529556274" lat="49.3291244506835938">
        <ele>131.92205810546875</ele>
        <time>2016-09-21T12:00:18.000Z</time>
      </trkpt>
      <trkpt lon="0.3438945710659027" lat="49.3292732238769531">
        <ele>132.2987518310547</ele>
        <time>2016-09-21T12:00:21.000Z</time>
      </trkpt>
      <trkpt lon="0.3438179492950439" lat="49.3294219970703125">
        <ele>132.5020751953125</ele>
        <time>2016-09-21T12:00:24.000Z</time>
      </trkpt>
      <trkpt lon="0.3437535762786865" lat="49.3295593261718750">
        <ele>132.57376098632812</ele>
        <time>2016-09-21T12:00:27.000Z</time>
      </trkpt>
      <trkpt lon="0.3436781466007233" lat="49.3296813964843750">
        <ele>132.50201416015625</ele>
        <time>2016-09-21T12:00:30.000Z</time>
      </trkpt>
      <trkpt lon="0.3436092436313629" lat="49.3297615051269531">
        <ele>132.30569458007812</ele>
        <time>2016-09-21T12:00:32.000Z</time>
      </trkpt>
      <trkpt lon="0.3435768187046051" lat="49.3299407958984375">
        <ele>132.02249145507812</ele>
        <time>2016-09-21T12:00:35.000Z</time>
      </trkpt>
      <trkpt lon="0.3434699475765228" lat="49.3300971984863281">
        <ele>131.72279357910156</ele>
        <time>2016-09-21T12:00:38.000Z</time>
      </trkpt>
      <trkpt lon="0.3434262573719025" lat="49.3302536010742188">
        <ele>131.4313507080078</ele>
        <time>2016-09-21T12:00:41.000Z</time>
      </trkpt>
      <trkpt lon="0.3433600664138794" lat="49.3303604125976562">
        <ele>131.14956665039062</ele>
        <time>2016-09-21T12:00:43.000Z</time>
      </trkpt>
      <trkpt lon="0.3433063328266144" lat="49.3304634094238281">
        <ele>130.87960815429688</ele>
        <time>2016-09-21T12:00:45.000Z</time>
      </trkpt>
      <trkpt lon="0.3433270156383514" lat="49.3306083679199219">
        <ele>130.6519012451172</ele>
        <time>2016-09-21T12:00:47.000Z</time>
      </trkpt>
      <trkpt lon="0.3433987796306610" lat="49.3308181762695312">
        <ele>130.47354125976562</ele>
        <time>2016-09-21T12:00:50.000Z</time>
      </trkpt>
      <trkpt lon="0.3434976935386658" lat="49.3309478759765625">
        <ele>130.4840850830078</ele>
        <time>2016-09-21T12:00:52.000Z</time>
      </trkpt>
      <trkpt lon="0.3437056541442871" lat="49.3311157226562500">
        <ele>130.75027465820312</ele>
        <time>2016-09-21T12:00:55.000Z</time>
      </trkpt>
      <trkpt lon="0.3438666462898254" lat="49.3312187194824219">
        <ele>131.16494750976562</ele>
        <time>2016-09-21T12:00:57.000Z</time>
      </trkpt>
      <trkpt lon="0.3441523015499115" lat="49.3313674926757812">
        <ele>131.76370239257812</ele>
        <time>2016-09-21T12:01:00.000Z</time>
      </trkpt>
      <trkpt lon="0.3443455100059509" lat="49.3314399719238281">
        <ele>132.3779296875</ele>
        <time>2016-09-21T12:01:02.000Z</time>
      </trkpt>
      <trkpt lon="0.3445348739624023" lat="49.3315124511718750">
        <ele>132.83566284179688</ele>
        <time>2016-09-21T12:01:04.000Z</time>
      </trkpt>
      <trkpt lon="0.3448354303836823" lat="49.3316116333007812">
        <ele>133.0597381591797</ele>
        <time>2016-09-21T12:01:07.000Z</time>
      </trkpt>
      <trkpt lon="0.3451620936393738" lat="49.3316917419433594">
        <ele>133.10765075683594</ele>
        <time>2016-09-21T12:01:10.000Z</time>
      </trkpt>
      <trkpt lon="0.3453743159770966" lat="49.3317489624023438">
        <ele>132.9435272216797</ele>
        <time>2016-09-21T12:01:12.000Z</time>
      </trkpt>
      <trkpt lon="0.3455864489078522" lat="49.3318138122558594">
        <ele>132.71817016601562</ele>
        <time>2016-09-21T12:01:14.000Z</time>
      </trkpt>
      <trkpt lon="0.3458950817584991" lat="49.3319129943847656">
        <ele>132.40753173828125</ele>
        <time>2016-09-21T12:01:17.000Z</time>
      </trkpt>
      <trkpt lon="0.3462024331092834" lat="49.3320045471191406">
        <ele>132.0249481201172</ele>
        <time>2016-09-21T12:01:20.000Z</time>
      </trkpt>
      <trkpt lon="0.3464166820049286" lat="49.3320732116699219">
        <ele>131.63302612304688</ele>
        <time>2016-09-21T12:01:22.000Z</time>
      </trkpt>
      <trkpt lon="0.3466302454471588" lat="49.3321609497070312">
        <ele>131.2329864501953</ele>
        <time>2016-09-21T12:01:24.000Z</time>
      </trkpt>
      <trkpt lon="0.3469341695308685" lat="49.3322601318359375">
        <ele>130.7574462890625</ele>
        <time>2016-09-21T12:01:27.000Z</time>
      </trkpt>
      <trkpt lon="0.3471307456493378" lat="49.3323287963867188">
        <ele>130.27285766601562</ele>
        <time>2016-09-21T12:01:29.000Z</time>
      </trkpt>
      <trkpt lon="0.3473300635814667" lat="49.3323822021484375">
        <ele>129.77487182617188</ele>
        <time>2016-09-21T12:01:31.000Z</time>
      </trkpt>
      <trkpt lon="0.3475321531295776" lat="49.3324432373046875">
        <ele>129.232177734375</ele>
        <time>2016-09-21T12:01:33.000Z</time>
      </trkpt>
      <trkpt lon="0.3478475511074066" lat="49.3325195312500000">
        <ele>128.66346740722656</ele>
        <time>2016-09-21T12:01:36.000Z</time>
      </trkpt>
      <trkpt lon="0.3481468856334686" lat="49.3325920104980469">
        <ele>128.1824951171875</ele>
        <time>2016-09-21T12:01:39.000Z</time>
      </trkpt>
      <trkpt lon="0.3484377264976501" lat="49.3326835632324219">
        <ele>127.8239974975586</ele>
        <time>2016-09-21T12:01:42.000Z</time>
      </trkpt>
      <trkpt lon="0.3486302495002747" lat="49.3327522277832031">
        <ele>127.65106201171875</ele>
        <time>2016-09-21T12:01:44.000Z</time>
      </trkpt>
      <trkpt lon="0.3489362001419067" lat="49.3328514099121094">
        <ele>127.68254089355469</ele>
        <time>2016-09-21T12:01:47.000Z</time>
      </trkpt>
      <trkpt lon="0.3491203486919403" lat="49.3328933715820312">
        <ele>127.85501861572266</ele>
        <time>2016-09-21T12:01:49.000Z</time>
      </trkpt>
      <trkpt lon="0.3493238687515259" lat="49.3329658508300781">
        <ele>128.07589721679688</ele>
        <time>2016-09-21T12:01:51.000Z</time>
      </trkpt>
      <trkpt lon="0.3495968580245972" lat="49.3330497741699219">
        <ele>128.2613525390625</ele>
        <time>2016-09-21T12:01:54.000Z</time>
      </trkpt>
      <trkpt lon="0.3498706221580505" lat="49.3331794738769531">
        <ele>128.33860778808594</ele>
        <time>2016-09-21T12:01:57.000Z</time>
      </trkpt>
      <trkpt lon="0.3500473797321320" lat="49.3332786560058594">
        <ele>128.3317413330078</ele>
        <time>2016-09-21T12:01:59.000Z</time>
      </trkpt>
      <trkpt lon="0.3503034412860870" lat="49.3334274291992188">
        <ele>128.49111938476562</ele>
        <time>2016-09-21T12:02:02.000Z</time>
      </trkpt>
      <trkpt lon="0.3504745364189148" lat="49.3335075378417969">
        <ele>128.77523803710938</ele>
        <time>2016-09-21T12:02:04.000Z</time>
      </trkpt>
      <trkpt lon="0.3506299257278442" lat="49.3335800170898438">
        <ele>129.15902709960938</ele>
        <time>2016-09-21T12:02:06.000Z</time>
      </trkpt>
      <trkpt lon="0.3507899343967438" lat="49.3336791992187500">
        <ele>129.62496948242188</ele>
        <time>2016-09-21T12:02:08.000Z</time>
      </trkpt>
      <trkpt lon="0.3510195910930634" lat="49.3338088989257812">
        <ele>130.0213623046875</ele>
        <time>2016-09-21T12:02:11.000Z</time>
      </trkpt>
      <trkpt lon="0.3512400388717651" lat="49.3339729309082031">
        <ele>130.11729431152344</ele>
        <time>2016-09-21T12:02:14.000Z</time>
      </trkpt>
      <trkpt lon="0.3513570725917816" lat="49.3340835571289062">
        <ele>130.03990173339844</ele>
        <time>2016-09-21T12:02:16.000Z</time>
      </trkpt>
      <trkpt lon="0.3514839708805084" lat="49.3342056274414062">
        <ele>129.81167602539062</ele>
        <time>2016-09-21T12:02:18.000Z</time>
      </trkpt>
      <trkpt lon="0.3516484200954437" lat="49.3343811035156250">
        <ele>129.40798950195312</ele>
        <time>2016-09-21T12:02:21.000Z</time>
      </trkpt>
      <trkpt lon="0.3517080843448639" lat="49.3345260620117188">
        <ele>129.0032196044922</ele>
        <time>2016-09-21T12:02:23.000Z</time>
      </trkpt>
      <trkpt lon="0.3518525063991547" lat="49.3347091674804688">
        <ele>128.65200805664062</ele>
        <time>2016-09-21T12:02:26.000Z</time>
      </trkpt>
      <trkpt lon="0.3520062267780304" lat="49.3349227905273438">
        <ele>128.34190368652344</ele>
        <time>2016-09-21T12:02:29.000Z</time>
      </trkpt>
      <trkpt lon="0.3521344065666199" lat="49.3351020812988281">
        <ele>128.1116485595703</ele>
        <time>2016-09-21T12:02:32.000Z</time>
      </trkpt>
      <trkpt lon="0.3522408604621887" lat="49.3352432250976562">
        <ele>127.98604583740234</ele>
        <time>2016-09-21T12:02:34.000Z</time>
      </trkpt>
      <trkpt lon="0.3523600399494171" lat="49.3353691101074219">
        <ele>127.87702941894531</ele>
        <time>2016-09-21T12:02:36.000Z</time>
      </trkpt>
      <trkpt lon="0.3524757027626038" lat="49.3355560302734375">
        <ele>127.68343353271484</ele>
        <time>2016-09-21T12:02:39.000Z</time>
      </trkpt>
      <trkpt lon="0.3525847494602203" lat="49.3356628417968750">
        <ele>127.4028091430664</ele>
        <time>2016-09-21T12:02:41.000Z</time>
      </trkpt>
      <trkpt lon="0.3527176976203918" lat="49.3358497619628906">
        <ele>126.9657974243164</ele>
        <time>2016-09-21T12:02:44.000Z</time>
      </trkpt>
      <trkpt lon="0.3528663814067841" lat="49.3360328674316406">
        <ele>126.6407699584961</ele>
        <time>2016-09-21T12:02:47.000Z</time>
      </trkpt>
      <trkpt lon="0.3529651165008545" lat="49.3361434936523438">
        <ele>126.43497467041016</ele>
        <time>2016-09-21T12:02:49.000Z</time>
      </trkpt>
      <trkpt lon="0.3530874252319336" lat="49.3363227844238281">
        <ele>126.49131774902344</ele>
        <time>2016-09-21T12:02:52.000Z</time>
      </trkpt>
      <trkpt lon="0.3531916141510010" lat="49.3364410400390625">
        <ele>126.75614166259766</ele>
        <time>2016-09-21T12:02:54.000Z</time>
      </trkpt>
      <trkpt lon="0.3532862365245819" lat="49.3365440368652344">
        <ele>127.27357482910156</ele>
        <time>2016-09-21T12:02:56.000Z</time>
      </trkpt>
      <trkpt lon="0.3533751666545868" lat="49.3366470336914062">
        <ele>127.80503845214844</ele>
        <time>2016-09-21T12:02:58.000Z</time>
      </trkpt>
      <trkpt lon="0.3535447418689728" lat="49.3367881774902344">
        <ele>128.32699584960938</ele>
        <time>2016-09-21T12:03:01.000Z</time>
      </trkpt>
      <trkpt lon="0.3537161350250244" lat="49.3368721008300781">
        <ele>128.7200469970703</ele>
        <time>2016-09-21T12:03:04.000Z</time>
      </trkpt>
      <trkpt lon="0.3538438081741333" lat="49.3369064331054688">
        <ele>128.99583435058594</ele>
        <time>2016-09-21T12:03:06.000Z</time>
      </trkpt>
      <trkpt lon="0.3539787530899048" lat="49.3369102478027344">
        <ele>129.14810180664062</ele>
        <time>2016-09-21T12:03:08.000Z</time>
      </trkpt>
      <trkpt lon="0.3541320562362671" lat="49.3369255065917969">
        <ele>129.17308044433594</ele>
        <time>2016-09-21T12:03:10.000Z</time>
      </trkpt>
      <trkpt lon="0.3543110191822052" lat="49.3370323181152344">
        <ele>129.09500122070312</ele>
        <time>2016-09-21T12:03:13.000Z</time>
      </trkpt>
      <trkpt lon="0.3543085753917694" lat="49.3371543884277344">
        <ele>129.00729370117188</ele>
        <time>2016-09-21T12:03:15.000Z</time>
      </trkpt>
      <trkpt lon="0.3542071580886841" lat="49.3373527526855469">
        <ele>128.95309448242188</ele>
        <time>2016-09-21T12:03:18.000Z</time>
      </trkpt>
      <trkpt lon="0.3542455434799194" lat="49.3374824523925781">
        <ele>128.9078369140625</ele>
        <time>2016-09-21T12:03:20.000Z</time>
      </trkpt>
      <trkpt lon="0.3543235957622528" lat="49.3377037048339844">
        <ele>128.85580444335938</ele>
        <time>2016-09-21T12:03:23.000Z</time>
      </trkpt>
      <trkpt lon="0.3543930649757385" lat="49.3378448486328125">
        <ele>128.8135528564453</ele>
        <time>2016-09-21T12:03:25.000Z</time>
      </trkpt>
      <trkpt lon="0.3545693457126617" lat="49.3380355834960938">
        <ele>128.6886749267578</ele>
        <time>2016-09-21T12:03:28.000Z</time>
      </trkpt>
      <trkpt lon="0.3546936511993408" lat="49.3381652832031250">
        <ele>128.4706268310547</ele>
        <time>2016-09-21T12:03:30.000Z</time>
      </trkpt>
      <trkpt lon="0.3548826575279236" lat="49.3383483886718750">
        <ele>128.14588928222656</ele>
        <time>2016-09-21T12:03:33.000Z</time>
      </trkpt>
      <trkpt lon="0.3550585806369781" lat="49.3385314941406250">
        <ele>127.7786865234375</ele>
        <time>2016-09-21T12:03:36.000Z</time>
      </trkpt>
      <trkpt lon="0.3552536368370056" lat="49.3387145996093750">
        <ele>127.39469909667969</ele>
        <time>2016-09-21T12:03:39.000Z</time>
      </trkpt>
      <trkpt lon="0.3554843962192535" lat="49.3388748168945312">
        <ele>127.0373764038086</ele>
        <time>2016-09-21T12:03:42.000Z</time>
      </trkpt>
      <trkpt lon="0.3556045889854431" lat="49.3389816284179688">
        <ele>126.72004699707031</ele>
        <time>2016-09-21T12:03:44.000Z</time>
      </trkpt>
      <trkpt lon="0.3557510077953339" lat="49.3391036987304688">
        <ele>126.48347473144531</ele>
        <time>2016-09-21T12:03:46.000Z</time>
      </trkpt>
      <trkpt lon="0.3559531867504120" lat="49.3392715454101562">
        <ele>126.31797790527344</ele>
        <time>2016-09-21T12:03:49.000Z</time>
      </trkpt>
      <trkpt lon="0.3561524450778961" lat="49.3394470214843750">
        <ele>126.25166320800781</ele>
        <time>2016-09-21T12:03:52.000Z</time>
      </trkpt>
      <trkpt lon="0.3562726378440857" lat="49.3395652770996094">
        <ele>126.29598236083984</ele>
        <time>2016-09-21T12:03:54.000Z</time>
      </trkpt>
      <trkpt lon="0.3563990294933319" lat="49.3396873474121094">
        <ele>126.43083190917969</ele>
        <time>2016-09-21T12:03:56.000Z</time>
      </trkpt>
      <trkpt lon="0.3565667569637299" lat="49.3398704528808594">
        <ele>126.7160873413086</ele>
        <time>2016-09-21T12:03:59.000Z</time>
      </trkpt>
      <trkpt lon="0.3567225635051727" lat="49.3400192260742188">
        <ele>127.0864486694336</ele>
        <time>2016-09-21T12:04:02.000Z</time>
      </trkpt>
      <trkpt lon="0.3569017648696899" lat="49.3401679992675781">
        <ele>127.45185852050781</ele>
        <time>2016-09-21T12:04:05.000Z</time>
      </trkpt>
      <trkpt lon="0.3570201992988586" lat="49.3402748107910156">
        <ele>127.7901382446289</ele>
        <time>2016-09-21T12:04:07.000Z</time>
      </trkpt>
      <trkpt lon="0.3571502864360809" lat="49.3403739929199219">
        <ele>128.0741424560547</ele>
        <time>2016-09-21T12:04:09.000Z</time>
      </trkpt>
      <trkpt lon="0.3573856651782990" lat="49.3405265808105469">
        <ele>128.2210693359375</ele>
        <time>2016-09-21T12:04:12.000Z</time>
      </trkpt>
      <trkpt lon="0.3575519621372223" lat="49.3405914306640625">
        <ele>128.25680541992188</ele>
        <time>2016-09-21T12:04:14.000Z</time>
      </trkpt>
      <trkpt lon="0.3577154874801636" lat="49.3406486511230469">
        <ele>128.28619384765625</ele>
        <time>2016-09-21T12:04:16.000Z</time>
      </trkpt>
      <trkpt lon="0.3578448295593262" lat="49.3407402038574219">
        <ele>128.3518524169922</ele>
        <time>2016-09-21T12:04:18.000Z</time>
      </trkpt>
      <trkpt lon="0.3578095436096191" lat="49.3409004211425781">
        <ele>128.5109100341797</ele>
        <time>2016-09-21T12:04:20.000Z</time>
      </trkpt>
      <trkpt lon="0.3578812777996063" lat="49.3410720825195312">
        <ele>128.77383422851562</ele>
        <time>2016-09-21T12:04:23.000Z</time>
      </trkpt>
      <trkpt lon="0.3579938411712646" lat="49.3412399291992188">
        <ele>129.14218139648438</ele>
        <time>2016-09-21T12:04:26.000Z</time>
      </trkpt>
      <trkpt lon="0.3580876588821411" lat="49.3413505554199219">
        <ele>129.5222625732422</ele>
        <time>2016-09-21T12:04:28.000Z</time>
      </trkpt>
      <trkpt lon="0.3582251071929932" lat="49.3415031433105469">
        <ele>129.912109375</ele>
        <time>2016-09-21T12:04:31.000Z</time>
      </trkpt>
      <trkpt lon="0.3583618104457855" lat="49.3416824340820312">
        <ele>130.2515106201172</ele>
        <time>2016-09-21T12:04:34.000Z</time>
      </trkpt>
      <trkpt lon="0.3585019707679749" lat="49.3418617248535156">
        <ele>130.3594512939453</ele>
        <time>2016-09-21T12:04:37.000Z</time>
      </trkpt>
      <trkpt lon="0.3586261868476868" lat="49.3419799804687500">
        <ele>130.30899047851562</ele>
        <time>2016-09-21T12:04:39.000Z</time>
      </trkpt>
      <trkpt lon="0.3587332963943481" lat="49.3421096801757812">
        <ele>130.16482543945312</ele>
        <time>2016-09-21T12:04:41.000Z</time>
      </trkpt>
      <trkpt lon="0.3588979244232178" lat="49.3423156738281250">
        <ele>129.94735717773438</ele>
        <time>2016-09-21T12:04:44.000Z</time>
      </trkpt>
      <trkpt lon="0.3590644001960754" lat="49.3424873352050781">
        <ele>129.74649047851562</ele>
        <time>2016-09-21T12:04:47.000Z</time>
      </trkpt>
      <trkpt lon="0.3591991662979126" lat="49.3426628112792969">
        <ele>129.63111877441406</ele>
        <time>2016-09-21T12:04:50.000Z</time>
      </trkpt>
      <trkpt lon="0.3593032658100128" lat="49.3427734375000000">
        <ele>129.5006103515625</ele>
        <time>2016-09-21T12:04:52.000Z</time>
      </trkpt>
      <trkpt lon="0.3594660460948944" lat="49.3429336547851562">
        <ele>129.2832489013672</ele>
        <time>2016-09-21T12:04:55.000Z</time>
      </trkpt>
      <trkpt lon="0.3595864176750183" lat="49.3430442810058594">
        <ele>128.98123168945312</ele>
        <time>2016-09-21T12:04:57.000Z</time>
      </trkpt>
      <trkpt lon="0.3597624301910400" lat="49.3432197570800781">
        <ele>128.50155639648438</ele>
        <time>2016-09-21T12:05:00.000Z</time>
      </trkpt>
      <trkpt lon="0.3598982989788055" lat="49.3433189392089844">
        <ele>128.02249145507812</ele>
        <time>2016-09-21T12:05:02.000Z</time>
      </trkpt>
      <trkpt lon="0.3600252866744995" lat="49.3434371948242188">
        <ele>127.60704040527344</ele>
        <time>2016-09-21T12:05:04.000Z</time>
      </trkpt>
      <trkpt lon="0.3602137267589569" lat="49.3436050415039062">
        <ele>127.28764343261719</ele>
        <time>2016-09-21T12:05:07.000Z</time>
      </trkpt>
      <trkpt lon="0.3604069054126740" lat="49.3437843322753906">
        <ele>126.97994232177734</ele>
        <time>2016-09-21T12:05:10.000Z</time>
      </trkpt>
      <trkpt lon="0.3606330752372742" lat="49.3439521789550781">
        <ele>126.66215515136719</ele>
        <time>2016-09-21T12:05:13.000Z</time>
      </trkpt>
      <trkpt lon="0.3607836067676544" lat="49.3440666198730469">
        <ele>126.30250549316406</ele>
        <time>2016-09-21T12:05:15.000Z</time>
      </trkpt>
      <trkpt lon="0.3610227406024933" lat="49.3442001342773438">
        <ele>125.83717346191406</ele>
        <time>2016-09-21T12:05:18.000Z</time>
      </trkpt>
      <trkpt lon="0.3611944019794464" lat="49.3442878723144531">
        <ele>125.32210540771484</ele>
        <time>2016-09-21T12:05:20.000Z</time>
      </trkpt>
      <trkpt lon="0.3613637089729309" lat="49.3443908691406250">
        <ele>124.80632019042969</ele>
        <time>2016-09-21T12:05:22.000Z</time>
      </trkpt>
      <trkpt lon="0.3616487681865692" lat="49.3445205688476562">
        <ele>124.34855651855469</ele>
        <time>2016-09-21T12:05:25.000Z</time>
      </trkpt>
      <trkpt lon="0.3618409633636475" lat="49.3446273803710938">
        <ele>123.95030212402344</ele>
        <time>2016-09-21T12:05:27.000Z</time>
      </trkpt>
      <trkpt lon="0.3620145618915558" lat="49.3447303771972656">
        <ele>123.65480041503906</ele>
        <time>2016-09-21T12:05:29.000Z</time>
      </trkpt>
      <trkpt lon="0.3622695505619049" lat="49.3449211120605469">
        <ele>123.4083023071289</ele>
        <time>2016-09-21T12:05:32.000Z</time>
      </trkpt>
      <trkpt lon="0.3624079227447510" lat="49.3450736999511719">
        <ele>123.22552490234375</ele>
        <time>2016-09-21T12:05:34.000Z</time>
      </trkpt>
      <trkpt lon="0.3625645041465759" lat="49.3453292846679688">
        <ele>123.10945129394531</ele>
        <time>2016-09-21T12:05:37.000Z</time>
      </trkpt>
      <trkpt lon="0.3626336455345154" lat="49.3454818725585938">
        <ele>123.03901672363281</ele>
        <time>2016-09-21T12:05:39.000Z</time>
      </trkpt>
      <trkpt lon="0.3626760542392731" lat="49.3456993103027344">
        <ele>123.0013427734375</ele>
        <time>2016-09-21T12:05:42.000Z</time>
      </trkpt>
      <trkpt lon="0.3626723885536194" lat="49.3458328247070312">
        <ele>122.99617004394531</ele>
        <time>2016-09-21T12:05:44.000Z</time>
      </trkpt>
      <trkpt lon="0.3625694513320923" lat="49.3460731506347656">
        <ele>123.00960540771484</ele>
        <time>2016-09-21T12:05:47.000Z</time>
      </trkpt>
      <trkpt lon="0.3625153899192810" lat="49.3462486267089844">
        <ele>123.0132827758789</ele>
        <time>2016-09-21T12:05:49.000Z</time>
      </trkpt>
      <trkpt lon="0.3624405264854431" lat="49.3463935852050781">
        <ele>122.98472595214844</ele>
        <time>2016-09-21T12:05:51.000Z</time>
      </trkpt>
      <trkpt lon="0.3623163998126984" lat="49.3466072082519531">
        <ele>122.89659118652344</ele>
        <time>2016-09-21T12:05:54.000Z</time>
      </trkpt>
      <trkpt lon="0.3622542023658752" lat="49.3467292785644531">
        <ele>122.75331115722656</ele>
        <time>2016-09-21T12:05:56.000Z</time>
      </trkpt>
      <trkpt lon="0.3621760010719299" lat="49.3468742370605469">
        <ele>122.50761413574219</ele>
        <time>2016-09-21T12:05:58.000Z</time>
      </trkpt>
      <trkpt lon="0.3620835542678833" lat="49.3470916748046875">
        <ele>122.1513900756836</ele>
        <time>2016-09-21T12:06:01.000Z</time>
      </trkpt>
      <trkpt lon="0.3620462417602539" lat="49.3472251892089844">
        <ele>121.76712799072266</ele>
        <time>2016-09-21T12:06:03.000Z</time>
      </trkpt>
      <trkpt lon="0.3618128001689911" lat="49.3474121093750000">
        <ele>121.31513977050781</ele>
        <time>2016-09-21T12:06:06.000Z</time>
      </trkpt>
      <trkpt lon="0.3616757690906525" lat="49.3475914001464844">
        <ele>120.83848571777344</ele>
        <time>2016-09-21T12:06:09.000Z</time>
      </trkpt>
      <trkpt lon="0.3616735935211182" lat="49.3477325439453125">
        <ele>120.41971588134766</ele>
        <time>2016-09-21T12:06:11.000Z</time>
      </trkpt>
      <trkpt lon="0.3617433309555054" lat="49.3478660583496094">
        <ele>120.0942611694336</ele>
        <time>2016-09-21T12:06:13.000Z</time>
      </trkpt>
      <trkpt lon="0.3618635237216949" lat="49.3480796813964844">
        <ele>119.78240966796875</ele>
        <time>2016-09-21T12:06:16.000Z</time>
      </trkpt>
      <trkpt lon="0.3620317578315735" lat="49.3481864929199219">
        <ele>119.57366943359375</ele>
        <time>2016-09-21T12:06:18.000Z</time>
      </trkpt>
      <trkpt lon="0.3622306585311890" lat="49.3482589721679688">
        <ele>119.42372131347656</ele>
        <time>2016-09-21T12:06:20.000Z</time>
      </trkpt>
      <trkpt lon="0.3624175786972046" lat="49.3483314514160156">
        <ele>119.2793197631836</ele>
        <time>2016-09-21T12:06:22.000Z</time>
      </trkpt>
      <trkpt lon="0.3626505732536316" lat="49.3483810424804688">
        <ele>119.19142150878906</ele>
        <time>2016-09-21T12:06:24.000Z</time>
      </trkpt>
      <trkpt lon="0.3629701733589172" lat="49.3484497070312500">
        <ele>119.21317291259766</ele>
        <time>2016-09-21T12:06:27.000Z</time>
      </trkpt>
      <trkpt lon="0.3632258474826813" lat="49.3485488891601562">
        <ele>119.29150390625</ele>
        <time>2016-09-21T12:06:30.000Z</time>
      </trkpt>
      <trkpt lon="0.3635307550430298" lat="49.3486175537109375">
        <ele>119.4407958984375</ele>
        <time>2016-09-21T12:06:33.000Z</time>
      </trkpt>
      <trkpt lon="0.3638301789760590" lat="49.3486518859863281">
        <ele>119.68253326416016</ele>
        <time>2016-09-21T12:06:36.000Z</time>
      </trkpt>
      <trkpt lon="0.3640118837356567" lat="49.3487052917480469">
        <ele>119.9218521118164</ele>
        <time>2016-09-21T12:06:38.000Z</time>
      </trkpt>
      <trkpt lon="0.3642721474170685" lat="49.3487739562988281">
        <ele>120.13212585449219</ele>
        <time>2016-09-21T12:06:41.000Z</time>
      </trkpt>
      <trkpt lon="0.3644362688064575" lat="49.3488273620605469">
        <ele>120.32234191894531</ele>
        <time>2016-09-21T12:06:43.000Z</time>
      </trkpt>
      <trkpt lon="0.3646390140056610" lat="49.3488731384277344">
        <ele>120.4868392944336</ele>
        <time>2016-09-21T12:06:45.000Z</time>
      </trkpt>
      <trkpt lon="0.3649528324604034" lat="49.3489990234375000">
        <ele>120.63529968261719</ele>
        <time>2016-09-21T12:06:48.000Z</time>
      </trkpt>
      <trkpt lon="0.3651458024978638" lat="49.3490638732910156">
        <ele>120.8318862915039</ele>
        <time>2016-09-21T12:06:50.000Z</time>
      </trkpt>
      <trkpt lon="0.3654300272464752" lat="49.3491363525390625">
        <ele>121.13094329833984</ele>
        <time>2016-09-21T12:06:53.000Z</time>
      </trkpt>
      <trkpt lon="0.3656900227069855" lat="49.3492012023925781">
        <ele>121.52528381347656</ele>
        <time>2016-09-21T12:06:56.000Z</time>
      </trkpt>
      <trkpt lon="0.3659455180168152" lat="49.3492660522460938">
        <ele>121.93619537353516</ele>
        <time>2016-09-21T12:06:59.000Z</time>
      </trkpt>
      <trkpt lon="0.3662084639072418" lat="49.3493232727050781">
        <ele>122.2865219116211</ele>
        <time>2016-09-21T12:07:02.000Z</time>
      </trkpt>
      <trkpt lon="0.3663622736930847" lat="49.3493957519531250">
        <ele>122.5407943725586</ele>
        <time>2016-09-21T12:07:04.000Z</time>
      </trkpt>
      <trkpt lon="0.3666352629661560" lat="49.3494834899902344">
        <ele>122.6555404663086</ele>
        <time>2016-09-21T12:07:07.000Z</time>
      </trkpt>
      <trkpt lon="0.3668336570262909" lat="49.3495368957519531">
        <ele>122.65739440917969</ele>
        <time>2016-09-21T12:07:09.000Z</time>
      </trkpt>
      <trkpt lon="0.3670415282249451" lat="49.3495903015136719">
        <ele>122.5999755859375</ele>
        <time>2016-09-21T12:07:11.000Z</time>
      </trkpt>
      <trkpt lon="0.3673436045646667" lat="49.3496475219726562">
        <ele>122.51922607421875</ele>
        <time>2016-09-21T12:07:14.000Z</time>
      </trkpt>
      <trkpt lon="0.3676379919052124" lat="49.3497238159179688">
        <ele>122.40531158447266</ele>
        <time>2016-09-21T12:07:17.000Z</time>
      </trkpt>
      <trkpt lon="0.3679294288158417" lat="49.3498115539550781">
        <ele>122.27567291259766</ele>
        <time>2016-09-21T12:07:20.000Z</time>
      </trkpt>
      <trkpt lon="0.3681104779243469" lat="49.3498649597167969">
        <ele>122.15577697753906</ele>
        <time>2016-09-21T12:07:22.000Z</time>
      </trkpt>
      <trkpt lon="0.3683987259864807" lat="49.3499450683593750">
        <ele>122.0406494140625</ele>
        <time>2016-09-21T12:07:25.000Z</time>
      </trkpt>
      <trkpt lon="0.3685692846775055" lat="49.3500022888183594">
        <ele>121.86576080322266</ele>
        <time>2016-09-21T12:07:27.000Z</time>
      </trkpt>
      <trkpt lon="0.3687500059604645" lat="49.3500518798828125">
        <ele>121.64906311035156</ele>
        <time>2016-09-21T12:07:29.000Z</time>
      </trkpt>
      <trkpt lon="0.3689231872558594" lat="49.3501243591308594">
        <ele>121.37813568115234</ele>
        <time>2016-09-21T12:07:31.000Z</time>
      </trkpt>
      <trkpt lon="0.3692008852958679" lat="49.3502082824707031">
        <ele>121.02992248535156</ele>
        <time>2016-09-21T12:07:34.000Z</time>
      </trkpt>
      <trkpt lon="0.3694802522659302" lat="49.3502883911132812">
        <ele>120.69087982177734</ele>
        <time>2016-09-21T12:07:37.000Z</time>
      </trkpt>
      <trkpt lon="0.3697936534881592" lat="49.3503456115722656">
        <ele>120.42581939697266</ele>
        <time>2016-09-21T12:07:40.000Z</time>
      </trkpt>
      <trkpt lon="0.3701120615005493" lat="49.3503189086914062">
        <ele>120.1783676147461</ele>
        <time>2016-09-21T12:07:43.000Z</time>
      </trkpt>
      <trkpt lon="0.3703945279121399" lat="49.3503417968750000">
        <ele>119.86839294433594</ele>
        <time>2016-09-21T12:07:46.000Z</time>
      </trkpt>
      <trkpt lon="0.3705511987209320" lat="49.3504371643066406">
        <ele>119.55606842041016</ele>
        <time>2016-09-21T12:07:48.000Z</time>
      </trkpt>
      <trkpt lon="0.3708087801933289" lat="49.3506050109863281">
        <ele>119.12459564208984</ele>
        <time>2016-09-21T12:07:51.000Z</time>
      </trkpt>
      <trkpt lon="0.3710159063339233" lat="49.3506774902343750">
        <ele>118.70404052734375</ele>
        <time>2016-09-21T12:07:53.000Z</time>
      </trkpt>
      <trkpt lon="0.3713546097278595" lat="49.3507804870605469">
        <ele>118.35783386230469</ele>
        <time>2016-09-21T12:07:56.000Z</time>
      </trkpt>
      <trkpt lon="0.3715909719467163" lat="49.3508377075195312">
        <ele>118.14603424072266</ele>
        <time>2016-09-21T12:07:58.000Z</time>
      </trkpt>
      <trkpt lon="0.3719198703765869" lat="49.3509292602539062">
        <ele>118.00172424316406</ele>
        <time>2016-09-21T12:08:01.000Z</time>
      </trkpt>
      <trkpt lon="0.3722528815269470" lat="49.3510322570800781">
        <ele>118.0094985961914</ele>
        <time>2016-09-21T12:08:04.000Z</time>
      </trkpt>
      <trkpt lon="0.3724085390567780" lat="49.3510818481445312">
        <ele>118.05613708496094</ele>
        <time>2016-09-21T12:08:06.000Z</time>
      </trkpt>
      <trkpt lon="0.3727375268936157" lat="49.3511924743652344">
        <ele>118.23173522949219</ele>
        <time>2016-09-21T12:08:09.000Z</time>
      </trkpt>
      <trkpt lon="0.3730658590793610" lat="49.3512840270996094">
        <ele>118.53938293457031</ele>
        <time>2016-09-21T12:08:12.000Z</time>
      </trkpt>
      <trkpt lon="0.3733748197555542" lat="49.3513526916503906">
        <ele>118.9482650756836</ele>
        <time>2016-09-21T12:08:15.000Z</time>
      </trkpt>
      <trkpt lon="0.3735814988613129" lat="49.3513908386230469">
        <ele>119.3287124633789</ele>
        <time>2016-09-21T12:08:17.000Z</time>
      </trkpt>
      <trkpt lon="0.3739001154899597" lat="49.3514938354492188">
        <ele>119.68206787109375</ele>
        <time>2016-09-21T12:08:20.000Z</time>
      </trkpt>
      <trkpt lon="0.3741725981235504" lat="49.3515548706054688">
        <ele>119.90523529052734</ele>
        <time>2016-09-21T12:08:23.000Z</time>
      </trkpt>
      <trkpt lon="0.3743606805801392" lat="49.3516197204589844">
        <ele>119.954833984375</ele>
        <time>2016-09-21T12:08:25.000Z</time>
      </trkpt>
      <trkpt lon="0.3746609389781952" lat="49.3517036437988281">
        <ele>119.84336853027344</ele>
        <time>2016-09-21T12:08:28.000Z</time>
      </trkpt>
      <trkpt lon="0.3749685585498810" lat="49.3517570495605469">
        <ele>119.69218444824219</ele>
        <time>2016-09-21T12:08:31.000Z</time>
      </trkpt>
      <trkpt lon="0.3752474188804626" lat="49.3518333435058594">
        <ele>119.66780090332031</ele>
        <time>2016-09-21T12:08:34.000Z</time>
      </trkpt>
      <trkpt lon="0.3755075037479401" lat="49.3518867492675781">
        <ele>119.7541732788086</ele>
        <time>2016-09-21T12:08:37.000Z</time>
      </trkpt>
      <trkpt lon="0.3756774067878723" lat="49.3519401550292969">
        <ele>119.94789123535156</ele>
        <time>2016-09-21T12:08:39.000Z</time>
      </trkpt>
      <trkpt lon="0.3758522570133209" lat="49.3520011901855469">
        <ele>120.2684555053711</ele>
        <time>2016-09-21T12:08:41.000Z</time>
      </trkpt>
      <trkpt lon="0.3761512339115143" lat="49.3520927429199219">
        <ele>120.77223205566406</ele>
        <time>2016-09-21T12:08:44.000Z</time>
      </trkpt>
      <trkpt lon="0.3764110803604126" lat="49.3521766662597656">
        <ele>121.27394104003906</ele>
        <time>2016-09-21T12:08:47.000Z</time>
      </trkpt>
      <trkpt lon="0.3765971362590790" lat="49.3522300720214844">
        <ele>121.75541687011719</ele>
        <time>2016-09-21T12:08:49.000Z</time>
      </trkpt>
      <trkpt lon="0.3768926858901978" lat="49.3522949218750000">
        <ele>122.24653625488281</ele>
        <time>2016-09-21T12:08:52.000Z</time>
      </trkpt>
      <trkpt lon="0.3771914243698120" lat="49.3523674011230469">
        <ele>122.74346923828125</ele>
        <time>2016-09-21T12:08:55.000Z</time>
      </trkpt>
      <trkpt lon="0.3773693740367889" lat="49.3524284362792969">
        <ele>123.14518737792969</ele>
        <time>2016-09-21T12:08:57.000Z</time>
      </trkpt>
      <trkpt lon="0.3776268661022186" lat="49.3525352478027344">
        <ele>123.4983139038086</ele>
        <time>2016-09-21T12:09:00.000Z</time>
      </trkpt>
      <trkpt lon="0.3777914047241211" lat="49.3525581359863281">
        <ele>123.8016128540039</ele>
        <time>2016-09-21T12:09:02.000Z</time>
      </trkpt>
      <trkpt lon="0.3779352307319641" lat="49.3526115417480469">
        <ele>124.06517028808594</ele>
        <time>2016-09-21T12:09:04.000Z</time>
      </trkpt>
      <trkpt lon="0.3781865239143372" lat="49.3526840209960938">
        <ele>124.32391357421875</ele>
        <time>2016-09-21T12:09:07.000Z</time>
      </trkpt>
      <trkpt lon="0.3784044682979584" lat="49.3527565002441406">
        <ele>124.5696029663086</ele>
        <time>2016-09-21T12:09:10.000Z</time>
      </trkpt>
      <trkpt lon="0.3785786330699921" lat="49.3527984619140625">
        <ele>124.7391586303711</ele>
        <time>2016-09-21T12:09:12.000Z</time>
      </trkpt>
      <trkpt lon="0.3787468671798706" lat="49.3528442382812500">
        <ele>124.86921691894531</ele>
        <time>2016-09-21T12:09:14.000Z</time>
      </trkpt>
      <trkpt lon="0.3789795339107513" lat="49.3528938293457031">
        <ele>124.96476745605469</ele>
        <time>2016-09-21T12:09:17.000Z</time>
      </trkpt>
      <trkpt lon="0.3791939616203308" lat="49.3529434204101562">
        <ele>125.00347900390625</ele>
        <time>2016-09-21T12:09:20.000Z</time>
      </trkpt>
      <trkpt lon="0.3794485032558441" lat="49.3529853820800781">
        <ele>125.04298400878906</ele>
        <time>2016-09-21T12:09:23.000Z</time>
      </trkpt>
      <trkpt lon="0.3796940147876740" lat="49.3530502319335938">
        <ele>125.12678527832031</ele>
        <time>2016-09-21T12:09:26.000Z</time>
      </trkpt>
      <trkpt lon="0.3799081742763519" lat="49.3531455993652344">
        <ele>125.26460266113281</ele>
        <time>2016-09-21T12:09:29.000Z</time>
      </trkpt>
      <trkpt lon="0.3800723850727081" lat="49.3531837463378906">
        <ele>125.4345703125</ele>
        <time>2016-09-21T12:09:31.000Z</time>
      </trkpt>
      <trkpt lon="0.3802223205566406" lat="49.3532295227050781">
        <ele>125.61962890625</ele>
        <time>2016-09-21T12:09:33.000Z</time>
      </trkpt>
      <trkpt lon="0.3803955912590027" lat="49.3532791137695312">
        <ele>125.77946472167969</ele>
        <time>2016-09-21T12:09:35.000Z</time>
      </trkpt>
      <trkpt lon="0.3806402385234833" lat="49.3533477783203125">
        <ele>125.89937591552734</ele>
        <time>2016-09-21T12:09:38.000Z</time>
      </trkpt>
      <trkpt lon="0.3808725178241730" lat="49.3534049987792969">
        <ele>125.9875259399414</ele>
        <time>2016-09-21T12:09:41.000Z</time>
      </trkpt>
      <trkpt lon="0.3810965418815613" lat="49.3534698486328125">
        <ele>126.1032943725586</ele>
        <time>2016-09-21T12:09:44.000Z</time>
      </trkpt>
      <trkpt lon="0.3813314139842987" lat="49.3535346984863281">
        <ele>126.2538833618164</ele>
        <time>2016-09-21T12:09:47.000Z</time>
      </trkpt>
      <trkpt lon="0.3815786838531494" lat="49.3536033630371094">
        <ele>126.4403076171875</ele>
        <time>2016-09-21T12:09:50.000Z</time>
      </trkpt>
      <trkpt lon="0.3817340135574341" lat="49.3536376953125000">
        <ele>126.6365966796875</ele>
        <time>2016-09-21T12:09:52.000Z</time>
      </trkpt>
      <trkpt lon="0.3819311559200287" lat="49.3537063598632812">
        <ele>126.81063079833984</ele>
        <time>2016-09-21T12:09:55.000Z</time>
      </trkpt>
      <trkpt lon="0.3821084201335907" lat="49.3537521362304688">
        <ele>126.92488098144531</ele>
        <time>2016-09-21T12:09:57.000Z</time>
      </trkpt>
      <trkpt lon="0.3823614716529846" lat="49.3538093566894531">
        <ele>126.98576354980469</ele>
        <time>2016-09-21T12:10:00.000Z</time>
      </trkpt>
      <trkpt lon="0.3825066387653351" lat="49.3538436889648438">
        <ele>127.003173828125</ele>
        <time>2016-09-21T12:10:02.000Z</time>
      </trkpt>
      <trkpt lon="0.3826425075531006" lat="49.3538856506347656">
        <ele>127.07157897949219</ele>
        <time>2016-09-21T12:10:04.000Z</time>
      </trkpt>
      <trkpt lon="0.3828637897968292" lat="49.3539428710937500">
        <ele>127.2461929321289</ele>
        <time>2016-09-21T12:10:07.000Z</time>
      </trkpt>
      <trkpt lon="0.3829938769340515" lat="49.3539810180664062">
        <ele>127.4832534790039</ele>
        <time>2016-09-21T12:10:09.000Z</time>
      </trkpt>
      <trkpt lon="0.3831458389759064" lat="49.3540267944335938">
        <ele>127.79325866699219</ele>
        <time>2016-09-21T12:10:11.000Z</time>
      </trkpt>
      <trkpt lon="0.3832975625991821" lat="49.3540840148925781">
        <ele>128.17291259765625</ele>
        <time>2016-09-21T12:10:13.000Z</time>
      </trkpt>
      <trkpt lon="0.3835320770740509" lat="49.3541412353515625">
        <ele>128.5045166015625</ele>
        <time>2016-09-21T12:10:16.000Z</time>
      </trkpt>
      <trkpt lon="0.3837804496288300" lat="49.3542060852050781">
        <ele>128.7201385498047</ele>
        <time>2016-09-21T12:10:19.000Z</time>
      </trkpt>
      <trkpt lon="0.3839493393898010" lat="49.3542518615722656">
        <ele>128.86256408691406</ele>
        <time>2016-09-21T12:10:21.000Z</time>
      </trkpt>
      <trkpt lon="0.3841856122016907" lat="49.3543243408203125">
        <ele>128.91360473632812</ele>
        <time>2016-09-21T12:10:24.000Z</time>
      </trkpt>
      <trkpt lon="0.3844275176525116" lat="49.3543968200683594">
        <ele>128.85769653320312</ele>
        <time>2016-09-21T12:10:27.000Z</time>
      </trkpt>
      <trkpt lon="0.3845978379249573" lat="49.3544425964355469">
        <ele>128.75692749023438</ele>
        <time>2016-09-21T12:10:29.000Z</time>
      </trkpt>
      <trkpt lon="0.3848508894443512" lat="49.3545112609863281">
        <ele>128.6155242919922</ele>
        <time>2016-09-21T12:10:32.000Z</time>
      </trkpt>
      <trkpt lon="0.3851213753223419" lat="49.3545799255371094">
        <ele>128.45120239257812</ele>
        <time>2016-09-21T12:10:35.000Z</time>
      </trkpt>
      <trkpt lon="0.3853137493133545" lat="49.3546409606933594">
        <ele>128.31539916992188</ele>
        <time>2016-09-21T12:10:37.000Z</time>
      </trkpt>
      <trkpt lon="0.3855032622814178" lat="49.3546905517578125">
        <ele>128.2439727783203</ele>
        <time>2016-09-21T12:10:39.000Z</time>
      </trkpt>
      <trkpt lon="0.3858144879341125" lat="49.3547630310058594">
        <ele>128.2830810546875</ele>
        <time>2016-09-21T12:10:42.000Z</time>
      </trkpt>
      <trkpt lon="0.3861371874809265" lat="49.3548164367675781">
        <ele>128.40646362304688</ele>
        <time>2016-09-21T12:10:45.000Z</time>
      </trkpt>
      <trkpt lon="0.3864053189754486" lat="49.3549003601074219">
        <ele>128.5836944580078</ele>
        <time>2016-09-21T12:10:48.000Z</time>
      </trkpt>
      <trkpt lon="0.3866118490695953" lat="49.3549499511718750">
        <ele>128.7576141357422</ele>
        <time>2016-09-21T12:10:50.000Z</time>
      </trkpt>
      <trkpt lon="0.3867930769920349" lat="49.3550109863281250">
        <ele>128.83349609375</ele>
        <time>2016-09-21T12:10:52.000Z</time>
      </trkpt>
      <trkpt lon="0.3870027065277100" lat="49.3550720214843750">
        <ele>128.7038116455078</ele>
        <time>2016-09-21T12:10:54.000Z</time>
      </trkpt>
      <trkpt lon="0.3872731924057007" lat="49.3551368713378906">
        <ele>128.4139862060547</ele>
        <time>2016-09-21T12:10:57.000Z</time>
      </trkpt>
      <trkpt lon="0.3875435888767242" lat="49.3552169799804688">
        <ele>128.03204345703125</ele>
        <time>2016-09-21T12:11:00.000Z</time>
      </trkpt>
      <trkpt lon="0.3877690434455872" lat="49.3552627563476562">
        <ele>127.69742584228516</ele>
        <time>2016-09-21T12:11:02.000Z</time>
      </trkpt>
      <trkpt lon="0.3880395293235779" lat="49.3553504943847656">
        <ele>127.49554443359375</ele>
        <time>2016-09-21T12:11:05.000Z</time>
      </trkpt>
      <trkpt lon="0.3882906734943390" lat="49.3554687500000000">
        <ele>127.4766616821289</ele>
        <time>2016-09-21T12:11:08.000Z</time>
      </trkpt>
      <trkpt lon="0.3885485827922821" lat="49.3555488586425781">
        <ele>127.52606201171875</ele>
        <time>2016-09-21T12:11:11.000Z</time>
      </trkpt>
      <trkpt lon="0.3887284398078918" lat="49.3555984497070312">
        <ele>127.57929992675781</ele>
        <time>2016-09-21T12:11:13.000Z</time>
      </trkpt>
      <trkpt lon="0.3889905512332916" lat="49.3556938171386719">
        <ele>127.45255279541016</ele>
        <time>2016-09-21T12:11:16.000Z</time>
      </trkpt>
      <trkpt lon="0.3892756998538971" lat="49.3557167053222656">
        <ele>127.1789321899414</ele>
        <time>2016-09-21T12:11:19.000Z</time>
      </trkpt>
      <trkpt lon="0.3895205259323120" lat="49.3557968139648438">
        <ele>126.80595397949219</ele>
        <time>2016-09-21T12:11:22.000Z</time>
      </trkpt>
      <trkpt lon="0.3896868228912354" lat="49.3558540344238281">
        <ele>126.463623046875</ele>
        <time>2016-09-21T12:11:24.000Z</time>
      </trkpt>
      <trkpt lon="0.3898752629756927" lat="49.3559532165527344">
        <ele>126.14251708984375</ele>
        <time>2016-09-21T12:11:26.000Z</time>
      </trkpt>
      <trkpt lon="0.3901333510875702" lat="49.3560752868652344">
        <ele>125.9206771850586</ele>
        <time>2016-09-21T12:11:29.000Z</time>
      </trkpt>
      <trkpt lon="0.3904108703136444" lat="49.3562011718750000">
        <ele>125.786865234375</ele>
        <time>2016-09-21T12:11:32.000Z</time>
      </trkpt>
      <trkpt lon="0.3906781673431396" lat="49.3563079833984375">
        <ele>125.70548248291016</ele>
        <time>2016-09-21T12:11:35.000Z</time>
      </trkpt>
      <trkpt lon="0.3908527493476868" lat="49.3563766479492188">
        <ele>125.664794921875</ele>
        <time>2016-09-21T12:11:37.000Z</time>
      </trkpt>
      <trkpt lon="0.3911189734935760" lat="49.3565025329589844">
        <ele>125.73823547363281</ele>
        <time>2016-09-21T12:11:40.000Z</time>
      </trkpt>
      <trkpt lon="0.3913986682891846" lat="49.3566398620605469">
        <ele>125.9061050415039</ele>
        <time>2016-09-21T12:11:43.000Z</time>
      </trkpt>
      <trkpt lon="0.3916841447353363" lat="49.3567733764648438">
        <ele>126.10667419433594</ele>
        <time>2016-09-21T12:11:46.000Z</time>
      </trkpt>
      <trkpt lon="0.3918811380863190" lat="49.3568496704101562">
        <ele>126.2518081665039</ele>
        <time>2016-09-21T12:11:48.000Z</time>
      </trkpt>
      <trkpt lon="0.3921821117401123" lat="49.3569717407226562">
        <ele>126.32954406738281</ele>
        <time>2016-09-21T12:11:51.000Z</time>
      </trkpt>
      <trkpt lon="0.3924495875835419" lat="49.3570899963378906">
        <ele>126.30506896972656</ele>
        <time>2016-09-21T12:11:54.000Z</time>
      </trkpt>
      <trkpt lon="0.3927364945411682" lat="49.3572120666503906">
        <ele>126.17756652832031</ele>
        <time>2016-09-21T12:11:57.000Z</time>
      </trkpt>
      <trkpt lon="0.3929891288280487" lat="49.3573341369628906">
        <ele>126.00556945800781</ele>
        <time>2016-09-21T12:12:00.000Z</time>
      </trkpt>
      <trkpt lon="0.3932235836982727" lat="49.3574981689453125">
        <ele>125.89874267578125</ele>
        <time>2016-09-21T12:12:03.000Z</time>
      </trkpt>
      <trkpt lon="0.3934380710124969" lat="49.3576622009277344">
        <ele>125.81474304199219</ele>
        <time>2016-09-21T12:12:06.000Z</time>
      </trkpt>
      <trkpt lon="0.3935358822345734" lat="49.3577651977539062">
        <ele>125.72987365722656</ele>
        <time>2016-09-21T12:12:08.000Z</time>
      </trkpt>
      <trkpt lon="0.3936375677585602" lat="49.3578681945800781">
        <ele>125.6368179321289</ele>
        <time>2016-09-21T12:12:10.000Z</time>
      </trkpt>
      <trkpt lon="0.3938115537166595" lat="49.3580169677734375">
        <ele>125.48225402832031</ele>
        <time>2016-09-21T12:12:13.000Z</time>
      </trkpt>
      <trkpt lon="0.3939486145973206" lat="49.3581275939941406">
        <ele>125.24491882324219</ele>
        <time>2016-09-21T12:12:15.000Z</time>
      </trkpt>
      <trkpt lon="0.3941036760807037" lat="49.3582191467285156">
        <ele>124.98236083984375</ele>
        <time>2016-09-21T12:12:17.000Z</time>
      </trkpt>
      <trkpt lon="0.3944057524204254" lat="49.3583106994628906">
        <ele>124.68992614746094</ele>
        <time>2016-09-21T12:12:20.000Z</time>
      </trkpt>
      <trkpt lon="0.3946294784545898" lat="49.3584518432617188">
        <ele>124.410888671875</ele>
        <time>2016-09-21T12:12:23.000Z</time>
      </trkpt>
      <trkpt lon="0.3948410451412201" lat="49.3585281372070312">
        <ele>124.1769027709961</ele>
        <time>2016-09-21T12:12:25.000Z</time>
      </trkpt>
      <trkpt lon="0.3951449692249298" lat="49.3586044311523438">
        <ele>123.9516830444336</ele>
        <time>2016-09-21T12:12:28.000Z</time>
      </trkpt>
      <trkpt lon="0.3954595327377319" lat="49.3586883544921875">
        <ele>123.72331237792969</ele>
        <time>2016-09-21T12:12:31.000Z</time>
      </trkpt>
      <trkpt lon="0.3956783711910248" lat="49.3587837219238281">
        <ele>123.52613830566406</ele>
        <time>2016-09-21T12:12:33.000Z</time>
      </trkpt>
      <trkpt lon="0.3958419263362885" lat="49.3588676452636719">
        <ele>123.34187316894531</ele>
        <time>2016-09-21T12:12:35.000Z</time>
      </trkpt>
      <trkpt lon="0.3960275650024414" lat="49.3589630126953125">
        <ele>123.17979431152344</ele>
        <time>2016-09-21T12:12:37.000Z</time>
      </trkpt>
      <trkpt lon="0.3961872458457947" lat="49.3590431213378906">
        <ele>123.06864166259766</ele>
        <time>2016-09-21T12:12:39.000Z</time>
      </trkpt>
      <trkpt lon="0.3963559865951538" lat="49.3591194152832031">
        <ele>123.01704406738281</ele>
        <time>2016-09-21T12:12:41.000Z</time>
      </trkpt>
      <trkpt lon="0.3966059982776642" lat="49.3592605590820312">
        <ele>122.97898864746094</ele>
        <time>2016-09-21T12:12:44.000Z</time>
      </trkpt>
      <trkpt lon="0.3968432247638702" lat="49.3593902587890625">
        <ele>122.8941421508789</ele>
        <time>2016-09-21T12:12:47.000Z</time>
      </trkpt>
      <trkpt lon="0.3970035612583160" lat="49.3594627380371094">
        <ele>122.77069091796875</ele>
        <time>2016-09-21T12:12:49.000Z</time>
      </trkpt>
      <trkpt lon="0.3972589671611786" lat="49.3595924377441406">
        <ele>122.59910583496094</ele>
        <time>2016-09-21T12:12:52.000Z</time>
      </trkpt>
      <trkpt lon="0.3975296020507812" lat="49.3597183227539062">
        <ele>122.39442443847656</ele>
        <time>2016-09-21T12:12:55.000Z</time>
      </trkpt>
      <trkpt lon="0.3976869285106659" lat="49.3598060607910156">
        <ele>122.18099212646484</ele>
        <time>2016-09-21T12:12:57.000Z</time>
      </trkpt>
      <trkpt lon="0.3979332745075226" lat="49.3599395751953125">
        <ele>121.96927642822266</ele>
        <time>2016-09-21T12:13:00.000Z</time>
      </trkpt>
      <trkpt lon="0.3982069492340088" lat="49.3600616455078125">
        <ele>121.70572662353516</ele>
        <time>2016-09-21T12:13:03.000Z</time>
      </trkpt>
      <trkpt lon="0.3984981477260590" lat="49.3601913452148438">
        <ele>121.4522705078125</ele>
        <time>2016-09-21T12:13:06.000Z</time>
      </trkpt>
      <trkpt lon="0.3987680375576019" lat="49.3603210449218750">
        <ele>121.20484924316406</ele>
        <time>2016-09-21T12:13:09.000Z</time>
      </trkpt>
      <trkpt lon="0.3990310728549957" lat="49.3604469299316406">
        <ele>120.9209976196289</ele>
        <time>2016-09-21T12:13:12.000Z</time>
      </trkpt>
      <trkpt lon="0.3992995321750641" lat="49.3605651855468750">
        <ele>120.61209869384766</ele>
        <time>2016-09-21T12:13:15.000Z</time>
      </trkpt>
      <trkpt lon="0.3995798230171204" lat="49.3607063293457031">
        <ele>120.29109191894531</ele>
        <time>2016-09-21T12:13:18.000Z</time>
      </trkpt>
      <trkpt lon="0.3998182117938995" lat="49.3608322143554688">
        <ele>119.91731262207031</ele>
        <time>2016-09-21T12:13:21.000Z</time>
      </trkpt>
      <trkpt lon="0.4001162648200989" lat="49.3609504699707031">
        <ele>119.56941223144531</ele>
        <time>2016-09-21T12:13:24.000Z</time>
      </trkpt>
      <trkpt lon="0.4003857374191284" lat="49.3610954284667969">
        <ele>119.2876968383789</ele>
        <time>2016-09-21T12:13:27.000Z</time>
      </trkpt>
      <trkpt lon="0.4005706608295441" lat="49.3612022399902344">
        <ele>119.0931625366211</ele>
        <time>2016-09-21T12:13:29.000Z</time>
      </trkpt>
      <trkpt lon="0.4008064270019531" lat="49.3613166809082031">
        <ele>119.00117492675781</ele>
        <time>2016-09-21T12:13:32.000Z</time>
      </trkpt>
      <trkpt lon="0.4010737240314484" lat="49.3614540100097656">
        <ele>118.95701599121094</ele>
        <time>2016-09-21T12:13:35.000Z</time>
      </trkpt>
      <trkpt lon="0.4012180566787720" lat="49.3615264892578125">
        <ele>118.8801040649414</ele>
        <time>2016-09-21T12:13:37.000Z</time>
      </trkpt>
      <trkpt lon="0.4015040695667267" lat="49.3616714477539062">
        <ele>118.71662902832031</ele>
        <time>2016-09-21T12:13:40.000Z</time>
      </trkpt>
      <trkpt lon="0.4017991125583649" lat="49.3618316650390625">
        <ele>118.3970947265625</ele>
        <time>2016-09-21T12:13:43.000Z</time>
      </trkpt>
      <trkpt lon="0.4020016789436340" lat="49.3619079589843750">
        <ele>118.02482604980469</ele>
        <time>2016-09-21T12:13:45.000Z</time>
      </trkpt>
      <trkpt lon="0.4022947251796722" lat="49.3620605468750000">
        <ele>117.58421325683594</ele>
        <time>2016-09-21T12:13:48.000Z</time>
      </trkpt>
      <trkpt lon="0.4024952948093414" lat="49.3621673583984375">
        <ele>117.10136413574219</ele>
        <time>2016-09-21T12:13:50.000Z</time>
      </trkpt>
      <trkpt lon="0.4028119742870331" lat="49.3623085021972656">
        <ele>116.6025390625</ele>
        <time>2016-09-21T12:13:53.000Z</time>
      </trkpt>
      <trkpt lon="0.4031073451042175" lat="49.3624610900878906">
        <ele>116.1513671875</ele>
        <time>2016-09-21T12:13:56.000Z</time>
      </trkpt>
      <trkpt lon="0.4034147858619690" lat="49.3626098632812500">
        <ele>115.75</ele>
        <time>2016-09-21T12:13:59.000Z</time>
      </trkpt>
      <trkpt lon="0.4036109447479248" lat="49.3626976013183594">
        <ele>115.4814453125</ele>
        <time>2016-09-21T12:14:01.000Z</time>
      </trkpt>
      <trkpt lon="0.4039079844951630" lat="49.3628387451171875">
        <ele>115.322265625</ele>
        <time>2016-09-21T12:14:04.000Z</time>
      </trkpt>
      <trkpt lon="0.4041880369186401" lat="49.3629798889160156">
        <ele>115.29902648925781</ele>
        <time>2016-09-21T12:14:07.000Z</time>
      </trkpt>
      <trkpt lon="0.4043622910976410" lat="49.3630638122558594">
        <ele>115.38868713378906</ele>
        <time>2016-09-21T12:14:09.000Z</time>
      </trkpt>
      <trkpt lon="0.4046277403831482" lat="49.3632125854492188">
        <ele>115.45475769042969</ele>
        <time>2016-09-21T12:14:12.000Z</time>
      </trkpt>
      <trkpt lon="0.4048247039318085" lat="49.3632926940917969">
        <ele>115.45452880859375</ele>
        <time>2016-09-21T12:14:14.000Z</time>
      </trkpt>
      <trkpt lon="0.4050767719745636" lat="49.3634376525878906">
        <ele>115.30810546875</ele>
        <time>2016-09-21T12:14:17.000Z</time>
      </trkpt>
      <trkpt lon="0.4053662717342377" lat="49.3635749816894531">
        <ele>115.0155258178711</ele>
        <time>2016-09-21T12:14:20.000Z</time>
      </trkpt>
      <trkpt lon="0.4055389463901520" lat="49.3636779785156250">
        <ele>114.65462493896484</ele>
        <time>2016-09-21T12:14:22.000Z</time>
      </trkpt>
      <trkpt lon="0.4057842791080475" lat="49.3638076782226562">
        <ele>114.25379943847656</ele>
        <time>2016-09-21T12:14:25.000Z</time>
      </trkpt>
      <trkpt lon="0.4060955941677094" lat="49.3639488220214844">
        <ele>113.92146301269531</ele>
        <time>2016-09-21T12:14:28.000Z</time>
      </trkpt>
      <trkpt lon="0.4062783122062683" lat="49.3640365600585938">
        <ele>113.72450256347656</ele>
        <time>2016-09-21T12:14:30.000Z</time>
      </trkpt>
      <trkpt lon="0.4064669013023376" lat="49.3641281127929688">
        <ele>113.66404724121094</ele>
        <time>2016-09-21T12:14:32.000Z</time>
      </trkpt>
      <trkpt lon="0.4066829085350037" lat="49.3642578125000000">
        <ele>113.70945739746094</ele>
        <time>2016-09-21T12:14:35.000Z</time>
      </trkpt>
      <trkpt lon="0.4069257378578186" lat="49.3643875122070312">
        <ele>113.86351013183594</ele>
        <time>2016-09-21T12:14:38.000Z</time>
      </trkpt>
      <trkpt lon="0.4072117209434509" lat="49.3644905090332031">
        <ele>114.0283203125</ele>
        <time>2016-09-21T12:14:41.000Z</time>
      </trkpt>
      <trkpt lon="0.4074431359767914" lat="49.3646049499511719">
        <ele>114.17928314208984</ele>
        <time>2016-09-21T12:14:44.000Z</time>
      </trkpt>
      <trkpt lon="0.4076669514179230" lat="49.3647384643554688">
        <ele>114.32081604003906</ele>
        <time>2016-09-21T12:14:47.000Z</time>
      </trkpt>
      <trkpt lon="0.4078926742076874" lat="49.3648490905761719">
        <ele>114.44810485839844</ele>
        <time>2016-09-21T12:14:50.000Z</time>
      </trkpt>
      <trkpt lon="0.4080739617347717" lat="49.3649291992187500">
        <ele>114.55718994140625</ele>
        <time>2016-09-21T12:14:52.000Z</time>
      </trkpt>
      <trkpt lon="0.4082957506179810" lat="49.3650474548339844">
        <ele>114.64593505859375</ele>
        <time>2016-09-21T12:14:55.000Z</time>
      </trkpt>
      <trkpt lon="0.4085343778133392" lat="49.3651275634765625">
        <ele>114.7030258178711</ele>
        <time>2016-09-21T12:14:58.000Z</time>
      </trkpt>
      <trkpt lon="0.4086195528507233" lat="49.3652000427246094">
        <ele>114.71983337402344</ele>
        <time>2016-09-21T12:15:00.000Z</time>
      </trkpt>
      <trkpt lon="0.4087055325508118" lat="49.3654098510742188">
        <ele>114.63645935058594</ele>
        <time>2016-09-21T12:15:03.000Z</time>
      </trkpt>
      <trkpt lon="0.4088104665279388" lat="49.3656196594238281">
        <ele>114.468994140625</ele>
        <time>2016-09-21T12:15:06.000Z</time>
      </trkpt>
      <trkpt lon="0.4088718295097351" lat="49.3657379150390625">
        <ele>114.26007080078125</ele>
        <time>2016-09-21T12:15:08.000Z</time>
      </trkpt>
      <trkpt lon="0.4089796245098114" lat="49.3659133911132812">
        <ele>114.03946685791016</ele>
        <time>2016-09-21T12:15:11.000Z</time>
      </trkpt>
      <trkpt lon="0.4091120660305023" lat="49.3661003112792969">
        <ele>113.7864990234375</ele>
        <time>2016-09-21T12:15:14.000Z</time>
      </trkpt>
      <trkpt lon="0.4092270731925964" lat="49.3662986755371094">
        <ele>113.5293960571289</ele>
        <time>2016-09-21T12:15:17.000Z</time>
      </trkpt>
      <trkpt lon="0.4092874825000763" lat="49.3664360046386719">
        <ele>113.2824478149414</ele>
        <time>2016-09-21T12:15:19.000Z</time>
      </trkpt>
      <trkpt lon="0.4093504548072815" lat="49.3665542602539062">
        <ele>113.02132415771484</ele>
        <time>2016-09-21T12:15:21.000Z</time>
      </trkpt>
      <trkpt lon="0.4094293117523193" lat="49.3666572570800781">
        <ele>112.76313781738281</ele>
        <time>2016-09-21T12:15:23.000Z</time>
      </trkpt>
      <trkpt lon="0.4095157384872437" lat="49.3668594360351562">
        <ele>112.5149917602539</ele>
        <time>2016-09-21T12:15:26.000Z</time>
      </trkpt>
      <trkpt lon="0.4096217751502991" lat="49.3670616149902344">
        <ele>112.2874755859375</ele>
        <time>2016-09-21T12:15:29.000Z</time>
      </trkpt>
      <trkpt lon="0.4097171425819397" lat="49.3671875000000000">
        <ele>112.07170104980469</ele>
        <time>2016-09-21T12:15:31.000Z</time>
      </trkpt>
      <trkpt lon="0.4098542928695679" lat="49.3673934936523438">
        <ele>111.81888580322266</ele>
        <time>2016-09-21T12:15:34.000Z</time>
      </trkpt>
      <trkpt lon="0.4099411070346832" lat="49.3675155639648438">
        <ele>111.5443115234375</ele>
        <time>2016-09-21T12:15:36.000Z</time>
      </trkpt>
      <trkpt lon="0.4101149439811707" lat="49.3677062988281250">
        <ele>111.22566986083984</ele>
        <time>2016-09-21T12:15:39.000Z</time>
      </trkpt>
      <trkpt lon="0.4102575182914734" lat="49.3678359985351562">
        <ele>110.90235900878906</ele>
        <time>2016-09-21T12:15:41.000Z</time>
      </trkpt>
      <trkpt lon="0.4104123413562775" lat="49.3679847717285156">
        <ele>110.54499816894531</ele>
        <time>2016-09-21T12:15:43.000Z</time>
      </trkpt>
      <trkpt lon="0.4106540679931641" lat="49.3681640625000000">
        <ele>110.1802749633789</ele>
        <time>2016-09-21T12:15:46.000Z</time>
      </trkpt>
      <trkpt lon="0.4109215438365936" lat="49.3683509826660156">
        <ele>109.76151275634766</ele>
        <time>2016-09-21T12:15:49.000Z</time>
      </trkpt>
      <trkpt lon="0.4111120700836182" lat="49.3684806823730469">
        <ele>109.33528137207031</ele>
        <time>2016-09-21T12:15:51.000Z</time>
      </trkpt>
      <trkpt lon="0.4112932980060577" lat="49.3686065673828125">
        <ele>108.84696960449219</ele>
        <time>2016-09-21T12:15:53.000Z</time>
      </trkpt>
      <trkpt lon="0.4115443229675293" lat="49.3688278198242188">
        <ele>108.18827819824219</ele>
        <time>2016-09-21T12:15:56.000Z</time>
      </trkpt>
      <trkpt lon="0.4117491841316223" lat="49.3690223693847656">
        <ele>107.46672058105469</ele>
        <time>2016-09-21T12:15:59.000Z</time>
      </trkpt>
      <trkpt lon="0.4117944240570068" lat="49.3691673278808594">
        <ele>106.78489685058594</ele>
        <time>2016-09-21T12:16:01.000Z</time>
      </trkpt>
      <trkpt lon="0.4118734896183014" lat="49.3694343566894531">
        <ele>106.2282485961914</ele>
        <time>2016-09-21T12:16:04.000Z</time>
      </trkpt>
      <trkpt lon="0.4119557142257690" lat="49.3696975708007812">
        <ele>105.7967529296875</ele>
        <time>2016-09-21T12:16:07.000Z</time>
      </trkpt>
      <trkpt lon="0.4120292067527771" lat="49.3699417114257812">
        <ele>105.58731842041016</ele>
        <time>2016-09-21T12:16:10.000Z</time>
      </trkpt>
      <trkpt lon="0.4121443927288055" lat="49.3700981140136719">
        <ele>105.53887939453125</ele>
        <time>2016-09-21T12:16:13.000Z</time>
      </trkpt>
      <trkpt lon="0.4122323989868164" lat="49.3702239990234375">
        <ele>105.56370544433594</ele>
        <time>2016-09-21T12:16:16.000Z</time>
      </trkpt>
      <trkpt lon="0.4123603701591492" lat="49.3703384399414062">
        <ele>105.55931091308594</ele>
        <time>2016-09-21T12:16:19.000Z</time>
      </trkpt>
      <trkpt lon="0.4124285280704498" lat="49.3704223632812500">
        <ele>105.5385513305664</ele>
        <time>2016-09-21T12:16:21.000Z</time>
      </trkpt>
      <trkpt lon="0.4124866127967834" lat="49.3704948425292969">
        <ele>105.5211410522461</ele>
        <time>2016-09-21T12:16:23.000Z</time>
      </trkpt>
      <trkpt lon="0.4125705063343048" lat="49.3705635070800781">
        <ele>105.5081787109375</ele>
        <time>2016-09-21T12:16:25.000Z</time>
      </trkpt>
      <trkpt lon="0.4127087295055389" lat="49.3706512451171875">
        <ele>105.53569030761719</ele>
        <time>2016-09-21T12:16:28.000Z</time>
      </trkpt>
      <trkpt lon="0.4127781391143799" lat="49.3707046508789062">
        <ele>105.58772277832031</ele>
        <time>2016-09-21T12:16:30.000Z</time>
      </trkpt>
      <trkpt lon="0.4128390848636627" lat="49.3708724975585938">
        <ele>105.6473159790039</ele>
        <time>2016-09-21T12:16:33.000Z</time>
      </trkpt>
      <trkpt lon="0.4129932224750519" lat="49.3710441589355469">
        <ele>105.72361755371094</ele>
        <time>2016-09-21T12:16:36.000Z</time>
      </trkpt>
      <trkpt lon="0.4130772054195404" lat="49.3711280822753906">
        <ele>105.75079345703125</ele>
        <time>2016-09-21T12:16:38.000Z</time>
      </trkpt>
      <trkpt lon="0.4131839871406555" lat="49.3712234497070312">
        <ele>105.6607894897461</ele>
        <time>2016-09-21T12:16:41.000Z</time>
      </trkpt>
      <trkpt lon="0.4132692217826843" lat="49.3713073730468750">
        <ele>105.46441650390625</ele>
        <time>2016-09-21T12:16:43.000Z</time>
      </trkpt>
      <trkpt lon="0.4133672118186951" lat="49.3713760375976562">
        <ele>105.17872619628906</ele>
        <time>2016-09-21T12:16:45.000Z</time>
      </trkpt>
      <trkpt lon="0.4134593307971954" lat="49.3715248107910156">
        <ele>104.71162414550781</ele>
        <time>2016-09-21T12:16:48.000Z</time>
      </trkpt>
      <trkpt lon="0.4135837256908417" lat="49.3716049194335938">
        <ele>104.13679504394531</ele>
        <time>2016-09-21T12:16:50.000Z</time>
      </trkpt>
      <trkpt lon="0.4136825501918793" lat="49.3717613220214844">
        <ele>103.64149475097656</ele>
        <time>2016-09-21T12:16:53.000Z</time>
      </trkpt>
      <trkpt lon="0.4137708842754364" lat="49.3717880249023438">
        <ele>103.22453308105469</ele>
        <time>2016-09-21T12:16:55.000Z</time>
      </trkpt>
      <trkpt lon="0.4138686358928680" lat="49.3718643188476562">
        <ele>102.94700622558594</ele>
        <time>2016-09-21T12:16:57.000Z</time>
      </trkpt>
      <trkpt lon="0.4139673709869385" lat="49.3719673156738281">
        <ele>102.9314193725586</ele>
        <time>2016-09-21T12:17:00.000Z</time>
      </trkpt>
      <trkpt lon="0.4140460789203644" lat="49.3720283508300781">
        <ele>103.0868148803711</ele>
        <time>2016-09-21T12:17:02.000Z</time>
      </trkpt>
      <trkpt lon="0.4142224192619324" lat="49.3721275329589844">
        <ele>103.27366638183594</ele>
        <time>2016-09-21T12:17:05.000Z</time>
      </trkpt>
      <trkpt lon="0.4143836796283722" lat="49.3722114562988281">
        <ele>103.49665832519531</ele>
        <time>2016-09-21T12:17:07.000Z</time>
      </trkpt>
      <trkpt lon="0.4146501421928406" lat="49.3723564147949219">
        <ele>103.54911041259766</ele>
        <time>2016-09-21T12:17:10.000Z</time>
      </trkpt>
      <trkpt lon="0.4150068759918213" lat="49.3725433349609375">
        <ele>103.08050537109375</ele>
        <time>2016-09-21T12:17:13.000Z</time>
      </trkpt>
      <trkpt lon="0.4152679741382599" lat="49.3726577758789062">
        <ele>102.45921325683594</ele>
        <time>2016-09-21T12:17:15.000Z</time>
      </trkpt>
      <trkpt lon="0.4158065319061279" lat="49.3730621337890625">
        <ele>101.39994812011719</ele>
        <time>2016-09-21T12:17:19.000Z</time>
      </trkpt>
      <trkpt lon="0.4159890711307526" lat="49.3731918334960938">
        <ele>100.12873840332031</ele>
        <time>2016-09-21T12:17:21.000Z</time>
      </trkpt>
      <trkpt lon="0.4162406921386719" lat="49.3733253479003906">
        <ele>98.60487365722656</ele>
        <time>2016-09-21T12:17:23.000Z</time>
      </trkpt>
      <trkpt lon="0.4166227579116821" lat="49.3735885620117188">
        <ele>96.70661926269531</ele>
        <time>2016-09-21T12:17:26.000Z</time>
      </trkpt>
      <trkpt lon="0.4168744683265686" lat="49.3737258911132812">
        <ele>94.5589370727539</ele>
        <time>2016-09-21T12:17:28.000Z</time>
      </trkpt>
      <trkpt lon="0.4172290265560150" lat="49.3739204406738281">
        <ele>92.2997055053711</ele>
        <time>2016-09-21T12:17:31.000Z</time>
      </trkpt>
      <trkpt lon="0.4175675511360168" lat="49.3740882873535156">
        <ele>89.93898010253906</ele>
        <time>2016-09-21T12:17:34.000Z</time>
      </trkpt>
      <trkpt lon="0.4177508652210236" lat="49.3742294311523438">
        <ele>88.30213928222656</ele>
        <time>2016-09-21T12:17:36.000Z</time>
      </trkpt>
      <trkpt lon="0.4179210364818573" lat="49.3743972778320312">
        <ele>87.7178955078125</ele>
        <time>2016-09-21T12:17:38.000Z</time>
      </trkpt>
      <trkpt lon="0.4181523621082306" lat="49.3746414184570312">
        <ele>87.688720703125</ele>
        <time>2016-09-21T12:17:41.000Z</time>
      </trkpt>
      <trkpt lon="0.4182277917861938" lat="49.3748054504394531">
        <ele>88.0317153930664</ele>
        <time>2016-09-21T12:17:43.000Z</time>
      </trkpt>
      <trkpt lon="0.4183250367641449" lat="49.3749465942382812">
        <ele>88.58507537841797</ele>
        <time>2016-09-21T12:17:45.000Z</time>
      </trkpt>
      <trkpt lon="0.4183973670005798" lat="49.3751144409179688">
        <ele>88.87100982666016</ele>
        <time>2016-09-21T12:17:47.000Z</time>
      </trkpt>
      <trkpt lon="0.4184343218803406" lat="49.3753204345703125">
        <ele>88.8994140625</ele>
        <time>2016-09-21T12:17:50.000Z</time>
      </trkpt>
      <trkpt lon="0.4184461534023285" lat="49.3754768371582031">
        <ele>88.66266632080078</ele>
        <time>2016-09-21T12:17:52.000Z</time>
      </trkpt>
      <trkpt lon="0.4184215962886810" lat="49.3756217956542969">
        <ele>88.35684967041016</ele>
        <time>2016-09-21T12:17:54.000Z</time>
      </trkpt>
      <trkpt lon="0.4182898402214050" lat="49.3758506774902344">
        <ele>87.61299133300781</ele>
        <time>2016-09-21T12:17:57.000Z</time>
      </trkpt>
      <trkpt lon="0.4181575477123260" lat="49.3759803771972656">
        <ele>86.8758316040039</ele>
        <time>2016-09-21T12:17:59.000Z</time>
      </trkpt>
      <trkpt lon="0.4178846478462219" lat="49.3761749267578125">
        <ele>85.97618103027344</ele>
        <time>2016-09-21T12:18:02.000Z</time>
      </trkpt>
      <trkpt lon="0.4177389740943909" lat="49.3763084411621094">
        <ele>85.07276916503906</ele>
        <time>2016-09-21T12:18:04.000Z</time>
      </trkpt>
      <trkpt lon="0.4174971580505371" lat="49.3765525817871094">
        <ele>84.16029357910156</ele>
        <time>2016-09-21T12:18:07.000Z</time>
      </trkpt>
      <trkpt lon="0.4172763824462891" lat="49.3767509460449219">
        <ele>83.52458190917969</ele>
        <time>2016-09-21T12:18:10.000Z</time>
      </trkpt>
      <trkpt lon="0.4171037971973419" lat="49.3768730163574219">
        <ele>82.4178237915039</ele>
        <time>2016-09-21T12:18:12.000Z</time>
      </trkpt>
      <trkpt lon="0.4169932305812836" lat="49.3770179748535156">
        <ele>81.2296142578125</ele>
        <time>2016-09-21T12:18:14.000Z</time>
      </trkpt>
      <trkpt lon="0.4169808328151703" lat="49.3772621154785156">
        <ele>80.14241790771484</ele>
        <time>2016-09-21T12:18:17.000Z</time>
      </trkpt>
      <trkpt lon="0.4169892072677612" lat="49.3775177001953125">
        <ele>79.3703384399414</ele>
        <time>2016-09-21T12:18:20.000Z</time>
      </trkpt>
      <trkpt lon="0.4169862866401672" lat="49.3776893615722656">
        <ele>78.99353790283203</ele>
        <time>2016-09-21T12:18:22.000Z</time>
      </trkpt>
      <trkpt lon="0.4170766174793243" lat="49.3779106140136719">
        <ele>79.58009338378906</ele>
        <time>2016-09-21T12:18:25.000Z</time>
      </trkpt>
      <trkpt lon="0.4171010255813599" lat="49.3780593872070312">
        <ele>80.69234466552734</ele>
        <time>2016-09-21T12:18:27.000Z</time>
      </trkpt>
      <trkpt lon="0.4170297682285309" lat="49.3781700134277344">
        <ele>81.61128234863281</ele>
        <time>2016-09-21T12:18:30.000Z</time>
      </trkpt>
      <trkpt lon="0.4167420268058777" lat="49.3786010742187500">
        <ele>81.86532592773438</ele>
        <time>2016-09-21T12:18:35.000Z</time>
      </trkpt>
      <trkpt lon="0.4165121018886566" lat="49.3788490295410156">
        <ele>81.84443664550781</ele>
        <time>2016-09-21T12:18:38.000Z</time>
      </trkpt>
      <trkpt lon="0.4163148105144501" lat="49.3790740966796875">
        <ele>81.1711654663086</ele>
        <time>2016-09-21T12:18:41.000Z</time>
      </trkpt>
      <trkpt lon="0.4163341522216797" lat="49.3792228698730469">
        <ele>80.4345474243164</ele>
        <time>2016-09-21T12:18:43.000Z</time>
      </trkpt>
      <trkpt lon="0.4163041412830353" lat="49.3794631958007812">
        <ele>79.94463348388672</ele>
        <time>2016-09-21T12:18:46.000Z</time>
      </trkpt>
      <trkpt lon="0.4162728190422058" lat="49.3796806335449219">
        <ele>80.03863525390625</ele>
        <time>2016-09-21T12:18:49.000Z</time>
      </trkpt>
      <trkpt lon="0.4162878990173340" lat="49.3797912597656250">
        <ele>80.36650848388672</ele>
        <time>2016-09-21T12:18:51.000Z</time>
      </trkpt>
      <trkpt lon="0.4163040816783905" lat="49.3800354003906250">
        <ele>81.00669860839844</ele>
        <time>2016-09-21T12:18:54.000Z</time>
      </trkpt>
      <trkpt lon="0.4162220954895020" lat="49.3801803588867188">
        <ele>81.2846450805664</ele>
        <time>2016-09-21T12:18:56.000Z</time>
      </trkpt>
      <trkpt lon="0.4160977005958557" lat="49.3804321289062500">
        <ele>81.3065185546875</ele>
        <time>2016-09-21T12:18:59.000Z</time>
      </trkpt>
      <trkpt lon="0.4159303903579712" lat="49.3806648254394531">
        <ele>80.9356689453125</ele>
        <time>2016-09-21T12:19:02.000Z</time>
      </trkpt>
      <trkpt lon="0.4158283174037933" lat="49.3807830810546875">
        <ele>80.20417785644531</ele>
        <time>2016-09-21T12:19:04.000Z</time>
      </trkpt>
      <trkpt lon="0.4155852496623993" lat="49.3810005187988281">
        <ele>79.28897857666016</ele>
        <time>2016-09-21T12:19:07.000Z</time>
      </trkpt>
      <trkpt lon="0.4154252409934998" lat="49.3811607360839844">
        <ele>78.5783462524414</ele>
        <time>2016-09-21T12:19:10.000Z</time>
      </trkpt>
      <trkpt lon="0.4152486324310303" lat="49.3813362121582031">
        <ele>77.97981262207031</ele>
        <time>2016-09-21T12:19:13.000Z</time>
      </trkpt>
      <trkpt lon="0.4151312708854675" lat="49.3814392089843750">
        <ele>77.60199737548828</ele>
        <time>2016-09-21T12:19:15.000Z</time>
      </trkpt>
      <trkpt lon="0.4149446189403534" lat="49.3815612792968750">
        <ele>77.09291076660156</ele>
        <time>2016-09-21T12:19:18.000Z</time>
      </trkpt>
      <trkpt lon="0.4147925674915314" lat="49.3817787170410156">
        <ele>76.46478271484375</ele>
        <time>2016-09-21T12:19:21.000Z</time>
      </trkpt>
      <trkpt lon="0.4146307110786438" lat="49.3819389343261719">
        <ele>75.4722900390625</ele>
        <time>2016-09-21T12:19:23.000Z</time>
      </trkpt>
      <trkpt lon="0.4145788252353668" lat="49.3820800781250000">
        <ele>74.56429290771484</ele>
        <time>2016-09-21T12:19:25.000Z</time>
      </trkpt>
      <trkpt lon="0.4144462347030640" lat="49.3823509216308594">
        <ele>73.55082702636719</ele>
        <time>2016-09-21T12:19:28.000Z</time>
      </trkpt>
      <trkpt lon="0.4143832623958588" lat="49.3824920654296875">
        <ele>72.73118591308594</ele>
        <time>2016-09-21T12:19:30.000Z</time>
      </trkpt>
      <trkpt lon="0.4143079221248627" lat="49.3827285766601562">
        <ele>72.1434326171875</ele>
        <time>2016-09-21T12:19:33.000Z</time>
      </trkpt>
      <trkpt lon="0.4141594767570496" lat="49.3829345703125000">
        <ele>71.65553283691406</ele>
        <time>2016-09-21T12:19:36.000Z</time>
      </trkpt>
      <trkpt lon="0.4139759242534637" lat="49.3831100463867188">
        <ele>71.06040954589844</ele>
        <time>2016-09-21T12:19:39.000Z</time>
      </trkpt>
      <trkpt lon="0.4137699604034424" lat="49.3832015991210938">
        <ele>70.29243469238281</ele>
        <time>2016-09-21T12:19:41.000Z</time>
      </trkpt>
      <trkpt lon="0.4134876728057861" lat="49.3833465576171875">
        <ele>69.08396911621094</ele>
        <time>2016-09-21T12:19:44.000Z</time>
      </trkpt>
      <trkpt lon="0.4133641123771667" lat="49.3834228515625000">
        <ele>67.6665267944336</ele>
        <time>2016-09-21T12:19:46.000Z</time>
      </trkpt>
      <trkpt lon="0.4130631089210510" lat="49.3837013244628906">
        <ele>67.07209777832031</ele>
        <time>2016-09-21T12:19:50.000Z</time>
      </trkpt>
      <trkpt lon="0.4128475487232208" lat="49.3837814331054688">
        <ele>66.3989028930664</ele>
        <time>2016-09-21T12:19:52.000Z</time>
      </trkpt>
      <trkpt lon="0.4125545024871826" lat="49.3838958740234375">
        <ele>65.832275390625</ele>
        <time>2016-09-21T12:19:55.000Z</time>
      </trkpt>
      <trkpt lon="0.4122872948646545" lat="49.3840408325195312">
        <ele>65.70527648925781</ele>
        <time>2016-09-21T12:19:58.000Z</time>
      </trkpt>
      <trkpt lon="0.4120194911956787" lat="49.3841819763183594">
        <ele>65.26994323730469</ele>
        <time>2016-09-21T12:20:01.000Z</time>
      </trkpt>
      <trkpt lon="0.4118478298187256" lat="49.3842849731445312">
        <ele>64.20307922363281</ele>
        <time>2016-09-21T12:20:03.000Z</time>
      </trkpt>
      <trkpt lon="0.4116366207599640" lat="49.3844261169433594">
        <ele>63.314048767089844</ele>
        <time>2016-09-21T12:20:06.000Z</time>
      </trkpt>
      <trkpt lon="0.4113946259021759" lat="49.3845977783203125">
        <ele>62.850852966308594</ele>
        <time>2016-09-21T12:20:09.000Z</time>
      </trkpt>
      <trkpt lon="0.4111699759960175" lat="49.3847579956054688">
        <ele>62.426719665527344</ele>
        <time>2016-09-21T12:20:12.000Z</time>
      </trkpt>
      <trkpt lon="0.4109005033969879" lat="49.3848953247070312">
        <ele>61.78886795043945</ele>
        <time>2016-09-21T12:20:15.000Z</time>
      </trkpt>
      <trkpt lon="0.4107610285282135" lat="49.3850173950195312">
        <ele>61.078765869140625</ele>
        <time>2016-09-21T12:20:17.000Z</time>
      </trkpt>
      <trkpt lon="0.4105703532695770" lat="49.3851928710937500">
        <ele>60.55158233642578</ele>
        <time>2016-09-21T12:20:20.000Z</time>
      </trkpt>
      <trkpt lon="0.4104253351688385" lat="49.3853874206542969">
        <ele>60.0462646484375</ele>
        <time>2016-09-21T12:20:23.000Z</time>
      </trkpt>
      <trkpt lon="0.4103586971759796" lat="49.3855323791503906">
        <ele>59.7758903503418</ele>
        <time>2016-09-21T12:20:25.000Z</time>
      </trkpt>
      <trkpt lon="0.4103109240531921" lat="49.3856887817382812">
        <ele>60.19989013671875</ele>
        <time>2016-09-21T12:20:27.000Z</time>
      </trkpt>
      <trkpt lon="0.4103014469146729" lat="49.3859214782714844">
        <ele>60.8579216003418</ele>
        <time>2016-09-21T12:20:30.000Z</time>
      </trkpt>
      <trkpt lon="0.4103274345397949" lat="49.3860893249511719">
        <ele>61.285362243652344</ele>
        <time>2016-09-21T12:20:33.000Z</time>
      </trkpt>
      <trkpt lon="0.4103409349918365" lat="49.3862304687500000">
        <ele>61.51873016357422</ele>
        <time>2016-09-21T12:20:35.000Z</time>
      </trkpt>
      <trkpt lon="0.4103092551231384" lat="49.3864440917968750">
        <ele>61.292945861816406</ele>
        <time>2016-09-21T12:20:38.000Z</time>
      </trkpt>
      <trkpt lon="0.4102614820003510" lat="49.3866271972656250">
        <ele>60.4913330078125</ele>
        <time>2016-09-21T12:20:41.000Z</time>
      </trkpt>
      <trkpt lon="0.4102757275104523" lat="49.3868026733398438">
        <ele>59.698631286621094</ele>
        <time>2016-09-21T12:20:44.000Z</time>
      </trkpt>
      <trkpt lon="0.4102750420570374" lat="49.3869476318359375">
        <ele>59.05128860473633</ele>
        <time>2016-09-21T12:20:46.000Z</time>
      </trkpt>
      <trkpt lon="0.4102755486965179" lat="49.3871269226074219">
        <ele>58.60771560668945</ele>
        <time>2016-09-21T12:20:48.000Z</time>
      </trkpt>
      <trkpt lon="0.4102306365966797" lat="49.3873443603515625">
        <ele>58.4666633605957</ele>
        <time>2016-09-21T12:20:51.000Z</time>
      </trkpt>
      <trkpt lon="0.4102388322353363" lat="49.3874931335449219">
        <ele>58.9238166809082</ele>
        <time>2016-09-21T12:20:54.000Z</time>
      </trkpt>
      <trkpt lon="0.4101116061210632" lat="49.3877029418945312">
        <ele>59.048622131347656</ele>
        <time>2016-09-21T12:20:57.000Z</time>
      </trkpt>
      <trkpt lon="0.4099937677383423" lat="49.3878326416015625">
        <ele>58.754417419433594</ele>
        <time>2016-09-21T12:20:59.000Z</time>
      </trkpt>
      <trkpt lon="0.4098888039588928" lat="49.3880615234375000">
        <ele>58.45818328857422</ele>
        <time>2016-09-21T12:21:02.000Z</time>
      </trkpt>
      <trkpt lon="0.4097169041633606" lat="49.3883094787597656">
        <ele>58.021568298339844</ele>
        <time>2016-09-21T12:21:05.000Z</time>
      </trkpt>
      <trkpt lon="0.4096837043762207" lat="49.3884468078613281">
        <ele>57.56574249267578</ele>
        <time>2016-09-21T12:21:07.000Z</time>
      </trkpt>
      <trkpt lon="0.4095444083213806" lat="49.3886032104492188">
        <ele>57.049354553222656</ele>
        <time>2016-09-21T12:21:09.000Z</time>
      </trkpt>
      <trkpt lon="0.4093552231788635" lat="49.3888092041015625">
        <ele>56.40364456176758</ele>
        <time>2016-09-21T12:21:12.000Z</time>
      </trkpt>
      <trkpt lon="0.4092442393302917" lat="49.3890495300292969">
        <ele>55.46723175048828</ele>
        <time>2016-09-21T12:21:15.000Z</time>
      </trkpt>
      <trkpt lon="0.4091133177280426" lat="49.3891868591308594">
        <ele>54.43095779418945</ele>
        <time>2016-09-21T12:21:17.000Z</time>
      </trkpt>
      <trkpt lon="0.4090175032615662" lat="49.3893394470214844">
        <ele>53.060638427734375</ele>
        <time>2016-09-21T12:21:19.000Z</time>
      </trkpt>
      <trkpt lon="0.4089117348194122" lat="49.3895454406738281">
        <ele>51.661094665527344</ele>
        <time>2016-09-21T12:21:22.000Z</time>
      </trkpt>
      <trkpt lon="0.4088784456253052" lat="49.3896789550781250">
        <ele>50.571292877197266</ele>
        <time>2016-09-21T12:21:24.000Z</time>
      </trkpt>
      <trkpt lon="0.4088160097599030" lat="49.3897972106933594">
        <ele>49.439422607421875</ele>
        <time>2016-09-21T12:21:26.000Z</time>
      </trkpt>
      <trkpt lon="0.4086742699146271" lat="49.3899497985839844">
        <ele>48.18185806274414</ele>
        <time>2016-09-21T12:21:29.000Z</time>
      </trkpt>
      <trkpt lon="0.4086642861366272" lat="49.3901977539062500">
        <ele>46.99773406982422</ele>
        <time>2016-09-21T12:21:32.000Z</time>
      </trkpt>
      <trkpt lon="0.4086579382419586" lat="49.3903236389160156">
        <ele>46.050899505615234</ele>
        <time>2016-09-21T12:21:34.000Z</time>
      </trkpt>
      <trkpt lon="0.4087356328964233" lat="49.3904914855957031">
        <ele>45.20481491088867</ele>
        <time>2016-09-21T12:21:37.000Z</time>
      </trkpt>
      <trkpt lon="0.4088059663772583" lat="49.3906288146972656">
        <ele>44.43608474731445</ele>
        <time>2016-09-21T12:21:39.000Z</time>
      </trkpt>
      <trkpt lon="0.4089481830596924" lat="49.3908119201660156">
        <ele>43.72624969482422</ele>
        <time>2016-09-21T12:21:42.000Z</time>
      </trkpt>
      <trkpt lon="0.4090354442596436" lat="49.3909454345703125">
        <ele>43.1079216003418</ele>
        <time>2016-09-21T12:21:44.000Z</time>
      </trkpt>
      <trkpt lon="0.4091982245445251" lat="49.3910903930664062">
        <ele>42.341583251953125</ele>
        <time>2016-09-21T12:21:47.000Z</time>
      </trkpt>
      <trkpt lon="0.4094066917896271" lat="49.3913192749023438">
        <ele>41.54281234741211</ele>
        <time>2016-09-21T12:21:50.000Z</time>
      </trkpt>
      <trkpt lon="0.4095197618007660" lat="49.3914489746093750">
        <ele>40.7260856628418</ele>
        <time>2016-09-21T12:21:52.000Z</time>
      </trkpt>
      <trkpt lon="0.4097581505775452" lat="49.3916435241699219">
        <ele>39.8089485168457</ele>
        <time>2016-09-21T12:21:55.000Z</time>
      </trkpt>
      <trkpt lon="0.4099054038524628" lat="49.3917503356933594">
        <ele>38.93254089355469</ele>
        <time>2016-09-21T12:21:57.000Z</time>
      </trkpt>
      <trkpt lon="0.4100493192672729" lat="49.3918609619140625">
        <ele>38.344852447509766</ele>
        <time>2016-09-21T12:21:59.000Z</time>
      </trkpt>
      <trkpt lon="0.4102665781974792" lat="49.3920249938964844">
        <ele>38.000274658203125</ele>
        <time>2016-09-21T12:22:02.000Z</time>
      </trkpt>
      <trkpt lon="0.4104860126972198" lat="49.3922042846679688">
        <ele>37.742591857910156</ele>
        <time>2016-09-21T12:22:05.000Z</time>
      </trkpt>
      <trkpt lon="0.4108093976974487" lat="49.3923301696777344">
        <ele>37.36546325683594</ele>
        <time>2016-09-21T12:22:08.000Z</time>
      </trkpt>
      <trkpt lon="0.4110955595970154" lat="49.3924713134765625">
        <ele>36.64476776123047</ele>
        <time>2016-09-21T12:22:11.000Z</time>
      </trkpt>
      <trkpt lon="0.4112949669361115" lat="49.3925704956054688">
        <ele>35.823089599609375</ele>
        <time>2016-09-21T12:22:13.000Z</time>
      </trkpt>
      <trkpt lon="0.4116428196430206" lat="49.3926887512207031">
        <ele>34.70212173461914</ele>
        <time>2016-09-21T12:22:16.000Z</time>
      </trkpt>
      <trkpt lon="0.4118569791316986" lat="49.3927726745605469">
        <ele>33.785648345947266</ele>
        <time>2016-09-21T12:22:18.000Z</time>
      </trkpt>
      <trkpt lon="0.4120508432388306" lat="49.3928642272949219">
        <ele>33.5871696472168</ele>
        <time>2016-09-21T12:22:20.000Z</time>
      </trkpt>
      <trkpt lon="0.4124035537242889" lat="49.3930091857910156">
        <ele>33.75981521606445</ele>
        <time>2016-09-21T12:22:23.000Z</time>
      </trkpt>
      <trkpt lon="0.4126493036746979" lat="49.3930816650390625">
        <ele>33.83349609375</ele>
        <time>2016-09-21T12:22:25.000Z</time>
      </trkpt>
      <trkpt lon="0.4129653871059418" lat="49.3932228088378906">
        <ele>33.78366470336914</ele>
        <time>2016-09-21T12:22:28.000Z</time>
      </trkpt>
      <trkpt lon="0.4132761061191559" lat="49.3933448791503906">
        <ele>33.16818618774414</ele>
        <time>2016-09-21T12:22:31.000Z</time>
      </trkpt>
      <trkpt lon="0.4136656224727631" lat="49.3934822082519531">
        <ele>32.474342346191406</ele>
        <time>2016-09-21T12:22:34.000Z</time>
      </trkpt>
      <trkpt lon="0.4139713048934937" lat="49.3936424255371094">
        <ele>31.586776733398438</ele>
        <time>2016-09-21T12:22:37.000Z</time>
      </trkpt>
      <trkpt lon="0.4141277074813843" lat="49.3937683105468750">
        <ele>30.574172973632812</ele>
        <time>2016-09-21T12:22:39.000Z</time>
      </trkpt>
      <trkpt lon="0.4143548607826233" lat="49.3939628601074219">
        <ele>29.578872680664062</ele>
        <time>2016-09-21T12:22:42.000Z</time>
      </trkpt>
      <trkpt lon="0.4146052300930023" lat="49.3941574096679688">
        <ele>28.654796600341797</ele>
        <time>2016-09-21T12:22:45.000Z</time>
      </trkpt>
      <trkpt lon="0.4147873520851135" lat="49.3942985534667969">
        <ele>27.705615997314453</ele>
        <time>2016-09-21T12:22:47.000Z</time>
      </trkpt>
      <trkpt lon="0.4150295257568359" lat="49.3944969177246094">
        <ele>26.73659324645996</ele>
        <time>2016-09-21T12:22:50.000Z</time>
      </trkpt>
      <trkpt lon="0.4153077900409698" lat="49.3946342468261719">
        <ele>25.920791625976562</ele>
        <time>2016-09-21T12:22:53.000Z</time>
      </trkpt>
      <trkpt lon="0.4155617654323578" lat="49.3948020935058594">
        <ele>25.0892391204834</ele>
        <time>2016-09-21T12:22:56.000Z</time>
      </trkpt>
      <trkpt lon="0.4157361090183258" lat="49.3949012756347656">
        <ele>24.336637496948242</ele>
        <time>2016-09-21T12:22:58.000Z</time>
      </trkpt>
      <trkpt lon="0.4159276485443115" lat="49.3950805664062500">
        <ele>23.60354995727539</ele>
        <time>2016-09-21T12:23:01.000Z</time>
      </trkpt>
      <trkpt lon="0.4161508381366730" lat="49.3952445983886719">
        <ele>23.439739227294922</ele>
        <time>2016-09-21T12:23:04.000Z</time>
      </trkpt>
      <trkpt lon="0.4163147211074829" lat="49.3953552246093750">
        <ele>23.43929672241211</ele>
        <time>2016-09-21T12:23:06.000Z</time>
      </trkpt>
      <trkpt lon="0.4165516793727875" lat="49.3955345153808594">
        <ele>23.507848739624023</ele>
        <time>2016-09-21T12:23:09.000Z</time>
      </trkpt>
      <trkpt lon="0.4166892170906067" lat="49.3956336975097656">
        <ele>23.641271591186523</ele>
        <time>2016-09-21T12:23:11.000Z</time>
      </trkpt>
      <trkpt lon="0.4168273508548737" lat="49.3957481384277344">
        <ele>23.69835090637207</ele>
        <time>2016-09-21T12:23:13.000Z</time>
      </trkpt>
      <trkpt lon="0.4170266687870026" lat="49.3959312438964844">
        <ele>23.386119842529297</ele>
        <time>2016-09-21T12:23:16.000Z</time>
      </trkpt>
      <trkpt lon="0.4171938002109528" lat="49.3960456848144531">
        <ele>23.02690315246582</ele>
        <time>2016-09-21T12:23:18.000Z</time>
      </trkpt>
      <trkpt lon="0.4174014329910278" lat="49.3962020874023438">
        <ele>22.674606323242188</ele>
        <time>2016-09-21T12:23:21.000Z</time>
      </trkpt>
      <trkpt lon="0.4176139831542969" lat="49.3963851928710938">
        <ele>22.34015655517578</ele>
        <time>2016-09-21T12:23:24.000Z</time>
      </trkpt>
      <trkpt lon="0.4177589118480682" lat="49.3965187072753906">
        <ele>21.94125747680664</ele>
        <time>2016-09-21T12:23:26.000Z</time>
      </trkpt>
      <trkpt lon="0.4180052578449249" lat="49.3966369628906250">
        <ele>21.433147430419922</ele>
        <time>2016-09-21T12:23:29.000Z</time>
      </trkpt>
      <trkpt lon="0.4181702136993408" lat="49.3967437744140625">
        <ele>20.944183349609375</ele>
        <time>2016-09-21T12:23:31.000Z</time>
      </trkpt>
      <trkpt lon="0.4183338284492493" lat="49.3968429565429688">
        <ele>20.68284034729004</ele>
        <time>2016-09-21T12:23:33.000Z</time>
      </trkpt>
      <trkpt lon="0.4185619950294495" lat="49.3969612121582031">
        <ele>20.835830688476562</ele>
        <time>2016-09-21T12:23:36.000Z</time>
      </trkpt>
      <trkpt lon="0.4186726212501526" lat="49.3970832824707031">
        <ele>21.002328872680664</ele>
        <time>2016-09-21T12:23:38.000Z</time>
      </trkpt>
      <trkpt lon="0.4188985228538513" lat="49.3972625732421875">
        <ele>20.917020797729492</ele>
        <time>2016-09-21T12:23:41.000Z</time>
      </trkpt>
      <trkpt lon="0.4190683364868164" lat="49.3973731994628906">
        <ele>20.369966506958008</ele>
        <time>2016-09-21T12:23:43.000Z</time>
      </trkpt>
      <trkpt lon="0.4193589389324188" lat="49.3975219726562500">
        <ele>19.572437286376953</ele>
        <time>2016-09-21T12:23:46.000Z</time>
      </trkpt>
      <trkpt lon="0.4195537269115448" lat="49.3977165222167969">
        <ele>18.71322250366211</ele>
        <time>2016-09-21T12:23:49.000Z</time>
      </trkpt>
      <trkpt lon="0.4197943806648254" lat="49.3978805541992188">
        <ele>17.948915481567383</ele>
        <time>2016-09-21T12:23:52.000Z</time>
      </trkpt>
      <trkpt lon="0.4200108051300049" lat="49.3980560302734375">
        <ele>17.271297454833984</ele>
        <time>2016-09-21T12:23:55.000Z</time>
      </trkpt>
      <trkpt lon="0.4202103018760681" lat="49.3982391357421875">
        <ele>16.71282958984375</ele>
        <time>2016-09-21T12:23:58.000Z</time>
      </trkpt>
      <trkpt lon="0.4203832149505615" lat="49.3983802795410156">
        <ele>16.138416290283203</ele>
        <time>2016-09-21T12:24:00.000Z</time>
      </trkpt>
      <trkpt lon="0.4205765724182129" lat="49.3985481262207031">
        <ele>15.427165031433105</ele>
        <time>2016-09-21T12:24:03.000Z</time>
      </trkpt>
      <trkpt lon="0.4206953346729279" lat="49.3986473083496094">
        <ele>14.66822338104248</ele>
        <time>2016-09-21T12:24:05.000Z</time>
      </trkpt>
      <trkpt lon="0.4209312200546265" lat="49.3988380432128906">
        <ele>14.045207023620605</ele>
        <time>2016-09-21T12:24:08.000Z</time>
      </trkpt>
      <trkpt lon="0.4210959970951080" lat="49.3989486694335938">
        <ele>13.577043533325195</ele>
        <time>2016-09-21T12:24:10.000Z</time>
      </trkpt>
      <trkpt lon="0.4213199615478516" lat="49.3991127014160156">
        <ele>12.953951835632324</ele>
        <time>2016-09-21T12:24:13.000Z</time>
      </trkpt>
      <trkpt lon="0.4215003550052643" lat="49.3992118835449219">
        <ele>12.087693214416504</ele>
        <time>2016-09-21T12:24:15.000Z</time>
      </trkpt>
      <trkpt lon="0.4217787981033325" lat="49.3993263244628906">
        <ele>11.18828010559082</ele>
        <time>2016-09-21T12:24:18.000Z</time>
      </trkpt>
      <trkpt lon="0.4220203459262848" lat="49.3994598388671875">
        <ele>10.433806419372559</ele>
        <time>2016-09-21T12:24:21.000Z</time>
      </trkpt>
      <trkpt lon="0.4221651852130890" lat="49.3995933532714844">
        <ele>9.782751083374023</ele>
        <time>2016-09-21T12:24:23.000Z</time>
      </trkpt>
      <trkpt lon="0.4222830533981323" lat="49.3996887207031250">
        <ele>9.44653034210205</ele>
        <time>2016-09-21T12:24:25.000Z</time>
      </trkpt>
      <trkpt lon="0.4225297272205353" lat="49.3998527526855469">
        <ele>9.164624214172363</ele>
        <time>2016-09-21T12:24:28.000Z</time>
      </trkpt>
      <trkpt lon="0.4226539433002472" lat="49.3999252319335938">
        <ele>8.896772384643555</ele>
        <time>2016-09-21T12:24:30.000Z</time>
      </trkpt>
      <trkpt lon="0.4227758944034576" lat="49.4000396728515625">
        <ele>8.550536155700684</ele>
        <time>2016-09-21T12:24:33.000Z</time>
      </trkpt>
      <trkpt lon="0.4228314757347107" lat="49.4001274108886719">
        <ele>8.270322799682617</ele>
        <time>2016-09-21T12:24:35.000Z</time>
      </trkpt>
      <trkpt lon="0.4228660166263580" lat="49.4002456665039062">
        <ele>8.105167388916016</ele>
        <time>2016-09-21T12:24:37.000Z</time>
      </trkpt>
      <trkpt lon="0.4230706989765167" lat="49.4003028869628906">
        <ele>8.066061973571777</ele>
        <time>2016-09-21T12:24:39.000Z</time>
      </trkpt>
      <trkpt lon="0.4232920706272125" lat="49.4003868103027344">
        <ele>8.051660537719727</ele>
        <time>2016-09-21T12:24:41.000Z</time>
      </trkpt>
      <trkpt lon="0.4235183000564575" lat="49.4004783630371094">
        <ele>8.089940071105957</ele>
        <time>2016-09-21T12:24:44.000Z</time>
      </trkpt>
      <trkpt lon="0.4237614572048187" lat="49.4005699157714844">
        <ele>8.056183815002441</ele>
        <time>2016-09-21T12:24:47.000Z</time>
      </trkpt>
      <trkpt lon="0.4240839779376984" lat="49.4005737304687500">
        <ele>7.877436637878418</ele>
        <time>2016-09-21T12:24:50.000Z</time>
      </trkpt>
      <trkpt lon="0.4241819679737091" lat="49.4004554748535156">
        <ele>7.737718105316162</ele>
        <time>2016-09-21T12:24:52.000Z</time>
      </trkpt>
      <trkpt lon="0.4242944419384003" lat="49.4003524780273438">
        <ele>7.652711391448975</ele>
        <time>2016-09-21T12:24:54.000Z</time>
      </trkpt>
      <trkpt lon="0.4244077801704407" lat="49.4002456665039062">
        <ele>7.5959906578063965</ele>
        <time>2016-09-21T12:24:56.000Z</time>
      </trkpt>
      <trkpt lon="0.4245522022247314" lat="49.4000587463378906">
        <ele>7.61685037612915</ele>
        <time>2016-09-21T12:25:00.000Z</time>
      </trkpt>
      <trkpt lon="0.4246796965599060" lat="49.3998908996582031">
        <ele>7.780035495758057</ele>
        <time>2016-09-21T12:25:03.000Z</time>
      </trkpt>
      <trkpt lon="0.4248006343841553" lat="49.3997917175292969">
        <ele>7.963047027587891</ele>
        <time>2016-09-21T12:25:05.000Z</time>
      </trkpt>
      <trkpt lon="0.4248925149440765" lat="49.3997001647949219">
        <ele>8.138914108276367</ele>
        <time>2016-09-21T12:25:07.000Z</time>
      </trkpt>
      <trkpt lon="0.4250435531139374" lat="49.3995971679687500">
        <ele>8.263177871704102</ele>
        <time>2016-09-21T12:25:09.000Z</time>
      </trkpt>
      <trkpt lon="0.4252264499664307" lat="49.3995170593261719">
        <ele>8.22119426727295</ele>
        <time>2016-09-21T12:25:12.000Z</time>
      </trkpt>
      <trkpt lon="0.4253994524478912" lat="49.3995246887207031">
        <ele>7.987534523010254</ele>
        <time>2016-09-21T12:25:14.000Z</time>
      </trkpt>
      <trkpt lon="0.4254705905914307" lat="49.3996505737304688">
        <ele>7.677133083343506</ele>
        <time>2016-09-21T12:25:16.000Z</time>
      </trkpt>
      <trkpt lon="0.4255793988704681" lat="49.3998222351074219">
        <ele>7.291338920593262</ele>
        <time>2016-09-21T12:25:19.000Z</time>
      </trkpt>
      <trkpt lon="0.4256975054740906" lat="49.4000205993652344">
        <ele>6.890065670013428</ele>
        <time>2016-09-21T12:25:22.000Z</time>
      </trkpt>
      <trkpt lon="0.4258248209953308" lat="49.4001884460449219">
        <ele>6.549342155456543</ele>
        <time>2016-09-21T12:25:25.000Z</time>
      </trkpt>
      <trkpt lon="0.4259593486785889" lat="49.4003601074218750">
        <ele>6.319121360778809</ele>
        <time>2016-09-21T12:25:28.000Z</time>
      </trkpt>
      <trkpt lon="0.4260308444499969" lat="49.4004783630371094">
        <ele>6.135792255401611</ele>
        <time>2016-09-21T12:25:30.000Z</time>
      </trkpt>
      <trkpt lon="0.4261758625507355" lat="49.4006500244140625">
        <ele>6.012697696685791</ele>
        <time>2016-09-21T12:25:33.000Z</time>
      </trkpt>
      <trkpt lon="0.4262430071830750" lat="49.4007720947265625">
        <ele>5.941196441650391</ele>
        <time>2016-09-21T12:25:35.000Z</time>
      </trkpt>
      <trkpt lon="0.4263356924057007" lat="49.4009475708007812">
        <ele>5.904371738433838</ele>
        <time>2016-09-21T12:25:38.000Z</time>
      </trkpt>
      <trkpt lon="0.4264361858367920" lat="49.4010581970214844">
        <ele>5.843626022338867</ele>
        <time>2016-09-21T12:25:40.000Z</time>
      </trkpt>
      <trkpt lon="0.4265755116939545" lat="49.4012145996093750">
        <ele>5.701601028442383</ele>
        <time>2016-09-21T12:25:43.000Z</time>
      </trkpt>
      <trkpt lon="0.4266990423202515" lat="49.4013099670410156">
        <ele>5.486231327056885</ele>
        <time>2016-09-21T12:25:45.000Z</time>
      </trkpt>
      <trkpt lon="0.4269212484359741" lat="49.4014244079589844">
        <ele>5.1664252281188965</ele>
        <time>2016-09-21T12:25:48.000Z</time>
      </trkpt>
      <trkpt lon="0.4271023869514465" lat="49.4014816284179688">
        <ele>4.807403564453125</ele>
        <time>2016-09-21T12:25:50.000Z</time>
      </trkpt>
      <trkpt lon="0.4272773265838623" lat="49.4015197753906250">
        <ele>4.433847904205322</ele>
        <time>2016-09-21T12:25:52.000Z</time>
      </trkpt>
      <trkpt lon="0.4274422824382782" lat="49.4015541076660156">
        <ele>4.088807106018066</ele>
        <time>2016-09-21T12:25:54.000Z</time>
      </trkpt>
      <trkpt lon="0.4276331365108490" lat="49.4015922546386719">
        <ele>3.799895763397217</ele>
        <time>2016-09-21T12:25:56.000Z</time>
      </trkpt>
      <trkpt lon="0.4279218912124634" lat="49.4016532897949219">
        <ele>3.633269786834717</ele>
        <time>2016-09-21T12:25:59.000Z</time>
      </trkpt>
      <trkpt lon="0.4281029403209686" lat="49.4016647338867188">
        <ele>3.570685625076294</ele>
        <time>2016-09-21T12:26:01.000Z</time>
      </trkpt>
      <trkpt lon="0.4283994138240814" lat="49.4017028808593750">
        <ele>3.636688709259033</ele>
        <time>2016-09-21T12:26:04.000Z</time>
      </trkpt>
      <trkpt lon="0.4286583364009857" lat="49.4017524719238281">
        <ele>3.761192798614502</ele>
        <time>2016-09-21T12:26:07.000Z</time>
      </trkpt>
      <trkpt lon="0.4289268851280212" lat="49.4018096923828125">
        <ele>3.878727436065674</ele>
        <time>2016-09-21T12:26:10.000Z</time>
      </trkpt>
      <trkpt lon="0.4291674494743347" lat="49.4018707275390625">
        <ele>3.9230923652648926</ele>
        <time>2016-09-21T12:26:13.000Z</time>
      </trkpt>
      <trkpt lon="0.4293987751007080" lat="49.4019203186035156">
        <ele>3.9339377880096436</ele>
        <time>2016-09-21T12:26:16.000Z</time>
      </trkpt>
      <trkpt lon="0.4295749664306641" lat="49.4019432067871094">
        <ele>3.885413408279419</ele>
        <time>2016-09-21T12:26:18.000Z</time>
      </trkpt>
      <trkpt lon="0.4298219978809357" lat="49.4019851684570312">
        <ele>3.8517136573791504</ele>
        <time>2016-09-21T12:26:21.000Z</time>
      </trkpt>
      <trkpt lon="0.4299907088279724" lat="49.4020156860351562">
        <ele>3.855511426925659</ele>
        <time>2016-09-21T12:26:23.000Z</time>
      </trkpt>
      <trkpt lon="0.4301485419273376" lat="49.4020500183105469">
        <ele>3.8854663372039795</ele>
        <time>2016-09-21T12:26:25.000Z</time>
      </trkpt>
      <trkpt lon="0.4303951263427734" lat="49.4021072387695312">
        <ele>3.8847930431365967</ele>
        <time>2016-09-21T12:26:28.000Z</time>
      </trkpt>
      <trkpt lon="0.4306149184703827" lat="49.4021492004394531">
        <ele>3.8566017150878906</ele>
        <time>2016-09-21T12:26:31.000Z</time>
      </trkpt>
      <trkpt lon="0.4308196008205414" lat="49.4022026062011719">
        <ele>3.8024566173553467</ele>
        <time>2016-09-21T12:26:34.000Z</time>
      </trkpt>
      <trkpt lon="0.4309435784816742" lat="49.4022407531738281">
        <ele>3.7313950061798096</ele>
        <time>2016-09-21T12:26:36.000Z</time>
      </trkpt>
      <trkpt lon="0.4311091899871826" lat="49.4023170471191406">
        <ele>3.6694254875183105</ele>
        <time>2016-09-21T12:26:39.000Z</time>
      </trkpt>
      <trkpt lon="0.4311819374561310" lat="49.4023933410644531">
        <ele>3.626185655593872</ele>
        <time>2016-09-21T12:26:41.000Z</time>
      </trkpt>
      <trkpt lon="0.4313065111637115" lat="49.4024925231933594">
        <ele>3.575066328048706</ele>
        <time>2016-09-21T12:26:44.000Z</time>
      </trkpt>
      <trkpt lon="0.4314098656177521" lat="49.4025917053222656">
        <ele>3.515665054321289</ele>
        <time>2016-09-21T12:26:47.000Z</time>
      </trkpt>
      <trkpt lon="0.4315261840820312" lat="49.4027137756347656">
        <ele>3.455420732498169</ele>
        <time>2016-09-21T12:26:50.000Z</time>
      </trkpt>
      <trkpt lon="0.4316551089286804" lat="49.4027938842773438">
        <ele>3.4083123207092285</ele>
        <time>2016-09-21T12:26:52.000Z</time>
      </trkpt>
      <trkpt lon="0.4318448007106781" lat="49.4028854370117188">
        <ele>3.4313254356384277</ele>
        <time>2016-09-21T12:26:55.000Z</time>
      </trkpt>
      <trkpt lon="0.4319861829280853" lat="49.4029464721679688">
        <ele>3.5284180641174316</ele>
        <time>2016-09-21T12:26:57.000Z</time>
      </trkpt>
      <trkpt lon="0.4322156012058258" lat="49.4030342102050781">
        <ele>3.7185769081115723</ele>
        <time>2016-09-21T12:27:00.000Z</time>
      </trkpt>
      <trkpt lon="0.4324975609779358" lat="49.4031372070312500">
        <ele>4.003157615661621</ele>
        <time>2016-09-21T12:27:03.000Z</time>
      </trkpt>
      <trkpt lon="0.4326588511466980" lat="49.4032135009765625">
        <ele>4.297501564025879</ele>
        <time>2016-09-21T12:27:05.000Z</time>
      </trkpt>
      <trkpt lon="0.4329063594341278" lat="49.4032974243164062">
        <ele>4.548999309539795</ele>
        <time>2016-09-21T12:27:08.000Z</time>
      </trkpt>
      <trkpt lon="0.4331627488136292" lat="49.4033966064453125">
        <ele>4.746697902679443</ele>
        <time>2016-09-21T12:27:11.000Z</time>
      </trkpt>
      <trkpt lon="0.4333392083644867" lat="49.4034500122070312">
        <ele>4.8567047119140625</ele>
        <time>2016-09-21T12:27:13.000Z</time>
      </trkpt>
      <trkpt lon="0.4335731267929077" lat="49.4035453796386719">
        <ele>4.7816691398620605</ele>
        <time>2016-09-21T12:27:16.000Z</time>
      </trkpt>
      <trkpt lon="0.4338069856166840" lat="49.4036293029785156">
        <ele>4.590440273284912</ele>
        <time>2016-09-21T12:27:19.000Z</time>
      </trkpt>
      <trkpt lon="0.4340451955795288" lat="49.4037132263183594">
        <ele>4.263111114501953</ele>
        <time>2016-09-21T12:27:22.000Z</time>
      </trkpt>
      <trkpt lon="0.4342122673988342" lat="49.4037590026855469">
        <ele>3.882612705230713</ele>
        <time>2016-09-21T12:27:24.000Z</time>
      </trkpt>
      <trkpt lon="0.4343857765197754" lat="49.4038162231445312">
        <ele>3.5108203887939453</ele>
        <time>2016-09-21T12:27:26.000Z</time>
      </trkpt>
      <trkpt lon="0.4346310198307037" lat="49.4039115905761719">
        <ele>3.2337214946746826</ele>
        <time>2016-09-21T12:27:29.000Z</time>
      </trkpt>
      <trkpt lon="0.4347851574420929" lat="49.4039802551269531">
        <ele>3.063840866088867</ele>
        <time>2016-09-21T12:27:31.000Z</time>
      </trkpt>
      <trkpt lon="0.4350233674049377" lat="49.4040641784667969">
        <ele>3.033874034881592</ele>
        <time>2016-09-21T12:27:34.000Z</time>
      </trkpt>
      <trkpt lon="0.4352635145187378" lat="49.4041633605957031">
        <ele>3.096870183944702</ele>
        <time>2016-09-21T12:27:37.000Z</time>
      </trkpt>
      <trkpt lon="0.4354982078075409" lat="49.4042472839355469">
        <ele>3.2062900066375732</ele>
        <time>2016-09-21T12:27:40.000Z</time>
      </trkpt>
      <trkpt lon="0.4357205927371979" lat="49.4043388366699219">
        <ele>3.3435566425323486</ele>
        <time>2016-09-21T12:27:43.000Z</time>
      </trkpt>
      <trkpt lon="0.4359719455242157" lat="49.4044380187988281">
        <ele>3.4731884002685547</ele>
        <time>2016-09-21T12:27:46.000Z</time>
      </trkpt>
      <trkpt lon="0.4362121820449829" lat="49.4045257568359375">
        <ele>3.5579123497009277</ele>
        <time>2016-09-21T12:27:49.000Z</time>
      </trkpt>
      <trkpt lon="0.4363794922828674" lat="49.4045829772949219">
        <ele>3.594393491744995</ele>
        <time>2016-09-21T12:27:51.000Z</time>
      </trkpt>
      <trkpt lon="0.4365364015102386" lat="49.4046516418457031">
        <ele>3.5702900886535645</ele>
        <time>2016-09-21T12:27:53.000Z</time>
      </trkpt>
      <trkpt lon="0.4367701709270477" lat="49.4047470092773438">
        <ele>3.4856669902801514</ele>
        <time>2016-09-21T12:27:56.000Z</time>
      </trkpt>
      <trkpt lon="0.4370050132274628" lat="49.4048194885253906">
        <ele>3.3770835399627686</ele>
        <time>2016-09-21T12:27:59.000Z</time>
      </trkpt>
      <trkpt lon="0.4371728301048279" lat="49.4048728942871094">
        <ele>3.274829864501953</ele>
        <time>2016-09-21T12:28:01.000Z</time>
      </trkpt>
      <trkpt lon="0.4374032616615295" lat="49.4049568176269531">
        <ele>3.175663709640503</ele>
        <time>2016-09-21T12:28:04.000Z</time>
      </trkpt>
      <trkpt lon="0.4375381171703339" lat="49.4050254821777344">
        <ele>3.085543155670166</ele>
        <time>2016-09-21T12:28:06.000Z</time>
      </trkpt>
      <trkpt lon="0.4377599060535431" lat="49.4051055908203125">
        <ele>2.9991226196289062</ele>
        <time>2016-09-21T12:28:09.000Z</time>
      </trkpt>
      <trkpt lon="0.4379954338073730" lat="49.4051895141601562">
        <ele>2.901195526123047</ele>
        <time>2016-09-21T12:28:12.000Z</time>
      </trkpt>
      <trkpt lon="0.4382238388061523" lat="49.4052467346191406">
        <ele>2.7795329093933105</ele>
        <time>2016-09-21T12:28:15.000Z</time>
      </trkpt>
      <trkpt lon="0.4383773803710938" lat="49.4053001403808594">
        <ele>2.644876718521118</ele>
        <time>2016-09-21T12:28:17.000Z</time>
      </trkpt>
      <trkpt lon="0.4386084675788879" lat="49.4053802490234375">
        <ele>2.5593228340148926</ele>
        <time>2016-09-21T12:28:20.000Z</time>
      </trkpt>
      <trkpt lon="0.4388003349304199" lat="49.4054679870605469">
        <ele>2.5570240020751953</ele>
        <time>2016-09-21T12:28:23.000Z</time>
      </trkpt>
      <trkpt lon="0.4390125870704651" lat="49.4055442810058594">
        <ele>2.6873269081115723</ele>
        <time>2016-09-21T12:28:26.000Z</time>
      </trkpt>
      <trkpt lon="0.4391503632068634" lat="49.4055862426757812">
        <ele>2.929736614227295</ele>
        <time>2016-09-21T12:28:28.000Z</time>
      </trkpt>
      <trkpt lon="0.4392909407615662" lat="49.4056396484375000">
        <ele>3.26246976852417</ele>
        <time>2016-09-21T12:28:30.000Z</time>
      </trkpt>
      <trkpt lon="0.4395051896572113" lat="49.4057235717773438">
        <ele>3.6697678565979004</ele>
        <time>2016-09-21T12:28:33.000Z</time>
      </trkpt>
      <trkpt lon="0.4397425651550293" lat="49.4058074951171875">
        <ele>4.1667094230651855</ele>
        <time>2016-09-21T12:28:36.000Z</time>
      </trkpt>
      <trkpt lon="0.4399023950099945" lat="49.4058456420898438">
        <ele>4.6757683753967285</ele>
        <time>2016-09-21T12:28:38.000Z</time>
      </trkpt>
      <trkpt lon="0.4401147067546844" lat="49.4058723449707031">
        <ele>5.3656816482543945</ele>
        <time>2016-09-21T12:28:41.000Z</time>
      </trkpt>
      <trkpt lon="0.4402702748775482" lat="49.4058685302734375">
        <ele>6.220520973205566</ele>
        <time>2016-09-21T12:28:44.000Z</time>
      </trkpt>
      <trkpt lon="0.4404195547103882" lat="49.4058609008789062">
        <ele>7.168825626373291</ele>
        <time>2016-09-21T12:28:47.000Z</time>
      </trkpt>
      <trkpt lon="0.4405393302440643" lat="49.4058265686035156">
        <ele>8.074637413024902</ele>
        <time>2016-09-21T12:28:50.000Z</time>
      </trkpt>
      <trkpt lon="0.4406300187110901" lat="49.4058189392089844">
        <ele>8.990612983703613</ele>
        <time>2016-09-21T12:28:52.000Z</time>
      </trkpt>
      <trkpt lon="0.4407755434513092" lat="49.4058036804199219">
        <ele>9.828137397766113</ele>
        <time>2016-09-21T12:28:55.000Z</time>
      </trkpt>
      <trkpt lon="0.4409240782260895" lat="49.4057579040527344">
        <ele>10.697944641113281</ele>
        <time>2016-09-21T12:28:58.000Z</time>
      </trkpt>
      <trkpt lon="0.4410567581653595" lat="49.4057044982910156">
        <ele>11.6265287399292</ele>
        <time>2016-09-21T12:29:01.000Z</time>
      </trkpt>
      <trkpt lon="0.4411312639713287" lat="49.4056701660156250">
        <ele>12.58305549621582</ele>
        <time>2016-09-21T12:29:03.000Z</time>
      </trkpt>
      <trkpt lon="0.4412411451339722" lat="49.4056205749511719">
        <ele>13.585108757019043</ele>
        <time>2016-09-21T12:29:06.000Z</time>
      </trkpt>
      <trkpt lon="0.4413144886493683" lat="49.4055862426757812">
        <ele>14.513656616210938</ele>
        <time>2016-09-21T12:29:08.000Z</time>
      </trkpt>
      <trkpt lon="0.4413822293281555" lat="49.4055519104003906">
        <ele>15.245099067687988</ele>
        <time>2016-09-21T12:29:10.000Z</time>
      </trkpt>
      <trkpt lon="0.4414875805377960" lat="49.4055023193359375">
        <ele>15.818578720092773</ele>
        <time>2016-09-21T12:29:13.000Z</time>
      </trkpt>
      <trkpt lon="0.4416057765483856" lat="49.4054641723632812">
        <ele>16.42332649230957</ele>
        <time>2016-09-21T12:29:16.000Z</time>
      </trkpt>
      <trkpt lon="0.4416829645633698" lat="49.4054450988769531">
        <ele>17.00506019592285</ele>
        <time>2016-09-21T12:29:18.000Z</time>
      </trkpt>
      <trkpt lon="0.4417432248592377" lat="49.4054298400878906">
        <ele>17.671857833862305</ele>
        <time>2016-09-21T12:29:20.000Z</time>
      </trkpt>
      <trkpt lon="0.4418334960937500" lat="49.4053993225097656">
        <ele>18.529041290283203</ele>
        <time>2016-09-21T12:29:23.000Z</time>
      </trkpt>
      <trkpt lon="0.4419371783733368" lat="49.4053535461425781">
        <ele>19.50579833984375</ele>
        <time>2016-09-21T12:29:26.000Z</time>
      </trkpt>
      <trkpt lon="0.4420353472232819" lat="49.4053001403808594">
        <ele>20.47133445739746</ele>
        <time>2016-09-21T12:29:29.000Z</time>
      </trkpt>
      <trkpt lon="0.4421448111534119" lat="49.4052543640136719">
        <ele>21.485897064208984</ele>
        <time>2016-09-21T12:29:32.000Z</time>
      </trkpt>
      <trkpt lon="0.4422018826007843" lat="49.4052200317382812">
        <ele>22.366283416748047</ele>
        <time>2016-09-21T12:29:34.000Z</time>
      </trkpt>
      <trkpt lon="0.4422672688961029" lat="49.4051780700683594">
        <ele>23.023889541625977</ele>
        <time>2016-09-21T12:29:37.000Z</time>
      </trkpt>
      <trkpt lon="0.4423082470893860" lat="49.4051551818847656">
        <ele>23.47237777709961</ele>
        <time>2016-09-21T12:29:39.000Z</time>
      </trkpt>
      <trkpt lon="0.4423653483390808" lat="49.4051284790039062">
        <ele>23.82000160217285</ele>
        <time>2016-09-21T12:29:41.000Z</time>
      </trkpt>
      <trkpt lon="0.4424673318862915" lat="49.4050788879394531">
        <ele>24.061725616455078</ele>
        <time>2016-09-21T12:29:44.000Z</time>
      </trkpt>
      <trkpt lon="0.4425400197505951" lat="49.4050369262695312">
        <ele>24.30807113647461</ele>
        <time>2016-09-21T12:29:46.000Z</time>
      </trkpt>
      <trkpt lon="0.4426327943801880" lat="49.4049758911132812">
        <ele>24.61284828186035</ele>
        <time>2016-09-21T12:29:49.000Z</time>
      </trkpt>
      <trkpt lon="0.4427205622196198" lat="49.4049301147460938">
        <ele>25.07311248779297</ele>
        <time>2016-09-21T12:29:52.000Z</time>
      </trkpt>
      <trkpt lon="0.4427749514579773" lat="49.4048995971679688">
        <ele>25.560211181640625</ele>
        <time>2016-09-21T12:29:54.000Z</time>
      </trkpt>
      <trkpt lon="0.4428530037403107" lat="49.4048423767089844">
        <ele>26.011016845703125</ele>
        <time>2016-09-21T12:29:57.000Z</time>
      </trkpt>
      <trkpt lon="0.4429135918617249" lat="49.4047737121582031">
        <ele>26.300399780273438</ele>
        <time>2016-09-21T12:30:00.000Z</time>
      </trkpt>
      <trkpt lon="0.4429554343223572" lat="49.4047203063964844">
        <ele>26.387426376342773</ele>
        <time>2016-09-21T12:30:02.000Z</time>
      </trkpt>
      <trkpt lon="0.4429979026317596" lat="49.4046745300292969">
        <ele>26.221141815185547</ele>
        <time>2016-09-21T12:30:04.000Z</time>
      </trkpt>
      <trkpt lon="0.4430721104145050" lat="49.4046211242675781">
        <ele>25.954238891601562</ele>
        <time>2016-09-21T12:30:07.000Z</time>
      </trkpt>
      <trkpt lon="0.4431918859481812" lat="49.4045524597167969">
        <ele>25.652019500732422</ele>
        <time>2016-09-21T12:30:10.000Z</time>
      </trkpt>
      <trkpt lon="0.4432903528213501" lat="49.4044876098632812">
        <ele>25.380653381347656</ele>
        <time>2016-09-21T12:30:13.000Z</time>
      </trkpt>
      <trkpt lon="0.4433870017528534" lat="49.4044609069824219">
        <ele>25.444541931152344</ele>
        <time>2016-09-21T12:30:16.000Z</time>
      </trkpt>
      <trkpt lon="0.4434588253498077" lat="49.4044303894042969">
        <ele>25.764984130859375</ele>
        <time>2016-09-21T12:30:18.000Z</time>
      </trkpt>
      <trkpt lon="0.4435304105281830" lat="49.4043769836425781">
        <ele>26.120397567749023</ele>
        <time>2016-09-21T12:30:21.000Z</time>
      </trkpt>
      <trkpt lon="0.4435744285583496" lat="49.4043388366699219">
        <ele>26.41019058227539</ele>
        <time>2016-09-21T12:30:23.000Z</time>
      </trkpt>
      <trkpt lon="0.4436616003513336" lat="49.4042663574218750">
        <ele>26.68798828125</ele>
        <time>2016-09-21T12:30:26.000Z</time>
      </trkpt>
      <trkpt lon="0.4437148272991180" lat="49.4042282104492188">
        <ele>26.730087280273438</ele>
        <time>2016-09-21T12:30:28.000Z</time>
      </trkpt>
      <trkpt lon="0.4437686204910278" lat="49.4041976928710938">
        <ele>26.63307762145996</ele>
        <time>2016-09-21T12:30:30.000Z</time>
      </trkpt>
      <trkpt lon="0.4438452422618866" lat="49.4041442871093750">
        <ele>26.52353858947754</ele>
        <time>2016-09-21T12:30:33.000Z</time>
      </trkpt>
      <trkpt lon="0.4439086019992828" lat="49.4040985107421875">
        <ele>26.53814125061035</ele>
        <time>2016-09-21T12:30:35.000Z</time>
      </trkpt>
      <trkpt lon="0.4439742267131805" lat="49.4040565490722656">
        <ele>26.715869903564453</ele>
        <time>2016-09-21T12:30:37.000Z</time>
      </trkpt>
      <trkpt lon="0.4440715610980988" lat="49.4039993286132812">
        <ele>27.006393432617188</ele>
        <time>2016-09-21T12:30:40.000Z</time>
      </trkpt>
      <trkpt lon="0.4441343247890472" lat="49.4039535522460938">
        <ele>27.26275634765625</ele>
        <time>2016-09-21T12:30:42.000Z</time>
      </trkpt>
      <trkpt lon="0.4442272782325745" lat="49.4038925170898438">
        <ele>27.534936904907227</ele>
        <time>2016-09-21T12:30:45.000Z</time>
      </trkpt>
      <trkpt lon="0.4443277120590210" lat="49.4038505554199219">
        <ele>27.845901489257812</ele>
        <time>2016-09-21T12:30:48.000Z</time>
      </trkpt>
      <trkpt lon="0.4443875551223755" lat="49.4038238525390625">
        <ele>28.1441707611084</ele>
        <time>2016-09-21T12:30:50.000Z</time>
      </trkpt>
      <trkpt lon="0.4444918334484100" lat="49.4037666320800781">
        <ele>28.348831176757812</ele>
        <time>2016-09-21T12:30:53.000Z</time>
      </trkpt>
      <trkpt lon="0.4445583820343018" lat="49.4037322998046875">
        <ele>28.535409927368164</ele>
        <time>2016-09-21T12:30:55.000Z</time>
      </trkpt>
      <trkpt lon="0.4447023868560791" lat="49.4036712646484375">
        <ele>28.759784698486328</ele>
        <time>2016-09-21T12:30:58.000Z</time>
      </trkpt>
      <trkpt lon="0.4448045492172241" lat="49.4036521911621094">
        <ele>29.073272705078125</ele>
        <time>2016-09-21T12:31:00.000Z</time>
      </trkpt>
      <trkpt lon="0.4449488818645477" lat="49.4036331176757812">
        <ele>29.603404998779297</ele>
        <time>2016-09-21T12:31:03.000Z</time>
      </trkpt>
      <trkpt lon="0.4450687468051910" lat="49.4036254882812500">
        <ele>30.351648330688477</ele>
        <time>2016-09-21T12:31:06.000Z</time>
      </trkpt>
      <trkpt lon="0.4451962411403656" lat="49.4036293029785156">
        <ele>31.397714614868164</ele>
        <time>2016-09-21T12:31:09.000Z</time>
      </trkpt>
      <trkpt lon="0.4453097283840179" lat="49.4036331176757812">
        <ele>32.6494255065918</ele>
        <time>2016-09-21T12:31:12.000Z</time>
      </trkpt>
      <trkpt lon="0.4453765451908112" lat="49.4036407470703125">
        <ele>33.89967727661133</ele>
        <time>2016-09-21T12:31:14.000Z</time>
      </trkpt>
      <trkpt lon="0.4454887807369232" lat="49.4036560058593750">
        <ele>35.18478012084961</ele>
        <time>2016-09-21T12:31:17.000Z</time>
      </trkpt>
      <trkpt lon="0.4456197619438171" lat="49.4036407470703125">
        <ele>36.41312789916992</ele>
        <time>2016-09-21T12:31:20.000Z</time>
      </trkpt>
      <trkpt lon="0.4457082748413086" lat="49.4036483764648438">
        <ele>37.595420837402344</ele>
        <time>2016-09-21T12:31:22.000Z</time>
      </trkpt>
      <trkpt lon="0.4457787871360779" lat="49.4036636352539062">
        <ele>38.75486373901367</ele>
        <time>2016-09-21T12:31:24.000Z</time>
      </trkpt>
      <trkpt lon="0.4458799362182617" lat="49.4036979675292969">
        <ele>40.1629524230957</ele>
        <time>2016-09-21T12:31:27.000Z</time>
      </trkpt>
      <trkpt lon="0.4459875822067261" lat="49.4037284851074219">
        <ele>41.57904815673828</ele>
        <time>2016-09-21T12:31:30.000Z</time>
      </trkpt>
      <trkpt lon="0.4460656046867371" lat="49.4037513732910156">
        <ele>43.073482513427734</ele>
        <time>2016-09-21T12:31:32.000Z</time>
      </trkpt>
      <trkpt lon="0.4461813569068909" lat="49.4037818908691406">
        <ele>44.622886657714844</ele>
        <time>2016-09-21T12:31:35.000Z</time>
      </trkpt>
      <trkpt lon="0.4462889730930328" lat="49.4038162231445312">
        <ele>46.25261688232422</ele>
        <time>2016-09-21T12:31:38.000Z</time>
      </trkpt>
      <trkpt lon="0.4464238584041595" lat="49.4038276672363281">
        <ele>47.60541534423828</ele>
        <time>2016-09-21T12:31:41.000Z</time>
      </trkpt>
      <trkpt lon="0.4465262889862061" lat="49.4038124084472656">
        <ele>48.61660385131836</ele>
        <time>2016-09-21T12:31:43.000Z</time>
      </trkpt>
      <trkpt lon="0.4466157257556915" lat="49.4037857055664062">
        <ele>49.3036003112793</ele>
        <time>2016-09-21T12:31:45.000Z</time>
      </trkpt>
      <trkpt lon="0.4466951787471771" lat="49.4036788940429688">
        <ele>49.317710876464844</ele>
        <time>2016-09-21T12:31:48.000Z</time>
      </trkpt>
      <trkpt lon="0.4467347264289856" lat="49.4035644531250000">
        <ele>48.6346321105957</ele>
        <time>2016-09-21T12:31:51.000Z</time>
      </trkpt>
      <trkpt lon="0.4467357397079468" lat="49.4034843444824219">
        <ele>47.42985916137695</ele>
        <time>2016-09-21T12:31:53.000Z</time>
      </trkpt>
      <trkpt lon="0.4467216730117798" lat="49.4033699035644531">
        <ele>45.67124557495117</ele>
        <time>2016-09-21T12:31:56.000Z</time>
      </trkpt>
      <trkpt lon="0.4467015564441681" lat="49.4032783508300781">
        <ele>43.58412551879883</ele>
        <time>2016-09-21T12:31:59.000Z</time>
      </trkpt>
      <trkpt lon="0.4466491639614105" lat="49.4032058715820312">
        <ele>41.46052932739258</ele>
        <time>2016-09-21T12:32:01.000Z</time>
      </trkpt>
      <trkpt lon="0.4466033875942230" lat="49.4031410217285156">
        <ele>39.422393798828125</ele>
        <time>2016-09-21T12:32:03.000Z</time>
      </trkpt>
      <trkpt lon="0.4465878009796143" lat="49.4030570983886719">
        <ele>37.46175765991211</ele>
        <time>2016-09-21T12:32:06.000Z</time>
      </trkpt>
      <trkpt lon="0.4466254413127899" lat="49.4029769897460938">
        <ele>35.96727752685547</ele>
        <time>2016-09-21T12:32:09.000Z</time>
      </trkpt>
      <trkpt lon="0.4466779828071594" lat="49.4029159545898438">
        <ele>34.89234161376953</ele>
        <time>2016-09-21T12:32:12.000Z</time>
      </trkpt>
      <trkpt lon="0.4467137753963470" lat="49.4028930664062500">
        <ele>34.34775924682617</ele>
        <time>2016-09-21T12:32:14.000Z</time>
      </trkpt>
      <trkpt lon="0.4467541873455048" lat="49.4028739929199219">
        <ele>34.249305725097656</ele>
        <time>2016-09-21T12:32:16.000Z</time>
      </trkpt>
      <trkpt lon="0.4468282759189606" lat="49.4028282165527344">
        <ele>34.6829719543457</ele>
        <time>2016-09-21T12:32:19.000Z</time>
      </trkpt>
      <trkpt lon="0.4469282627105713" lat="49.4027442932128906">
        <ele>35.4984130859375</ele>
        <time>2016-09-21T12:32:22.000Z</time>
      </trkpt>
      <trkpt lon="0.4469877779483795" lat="49.4026756286621094">
        <ele>36.42610168457031</ele>
        <time>2016-09-21T12:32:24.000Z</time>
      </trkpt>
      <trkpt lon="0.4470505714416504" lat="49.4026145935058594">
        <ele>37.39313507080078</ele>
        <time>2016-09-21T12:32:26.000Z</time>
      </trkpt>
      <trkpt lon="0.4471473693847656" lat="49.4025573730468750">
        <ele>38.53681182861328</ele>
        <time>2016-09-21T12:32:29.000Z</time>
      </trkpt>
      <trkpt lon="0.4472097456455231" lat="49.4025230407714844">
        <ele>39.65375518798828</ele>
        <time>2016-09-21T12:32:31.000Z</time>
      </trkpt>
      <trkpt lon="0.4472745358943939" lat="49.4024887084960938">
        <ele>40.715538024902344</ele>
        <time>2016-09-21T12:32:33.000Z</time>
      </trkpt>
      <trkpt lon="0.4473411738872528" lat="49.4024505615234375">
        <ele>41.79997253417969</ele>
        <time>2016-09-21T12:32:35.000Z</time>
      </trkpt>
      <trkpt lon="0.4474402368068695" lat="49.4023895263671875">
        <ele>42.933048248291016</ele>
        <time>2016-09-21T12:32:38.000Z</time>
      </trkpt>
      <trkpt lon="0.4475527405738831" lat="49.4023170471191406">
        <ele>43.9616584777832</ele>
        <time>2016-09-21T12:32:41.000Z</time>
      </trkpt>
      <trkpt lon="0.4476069509983063" lat="49.4022712707519531">
        <ele>44.829376220703125</ele>
        <time>2016-09-21T12:32:43.000Z</time>
      </trkpt>
      <trkpt lon="0.4476856589317322" lat="49.4021987915039062">
        <ele>45.51177215576172</ele>
        <time>2016-09-21T12:32:46.000Z</time>
      </trkpt>
      <trkpt lon="0.4477923512458801" lat="49.4021415710449219">
        <ele>46.28584671020508</ele>
        <time>2016-09-21T12:32:49.000Z</time>
      </trkpt>
      <trkpt lon="0.4478512108325958" lat="49.4021034240722656">
        <ele>46.9506950378418</ele>
        <time>2016-09-21T12:32:51.000Z</time>
      </trkpt>
      <trkpt lon="0.4479280710220337" lat="49.4020576477050781">
        <ele>47.521141052246094</ele>
        <time>2016-09-21T12:32:54.000Z</time>
      </trkpt>
      <trkpt lon="0.4479765892028809" lat="49.4020462036132812">
        <ele>48.190032958984375</ele>
        <time>2016-09-21T12:32:56.000Z</time>
      </trkpt>
      <trkpt lon="0.4480423927307129" lat="49.4020309448242188">
        <ele>49.043914794921875</ele>
        <time>2016-09-21T12:32:59.000Z</time>
      </trkpt>
      <trkpt lon="0.4481018185615540" lat="49.4020118713378906">
        <ele>49.819061279296875</ele>
        <time>2016-09-21T12:33:02.000Z</time>
      </trkpt>
      <trkpt lon="0.4481486678123474" lat="49.4019966125488281">
        <ele>50.648563385009766</ele>
        <time>2016-09-21T12:33:04.000Z</time>
      </trkpt>
      <trkpt lon="0.4482316672801971" lat="49.4019737243652344">
        <ele>51.591064453125</ele>
        <time>2016-09-21T12:33:07.000Z</time>
      </trkpt>
      <trkpt lon="0.4483296573162079" lat="49.4019126892089844">
        <ele>52.43303680419922</ele>
        <time>2016-09-21T12:33:10.000Z</time>
      </trkpt>
      <trkpt lon="0.4484038352966309" lat="49.4018630981445312">
        <ele>53.1175651550293</ele>
        <time>2016-09-21T12:33:12.000Z</time>
      </trkpt>
      <trkpt lon="0.4484726488590240" lat="49.4018211364746094">
        <ele>53.741058349609375</ele>
        <time>2016-09-21T12:33:14.000Z</time>
      </trkpt>
      <trkpt lon="0.4485249519348145" lat="49.4017906188964844">
        <ele>54.28986740112305</ele>
        <time>2016-09-21T12:33:16.000Z</time>
      </trkpt>
      <trkpt lon="0.4485733807086945" lat="49.4017639160156250">
        <ele>54.706634521484375</ele>
        <time>2016-09-21T12:33:18.000Z</time>
      </trkpt>
      <trkpt lon="0.4486556053161621" lat="49.4017105102539062">
        <ele>55.16040802001953</ele>
        <time>2016-09-21T12:33:21.000Z</time>
      </trkpt>
      <trkpt lon="0.4487066566944122" lat="49.4016609191894531">
        <ele>55.546302795410156</ele>
        <time>2016-09-21T12:33:23.000Z</time>
      </trkpt>
      <trkpt lon="0.4487603008747101" lat="49.4016113281250000">
        <ele>55.8734130859375</ele>
        <time>2016-09-21T12:33:25.000Z</time>
      </trkpt>
      <trkpt lon="0.4488389194011688" lat="49.4015350341796875">
        <ele>56.158111572265625</ele>
        <time>2016-09-21T12:33:28.000Z</time>
      </trkpt>
      <trkpt lon="0.4489091634750366" lat="49.4014739990234375">
        <ele>56.40120315551758</ele>
        <time>2016-09-21T12:33:30.000Z</time>
      </trkpt>
      <trkpt lon="0.4489974379539490" lat="49.4014091491699219">
        <ele>56.68364715576172</ele>
        <time>2016-09-21T12:33:33.000Z</time>
      </trkpt>
      <trkpt lon="0.4490729570388794" lat="49.4013481140136719">
        <ele>57.05913162231445</ele>
        <time>2016-09-21T12:33:36.000Z</time>
      </trkpt>
      <trkpt lon="0.4491246640682220" lat="49.4013061523437500">
        <ele>57.456993103027344</ele>
        <time>2016-09-21T12:33:38.000Z</time>
      </trkpt>
      <trkpt lon="0.4491964280605316" lat="49.4012489318847656">
        <ele>57.9033088684082</ele>
        <time>2016-09-21T12:33:41.000Z</time>
      </trkpt>
      <trkpt lon="0.4492926299571991" lat="49.4011726379394531">
        <ele>58.390357971191406</ele>
        <time>2016-09-21T12:33:44.000Z</time>
      </trkpt>
      <trkpt lon="0.4493626356124878" lat="49.4011039733886719">
        <ele>58.769927978515625</ele>
        <time>2016-09-21T12:33:47.000Z</time>
      </trkpt>
      <trkpt lon="0.4494088888168335" lat="49.4010505676269531">
        <ele>59.05775833129883</ele>
        <time>2016-09-21T12:33:49.000Z</time>
      </trkpt>
      <trkpt lon="0.4494716823101044" lat="49.4009933471679688">
        <ele>59.36309814453125</ele>
        <time>2016-09-21T12:33:52.000Z</time>
      </trkpt>
      <trkpt lon="0.4495093226432800" lat="49.4009590148925781">
        <ele>59.65236282348633</ele>
        <time>2016-09-21T12:33:54.000Z</time>
      </trkpt>
      <trkpt lon="0.4495463669300079" lat="49.4008865356445312">
        <ele>59.71575164794922</ele>
        <time>2016-09-21T12:33:57.000Z</time>
      </trkpt>
      <trkpt lon="0.4495760202407837" lat="49.4008445739746094">
        <ele>59.738311767578125</ele>
        <time>2016-09-21T12:33:59.000Z</time>
      </trkpt>
      <trkpt lon="0.4496103227138519" lat="49.4008102416992188">
        <ele>59.78778076171875</ele>
        <time>2016-09-21T12:34:01.000Z</time>
      </trkpt>
      <trkpt lon="0.4496572613716125" lat="49.4007301330566406">
        <ele>59.613059997558594</ele>
        <time>2016-09-21T12:34:04.000Z</time>
      </trkpt>
      <trkpt lon="0.4496944844722748" lat="49.4006538391113281">
        <ele>59.2159538269043</ele>
        <time>2016-09-21T12:34:07.000Z</time>
      </trkpt>
      <trkpt lon="0.4497579336166382" lat="49.4006004333496094">
        <ele>59.03861618041992</ele>
        <time>2016-09-21T12:34:10.000Z</time>
      </trkpt>
      <trkpt lon="0.4498353600502014" lat="49.4005393981933594">
        <ele>59.007904052734375</ele>
        <time>2016-09-21T12:34:13.000Z</time>
      </trkpt>
      <trkpt lon="0.4498777687549591" lat="49.4005012512207031">
        <ele>58.988807678222656</ele>
        <time>2016-09-21T12:34:15.000Z</time>
      </trkpt>
      <trkpt lon="0.4499434232711792" lat="49.4004325866699219">
        <ele>59.133628845214844</ele>
        <time>2016-09-21T12:34:18.000Z</time>
      </trkpt>
      <trkpt lon="0.4499863386154175" lat="49.4003944396972656">
        <ele>59.495811462402344</ele>
        <time>2016-09-21T12:34:20.000Z</time>
      </trkpt>
      <trkpt lon="0.4500191807746887" lat="49.4003524780273438">
        <ele>59.71027755737305</ele>
        <time>2016-09-21T12:34:22.000Z</time>
      </trkpt>
      <trkpt lon="0.4500732421875000" lat="49.4002723693847656">
        <ele>59.59992599487305</ele>
        <time>2016-09-21T12:34:25.000Z</time>
      </trkpt>
      <trkpt lon="0.4501534700393677" lat="49.4001922607421875">
        <ele>59.377159118652344</ele>
        <time>2016-09-21T12:34:28.000Z</time>
      </trkpt>
      <trkpt lon="0.4502375423908234" lat="49.4001197814941406">
        <ele>59.10615921020508</ele>
        <time>2016-09-21T12:34:31.000Z</time>
      </trkpt>
      <trkpt lon="0.4503381252288818" lat="49.4000549316406250">
        <ele>58.880516052246094</ele>
        <time>2016-09-21T12:34:34.000Z</time>
      </trkpt>
      <trkpt lon="0.4503951966762543" lat="49.4000244140625000">
        <ele>58.76721954345703</ele>
        <time>2016-09-21T12:34:36.000Z</time>
      </trkpt>
      <trkpt lon="0.4504979550838470" lat="49.3999595642089844">
        <ele>58.823089599609375</ele>
        <time>2016-09-21T12:34:39.000Z</time>
      </trkpt>
      <trkpt lon="0.4505790174007416" lat="49.3999176025390625">
        <ele>58.97246170043945</ele>
        <time>2016-09-21T12:34:41.000Z</time>
      </trkpt>
      <trkpt lon="0.4506904780864716" lat="49.3998641967773438">
        <ele>59.18169021606445</ele>
        <time>2016-09-21T12:34:44.000Z</time>
      </trkpt>
      <trkpt lon="0.4507607221603394" lat="49.3998413085937500">
        <ele>59.373504638671875</ele>
        <time>2016-09-21T12:34:46.000Z</time>
      </trkpt>
      <trkpt lon="0.4508199095726013" lat="49.3998260498046875">
        <ele>59.604637145996094</ele>
        <time>2016-09-21T12:34:48.000Z</time>
      </trkpt>
      <trkpt lon="0.4508845210075378" lat="49.3998222351074219">
        <ele>59.89196014404297</ele>
        <time>2016-09-21T12:34:50.000Z</time>
      </trkpt>
      <trkpt lon="0.4509961903095245" lat="49.3998184204101562">
        <ele>60.17119598388672</ele>
        <time>2016-09-21T12:34:53.000Z</time>
      </trkpt>
      <trkpt lon="0.4511142671108246" lat="49.3998336791992188">
        <ele>60.59513473510742</ele>
        <time>2016-09-21T12:34:56.000Z</time>
      </trkpt>
      <trkpt lon="0.4512324631214142" lat="49.3998680114746094">
        <ele>61.2722053527832</ele>
        <time>2016-09-21T12:34:59.000Z</time>
      </trkpt>
      <trkpt lon="0.4513393342494965" lat="49.3999176025390625">
        <ele>62.269981384277344</ele>
        <time>2016-09-21T12:35:02.000Z</time>
      </trkpt>
      <trkpt lon="0.4514035284519196" lat="49.3999519348144531">
        <ele>63.504425048828125</ele>
        <time>2016-09-21T12:35:04.000Z</time>
      </trkpt>
      <trkpt lon="0.4514985978603363" lat="49.4000053405761719">
        <ele>65.1633071899414</ele>
        <time>2016-09-21T12:35:07.000Z</time>
      </trkpt>
      <trkpt lon="0.4516118168830872" lat="49.4000434875488281">
        <ele>66.93220520019531</ele>
        <time>2016-09-21T12:35:10.000Z</time>
      </trkpt>
      <trkpt lon="0.4516964852809906" lat="49.4000816345214844">
        <ele>68.55674743652344</ele>
        <time>2016-09-21T12:35:13.000Z</time>
      </trkpt>
      <trkpt lon="0.4517509639263153" lat="49.4001083374023438">
        <ele>69.83869171142578</ele>
        <time>2016-09-21T12:35:15.000Z</time>
      </trkpt>
      <trkpt lon="0.4518072903156281" lat="49.4001274108886719">
        <ele>70.84557342529297</ele>
        <time>2016-09-21T12:35:17.000Z</time>
      </trkpt>
      <trkpt lon="0.4518881738185883" lat="49.4001693725585938">
        <ele>71.56385803222656</ele>
        <time>2016-09-21T12:35:20.000Z</time>
      </trkpt>
      <trkpt lon="0.4519780278205872" lat="49.4002265930175781">
        <ele>72.20803833007812</ele>
        <time>2016-09-21T12:35:23.000Z</time>
      </trkpt>
      <trkpt lon="0.4520414173603058" lat="49.4002685546875000">
        <ele>72.81526947021484</ele>
        <time>2016-09-21T12:35:25.000Z</time>
      </trkpt>
      <trkpt lon="0.4521072804927826" lat="49.4002952575683594">
        <ele>73.41411590576172</ele>
        <time>2016-09-21T12:35:27.000Z</time>
      </trkpt>
      <trkpt lon="0.4522102177143097" lat="49.4003295898437500">
        <ele>74.05183410644531</ele>
        <time>2016-09-21T12:35:30.000Z</time>
      </trkpt>
      <trkpt lon="0.4522874057292938" lat="49.4003677368164062">
        <ele>74.66004943847656</ele>
        <time>2016-09-21T12:35:33.000Z</time>
      </trkpt>
      <trkpt lon="0.4523955285549164" lat="49.4003982543945312">
        <ele>75.09239196777344</ele>
        <time>2016-09-21T12:35:36.000Z</time>
      </trkpt>
      <trkpt lon="0.4524691402912140" lat="49.4004211425781250">
        <ele>75.4107437133789</ele>
        <time>2016-09-21T12:35:38.000Z</time>
      </trkpt>
      <trkpt lon="0.4525645971298218" lat="49.4004516601562500">
        <ele>75.69606018066406</ele>
        <time>2016-09-21T12:35:41.000Z</time>
      </trkpt>
      <trkpt lon="0.4526715576648712" lat="49.4004707336425781">
        <ele>75.90457153320312</ele>
        <time>2016-09-21T12:35:44.000Z</time>
      </trkpt>
      <trkpt lon="0.4527447223663330" lat="49.4004898071289062">
        <ele>75.98384094238281</ele>
        <time>2016-09-21T12:35:46.000Z</time>
      </trkpt>
      <trkpt lon="0.4528429508209229" lat="49.4005317687988281">
        <ele>76.14933013916016</ele>
        <time>2016-09-21T12:35:49.000Z</time>
      </trkpt>
      <trkpt lon="0.4529407024383545" lat="49.4005737304687500">
        <ele>76.35828399658203</ele>
        <time>2016-09-21T12:35:52.000Z</time>
      </trkpt>
      <trkpt lon="0.4530113637447357" lat="49.4006042480468750">
        <ele>76.5758056640625</ele>
        <time>2016-09-21T12:35:54.000Z</time>
      </trkpt>
      <trkpt lon="0.4530793428421021" lat="49.4006309509277344">
        <ele>76.87925720214844</ele>
        <time>2016-09-21T12:35:56.000Z</time>
      </trkpt>
      <trkpt lon="0.4531977772712708" lat="49.4006767272949219">
        <ele>77.24048614501953</ele>
        <time>2016-09-21T12:35:59.000Z</time>
      </trkpt>
      <trkpt lon="0.4533016085624695" lat="49.4007110595703125">
        <ele>77.48755645751953</ele>
        <time>2016-09-21T12:36:02.000Z</time>
      </trkpt>
      <trkpt lon="0.4534052312374115" lat="49.4007453918457031">
        <ele>77.70452880859375</ele>
        <time>2016-09-21T12:36:05.000Z</time>
      </trkpt>
      <trkpt lon="0.4535161256790161" lat="49.4007873535156250">
        <ele>78.00042724609375</ele>
        <time>2016-09-21T12:36:08.000Z</time>
      </trkpt>
      <trkpt lon="0.4535912275314331" lat="49.4008140563964844">
        <ele>78.287109375</ele>
        <time>2016-09-21T12:36:10.000Z</time>
      </trkpt>
      <trkpt lon="0.4537234008312225" lat="49.4008407592773438">
        <ele>78.51152038574219</ele>
        <time>2016-09-21T12:36:13.000Z</time>
      </trkpt>
      <trkpt lon="0.4538414180278778" lat="49.4008636474609375">
        <ele>78.68492889404297</ele>
        <time>2016-09-21T12:36:16.000Z</time>
      </trkpt>
      <trkpt lon="0.4539252221584320" lat="49.4008789062500000">
        <ele>78.7813491821289</ele>
        <time>2016-09-21T12:36:18.000Z</time>
      </trkpt>
      <trkpt lon="0.4540288448333740" lat="49.4009056091308594">
        <ele>78.76703643798828</ele>
        <time>2016-09-21T12:36:21.000Z</time>
      </trkpt>
      <trkpt lon="0.4541182816028595" lat="49.4009323120117188">
        <ele>78.7273941040039</ele>
        <time>2016-09-21T12:36:24.000Z</time>
      </trkpt>
      <trkpt lon="0.4541729986667633" lat="49.4009475708007812">
        <ele>78.72804260253906</ele>
        <time>2016-09-21T12:36:26.000Z</time>
      </trkpt>
      <trkpt lon="0.4542305171489716" lat="49.4009590148925781">
        <ele>78.82294464111328</ele>
        <time>2016-09-21T12:36:28.000Z</time>
      </trkpt>
      <trkpt lon="0.4543315768241882" lat="49.4009819030761719">
        <ele>79.02491760253906</ele>
        <time>2016-09-21T12:36:31.000Z</time>
      </trkpt>
      <trkpt lon="0.4543987214565277" lat="49.4010086059570312">
        <ele>79.33695983886719</ele>
        <time>2016-09-21T12:36:33.000Z</time>
      </trkpt>
      <trkpt lon="0.4544855654239655" lat="49.4010353088378906">
        <ele>79.73643493652344</ele>
        <time>2016-09-21T12:36:35.000Z</time>
      </trkpt>
      <trkpt lon="0.4546132087707520" lat="49.4010543823242188">
        <ele>80.18518829345703</ele>
        <time>2016-09-21T12:36:38.000Z</time>
      </trkpt>
      <trkpt lon="0.4547526836395264" lat="49.4010696411132812">
        <ele>80.6259994506836</ele>
        <time>2016-09-21T12:36:41.000Z</time>
      </trkpt>
      <trkpt lon="0.4548730552196503" lat="49.4011001586914062">
        <ele>81.07979583740234</ele>
        <time>2016-09-21T12:36:44.000Z</time>
      </trkpt>
      <trkpt lon="0.4549836218357086" lat="49.4011268615722656">
        <ele>81.50240325927734</ele>
        <time>2016-09-21T12:36:47.000Z</time>
      </trkpt>
      <trkpt lon="0.4550562202930450" lat="49.4011459350585938">
        <ele>81.9693374633789</ele>
        <time>2016-09-21T12:36:49.000Z</time>
      </trkpt>
      <trkpt lon="0.4551639258861542" lat="49.4011840820312500">
        <ele>82.6197280883789</ele>
        <time>2016-09-21T12:36:52.000Z</time>
      </trkpt>
      <trkpt lon="0.4552150368690491" lat="49.4012107849121094">
        <ele>83.37164306640625</ele>
        <time>2016-09-21T12:36:54.000Z</time>
      </trkpt>
      <trkpt lon="0.4552783370018005" lat="49.4012565612792969">
        <ele>84.22026824951172</ele>
        <time>2016-09-21T12:36:57.000Z</time>
      </trkpt>
      <trkpt lon="0.4553045630455017" lat="49.4012908935546875">
        <ele>85.08955383300781</ele>
        <time>2016-09-21T12:36:59.000Z</time>
      </trkpt>
      <trkpt lon="0.4553406834602356" lat="49.4013442993164062">
        <ele>85.98743438720703</ele>
        <time>2016-09-21T12:37:02.000Z</time>
      </trkpt>
      <trkpt lon="0.4553879499435425" lat="49.4013977050781250">
        <ele>86.80257415771484</ele>
        <time>2016-09-21T12:37:05.000Z</time>
      </trkpt>
      <trkpt lon="0.4554283618927002" lat="49.4014358520507812">
        <ele>87.56863403320312</ele>
        <time>2016-09-21T12:37:07.000Z</time>
      </trkpt>
      <trkpt lon="0.4554567635059357" lat="49.4014892578125000">
        <ele>88.26663970947266</ele>
        <time>2016-09-21T12:37:10.000Z</time>
      </trkpt>
      <trkpt lon="0.4554679989814758" lat="49.4015464782714844">
        <ele>88.98175048828125</ele>
        <time>2016-09-21T12:37:13.000Z</time>
      </trkpt>
      <trkpt lon="0.4554852843284607" lat="49.4015922546386719">
        <ele>89.6183853149414</ele>
        <time>2016-09-21T12:37:15.000Z</time>
      </trkpt>
      <trkpt lon="0.4555260837078094" lat="49.4016532897949219">
        <ele>90.18914031982422</ele>
        <time>2016-09-21T12:37:18.000Z</time>
      </trkpt>
      <trkpt lon="0.4555494785308838" lat="49.4017181396484375">
        <ele>90.76301574707031</ele>
        <time>2016-09-21T12:37:21.000Z</time>
      </trkpt>
      <trkpt lon="0.4555608928203583" lat="49.4017601013183594">
        <ele>91.27761840820312</ele>
        <time>2016-09-21T12:37:23.000Z</time>
      </trkpt>
      <trkpt lon="0.4555957615375519" lat="49.4018363952636719">
        <ele>91.75407409667969</ele>
        <time>2016-09-21T12:37:26.000Z</time>
      </trkpt>
      <trkpt lon="0.4556364715099335" lat="49.4019012451171875">
        <ele>92.20667266845703</ele>
        <time>2016-09-21T12:37:29.000Z</time>
      </trkpt>
      <trkpt lon="0.4556688368320465" lat="49.4019470214843750">
        <ele>92.5958023071289</ele>
        <time>2016-09-21T12:37:31.000Z</time>
      </trkpt>
      <trkpt lon="0.4557240903377533" lat="49.4020271301269531">
        <ele>92.96212005615234</ele>
        <time>2016-09-21T12:37:34.000Z</time>
      </trkpt>
      <trkpt lon="0.4557484686374664" lat="49.4020690917968750">
        <ele>93.29939270019531</ele>
        <time>2016-09-21T12:37:36.000Z</time>
      </trkpt>
      <trkpt lon="0.4557746946811676" lat="49.4021492004394531">
        <ele>93.64720153808594</ele>
        <time>2016-09-21T12:37:39.000Z</time>
      </trkpt>
      <trkpt lon="0.4558233916759491" lat="49.4022254943847656">
        <ele>93.99134826660156</ele>
        <time>2016-09-21T12:37:42.000Z</time>
      </trkpt>
      <trkpt lon="0.4558940529823303" lat="49.4023017883300781">
        <ele>94.40702819824219</ele>
        <time>2016-09-21T12:37:45.000Z</time>
      </trkpt>
      <trkpt lon="0.4559232294559479" lat="49.4023475646972656">
        <ele>94.80790710449219</ele>
        <time>2016-09-21T12:37:47.000Z</time>
      </trkpt>
      <trkpt lon="0.4559493958950043" lat="49.4024009704589844">
        <ele>95.23824310302734</ele>
        <time>2016-09-21T12:37:49.000Z</time>
      </trkpt>
      <trkpt lon="0.4559877812862396" lat="49.4024734497070312">
        <ele>95.64768981933594</ele>
        <time>2016-09-21T12:37:52.000Z</time>
      </trkpt>
      <trkpt lon="0.4560165107250214" lat="49.4025192260742188">
        <ele>96.03273010253906</ele>
        <time>2016-09-21T12:37:54.000Z</time>
      </trkpt>
      <trkpt lon="0.4560507237911224" lat="49.4025802612304688">
        <ele>96.3656997680664</ele>
        <time>2016-09-21T12:37:57.000Z</time>
      </trkpt>
      <trkpt lon="0.4560736119747162" lat="49.4026260375976562">
        <ele>96.67973327636719</ele>
        <time>2016-09-21T12:37:59.000Z</time>
      </trkpt>
      <trkpt lon="0.4561273157596588" lat="49.4026947021484375">
        <ele>96.98068237304688</ele>
        <time>2016-09-21T12:38:02.000Z</time>
      </trkpt>
      <trkpt lon="0.4562055468559265" lat="49.4027633666992188">
        <ele>97.2327880859375</ele>
        <time>2016-09-21T12:38:05.000Z</time>
      </trkpt>
      <trkpt lon="0.4562924504280090" lat="49.4028244018554688">
        <ele>97.45611572265625</ele>
        <time>2016-09-21T12:38:08.000Z</time>
      </trkpt>
      <trkpt lon="0.4563347101211548" lat="49.4028625488281250">
        <ele>97.6346435546875</ele>
        <time>2016-09-21T12:38:10.000Z</time>
      </trkpt>
      <trkpt lon="0.4563874304294586" lat="49.4029083251953125">
        <ele>97.78074645996094</ele>
        <time>2016-09-21T12:38:13.000Z</time>
      </trkpt>
      <trkpt lon="0.4564275741577148" lat="49.4029350280761719">
        <ele>97.8666763305664</ele>
        <time>2016-09-21T12:38:15.000Z</time>
      </trkpt>
      <trkpt lon="0.4565022587776184" lat="49.4029808044433594">
        <ele>97.91108703613281</ele>
        <time>2016-09-21T12:38:18.000Z</time>
      </trkpt>
      <trkpt lon="0.4565698206424713" lat="49.4030227661132812">
        <ele>97.9287109375</ele>
        <time>2016-09-21T12:38:21.000Z</time>
      </trkpt>
      <trkpt lon="0.4566010832786560" lat="49.4030456542968750">
        <ele>97.92356872558594</ele>
        <time>2016-09-21T12:38:23.000Z</time>
      </trkpt>
      <trkpt lon="0.4566399753093719" lat="49.4030990600585938">
        <ele>97.92931365966797</ele>
        <time>2016-09-21T12:38:26.000Z</time>
      </trkpt>
      <trkpt lon="0.4566812813282013" lat="49.4031562805175781">
        <ele>97.98111724853516</ele>
        <time>2016-09-21T12:38:29.000Z</time>
      </trkpt>
      <trkpt lon="0.4567371904850006" lat="49.4032058715820312">
        <ele>98.12065887451172</ele>
        <time>2016-09-21T12:38:32.000Z</time>
      </trkpt>
      <trkpt lon="0.4567711353302002" lat="49.4032325744628906">
        <ele>98.31288146972656</ele>
        <time>2016-09-21T12:38:34.000Z</time>
      </trkpt>
      <trkpt lon="0.4568199217319489" lat="49.4032783508300781">
        <ele>98.57521057128906</ele>
        <time>2016-09-21T12:38:37.000Z</time>
      </trkpt>
      <trkpt lon="0.4568592309951782" lat="49.4033088684082031">
        <ele>98.85322570800781</ele>
        <time>2016-09-21T12:38:39.000Z</time>
      </trkpt>
      <trkpt lon="0.4569409489631653" lat="49.4033737182617188">
        <ele>99.2029800415039</ele>
        <time>2016-09-21T12:38:42.000Z</time>
      </trkpt>
      <trkpt lon="0.4570047557353973" lat="49.4034233093261719">
        <ele>99.56494140625</ele>
        <time>2016-09-21T12:38:45.000Z</time>
      </trkpt>
      <trkpt lon="0.4570879042148590" lat="49.4034919738769531">
        <ele>100.00426483154297</ele>
        <time>2016-09-21T12:38:48.000Z</time>
      </trkpt>
      <trkpt lon="0.4571453034877777" lat="49.4035339355468750">
        <ele>100.44217681884766</ele>
        <time>2016-09-21T12:38:50.000Z</time>
      </trkpt>
      <trkpt lon="0.4572222530841827" lat="49.4035949707031250">
        <ele>100.92754364013672</ele>
        <time>2016-09-21T12:38:53.000Z</time>
      </trkpt>
      <trkpt lon="0.4573082625865936" lat="49.4036750793457031">
        <ele>101.38270568847656</ele>
        <time>2016-09-21T12:38:56.000Z</time>
      </trkpt>
      <trkpt lon="0.4573646783828735" lat="49.4037170410156250">
        <ele>101.78123474121094</ele>
        <time>2016-09-21T12:38:58.000Z</time>
      </trkpt>
      <trkpt lon="0.4574322104454041" lat="49.4037666320800781">
        <ele>102.0944595336914</ele>
        <time>2016-09-21T12:39:01.000Z</time>
      </trkpt>
      <trkpt lon="0.4574776589870453" lat="49.4037933349609375">
        <ele>102.35482788085938</ele>
        <time>2016-09-21T12:39:03.000Z</time>
      </trkpt>
      <trkpt lon="0.4575287699699402" lat="49.4038124084472656">
        <ele>102.55074310302734</ele>
        <time>2016-09-21T12:39:05.000Z</time>
      </trkpt>
      <trkpt lon="0.4575933218002319" lat="49.4038505554199219">
        <ele>102.71406555175781</ele>
        <time>2016-09-21T12:39:08.000Z</time>
      </trkpt>
      <trkpt lon="0.4576451182365417" lat="49.4038887023925781">
        <ele>102.88484954833984</ele>
        <time>2016-09-21T12:39:10.000Z</time>
      </trkpt>
      <trkpt lon="0.4577375650405884" lat="49.4039459228515625">
        <ele>103.0909652709961</ele>
        <time>2016-09-21T12:39:13.000Z</time>
      </trkpt>
      <trkpt lon="0.4578432738780975" lat="49.4040031433105469">
        <ele>103.35383605957031</ele>
        <time>2016-09-21T12:39:16.000Z</time>
      </trkpt>
      <trkpt lon="0.4579266607761383" lat="49.4040603637695312">
        <ele>103.6481704711914</ele>
        <time>2016-09-21T12:39:19.000Z</time>
      </trkpt>
      <trkpt lon="0.4580151140689850" lat="49.4041481018066406">
        <ele>103.9522476196289</ele>
        <time>2016-09-21T12:39:22.000Z</time>
      </trkpt>
      <trkpt lon="0.4581150114536285" lat="49.4042282104492188">
        <ele>104.32515716552734</ele>
        <time>2016-09-21T12:39:25.000Z</time>
      </trkpt>
      <trkpt lon="0.4581796526908875" lat="49.4042778015136719">
        <ele>104.71273040771484</ele>
        <time>2016-09-21T12:39:27.000Z</time>
      </trkpt>
      <trkpt lon="0.4582564234733582" lat="49.4043502807617188">
        <ele>105.1565170288086</ele>
        <time>2016-09-21T12:39:30.000Z</time>
      </trkpt>
      <trkpt lon="0.4583142399787903" lat="49.4044189453125000">
        <ele>105.66160583496094</ele>
        <time>2016-09-21T12:39:33.000Z</time>
      </trkpt>
      <trkpt lon="0.4583858251571655" lat="49.4044723510742188">
        <ele>106.20536804199219</ele>
        <time>2016-09-21T12:39:36.000Z</time>
      </trkpt>
      <trkpt lon="0.4584257304668427" lat="49.4045066833496094">
        <ele>106.69606018066406</ele>
        <time>2016-09-21T12:39:38.000Z</time>
      </trkpt>
      <trkpt lon="0.4584620296955109" lat="49.4045372009277344">
        <ele>107.15055847167969</ele>
        <time>2016-09-21T12:39:40.000Z</time>
      </trkpt>
      <trkpt lon="0.4584984779357910" lat="49.4045639038085938">
        <ele>107.52665710449219</ele>
        <time>2016-09-21T12:39:42.000Z</time>
      </trkpt>
      <trkpt lon="0.4585543870925903" lat="49.4046058654785156">
        <ele>107.84941101074219</ele>
        <time>2016-09-21T12:39:45.000Z</time>
      </trkpt>
      <trkpt lon="0.4586007595062256" lat="49.4046401977539062">
        <ele>108.11744689941406</ele>
        <time>2016-09-21T12:39:48.000Z</time>
      </trkpt>
      <trkpt lon="0.4586459100246429" lat="49.4046669006347656">
        <ele>108.36064147949219</ele>
        <time>2016-09-21T12:39:50.000Z</time>
      </trkpt>
      <trkpt lon="0.4587278962135315" lat="49.4047164916992188">
        <ele>108.61509704589844</ele>
        <time>2016-09-21T12:39:52.000Z</time>
      </trkpt>
      <trkpt lon="0.4588200151920319" lat="49.4047889709472656">
        <ele>108.89569091796875</ele>
        <time>2016-09-21T12:39:54.000Z</time>
      </trkpt>
      <trkpt lon="0.4589428007602692" lat="49.4048728942871094">
        <ele>109.1768798828125</ele>
        <time>2016-09-21T12:39:57.000Z</time>
      </trkpt>
      <trkpt lon="0.4590388536453247" lat="49.4049530029296875">
        <ele>109.45060729980469</ele>
        <time>2016-09-21T12:40:00.000Z</time>
      </trkpt>
      <trkpt lon="0.4591307342052460" lat="49.4050598144531250">
        <ele>109.723388671875</ele>
        <time>2016-09-21T12:40:03.000Z</time>
      </trkpt>
      <trkpt lon="0.4592210054397583" lat="49.4051856994628906">
        <ele>109.9703369140625</ele>
        <time>2016-09-21T12:40:06.000Z</time>
      </trkpt>
      <trkpt lon="0.4593274593353271" lat="49.4052696228027344">
        <ele>110.15071868896484</ele>
        <time>2016-09-21T12:40:09.000Z</time>
      </trkpt>
      <trkpt lon="0.4594069123268127" lat="49.4052963256835938">
        <ele>110.25416564941406</ele>
        <time>2016-09-21T12:40:11.000Z</time>
      </trkpt>
      <trkpt lon="0.4595323204994202" lat="49.4053268432617188">
        <ele>110.28813171386719</ele>
        <time>2016-09-21T12:40:14.000Z</time>
      </trkpt>
      <trkpt lon="0.4596710205078125" lat="49.4053382873535156">
        <ele>110.2420883178711</ele>
        <time>2016-09-21T12:40:17.000Z</time>
      </trkpt>
      <trkpt lon="0.4597742259502411" lat="49.4053230285644531">
        <ele>110.1222152709961</ele>
        <time>2016-09-21T12:40:19.000Z</time>
      </trkpt>
      <trkpt lon="0.4598810076713562" lat="49.4053115844726562">
        <ele>109.95756530761719</ele>
        <time>2016-09-21T12:40:21.000Z</time>
      </trkpt>
      <trkpt lon="0.4600097537040710" lat="49.4053115844726562">
        <ele>109.77049255371094</ele>
        <time>2016-09-21T12:40:24.000Z</time>
      </trkpt>
      <trkpt lon="0.4601481258869171" lat="49.4053077697753906">
        <ele>109.65802001953125</ele>
        <time>2016-09-21T12:40:27.000Z</time>
      </trkpt>
      <trkpt lon="0.4602325260639191" lat="49.4053039550781250">
        <ele>109.61546325683594</ele>
        <time>2016-09-21T12:40:29.000Z</time>
      </trkpt>
      <trkpt lon="0.4603151082992554" lat="49.4053001403808594">
        <ele>109.63847351074219</ele>
        <time>2016-09-21T12:40:31.000Z</time>
      </trkpt>
      <trkpt lon="0.4604046046733856" lat="49.4052963256835938">
        <ele>109.7281723022461</ele>
        <time>2016-09-21T12:40:33.000Z</time>
      </trkpt>
      <trkpt lon="0.4605331122875214" lat="49.4053001403808594">
        <ele>109.8973159790039</ele>
        <time>2016-09-21T12:40:36.000Z</time>
      </trkpt>
      <trkpt lon="0.4606199562549591" lat="49.4052925109863281">
        <ele>110.04703521728516</ele>
        <time>2016-09-21T12:40:38.000Z</time>
      </trkpt>
      <trkpt lon="0.4607513844966888" lat="49.4052696228027344">
        <ele>110.20057678222656</ele>
        <time>2016-09-21T12:40:41.000Z</time>
      </trkpt>
      <trkpt lon="0.4608429968357086" lat="49.4052619934082031">
        <ele>110.35438537597656</ele>
        <time>2016-09-21T12:40:43.000Z</time>
      </trkpt>
      <trkpt lon="0.4609798789024353" lat="49.4052543640136719">
        <ele>110.5322265625</ele>
        <time>2016-09-21T12:40:46.000Z</time>
      </trkpt>
      <trkpt lon="0.4611133933067322" lat="49.4052314758300781">
        <ele>110.71284484863281</ele>
        <time>2016-09-21T12:40:49.000Z</time>
      </trkpt>
      <trkpt lon="0.4612240195274353" lat="49.4051933288574219">
        <ele>110.8991928100586</ele>
        <time>2016-09-21T12:40:51.000Z</time>
      </trkpt>
      <trkpt lon="0.4613804221153259" lat="49.4051322937011719">
        <ele>111.10076904296875</ele>
        <time>2016-09-21T12:40:54.000Z</time>
      </trkpt>
      <trkpt lon="0.4615344107151031" lat="49.4050521850585938">
        <ele>111.32292175292969</ele>
        <time>2016-09-21T12:40:57.000Z</time>
      </trkpt>
      <trkpt lon="0.4616384208202362" lat="49.4050025939941406">
        <ele>111.5284194946289</ele>
        <time>2016-09-21T12:40:59.000Z</time>
      </trkpt>
      <trkpt lon="0.4617767333984375" lat="49.4049186706542969">
        <ele>111.74615478515625</ele>
        <time>2016-09-21T12:41:02.000Z</time>
      </trkpt>
      <trkpt lon="0.4618767201900482" lat="49.4048423767089844">
        <ele>111.96646881103516</ele>
        <time>2016-09-21T12:41:05.000Z</time>
      </trkpt>
      <trkpt lon="0.4619520902633667" lat="49.4047584533691406">
        <ele>112.14041900634766</ele>
        <time>2016-09-21T12:41:08.000Z</time>
      </trkpt>
      <trkpt lon="0.4620008766651154" lat="49.4046936035156250">
        <ele>112.2613754272461</ele>
        <time>2016-09-21T12:41:10.000Z</time>
      </trkpt>
      <trkpt lon="0.4620875418186188" lat="49.4045867919921875">
        <ele>112.33030700683594</ele>
        <time>2016-09-21T12:41:13.000Z</time>
      </trkpt>
      <trkpt lon="0.4621631503105164" lat="49.4045066833496094">
        <ele>112.33766174316406</ele>
        <time>2016-09-21T12:41:15.000Z</time>
      </trkpt>
      <trkpt lon="0.4623310267925262" lat="49.4043540954589844">
        <ele>112.30816650390625</ele>
        <time>2016-09-21T12:41:18.000Z</time>
      </trkpt>
      <trkpt lon="0.4624016880989075" lat="49.4043045043945312">
        <ele>112.28746032714844</ele>
        <time>2016-09-21T12:41:20.000Z</time>
      </trkpt>
      <trkpt lon="0.4624626934528351" lat="49.4042625427246094">
        <ele>112.2808837890625</ele>
        <time>2016-09-21T12:41:22.000Z</time>
      </trkpt>
      <trkpt lon="0.4625451862812042" lat="49.4041786193847656">
        <ele>112.2789535522461</ele>
        <time>2016-09-21T12:41:25.000Z</time>
      </trkpt>
      <trkpt lon="0.4626470208168030" lat="49.4040946960449219">
        <ele>112.32320404052734</ele>
        <time>2016-09-21T12:41:28.000Z</time>
      </trkpt>
      <trkpt lon="0.4627252221107483" lat="49.4040222167968750">
        <ele>112.39166259765625</ele>
        <time>2016-09-21T12:41:30.000Z</time>
      </trkpt>
      <trkpt lon="0.4628060162067413" lat="49.4039421081542969">
        <ele>112.46073913574219</ele>
        <time>2016-09-21T12:41:32.000Z</time>
      </trkpt>
      <trkpt lon="0.4628810584545135" lat="49.4038581848144531">
        <ele>112.5104751586914</ele>
        <time>2016-09-21T12:41:34.000Z</time>
      </trkpt>
      <trkpt lon="0.4629755020141602" lat="49.4037590026855469">
        <ele>112.55081939697266</ele>
        <time>2016-09-21T12:41:37.000Z</time>
      </trkpt>
      <trkpt lon="0.4630394577980042" lat="49.4036941528320312">
        <ele>112.52546691894531</ele>
        <time>2016-09-21T12:41:39.000Z</time>
      </trkpt>
      <trkpt lon="0.4631517827510834" lat="49.4035797119140625">
        <ele>112.42254638671875</ele>
        <time>2016-09-21T12:41:42.000Z</time>
      </trkpt>
      <trkpt lon="0.4632302522659302" lat="49.4034957885742188">
        <ele>112.25054931640625</ele>
        <time>2016-09-21T12:41:44.000Z</time>
      </trkpt>
      <trkpt lon="0.4633035659790039" lat="49.4034156799316406">
        <ele>112.02244567871094</ele>
        <time>2016-09-21T12:41:46.000Z</time>
      </trkpt>
      <trkpt lon="0.4633646011352539" lat="49.4033393859863281">
        <ele>111.74442291259766</ele>
        <time>2016-09-21T12:41:48.000Z</time>
      </trkpt>
      <trkpt lon="0.4635161459445953" lat="49.4031867980957031">
        <ele>111.43851470947266</ele>
        <time>2016-09-21T12:41:51.000Z</time>
      </trkpt>
      <trkpt lon="0.4635911583900452" lat="49.4031105041503906">
        <ele>111.16141510009766</ele>
        <time>2016-09-21T12:41:53.000Z</time>
      </trkpt>
      <trkpt lon="0.4637342393398285" lat="49.4029922485351562">
        <ele>110.8984375</ele>
        <time>2016-09-21T12:41:56.000Z</time>
      </trkpt>
      <trkpt lon="0.4638306200504303" lat="49.4029159545898438">
        <ele>110.67115783691406</ele>
        <time>2016-09-21T12:41:58.000Z</time>
      </trkpt>
      <trkpt lon="0.4639594554901123" lat="49.4028015136718750">
        <ele>110.45295715332031</ele>
        <time>2016-09-21T12:42:01.000Z</time>
      </trkpt>
      <trkpt lon="0.4640304446220398" lat="49.4027175903320312">
        <ele>110.23600769042969</ele>
        <time>2016-09-21T12:42:03.000Z</time>
      </trkpt>
      <trkpt lon="0.4641669988632202" lat="49.4025955200195312">
        <ele>109.96797943115234</ele>
        <time>2016-09-21T12:42:06.000Z</time>
      </trkpt>
      <trkpt lon="0.4643141031265259" lat="49.4024543762207031">
        <ele>109.7969970703125</ele>
        <time>2016-09-21T12:42:09.000Z</time>
      </trkpt>
      <trkpt lon="0.4644184708595276" lat="49.4023628234863281">
        <ele>109.77044677734375</ele>
        <time>2016-09-21T12:42:11.000Z</time>
      </trkpt>
      <trkpt lon="0.4645567536354065" lat="49.4022064208984375">
        <ele>109.9904556274414</ele>
        <time>2016-09-21T12:42:14.000Z</time>
      </trkpt>
      <trkpt lon="0.4647111594676971" lat="49.4020729064941406">
        <ele>110.47145080566406</ele>
        <time>2016-09-21T12:42:17.000Z</time>
      </trkpt>
      <trkpt lon="0.4648125767707825" lat="49.4019813537597656">
        <ele>111.18441009521484</ele>
        <time>2016-09-21T12:42:19.000Z</time>
      </trkpt>
      <trkpt lon="0.4649547338485718" lat="49.4018669128417969">
        <ele>112.06937408447266</ele>
        <time>2016-09-21T12:42:22.000Z</time>
      </trkpt>
      <trkpt lon="0.4650578200817108" lat="49.4018020629882812">
        <ele>112.96791076660156</ele>
        <time>2016-09-21T12:42:24.000Z</time>
      </trkpt>
      <trkpt lon="0.4651698172092438" lat="49.4017448425292969">
        <ele>113.7786865234375</ele>
        <time>2016-09-21T12:42:26.000Z</time>
      </trkpt>
      <trkpt lon="0.4653098583221436" lat="49.4017105102539062">
        <ele>114.47123718261719</ele>
        <time>2016-09-21T12:42:29.000Z</time>
      </trkpt>
      <trkpt lon="0.4654368460178375" lat="49.4016418457031250">
        <ele>115.12333679199219</ele>
        <time>2016-09-21T12:42:32.000Z</time>
      </trkpt>
      <trkpt lon="0.4655254483222961" lat="49.4015808105468750">
        <ele>115.66703796386719</ele>
        <time>2016-09-21T12:42:34.000Z</time>
      </trkpt>
      <trkpt lon="0.4656642675399780" lat="49.4014930725097656">
        <ele>116.25328063964844</ele>
        <time>2016-09-21T12:42:37.000Z</time>
      </trkpt>
      <trkpt lon="0.4657682776451111" lat="49.4014282226562500">
        <ele>116.87518310546875</ele>
        <time>2016-09-21T12:42:39.000Z</time>
      </trkpt>
      <trkpt lon="0.4659387767314911" lat="49.4013175964355469">
        <ele>117.53524017333984</ele>
        <time>2016-09-21T12:42:42.000Z</time>
      </trkpt>
      <trkpt lon="0.4661048054695129" lat="49.4011955261230469">
        <ele>118.16334533691406</ele>
        <time>2016-09-21T12:42:45.000Z</time>
      </trkpt>
      <trkpt lon="0.4662452936172485" lat="49.4010772705078125">
        <ele>118.7508316040039</ele>
        <time>2016-09-21T12:42:48.000Z</time>
      </trkpt>
      <trkpt lon="0.4664840996265411" lat="49.4009513854980469">
        <ele>119.1997299194336</ele>
        <time>2016-09-21T12:42:51.000Z</time>
      </trkpt>
      <trkpt lon="0.4666426777839661" lat="49.4008560180664062">
        <ele>119.54036712646484</ele>
        <time>2016-09-21T12:42:54.000Z</time>
      </trkpt>
      <trkpt lon="0.4668051302433014" lat="49.4007682800292969">
        <ele>119.5840072631836</ele>
        <time>2016-09-21T12:42:57.000Z</time>
      </trkpt>
      <trkpt lon="0.4669103920459747" lat="49.4007110595703125">
        <ele>119.40898132324219</ele>
        <time>2016-09-21T12:42:59.000Z</time>
      </trkpt>
      <trkpt lon="0.4670057892799377" lat="49.4006500244140625">
        <ele>119.0264892578125</ele>
        <time>2016-09-21T12:43:01.000Z</time>
      </trkpt>
      <trkpt lon="0.4671963751316071" lat="49.4005088806152344">
        <ele>118.33768463134766</ele>
        <time>2016-09-21T12:43:04.000Z</time>
      </trkpt>
      <trkpt lon="0.4674283862113953" lat="49.4003944396972656">
        <ele>117.36802673339844</ele>
        <time>2016-09-21T12:43:07.000Z</time>
      </trkpt>
      <trkpt lon="0.4676273763179779" lat="49.4003028869628906">
        <ele>116.48995208740234</ele>
        <time>2016-09-21T12:43:10.000Z</time>
      </trkpt>
      <trkpt lon="0.4678831994533539" lat="49.4002037048339844">
        <ele>115.80628967285156</ele>
        <time>2016-09-21T12:43:13.000Z</time>
      </trkpt>
      <trkpt lon="0.4680142998695374" lat="49.4001502990722656">
        <ele>115.2993392944336</ele>
        <time>2016-09-21T12:43:15.000Z</time>
      </trkpt>
      <trkpt lon="0.4682243466377258" lat="49.4001045227050781">
        <ele>115.1777114868164</ele>
        <time>2016-09-21T12:43:18.000Z</time>
      </trkpt>
      <trkpt lon="0.4683662354946136" lat="49.4000740051269531">
        <ele>115.3810806274414</ele>
        <time>2016-09-21T12:43:20.000Z</time>
      </trkpt>
      <trkpt lon="0.4685592949390411" lat="49.4000129699707031">
        <ele>115.6898193359375</ele>
        <time>2016-09-21T12:43:23.000Z</time>
      </trkpt>
      <trkpt lon="0.4686889648437500" lat="49.3999862670898438">
        <ele>115.96126556396484</ele>
        <time>2016-09-21T12:43:25.000Z</time>
      </trkpt>
      <trkpt lon="0.4688831567764282" lat="49.3999557495117188">
        <ele>116.20597839355469</ele>
        <time>2016-09-21T12:43:28.000Z</time>
      </trkpt>
      <trkpt lon="0.4691517055034637" lat="49.3998832702636719">
        <ele>116.3327407836914</ele>
        <time>2016-09-21T12:43:31.000Z</time>
      </trkpt>
      <trkpt lon="0.4693048596382141" lat="49.3998680114746094">
        <ele>116.41612243652344</ele>
        <time>2016-09-21T12:43:33.000Z</time>
      </trkpt>
      <trkpt lon="0.4695392847061157" lat="49.3998298645019531">
        <ele>116.4851303100586</ele>
        <time>2016-09-21T12:43:36.000Z</time>
      </trkpt>
      <trkpt lon="0.4697614312171936" lat="49.3997764587402344">
        <ele>116.5377197265625</ele>
        <time>2016-09-21T12:43:39.000Z</time>
      </trkpt>
      <trkpt lon="0.4699637591838837" lat="49.3997421264648438">
        <ele>116.59028625488281</ele>
        <time>2016-09-21T12:43:42.000Z</time>
      </trkpt>
      <trkpt lon="0.4701794087886810" lat="49.3997154235839844">
        <ele>116.69097900390625</ele>
        <time>2016-09-21T12:43:45.000Z</time>
      </trkpt>
      <trkpt lon="0.4704264402389526" lat="49.3996849060058594">
        <ele>116.82286071777344</ele>
        <time>2016-09-21T12:43:48.000Z</time>
      </trkpt>
      <trkpt lon="0.4706644117832184" lat="49.3996467590332031">
        <ele>116.9848403930664</ele>
        <time>2016-09-21T12:43:51.000Z</time>
      </trkpt>
      <trkpt lon="0.4708296954631805" lat="49.3996200561523438">
        <ele>117.18321228027344</ele>
        <time>2016-09-21T12:43:53.000Z</time>
      </trkpt>
      <trkpt lon="0.4710264205932617" lat="49.3995895385742188">
        <ele>117.34147644042969</ele>
        <time>2016-09-21T12:43:55.000Z</time>
      </trkpt>
      <trkpt lon="0.4712775349617004" lat="49.3995552062988281">
        <ele>117.44466400146484</ele>
        <time>2016-09-21T12:43:58.000Z</time>
      </trkpt>
      <trkpt lon="0.4715043604373932" lat="49.3995361328125000">
        <ele>117.4888916015625</ele>
        <time>2016-09-21T12:44:01.000Z</time>
      </trkpt>
      <trkpt lon="0.4718408882617950" lat="49.3995170593261719">
        <ele>117.4745864868164</ele>
        <time>2016-09-21T12:44:04.000Z</time>
      </trkpt>
      <trkpt lon="0.4720531105995178" lat="49.3994827270507812">
        <ele>117.41133880615234</ele>
        <time>2016-09-21T12:44:07.000Z</time>
      </trkpt>
      <trkpt lon="0.4722080826759338" lat="49.3994636535644531">
        <ele>117.3703384399414</ele>
        <time>2016-09-21T12:44:09.000Z</time>
      </trkpt>
      <trkpt lon="0.4724736213684082" lat="49.3993797302246094">
        <ele>117.37825012207031</ele>
        <time>2016-09-21T12:44:12.000Z</time>
      </trkpt>
      <trkpt lon="0.4726198911666870" lat="49.3993644714355469">
        <ele>117.37259674072266</ele>
        <time>2016-09-21T12:44:14.000Z</time>
      </trkpt>
      <trkpt lon="0.4727576971054077" lat="49.3993415832519531">
        <ele>117.3743896484375</ele>
        <time>2016-09-21T12:44:16.000Z</time>
      </trkpt>
      <trkpt lon="0.4729904532432556" lat="49.3992996215820312">
        <ele>117.4142074584961</ele>
        <time>2016-09-21T12:44:19.000Z</time>
      </trkpt>
      <trkpt lon="0.4734685719013214" lat="49.3992004394531250">
        <ele>117.62638092041016</ele>
        <time>2016-09-21T12:44:23.000Z</time>
      </trkpt>
      <trkpt lon="0.4736564755439758" lat="49.3991508483886719">
        <ele>117.85246276855469</ele>
        <time>2016-09-21T12:44:25.000Z</time>
      </trkpt>
      <trkpt lon="0.4739666879177094" lat="49.3990707397460938">
        <ele>118.03361511230469</ele>
        <time>2016-09-21T12:44:28.000Z</time>
      </trkpt>
      <trkpt lon="0.4742501080036163" lat="49.3990249633789062">
        <ele>118.206298828125</ele>
        <time>2016-09-21T12:44:31.000Z</time>
      </trkpt>
      <trkpt lon="0.4744784235954285" lat="49.3989906311035156">
        <ele>118.38890075683594</ele>
        <time>2016-09-21T12:44:34.000Z</time>
      </trkpt>
      <trkpt lon="0.4747192263603210" lat="49.3989334106445312">
        <ele>118.42866516113281</ele>
        <time>2016-09-21T12:44:37.000Z</time>
      </trkpt>
      <trkpt lon="0.4749606251716614" lat="49.3988914489746094">
        <ele>118.4382553100586</ele>
        <time>2016-09-21T12:44:40.000Z</time>
      </trkpt>
      <trkpt lon="0.4752607941627502" lat="49.3987960815429688">
        <ele>118.4615478515625</ele>
        <time>2016-09-21T12:44:43.000Z</time>
      </trkpt>
      <trkpt lon="0.4755066335201263" lat="49.3987274169921875">
        <ele>118.44413757324219</ele>
        <time>2016-09-21T12:44:45.000Z</time>
      </trkpt>
      <trkpt lon="0.4758298397064209" lat="49.3986244201660156">
        <ele>118.299072265625</ele>
        <time>2016-09-21T12:44:48.000Z</time>
      </trkpt>
      <trkpt lon="0.4761360287666321" lat="49.3985824584960938">
        <ele>117.91600036621094</ele>
        <time>2016-09-21T12:44:51.000Z</time>
      </trkpt>
      <trkpt lon="0.4763336777687073" lat="49.3985557556152344">
        <ele>117.3873291015625</ele>
        <time>2016-09-21T12:44:53.000Z</time>
      </trkpt>
      <trkpt lon="0.4765981137752533" lat="49.3985137939453125">
        <ele>116.74433898925781</ele>
        <time>2016-09-21T12:44:56.000Z</time>
      </trkpt>
      <trkpt lon="0.4768348336219788" lat="49.3984642028808594">
        <ele>116.12247467041016</ele>
        <time>2016-09-21T12:44:59.000Z</time>
      </trkpt>
      <trkpt lon="0.4769739508628845" lat="49.3984603881835938">
        <ele>115.59893798828125</ele>
        <time>2016-09-21T12:45:01.000Z</time>
      </trkpt>
      <trkpt lon="0.4771789014339447" lat="49.3984298706054688">
        <ele>115.31971740722656</ele>
        <time>2016-09-21T12:45:03.000Z</time>
      </trkpt>
      <trkpt lon="0.4774049520492554" lat="49.3984031677246094">
        <ele>115.21832275390625</ele>
        <time>2016-09-21T12:45:06.000Z</time>
      </trkpt>
      <trkpt lon="0.4775908589363098" lat="49.3983840942382812">
        <ele>115.30196380615234</ele>
        <time>2016-09-21T12:45:08.000Z</time>
      </trkpt>
      <trkpt lon="0.4778707325458527" lat="49.3983383178710938">
        <ele>115.478271484375</ele>
        <time>2016-09-21T12:45:11.000Z</time>
      </trkpt>
      <trkpt lon="0.4781269729137421" lat="49.3982925415039062">
        <ele>115.62080383300781</ele>
        <time>2016-09-21T12:45:14.000Z</time>
      </trkpt>
      <trkpt lon="0.4783926010131836" lat="49.3982238769531250">
        <ele>115.6550064086914</ele>
        <time>2016-09-21T12:45:17.000Z</time>
      </trkpt>
      <trkpt lon="0.4787332415580750" lat="49.3981742858886719">
        <ele>115.5409927368164</ele>
        <time>2016-09-21T12:45:20.000Z</time>
      </trkpt>
      <trkpt lon="0.4789225757122040" lat="49.3981437683105469">
        <ele>115.35868835449219</ele>
        <time>2016-09-21T12:45:22.000Z</time>
      </trkpt>
      <trkpt lon="0.4792323112487793" lat="49.3980903625488281">
        <ele>115.02457427978516</ele>
        <time>2016-09-21T12:45:25.000Z</time>
      </trkpt>
      <trkpt lon="0.4794226586818695" lat="49.3980293273925781">
        <ele>114.60252380371094</ele>
        <time>2016-09-21T12:45:27.000Z</time>
      </trkpt>
      <trkpt lon="0.4795932173728943" lat="49.3979835510253906">
        <ele>114.16990661621094</ele>
        <time>2016-09-21T12:45:29.000Z</time>
      </trkpt>
      <trkpt lon="0.4798959791660309" lat="49.3979415893554688">
        <ele>113.7166519165039</ele>
        <time>2016-09-21T12:45:32.000Z</time>
      </trkpt>
      <trkpt lon="0.4801800251007080" lat="49.3978767395019531">
        <ele>113.2349624633789</ele>
        <time>2016-09-21T12:45:35.000Z</time>
      </trkpt>
      <trkpt lon="0.4803799390792847" lat="49.3978080749511719">
        <ele>112.8582763671875</ele>
        <time>2016-09-21T12:45:37.000Z</time>
      </trkpt>
      <trkpt lon="0.4806141257286072" lat="49.3977241516113281">
        <ele>112.68253326416016</ele>
        <time>2016-09-21T12:45:40.000Z</time>
      </trkpt>
      <trkpt lon="0.4807676076889038" lat="49.3976974487304688">
        <ele>112.64524841308594</ele>
        <time>2016-09-21T12:45:42.000Z</time>
      </trkpt>
      <trkpt lon="0.4809247851371765" lat="49.3976631164550781">
        <ele>112.74359130859375</ele>
        <time>2016-09-21T12:45:44.000Z</time>
      </trkpt>
      <trkpt lon="0.4811709523200989" lat="49.3975639343261719">
        <ele>113.03987121582031</ele>
        <time>2016-09-21T12:45:47.000Z</time>
      </trkpt>
      <trkpt lon="0.4813485741615295" lat="49.3974952697753906">
        <ele>113.44224548339844</ele>
        <time>2016-09-21T12:45:49.000Z</time>
      </trkpt>
      <trkpt lon="0.4815726876258850" lat="49.3974075317382812">
        <ele>113.71781921386719</ele>
        <time>2016-09-21T12:45:52.000Z</time>
      </trkpt>
      <trkpt lon="0.4818132519721985" lat="49.3973388671875000">
        <ele>113.93326568603516</ele>
        <time>2016-09-21T12:45:55.000Z</time>
      </trkpt>
      <trkpt lon="0.4819510579109192" lat="49.3973083496093750">
        <ele>114.13179016113281</ele>
        <time>2016-09-21T12:45:57.000Z</time>
      </trkpt>
      <trkpt lon="0.4820849895477295" lat="49.3972892761230469">
        <ele>114.20085144042969</ele>
        <time>2016-09-21T12:45:59.000Z</time>
      </trkpt>
      <trkpt lon="0.4822880923748016" lat="49.3972740173339844">
        <ele>114.1385498046875</ele>
        <time>2016-09-21T12:46:02.000Z</time>
      </trkpt>
      <trkpt lon="0.4824481010437012" lat="49.3972473144531250">
        <ele>114.10514068603516</ele>
        <time>2016-09-21T12:46:04.000Z</time>
      </trkpt>
      <trkpt lon="0.4825744032859802" lat="49.3972282409667969">
        <ele>114.06703186035156</ele>
        <time>2016-09-21T12:46:06.000Z</time>
      </trkpt>
      <trkpt lon="0.4830668568611145" lat="49.3971023559570312">
        <ele>114.030029296875</ele>
        <time>2016-09-21T12:46:10.000Z</time>
      </trkpt>
      <trkpt lon="0.4833810031414032" lat="49.3970451354980469">
        <ele>114.02811431884766</ele>
        <time>2016-09-21T12:46:13.000Z</time>
      </trkpt>
      <trkpt lon="0.4836816489696503" lat="49.3969955444335938">
        <ele>114.08885192871094</ele>
        <time>2016-09-21T12:46:16.000Z</time>
      </trkpt>
      <trkpt lon="0.4839431643486023" lat="49.3969459533691406">
        <ele>114.20064544677734</ele>
        <time>2016-09-21T12:46:19.000Z</time>
      </trkpt>
      <trkpt lon="0.4841201901435852" lat="49.3969192504882812">
        <ele>114.3427505493164</ele>
        <time>2016-09-21T12:46:21.000Z</time>
      </trkpt>
      <trkpt lon="0.4844009876251221" lat="49.3968620300292969">
        <ele>114.5318374633789</ele>
        <time>2016-09-21T12:46:24.000Z</time>
      </trkpt>
      <trkpt lon="0.4846701323986053" lat="49.3968315124511719">
        <ele>114.7427978515625</ele>
        <time>2016-09-21T12:46:27.000Z</time>
      </trkpt>
      <trkpt lon="0.4848766624927521" lat="49.3968162536621094">
        <ele>114.94041442871094</ele>
        <time>2016-09-21T12:46:30.000Z</time>
      </trkpt>
      <trkpt lon="0.4851011335849762" lat="49.3968048095703125">
        <ele>115.12873840332031</ele>
        <time>2016-09-21T12:46:33.000Z</time>
      </trkpt>
      <trkpt lon="0.4852234423160553" lat="49.3968124389648438">
        <ele>115.2962875366211</ele>
        <time>2016-09-21T12:46:35.000Z</time>
      </trkpt>
      <trkpt lon="0.4855112731456757" lat="49.3967475891113281">
        <ele>115.46650695800781</ele>
        <time>2016-09-21T12:46:38.000Z</time>
      </trkpt>
      <trkpt lon="0.4856398403644562" lat="49.3967399597167969">
        <ele>115.59269714355469</ele>
        <time>2016-09-21T12:46:40.000Z</time>
      </trkpt>
      <trkpt lon="0.4858425259590149" lat="49.3967247009277344">
        <ele>115.6902847290039</ele>
        <time>2016-09-21T12:46:43.000Z</time>
      </trkpt>
      <trkpt lon="0.4860663115978241" lat="49.3967208862304688">
        <ele>115.6975326538086</ele>
        <time>2016-09-21T12:46:46.000Z</time>
      </trkpt>
      <trkpt lon="0.4863014221191406" lat="49.3967094421386719">
        <ele>115.65065002441406</ele>
        <time>2016-09-21T12:46:49.000Z</time>
      </trkpt>
      <trkpt lon="0.4864618480205536" lat="49.3966979980468750">
        <ele>115.522216796875</ele>
        <time>2016-09-21T12:46:51.000Z</time>
      </trkpt>
      <trkpt lon="0.4871622622013092" lat="49.3966026306152344">
        <ele>115.22126770019531</ele>
        <time>2016-09-21T12:46:56.000Z</time>
      </trkpt>
      <trkpt lon="0.4873862862586975" lat="49.3965988159179688">
        <ele>114.86014556884766</ele>
        <time>2016-09-21T12:46:58.000Z</time>
      </trkpt>
      <trkpt lon="0.4875861108303070" lat="49.3965950012207031">
        <ele>114.51100158691406</ele>
        <time>2016-09-21T12:47:00.000Z</time>
      </trkpt>
      <trkpt lon="0.4878855943679810" lat="49.3965911865234375">
        <ele>114.1435546875</ele>
        <time>2016-09-21T12:47:03.000Z</time>
      </trkpt>
      <trkpt lon="0.4881775379180908" lat="49.3965835571289062">
        <ele>113.73614501953125</ele>
        <time>2016-09-21T12:47:06.000Z</time>
      </trkpt>
      <trkpt lon="0.4884073734283447" lat="49.3965721130371094">
        <ele>113.47029876708984</ele>
        <time>2016-09-21T12:47:09.000Z</time>
      </trkpt>
      <trkpt lon="0.4885707497596741" lat="49.3965797424316406">
        <ele>113.29127502441406</ele>
        <time>2016-09-21T12:47:11.000Z</time>
      </trkpt>
      <trkpt lon="0.4888294935226440" lat="49.3965606689453125">
        <ele>113.20820617675781</ele>
        <time>2016-09-21T12:47:14.000Z</time>
      </trkpt>
      <trkpt lon="0.4889830350875854" lat="49.3965530395507812">
        <ele>113.22672271728516</ele>
        <time>2016-09-21T12:47:16.000Z</time>
      </trkpt>
      <trkpt lon="0.4891543686389923" lat="49.3965225219726562">
        <ele>113.33729553222656</ele>
        <time>2016-09-21T12:47:18.000Z</time>
      </trkpt>
      <trkpt lon="0.4894259572029114" lat="49.3964767456054688">
        <ele>113.5003662109375</ele>
        <time>2016-09-21T12:47:21.000Z</time>
      </trkpt>
      <trkpt lon="0.4896209836006165" lat="49.3964538574218750">
        <ele>113.6485366821289</ele>
        <time>2016-09-21T12:47:23.000Z</time>
      </trkpt>
      <trkpt lon="0.4898148775100708" lat="49.3964195251464844">
        <ele>113.76029205322266</ele>
        <time>2016-09-21T12:47:25.000Z</time>
      </trkpt>
      <trkpt lon="0.4900746941566467" lat="49.3963737487792969">
        <ele>113.74290466308594</ele>
        <time>2016-09-21T12:47:28.000Z</time>
      </trkpt>
      <trkpt lon="0.4902837574481964" lat="49.3963088989257812">
        <ele>113.4176025390625</ele>
        <time>2016-09-21T12:47:31.000Z</time>
      </trkpt>
      <trkpt lon="0.4904547333717346" lat="49.3962821960449219">
        <ele>112.86380767822266</ele>
        <time>2016-09-21T12:47:33.000Z</time>
      </trkpt>
      <trkpt lon="0.4907213747501373" lat="49.3962211608886719">
        <ele>112.0290298461914</ele>
        <time>2016-09-21T12:47:36.000Z</time>
      </trkpt>
      <trkpt lon="0.4910028278827667" lat="49.3961601257324219">
        <ele>111.16656494140625</ele>
        <time>2016-09-21T12:47:39.000Z</time>
      </trkpt>
      <trkpt lon="0.4911881685256958" lat="49.3961524963378906">
        <ele>110.4568099975586</ele>
        <time>2016-09-21T12:47:41.000Z</time>
      </trkpt>
      <trkpt lon="0.4914636015892029" lat="49.3961372375488281">
        <ele>110.11275482177734</ele>
        <time>2016-09-21T12:47:44.000Z</time>
      </trkpt>
      <trkpt lon="0.4917134642601013" lat="49.3961296081542969">
        <ele>110.0440444946289</ele>
        <time>2016-09-21T12:47:47.000Z</time>
      </trkpt>
      <trkpt lon="0.4918803274631500" lat="49.3961067199707031">
        <ele>110.32413482666016</ele>
        <time>2016-09-21T12:47:49.000Z</time>
      </trkpt>
      <trkpt lon="0.4921116828918457" lat="49.3960876464843750">
        <ele>110.7252426147461</ele>
        <time>2016-09-21T12:47:52.000Z</time>
      </trkpt>
      <trkpt lon="0.4922539293766022" lat="49.3960762023925781">
        <ele>111.1339111328125</ele>
        <time>2016-09-21T12:47:54.000Z</time>
      </trkpt>
      <trkpt lon="0.4924269318580627" lat="49.3960762023925781">
        <ele>111.53062438964844</ele>
        <time>2016-09-21T12:47:57.000Z</time>
      </trkpt>
      <trkpt lon="0.4925995171070099" lat="49.3960838317871094">
        <ele>111.88487243652344</ele>
        <time>2016-09-21T12:47:59.000Z</time>
      </trkpt>
      <trkpt lon="0.4927299320697784" lat="49.3960914611816406">
        <ele>112.15995025634766</ele>
        <time>2016-09-21T12:48:01.000Z</time>
      </trkpt>
      <trkpt lon="0.4929481148719788" lat="49.3961143493652344">
        <ele>112.33097839355469</ele>
        <time>2016-09-21T12:48:04.000Z</time>
      </trkpt>
      <trkpt lon="0.4931679666042328" lat="49.3961257934570312">
        <ele>112.44880676269531</ele>
        <time>2016-09-21T12:48:07.000Z</time>
      </trkpt>
      <trkpt lon="0.4933952689170837" lat="49.3961524963378906">
        <ele>112.50398254394531</ele>
        <time>2016-09-21T12:48:10.000Z</time>
      </trkpt>
      <trkpt lon="0.4935517013072968" lat="49.3961791992187500">
        <ele>112.53602600097656</ele>
        <time>2016-09-21T12:48:12.000Z</time>
      </trkpt>
      <trkpt lon="0.4937734007835388" lat="49.3961753845214844">
        <ele>112.61531829833984</ele>
        <time>2016-09-21T12:48:15.000Z</time>
      </trkpt>
      <trkpt lon="0.4940193891525269" lat="49.3961868286132812">
        <ele>112.73982238769531</ele>
        <time>2016-09-21T12:48:18.000Z</time>
      </trkpt>
      <trkpt lon="0.4941425323486328" lat="49.3961944580078125">
        <ele>112.87939453125</ele>
        <time>2016-09-21T12:48:20.000Z</time>
      </trkpt>
      <trkpt lon="0.4943695068359375" lat="49.3962249755859375">
        <ele>112.9911880493164</ele>
        <time>2016-09-21T12:48:23.000Z</time>
      </trkpt>
      <trkpt lon="0.4946020245552063" lat="49.3962364196777344">
        <ele>113.08062744140625</ele>
        <time>2016-09-21T12:48:26.000Z</time>
      </trkpt>
      <trkpt lon="0.4947911202907562" lat="49.3962669372558594">
        <ele>113.0918960571289</ele>
        <time>2016-09-21T12:48:29.000Z</time>
      </trkpt>
      <trkpt lon="0.4949429035186768" lat="49.3962783813476562">
        <ele>113.05330657958984</ele>
        <time>2016-09-21T12:48:31.000Z</time>
      </trkpt>
      <trkpt lon="0.4951709806919098" lat="49.3962821960449219">
        <ele>112.9698715209961</ele>
        <time>2016-09-21T12:48:34.000Z</time>
      </trkpt>
      <trkpt lon="0.4954220354557037" lat="49.3963203430175781">
        <ele>112.85420227050781</ele>
        <time>2016-09-21T12:48:37.000Z</time>
      </trkpt>
      <trkpt lon="0.4955794513225555" lat="49.3963356018066406">
        <ele>112.72061920166016</ele>
        <time>2016-09-21T12:48:39.000Z</time>
      </trkpt>
      <trkpt lon="0.4958696961402893" lat="49.3963241577148438">
        <ele>112.5773696899414</ele>
        <time>2016-09-21T12:48:42.000Z</time>
      </trkpt>
      <trkpt lon="0.4961428642272949" lat="49.3963508605957031">
        <ele>112.4190673828125</ele>
        <time>2016-09-21T12:48:45.000Z</time>
      </trkpt>
      <trkpt lon="0.4962835311889648" lat="49.3963813781738281">
        <ele>112.26045227050781</ele>
        <time>2016-09-21T12:48:47.000Z</time>
      </trkpt>
      <trkpt lon="0.4964786469936371" lat="49.3964004516601562">
        <ele>112.1469497680664</ele>
        <time>2016-09-21T12:48:49.000Z</time>
      </trkpt>
      <trkpt lon="0.4967240691184998" lat="49.3964195251464844">
        <ele>112.05851745605469</ele>
        <time>2016-09-21T12:48:52.000Z</time>
      </trkpt>
      <trkpt lon="0.4969790577888489" lat="49.3964233398437500">
        <ele>112.0412826538086</ele>
        <time>2016-09-21T12:48:55.000Z</time>
      </trkpt>
      <trkpt lon="0.4971731007099152" lat="49.3964271545410156">
        <ele>112.072265625</ele>
        <time>2016-09-21T12:48:57.000Z</time>
      </trkpt>
      <trkpt lon="0.4974180161952972" lat="49.3964462280273438">
        <ele>112.1583480834961</ele>
        <time>2016-09-21T12:49:00.000Z</time>
      </trkpt>
      <trkpt lon="0.4976023137569427" lat="49.3964576721191406">
        <ele>112.29129791259766</ele>
        <time>2016-09-21T12:49:02.000Z</time>
      </trkpt>
      <trkpt lon="0.4978414773941040" lat="49.3964729309082031">
        <ele>112.47879791259766</ele>
        <time>2016-09-21T12:49:05.000Z</time>
      </trkpt>
      <trkpt lon="0.4980137050151825" lat="49.3964843750000000">
        <ele>112.66131591796875</ele>
        <time>2016-09-21T12:49:07.000Z</time>
      </trkpt>
      <trkpt lon="0.4982688426971436" lat="49.3964996337890625">
        <ele>112.86661529541016</ele>
        <time>2016-09-21T12:49:10.000Z</time>
      </trkpt>
      <trkpt lon="0.4985140264034271" lat="49.3965034484863281">
        <ele>113.08028411865234</ele>
        <time>2016-09-21T12:49:13.000Z</time>
      </trkpt>
      <trkpt lon="0.4987043738365173" lat="49.3965148925781250">
        <ele>113.28348541259766</ele>
        <time>2016-09-21T12:49:15.000Z</time>
      </trkpt>
      <trkpt lon="0.4989665746688843" lat="49.3965148925781250">
        <ele>113.47740173339844</ele>
        <time>2016-09-21T12:49:18.000Z</time>
      </trkpt>
      <trkpt lon="0.4991976618766785" lat="49.3965377807617188">
        <ele>113.67289733886719</ele>
        <time>2016-09-21T12:49:21.000Z</time>
      </trkpt>
      <trkpt lon="0.4993551373481750" lat="49.3965339660644531">
        <ele>113.84666442871094</ele>
        <time>2016-09-21T12:49:23.000Z</time>
      </trkpt>
      <trkpt lon="0.4995196163654327" lat="49.3965339660644531">
        <ele>114.0135726928711</ele>
        <time>2016-09-21T12:49:25.000Z</time>
      </trkpt>
      <trkpt lon="0.4996861517429352" lat="49.3965568542480469">
        <ele>114.19300842285156</ele>
        <time>2016-09-21T12:49:27.000Z</time>
      </trkpt>
      <trkpt lon="0.4999369382858276" lat="49.3965759277343750">
        <ele>114.3880615234375</ele>
        <time>2016-09-21T12:49:30.000Z</time>
      </trkpt>
      <trkpt lon="0.5002086162567139" lat="49.3965911865234375">
        <ele>114.53172302246094</ele>
        <time>2016-09-21T12:49:33.000Z</time>
      </trkpt>
      <trkpt lon="0.5004463195800781" lat="49.3965873718261719">
        <ele>114.60871887207031</ele>
        <time>2016-09-21T12:49:36.000Z</time>
      </trkpt>
      <trkpt lon="0.5006427764892578" lat="49.3965950012207031">
        <ele>114.61955261230469</ele>
        <time>2016-09-21T12:49:38.000Z</time>
      </trkpt>
      <trkpt lon="0.5008551478385925" lat="49.3965950012207031">
        <ele>114.56333923339844</ele>
        <time>2016-09-21T12:49:41.000Z</time>
      </trkpt>
      <trkpt lon="0.5011227130889893" lat="49.3966140747070312">
        <ele>114.43656158447266</ele>
        <time>2016-09-21T12:49:44.000Z</time>
      </trkpt>
      <trkpt lon="0.5013894438743591" lat="49.3966407775878906">
        <ele>114.3065185546875</ele>
        <time>2016-09-21T12:49:47.000Z</time>
      </trkpt>
      <trkpt lon="0.5015600323677063" lat="49.3966522216796875">
        <ele>114.20268249511719</ele>
        <time>2016-09-21T12:49:49.000Z</time>
      </trkpt>
      <trkpt lon="0.5018370151519775" lat="49.3966827392578125">
        <ele>114.17539978027344</ele>
        <time>2016-09-21T12:49:52.000Z</time>
      </trkpt>
      <trkpt lon="0.5021015405654907" lat="49.3966751098632812">
        <ele>114.4055404663086</ele>
        <time>2016-09-21T12:49:55.000Z</time>
      </trkpt>
      <trkpt lon="0.5023217797279358" lat="49.3967018127441406">
        <ele>114.73966217041016</ele>
        <time>2016-09-21T12:49:58.000Z</time>
      </trkpt>
      <trkpt lon="0.5025784373283386" lat="49.3966979980468750">
        <ele>115.24504089355469</ele>
        <time>2016-09-21T12:50:01.000Z</time>
      </trkpt>
      <trkpt lon="0.5027301907539368" lat="49.3967170715332031">
        <ele>115.71601867675781</ele>
        <time>2016-09-21T12:50:03.000Z</time>
      </trkpt>
      <trkpt lon="0.5028839111328125" lat="49.3967628479003906">
        <ele>116.05384826660156</ele>
        <time>2016-09-21T12:50:05.000Z</time>
      </trkpt>
      <trkpt lon="0.5031130909919739" lat="49.3968353271484375">
        <ele>116.04737854003906</ele>
        <time>2016-09-21T12:50:08.000Z</time>
      </trkpt>
      <trkpt lon="0.5032923221588135" lat="49.3968849182128906">
        <ele>115.9018783569336</ele>
        <time>2016-09-21T12:50:10.000Z</time>
      </trkpt>
      <trkpt lon="0.5034745931625366" lat="49.3969612121582031">
        <ele>115.4630126953125</ele>
        <time>2016-09-21T12:50:13.000Z</time>
      </trkpt>
      <trkpt lon="0.5036848783493042" lat="49.3970184326171875">
        <ele>114.96495056152344</ele>
        <time>2016-09-21T12:50:16.000Z</time>
      </trkpt>
      <trkpt lon="0.5039146542549133" lat="49.3970985412597656">
        <ele>114.45680236816406</ele>
        <time>2016-09-21T12:50:19.000Z</time>
      </trkpt>
      <trkpt lon="0.5040993690490723" lat="49.3971252441406250">
        <ele>114.04593658447266</ele>
        <time>2016-09-21T12:50:22.000Z</time>
      </trkpt>
      <trkpt lon="0.5043582320213318" lat="49.3971862792968750">
        <ele>113.79622650146484</ele>
        <time>2016-09-21T12:50:25.000Z</time>
      </trkpt>
      <trkpt lon="0.5046342611312866" lat="49.3972129821777344">
        <ele>113.88813781738281</ele>
        <time>2016-09-21T12:50:28.000Z</time>
      </trkpt>
      <trkpt lon="0.5048796534538269" lat="49.3972396850585938">
        <ele>114.26860046386719</ele>
        <time>2016-09-21T12:50:31.000Z</time>
      </trkpt>
      <trkpt lon="0.5050297975540161" lat="49.3972587585449219">
        <ele>114.8504867553711</ele>
        <time>2016-09-21T12:50:33.000Z</time>
      </trkpt>
      <trkpt lon="0.5052714943885803" lat="49.3972587585449219">
        <ele>115.51717376708984</ele>
        <time>2016-09-21T12:50:36.000Z</time>
      </trkpt>
      <trkpt lon="0.5054259896278381" lat="49.3972740173339844">
        <ele>116.11627197265625</ele>
        <time>2016-09-21T12:50:38.000Z</time>
      </trkpt>
      <trkpt lon="0.5055639743804932" lat="49.3972892761230469">
        <ele>116.55672454833984</ele>
        <time>2016-09-21T12:50:40.000Z</time>
      </trkpt>
      <trkpt lon="0.5057390332221985" lat="49.3973045349121094">
        <ele>116.86973571777344</ele>
        <time>2016-09-21T12:50:43.000Z</time>
      </trkpt>
      <trkpt lon="0.5059877634048462" lat="49.3973693847656250">
        <ele>117.17881774902344</ele>
        <time>2016-09-21T12:50:46.000Z</time>
      </trkpt>
      <trkpt lon="0.5062538981437683" lat="49.3973922729492188">
        <ele>117.49617767333984</ele>
        <time>2016-09-21T12:50:49.000Z</time>
      </trkpt>
      <trkpt lon="0.5065246224403381" lat="49.3974151611328125">
        <ele>117.84635162353516</ele>
        <time>2016-09-21T12:50:52.000Z</time>
      </trkpt>
      <trkpt lon="0.5067451596260071" lat="49.3974456787109375">
        <ele>118.2198257446289</ele>
        <time>2016-09-21T12:50:55.000Z</time>
      </trkpt>
      <trkpt lon="0.5068987011909485" lat="49.3974494934082031">
        <ele>118.57334899902344</ele>
        <time>2016-09-21T12:50:57.000Z</time>
      </trkpt>
      <trkpt lon="0.5071549415588379" lat="49.3974838256835938">
        <ele>118.90816497802734</ele>
        <time>2016-09-21T12:51:00.000Z</time>
      </trkpt>
      <trkpt lon="0.5073181390762329" lat="49.3975181579589844">
        <ele>119.19029235839844</ele>
        <time>2016-09-21T12:51:02.000Z</time>
      </trkpt>
      <trkpt lon="0.5075811743736267" lat="49.3975296020507812">
        <ele>119.39234924316406</ele>
        <time>2016-09-21T12:51:05.000Z</time>
      </trkpt>
      <trkpt lon="0.5078115463256836" lat="49.3975486755371094">
        <ele>119.40809631347656</ele>
        <time>2016-09-21T12:51:08.000Z</time>
      </trkpt>
      <trkpt lon="0.5080650448799133" lat="49.3975639343261719">
        <ele>119.2713851928711</ele>
        <time>2016-09-21T12:51:11.000Z</time>
      </trkpt>
      <trkpt lon="0.5083250999450684" lat="49.3975944519042969">
        <ele>118.94144439697266</ele>
        <time>2016-09-21T12:51:14.000Z</time>
      </trkpt>
      <trkpt lon="0.5084850788116455" lat="49.3976020812988281">
        <ele>118.55360412597656</ele>
        <time>2016-09-21T12:51:16.000Z</time>
      </trkpt>
      <trkpt lon="0.5086487531661987" lat="49.3975944519042969">
        <ele>118.13597106933594</ele>
        <time>2016-09-21T12:51:18.000Z</time>
      </trkpt>
      <trkpt lon="0.5088784098625183" lat="49.3976020812988281">
        <ele>117.78855895996094</ele>
        <time>2016-09-21T12:51:21.000Z</time>
      </trkpt>
      <trkpt lon="0.5090367794036865" lat="49.3976058959960938">
        <ele>117.5213394165039</ele>
        <time>2016-09-21T12:51:23.000Z</time>
      </trkpt>
      <trkpt lon="0.5092096924781799" lat="49.3976058959960938">
        <ele>117.35147857666016</ele>
        <time>2016-09-21T12:51:25.000Z</time>
      </trkpt>
      <trkpt lon="0.5094481110572815" lat="49.3975868225097656">
        <ele>117.2757339477539</ele>
        <time>2016-09-21T12:51:28.000Z</time>
      </trkpt>
      <trkpt lon="0.5096833109855652" lat="49.3975639343261719">
        <ele>117.28962707519531</ele>
        <time>2016-09-21T12:51:31.000Z</time>
      </trkpt>
      <trkpt lon="0.5099121332168579" lat="49.3975296020507812">
        <ele>117.40794372558594</ele>
        <time>2016-09-21T12:51:34.000Z</time>
      </trkpt>
      <trkpt lon="0.5100794434547424" lat="49.3974952697753906">
        <ele>117.5982894897461</ele>
        <time>2016-09-21T12:51:36.000Z</time>
      </trkpt>
      <trkpt lon="0.5102704167366028" lat="49.3974952697753906">
        <ele>117.8512954711914</ele>
        <time>2016-09-21T12:51:39.000Z</time>
      </trkpt>
      <trkpt lon="0.5104282498359680" lat="49.3974647521972656">
        <ele>118.078125</ele>
        <time>2016-09-21T12:51:41.000Z</time>
      </trkpt>
      <trkpt lon="0.5105742216110229" lat="49.3974380493164062">
        <ele>118.2767105102539</ele>
        <time>2016-09-21T12:51:43.000Z</time>
      </trkpt>
      <trkpt lon="0.5108848810195923" lat="49.3974151611328125">
        <ele>118.49253845214844</ele>
        <time>2016-09-21T12:51:46.000Z</time>
      </trkpt>
      <trkpt lon="0.5110470056533813" lat="49.3974266052246094">
        <ele>118.71794128417969</ele>
        <time>2016-09-21T12:51:48.000Z</time>
      </trkpt>
      <trkpt lon="0.5112676620483398" lat="49.3974113464355469">
        <ele>118.9597396850586</ele>
        <time>2016-09-21T12:51:51.000Z</time>
      </trkpt>
      <trkpt lon="0.5115064978599548" lat="49.3974113464355469">
        <ele>119.23990631103516</ele>
        <time>2016-09-21T12:51:54.000Z</time>
      </trkpt>
      <trkpt lon="0.5116909742355347" lat="49.3974189758300781">
        <ele>119.53702545166016</ele>
        <time>2016-09-21T12:51:56.000Z</time>
      </trkpt>
      <trkpt lon="0.5119631290435791" lat="49.3973846435546875">
        <ele>119.7801513671875</ele>
        <time>2016-09-21T12:51:59.000Z</time>
      </trkpt>
      <trkpt lon="0.5121530890464783" lat="49.3973922729492188">
        <ele>119.97837829589844</ele>
        <time>2016-09-21T12:52:01.000Z</time>
      </trkpt>
      <trkpt lon="0.5123301744461060" lat="49.3973960876464844">
        <ele>120.11814880371094</ele>
        <time>2016-09-21T12:52:03.000Z</time>
      </trkpt>
      <trkpt lon="0.5124979615211487" lat="49.3974075317382812">
        <ele>120.18769836425781</ele>
        <time>2016-09-21T12:52:05.000Z</time>
      </trkpt>
      <trkpt lon="0.5127430558204651" lat="49.3974189758300781">
        <ele>120.20069885253906</ele>
        <time>2016-09-21T12:52:08.000Z</time>
      </trkpt>
      <trkpt lon="0.5129149556159973" lat="49.3974494934082031">
        <ele>120.18131256103516</ele>
        <time>2016-09-21T12:52:10.000Z</time>
      </trkpt>
      <trkpt lon="0.5131778120994568" lat="49.3974838256835938">
        <ele>120.14434814453125</ele>
        <time>2016-09-21T12:52:13.000Z</time>
      </trkpt>
      <trkpt lon="0.5134097337722778" lat="49.3975296020507812">
        <ele>120.1112060546875</ele>
        <time>2016-09-21T12:52:16.000Z</time>
      </trkpt>
      <trkpt lon="0.5135518312454224" lat="49.3975677490234375">
        <ele>120.10774993896484</ele>
        <time>2016-09-21T12:52:18.000Z</time>
      </trkpt>
      <trkpt lon="0.5137946009635925" lat="49.3975982666015625">
        <ele>120.17512512207031</ele>
        <time>2016-09-21T12:52:21.000Z</time>
      </trkpt>
      <trkpt lon="0.5139559507369995" lat="49.3976173400878906">
        <ele>120.2990493774414</ele>
        <time>2016-09-21T12:52:23.000Z</time>
      </trkpt>
      <trkpt lon="0.5141783952713013" lat="49.3976554870605469">
        <ele>120.49082946777344</ele>
        <time>2016-09-21T12:52:26.000Z</time>
      </trkpt>
      <trkpt lon="0.5143516063690186" lat="49.3976745605468750">
        <ele>120.61785888671875</ele>
        <time>2016-09-21T12:52:28.000Z</time>
      </trkpt>
      <trkpt lon="0.5145978331565857" lat="49.3976936340332031">
        <ele>120.6421127319336</ele>
        <time>2016-09-21T12:52:31.000Z</time>
      </trkpt>
      <trkpt lon="0.5148476958274841" lat="49.3977203369140625">
        <ele>120.54541015625</ele>
        <time>2016-09-21T12:52:34.000Z</time>
      </trkpt>
      <trkpt lon="0.5150361657142639" lat="49.3977470397949219">
        <ele>120.38607025146484</ele>
        <time>2016-09-21T12:52:36.000Z</time>
      </trkpt>
      <trkpt lon="0.5152906775474548" lat="49.3977546691894531">
        <ele>120.221435546875</ele>
        <time>2016-09-21T12:52:39.000Z</time>
      </trkpt>
      <trkpt lon="0.5154556035995483" lat="49.3977890014648438">
        <ele>120.16304016113281</ele>
        <time>2016-09-21T12:52:41.000Z</time>
      </trkpt>
      <trkpt lon="0.5157147049903870" lat="49.3977890014648438">
        <ele>120.21905517578125</ele>
        <time>2016-09-21T12:52:44.000Z</time>
      </trkpt>
      <trkpt lon="0.5159662961959839" lat="49.3978118896484375">
        <ele>120.38492584228516</ele>
        <time>2016-09-21T12:52:47.000Z</time>
      </trkpt>
      <trkpt lon="0.5161181092262268" lat="49.3978080749511719">
        <ele>120.5923080444336</ele>
        <time>2016-09-21T12:52:49.000Z</time>
      </trkpt>
      <trkpt lon="0.5162779688835144" lat="49.3978309631347656">
        <ele>120.7842788696289</ele>
        <time>2016-09-21T12:52:51.000Z</time>
      </trkpt>
      <trkpt lon="0.5165183544158936" lat="49.3978767395019531">
        <ele>120.97456359863281</ele>
        <time>2016-09-21T12:52:54.000Z</time>
      </trkpt>
      <trkpt lon="0.5166594386100769" lat="49.3978919982910156">
        <ele>121.1468734741211</ele>
        <time>2016-09-21T12:52:56.000Z</time>
      </trkpt>
      <trkpt lon="0.5168581604957581" lat="49.3978958129882812">
        <ele>121.27278137207031</ele>
        <time>2016-09-21T12:52:59.000Z</time>
      </trkpt>
      <trkpt lon="0.5170999765396118" lat="49.3979072570800781">
        <ele>121.38037109375</ele>
        <time>2016-09-21T12:53:02.000Z</time>
      </trkpt>
      <trkpt lon="0.5173527598381042" lat="49.3979225158691406">
        <ele>121.45805358886719</ele>
        <time>2016-09-21T12:53:05.000Z</time>
      </trkpt>
      <trkpt lon="0.5175540447235107" lat="49.3979339599609375">
        <ele>121.47157287597656</ele>
        <time>2016-09-21T12:53:08.000Z</time>
      </trkpt>
      <trkpt lon="0.5177177190780640" lat="49.3979377746582031">
        <ele>121.40357971191406</ele>
        <time>2016-09-21T12:53:10.000Z</time>
      </trkpt>
      <trkpt lon="0.5179589390754700" lat="49.3979454040527344">
        <ele>121.2463150024414</ele>
        <time>2016-09-21T12:53:13.000Z</time>
      </trkpt>
      <trkpt lon="0.5181054472923279" lat="49.3979377746582031">
        <ele>121.0316390991211</ele>
        <time>2016-09-21T12:53:15.000Z</time>
      </trkpt>
      <trkpt lon="0.5183469653129578" lat="49.3979377746582031">
        <ele>120.72894287109375</ele>
        <time>2016-09-21T12:53:18.000Z</time>
      </trkpt>
      <trkpt lon="0.5185276865959167" lat="49.3979263305664062">
        <ele>120.42097473144531</ele>
        <time>2016-09-21T12:53:20.000Z</time>
      </trkpt>
      <trkpt lon="0.5187732577323914" lat="49.3979301452636719">
        <ele>120.14140319824219</ele>
        <time>2016-09-21T12:53:23.000Z</time>
      </trkpt>
      <trkpt lon="0.5188996791839600" lat="49.3979263305664062">
        <ele>119.93424987792969</ele>
        <time>2016-09-21T12:53:25.000Z</time>
      </trkpt>
      <trkpt lon="0.5191413164138794" lat="49.3979225158691406">
        <ele>119.75297546386719</ele>
        <time>2016-09-21T12:53:28.000Z</time>
      </trkpt>
      <trkpt lon="0.5193194150924683" lat="49.3979148864746094">
        <ele>119.6546859741211</ele>
        <time>2016-09-21T12:53:30.000Z</time>
      </trkpt>
      <trkpt lon="0.5195892453193665" lat="49.3979377746582031">
        <ele>119.5735855102539</ele>
        <time>2016-09-21T12:53:33.000Z</time>
      </trkpt>
      <trkpt lon="0.5198562741279602" lat="49.3979415893554688">
        <ele>119.5220718383789</ele>
        <time>2016-09-21T12:53:36.000Z</time>
      </trkpt>
      <trkpt lon="0.5199922919273376" lat="49.3979797363281250">
        <ele>119.4757308959961</ele>
        <time>2016-09-21T12:53:38.000Z</time>
      </trkpt>
      <trkpt lon="0.5202459692955017" lat="49.3979644775390625">
        <ele>119.43586730957031</ele>
        <time>2016-09-21T12:53:41.000Z</time>
      </trkpt>
      <trkpt lon="0.5205035209655762" lat="49.3979797363281250">
        <ele>119.36924743652344</ele>
        <time>2016-09-21T12:53:44.000Z</time>
      </trkpt>
      <trkpt lon="0.5207480192184448" lat="49.3979911804199219">
        <ele>119.2825698852539</ele>
        <time>2016-09-21T12:53:47.000Z</time>
      </trkpt>
      <trkpt lon="0.5209807753562927" lat="49.3980026245117188">
        <ele>119.23787689208984</ele>
        <time>2016-09-21T12:53:50.000Z</time>
      </trkpt>
      <trkpt lon="0.5212203264236450" lat="49.3980484008789062">
        <ele>119.27830505371094</ele>
        <time>2016-09-21T12:53:53.000Z</time>
      </trkpt>
      <trkpt lon="0.5214719176292419" lat="49.3981018066406250">
        <ele>119.41154479980469</ele>
        <time>2016-09-21T12:53:56.000Z</time>
      </trkpt>
      <trkpt lon="0.5216268897056580" lat="49.3981361389160156">
        <ele>119.6136245727539</ele>
        <time>2016-09-21T12:53:58.000Z</time>
      </trkpt>
      <trkpt lon="0.5217953324317932" lat="49.3981819152832031">
        <ele>119.8416976928711</ele>
        <time>2016-09-21T12:54:00.000Z</time>
      </trkpt>
      <trkpt lon="0.5219582915306091" lat="49.3982124328613281">
        <ele>120.0209732055664</ele>
        <time>2016-09-21T12:54:02.000Z</time>
      </trkpt>
      <trkpt lon="0.5222207307815552" lat="49.3982505798339844">
        <ele>120.1160888671875</ele>
        <time>2016-09-21T12:54:05.000Z</time>
      </trkpt>
      <trkpt lon="0.5223812460899353" lat="49.3982734680175781">
        <ele>120.13468170166016</ele>
        <time>2016-09-21T12:54:07.000Z</time>
      </trkpt>
      <trkpt lon="0.5226123929023743" lat="49.3983116149902344">
        <ele>120.13004302978516</ele>
        <time>2016-09-21T12:54:10.000Z</time>
      </trkpt>
      <trkpt lon="0.5228522419929504" lat="49.3983345031738281">
        <ele>120.1769790649414</ele>
        <time>2016-09-21T12:54:13.000Z</time>
      </trkpt>
      <trkpt lon="0.5231212973594666" lat="49.3983497619628906">
        <ele>120.28861236572266</ele>
        <time>2016-09-21T12:54:16.000Z</time>
      </trkpt>
      <trkpt lon="0.5232861638069153" lat="49.3983612060546875">
        <ele>120.43875885009766</ele>
        <time>2016-09-21T12:54:18.000Z</time>
      </trkpt>
      <trkpt lon="0.5235240459442139" lat="49.3983688354492188">
        <ele>120.55564880371094</ele>
        <time>2016-09-21T12:54:21.000Z</time>
      </trkpt>
      <trkpt lon="0.5236721634864807" lat="49.3983688354492188">
        <ele>120.62174224853516</ele>
        <time>2016-09-21T12:54:23.000Z</time>
      </trkpt>
      <trkpt lon="0.5239053368568420" lat="49.3983573913574219">
        <ele>120.58834075927734</ele>
        <time>2016-09-21T12:54:26.000Z</time>
      </trkpt>
      <trkpt lon="0.5240701436996460" lat="49.3983612060546875">
        <ele>120.45753479003906</ele>
        <time>2016-09-21T12:54:28.000Z</time>
      </trkpt>
      <trkpt lon="0.5242313146591187" lat="49.3983726501464844">
        <ele>120.2856674194336</ele>
        <time>2016-09-21T12:54:30.000Z</time>
      </trkpt>
      <trkpt lon="0.5244736075401306" lat="49.3983840942382812">
        <ele>120.21282958984375</ele>
        <time>2016-09-21T12:54:33.000Z</time>
      </trkpt>
      <trkpt lon="0.5246307849884033" lat="49.3983840942382812">
        <ele>120.21641540527344</ele>
        <time>2016-09-21T12:54:35.000Z</time>
      </trkpt>
      <trkpt lon="0.5248721837997437" lat="49.3983764648437500">
        <ele>120.33250427246094</ele>
        <time>2016-09-21T12:54:38.000Z</time>
      </trkpt>
      <trkpt lon="0.5251129269599915" lat="49.3983764648437500">
        <ele>120.5229721069336</ele>
        <time>2016-09-21T12:54:41.000Z</time>
      </trkpt>
      <trkpt lon="0.5252559781074524" lat="49.3983764648437500">
        <ele>120.7247543334961</ele>
        <time>2016-09-21T12:54:43.000Z</time>
      </trkpt>
      <trkpt lon="0.5254923701286316" lat="49.3983726501464844">
        <ele>120.86663818359375</ele>
        <time>2016-09-21T12:54:46.000Z</time>
      </trkpt>
      <trkpt lon="0.5256514549255371" lat="49.3983726501464844">
        <ele>120.96614837646484</ele>
        <time>2016-09-21T12:54:48.000Z</time>
      </trkpt>
      <trkpt lon="0.5258840322494507" lat="49.3983764648437500">
        <ele>121.0</ele>
        <time>2016-09-21T12:54:51.000Z</time>
      </trkpt>
      <trkpt lon="0.5266977548599243" lat="49.3983802795410156">
        <ele>121.01365661621094</ele>
        <time>2016-09-21T12:55:02.000Z</time>
      </trkpt>
      <trkpt lon="0.5269303321838379" lat="49.3983840942382812">
        <ele>121.1285400390625</ele>
        <time>2016-09-21T12:55:05.000Z</time>
      </trkpt>
      <trkpt lon="0.5271667838096619" lat="49.3983879089355469">
        <ele>121.34468078613281</ele>
        <time>2016-09-21T12:55:08.000Z</time>
      </trkpt>
      <trkpt lon="0.5273203849792480" lat="49.3983955383300781">
        <ele>121.62261962890625</ele>
        <time>2016-09-21T12:55:10.000Z</time>
      </trkpt>
      <trkpt lon="0.5275486707687378" lat="49.3983955383300781">
        <ele>121.9778060913086</ele>
        <time>2016-09-21T12:55:13.000Z</time>
      </trkpt>
      <trkpt lon="0.5277816057205200" lat="49.3984031677246094">
        <ele>122.31839752197266</ele>
        <time>2016-09-21T12:55:16.000Z</time>
      </trkpt>
      <trkpt lon="0.5279388427734375" lat="49.3984069824218750">
        <ele>122.56098937988281</ele>
        <time>2016-09-21T12:55:18.000Z</time>
      </trkpt>
      <trkpt lon="0.5281824469566345" lat="49.3984260559082031">
        <ele>122.69671630859375</ele>
        <time>2016-09-21T12:55:21.000Z</time>
      </trkpt>
      <trkpt lon="0.5283377766609192" lat="49.3984222412109375">
        <ele>122.77742767333984</ele>
        <time>2016-09-21T12:55:23.000Z</time>
      </trkpt>
      <trkpt lon="0.5285824537277222" lat="49.3984336853027344">
        <ele>122.81962585449219</ele>
        <time>2016-09-21T12:55:26.000Z</time>
      </trkpt>
      <trkpt lon="0.5288354754447937" lat="49.3984375000000000">
        <ele>122.90576171875</ele>
        <time>2016-09-21T12:55:29.000Z</time>
      </trkpt>
      <trkpt lon="0.5290054678916931" lat="49.3984451293945312">
        <ele>123.01220703125</ele>
        <time>2016-09-21T12:55:31.000Z</time>
      </trkpt>
      <trkpt lon="0.5292302370071411" lat="49.3984375000000000">
        <ele>123.16035461425781</ele>
        <time>2016-09-21T12:55:34.000Z</time>
      </trkpt>
      <trkpt lon="0.5294553041458130" lat="49.3984336853027344">
        <ele>123.30558776855469</ele>
        <time>2016-09-21T12:55:37.000Z</time>
      </trkpt>
      <trkpt lon="0.5295968055725098" lat="49.3984413146972656">
        <ele>123.4043197631836</ele>
        <time>2016-09-21T12:55:39.000Z</time>
      </trkpt>
      <trkpt lon="0.5297967791557312" lat="49.3984489440917969">
        <ele>123.45220947265625</ele>
        <time>2016-09-21T12:55:42.000Z</time>
      </trkpt>
      <trkpt lon="0.5300050973892212" lat="49.3984336853027344">
        <ele>123.4921875</ele>
        <time>2016-09-21T12:55:45.000Z</time>
      </trkpt>
      <trkpt lon="0.5301441550254822" lat="49.3984260559082031">
        <ele>123.50390625</ele>
        <time>2016-09-21T12:55:47.000Z</time>
      </trkpt>
      <trkpt lon="0.5303839445114136" lat="49.3984069824218750">
        <ele>123.53125</ele>
        <time>2016-09-21T12:55:50.000Z</time>
      </trkpt>
      <trkpt lon="0.5306331515312195" lat="49.3983955383300781">
        <ele>123.57421875</ele>
        <time>2016-09-21T12:55:53.000Z</time>
      </trkpt>
      <trkpt lon="0.5308670997619629" lat="49.3984107971191406">
        <ele>123.614013671875</ele>
        <time>2016-09-21T12:55:56.000Z</time>
      </trkpt>
      <trkpt lon="0.5310365557670593" lat="49.3984107971191406">
        <ele>123.64188385009766</ele>
        <time>2016-09-21T12:55:58.000Z</time>
      </trkpt>
      <trkpt lon="0.5312125682830811" lat="49.3984298706054688">
        <ele>123.6484603881836</ele>
        <time>2016-09-21T12:56:00.000Z</time>
      </trkpt>
      <trkpt lon="0.5314571857452393" lat="49.3984603881835938">
        <ele>123.61686706542969</ele>
        <time>2016-09-21T12:56:03.000Z</time>
      </trkpt>
      <trkpt lon="0.5317050814628601" lat="49.3985137939453125">
        <ele>123.5399398803711</ele>
        <time>2016-09-21T12:56:06.000Z</time>
      </trkpt>
      <trkpt lon="0.5319474935531616" lat="49.3985671997070312">
        <ele>123.39466857910156</ele>
        <time>2016-09-21T12:56:09.000Z</time>
      </trkpt>
      <trkpt lon="0.5321205258369446" lat="49.3986015319824219">
        <ele>123.19667053222656</ele>
        <time>2016-09-21T12:56:11.000Z</time>
      </trkpt>
      <trkpt lon="0.5323789119720459" lat="49.3986511230468750">
        <ele>122.94486236572266</ele>
        <time>2016-09-21T12:56:14.000Z</time>
      </trkpt>
      <trkpt lon="0.5326311588287354" lat="49.3987045288085938">
        <ele>122.66297912597656</ele>
        <time>2016-09-21T12:56:17.000Z</time>
      </trkpt>
      <trkpt lon="0.5328627228736877" lat="49.3987503051757812">
        <ele>122.400634765625</ele>
        <time>2016-09-21T12:56:20.000Z</time>
      </trkpt>
      <trkpt lon="0.5330487489700317" lat="49.3987884521484375">
        <ele>122.21168518066406</ele>
        <time>2016-09-21T12:56:22.000Z</time>
      </trkpt>
      <trkpt lon="0.5332755446434021" lat="49.3988456726074219">
        <ele>122.07475280761719</ele>
        <time>2016-09-21T12:56:25.000Z</time>
      </trkpt>
      <trkpt lon="0.5334787964820862" lat="49.3988800048828125">
        <ele>122.0082778930664</ele>
        <time>2016-09-21T12:56:28.000Z</time>
      </trkpt>
      <trkpt lon="0.5336384177207947" lat="49.3989105224609375">
        <ele>121.9905014038086</ele>
        <time>2016-09-21T12:56:30.000Z</time>
      </trkpt>
      <trkpt lon="0.5339145064353943" lat="49.3989410400390625">
        <ele>121.99072265625</ele>
        <time>2016-09-21T12:56:33.000Z</time>
      </trkpt>
      <trkpt lon="0.5341064929962158" lat="49.3989524841308594">
        <ele>121.9968490600586</ele>
        <time>2016-09-21T12:56:35.000Z</time>
      </trkpt>
      <trkpt lon="0.5343717336654663" lat="49.3989944458007812">
        <ele>122.0492172241211</ele>
        <time>2016-09-21T12:56:38.000Z</time>
      </trkpt>
      <trkpt lon="0.5345172286033630" lat="49.3990135192871094">
        <ele>122.13334655761719</ele>
        <time>2016-09-21T12:56:40.000Z</time>
      </trkpt>
      <trkpt lon="0.5346832871437073" lat="49.3990402221679688">
        <ele>122.25733947753906</ele>
        <time>2016-09-21T12:56:42.000Z</time>
      </trkpt>
      <trkpt lon="0.5349009633064270" lat="49.3990592956542969">
        <ele>122.43357849121094</ele>
        <time>2016-09-21T12:56:45.000Z</time>
      </trkpt>
      <trkpt lon="0.5350930094718933" lat="49.3991127014160156">
        <ele>122.65589904785156</ele>
        <time>2016-09-21T12:56:48.000Z</time>
      </trkpt>
      <trkpt lon="0.5352424383163452" lat="49.3991508483886719">
        <ele>122.8648681640625</ele>
        <time>2016-09-21T12:56:50.000Z</time>
      </trkpt>
      <trkpt lon="0.5354974865913391" lat="49.3992156982421875">
        <ele>123.08172607421875</ele>
        <time>2016-09-21T12:56:53.000Z</time>
      </trkpt>
      <trkpt lon="0.5356474518775940" lat="49.3992614746093750">
        <ele>123.2735595703125</ele>
        <time>2016-09-21T12:56:55.000Z</time>
      </trkpt>
      <trkpt lon="0.5358690023422241" lat="49.3993530273437500">
        <ele>123.4012222290039</ele>
        <time>2016-09-21T12:56:58.000Z</time>
      </trkpt>
      <trkpt lon="0.5360021591186523" lat="49.3994102478027344">
        <ele>123.43342590332031</ele>
        <time>2016-09-21T12:57:00.000Z</time>
      </trkpt>
      <trkpt lon="0.5361430644989014" lat="49.3994903564453125">
        <ele>123.3740005493164</ele>
        <time>2016-09-21T12:57:02.000Z</time>
      </trkpt>
      <trkpt lon="0.5363706350326538" lat="49.3995780944824219">
        <ele>123.21064758300781</ele>
        <time>2016-09-21T12:57:05.000Z</time>
      </trkpt>
      <trkpt lon="0.5364708900451660" lat="49.3996467590332031">
        <ele>122.99974060058594</ele>
        <time>2016-09-21T12:57:07.000Z</time>
      </trkpt>
      <trkpt lon="0.5365742444992065" lat="49.3997421264648438">
        <ele>122.76419830322266</ele>
        <time>2016-09-21T12:57:10.000Z</time>
      </trkpt>
      <trkpt lon="0.5366282463073730" lat="49.3997573852539062">
        <ele>122.57096862792969</ele>
        <time>2016-09-21T12:57:12.000Z</time>
      </trkpt>
      <trkpt lon="0.5367216467857361" lat="49.3997917175292969">
        <ele>122.45503234863281</ele>
        <time>2016-09-21T12:57:15.000Z</time>
      </trkpt>
      <trkpt lon="0.5367785096168518" lat="49.3998451232910156">
        <ele>122.4250717163086</ele>
        <time>2016-09-21T12:57:18.000Z</time>
      </trkpt>
      <trkpt lon="0.5368157029151917" lat="49.3998565673828125">
        <ele>122.44941711425781</ele>
        <time>2016-09-21T12:57:20.000Z</time>
      </trkpt>
      <trkpt lon="0.5368616580963135" lat="49.3998832702636719">
        <ele>122.53653717041016</ele>
        <time>2016-09-21T12:57:22.000Z</time>
      </trkpt>
      <trkpt lon="0.5369269251823425" lat="49.4000320434570312">
        <ele>122.6733627319336</ele>
        <time>2016-09-21T12:57:25.000Z</time>
      </trkpt>
      <trkpt lon="0.5369629263877869" lat="49.4001426696777344">
        <ele>122.84791564941406</ele>
        <time>2016-09-21T12:57:28.000Z</time>
      </trkpt>
      <trkpt lon="0.5369978547096252" lat="49.4002647399902344">
        <ele>123.05519104003906</ele>
        <time>2016-09-21T12:57:30.000Z</time>
      </trkpt>
      <trkpt lon="0.5370374321937561" lat="49.4003677368164062">
        <ele>123.29044342041016</ele>
        <time>2016-09-21T12:57:32.000Z</time>
      </trkpt>
      <trkpt lon="0.5370472073554993" lat="49.4004440307617188">
        <ele>123.5246353149414</ele>
        <time>2016-09-21T12:57:34.000Z</time>
      </trkpt>
      <trkpt lon="0.5370814204216003" lat="49.4006271362304688">
        <ele>123.77620697021484</ele>
        <time>2016-09-21T12:57:37.000Z</time>
      </trkpt>
      <trkpt lon="0.5371370911598206" lat="49.4008026123046875">
        <ele>124.02510070800781</ele>
        <time>2016-09-21T12:57:40.000Z</time>
      </trkpt>
      <trkpt lon="0.5371676087379456" lat="49.4009742736816406">
        <ele>124.23692321777344</ele>
        <time>2016-09-21T12:57:43.000Z</time>
      </trkpt>
      <trkpt lon="0.5371541976928711" lat="49.4010963439941406">
        <ele>124.40478515625</ele>
        <time>2016-09-21T12:57:45.000Z</time>
      </trkpt>
      <trkpt lon="0.5370936393737793" lat="49.4012718200683594">
        <ele>124.5665054321289</ele>
        <time>2016-09-21T12:57:48.000Z</time>
      </trkpt>
      <trkpt lon="0.5370776653289795" lat="49.4013862609863281">
        <ele>124.6846694946289</ele>
        <time>2016-09-21T12:57:50.000Z</time>
      </trkpt>
      <trkpt lon="0.5370333790779114" lat="49.4015312194824219">
        <ele>124.78006744384766</ele>
        <time>2016-09-21T12:57:53.000Z</time>
      </trkpt>
      <trkpt lon="0.5369592905044556" lat="49.4016914367675781">
        <ele>124.90690612792969</ele>
        <time>2016-09-21T12:57:56.000Z</time>
      </trkpt>
      <trkpt lon="0.5369037985801697" lat="49.4018669128417969">
        <ele>125.00541687011719</ele>
        <time>2016-09-21T12:57:59.000Z</time>
      </trkpt>
      <trkpt lon="0.5368598103523254" lat="49.4019927978515625">
        <ele>125.05887603759766</ele>
        <time>2016-09-21T12:58:01.000Z</time>
      </trkpt>
      <trkpt lon="0.5367915034294128" lat="49.4021530151367188">
        <ele>125.05029296875</ele>
        <time>2016-09-21T12:58:04.000Z</time>
      </trkpt>
      <trkpt lon="0.5367700457572937" lat="49.4023246765136719">
        <ele>124.94242858886719</ele>
        <time>2016-09-21T12:58:07.000Z</time>
      </trkpt>
      <trkpt lon="0.5367621779441833" lat="49.4024963378906250">
        <ele>124.71236419677734</ele>
        <time>2016-09-21T12:58:10.000Z</time>
      </trkpt>
      <trkpt lon="0.5367717742919922" lat="49.4026107788085938">
        <ele>124.47978210449219</ele>
        <time>2016-09-21T12:58:12.000Z</time>
      </trkpt>
      <trkpt lon="0.5368027091026306" lat="49.4027404785156250">
        <ele>124.24937438964844</ele>
        <time>2016-09-21T12:58:14.000Z</time>
      </trkpt>
      <trkpt lon="0.5368674993515015" lat="49.4029083251953125">
        <ele>124.0400619506836</ele>
        <time>2016-09-21T12:58:17.000Z</time>
      </trkpt>
      <trkpt lon="0.5369293689727783" lat="49.4030799865722656">
        <ele>123.87005615234375</ele>
        <time>2016-09-21T12:58:20.000Z</time>
      </trkpt>
      <trkpt lon="0.5369656682014465" lat="49.4032783508300781">
        <ele>123.73114013671875</ele>
        <time>2016-09-21T12:58:23.000Z</time>
      </trkpt>
      <trkpt lon="0.5370900034904480" lat="49.4034957885742188">
        <ele>123.82817077636719</ele>
        <time>2016-09-21T12:58:26.000Z</time>
      </trkpt>
      <trkpt lon="0.5371453762054443" lat="49.4036216735839844">
        <ele>124.10401916503906</ele>
        <time>2016-09-21T12:58:28.000Z</time>
      </trkpt>
      <trkpt lon="0.5372308492660522" lat="49.4037818908691406">
        <ele>124.5876235961914</ele>
        <time>2016-09-21T12:58:31.000Z</time>
      </trkpt>
      <trkpt lon="0.5373579263687134" lat="49.4039764404296875">
        <ele>125.29869079589844</ele>
        <time>2016-09-21T12:58:34.000Z</time>
      </trkpt>
      <trkpt lon="0.5374749302864075" lat="49.4041404724121094">
        <ele>126.1962661743164</ele>
        <time>2016-09-21T12:58:37.000Z</time>
      </trkpt>
      <trkpt lon="0.5375789999961853" lat="49.4042396545410156">
        <ele>126.7918701171875</ele>
        <time>2016-09-21T12:58:39.000Z</time>
      </trkpt>
      <trkpt lon="0.5376766324043274" lat="49.4043388366699219">
        <ele>127.10600280761719</ele>
        <time>2016-09-21T12:58:41.000Z</time>
      </trkpt>
      <trkpt lon="0.5377942919731140" lat="49.4044456481933594">
        <ele>127.09947204589844</ele>
        <time>2016-09-21T12:58:43.000Z</time>
      </trkpt>
      <trkpt lon="0.5379604101181030" lat="49.4046211242675781">
        <ele>126.72359466552734</ele>
        <time>2016-09-21T12:58:46.000Z</time>
      </trkpt>
      <trkpt lon="0.5381004810333252" lat="49.4047813415527344">
        <ele>126.08583068847656</ele>
        <time>2016-09-21T12:58:49.000Z</time>
      </trkpt>
      <trkpt lon="0.5382120013237000" lat="49.4048995971679688">
        <ele>125.465087890625</ele>
        <time>2016-09-21T12:58:51.000Z</time>
      </trkpt>
      <trkpt lon="0.5383224487304688" lat="49.4050331115722656">
        <ele>124.94001770019531</ele>
        <time>2016-09-21T12:58:53.000Z</time>
      </trkpt>
      <trkpt lon="0.5384464263916016" lat="49.4052047729492188">
        <ele>124.64811706542969</ele>
        <time>2016-09-21T12:58:56.000Z</time>
      </trkpt>
      <trkpt lon="0.5384629964828491" lat="49.4052886962890625">
        <ele>124.59420013427734</ele>
        <time>2016-09-21T12:58:58.000Z</time>
      </trkpt>
      <trkpt lon="0.5386435389518738" lat="49.4055900573730469">
        <ele>124.81526184082031</ele>
        <time>2016-09-21T12:59:02.000Z</time>
      </trkpt>
      <trkpt lon="0.5388363599777222" lat="49.4058303833007812">
        <ele>125.180908203125</ele>
        <time>2016-09-21T12:59:05.000Z</time>
      </trkpt>
      <trkpt lon="0.5388607382774353" lat="49.4060745239257812">
        <ele>125.31803131103516</ele>
        <time>2016-09-21T12:59:08.000Z</time>
      </trkpt>
      <trkpt lon="0.5389084219932556" lat="49.4062500000000000">
        <ele>125.1828842163086</ele>
        <time>2016-09-21T12:59:10.000Z</time>
      </trkpt>
      <trkpt lon="0.5389124751091003" lat="49.4064865112304688">
        <ele>124.76087951660156</ele>
        <time>2016-09-21T12:59:13.000Z</time>
      </trkpt>
      <trkpt lon="0.5389197468757629" lat="49.4066963195800781">
        <ele>124.0123519897461</ele>
        <time>2016-09-21T12:59:16.000Z</time>
      </trkpt>
      <trkpt lon="0.5388969182968140" lat="49.4068946838378906">
        <ele>123.1456069946289</ele>
        <time>2016-09-21T12:59:19.000Z</time>
      </trkpt>
      <trkpt lon="0.5388859510421753" lat="49.4070472717285156">
        <ele>122.50639343261719</ele>
        <time>2016-09-21T12:59:21.000Z</time>
      </trkpt>
      <trkpt lon="0.5388345122337341" lat="49.4071846008300781">
        <ele>121.99229431152344</ele>
        <time>2016-09-21T12:59:23.000Z</time>
      </trkpt>
      <trkpt lon="0.5387732982635498" lat="49.4074058532714844">
        <ele>121.63238525390625</ele>
        <time>2016-09-21T12:59:26.000Z</time>
      </trkpt>
      <trkpt lon="0.5387609004974365" lat="49.4076080322265625">
        <ele>121.48432922363281</ele>
        <time>2016-09-21T12:59:29.000Z</time>
      </trkpt>
      <trkpt lon="0.5387532711029053" lat="49.4078063964843750">
        <ele>121.49800109863281</ele>
        <time>2016-09-21T12:59:32.000Z</time>
      </trkpt>
      <trkpt lon="0.5388026237487793" lat="49.4079627990722656">
        <ele>121.62874603271484</ele>
        <time>2016-09-21T12:59:34.000Z</time>
      </trkpt>
      <trkpt lon="0.5388723611831665" lat="49.4081611633300781">
        <ele>121.88232421875</ele>
        <time>2016-09-21T12:59:37.000Z</time>
      </trkpt>
      <trkpt lon="0.5389745831489563" lat="49.4083671569824219">
        <ele>122.19389343261719</ele>
        <time>2016-09-21T12:59:40.000Z</time>
      </trkpt>
      <trkpt lon="0.5391048789024353" lat="49.4085731506347656">
        <ele>122.36087799072266</ele>
        <time>2016-09-21T12:59:43.000Z</time>
      </trkpt>
      <trkpt lon="0.5391500592231750" lat="49.4087181091308594">
        <ele>122.38639068603516</ele>
        <time>2016-09-21T12:59:45.000Z</time>
      </trkpt>
      <trkpt lon="0.5392007231712341" lat="49.4088821411132812">
        <ele>122.3265609741211</ele>
        <time>2016-09-21T12:59:47.000Z</time>
      </trkpt>
      <trkpt lon="0.5392284393310547" lat="49.4091110229492188">
        <ele>122.201904296875</ele>
        <time>2016-09-21T12:59:50.000Z</time>
      </trkpt>
      <trkpt lon="0.5391845107078552" lat="49.4093284606933594">
        <ele>122.1491470336914</ele>
        <time>2016-09-21T12:59:53.000Z</time>
      </trkpt>
      <trkpt lon="0.5391820073127747" lat="49.4094810485839844">
        <ele>122.26629638671875</ele>
        <time>2016-09-21T12:59:55.000Z</time>
      </trkpt>
      <trkpt lon="0.5391731262207031" lat="49.4096717834472656">
        <ele>122.501220703125</ele>
        <time>2016-09-21T12:59:58.000Z</time>
      </trkpt>
      <trkpt lon="0.5391482114791870" lat="49.4098739624023438">
        <ele>122.83394622802734</ele>
        <time>2016-09-21T13:00:01.000Z</time>
      </trkpt>
      <trkpt lon="0.5391433835029602" lat="49.4100646972656250">
        <ele>123.20220947265625</ele>
        <time>2016-09-21T13:00:04.000Z</time>
      </trkpt>
      <trkpt lon="0.5391427278518677" lat="49.4101600646972656">
        <ele>123.47956848144531</ele>
        <time>2016-09-21T13:00:06.000Z</time>
      </trkpt>
      <trkpt lon="0.5391463041305542" lat="49.4103546142578125">
        <ele>123.636962890625</ele>
        <time>2016-09-21T13:00:09.000Z</time>
      </trkpt>
      <trkpt lon="0.5391291975975037" lat="49.4104537963867188">
        <ele>123.6751937866211</ele>
        <time>2016-09-21T13:00:11.000Z</time>
      </trkpt>
      <trkpt lon="0.5391366481781006" lat="49.4106292724609375">
        <ele>123.5726547241211</ele>
        <time>2016-09-21T13:00:14.000Z</time>
      </trkpt>
      <trkpt lon="0.5392447710037231" lat="49.4108619689941406">
        <ele>123.38314056396484</ele>
        <time>2016-09-21T13:00:17.000Z</time>
      </trkpt>
      <trkpt lon="0.5393081903457642" lat="49.4110641479492188">
        <ele>123.04608154296875</ele>
        <time>2016-09-21T13:00:20.000Z</time>
      </trkpt>
      <trkpt lon="0.5393681526184082" lat="49.4112358093261719">
        <ele>122.6220932006836</ele>
        <time>2016-09-21T13:00:23.000Z</time>
      </trkpt>
      <trkpt lon="0.5393664240837097" lat="49.4113578796386719">
        <ele>122.1163558959961</ele>
        <time>2016-09-21T13:00:25.000Z</time>
      </trkpt>
      <trkpt lon="0.5395482778549194" lat="49.4115257263183594">
        <ele>121.5794906616211</ele>
        <time>2016-09-21T13:00:28.000Z</time>
      </trkpt>
      <trkpt lon="0.5396243929862976" lat="49.4116249084472656">
        <ele>121.04000091552734</ele>
        <time>2016-09-21T13:00:30.000Z</time>
      </trkpt>
      <trkpt lon="0.5397152900695801" lat="49.4118041992187500">
        <ele>120.68111419677734</ele>
        <time>2016-09-21T13:00:33.000Z</time>
      </trkpt>
      <trkpt lon="0.5397571921348572" lat="49.4118919372558594">
        <ele>120.47808837890625</ele>
        <time>2016-09-21T13:00:35.000Z</time>
      </trkpt>
      <trkpt lon="0.5398432612419128" lat="49.4120674133300781">
        <ele>120.4271469116211</ele>
        <time>2016-09-21T13:00:38.000Z</time>
      </trkpt>
      <trkpt lon="0.5399481058120728" lat="49.4122276306152344">
        <ele>120.50074768066406</ele>
        <time>2016-09-21T13:00:41.000Z</time>
      </trkpt>
      <trkpt lon="0.5400348901748657" lat="49.4123992919921875">
        <ele>120.6613540649414</ele>
        <time>2016-09-21T13:00:44.000Z</time>
      </trkpt>
      <trkpt lon="0.5401437282562256" lat="49.4125938415527344">
        <ele>120.8367691040039</ele>
        <time>2016-09-21T13:00:47.000Z</time>
      </trkpt>
      <trkpt lon="0.5402265787124634" lat="49.4127731323242188">
        <ele>120.96104431152344</ele>
        <time>2016-09-21T13:00:50.000Z</time>
      </trkpt>
      <trkpt lon="0.5403057932853699" lat="49.4129447937011719">
        <ele>120.99849700927734</ele>
        <time>2016-09-21T13:00:53.000Z</time>
      </trkpt>
      <trkpt lon="0.5403667688369751" lat="49.4131126403808594">
        <ele>120.92219543457031</ele>
        <time>2016-09-21T13:00:56.000Z</time>
      </trkpt>
      <trkpt lon="0.5404391288757324" lat="49.4132957458496094">
        <ele>120.72515869140625</ele>
        <time>2016-09-21T13:00:59.000Z</time>
      </trkpt>
      <trkpt lon="0.5404948592185974" lat="49.4134292602539062">
        <ele>120.52745056152344</ele>
        <time>2016-09-21T13:01:01.000Z</time>
      </trkpt>
      <trkpt lon="0.5405662655830383" lat="49.4136390686035156">
        <ele>120.4402084350586</ele>
        <time>2016-09-21T13:01:04.000Z</time>
      </trkpt>
      <trkpt lon="0.5406435132026672" lat="49.4138526916503906">
        <ele>120.45881652832031</ele>
        <time>2016-09-21T13:01:07.000Z</time>
      </trkpt>
      <trkpt lon="0.5407232046127319" lat="49.4140586853027344">
        <ele>120.58003997802734</ele>
        <time>2016-09-21T13:01:10.000Z</time>
      </trkpt>
      <trkpt lon="0.5407824516296387" lat="49.4141883850097656">
        <ele>120.80599212646484</ele>
        <time>2016-09-21T13:01:12.000Z</time>
      </trkpt>
      <trkpt lon="0.5408527851104736" lat="49.4143371582031250">
        <ele>121.1212158203125</ele>
        <time>2016-09-21T13:01:14.000Z</time>
      </trkpt>
      <trkpt lon="0.5409975647926331" lat="49.4145355224609375">
        <ele>121.4749984741211</ele>
        <time>2016-09-21T13:01:17.000Z</time>
      </trkpt>
      <trkpt lon="0.5411168336868286" lat="49.4146537780761719">
        <ele>121.82450103759766</ele>
        <time>2016-09-21T13:01:19.000Z</time>
      </trkpt>
      <trkpt lon="0.5412711501121521" lat="49.4147491455078125">
        <ele>122.15449523925781</ele>
        <time>2016-09-21T13:01:21.000Z</time>
      </trkpt>
      <trkpt lon="0.5414646863937378" lat="49.4148788452148438">
        <ele>122.4930191040039</ele>
        <time>2016-09-21T13:01:24.000Z</time>
      </trkpt>
      <trkpt lon="0.5416883826255798" lat="49.4150314331054688">
        <ele>122.7407455444336</ele>
        <time>2016-09-21T13:01:27.000Z</time>
      </trkpt>
      <trkpt lon="0.5418239831924438" lat="49.4151458740234375">
        <ele>122.84736633300781</ele>
        <time>2016-09-21T13:01:29.000Z</time>
      </trkpt>
      <trkpt lon="0.5419731140136719" lat="49.4152488708496094">
        <ele>122.84602355957031</ele>
        <time>2016-09-21T13:01:31.000Z</time>
      </trkpt>
      <trkpt lon="0.5421915650367737" lat="49.4153785705566406">
        <ele>122.71099853515625</ele>
        <time>2016-09-21T13:01:34.000Z</time>
      </trkpt>
      <trkpt lon="0.5423392057418823" lat="49.4154815673828125">
        <ele>122.45076751708984</ele>
        <time>2016-09-21T13:01:36.000Z</time>
      </trkpt>
      <trkpt lon="0.5425306558609009" lat="49.4156417846679688">
        <ele>122.04109191894531</ele>
        <time>2016-09-21T13:01:39.000Z</time>
      </trkpt>
      <trkpt lon="0.5426451563835144" lat="49.4157218933105469">
        <ele>121.6299819946289</ele>
        <time>2016-09-21T13:01:41.000Z</time>
      </trkpt>
      <trkpt lon="0.5428585410118103" lat="49.4158706665039062">
        <ele>121.2100601196289</ele>
        <time>2016-09-21T13:01:44.000Z</time>
      </trkpt>
      <trkpt lon="0.5429843068122864" lat="49.4160041809082031">
        <ele>120.86173248291016</ele>
        <time>2016-09-21T13:01:46.000Z</time>
      </trkpt>
      <trkpt lon="0.5431952476501465" lat="49.4161949157714844">
        <ele>120.5586166381836</ele>
        <time>2016-09-21T13:01:49.000Z</time>
      </trkpt>
      <trkpt lon="0.5432818531990051" lat="49.4163017272949219">
        <ele>120.36971282958984</ele>
        <time>2016-09-21T13:01:51.000Z</time>
      </trkpt>
      <trkpt lon="0.5433938503265381" lat="49.4164085388183594">
        <ele>120.20438385009766</ele>
        <time>2016-09-21T13:01:53.000Z</time>
      </trkpt>
      <trkpt lon="0.5434393286705017" lat="49.4165687561035156">
        <ele>120.09831237792969</ele>
        <time>2016-09-21T13:01:56.000Z</time>
      </trkpt>
      <trkpt lon="0.5434776544570923" lat="49.4166946411132812">
        <ele>120.03165435791016</ele>
        <time>2016-09-21T13:01:58.000Z</time>
      </trkpt>
      <trkpt lon="0.5434995889663696" lat="49.4168319702148438">
        <ele>120.01287841796875</ele>
        <time>2016-09-21T13:02:00.000Z</time>
      </trkpt>
      <trkpt lon="0.5435096025466919" lat="49.4170455932617188">
        <ele>120.0074462890625</ele>
        <time>2016-09-21T13:02:03.000Z</time>
      </trkpt>
      <trkpt lon="0.5435146093368530" lat="49.4171867370605469">
        <ele>120.00297546386719</ele>
        <time>2016-09-21T13:02:05.000Z</time>
      </trkpt>
      <trkpt lon="0.5436099171638489" lat="49.4173774719238281">
        <ele>120.0</ele>
        <time>2016-09-21T13:02:08.000Z</time>
      </trkpt>
      <trkpt lon="0.5437346696853638" lat="49.4174804687500000">
        <ele>120.0</ele>
        <time>2016-09-21T13:02:10.000Z</time>
      </trkpt>
      <trkpt lon="0.5442722439765930" lat="49.4176940917968750">
        <ele>120.01949310302734</ele>
        <time>2016-09-21T13:02:18.000Z</time>
      </trkpt>
      <trkpt lon="0.5443952083587646" lat="49.4176368713378906">
        <ele>120.0654525756836</ele>
        <time>2016-09-21T13:02:20.000Z</time>
      </trkpt>
      <trkpt lon="0.5446118712425232" lat="49.4175453186035156">
        <ele>120.16645812988281</ele>
        <time>2016-09-21T13:02:23.000Z</time>
      </trkpt>
      <trkpt lon="0.5447570085525513" lat="49.4174995422363281">
        <ele>120.30799865722656</ele>
        <time>2016-09-21T13:02:25.000Z</time>
      </trkpt>
      <trkpt lon="0.5449277162551880" lat="49.4174575805664062">
        <ele>120.48101806640625</ele>
        <time>2016-09-21T13:02:27.000Z</time>
      </trkpt>
      <trkpt lon="0.5451853871345520" lat="49.4173889160156250">
        <ele>120.67985534667969</ele>
        <time>2016-09-21T13:02:30.000Z</time>
      </trkpt>
      <trkpt lon="0.5454484224319458" lat="49.4173278808593750">
        <ele>120.89973449707031</ele>
        <time>2016-09-21T13:02:33.000Z</time>
      </trkpt>
      <trkpt lon="0.5455980896949768" lat="49.4173126220703125">
        <ele>121.0975341796875</ele>
        <time>2016-09-21T13:02:35.000Z</time>
      </trkpt>
      <trkpt lon="0.5458503365516663" lat="49.4172897338867188">
        <ele>121.30643463134766</ele>
        <time>2016-09-21T13:02:38.000Z</time>
      </trkpt>
      <trkpt lon="0.5460272431373596" lat="49.4172821044921875">
        <ele>121.49310302734375</ele>
        <time>2016-09-21T13:02:40.000Z</time>
      </trkpt>
      <trkpt lon="0.5461829304695129" lat="49.4172668457031250">
        <ele>121.642578125</ele>
        <time>2016-09-21T13:02:42.000Z</time>
      </trkpt>
      <trkpt lon="0.5464198589324951" lat="49.4172744750976562">
        <ele>121.76060485839844</ele>
        <time>2016-09-21T13:02:45.000Z</time>
      </trkpt>
      <trkpt lon="0.5466415882110596" lat="49.4172859191894531">
        <ele>121.86024475097656</ele>
        <time>2016-09-21T13:02:48.000Z</time>
      </trkpt>
      <trkpt lon="0.5467668771743774" lat="49.4172859191894531">
        <ele>121.91600036621094</ele>
        <time>2016-09-21T13:02:50.000Z</time>
      </trkpt>
      <trkpt lon="0.5469816327095032" lat="49.4173011779785156">
        <ele>121.97431945800781</ele>
        <time>2016-09-21T13:02:53.000Z</time>
      </trkpt>
      <trkpt lon="0.5472181439399719" lat="49.4172935485839844">
        <ele>122.03934478759766</ele>
        <time>2016-09-21T13:02:56.000Z</time>
      </trkpt>
      <trkpt lon="0.5473724007606506" lat="49.4172935485839844">
        <ele>122.09749603271484</ele>
        <time>2016-09-21T13:02:58.000Z</time>
      </trkpt>
      <trkpt lon="0.5475630164146423" lat="49.4172859191894531">
        <ele>122.1432876586914</ele>
        <time>2016-09-21T13:03:01.000Z</time>
      </trkpt>
      <trkpt lon="0.5477431416511536" lat="49.4172782897949219">
        <ele>122.1634750366211</ele>
        <time>2016-09-21T13:03:04.000Z</time>
      </trkpt>
      <trkpt lon="0.5479022264480591" lat="49.4172973632812500">
        <ele>122.1445083618164</ele>
        <time>2016-09-21T13:03:06.000Z</time>
      </trkpt>
      <trkpt lon="0.5480765700340271" lat="49.4172630310058594">
        <ele>122.10786437988281</ele>
        <time>2016-09-21T13:03:08.000Z</time>
      </trkpt>
      <trkpt lon="0.5483031868934631" lat="49.4172821044921875">
        <ele>122.02690124511719</ele>
        <time>2016-09-21T13:03:11.000Z</time>
      </trkpt>
      <trkpt lon="0.5485352277755737" lat="49.4173011779785156">
        <ele>122.0363540649414</ele>
        <time>2016-09-21T13:03:14.000Z</time>
      </trkpt>
      <trkpt lon="0.5486962199211121" lat="49.4173164367675781">
        <ele>122.14532470703125</ele>
        <time>2016-09-21T13:03:16.000Z</time>
      </trkpt>
      <trkpt lon="0.5489237308502197" lat="49.4173164367675781">
        <ele>122.4096450805664</ele>
        <time>2016-09-21T13:03:19.000Z</time>
      </trkpt>
      <trkpt lon="0.5491717457771301" lat="49.4173088073730469">
        <ele>122.81468200683594</ele>
        <time>2016-09-21T13:03:22.000Z</time>
      </trkpt>
      <trkpt lon="0.5494205355644226" lat="49.4173202514648438">
        <ele>123.3145751953125</ele>
        <time>2016-09-21T13:03:25.000Z</time>
      </trkpt>
      <trkpt lon="0.5496602058410645" lat="49.4173088073730469">
        <ele>123.7793197631836</ele>
        <time>2016-09-21T13:03:28.000Z</time>
      </trkpt>
      <trkpt lon="0.5498293042182922" lat="49.4173049926757812">
        <ele>124.2030029296875</ele>
        <time>2016-09-21T13:03:30.000Z</time>
      </trkpt>
      <trkpt lon="0.5499991774559021" lat="49.4173088073730469">
        <ele>124.5394515991211</ele>
        <time>2016-09-21T13:03:32.000Z</time>
      </trkpt>
      <trkpt lon="0.5502476096153259" lat="49.4172897338867188">
        <ele>124.67878723144531</ele>
        <time>2016-09-21T13:03:35.000Z</time>
      </trkpt>
      <trkpt lon="0.5504184365272522" lat="49.4172782897949219">
        <ele>124.71744537353516</ele>
        <time>2016-09-21T13:03:37.000Z</time>
      </trkpt>
      <trkpt lon="0.5506467819213867" lat="49.4172515869140625">
        <ele>124.64376068115234</ele>
        <time>2016-09-21T13:03:40.000Z</time>
      </trkpt>
      <trkpt lon="0.5507925152778625" lat="49.4172515869140625">
        <ele>124.4945297241211</ele>
        <time>2016-09-21T13:03:42.000Z</time>
      </trkpt>
      <trkpt lon="0.5510683655738831" lat="49.4172058105468750">
        <ele>124.31478118896484</ele>
        <time>2016-09-21T13:03:45.000Z</time>
      </trkpt>
      <trkpt lon="0.5512323379516602" lat="49.4172096252441406">
        <ele>124.20777893066406</ele>
        <time>2016-09-21T13:03:47.000Z</time>
      </trkpt>
      <trkpt lon="0.5514091253280640" lat="49.4171676635742188">
        <ele>124.16339111328125</ele>
        <time>2016-09-21T13:03:49.000Z</time>
      </trkpt>
      <trkpt lon="0.5515756607055664" lat="49.4171447753906250">
        <ele>124.19413757324219</ele>
        <time>2016-09-21T13:03:51.000Z</time>
      </trkpt>
      <trkpt lon="0.5518156290054321" lat="49.4171028137207031">
        <ele>124.27984619140625</ele>
        <time>2016-09-21T13:03:54.000Z</time>
      </trkpt>
      <trkpt lon="0.5520679950714111" lat="49.4170608520507812">
        <ele>124.36506652832031</ele>
        <time>2016-09-21T13:03:57.000Z</time>
      </trkpt>
      <trkpt lon="0.5522242784500122" lat="49.4170303344726562">
        <ele>124.444580078125</ele>
        <time>2016-09-21T13:03:59.000Z</time>
      </trkpt>
      <trkpt lon="0.5524725914001465" lat="49.4169998168945312">
        <ele>124.5093002319336</ele>
        <time>2016-09-21T13:04:02.000Z</time>
      </trkpt>
      <trkpt lon="0.5527252554893494" lat="49.4169387817382812">
        <ele>124.568359375</ele>
        <time>2016-09-21T13:04:05.000Z</time>
      </trkpt>
      <trkpt lon="0.5528417229652405" lat="49.4169082641601562">
        <ele>124.615234375</ele>
        <time>2016-09-21T13:04:07.000Z</time>
      </trkpt>
      <trkpt lon="0.5531225204467773" lat="49.4168395996093750">
        <ele>124.6689453125</ele>
        <time>2016-09-21T13:04:10.000Z</time>
      </trkpt>
      <trkpt lon="0.5532831549644470" lat="49.4167938232421875">
        <ele>124.7255859375</ele>
        <time>2016-09-21T13:04:12.000Z</time>
      </trkpt>
      <trkpt lon="0.5535013079643250" lat="49.4167518615722656">
        <ele>124.8296127319336</ele>
        <time>2016-09-21T13:04:15.000Z</time>
      </trkpt>
      <trkpt lon="0.5537342429161072" lat="49.4166984558105469">
        <ele>124.9872055053711</ele>
        <time>2016-09-21T13:04:18.000Z</time>
      </trkpt>
      <trkpt lon="0.5539730787277222" lat="49.4166412353515625">
        <ele>125.1925048828125</ele>
        <time>2016-09-21T13:04:21.000Z</time>
      </trkpt>
      <trkpt lon="0.5541957020759583" lat="49.4165840148925781">
        <ele>125.42726135253906</ele>
        <time>2016-09-21T13:04:24.000Z</time>
      </trkpt>
      <trkpt lon="0.5544171929359436" lat="49.4165306091308594">
        <ele>125.73585510253906</ele>
        <time>2016-09-21T13:04:27.000Z</time>
      </trkpt>
      <trkpt lon="0.5545670986175537" lat="49.4165000915527344">
        <ele>126.0448226928711</ele>
        <time>2016-09-21T13:04:29.000Z</time>
      </trkpt>
      <trkpt lon="0.5547270178794861" lat="49.4164657592773438">
        <ele>126.34161376953125</ele>
        <time>2016-09-21T13:04:31.000Z</time>
      </trkpt>
      <trkpt lon="0.5549573302268982" lat="49.4164085388183594">
        <ele>126.65354919433594</ele>
        <time>2016-09-21T13:04:34.000Z</time>
      </trkpt>
      <trkpt lon="0.5551655292510986" lat="49.4163589477539062">
        <ele>126.95111083984375</ele>
        <time>2016-09-21T13:04:37.000Z</time>
      </trkpt>
      <trkpt lon="0.5553812384605408" lat="49.4163322448730469">
        <ele>127.20413970947266</ele>
        <time>2016-09-21T13:04:40.000Z</time>
      </trkpt>
      <trkpt lon="0.5555154681205750" lat="49.4163246154785156">
        <ele>127.43087005615234</ele>
        <time>2016-09-21T13:04:42.000Z</time>
      </trkpt>
      <trkpt lon="0.5556886792182922" lat="49.4163208007812500">
        <ele>127.64118957519531</ele>
        <time>2016-09-21T13:04:44.000Z</time>
      </trkpt>
      <trkpt lon="0.5559157133102417" lat="49.4162864685058594">
        <ele>127.80888366699219</ele>
        <time>2016-09-21T13:04:47.000Z</time>
      </trkpt>
      <trkpt lon="0.5560578703880310" lat="49.4162559509277344">
        <ele>127.94691467285156</ele>
        <time>2016-09-21T13:04:49.000Z</time>
      </trkpt>
      <trkpt lon="0.5561602115631104" lat="49.4162521362304688">
        <ele>128.055419921875</ele>
        <time>2016-09-21T13:04:51.000Z</time>
      </trkpt>
      <trkpt lon="0.5563564300537109" lat="49.4162063598632812">
        <ele>128.1443328857422</ele>
        <time>2016-09-21T13:04:54.000Z</time>
      </trkpt>
      <trkpt lon="0.5565404891967773" lat="49.4161796569824219">
        <ele>128.2101287841797</ele>
        <time>2016-09-21T13:04:57.000Z</time>
      </trkpt>
      <trkpt lon="0.5567228794097900" lat="49.4161300659179688">
        <ele>128.2673797607422</ele>
        <time>2016-09-21T13:05:00.000Z</time>
      </trkpt>
      <trkpt lon="0.5570181012153625" lat="49.4160537719726562">
        <ele>128.37496948242188</ele>
        <time>2016-09-21T13:05:03.000Z</time>
      </trkpt>
      <trkpt lon="0.5571606755256653" lat="49.4160118103027344">
        <ele>128.49644470214844</ele>
        <time>2016-09-21T13:05:05.000Z</time>
      </trkpt>
      <trkpt lon="0.5573840737342834" lat="49.4159584045410156">
        <ele>128.65011596679688</ele>
        <time>2016-09-21T13:05:08.000Z</time>
      </trkpt>
      <trkpt lon="0.5575190782546997" lat="49.4159393310546875">
        <ele>128.8045196533203</ele>
        <time>2016-09-21T13:05:10.000Z</time>
      </trkpt>
      <trkpt lon="0.5578187704086304" lat="49.4158630371093750">
        <ele>128.844970703125</ele>
        <time>2016-09-21T13:05:13.000Z</time>
      </trkpt>
      <trkpt lon="0.5579784512519836" lat="49.4158248901367188">
        <ele>128.7883758544922</ele>
        <time>2016-09-21T13:05:15.000Z</time>
      </trkpt>
      <trkpt lon="0.5581403970718384" lat="49.4157791137695312">
        <ele>128.65150451660156</ele>
        <time>2016-09-21T13:05:17.000Z</time>
      </trkpt>
      <trkpt lon="0.5583369135856628" lat="49.4157257080078125">
        <ele>128.42367553710938</ele>
        <time>2016-09-21T13:05:20.000Z</time>
      </trkpt>
      <trkpt lon="0.5584836006164551" lat="49.4156990051269531">
        <ele>128.17178344726562</ele>
        <time>2016-09-21T13:05:22.000Z</time>
      </trkpt>
      <trkpt lon="0.5587114095687866" lat="49.4156417846679688">
        <ele>128.00064086914062</ele>
        <time>2016-09-21T13:05:25.000Z</time>
      </trkpt>
      <trkpt lon="0.5589722990989685" lat="49.4155769348144531">
        <ele>127.858642578125</ele>
        <time>2016-09-21T13:05:28.000Z</time>
      </trkpt>
      <trkpt lon="0.5592207312583923" lat="49.4155235290527344">
        <ele>127.7516098022461</ele>
        <time>2016-09-21T13:05:31.000Z</time>
      </trkpt>
      <trkpt lon="0.5593850612640381" lat="49.4154853820800781">
        <ele>127.66339111328125</ele>
        <time>2016-09-21T13:05:33.000Z</time>
      </trkpt>
      <trkpt lon="0.5596160292625427" lat="49.4154357910156250">
        <ele>127.54422760009766</ele>
        <time>2016-09-21T13:05:36.000Z</time>
      </trkpt>
      <trkpt lon="0.5597677826881409" lat="49.4154014587402344">
        <ele>127.41715240478516</ele>
        <time>2016-09-21T13:05:38.000Z</time>
      </trkpt>
      <trkpt lon="0.5599833130836487" lat="49.4153327941894531">
        <ele>127.28047180175781</ele>
        <time>2016-09-21T13:05:41.000Z</time>
      </trkpt>
      <trkpt lon="0.5602337718009949" lat="49.4152946472167969">
        <ele>127.10693359375</ele>
        <time>2016-09-21T13:05:44.000Z</time>
      </trkpt>
      <trkpt lon="0.5604068636894226" lat="49.4152526855468750">
        <ele>126.923095703125</ele>
        <time>2016-09-21T13:05:46.000Z</time>
      </trkpt>
      <trkpt lon="0.5606662631034851" lat="49.4152183532714844">
        <ele>126.71476745605469</ele>
        <time>2016-09-21T13:05:49.000Z</time>
      </trkpt>
      <trkpt lon="0.5608997941017151" lat="49.4153022766113281">
        <ele>126.4937515258789</ele>
        <time>2016-09-21T13:05:52.000Z</time>
      </trkpt>
      <trkpt lon="0.5610106587409973" lat="49.4153861999511719">
        <ele>126.31181335449219</ele>
        <time>2016-09-21T13:05:54.000Z</time>
      </trkpt>
      <trkpt lon="0.5611001849174500" lat="49.4155349731445312">
        <ele>126.20906829833984</ele>
        <time>2016-09-21T13:05:57.000Z</time>
      </trkpt>
      <trkpt lon="0.5611719489097595" lat="49.4156837463378906">
        <ele>126.17323303222656</ele>
        <time>2016-09-21T13:06:00.000Z</time>
      </trkpt>
      <trkpt lon="0.5612260103225708" lat="49.4157867431640625">
        <ele>126.22222900390625</ele>
        <time>2016-09-21T13:06:02.000Z</time>
      </trkpt>
      <trkpt lon="0.5613077878952026" lat="49.4159317016601562">
        <ele>126.34029388427734</ele>
        <time>2016-09-21T13:06:05.000Z</time>
      </trkpt>
      <trkpt lon="0.5613954067230225" lat="49.4160308837890625">
        <ele>126.47103118896484</ele>
        <time>2016-09-21T13:06:07.000Z</time>
      </trkpt>
      <trkpt lon="0.5615463852882385" lat="49.4161643981933594">
        <ele>126.612548828125</ele>
        <time>2016-09-21T13:06:10.000Z</time>
      </trkpt>
      <trkpt lon="0.5617439150810242" lat="49.4162750244140625">
        <ele>126.73734283447266</ele>
        <time>2016-09-21T13:06:13.000Z</time>
      </trkpt>
      <trkpt lon="0.5619502663612366" lat="49.4163627624511719">
        <ele>126.82332611083984</ele>
        <time>2016-09-21T13:06:16.000Z</time>
      </trkpt>
      <trkpt lon="0.5620922446250916" lat="49.4164199829101562">
        <ele>126.86903381347656</ele>
        <time>2016-09-21T13:06:18.000Z</time>
      </trkpt>
      <trkpt lon="0.5622415542602539" lat="49.4164772033691406">
        <ele>126.886962890625</ele>
        <time>2016-09-21T13:06:20.000Z</time>
      </trkpt>
      <trkpt lon="0.5623835325241089" lat="49.4165267944335938">
        <ele>126.875732421875</ele>
        <time>2016-09-21T13:06:22.000Z</time>
      </trkpt>
      <trkpt lon="0.5626102089881897" lat="49.4165954589843750">
        <ele>126.8932876586914</ele>
        <time>2016-09-21T13:06:25.000Z</time>
      </trkpt>
      <trkpt lon="0.5628283619880676" lat="49.4166679382324219">
        <ele>126.99702453613281</ele>
        <time>2016-09-21T13:06:28.000Z</time>
      </trkpt>
      <trkpt lon="0.5629659295082092" lat="49.4167022705078125">
        <ele>127.13926696777344</ele>
        <time>2016-09-21T13:06:30.000Z</time>
      </trkpt>
      <trkpt lon="0.5632148385047913" lat="49.4167747497558594">
        <ele>127.34249114990234</ele>
        <time>2016-09-21T13:06:33.000Z</time>
      </trkpt>
      <trkpt lon="0.5633759498596191" lat="49.4168243408203125">
        <ele>127.572998046875</ele>
        <time>2016-09-21T13:06:35.000Z</time>
      </trkpt>
      <trkpt lon="0.5635827183723450" lat="49.4169006347656250">
        <ele>127.78108978271484</ele>
        <time>2016-09-21T13:06:38.000Z</time>
      </trkpt>
      <trkpt lon="0.5637937784194946" lat="49.4169578552246094">
        <ele>127.94111633300781</ele>
        <time>2016-09-21T13:06:41.000Z</time>
      </trkpt>
      <trkpt lon="0.5639332532882690" lat="49.4170036315917969">
        <ele>128.087646484375</ele>
        <time>2016-09-21T13:06:43.000Z</time>
      </trkpt>
      <trkpt lon="0.5641670227050781" lat="49.4170646667480469">
        <ele>128.21180725097656</ele>
        <time>2016-09-21T13:06:46.000Z</time>
      </trkpt>
      <trkpt lon="0.5643674731254578" lat="49.4171218872070312">
        <ele>128.31922912597656</ele>
        <time>2016-09-21T13:06:49.000Z</time>
      </trkpt>
      <trkpt lon="0.5645247697830200" lat="49.4171600341796875">
        <ele>128.42044067382812</ele>
        <time>2016-09-21T13:06:51.000Z</time>
      </trkpt>
      <trkpt lon="0.5647102594375610" lat="49.4171943664550781">
        <ele>128.508544921875</ele>
        <time>2016-09-21T13:06:54.000Z</time>
      </trkpt>
      <trkpt lon="0.5648452043533325" lat="49.4172134399414062">
        <ele>128.5810546875</ele>
        <time>2016-09-21T13:06:56.000Z</time>
      </trkpt>
      <trkpt lon="0.5650706291198730" lat="49.4172744750976562">
        <ele>128.62625122070312</ele>
        <time>2016-09-21T13:06:59.000Z</time>
      </trkpt>
      <trkpt lon="0.5653077960014343" lat="49.4173316955566406">
        <ele>128.66098022460938</ele>
        <time>2016-09-21T13:07:02.000Z</time>
      </trkpt>
      <trkpt lon="0.5655227899551392" lat="49.4173889160156250">
        <ele>128.70022583007812</ele>
        <time>2016-09-21T13:07:05.000Z</time>
      </trkpt>
      <trkpt lon="0.5657335519790649" lat="49.4174308776855469">
        <ele>128.74241638183594</ele>
        <time>2016-09-21T13:07:08.000Z</time>
      </trkpt>
      <trkpt lon="0.5658755898475647" lat="49.4174728393554688">
        <ele>128.7979278564453</ele>
        <time>2016-09-21T13:07:10.000Z</time>
      </trkpt>
      <trkpt lon="0.5660244822502136" lat="49.4174957275390625">
        <ele>128.85531616210938</ele>
        <time>2016-09-21T13:07:12.000Z</time>
      </trkpt>
      <trkpt lon="0.5661866068840027" lat="49.4175415039062500">
        <ele>128.92691040039062</ele>
        <time>2016-09-21T13:07:14.000Z</time>
      </trkpt>
      <trkpt lon="0.5663427114486694" lat="49.4175643920898438">
        <ele>128.99147033691406</ele>
        <time>2016-09-21T13:07:16.000Z</time>
      </trkpt>
      <trkpt lon="0.5664804577827454" lat="49.4175987243652344">
        <ele>129.0512237548828</ele>
        <time>2016-09-21T13:07:18.000Z</time>
      </trkpt>
      <trkpt lon="0.5667178034782410" lat="49.4176635742187500">
        <ele>129.0894317626953</ele>
        <time>2016-09-21T13:07:21.000Z</time>
      </trkpt>
      <trkpt lon="0.5669575333595276" lat="49.4177246093750000">
        <ele>129.0564422607422</ele>
        <time>2016-09-21T13:07:24.000Z</time>
      </trkpt>
      <trkpt lon="0.5672083497047424" lat="49.4177894592285156">
        <ele>128.93508911132812</ele>
        <time>2016-09-21T13:07:27.000Z</time>
      </trkpt>
      <trkpt lon="0.5673779845237732" lat="49.4178314208984375">
        <ele>128.75399780273438</ele>
        <time>2016-09-21T13:07:29.000Z</time>
      </trkpt>
      <trkpt lon="0.5676404237747192" lat="49.4178848266601562">
        <ele>128.50689697265625</ele>
        <time>2016-09-21T13:07:32.000Z</time>
      </trkpt>
      <trkpt lon="0.5677971839904785" lat="49.4179077148437500">
        <ele>128.24588012695312</ele>
        <time>2016-09-21T13:07:34.000Z</time>
      </trkpt>
      <trkpt lon="0.5679584145545959" lat="49.4179840087890625">
        <ele>128.03460693359375</ele>
        <time>2016-09-21T13:07:36.000Z</time>
      </trkpt>
      <trkpt lon="0.5681876540184021" lat="49.4180564880371094">
        <ele>127.88581848144531</ele>
        <time>2016-09-21T13:07:39.000Z</time>
      </trkpt>
      <trkpt lon="0.5684397816658020" lat="49.4181213378906250">
        <ele>127.78165435791016</ele>
        <time>2016-09-21T13:07:42.000Z</time>
      </trkpt>
      <trkpt lon="0.5686070919036865" lat="49.4181671142578125">
        <ele>127.73414611816406</ele>
        <time>2016-09-21T13:07:44.000Z</time>
      </trkpt>
      <trkpt lon="0.5688367486000061" lat="49.4182243347167969">
        <ele>127.71321868896484</ele>
        <time>2016-09-21T13:07:47.000Z</time>
      </trkpt>
      <trkpt lon="0.5689606666564941" lat="49.4183273315429688">
        <ele>127.75528717041016</ele>
        <time>2016-09-21T13:07:50.000Z</time>
      </trkpt>
      <trkpt lon="0.5689497590065002" lat="49.4184799194335938">
        <ele>127.85456848144531</ele>
        <time>2016-09-21T13:07:53.000Z</time>
      </trkpt>
      <trkpt lon="0.5689246058464050" lat="49.4185943603515625">
        <ele>127.99898529052734</ele>
        <time>2016-09-21T13:07:55.000Z</time>
      </trkpt>
      <trkpt lon="0.5688860416412354" lat="49.4187393188476562">
        <ele>128.19444274902344</ele>
        <time>2016-09-21T13:07:58.000Z</time>
      </trkpt>
      <trkpt lon="0.5688406825065613" lat="49.4188308715820312">
        <ele>128.4180908203125</ele>
        <time>2016-09-21T13:08:00.000Z</time>
      </trkpt>
      <trkpt lon="0.5687994956970215" lat="49.4189643859863281">
        <ele>128.640625</ele>
        <time>2016-09-21T13:08:03.000Z</time>
      </trkpt>
      <trkpt lon="0.5688090920448303" lat="49.4190635681152344">
        <ele>128.84620666503906</ele>
        <time>2016-09-21T13:08:05.000Z</time>
      </trkpt>
      <trkpt lon="0.5687886476516724" lat="49.4192390441894531">
        <ele>129.03079223632812</ele>
        <time>2016-09-21T13:08:08.000Z</time>
      </trkpt>
      <trkpt lon="0.5687760114669800" lat="49.4194259643554688">
        <ele>129.1035614013672</ele>
        <time>2016-09-21T13:08:11.000Z</time>
      </trkpt>
      <trkpt lon="0.5687948465347290" lat="49.4195289611816406">
        <ele>129.1013946533203</ele>
        <time>2016-09-21T13:08:13.000Z</time>
      </trkpt>
      <trkpt lon="0.5687832832336426" lat="49.4197082519531250">
        <ele>128.98428344726562</ele>
        <time>2016-09-21T13:08:16.000Z</time>
      </trkpt>
      <trkpt lon="0.5688061118125916" lat="49.4198570251464844">
        <ele>128.78314208984375</ele>
        <time>2016-09-21T13:08:18.000Z</time>
      </trkpt>
      <trkpt lon="0.5688295364379883" lat="49.4199829101562500">
        <ele>128.52316284179688</ele>
        <time>2016-09-21T13:08:20.000Z</time>
      </trkpt>
      <trkpt lon="0.5688484311103821" lat="49.4201011657714844">
        <ele>128.29641723632812</ele>
        <time>2016-09-21T13:08:22.000Z</time>
      </trkpt>
      <trkpt lon="0.5688680410385132" lat="49.4202804565429688">
        <ele>128.0651092529297</ele>
        <time>2016-09-21T13:08:25.000Z</time>
      </trkpt>
      <trkpt lon="0.5688552856445312" lat="49.4203910827636719">
        <ele>127.87004089355469</ele>
        <time>2016-09-21T13:08:27.000Z</time>
      </trkpt>
      <trkpt lon="0.5688397288322449" lat="49.4205093383789062">
        <ele>127.69892883300781</ele>
        <time>2016-09-21T13:08:29.000Z</time>
      </trkpt>
      <trkpt lon="0.5688473582267761" lat="49.4207077026367188">
        <ele>127.5234375</ele>
        <time>2016-09-21T13:08:32.000Z</time>
      </trkpt>
      <trkpt lon="0.5688504576683044" lat="49.4208450317382812">
        <ele>127.34654235839844</ele>
        <time>2016-09-21T13:08:34.000Z</time>
      </trkpt>
      <trkpt lon="0.5688533782958984" lat="49.4209747314453125">
        <ele>127.20088195800781</ele>
        <time>2016-09-21T13:08:36.000Z</time>
      </trkpt>
      <trkpt lon="0.5688912272453308" lat="49.4211502075195312">
        <ele>127.06925964355469</ele>
        <time>2016-09-21T13:08:39.000Z</time>
      </trkpt>
      <trkpt lon="0.5689228773117065" lat="49.4213447570800781">
        <ele>126.95513916015625</ele>
        <time>2016-09-21T13:08:42.000Z</time>
      </trkpt>
      <trkpt lon="0.5689460635185242" lat="49.4214706420898438">
        <ele>126.88427734375</ele>
        <time>2016-09-21T13:08:44.000Z</time>
      </trkpt>
      <trkpt lon="0.5689806938171387" lat="49.4215965270996094">
        <ele>126.84440612792969</ele>
        <time>2016-09-21T13:08:46.000Z</time>
      </trkpt>
      <trkpt lon="0.5690023899078369" lat="49.4217147827148438">
        <ele>126.80827331542969</ele>
        <time>2016-09-21T13:08:48.000Z</time>
      </trkpt>
      <trkpt lon="0.5690382719039917" lat="49.4218940734863281">
        <ele>126.7562026977539</ele>
        <time>2016-09-21T13:08:51.000Z</time>
      </trkpt>
      <trkpt lon="0.5690642595291138" lat="49.4220809936523438">
        <ele>126.6800765991211</ele>
        <time>2016-09-21T13:08:54.000Z</time>
      </trkpt>
      <trkpt lon="0.5690811276435852" lat="49.4222106933593750">
        <ele>126.58341979980469</ele>
        <time>2016-09-21T13:08:56.000Z</time>
      </trkpt>
      <trkpt lon="0.5690906643867493" lat="49.4223365783691406">
        <ele>126.4604263305664</ele>
        <time>2016-09-21T13:08:58.000Z</time>
      </trkpt>
      <trkpt lon="0.5691034793853760" lat="49.4224662780761719">
        <ele>126.31718444824219</ele>
        <time>2016-09-21T13:09:00.000Z</time>
      </trkpt>
      <trkpt lon="0.5691234469413757" lat="49.4225921630859375">
        <ele>126.21402740478516</ele>
        <time>2016-09-21T13:09:02.000Z</time>
      </trkpt>
      <trkpt lon="0.5691317319869995" lat="49.4227790832519531">
        <ele>126.18733978271484</ele>
        <time>2016-09-21T13:09:05.000Z</time>
      </trkpt>
      <trkpt lon="0.5691484212875366" lat="49.4229125976562500">
        <ele>126.21928405761719</ele>
        <time>2016-09-21T13:09:07.000Z</time>
      </trkpt>
      <trkpt lon="0.5691545009613037" lat="49.4231109619140625">
        <ele>126.3258285522461</ele>
        <time>2016-09-21T13:09:10.000Z</time>
      </trkpt>
      <trkpt lon="0.5691826939582825" lat="49.4232101440429688">
        <ele>126.48567962646484</ele>
        <time>2016-09-21T13:09:12.000Z</time>
      </trkpt>
      <trkpt lon="0.5692194104194641" lat="49.4233551025390625">
        <ele>126.64830017089844</ele>
        <time>2016-09-21T13:09:15.000Z</time>
      </trkpt>
      <trkpt lon="0.5692596435546875" lat="49.4234619140625000">
        <ele>126.73738098144531</ele>
        <time>2016-09-21T13:09:18.000Z</time>
      </trkpt>
      <trkpt lon="0.5692858099937439" lat="49.4235382080078125">
        <ele>126.771728515625</ele>
        <time>2016-09-21T13:09:20.000Z</time>
      </trkpt>
      <trkpt lon="0.5693246126174927" lat="49.4236488342285156">
        <ele>126.72982025146484</ele>
        <time>2016-09-21T13:09:23.000Z</time>
      </trkpt>
      <trkpt lon="0.5693308115005493" lat="49.4237289428710938">
        <ele>126.64628601074219</ele>
        <time>2016-09-21T13:09:25.000Z</time>
      </trkpt>
      <trkpt lon="0.5692535042762756" lat="49.4238739013671875">
        <ele>126.5272216796875</ele>
        <time>2016-09-21T13:09:28.000Z</time>
      </trkpt>
      <trkpt lon="0.5691422224044800" lat="49.4239845275878906">
        <ele>126.40934753417969</ele>
        <time>2016-09-21T13:09:30.000Z</time>
      </trkpt>
      <trkpt lon="0.5690041780471802" lat="49.4241600036621094">
        <ele>126.2034912109375</ele>
        <time>2016-09-21T13:09:33.000Z</time>
      </trkpt>
      <trkpt lon="0.5689312219619751" lat="49.4243392944335938">
        <ele>125.876220703125</ele>
        <time>2016-09-21T13:09:36.000Z</time>
      </trkpt>
      <trkpt lon="0.5688486099243164" lat="49.4245529174804688">
        <ele>125.3970718383789</ele>
        <time>2016-09-21T13:09:39.000Z</time>
      </trkpt>
      <trkpt lon="0.5688130259513855" lat="49.4246902465820312">
        <ele>124.8401870727539</ele>
        <time>2016-09-21T13:09:41.000Z</time>
      </trkpt>
      <trkpt lon="0.5687500238418579" lat="49.4248428344726562">
        <ele>124.2030029296875</ele>
        <time>2016-09-21T13:09:43.000Z</time>
      </trkpt>
      <trkpt lon="0.5687156319618225" lat="49.4250030517578125">
        <ele>123.57112121582031</ele>
        <time>2016-09-21T13:09:45.000Z</time>
      </trkpt>
      <trkpt lon="0.5686461925506592" lat="49.4252243041992188">
        <ele>123.0526351928711</ele>
        <time>2016-09-21T13:09:48.000Z</time>
      </trkpt>
      <trkpt lon="0.5686842799186707" lat="49.4254608154296875">
        <ele>122.68546295166016</ele>
        <time>2016-09-21T13:09:51.000Z</time>
      </trkpt>
      <trkpt lon="0.5686596632003784" lat="49.4256896972656250">
        <ele>122.39249420166016</ele>
        <time>2016-09-21T13:09:54.000Z</time>
      </trkpt>
      <trkpt lon="0.5686174035072327" lat="49.4259109497070312">
        <ele>122.19728088378906</ele>
        <time>2016-09-21T13:09:57.000Z</time>
      </trkpt>
      <trkpt lon="0.5686001777648926" lat="49.4260482788085938">
        <ele>122.1059799194336</ele>
        <time>2016-09-21T13:09:59.000Z</time>
      </trkpt>
      <trkpt lon="0.5685625076293945" lat="49.4262924194335938">
        <ele>122.05106353759766</ele>
        <time>2016-09-21T13:10:02.000Z</time>
      </trkpt>
      <trkpt lon="0.5685385465621948" lat="49.4264526367187500">
        <ele>122.0133056640625</ele>
        <time>2016-09-21T13:10:04.000Z</time>
      </trkpt>
      <trkpt lon="0.5685166716575623" lat="49.4266738891601562">
        <ele>121.99832916259766</ele>
        <time>2016-09-21T13:10:07.000Z</time>
      </trkpt>
      <trkpt lon="0.5684553384780884" lat="49.4269104003906250">
        <ele>121.93070983886719</ele>
        <time>2016-09-21T13:10:10.000Z</time>
      </trkpt>
      <trkpt lon="0.5683539509773254" lat="49.4271621704101562">
        <ele>121.8092269897461</ele>
        <time>2016-09-21T13:10:13.000Z</time>
      </trkpt>
      <trkpt lon="0.5683148503303528" lat="49.4273262023925781">
        <ele>121.64360046386719</ele>
        <time>2016-09-21T13:10:15.000Z</time>
      </trkpt>
      <trkpt lon="0.5682542324066162" lat="49.4275512695312500">
        <ele>121.3722152709961</ele>
        <time>2016-09-21T13:10:18.000Z</time>
      </trkpt>
      <trkpt lon="0.5682072043418884" lat="49.4276847839355469">
        <ele>120.9999771118164</ele>
        <time>2016-09-21T13:10:20.000Z</time>
      </trkpt>
      <trkpt lon="0.5681258440017700" lat="49.4279098510742188">
        <ele>120.5466537475586</ele>
        <time>2016-09-21T13:10:23.000Z</time>
      </trkpt>
      <trkpt lon="0.5680823922157288" lat="49.4280586242675781">
        <ele>120.06596374511719</ele>
        <time>2016-09-21T13:10:25.000Z</time>
      </trkpt>
      <trkpt lon="0.5679996013641357" lat="49.4283218383789062">
        <ele>119.51729583740234</ele>
        <time>2016-09-21T13:10:28.000Z</time>
      </trkpt>
      <trkpt lon="0.5679658651351929" lat="49.4284896850585938">
        <ele>119.02229309082031</ele>
        <time>2016-09-21T13:10:30.000Z</time>
      </trkpt>
      <trkpt lon="0.5679148435592651" lat="49.4287223815917969">
        <ele>118.55609130859375</ele>
        <time>2016-09-21T13:10:33.000Z</time>
      </trkpt>
      <trkpt lon="0.5677767992019653" lat="49.4289703369140625">
        <ele>118.15519714355469</ele>
        <time>2016-09-21T13:10:36.000Z</time>
      </trkpt>
      <trkpt lon="0.5677723288536072" lat="49.4291534423828125">
        <ele>117.76229095458984</ele>
        <time>2016-09-21T13:10:38.000Z</time>
      </trkpt>
      <trkpt lon="0.5676929950714111" lat="49.4293098449707031">
        <ele>117.4344711303711</ele>
        <time>2016-09-21T13:10:40.000Z</time>
      </trkpt>
      <trkpt lon="0.5675851702690125" lat="49.4295883178710938">
        <ele>117.08894348144531</ele>
        <time>2016-09-21T13:10:43.000Z</time>
      </trkpt>
      <trkpt lon="0.5675699114799500" lat="49.4298667907714844">
        <ele>116.7469711303711</ele>
        <time>2016-09-21T13:10:46.000Z</time>
      </trkpt>
      <trkpt lon="0.5675780773162842" lat="49.4300575256347656">
        <ele>116.41105651855469</ele>
        <time>2016-09-21T13:10:48.000Z</time>
      </trkpt>
      <trkpt lon="0.5677097439765930" lat="49.4303092956542969">
        <ele>115.97004699707031</ele>
        <time>2016-09-21T13:10:51.000Z</time>
      </trkpt>
      <trkpt lon="0.5677995681762695" lat="49.4304733276367188">
        <ele>115.48139953613281</ele>
        <time>2016-09-21T13:10:53.000Z</time>
      </trkpt>
      <trkpt lon="0.5679390430450439" lat="49.4307060241699219">
        <ele>114.9587631225586</ele>
        <time>2016-09-21T13:10:56.000Z</time>
      </trkpt>
      <trkpt lon="0.5679841041564941" lat="49.4308700561523438">
        <ele>114.4662094116211</ele>
        <time>2016-09-21T13:10:58.000Z</time>
      </trkpt>
      <trkpt lon="0.5679949522018433" lat="49.4310951232910156">
        <ele>114.1056137084961</ele>
        <time>2016-09-21T13:11:01.000Z</time>
      </trkpt>
      <trkpt lon="0.5680090785026550" lat="49.4312896728515625">
        <ele>113.97367858886719</ele>
        <time>2016-09-21T13:11:03.000Z</time>
      </trkpt>
      <trkpt lon="0.5679325461387634" lat="49.4315681457519531">
        <ele>113.98441314697266</ele>
        <time>2016-09-21T13:11:06.000Z</time>
      </trkpt>
      <trkpt lon="0.5676914453506470" lat="49.4317779541015625">
        <ele>114.08567810058594</ele>
        <time>2016-09-21T13:11:09.000Z</time>
      </trkpt>
      <trkpt lon="0.5674215555191040" lat="49.4319572448730469">
        <ele>114.22364807128906</ele>
        <time>2016-09-21T13:11:12.000Z</time>
      </trkpt>
      <trkpt lon="0.5671489834785461" lat="49.4321479797363281">
        <ele>114.30899810791016</ele>
        <time>2016-09-21T13:11:15.000Z</time>
      </trkpt>
      <trkpt lon="0.5668510794639587" lat="49.4323196411132812">
        <ele>114.31178283691406</ele>
        <time>2016-09-21T13:11:18.000Z</time>
      </trkpt>
      <trkpt lon="0.5666828751564026" lat="49.4324264526367188">
        <ele>114.2353286743164</ele>
        <time>2016-09-21T13:11:20.000Z</time>
      </trkpt>
      <trkpt lon="0.5664388537406921" lat="49.4325675964355469">
        <ele>114.1522216796875</ele>
        <time>2016-09-21T13:11:23.000Z</time>
      </trkpt>
      <trkpt lon="0.5662826299667358" lat="49.4326667785644531">
        <ele>114.0490493774414</ele>
        <time>2016-09-21T13:11:25.000Z</time>
      </trkpt>
      <trkpt lon="0.5660927891731262" lat="49.4327926635742188">
        <ele>113.9118881225586</ele>
        <time>2016-09-21T13:11:28.000Z</time>
      </trkpt>
      <trkpt lon="0.5659789443016052" lat="49.4329147338867188">
        <ele>113.77775573730469</ele>
        <time>2016-09-21T13:11:31.000Z</time>
      </trkpt>
      <trkpt lon="0.5660738348960876" lat="49.4330215454101562">
        <ele>113.6494140625</ele>
        <time>2016-09-21T13:11:34.000Z</time>
      </trkpt>
      <trkpt lon="0.5661736726760864" lat="49.4331207275390625">
        <ele>113.5166015625</ele>
        <time>2016-09-21T13:11:36.000Z</time>
      </trkpt>
      <trkpt lon="0.5663049221038818" lat="49.4331893920898438">
        <ele>113.390625</ele>
        <time>2016-09-21T13:11:38.000Z</time>
      </trkpt>
      <trkpt lon="0.5665000677108765" lat="49.4332962036132812">
        <ele>113.26953125</ele>
        <time>2016-09-21T13:11:41.000Z</time>
      </trkpt>
      <trkpt lon="0.5667070150375366" lat="49.4333076477050781">
        <ele>113.18449401855469</ele>
        <time>2016-09-21T13:11:44.000Z</time>
      </trkpt>
      <trkpt lon="0.5669156312942505" lat="49.4332504272460938">
        <ele>113.18858337402344</ele>
        <time>2016-09-21T13:11:47.000Z</time>
      </trkpt>
      <trkpt lon="0.5670428872108459" lat="49.4332084655761719">
        <ele>113.25836181640625</ele>
        <time>2016-09-21T13:11:49.000Z</time>
      </trkpt>
      <trkpt lon="0.5671985149383545" lat="49.4331665039062500">
        <ele>113.39186096191406</ele>
        <time>2016-09-21T13:11:52.000Z</time>
      </trkpt>
      <trkpt lon="0.5673076510429382" lat="49.4331359863281250">
        <ele>113.58378601074219</ele>
        <time>2016-09-21T13:11:55.000Z</time>
      </trkpt>
      <trkpt lon="0.5673148036003113" lat="49.4331169128417969">
        <ele>113.7755355834961</ele>
        <time>2016-09-21T13:11:58.000Z</time>
      </trkpt>
      <trkpt lon="0.5673835873603821" lat="49.4331512451171875">
        <ele>113.9122543334961</ele>
        <time>2016-09-21T13:34:56.000Z</time>
      </trkpt>
      <trkpt lon="0.5673519372940063" lat="49.4331398010253906">
        <ele>114.0030288696289</ele>
        <time>2016-09-21T13:35:02.000Z</time>
      </trkpt>
      <trkpt lon="0.5673020482063293" lat="49.4331588745117188">
        <ele>114.02984619140625</ele>
        <time>2016-09-21T13:35:05.000Z</time>
      </trkpt>
      <trkpt lon="0.5672290921211243" lat="49.4331817626953125">
        <ele>114.000244140625</ele>
        <time>2016-09-21T13:35:08.000Z</time>
      </trkpt>
      <trkpt lon="0.5671463012695312" lat="49.4332122802734375">
        <ele>113.9373550415039</ele>
        <time>2016-09-21T13:35:10.000Z</time>
      </trkpt>
      <trkpt lon="0.5670114159584045" lat="49.4332580566406250">
        <ele>113.8216552734375</ele>
        <time>2016-09-21T13:35:13.000Z</time>
      </trkpt>
      <trkpt lon="0.5668343305587769" lat="49.4333229064941406">
        <ele>113.65348815917969</ele>
        <time>2016-09-21T13:35:16.000Z</time>
      </trkpt>
      <trkpt lon="0.5667062401771545" lat="49.4333457946777344">
        <ele>113.47114562988281</ele>
        <time>2016-09-21T13:35:18.000Z</time>
      </trkpt>
      <trkpt lon="0.5665817856788635" lat="49.4333457946777344">
        <ele>113.30326843261719</ele>
        <time>2016-09-21T13:35:20.000Z</time>
      </trkpt>
      <trkpt lon="0.5664247274398804" lat="49.4332962036132812">
        <ele>113.16764068603516</ele>
        <time>2016-09-21T13:35:23.000Z</time>
      </trkpt>
      <trkpt lon="0.5663359165191650" lat="49.4332466125488281">
        <ele>113.08784484863281</ele>
        <time>2016-09-21T13:35:25.000Z</time>
      </trkpt>
      <trkpt lon="0.5662553906440735" lat="49.4331855773925781">
        <ele>113.07981872558594</ele>
        <time>2016-09-21T13:35:27.000Z</time>
      </trkpt>
      <trkpt lon="0.5661364793777466" lat="49.4331092834472656">
        <ele>113.12138366699219</ele>
        <time>2016-09-21T13:35:30.000Z</time>
      </trkpt>
      <trkpt lon="0.5660678148269653" lat="49.4330635070800781">
        <ele>113.1826171875</ele>
        <time>2016-09-21T13:35:32.000Z</time>
      </trkpt>
      <trkpt lon="0.5659871697425842" lat="49.4329986572265625">
        <ele>113.25390625</ele>
        <time>2016-09-21T13:35:35.000Z</time>
      </trkpt>
      <trkpt lon="0.5659345388412476" lat="49.4329643249511719">
        <ele>113.322265625</ele>
        <time>2016-09-21T13:35:38.000Z</time>
      </trkpt>
      <trkpt lon="0.5659155845642090" lat="49.4329528808593750">
        <ele>113.37890625</ele>
        <time>2016-09-21T13:35:40.000Z</time>
      </trkpt>
      <trkpt lon="0.5659111738204956" lat="49.4329223632812500">
        <ele>113.423828125</ele>
        <time>2016-09-21T13:35:43.000Z</time>
      </trkpt>
      <trkpt lon="0.5659785270690918" lat="49.4328422546386719">
        <ele>113.4775390625</ele>
        <time>2016-09-21T13:35:46.000Z</time>
      </trkpt>
      <trkpt lon="0.5660383701324463" lat="49.4327888488769531">
        <ele>113.5283203125</ele>
        <time>2016-09-21T13:35:48.000Z</time>
      </trkpt>
      <trkpt lon="0.5661901831626892" lat="49.4326820373535156">
        <ele>113.595703125</ele>
        <time>2016-09-21T13:35:51.000Z</time>
      </trkpt>
      <trkpt lon="0.5663414597511292" lat="49.4325942993164062">
        <ele>113.681640625</ele>
        <time>2016-09-21T13:35:54.000Z</time>
      </trkpt>
      <trkpt lon="0.5665284991264343" lat="49.4324836730957031">
        <ele>113.7823257446289</ele>
        <time>2016-09-21T13:35:57.000Z</time>
      </trkpt>
      <trkpt lon="0.5666903257369995" lat="49.4323844909667969">
        <ele>113.86905670166016</ele>
        <time>2016-09-21T13:36:00.000Z</time>
      </trkpt>
      <trkpt lon="0.5668478012084961" lat="49.4323005676269531">
        <ele>113.97122955322266</ele>
        <time>2016-09-21T13:36:03.000Z</time>
      </trkpt>
      <trkpt lon="0.5670087337493896" lat="49.4322242736816406">
        <ele>114.0697250366211</ele>
        <time>2016-09-21T13:36:06.000Z</time>
      </trkpt>
      <trkpt lon="0.5671628117561340" lat="49.4321250915527344">
        <ele>114.157470703125</ele>
        <time>2016-09-21T13:36:09.000Z</time>
      </trkpt>
      <trkpt lon="0.5672742724418640" lat="49.4320564270019531">
        <ele>114.2262191772461</ele>
        <time>2016-09-21T13:36:11.000Z</time>
      </trkpt>
      <trkpt lon="0.5674106478691101" lat="49.4319877624511719">
        <ele>114.28985595703125</ele>
        <time>2016-09-21T13:36:14.000Z</time>
      </trkpt>
      <trkpt lon="0.5675036311149597" lat="49.4319343566894531">
        <ele>114.32148742675781</ele>
        <time>2016-09-21T13:36:16.000Z</time>
      </trkpt>
      <trkpt lon="0.5676482319831848" lat="49.4318237304687500">
        <ele>114.33329010009766</ele>
        <time>2016-09-21T13:36:19.000Z</time>
      </trkpt>
      <trkpt lon="0.5677873492240906" lat="49.4317016601562500">
        <ele>114.34230041503906</ele>
        <time>2016-09-21T13:36:22.000Z</time>
      </trkpt>
      <trkpt lon="0.5678568482398987" lat="49.4316253662109375">
        <ele>114.3497085571289</ele>
        <time>2016-09-21T13:36:24.000Z</time>
      </trkpt>
      <trkpt lon="0.5679323673248291" lat="49.4314842224121094">
        <ele>114.34159088134766</ele>
        <time>2016-09-21T13:36:27.000Z</time>
      </trkpt>
      <trkpt lon="0.5679854154586792" lat="49.4313468933105469">
        <ele>114.3168716430664</ele>
        <time>2016-09-21T13:36:30.000Z</time>
      </trkpt>
      <trkpt lon="0.5679971575737000" lat="49.4312171936035156">
        <ele>114.2618179321289</ele>
        <time>2016-09-21T13:36:33.000Z</time>
      </trkpt>
      <trkpt lon="0.5679901242256165" lat="49.4311218261718750">
        <ele>114.17372131347656</ele>
        <time>2016-09-21T13:36:35.000Z</time>
      </trkpt>
      <trkpt lon="0.5679739117622375" lat="49.4309883117675781">
        <ele>114.0494613647461</ele>
        <time>2016-09-21T13:36:38.000Z</time>
      </trkpt>
      <trkpt lon="0.5679759383201599" lat="49.4309043884277344">
        <ele>113.9202651977539</ele>
        <time>2016-09-21T13:36:40.000Z</time>
      </trkpt>
      <trkpt lon="0.5679531693458557" lat="49.4308204650878906">
        <ele>113.79582214355469</ele>
        <time>2016-09-21T13:36:42.000Z</time>
      </trkpt>
      <trkpt lon="0.5679166913032532" lat="49.4307365417480469">
        <ele>113.73040771484375</ele>
        <time>2016-09-21T13:36:44.000Z</time>
      </trkpt>
      <trkpt lon="0.5678523778915405" lat="49.4306068420410156">
        <ele>113.7455825805664</ele>
        <time>2016-09-21T13:36:47.000Z</time>
      </trkpt>
      <trkpt lon="0.5677856802940369" lat="49.4304809570312500">
        <ele>113.85862731933594</ele>
        <time>2016-09-21T13:36:50.000Z</time>
      </trkpt>
      <trkpt lon="0.5677015185356140" lat="49.4303474426269531">
        <ele>114.0696792602539</ele>
        <time>2016-09-21T13:36:53.000Z</time>
      </trkpt>
      <trkpt lon="0.5676373243331909" lat="49.4302215576171875">
        <ele>114.37989807128906</ele>
        <time>2016-09-21T13:36:56.000Z</time>
      </trkpt>
      <trkpt lon="0.5675675868988037" lat="49.4300994873046875">
        <ele>114.7505111694336</ele>
        <time>2016-09-21T13:36:59.000Z</time>
      </trkpt>
      <trkpt lon="0.5675145387649536" lat="49.4299774169921875">
        <ele>115.1512451171875</ele>
        <time>2016-09-21T13:37:02.000Z</time>
      </trkpt>
      <trkpt lon="0.5674941539764404" lat="49.4298248291015625">
        <ele>115.52763366699219</ele>
        <time>2016-09-21T13:37:05.000Z</time>
      </trkpt>
      <trkpt lon="0.5675051212310791" lat="49.4297409057617188">
        <ele>115.8468246459961</ele>
        <time>2016-09-21T13:37:07.000Z</time>
      </trkpt>
      <trkpt lon="0.5675380825996399" lat="49.4296073913574219">
        <ele>116.11083984375</ele>
        <time>2016-09-21T13:37:10.000Z</time>
      </trkpt>
      <trkpt lon="0.5675770640373230" lat="49.4294815063476562">
        <ele>116.3119888305664</ele>
        <time>2016-09-21T13:37:13.000Z</time>
      </trkpt>
      <trkpt lon="0.5676036477088928" lat="49.4293937683105469">
        <ele>116.4482192993164</ele>
        <time>2016-09-21T13:37:15.000Z</time>
      </trkpt>
      <trkpt lon="0.5676469802856445" lat="49.4292640686035156">
        <ele>116.5799560546875</ele>
        <time>2016-09-21T13:37:18.000Z</time>
      </trkpt>
      <trkpt lon="0.5676703453063965" lat="49.4291801452636719">
        <ele>116.7149887084961</ele>
        <time>2016-09-21T13:37:20.000Z</time>
      </trkpt>
      <trkpt lon="0.5677244663238525" lat="49.4290580749511719">
        <ele>116.87089538574219</ele>
        <time>2016-09-21T13:37:23.000Z</time>
      </trkpt>
      <trkpt lon="0.5677599310874939" lat="49.4289398193359375">
        <ele>117.04536437988281</ele>
        <time>2016-09-21T13:37:26.000Z</time>
      </trkpt>
      <trkpt lon="0.5678015351295471" lat="49.4288253784179688">
        <ele>117.24122619628906</ele>
        <time>2016-09-21T13:37:29.000Z</time>
      </trkpt>
      <trkpt lon="0.5678482055664062" lat="49.4287033081054688">
        <ele>117.44493103027344</ele>
        <time>2016-09-21T13:37:32.000Z</time>
      </trkpt>
      <trkpt lon="0.5678929090499878" lat="49.4285888671875000">
        <ele>117.6604232788086</ele>
        <time>2016-09-21T13:37:35.000Z</time>
      </trkpt>
      <trkpt lon="0.5679320096969604" lat="49.4284896850585938">
        <ele>117.85498046875</ele>
        <time>2016-09-21T13:37:38.000Z</time>
      </trkpt>
      <trkpt lon="0.5679578185081482" lat="49.4283866882324219">
        <ele>118.0346450805664</ele>
        <time>2016-09-21T13:37:41.000Z</time>
      </trkpt>
      <trkpt lon="0.5679773688316345" lat="49.4283180236816406">
        <ele>118.1927490234375</ele>
        <time>2016-09-21T13:37:43.000Z</time>
      </trkpt>
      <trkpt lon="0.5680143237113953" lat="49.4282073974609375">
        <ele>118.3495864868164</ele>
        <time>2016-09-21T13:37:46.000Z</time>
      </trkpt>
      <trkpt lon="0.5680683851242065" lat="49.4281005859375000">
        <ele>118.5155029296875</ele>
        <time>2016-09-21T13:37:49.000Z</time>
      </trkpt>
      <trkpt lon="0.5680988430976868" lat="49.4280242919921875">
        <ele>118.69203186035156</ele>
        <time>2016-09-21T13:37:51.000Z</time>
      </trkpt>
      <trkpt lon="0.5681255459785461" lat="49.4279479980468750">
        <ele>118.87925720214844</ele>
        <time>2016-09-21T13:37:53.000Z</time>
      </trkpt>
      <trkpt lon="0.5681462883949280" lat="49.4278602600097656">
        <ele>119.095703125</ele>
        <time>2016-09-21T13:37:55.000Z</time>
      </trkpt>
      <trkpt lon="0.5681818723678589" lat="49.4277381896972656">
        <ele>119.34954833984375</ele>
        <time>2016-09-21T13:37:58.000Z</time>
      </trkpt>
      <trkpt lon="0.5682070255279541" lat="49.4276580810546875">
        <ele>119.6150894165039</ele>
        <time>2016-09-21T13:38:00.000Z</time>
      </trkpt>
      <trkpt lon="0.5682335495948792" lat="49.4275779724121094">
        <ele>119.89994812011719</ele>
        <time>2016-09-21T13:38:02.000Z</time>
      </trkpt>
      <trkpt lon="0.5682594180107117" lat="49.4275016784667969">
        <ele>120.20365142822266</ele>
        <time>2016-09-21T13:38:04.000Z</time>
      </trkpt>
      <trkpt lon="0.5683004856109619" lat="49.4273796081542969">
        <ele>120.50994873046875</ele>
        <time>2016-09-21T13:38:07.000Z</time>
      </trkpt>
      <trkpt lon="0.5683334469795227" lat="49.4272537231445312">
        <ele>120.7821044921875</ele>
        <time>2016-09-21T13:38:10.000Z</time>
      </trkpt>
      <trkpt lon="0.5683627724647522" lat="49.4271240234375000">
        <ele>121.0250244140625</ele>
        <time>2016-09-21T13:38:13.000Z</time>
      </trkpt>
      <trkpt lon="0.5683862566947937" lat="49.4270401000976562">
        <ele>121.2285385131836</ele>
        <time>2016-09-21T13:38:15.000Z</time>
      </trkpt>
      <trkpt lon="0.5684151649475098" lat="49.4269104003906250">
        <ele>121.40083312988281</ele>
        <time>2016-09-21T13:38:18.000Z</time>
      </trkpt>
      <trkpt lon="0.5684331059455872" lat="49.4268302917480469">
        <ele>121.54144287109375</ele>
        <time>2016-09-21T13:38:20.000Z</time>
      </trkpt>
      <trkpt lon="0.5684537887573242" lat="49.4267463684082031">
        <ele>121.6607894897461</ele>
        <time>2016-09-21T13:38:22.000Z</time>
      </trkpt>
      <trkpt lon="0.5684816837310791" lat="49.4266166687011719">
        <ele>121.7744369506836</ele>
        <time>2016-09-21T13:38:25.000Z</time>
      </trkpt>
      <trkpt lon="0.5684925317764282" lat="49.4265327453613281">
        <ele>121.8693618774414</ele>
        <time>2016-09-21T13:38:27.000Z</time>
      </trkpt>
      <trkpt lon="0.5684942007064819" lat="49.4264183044433594">
        <ele>121.93412780761719</ele>
        <time>2016-09-21T13:38:30.000Z</time>
      </trkpt>
      <trkpt lon="0.5684999823570251" lat="49.4263381958007812">
        <ele>121.97831726074219</ele>
        <time>2016-09-21T13:38:32.000Z</time>
      </trkpt>
      <trkpt lon="0.5685130357742310" lat="49.4262084960937500">
        <ele>122.0</ele>
        <time>2016-09-21T13:38:35.000Z</time>
      </trkpt>
      <trkpt lon="0.5685818791389465" lat="49.4257049560546875">
        <ele>122.00926208496094</ele>
        <time>2016-09-21T13:38:46.000Z</time>
      </trkpt>
      <trkpt lon="0.5685946941375732" lat="49.4255752563476562">
        <ele>122.02880859375</ele>
        <time>2016-09-21T13:38:49.000Z</time>
      </trkpt>
      <trkpt lon="0.5686140656471252" lat="49.4254455566406250">
        <ele>122.05999755859375</ele>
        <time>2016-09-21T13:38:52.000Z</time>
      </trkpt>
      <trkpt lon="0.5686287283897400" lat="49.4253158569335938">
        <ele>122.10389709472656</ele>
        <time>2016-09-21T13:38:55.000Z</time>
      </trkpt>
      <trkpt lon="0.5686413645744324" lat="49.4252281188964844">
        <ele>122.1575927734375</ele>
        <time>2016-09-21T13:38:57.000Z</time>
      </trkpt>
      <trkpt lon="0.5686519742012024" lat="49.4251403808593750">
        <ele>122.21211242675781</ele>
        <time>2016-09-21T13:38:59.000Z</time>
      </trkpt>
      <trkpt lon="0.5686718821525574" lat="49.4250144958496094">
        <ele>122.27223205566406</ele>
        <time>2016-09-21T13:39:02.000Z</time>
      </trkpt>
      <trkpt lon="0.5686920881271362" lat="49.4248962402343750">
        <ele>122.38885498046875</ele>
        <time>2016-09-21T13:39:05.000Z</time>
      </trkpt>
      <trkpt lon="0.5687092542648315" lat="49.4248161315917969">
        <ele>122.54289245605469</ele>
        <time>2016-09-21T13:39:07.000Z</time>
      </trkpt>
      <trkpt lon="0.5687291622161865" lat="49.4247360229492188">
        <ele>122.74127197265625</ele>
        <time>2016-09-21T13:39:09.000Z</time>
      </trkpt>
      <trkpt lon="0.5687647461891174" lat="49.4246253967285156">
        <ele>123.00724029541016</ele>
        <time>2016-09-21T13:39:12.000Z</time>
      </trkpt>
      <trkpt lon="0.5687944293022156" lat="49.4245452880859375">
        <ele>123.3175277709961</ele>
        <time>2016-09-21T13:39:14.000Z</time>
      </trkpt>
      <trkpt lon="0.5688443779945374" lat="49.4244270324707031">
        <ele>123.65218353271484</ele>
        <time>2016-09-21T13:39:17.000Z</time>
      </trkpt>
      <trkpt lon="0.5688766837120056" lat="49.4243507385253906">
        <ele>123.99903869628906</ele>
        <time>2016-09-21T13:39:19.000Z</time>
      </trkpt>
      <trkpt lon="0.5689283609390259" lat="49.4242324829101562">
        <ele>124.39067077636719</ele>
        <time>2016-09-21T13:39:22.000Z</time>
      </trkpt>
      <trkpt lon="0.5689685940742493" lat="49.4241523742675781">
        <ele>124.76896667480469</ele>
        <time>2016-09-21T13:39:24.000Z</time>
      </trkpt>
      <trkpt lon="0.5690330862998962" lat="49.4240379333496094">
        <ele>125.1454086303711</ele>
        <time>2016-09-21T13:39:27.000Z</time>
      </trkpt>
      <trkpt lon="0.5690865516662598" lat="49.4239692687988281">
        <ele>125.4715576171875</ele>
        <time>2016-09-21T13:39:29.000Z</time>
      </trkpt>
      <trkpt lon="0.5691647529602051" lat="49.4238586425781250">
        <ele>125.7992935180664</ele>
        <time>2016-09-21T13:39:32.000Z</time>
      </trkpt>
      <trkpt lon="0.5692532062530518" lat="49.4237556457519531">
        <ele>126.04414367675781</ele>
        <time>2016-09-21T13:39:35.000Z</time>
      </trkpt>
      <trkpt lon="0.5693252682685852" lat="49.4236488342285156">
        <ele>126.2366714477539</ele>
        <time>2016-09-21T13:39:38.000Z</time>
      </trkpt>
      <trkpt lon="0.5693417191505432" lat="49.4235305786132812">
        <ele>126.39079284667969</ele>
        <time>2016-09-21T13:39:41.000Z</time>
      </trkpt>
      <trkpt lon="0.5692943334579468" lat="49.4234046936035156">
        <ele>126.53697204589844</ele>
        <time>2016-09-21T13:39:44.000Z</time>
      </trkpt>
      <trkpt lon="0.5692631006240845" lat="49.4233207702636719">
        <ele>126.63874816894531</ele>
        <time>2016-09-21T13:39:46.000Z</time>
      </trkpt>
      <trkpt lon="0.5692355632781982" lat="49.4232406616210938">
        <ele>126.71540832519531</ele>
        <time>2016-09-21T13:39:48.000Z</time>
      </trkpt>
      <trkpt lon="0.5692004561424255" lat="49.4231262207031250">
        <ele>126.76148986816406</ele>
        <time>2016-09-21T13:39:51.000Z</time>
      </trkpt>
      <trkpt lon="0.5691732168197632" lat="49.4230117797851562">
        <ele>126.76309967041016</ele>
        <time>2016-09-21T13:39:54.000Z</time>
      </trkpt>
      <trkpt lon="0.5691614151000977" lat="49.4229011535644531">
        <ele>126.70317077636719</ele>
        <time>2016-09-21T13:39:57.000Z</time>
      </trkpt>
      <trkpt lon="0.5691522359848022" lat="49.4228286743164062">
        <ele>126.60467529296875</ele>
        <time>2016-09-21T13:39:59.000Z</time>
      </trkpt>
      <trkpt lon="0.5691390037536621" lat="49.4227180480957031">
        <ele>126.4881362915039</ele>
        <time>2016-09-21T13:40:02.000Z</time>
      </trkpt>
      <trkpt lon="0.5691133141517639" lat="49.4226036071777344">
        <ele>126.36309814453125</ele>
        <time>2016-09-21T13:40:05.000Z</time>
      </trkpt>
      <trkpt lon="0.5690958499908447" lat="49.4225311279296875">
        <ele>126.24698638916016</ele>
        <time>2016-09-21T13:40:07.000Z</time>
      </trkpt>
      <trkpt lon="0.5690857768058777" lat="49.4224548339843750">
        <ele>126.1623306274414</ele>
        <time>2016-09-21T13:40:09.000Z</time>
      </trkpt>
      <trkpt lon="0.5690634846687317" lat="49.4223403930664062">
        <ele>126.12042236328125</ele>
        <time>2016-09-21T13:40:12.000Z</time>
      </trkpt>
      <trkpt lon="0.5690487623214722" lat="49.4222679138183594">
        <ele>126.11918640136719</ele>
        <time>2016-09-21T13:40:14.000Z</time>
      </trkpt>
      <trkpt lon="0.5690379142761230" lat="49.4221916198730469">
        <ele>126.15997314453125</ele>
        <time>2016-09-21T13:40:16.000Z</time>
      </trkpt>
      <trkpt lon="0.5690225362777710" lat="49.4220809936523438">
        <ele>126.23685455322266</ele>
        <time>2016-09-21T13:40:19.000Z</time>
      </trkpt>
      <trkpt lon="0.5690182447433472" lat="49.4219627380371094">
        <ele>126.33223724365234</ele>
        <time>2016-09-21T13:40:22.000Z</time>
      </trkpt>
      <trkpt lon="0.5690046548843384" lat="49.4218521118164062">
        <ele>126.42391204833984</ele>
        <time>2016-09-21T13:40:25.000Z</time>
      </trkpt>
      <trkpt lon="0.5689958333969116" lat="49.4217758178710938">
        <ele>126.51435852050781</ele>
        <time>2016-09-21T13:40:27.000Z</time>
      </trkpt>
      <trkpt lon="0.5689787864685059" lat="49.4216537475585938">
        <ele>126.60746002197266</ele>
        <time>2016-09-21T13:40:30.000Z</time>
      </trkpt>
      <trkpt lon="0.5689640045166016" lat="49.4215736389160156">
        <ele>126.68135833740234</ele>
        <time>2016-09-21T13:40:32.000Z</time>
      </trkpt>
      <trkpt lon="0.5689423680305481" lat="49.4214439392089844">
        <ele>126.7363052368164</ele>
        <time>2016-09-21T13:40:35.000Z</time>
      </trkpt>
      <trkpt lon="0.5689277052879333" lat="49.4213142395019531">
        <ele>126.7777099609375</ele>
        <time>2016-09-21T13:40:38.000Z</time>
      </trkpt>
      <trkpt lon="0.5689167976379395" lat="49.4212265014648438">
        <ele>126.8114242553711</ele>
        <time>2016-09-21T13:40:40.000Z</time>
      </trkpt>
      <trkpt lon="0.5688994526863098" lat="49.4210968017578125">
        <ele>126.83555603027344</ele>
        <time>2016-09-21T13:40:43.000Z</time>
      </trkpt>
      <trkpt lon="0.5688837170600891" lat="49.4209709167480469">
        <ele>126.86750793457031</ele>
        <time>2016-09-21T13:40:46.000Z</time>
      </trkpt>
      <trkpt lon="0.5688555240631104" lat="49.4208450317382812">
        <ele>126.90583801269531</ele>
        <time>2016-09-21T13:40:49.000Z</time>
      </trkpt>
      <trkpt lon="0.5688381195068359" lat="49.4207611083984375">
        <ele>126.95645904541016</ele>
        <time>2016-09-21T13:40:51.000Z</time>
      </trkpt>
      <trkpt lon="0.5688133835792542" lat="49.4206314086914062">
        <ele>127.03369140625</ele>
        <time>2016-09-21T13:40:54.000Z</time>
      </trkpt>
      <trkpt lon="0.5688035488128662" lat="49.4205131530761719">
        <ele>127.13118743896484</ele>
        <time>2016-09-21T13:40:57.000Z</time>
      </trkpt>
      <trkpt lon="0.5688014626502991" lat="49.4204330444335938">
        <ele>127.2381591796875</ele>
        <time>2016-09-21T13:40:59.000Z</time>
      </trkpt>
      <trkpt lon="0.5688041448593140" lat="49.4203529357910156">
        <ele>127.3544921875</ele>
        <time>2016-09-21T13:41:01.000Z</time>
      </trkpt>
      <trkpt lon="0.5688049793243408" lat="49.4202346801757812">
        <ele>127.48046875</ele>
        <time>2016-09-21T13:41:04.000Z</time>
      </trkpt>
      <trkpt lon="0.5688061714172363" lat="49.4201583862304688">
        <ele>127.59375</ele>
        <time>2016-09-21T13:41:06.000Z</time>
      </trkpt>
      <trkpt lon="0.5687946081161499" lat="49.4200401306152344">
        <ele>127.70703125</ele>
        <time>2016-09-21T13:41:09.000Z</time>
      </trkpt>
      <trkpt lon="0.5687907338142395" lat="49.4199485778808594">
        <ele>127.82861328125</ele>
        <time>2016-09-21T13:41:11.000Z</time>
      </trkpt>
      <trkpt lon="0.5687893033027649" lat="49.4198150634765625">
        <ele>127.9775161743164</ele>
        <time>2016-09-21T13:41:14.000Z</time>
      </trkpt>
      <trkpt lon="0.5687709450721741" lat="49.4196853637695312">
        <ele>128.14515686035156</ele>
        <time>2016-09-21T13:41:17.000Z</time>
      </trkpt>
      <trkpt lon="0.5687633156776428" lat="49.4195556640625000">
        <ele>128.34129333496094</ele>
        <time>2016-09-21T13:41:20.000Z</time>
      </trkpt>
      <trkpt lon="0.5687574744224548" lat="49.4194412231445312">
        <ele>128.55064392089844</ele>
        <time>2016-09-21T13:41:23.000Z</time>
      </trkpt>
      <trkpt lon="0.5687636137008667" lat="49.4193229675292969">
        <ele>128.77415466308594</ele>
        <time>2016-09-21T13:41:26.000Z</time>
      </trkpt>
      <trkpt lon="0.5687820911407471" lat="49.4192085266113281">
        <ele>128.98721313476562</ele>
        <time>2016-09-21T13:41:29.000Z</time>
      </trkpt>
      <trkpt lon="0.5687854886054993" lat="49.4190902709960938">
        <ele>129.14129638671875</ele>
        <time>2016-09-21T13:41:32.000Z</time>
      </trkpt>
      <trkpt lon="0.5688178539276123" lat="49.4189567565917969">
        <ele>129.19554138183594</ele>
        <time>2016-09-21T13:41:35.000Z</time>
      </trkpt>
      <trkpt lon="0.5688247680664062" lat="49.4188766479492188">
        <ele>129.1794891357422</ele>
        <time>2016-09-21T13:41:37.000Z</time>
      </trkpt>
      <trkpt lon="0.5688410401344299" lat="49.4187927246093750">
        <ele>129.0913543701172</ele>
        <time>2016-09-21T13:41:39.000Z</time>
      </trkpt>
      <trkpt lon="0.5688580870628357" lat="49.4186668395996094">
        <ele>128.92445373535156</ele>
        <time>2016-09-21T13:41:42.000Z</time>
      </trkpt>
      <trkpt lon="0.5688636898994446" lat="49.4185791015625000">
        <ele>128.73959350585938</ele>
        <time>2016-09-21T13:41:44.000Z</time>
      </trkpt>
      <trkpt lon="0.5689221024513245" lat="49.4184722900390625">
        <ele>128.57052612304688</ele>
        <time>2016-09-21T13:41:46.000Z</time>
      </trkpt>
      <trkpt lon="0.5689883232116699" lat="49.4183731079101562">
        <ele>128.39794921875</ele>
        <time>2016-09-21T13:41:48.000Z</time>
      </trkpt>
      <trkpt lon="0.5690160393714905" lat="49.4182395935058594">
        <ele>128.1870574951172</ele>
        <time>2016-09-21T13:41:51.000Z</time>
      </trkpt>
      <trkpt lon="0.5687276124954224" lat="49.4181900024414062">
        <ele>128.00912475585938</ele>
        <time>2016-09-21T13:41:54.000Z</time>
      </trkpt>
      <trkpt lon="0.5685229301452637" lat="49.4181518554687500">
        <ele>127.8653335571289</ele>
        <time>2016-09-21T13:41:57.000Z</time>
      </trkpt>
      <trkpt lon="0.5683910250663757" lat="49.4181098937988281">
        <ele>127.76118469238281</ele>
        <time>2016-09-21T13:41:59.000Z</time>
      </trkpt>
      <trkpt lon="0.5682090520858765" lat="49.4180564880371094">
        <ele>127.69386291503906</ele>
        <time>2016-09-21T13:42:02.000Z</time>
      </trkpt>
      <trkpt lon="0.5680077075958252" lat="49.4179992675781250">
        <ele>127.70353698730469</ele>
        <time>2016-09-21T13:42:05.000Z</time>
      </trkpt>
      <trkpt lon="0.5678793787956238" lat="49.4179763793945312">
        <ele>127.73226165771484</ele>
        <time>2016-09-21T13:42:07.000Z</time>
      </trkpt>
      <trkpt lon="0.5677542686462402" lat="49.4179458618164062">
        <ele>127.76715087890625</ele>
        <time>2016-09-21T13:42:09.000Z</time>
      </trkpt>
      <trkpt lon="0.5675642490386963" lat="49.4178848266601562">
        <ele>127.81953430175781</ele>
        <time>2016-09-21T13:42:12.000Z</time>
      </trkpt>
      <trkpt lon="0.5674262642860413" lat="49.4178543090820312">
        <ele>127.90092468261719</ele>
        <time>2016-09-21T13:42:14.000Z</time>
      </trkpt>
      <trkpt lon="0.5673060417175293" lat="49.4178085327148438">
        <ele>128.01336669921875</ele>
        <time>2016-09-21T13:42:16.000Z</time>
      </trkpt>
      <trkpt lon="0.5670831799507141" lat="49.4177627563476562">
        <ele>128.18370056152344</ele>
        <time>2016-09-21T13:42:19.000Z</time>
      </trkpt>
      <trkpt lon="0.5669466257095337" lat="49.4177284240722656">
        <ele>128.38145446777344</ele>
        <time>2016-09-21T13:42:21.000Z</time>
      </trkpt>
      <trkpt lon="0.5667551159858704" lat="49.4176788330078125">
        <ele>128.60714721679688</ele>
        <time>2016-09-21T13:42:24.000Z</time>
      </trkpt>
      <trkpt lon="0.5665521025657654" lat="49.4176292419433594">
        <ele>128.81765747070312</ele>
        <time>2016-09-21T13:42:27.000Z</time>
      </trkpt>
      <trkpt lon="0.5664039850234985" lat="49.4175910949707031">
        <ele>128.9822998046875</ele>
        <time>2016-09-21T13:42:29.000Z</time>
      </trkpt>
      <trkpt lon="0.5662283301353455" lat="49.4175224304199219">
        <ele>129.05865478515625</ele>
        <time>2016-09-21T13:42:32.000Z</time>
      </trkpt>
      <trkpt lon="0.5660040974617004" lat="49.4174766540527344">
        <ele>129.076904296875</ele>
        <time>2016-09-21T13:42:35.000Z</time>
      </trkpt>
      <trkpt lon="0.5657923221588135" lat="49.4174232482910156">
        <ele>129.0237274169922</ele>
        <time>2016-09-21T13:42:38.000Z</time>
      </trkpt>
      <trkpt lon="0.5655846595764160" lat="49.4173774719238281">
        <ele>128.93844604492188</ele>
        <time>2016-09-21T13:42:41.000Z</time>
      </trkpt>
      <trkpt lon="0.5654231309890747" lat="49.4173393249511719">
        <ele>128.851318359375</ele>
        <time>2016-09-21T13:42:43.000Z</time>
      </trkpt>
      <trkpt lon="0.5651866197586060" lat="49.4173011779785156">
        <ele>128.78524780273438</ele>
        <time>2016-09-21T13:42:46.000Z</time>
      </trkpt>
      <trkpt lon="0.5650248527526855" lat="49.4172630310058594">
        <ele>128.73959350585938</ele>
        <time>2016-09-21T13:42:48.000Z</time>
      </trkpt>
      <trkpt lon="0.5647486448287964" lat="49.4172248840332031">
        <ele>128.70919799804688</ele>
        <time>2016-09-21T13:42:51.000Z</time>
      </trkpt>
      <trkpt lon="0.5644756555557251" lat="49.4171752929687500">
        <ele>128.68080139160156</ele>
        <time>2016-09-21T13:42:54.000Z</time>
      </trkpt>
      <trkpt lon="0.5642923712730408" lat="49.4171333312988281">
        <ele>128.65170288085938</ele>
        <time>2016-09-21T13:42:56.000Z</time>
      </trkpt>
      <trkpt lon="0.5640388131141663" lat="49.4170532226562500">
        <ele>128.5885772705078</ele>
        <time>2016-09-21T13:42:59.000Z</time>
      </trkpt>
      <trkpt lon="0.5638042688369751" lat="49.4169883728027344">
        <ele>128.4903106689453</ele>
        <time>2016-09-21T13:43:02.000Z</time>
      </trkpt>
      <trkpt lon="0.5635654926300049" lat="49.4169120788574219">
        <ele>128.37283325195312</ele>
        <time>2016-09-21T13:43:05.000Z</time>
      </trkpt>
      <trkpt lon="0.5633252263069153" lat="49.4168357849121094">
        <ele>128.2488250732422</ele>
        <time>2016-09-21T13:43:08.000Z</time>
      </trkpt>
      <trkpt lon="0.5631419420242310" lat="49.4167900085449219">
        <ele>128.090576171875</ele>
        <time>2016-09-21T13:43:10.000Z</time>
      </trkpt>
      <trkpt lon="0.5628983378410339" lat="49.4167098999023438">
        <ele>127.90763854980469</ele>
        <time>2016-09-21T13:43:13.000Z</time>
      </trkpt>
      <trkpt lon="0.5626561045646667" lat="49.4166297912597656">
        <ele>127.69271087646484</ele>
        <time>2016-09-21T13:43:16.000Z</time>
      </trkpt>
      <trkpt lon="0.5624189376831055" lat="49.4165496826171875">
        <ele>127.4508285522461</ele>
        <time>2016-09-21T13:43:19.000Z</time>
      </trkpt>
      <trkpt lon="0.5622603297233582" lat="49.4164886474609375">
        <ele>127.22216796875</ele>
        <time>2016-09-21T13:43:21.000Z</time>
      </trkpt>
      <trkpt lon="0.5620380640029907" lat="49.4164085388183594">
        <ele>127.0406723022461</ele>
        <time>2016-09-21T13:43:24.000Z</time>
      </trkpt>
      <trkpt lon="0.5618795156478882" lat="49.4163513183593750">
        <ele>126.92562103271484</ele>
        <time>2016-09-21T13:43:26.000Z</time>
      </trkpt>
      <trkpt lon="0.5616581439971924" lat="49.4162445068359375">
        <ele>126.89591217041016</ele>
        <time>2016-09-21T13:43:29.000Z</time>
      </trkpt>
      <trkpt lon="0.5615320801734924" lat="49.4161682128906250">
        <ele>126.90223693847656</ele>
        <time>2016-09-21T13:43:31.000Z</time>
      </trkpt>
      <trkpt lon="0.5613726973533630" lat="49.4160308837890625">
        <ele>126.87910461425781</ele>
        <time>2016-09-21T13:43:34.000Z</time>
      </trkpt>
      <trkpt lon="0.5612858533859253" lat="49.4159393310546875">
        <ele>126.8266372680664</ele>
        <time>2016-09-21T13:43:36.000Z</time>
      </trkpt>
      <trkpt lon="0.5611808896064758" lat="49.4157791137695312">
        <ele>126.72413635253906</ele>
        <time>2016-09-21T13:43:39.000Z</time>
      </trkpt>
      <trkpt lon="0.5611148476600647" lat="49.4156112670898438">
        <ele>126.57484436035156</ele>
        <time>2016-09-21T13:43:42.000Z</time>
      </trkpt>
      <trkpt lon="0.5610321164131165" lat="49.4154663085937500">
        <ele>126.4207763671875</ele>
        <time>2016-09-21T13:43:45.000Z</time>
      </trkpt>
      <trkpt lon="0.5609819293022156" lat="49.4153709411621094">
        <ele>126.29048156738281</ele>
        <time>2016-09-21T13:43:47.000Z</time>
      </trkpt>
      <trkpt lon="0.5608471632003784" lat="49.4152717590332031">
        <ele>126.17143249511719</ele>
        <time>2016-09-21T13:43:49.000Z</time>
      </trkpt>
      <trkpt lon="0.5606827735900879" lat="49.4152374267578125">
        <ele>126.12953186035156</ele>
        <time>2016-09-21T13:43:51.000Z</time>
      </trkpt>
      <trkpt lon="0.5604356527328491" lat="49.4152450561523438">
        <ele>126.17529296875</ele>
        <time>2016-09-21T13:43:54.000Z</time>
      </trkpt>
      <trkpt lon="0.5602585673332214" lat="49.4152870178222656">
        <ele>126.28654479980469</ele>
        <time>2016-09-21T13:43:56.000Z</time>
      </trkpt>
      <trkpt lon="0.5599983930587769" lat="49.4153442382812500">
        <ele>126.47074890136719</ele>
        <time>2016-09-21T13:43:59.000Z</time>
      </trkpt>
      <trkpt lon="0.5598552227020264" lat="49.4153823852539062">
        <ele>126.685546875</ele>
        <time>2016-09-21T13:44:01.000Z</time>
      </trkpt>
      <trkpt lon="0.5596134066581726" lat="49.4154205322265625">
        <ele>126.8963623046875</ele>
        <time>2016-09-21T13:44:04.000Z</time>
      </trkpt>
      <trkpt lon="0.5593581199645996" lat="49.4154739379882812">
        <ele>127.08863830566406</ele>
        <time>2016-09-21T13:44:07.000Z</time>
      </trkpt>
      <trkpt lon="0.5591366291046143" lat="49.4155273437500000">
        <ele>127.2772445678711</ele>
        <time>2016-09-21T13:44:10.000Z</time>
      </trkpt>
      <trkpt lon="0.5588865280151367" lat="49.4155693054199219">
        <ele>127.41341400146484</ele>
        <time>2016-09-21T13:44:13.000Z</time>
      </trkpt>
      <trkpt lon="0.5587322115898132" lat="49.4156112670898438">
        <ele>127.54460144042969</ele>
        <time>2016-09-21T13:44:15.000Z</time>
      </trkpt>
      <trkpt lon="0.5584848523139954" lat="49.4156723022460938">
        <ele>127.65938568115234</ele>
        <time>2016-09-21T13:44:18.000Z</time>
      </trkpt>
      <trkpt lon="0.5582506060600281" lat="49.4157180786132812">
        <ele>127.75578308105469</ele>
        <time>2016-09-21T13:44:21.000Z</time>
      </trkpt>
      <trkpt lon="0.5580909848213196" lat="49.4157562255859375">
        <ele>127.85227966308594</ele>
        <time>2016-09-21T13:44:23.000Z</time>
      </trkpt>
      <trkpt lon="0.5578742623329163" lat="49.4158096313476562">
        <ele>128.0100860595703</ele>
        <time>2016-09-21T13:44:26.000Z</time>
      </trkpt>
      <trkpt lon="0.5577325820922852" lat="49.4158477783203125">
        <ele>128.20883178710938</ele>
        <time>2016-09-21T13:44:28.000Z</time>
      </trkpt>
      <trkpt lon="0.5574926137924194" lat="49.4158935546875000">
        <ele>128.4597930908203</ele>
        <time>2016-09-21T13:44:31.000Z</time>
      </trkpt>
      <trkpt lon="0.5573454499244690" lat="49.4159355163574219">
        <ele>128.66281127929688</ele>
        <time>2016-09-21T13:44:33.000Z</time>
      </trkpt>
      <trkpt lon="0.5571156144142151" lat="49.4159698486328125">
        <ele>128.78050231933594</ele>
        <time>2016-09-21T13:44:36.000Z</time>
      </trkpt>
      <trkpt lon="0.5569623708724976" lat="49.4160194396972656">
        <ele>128.80209350585938</ele>
        <time>2016-09-21T13:44:38.000Z</time>
      </trkpt>
      <trkpt lon="0.5567058324813843" lat="49.4160995483398438">
        <ele>128.7299346923828</ele>
        <time>2016-09-21T13:44:41.000Z</time>
      </trkpt>
      <trkpt lon="0.5564267635345459" lat="49.4161453247070312">
        <ele>128.55624389648438</ele>
        <time>2016-09-21T13:44:44.000Z</time>
      </trkpt>
      <trkpt lon="0.5562415122985840" lat="49.4161796569824219">
        <ele>128.3921661376953</ele>
        <time>2016-09-21T13:44:46.000Z</time>
      </trkpt>
      <trkpt lon="0.5560160875320435" lat="49.4162445068359375">
        <ele>128.2705535888672</ele>
        <time>2016-09-21T13:44:49.000Z</time>
      </trkpt>
      <trkpt lon="0.5558364987373352" lat="49.4162902832031250">
        <ele>128.17550659179688</ele>
        <time>2016-09-21T13:44:51.000Z</time>
      </trkpt>
      <trkpt lon="0.5554953217506409" lat="49.4163398742675781">
        <ele>128.06448364257812</ele>
        <time>2016-09-21T13:44:54.000Z</time>
      </trkpt>
      <trkpt lon="0.5552806258201599" lat="49.4163589477539062">
        <ele>127.94437408447266</ele>
        <time>2016-09-21T13:44:56.000Z</time>
      </trkpt>
      <trkpt lon="0.5550750494003296" lat="49.4163742065429688">
        <ele>127.79874420166016</ele>
        <time>2016-09-21T13:44:58.000Z</time>
      </trkpt>
      <trkpt lon="0.5547805428504944" lat="49.4164466857910156">
        <ele>127.58265686035156</ele>
        <time>2016-09-21T13:45:01.000Z</time>
      </trkpt>
      <trkpt lon="0.5545766353607178" lat="49.4164962768554688">
        <ele>127.2975845336914</ele>
        <time>2016-09-21T13:45:03.000Z</time>
      </trkpt>
      <trkpt lon="0.5543714761734009" lat="49.4165267944335938">
        <ele>126.99189758300781</ele>
        <time>2016-09-21T13:45:05.000Z</time>
      </trkpt>
      <trkpt lon="0.5541124343872070" lat="49.4165992736816406">
        <ele>126.64335632324219</ele>
        <time>2016-09-21T13:45:08.000Z</time>
      </trkpt>
      <trkpt lon="0.5538100004196167" lat="49.4166641235351562">
        <ele>126.2793960571289</ele>
        <time>2016-09-21T13:45:11.000Z</time>
      </trkpt>
      <trkpt lon="0.5535078048706055" lat="49.4167404174804688">
        <ele>125.904296875</ele>
        <time>2016-09-21T13:45:14.000Z</time>
      </trkpt>
      <trkpt lon="0.5533223748207092" lat="49.4167823791503906">
        <ele>125.54136657714844</ele>
        <time>2016-09-21T13:45:16.000Z</time>
      </trkpt>
      <trkpt lon="0.5531327724456787" lat="49.4168319702148438">
        <ele>125.24440002441406</ele>
        <time>2016-09-21T13:45:18.000Z</time>
      </trkpt>
      <trkpt lon="0.5529212355613708" lat="49.4168815612792969">
        <ele>125.02225494384766</ele>
        <time>2016-09-21T13:45:20.000Z</time>
      </trkpt>
      <trkpt lon="0.5527220368385315" lat="49.4169235229492188">
        <ele>124.8473129272461</ele>
        <time>2016-09-21T13:45:22.000Z</time>
      </trkpt>
      <trkpt lon="0.5525285005569458" lat="49.4169578552246094">
        <ele>124.7490234375</ele>
        <time>2016-09-21T13:45:24.000Z</time>
      </trkpt>
      <trkpt lon="0.5522251129150391" lat="49.4170112609863281">
        <ele>124.693359375</ele>
        <time>2016-09-21T13:45:27.000Z</time>
      </trkpt>
      <trkpt lon="0.5519163608551025" lat="49.4170570373535156">
        <ele>124.6396484375</ele>
        <time>2016-09-21T13:45:30.000Z</time>
      </trkpt>
      <trkpt lon="0.5516266822814941" lat="49.4170875549316406">
        <ele>124.5860595703125</ele>
        <time>2016-09-21T13:45:33.000Z</time>
      </trkpt>
      <trkpt lon="0.5514188408851624" lat="49.4171066284179688">
        <ele>124.51399230957031</ele>
        <time>2016-09-21T13:45:35.000Z</time>
      </trkpt>
      <trkpt lon="0.5511626005172729" lat="49.4171562194824219">
        <ele>124.4170150756836</ele>
        <time>2016-09-21T13:45:38.000Z</time>
      </trkpt>
      <trkpt lon="0.5509194731712341" lat="49.4172134399414062">
        <ele>124.30717468261719</ele>
        <time>2016-09-21T13:45:41.000Z</time>
      </trkpt>
      <trkpt lon="0.5506390929222107" lat="49.4172439575195312">
        <ele>124.24755859375</ele>
        <time>2016-09-21T13:45:44.000Z</time>
      </trkpt>
      <trkpt lon="0.5504785776138306" lat="49.4172630310058594">
        <ele>124.23805236816406</ele>
        <time>2016-09-21T13:45:46.000Z</time>
      </trkpt>
      <trkpt lon="0.5502956509590149" lat="49.4172668457031250">
        <ele>124.3006820678711</ele>
        <time>2016-09-21T13:45:48.000Z</time>
      </trkpt>
      <trkpt lon="0.5499987602233887" lat="49.4172744750976562">
        <ele>124.4676513671875</ele>
        <time>2016-09-21T13:45:51.000Z</time>
      </trkpt>
      <trkpt lon="0.5498058199882507" lat="49.4172821044921875">
        <ele>124.6139144897461</ele>
        <time>2016-09-21T13:45:53.000Z</time>
      </trkpt>
      <trkpt lon="0.5495306253433228" lat="49.4173049926757812">
        <ele>124.6546401977539</ele>
        <time>2016-09-21T13:45:56.000Z</time>
      </trkpt>
      <trkpt lon="0.5492433309555054" lat="49.4172782897949219">
        <ele>124.587890625</ele>
        <time>2016-09-21T13:45:59.000Z</time>
      </trkpt>
      <trkpt lon="0.5490776300430298" lat="49.4172744750976562">
        <ele>124.41219329833984</ele>
        <time>2016-09-21T13:46:01.000Z</time>
      </trkpt>
      <trkpt lon="0.5487915873527527" lat="49.4172668457031250">
        <ele>124.017333984375</ele>
        <time>2016-09-21T13:46:04.000Z</time>
      </trkpt>
      <trkpt lon="0.5486258864402771" lat="49.4172515869140625">
        <ele>123.59016418457031</ele>
        <time>2016-09-21T13:46:06.000Z</time>
      </trkpt>
      <trkpt lon="0.5484477281570435" lat="49.4172744750976562">
        <ele>123.126220703125</ele>
        <time>2016-09-21T13:46:08.000Z</time>
      </trkpt>
      <trkpt lon="0.5481297969818115" lat="49.4172859191894531">
        <ele>122.6861572265625</ele>
        <time>2016-09-21T13:46:11.000Z</time>
      </trkpt>
      <trkpt lon="0.5479317903518677" lat="49.4172859191894531">
        <ele>122.33418273925781</ele>
        <time>2016-09-21T13:46:13.000Z</time>
      </trkpt>
      <trkpt lon="0.5477864742279053" lat="49.4173011779785156">
        <ele>122.1410140991211</ele>
        <time>2016-09-21T13:46:15.000Z</time>
      </trkpt>
      <trkpt lon="0.5474914908409119" lat="49.4173202514648438">
        <ele>122.05712890625</ele>
        <time>2016-09-21T13:46:18.000Z</time>
      </trkpt>
      <trkpt lon="0.5472243428230286" lat="49.4173126220703125">
        <ele>122.06365966796875</ele>
        <time>2016-09-21T13:46:21.000Z</time>
      </trkpt>
      <trkpt lon="0.5470399856567383" lat="49.4173316955566406">
        <ele>122.10359191894531</ele>
        <time>2016-09-21T13:46:23.000Z</time>
      </trkpt>
      <trkpt lon="0.5467367768287659" lat="49.4173278808593750">
        <ele>122.10575103759766</ele>
        <time>2016-09-21T13:46:26.000Z</time>
      </trkpt>
      <trkpt lon="0.5463747978210449" lat="49.4173164367675781">
        <ele>122.07875061035156</ele>
        <time>2016-09-21T13:46:29.000Z</time>
      </trkpt>
      <trkpt lon="0.5461491346359253" lat="49.4173049926757812">
        <ele>122.0074234008789</ele>
        <time>2016-09-21T13:46:31.000Z</time>
      </trkpt>
      <trkpt lon="0.5458097457885742" lat="49.4173240661621094">
        <ele>121.9300308227539</ele>
        <time>2016-09-21T13:46:34.000Z</time>
      </trkpt>
      <trkpt lon="0.5455877184867859" lat="49.4173355102539062">
        <ele>121.81295013427734</ele>
        <time>2016-09-21T13:46:36.000Z</time>
      </trkpt>
      <trkpt lon="0.5452969670295715" lat="49.4173851013183594">
        <ele>121.653564453125</ele>
        <time>2016-09-21T13:46:39.000Z</time>
      </trkpt>
      <trkpt lon="0.5450184941291809" lat="49.4174613952636719">
        <ele>121.4637680053711</ele>
        <time>2016-09-21T13:46:42.000Z</time>
      </trkpt>
      <trkpt lon="0.5447493791580200" lat="49.4175453186035156">
        <ele>121.22496032714844</ele>
        <time>2016-09-21T13:46:45.000Z</time>
      </trkpt>
      <trkpt lon="0.5445870161056519" lat="49.4176139831542969">
        <ele>120.95939636230469</ele>
        <time>2016-09-21T13:46:47.000Z</time>
      </trkpt>
      <trkpt lon="0.5444467663764954" lat="49.4176635742187500">
        <ele>120.71221923828125</ele>
        <time>2016-09-21T13:46:49.000Z</time>
      </trkpt>
      <trkpt lon="0.5443450212478638" lat="49.4177131652832031">
        <ele>120.5</ele>
        <time>2016-09-21T13:46:51.000Z</time>
      </trkpt>
      <trkpt lon="0.5442408919334412" lat="49.4177589416503906">
        <ele>120.31742858886719</ele>
        <time>2016-09-21T13:46:54.000Z</time>
      </trkpt>
      <trkpt lon="0.5441745519638062" lat="49.4177856445312500">
        <ele>120.18647766113281</ele>
        <time>2016-09-21T13:46:56.000Z</time>
      </trkpt>
      <trkpt lon="0.5441211462020874" lat="49.4178161621093750">
        <ele>120.0994873046875</ele>
        <time>2016-09-21T13:46:58.000Z</time>
      </trkpt>
      <trkpt lon="0.5439432859420776" lat="49.4177665710449219">
        <ele>120.04545593261719</ele>
        <time>2016-09-21T13:47:01.000Z</time>
      </trkpt>
      <trkpt lon="0.5437865257263184" lat="49.4175834655761719">
        <ele>120.01356506347656</ele>
        <time>2016-09-21T13:47:04.000Z</time>
      </trkpt>
      <trkpt lon="0.5436400771141052" lat="49.4174652099609375">
        <ele>120.0012435913086</ele>
        <time>2016-09-21T13:47:07.000Z</time>
      </trkpt>
      <trkpt lon="0.5435093641281128" lat="49.4173583984375000">
        <ele>120.0</ele>
        <time>2016-09-21T13:47:10.000Z</time>
      </trkpt>
      <trkpt lon="0.5434744954109192" lat="49.4172554016113281">
        <ele>120.0</ele>
        <time>2016-09-21T13:47:12.000Z</time>
      </trkpt>
      <trkpt lon="0.5434491038322449" lat="49.4171180725097656">
        <ele>120.0</ele>
        <time>2016-09-21T13:47:15.000Z</time>
      </trkpt>
      <trkpt lon="0.5434401035308838" lat="49.4169540405273438">
        <ele>120.0</ele>
        <time>2016-09-21T13:47:18.000Z</time>
      </trkpt>
      <trkpt lon="0.5434098243713379" lat="49.4166030883789062">
        <ele>120.0014419555664</ele>
        <time>2016-09-21T13:47:24.000Z</time>
      </trkpt>
      <trkpt lon="0.5433794856071472" lat="49.4164886474609375">
        <ele>120.0038070678711</ele>
        <time>2016-09-21T13:47:26.000Z</time>
      </trkpt>
      <trkpt lon="0.5433024764060974" lat="49.4163284301757812">
        <ele>120.0068130493164</ele>
        <time>2016-09-21T13:47:29.000Z</time>
      </trkpt>
      <trkpt lon="0.5431753396987915" lat="49.4162254333496094">
        <ele>120.02681732177734</ele>
        <time>2016-09-21T13:47:31.000Z</time>
      </trkpt>
      <trkpt lon="0.5429891347885132" lat="49.4160728454589844">
        <ele>120.08570861816406</ele>
        <time>2016-09-21T13:47:34.000Z</time>
      </trkpt>
      <trkpt lon="0.5428242683410645" lat="49.4159278869628906">
        <ele>120.19283294677734</ele>
        <time>2016-09-21T13:47:37.000Z</time>
      </trkpt>
      <trkpt lon="0.5427194237709045" lat="49.4158172607421875">
        <ele>120.33888244628906</ele>
        <time>2016-09-21T13:47:39.000Z</time>
      </trkpt>
      <trkpt lon="0.5426090955734253" lat="49.4157142639160156">
        <ele>120.513427734375</ele>
        <time>2016-09-21T13:47:41.000Z</time>
      </trkpt>
      <trkpt lon="0.5424495339393616" lat="49.4155921936035156">
        <ele>120.73490142822266</ele>
        <time>2016-09-21T13:47:44.000Z</time>
      </trkpt>
      <trkpt lon="0.5423513650894165" lat="49.4154930114746094">
        <ele>120.98973083496094</ele>
        <time>2016-09-21T13:47:46.000Z</time>
      </trkpt>
      <trkpt lon="0.5422353148460388" lat="49.4154205322265625">
        <ele>121.2724838256836</ele>
        <time>2016-09-21T13:47:48.000Z</time>
      </trkpt>
      <trkpt lon="0.5421307086944580" lat="49.4153442382812500">
        <ele>121.57453918457031</ele>
        <time>2016-09-21T13:47:50.000Z</time>
      </trkpt>
      <trkpt lon="0.5420173406600952" lat="49.4152450561523438">
        <ele>121.89720153808594</ele>
        <time>2016-09-21T13:47:52.000Z</time>
      </trkpt>
      <trkpt lon="0.5418419241905212" lat="49.4151115417480469">
        <ele>122.21415710449219</ele>
        <time>2016-09-21T13:47:55.000Z</time>
      </trkpt>
      <trkpt lon="0.5416685938835144" lat="49.4149971008300781">
        <ele>122.49796295166016</ele>
        <time>2016-09-21T13:47:58.000Z</time>
      </trkpt>
      <trkpt lon="0.5415490865707397" lat="49.4149131774902344">
        <ele>122.6794662475586</ele>
        <time>2016-09-21T13:48:00.000Z</time>
      </trkpt>
      <trkpt lon="0.5413583517074585" lat="49.4147872924804688">
        <ele>122.77229309082031</ele>
        <time>2016-09-21T13:48:03.000Z</time>
      </trkpt>
      <trkpt lon="0.5412335991859436" lat="49.4147109985351562">
        <ele>122.80106353759766</ele>
        <time>2016-09-21T13:48:05.000Z</time>
      </trkpt>
      <trkpt lon="0.5411232709884644" lat="49.4146308898925781">
        <ele>122.7503433227539</ele>
        <time>2016-09-21T13:48:07.000Z</time>
      </trkpt>
      <trkpt lon="0.5409831404685974" lat="49.4144935607910156">
        <ele>122.594970703125</ele>
        <time>2016-09-21T13:48:10.000Z</time>
      </trkpt>
      <trkpt lon="0.5409120321273804" lat="49.4143905639648438">
        <ele>122.4007568359375</ele>
        <time>2016-09-21T13:48:12.000Z</time>
      </trkpt>
      <trkpt lon="0.5408251881599426" lat="49.4142189025878906">
        <ele>122.10909271240234</ele>
        <time>2016-09-21T13:48:15.000Z</time>
      </trkpt>
      <trkpt lon="0.5407394766807556" lat="49.4140701293945312">
        <ele>121.79691314697266</ele>
        <time>2016-09-21T13:48:18.000Z</time>
      </trkpt>
      <trkpt lon="0.5406811833381653" lat="49.4139595031738281">
        <ele>121.4947738647461</ele>
        <time>2016-09-21T13:48:20.000Z</time>
      </trkpt>
      <trkpt lon="0.5406298041343689" lat="49.4137954711914062">
        <ele>121.2171630859375</ele>
        <time>2016-09-21T13:48:23.000Z</time>
      </trkpt>
      <trkpt lon="0.5405849218368530" lat="49.4136810302734375">
        <ele>120.9713363647461</ele>
        <time>2016-09-21T13:48:25.000Z</time>
      </trkpt>
      <trkpt lon="0.5405385494232178" lat="49.4135665893554688">
        <ele>120.81510162353516</ele>
        <time>2016-09-21T13:48:27.000Z</time>
      </trkpt>
      <trkpt lon="0.5404766798019409" lat="49.4133949279785156">
        <ele>120.6258316040039</ele>
        <time>2016-09-21T13:48:30.000Z</time>
      </trkpt>
      <trkpt lon="0.5404335856437683" lat="49.4132919311523438">
        <ele>120.43980407714844</ele>
        <time>2016-09-21T13:48:32.000Z</time>
      </trkpt>
      <trkpt lon="0.5403773784637451" lat="49.4131774902343750">
        <ele>120.34747314453125</ele>
        <time>2016-09-21T13:48:34.000Z</time>
      </trkpt>
      <trkpt lon="0.5403217673301697" lat="49.4130096435546875">
        <ele>120.352783203125</ele>
        <time>2016-09-21T13:48:37.000Z</time>
      </trkpt>
      <trkpt lon="0.5402782559394836" lat="49.4129142761230469">
        <ele>120.4248275756836</ele>
        <time>2016-09-21T13:48:39.000Z</time>
      </trkpt>
      <trkpt lon="0.5402271747589111" lat="49.4128227233886719">
        <ele>120.58712005615234</ele>
        <time>2016-09-21T13:48:41.000Z</time>
      </trkpt>
      <trkpt lon="0.5401278138160706" lat="49.4126586914062500">
        <ele>120.7791748046875</ele>
        <time>2016-09-21T13:48:44.000Z</time>
      </trkpt>
      <trkpt lon="0.5400351881980896" lat="49.4124946594238281">
        <ele>120.92378234863281</ele>
        <time>2016-09-21T13:48:47.000Z</time>
      </trkpt>
      <trkpt lon="0.5399771928787231" lat="49.4123840332031250">
        <ele>120.9747085571289</ele>
        <time>2016-09-21T13:48:49.000Z</time>
      </trkpt>
      <trkpt lon="0.5399282574653625" lat="49.4122734069824219">
        <ele>120.97283935546875</ele>
        <time>2016-09-21T13:48:51.000Z</time>
      </trkpt>
      <trkpt lon="0.5398436188697815" lat="49.4121170043945312">
        <ele>120.9079360961914</ele>
        <time>2016-09-21T13:48:54.000Z</time>
      </trkpt>
      <trkpt lon="0.5397642850875854" lat="49.4119453430175781">
        <ele>120.78321838378906</ele>
        <time>2016-09-21T13:48:57.000Z</time>
      </trkpt>
      <trkpt lon="0.5396707653999329" lat="49.4117889404296875">
        <ele>120.6083755493164</ele>
        <time>2016-09-21T13:49:00.000Z</time>
      </trkpt>
      <trkpt lon="0.5396158695220947" lat="49.4116783142089844">
        <ele>120.4349365234375</ele>
        <time>2016-09-21T13:49:02.000Z</time>
      </trkpt>
      <trkpt lon="0.5395589470863342" lat="49.4115676879882812">
        <ele>120.341064453125</ele>
        <time>2016-09-21T13:49:04.000Z</time>
      </trkpt>
      <trkpt lon="0.5394733548164368" lat="49.4113883972167969">
        <ele>120.40522766113281</ele>
        <time>2016-09-21T13:49:07.000Z</time>
      </trkpt>
      <trkpt lon="0.5393992066383362" lat="49.4112205505371094">
        <ele>120.62679290771484</ele>
        <time>2016-09-21T13:49:10.000Z</time>
      </trkpt>
      <trkpt lon="0.5393610596656799" lat="49.4111022949218750">
        <ele>120.99018859863281</ele>
        <time>2016-09-21T13:49:12.000Z</time>
      </trkpt>
      <trkpt lon="0.5392992496490479" lat="49.4109420776367188">
        <ele>121.5066146850586</ele>
        <time>2016-09-21T13:49:15.000Z</time>
      </trkpt>
      <trkpt lon="0.5392498970031738" lat="49.4108352661132812">
        <ele>122.05262756347656</ele>
        <time>2016-09-21T13:49:17.000Z</time>
      </trkpt>
      <trkpt lon="0.5392156243324280" lat="49.4107246398925781">
        <ele>122.4995346069336</ele>
        <time>2016-09-21T13:49:19.000Z</time>
      </trkpt>
      <trkpt lon="0.5391795039176941" lat="49.4105606079101562">
        <ele>122.85899353027344</ele>
        <time>2016-09-21T13:49:22.000Z</time>
      </trkpt>
      <trkpt lon="0.5391618013381958" lat="49.4104461669921875">
        <ele>123.14555358886719</ele>
        <time>2016-09-21T13:49:24.000Z</time>
      </trkpt>
      <trkpt lon="0.5391371846199036" lat="49.4102706909179688">
        <ele>123.34407806396484</ele>
        <time>2016-09-21T13:49:27.000Z</time>
      </trkpt>
      <trkpt lon="0.5391370654106140" lat="49.4100799560546875">
        <ele>123.50608825683594</ele>
        <time>2016-09-21T13:49:30.000Z</time>
      </trkpt>
      <trkpt lon="0.5391298532485962" lat="49.4098281860351562">
        <ele>123.5887222290039</ele>
        <time>2016-09-21T13:49:33.000Z</time>
      </trkpt>
      <trkpt lon="0.5391169786453247" lat="49.4096870422363281">
        <ele>123.57568359375</ele>
        <time>2016-09-21T13:49:35.000Z</time>
      </trkpt>
      <trkpt lon="0.5391234159469604" lat="49.4095306396484375">
        <ele>123.4638442993164</ele>
        <time>2016-09-21T13:49:37.000Z</time>
      </trkpt>
      <trkpt lon="0.5391281247138977" lat="49.4092979431152344">
        <ele>123.20396423339844</ele>
        <time>2016-09-21T13:49:40.000Z</time>
      </trkpt>
      <trkpt lon="0.5391592383384705" lat="49.4090805053710938">
        <ele>122.8263931274414</ele>
        <time>2016-09-21T13:49:43.000Z</time>
      </trkpt>
      <trkpt lon="0.5391308665275574" lat="49.4088821411132812">
        <ele>122.522216796875</ele>
        <time>2016-09-21T13:49:46.000Z</time>
      </trkpt>
      <trkpt lon="0.5390331745147705" lat="49.4087142944335938">
        <ele>122.33406066894531</ele>
        <time>2016-09-21T13:49:49.000Z</time>
      </trkpt>
      <trkpt lon="0.5389615893363953" lat="49.4085578918457031">
        <ele>122.27519226074219</ele>
        <time>2016-09-21T13:49:52.000Z</time>
      </trkpt>
      <trkpt lon="0.5389007329940796" lat="49.4084548950195312">
        <ele>122.37725830078125</ele>
        <time>2016-09-21T13:49:54.000Z</time>
      </trkpt>
      <trkpt lon="0.5388471484184265" lat="49.4083480834960938">
        <ele>122.6021728515625</ele>
        <time>2016-09-21T13:49:56.000Z</time>
      </trkpt>
      <trkpt lon="0.5388068556785583" lat="49.4082298278808594">
        <ele>122.79408264160156</ele>
        <time>2016-09-21T13:49:58.000Z</time>
      </trkpt>
      <trkpt lon="0.5387523770332336" lat="49.4081230163574219">
        <ele>122.8994369506836</ele>
        <time>2016-09-21T13:50:00.000Z</time>
      </trkpt>
      <trkpt lon="0.5387037992477417" lat="49.4079513549804688">
        <ele>122.85655212402344</ele>
        <time>2016-09-21T13:50:03.000Z</time>
      </trkpt>
      <trkpt lon="0.5386734008789062" lat="49.4078521728515625">
        <ele>122.6978988647461</ele>
        <time>2016-09-21T13:50:05.000Z</time>
      </trkpt>
      <trkpt lon="0.5386353731155396" lat="49.4077072143554688">
        <ele>122.37397766113281</ele>
        <time>2016-09-21T13:50:08.000Z</time>
      </trkpt>
      <trkpt lon="0.5386635661125183" lat="49.4075431823730469">
        <ele>121.95796203613281</ele>
        <time>2016-09-21T13:50:11.000Z</time>
      </trkpt>
      <trkpt lon="0.5387045741081238" lat="49.4073944091796875">
        <ele>121.57547760009766</ele>
        <time>2016-09-21T13:50:14.000Z</time>
      </trkpt>
      <trkpt lon="0.5387714505195618" lat="49.4072265625000000">
        <ele>121.3419418334961</ele>
        <time>2016-09-21T13:50:17.000Z</time>
      </trkpt>
      <trkpt lon="0.5387811064720154" lat="49.4070777893066406">
        <ele>121.19743347167969</ele>
        <time>2016-09-21T13:50:20.000Z</time>
      </trkpt>
      <trkpt lon="0.5388292074203491" lat="49.4068946838378906">
        <ele>121.21905517578125</ele>
        <time>2016-09-21T13:50:23.000Z</time>
      </trkpt>
      <trkpt lon="0.5388473272323608" lat="49.4067916870117188">
        <ele>121.38037109375</ele>
        <time>2016-09-21T13:50:25.000Z</time>
      </trkpt>
      <trkpt lon="0.5388384461402893" lat="49.4066886901855469">
        <ele>121.5511703491211</ele>
        <time>2016-09-21T13:50:27.000Z</time>
      </trkpt>
      <trkpt lon="0.5388205051422119" lat="49.4065399169921875">
        <ele>121.7948989868164</ele>
        <time>2016-09-21T13:50:30.000Z</time>
      </trkpt>
      <trkpt lon="0.5388383865356445" lat="49.4063606262207031">
        <ele>122.2102279663086</ele>
        <time>2016-09-21T13:50:33.000Z</time>
      </trkpt>
      <trkpt lon="0.5388318896293640" lat="49.4062156677246094">
        <ele>122.7199478149414</ele>
        <time>2016-09-21T13:50:36.000Z</time>
      </trkpt>
      <trkpt lon="0.5388482213020325" lat="49.4060668945312500">
        <ele>123.35693359375</ele>
        <time>2016-09-21T13:50:39.000Z</time>
      </trkpt>
      <trkpt lon="0.5388153791427612" lat="49.4059333801269531">
        <ele>124.1415786743164</ele>
        <time>2016-09-21T13:50:42.000Z</time>
      </trkpt>
      <trkpt lon="0.5388017892837524" lat="49.4058456420898438">
        <ele>124.9004135131836</ele>
        <time>2016-09-21T13:50:44.000Z</time>
      </trkpt>
      <trkpt lon="0.5387456417083740" lat="49.4057044982910156">
        <ele>125.41044616699219</ele>
        <time>2016-09-21T13:50:47.000Z</time>
      </trkpt>
      <trkpt lon="0.5386564135551453" lat="49.4056282043457031">
        <ele>125.76487731933594</ele>
        <time>2016-09-21T13:50:49.000Z</time>
      </trkpt>
      <trkpt lon="0.5386098623275757" lat="49.4055328369140625">
        <ele>125.91346740722656</ele>
        <time>2016-09-21T13:50:51.000Z</time>
      </trkpt>
      <trkpt lon="0.5385728478431702" lat="49.4054260253906250">
        <ele>125.83491516113281</ele>
        <time>2016-09-21T13:50:53.000Z</time>
      </trkpt>
      <trkpt lon="0.5385204553604126" lat="49.4053382873535156">
        <ele>125.60450744628906</ele>
        <time>2016-09-21T13:50:55.000Z</time>
      </trkpt>
      <trkpt lon="0.5384857058525085" lat="49.4052467346191406">
        <ele>125.36077880859375</ele>
        <time>2016-09-21T13:50:57.000Z</time>
      </trkpt>
      <trkpt lon="0.5384055972099304" lat="49.4051322937011719">
        <ele>125.06026458740234</ele>
        <time>2016-09-21T13:51:00.000Z</time>
      </trkpt>
      <trkpt lon="0.5383121371269226" lat="49.4050445556640625">
        <ele>124.78065490722656</ele>
        <time>2016-09-21T13:51:02.000Z</time>
      </trkpt>
      <trkpt lon="0.5381899476051331" lat="49.4049263000488281">
        <ele>124.60601806640625</ele>
        <time>2016-09-21T13:51:05.000Z</time>
      </trkpt>
      <trkpt lon="0.5381326675415039" lat="49.4048347473144531">
        <ele>124.51289367675781</ele>
        <time>2016-09-21T13:51:07.000Z</time>
      </trkpt>
      <trkpt lon="0.5380181074142456" lat="49.4047050476074219">
        <ele>124.5712890625</ele>
        <time>2016-09-21T13:51:10.000Z</time>
      </trkpt>
      <trkpt lon="0.5378747582435608" lat="49.4045600891113281">
        <ele>124.82371520996094</ele>
        <time>2016-09-21T13:51:13.000Z</time>
      </trkpt>
      <trkpt lon="0.5377963185310364" lat="49.4044799804687500">
        <ele>125.18878173828125</ele>
        <time>2016-09-21T13:51:15.000Z</time>
      </trkpt>
      <trkpt lon="0.5376576185226440" lat="49.4043502807617188">
        <ele>125.68050384521484</ele>
        <time>2016-09-21T13:51:18.000Z</time>
      </trkpt>
      <trkpt lon="0.5375816822052002" lat="49.4042663574218750">
        <ele>126.23979187011719</ele>
        <time>2016-09-21T13:51:20.000Z</time>
      </trkpt>
      <trkpt lon="0.5375010967254639" lat="49.4041900634765625">
        <ele>126.82298278808594</ele>
        <time>2016-09-21T13:51:22.000Z</time>
      </trkpt>
      <trkpt lon="0.5374498963356018" lat="49.4040794372558594">
        <ele>127.20973205566406</ele>
        <time>2016-09-21T13:51:24.000Z</time>
      </trkpt>
      <trkpt lon="0.5373339653015137" lat="49.4039421081542969">
        <ele>127.3906478881836</ele>
        <time>2016-09-21T13:51:27.000Z</time>
      </trkpt>
      <trkpt lon="0.5372025370597839" lat="49.4038047790527344">
        <ele>127.26878356933594</ele>
        <time>2016-09-21T13:51:30.000Z</time>
      </trkpt>
      <trkpt lon="0.5371609926223755" lat="49.4037055969238281">
        <ele>126.93583679199219</ele>
        <time>2016-09-21T13:51:32.000Z</time>
      </trkpt>
      <trkpt lon="0.5370783805847168" lat="49.4035644531250000">
        <ele>126.3198013305664</ele>
        <time>2016-09-21T13:51:35.000Z</time>
      </trkpt>
      <trkpt lon="0.5370676517486572" lat="49.4034423828125000">
        <ele>125.620361328125</ele>
        <time>2016-09-21T13:51:37.000Z</time>
      </trkpt>
      <trkpt lon="0.5370260477066040" lat="49.4033088684082031">
        <ele>124.90904235839844</ele>
        <time>2016-09-21T13:51:39.000Z</time>
      </trkpt>
      <trkpt lon="0.5369340181350708" lat="49.4031715393066406">
        <ele>124.35078430175781</ele>
        <time>2016-09-21T13:51:42.000Z</time>
      </trkpt>
      <trkpt lon="0.5368948578834534" lat="49.4030685424804688">
        <ele>123.91905212402344</ele>
        <time>2016-09-21T13:51:44.000Z</time>
      </trkpt>
      <trkpt lon="0.5368387103080750" lat="49.4029197692871094">
        <ele>123.68235778808594</ele>
        <time>2016-09-21T13:51:47.000Z</time>
      </trkpt>
      <trkpt lon="0.5368037223815918" lat="49.4028129577636719">
        <ele>123.61236572265625</ele>
        <time>2016-09-21T13:51:49.000Z</time>
      </trkpt>
      <trkpt lon="0.5367915630340576" lat="49.4027099609375000">
        <ele>123.69964599609375</ele>
        <time>2016-09-21T13:51:51.000Z</time>
      </trkpt>
      <trkpt lon="0.5367617607116699" lat="49.4025611877441406">
        <ele>123.80477142333984</ele>
        <time>2016-09-21T13:51:54.000Z</time>
      </trkpt>
      <trkpt lon="0.5367597937583923" lat="49.4024620056152344">
        <ele>123.9239730834961</ele>
        <time>2016-09-21T13:51:56.000Z</time>
      </trkpt>
      <trkpt lon="0.5367528796195984" lat="49.4022865295410156">
        <ele>124.09100341796875</ele>
        <time>2016-09-21T13:51:59.000Z</time>
      </trkpt>
      <trkpt lon="0.5367922782897949" lat="49.4021644592285156">
        <ele>124.2876205444336</ele>
        <time>2016-09-21T13:52:01.000Z</time>
      </trkpt>
      <trkpt lon="0.5368798971176147" lat="49.4019851684570312">
        <ele>124.51133728027344</ele>
        <time>2016-09-21T13:52:04.000Z</time>
      </trkpt>
      <trkpt lon="0.5369212627410889" lat="49.4018287658691406">
        <ele>124.7388916015625</ele>
        <time>2016-09-21T13:52:07.000Z</time>
      </trkpt>
      <trkpt lon="0.5369724631309509" lat="49.4017028808593750">
        <ele>124.94708251953125</ele>
        <time>2016-09-21T13:52:09.000Z</time>
      </trkpt>
      <trkpt lon="0.5370188951492310" lat="49.4015350341796875">
        <ele>125.04756164550781</ele>
        <time>2016-09-21T13:52:12.000Z</time>
      </trkpt>
      <trkpt lon="0.5370734930038452" lat="49.4013671875000000">
        <ele>125.05909729003906</ele>
        <time>2016-09-21T13:52:15.000Z</time>
      </trkpt>
      <trkpt lon="0.5371030569076538" lat="49.4012527465820312">
        <ele>125.0037612915039</ele>
        <time>2016-09-21T13:52:17.000Z</time>
      </trkpt>
      <trkpt lon="0.5371016263961792" lat="49.4010887145996094">
        <ele>124.89884185791016</ele>
        <time>2016-09-21T13:52:20.000Z</time>
      </trkpt>
      <trkpt lon="0.5371100306510925" lat="49.4009246826171875">
        <ele>124.7681655883789</ele>
        <time>2016-09-21T13:52:23.000Z</time>
      </trkpt>
      <trkpt lon="0.5371000170707703" lat="49.4008140563964844">
        <ele>124.66004943847656</ele>
        <time>2016-09-21T13:52:25.000Z</time>
      </trkpt>
      <trkpt lon="0.5370780825614929" lat="49.4006385803222656">
        <ele>124.5452880859375</ele>
        <time>2016-09-21T13:52:28.000Z</time>
      </trkpt>
      <trkpt lon="0.5370285511016846" lat="49.4004745483398438">
        <ele>124.38716888427734</ele>
        <time>2016-09-21T13:52:31.000Z</time>
      </trkpt>
      <trkpt lon="0.5369743108749390" lat="49.4003105163574219">
        <ele>124.171142578125</ele>
        <time>2016-09-21T13:52:34.000Z</time>
      </trkpt>
      <trkpt lon="0.5369093418121338" lat="49.4001502990722656">
        <ele>123.8819351196289</ele>
        <time>2016-09-21T13:52:37.000Z</time>
      </trkpt>
      <trkpt lon="0.5368871092796326" lat="49.4000396728515625">
        <ele>123.5555191040039</ele>
        <time>2016-09-21T13:52:39.000Z</time>
      </trkpt>
      <trkpt lon="0.5368483066558838" lat="49.3998870849609375">
        <ele>123.25025939941406</ele>
        <time>2016-09-21T13:52:42.000Z</time>
      </trkpt>
      <trkpt lon="0.5368453264236450" lat="49.3997077941894531">
        <ele>123.02921295166016</ele>
        <time>2016-09-21T13:52:45.000Z</time>
      </trkpt>
      <trkpt lon="0.5368583798408508" lat="49.3996047973632812">
        <ele>122.9032211303711</ele>
        <time>2016-09-21T13:52:47.000Z</time>
      </trkpt>
      <trkpt lon="0.5368647575378418" lat="49.3995094299316406">
        <ele>122.88187408447266</ele>
        <time>2016-09-21T13:52:49.000Z</time>
      </trkpt>
      <trkpt lon="0.5368599891662598" lat="49.3993415832519531">
        <ele>122.93278503417969</ele>
        <time>2016-09-21T13:52:52.000Z</time>
      </trkpt>
      <trkpt lon="0.5368932485580444" lat="49.3992233276367188">
        <ele>123.0348129272461</ele>
        <time>2016-09-21T13:52:54.000Z</time>
      </trkpt>
      <trkpt lon="0.5368761420249939" lat="49.3991050720214844">
        <ele>123.13851165771484</ele>
        <time>2016-09-21T13:52:56.000Z</time>
      </trkpt>
      <trkpt lon="0.5368663668632507" lat="49.3989524841308594">
        <ele>123.27479553222656</ele>
        <time>2016-09-21T13:52:59.000Z</time>
      </trkpt>
      <trkpt lon="0.5368835330009460" lat="49.3988571166992188">
        <ele>123.4323501586914</ele>
        <time>2016-09-21T13:53:01.000Z</time>
      </trkpt>
      <trkpt lon="0.5368945002555847" lat="49.3986968994140625">
        <ele>123.62650299072266</ele>
        <time>2016-09-21T13:53:04.000Z</time>
      </trkpt>
      <trkpt lon="0.5369008183479309" lat="49.3986053466796875">
        <ele>123.82853698730469</ele>
        <time>2016-09-21T13:53:06.000Z</time>
      </trkpt>
      <trkpt lon="0.5369054079055786" lat="49.3984603881835938">
        <ele>124.05470275878906</ele>
        <time>2016-09-21T13:53:09.000Z</time>
      </trkpt>
      <trkpt lon="0.5368931889533997" lat="49.3982925415039062">
        <ele>124.30534362792969</ele>
        <time>2016-09-21T13:53:12.000Z</time>
      </trkpt>
      <trkpt lon="0.5369272232055664" lat="49.3982009887695312">
        <ele>124.5755844116211</ele>
        <time>2016-09-21T13:53:14.000Z</time>
      </trkpt>
      <trkpt lon="0.5369035005569458" lat="49.3980445861816406">
        <ele>124.9097671508789</ele>
        <time>2016-09-21T13:53:17.000Z</time>
      </trkpt>
      <trkpt lon="0.5368970036506653" lat="49.3978958129882812">
        <ele>125.31884765625</ele>
        <time>2016-09-21T13:53:20.000Z</time>
      </trkpt>
      <trkpt lon="0.5368843078613281" lat="49.3977470397949219">
        <ele>125.79100036621094</ele>
        <time>2016-09-21T13:53:23.000Z</time>
      </trkpt>
      <trkpt lon="0.5368600487709045" lat="49.3976135253906250">
        <ele>126.2853012084961</ele>
        <time>2016-09-21T13:53:26.000Z</time>
      </trkpt>
      <trkpt lon="0.5368310809135437" lat="49.3974761962890625">
        <ele>126.81236267089844</ele>
        <time>2016-09-21T13:53:29.000Z</time>
      </trkpt>
      <trkpt lon="0.5368040800094604" lat="49.3973999023437500">
        <ele>127.22309875488281</ele>
        <time>2016-09-21T13:53:31.000Z</time>
      </trkpt>
      <trkpt lon="0.5367795228958130" lat="49.3973274230957031">
        <ele>127.531005859375</ele>
        <time>2016-09-21T13:53:33.000Z</time>
      </trkpt>
      <trkpt lon="0.5367500185966492" lat="49.3972091674804688">
        <ele>127.73319244384766</ele>
        <time>2016-09-21T13:53:36.000Z</time>
      </trkpt>
      <trkpt lon="0.5367129445075989" lat="49.3971023559570312">
        <ele>127.84638977050781</ele>
        <time>2016-09-21T13:53:39.000Z</time>
      </trkpt>
      <trkpt lon="0.5366711616516113" lat="49.3969955444335938">
        <ele>127.88519287109375</ele>
        <time>2016-09-21T13:53:42.000Z</time>
      </trkpt>
      <trkpt lon="0.5366519093513489" lat="49.3969230651855469">
        <ele>127.91615295410156</ele>
        <time>2016-09-21T13:53:44.000Z</time>
      </trkpt>
      <trkpt lon="0.5366200208663940" lat="49.3968162536621094">
        <ele>127.92850494384766</ele>
        <time>2016-09-21T13:53:47.000Z</time>
      </trkpt>
      <trkpt lon="0.5365955233573914" lat="49.3967437744140625">
        <ele>127.92295837402344</ele>
        <time>2016-09-21T13:53:49.000Z</time>
      </trkpt>
      <trkpt lon="0.5365542769432068" lat="49.3966407775878906">
        <ele>127.88542175292969</ele>
        <time>2016-09-21T13:53:52.000Z</time>
      </trkpt>
      <trkpt lon="0.5365136265754700" lat="49.3965377807617188">
        <ele>127.813720703125</ele>
        <time>2016-09-21T13:53:55.000Z</time>
      </trkpt>
      <trkpt lon="0.5364977121353149" lat="49.3964729309082031">
        <ele>127.73860168457031</ele>
        <time>2016-09-21T13:53:57.000Z</time>
      </trkpt>
      <trkpt lon="0.5364795327186584" lat="49.3963851928710938">
        <ele>127.66911315917969</ele>
        <time>2016-09-21T13:54:00.000Z</time>
      </trkpt>
      <trkpt lon="0.5364596843719482" lat="49.3963241577148438">
        <ele>127.602294921875</ele>
        <time>2016-09-21T13:54:02.000Z</time>
      </trkpt>
      <trkpt lon="0.5364472270011902" lat="49.3962326049804688">
        <ele>127.5509033203125</ele>
        <time>2016-09-21T13:54:05.000Z</time>
      </trkpt>
      <trkpt lon="0.5364417433738708" lat="49.3961677551269531">
        <ele>127.5163803100586</ele>
        <time>2016-09-21T13:54:07.000Z</time>
      </trkpt>
      <trkpt lon="0.5364302396774292" lat="49.3961029052734375">
        <ele>127.4840087890625</ele>
        <time>2016-09-21T13:54:09.000Z</time>
      </trkpt>
      <trkpt lon="0.5364178419113159" lat="49.3960418701171875">
        <ele>127.45440673828125</ele>
        <time>2016-09-21T13:54:11.000Z</time>
      </trkpt>
      <trkpt lon="0.5363827943801880" lat="49.3959503173828125">
        <ele>127.4175033569336</ele>
        <time>2016-09-21T13:54:14.000Z</time>
      </trkpt>
      <trkpt lon="0.5363433957099915" lat="49.3958511352539062">
        <ele>127.36767578125</ele>
        <time>2016-09-21T13:54:17.000Z</time>
      </trkpt>
      <trkpt lon="0.5363008379936218" lat="49.3957481384277344">
        <ele>127.33856201171875</ele>
        <time>2016-09-21T13:54:20.000Z</time>
      </trkpt>
      <trkpt lon="0.5362784266471863" lat="49.3956794738769531">
        <ele>127.3373794555664</ele>
        <time>2016-09-21T13:54:22.000Z</time>
      </trkpt>
      <trkpt lon="0.5362476706504822" lat="49.3955764770507812">
        <ele>127.37908935546875</ele>
        <time>2016-09-21T13:54:25.000Z</time>
      </trkpt>
      <trkpt lon="0.5362193584442139" lat="49.3954734802246094">
        <ele>127.47883605957031</ele>
        <time>2016-09-21T13:54:28.000Z</time>
      </trkpt>
      <trkpt lon="0.5361851453781128" lat="49.3953628540039062">
        <ele>127.6470718383789</ele>
        <time>2016-09-21T13:54:31.000Z</time>
      </trkpt>
      <trkpt lon="0.5361455678939819" lat="49.3952484130859375">
        <ele>127.85052490234375</ele>
        <time>2016-09-21T13:54:34.000Z</time>
      </trkpt>
      <trkpt lon="0.5361053347587585" lat="49.3951263427734375">
        <ele>128.0946044921875</ele>
        <time>2016-09-21T13:54:37.000Z</time>
      </trkpt>
      <trkpt lon="0.5360823869705200" lat="49.3950424194335938">
        <ele>128.3469696044922</ele>
        <time>2016-09-21T13:54:39.000Z</time>
      </trkpt>
      <trkpt lon="0.5360491275787354" lat="49.3949165344238281">
        <ele>128.57839965820312</ele>
        <time>2016-09-21T13:54:42.000Z</time>
      </trkpt>
      <trkpt lon="0.5360268950462341" lat="49.3948402404785156">
        <ele>128.75643920898438</ele>
        <time>2016-09-21T13:54:44.000Z</time>
      </trkpt>
      <trkpt lon="0.5359909534454346" lat="49.3947219848632812">
        <ele>128.87747192382812</ele>
        <time>2016-09-21T13:54:47.000Z</time>
      </trkpt>
      <trkpt lon="0.5359621644020081" lat="49.3946380615234375">
        <ele>128.93460083007812</ele>
        <time>2016-09-21T13:54:49.000Z</time>
      </trkpt>
      <trkpt lon="0.5359253883361816" lat="49.3945045471191406">
        <ele>128.94674682617188</ele>
        <time>2016-09-21T13:54:52.000Z</time>
      </trkpt>
      <trkpt lon="0.5359215140342712" lat="49.3944015502929688">
        <ele>128.9366455078125</ele>
        <time>2016-09-21T13:54:54.000Z</time>
      </trkpt>
      <trkpt lon="0.5358639359474182" lat="49.3942260742187500">
        <ele>128.93870544433594</ele>
        <time>2016-09-21T13:54:57.000Z</time>
      </trkpt>
      <trkpt lon="0.5357675552368164" lat="49.3940582275390625">
        <ele>128.8919219970703</ele>
        <time>2016-09-21T13:55:00.000Z</time>
      </trkpt>
      <trkpt lon="0.5357148647308350" lat="49.3939437866210938">
        <ele>128.78782653808594</ele>
        <time>2016-09-21T13:55:02.000Z</time>
      </trkpt>
      <trkpt lon="0.5356519818305969" lat="49.3937454223632812">
        <ele>128.59100341796875</ele>
        <time>2016-09-21T13:55:05.000Z</time>
      </trkpt>
      <trkpt lon="0.5355940461158752" lat="49.3935737609863281">
        <ele>128.30860900878906</ele>
        <time>2016-09-21T13:55:08.000Z</time>
      </trkpt>
      <trkpt lon="0.5355597138404846" lat="49.3934478759765625">
        <ele>127.95527648925781</ele>
        <time>2016-09-21T13:55:10.000Z</time>
      </trkpt>
      <trkpt lon="0.5355381369590759" lat="49.3933067321777344">
        <ele>127.6025390625</ele>
        <time>2016-09-21T13:55:12.000Z</time>
      </trkpt>
      <trkpt lon="0.5354895591735840" lat="49.3931541442871094">
        <ele>127.28267669677734</ele>
        <time>2016-09-21T13:55:14.000Z</time>
      </trkpt>
      <trkpt lon="0.5354065299034119" lat="49.3929252624511719">
        <ele>127.03810119628906</ele>
        <time>2016-09-21T13:55:17.000Z</time>
      </trkpt>
      <trkpt lon="0.5353585481643677" lat="49.3927879333496094">
        <ele>126.88639831542969</ele>
        <time>2016-09-21T13:55:19.000Z</time>
      </trkpt>
      <trkpt lon="0.5352915525436401" lat="49.3925476074218750">
        <ele>126.83616638183594</ele>
        <time>2016-09-21T13:55:22.000Z</time>
      </trkpt>
      <trkpt lon="0.5352628231048584" lat="49.3923797607421875">
        <ele>126.83912658691406</ele>
        <time>2016-09-21T13:55:24.000Z</time>
      </trkpt>
      <trkpt lon="0.5351808071136475" lat="49.3921546936035156">
        <ele>126.85856628417969</ele>
        <time>2016-09-21T13:55:27.000Z</time>
      </trkpt>
      <trkpt lon="0.5350990891456604" lat="49.3919105529785156">
        <ele>126.8963394165039</ele>
        <time>2016-09-21T13:55:30.000Z</time>
      </trkpt>
      <trkpt lon="0.5350424647331238" lat="49.3917427062988281">
        <ele>126.9364013671875</ele>
        <time>2016-09-21T13:55:32.000Z</time>
      </trkpt>
      <trkpt lon="0.5349659919738770" lat="49.3915557861328125">
        <ele>126.8799057006836</ele>
        <time>2016-09-21T13:55:35.000Z</time>
      </trkpt>
      <trkpt lon="0.5348801016807556" lat="49.3913383483886719">
        <ele>126.69609069824219</ele>
        <time>2016-09-21T13:55:38.000Z</time>
      </trkpt>
      <trkpt lon="0.5347848534584045" lat="49.3911209106445312">
        <ele>126.41664123535156</ele>
        <time>2016-09-21T13:55:41.000Z</time>
      </trkpt>
      <trkpt lon="0.5346726179122925" lat="49.3909263610839844">
        <ele>126.06050109863281</ele>
        <time>2016-09-21T13:55:44.000Z</time>
      </trkpt>
      <trkpt lon="0.5345513224601746" lat="49.3907165527343750">
        <ele>125.6148910522461</ele>
        <time>2016-09-21T13:55:47.000Z</time>
      </trkpt>
      <trkpt lon="0.5344649553298950" lat="49.3905830383300781">
        <ele>125.17923736572266</ele>
        <time>2016-09-21T13:55:49.000Z</time>
      </trkpt>
      <trkpt lon="0.5343275666236877" lat="49.3903770446777344">
        <ele>124.8203353881836</ele>
        <time>2016-09-21T13:55:52.000Z</time>
      </trkpt>
      <trkpt lon="0.5342062711715698" lat="49.3901748657226562">
        <ele>124.5443115234375</ele>
        <time>2016-09-21T13:55:55.000Z</time>
      </trkpt>
      <trkpt lon="0.5341382622718811" lat="49.3900489807128906">
        <ele>124.32783508300781</ele>
        <time>2016-09-21T13:55:57.000Z</time>
      </trkpt>
      <trkpt lon="0.5340057611465454" lat="49.3898696899414062">
        <ele>124.18266296386719</ele>
        <time>2016-09-21T13:56:00.000Z</time>
      </trkpt>
      <trkpt lon="0.5338827371597290" lat="49.3896903991699219">
        <ele>124.08522033691406</ele>
        <time>2016-09-21T13:56:03.000Z</time>
      </trkpt>
      <trkpt lon="0.5337803959846497" lat="49.3894958496093750">
        <ele>124.037109375</ele>
        <time>2016-09-21T13:56:06.000Z</time>
      </trkpt>
      <trkpt lon="0.5336634516716003" lat="49.3893127441406250">
        <ele>124.01054382324219</ele>
        <time>2016-09-21T13:56:09.000Z</time>
      </trkpt>
      <trkpt lon="0.5335558056831360" lat="49.3891181945800781">
        <ele>123.97734069824219</ele>
        <time>2016-09-21T13:56:12.000Z</time>
      </trkpt>
      <trkpt lon="0.5334808230400085" lat="49.3889274597167969">
        <ele>123.8628921508789</ele>
        <time>2016-09-21T13:56:15.000Z</time>
      </trkpt>
      <trkpt lon="0.5334349870681763" lat="49.3887977600097656">
        <ele>123.6859359741211</ele>
        <time>2016-09-21T13:56:17.000Z</time>
      </trkpt>
      <trkpt lon="0.5333815813064575" lat="49.3886032104492188">
        <ele>123.41523742675781</ele>
        <time>2016-09-21T13:56:20.000Z</time>
      </trkpt>
      <trkpt lon="0.5333589315414429" lat="49.3884735107421875">
        <ele>123.08203125</ele>
        <time>2016-09-21T13:56:22.000Z</time>
      </trkpt>
      <trkpt lon="0.5333055257797241" lat="49.3882904052734375">
        <ele>122.73878479003906</ele>
        <time>2016-09-21T13:56:25.000Z</time>
      </trkpt>
      <trkpt lon="0.5333132743835449" lat="49.3881072998046875">
        <ele>122.5705337524414</ele>
        <time>2016-09-21T13:56:28.000Z</time>
      </trkpt>
      <trkpt lon="0.5332897901535034" lat="49.3880043029785156">
        <ele>122.52207946777344</ele>
        <time>2016-09-21T13:56:30.000Z</time>
      </trkpt>
      <trkpt lon="0.5333147644996643" lat="49.3878250122070312">
        <ele>122.6427230834961</ele>
        <time>2016-09-21T13:56:33.000Z</time>
      </trkpt>
      <trkpt lon="0.5333038568496704" lat="49.3877105712890625">
        <ele>122.88323974609375</ele>
        <time>2016-09-21T13:56:35.000Z</time>
      </trkpt>
      <trkpt lon="0.5332866311073303" lat="49.3874969482421875">
        <ele>123.26121520996094</ele>
        <time>2016-09-21T13:56:38.000Z</time>
      </trkpt>
      <trkpt lon="0.5332425236701965" lat="49.3873558044433594">
        <ele>123.59244537353516</ele>
        <time>2016-09-21T13:56:41.000Z</time>
      </trkpt>
      <trkpt lon="0.5332944989204407" lat="49.3871879577636719">
        <ele>123.8953628540039</ele>
        <time>2016-09-21T13:56:44.000Z</time>
      </trkpt>
      <trkpt lon="0.5333161354064941" lat="49.3870010375976562">
        <ele>124.1646957397461</ele>
        <time>2016-09-21T13:56:47.000Z</time>
      </trkpt>
      <trkpt lon="0.5332953333854675" lat="49.3868904113769531">
        <ele>124.39964294433594</ele>
        <time>2016-09-21T13:56:49.000Z</time>
      </trkpt>
      <trkpt lon="0.5332424044609070" lat="49.3867340087890625">
        <ele>124.55293273925781</ele>
        <time>2016-09-21T13:56:52.000Z</time>
      </trkpt>
      <trkpt lon="0.5332149267196655" lat="49.3866310119628906">
        <ele>124.6849594116211</ele>
        <time>2016-09-21T13:56:54.000Z</time>
      </trkpt>
      <trkpt lon="0.5331918597221375" lat="49.3865127563476562">
        <ele>124.8108139038086</ele>
        <time>2016-09-21T13:56:56.000Z</time>
      </trkpt>
      <trkpt lon="0.5331893563270569" lat="49.3863410949707031">
        <ele>124.9352798461914</ele>
        <time>2016-09-21T13:56:59.000Z</time>
      </trkpt>
      <trkpt lon="0.5331838130950928" lat="49.3861808776855469">
        <ele>125.07356262207031</ele>
        <time>2016-09-21T13:57:02.000Z</time>
      </trkpt>
      <trkpt lon="0.5331609845161438" lat="49.3860549926757812">
        <ele>125.21351623535156</ele>
        <time>2016-09-21T13:57:04.000Z</time>
      </trkpt>
      <trkpt lon="0.5331428647041321" lat="49.3858871459960938">
        <ele>125.37394714355469</ele>
        <time>2016-09-21T13:57:07.000Z</time>
      </trkpt>
      <trkpt lon="0.5331450104713440" lat="49.3857803344726562">
        <ele>125.5123291015625</ele>
        <time>2016-09-21T13:57:09.000Z</time>
      </trkpt>
      <trkpt lon="0.5331142544746399" lat="49.3856544494628906">
        <ele>125.5726089477539</ele>
        <time>2016-09-21T13:57:11.000Z</time>
      </trkpt>
      <trkpt lon="0.5330343246459961" lat="49.3854598999023438">
        <ele>125.53108215332031</ele>
        <time>2016-09-21T13:57:14.000Z</time>
      </trkpt>
      <trkpt lon="0.5329899787902832" lat="49.3853492736816406">
        <ele>125.4267578125</ele>
        <time>2016-09-21T13:57:16.000Z</time>
      </trkpt>
      <trkpt lon="0.5329592227935791" lat="49.3852386474609375">
        <ele>125.25300598144531</ele>
        <time>2016-09-21T13:57:18.000Z</time>
      </trkpt>
      <trkpt lon="0.5329031944274902" lat="49.3851051330566406">
        <ele>125.03285217285156</ele>
        <time>2016-09-21T13:57:20.000Z</time>
      </trkpt>
      <trkpt lon="0.5328177213668823" lat="49.3849487304687500">
        <ele>124.7927474975586</ele>
        <time>2016-09-21T13:57:23.000Z</time>
      </trkpt>
      <trkpt lon="0.5327566862106323" lat="49.3848419189453125">
        <ele>124.5776596069336</ele>
        <time>2016-09-21T13:57:25.000Z</time>
      </trkpt>
      <trkpt lon="0.5326858162879944" lat="49.3846626281738281">
        <ele>124.3405990600586</ele>
        <time>2016-09-21T13:57:28.000Z</time>
      </trkpt>
      <trkpt lon="0.5326183438301086" lat="49.3844833374023438">
        <ele>124.078125</ele>
        <time>2016-09-21T13:57:31.000Z</time>
      </trkpt>
      <trkpt lon="0.5325670242309570" lat="49.3843803405761719">
        <ele>123.82362365722656</ele>
        <time>2016-09-21T13:57:33.000Z</time>
      </trkpt>
      <trkpt lon="0.5324675440788269" lat="49.3841819763183594">
        <ele>123.55598449707031</ele>
        <time>2016-09-21T13:57:36.000Z</time>
      </trkpt>
      <trkpt lon="0.5323778986930847" lat="49.3840103149414062">
        <ele>123.24365234375</ele>
        <time>2016-09-21T13:57:39.000Z</time>
      </trkpt>
      <trkpt lon="0.5323359370231628" lat="49.3839225769042969">
        <ele>122.9580307006836</ele>
        <time>2016-09-21T13:57:41.000Z</time>
      </trkpt>
      <trkpt lon="0.5322783589363098" lat="49.3837585449218750">
        <ele>122.68174743652344</ele>
        <time>2016-09-21T13:57:44.000Z</time>
      </trkpt>
      <trkpt lon="0.5321940183639526" lat="49.3835792541503906">
        <ele>122.4142074584961</ele>
        <time>2016-09-21T13:57:47.000Z</time>
      </trkpt>
      <trkpt lon="0.5321344137191772" lat="49.3834686279296875">
        <ele>122.21541595458984</ele>
        <time>2016-09-21T13:57:49.000Z</time>
      </trkpt>
      <trkpt lon="0.5320753455162048" lat="49.3833541870117188">
        <ele>122.10997009277344</ele>
        <time>2016-09-21T13:57:51.000Z</time>
      </trkpt>
      <trkpt lon="0.5320255756378174" lat="49.3832359313964844">
        <ele>122.07955169677734</ele>
        <time>2016-09-21T13:57:53.000Z</time>
      </trkpt>
      <trkpt lon="0.5319590568542480" lat="49.3831253051757812">
        <ele>122.14569091796875</ele>
        <time>2016-09-21T13:57:55.000Z</time>
      </trkpt>
      <trkpt lon="0.5318685770034790" lat="49.3829498291015625">
        <ele>122.29373931884766</ele>
        <time>2016-09-21T13:57:58.000Z</time>
      </trkpt>
      <trkpt lon="0.5317919254302979" lat="49.3827934265136719">
        <ele>122.4751205444336</ele>
        <time>2016-09-21T13:58:01.000Z</time>
      </trkpt>
      <trkpt lon="0.5316998958587646" lat="49.3826332092285156">
        <ele>122.66644287109375</ele>
        <time>2016-09-21T13:58:04.000Z</time>
      </trkpt>
      <trkpt lon="0.5316287279129028" lat="49.3824768066406250">
        <ele>122.82315826416016</ele>
        <time>2016-09-21T13:58:07.000Z</time>
      </trkpt>
      <trkpt lon="0.5315546393394470" lat="49.3823356628417969">
        <ele>122.9572525024414</ele>
        <time>2016-09-21T13:58:10.000Z</time>
      </trkpt>
      <trkpt lon="0.5315139889717102" lat="49.3822135925292969">
        <ele>123.05311584472656</ele>
        <time>2016-09-21T13:58:12.000Z</time>
      </trkpt>
      <trkpt lon="0.5314394831657410" lat="49.3820648193359375">
        <ele>123.1218032836914</ele>
        <time>2016-09-21T13:58:15.000Z</time>
      </trkpt>
      <trkpt lon="0.5313771963119507" lat="49.3819694519042969">
        <ele>123.1631851196289</ele>
        <time>2016-09-21T13:58:17.000Z</time>
      </trkpt>
      <trkpt lon="0.5312983393669128" lat="49.3818168640136719">
        <ele>123.1776123046875</ele>
        <time>2016-09-21T13:58:20.000Z</time>
      </trkpt>
      <trkpt lon="0.5312227010726929" lat="49.3816642761230469">
        <ele>123.13641357421875</ele>
        <time>2016-09-21T13:58:23.000Z</time>
      </trkpt>
      <trkpt lon="0.5311357378959656" lat="49.3815078735351562">
        <ele>123.10111999511719</ele>
        <time>2016-09-21T13:58:26.000Z</time>
      </trkpt>
      <trkpt lon="0.5310569405555725" lat="49.3813552856445312">
        <ele>123.09004974365234</ele>
        <time>2016-09-21T13:58:29.000Z</time>
      </trkpt>
      <trkpt lon="0.5309792160987854" lat="49.3811950683593750">
        <ele>123.12870025634766</ele>
        <time>2016-09-21T13:58:32.000Z</time>
      </trkpt>
      <trkpt lon="0.5308893918991089" lat="49.3810272216796875">
        <ele>123.233642578125</ele>
        <time>2016-09-21T13:58:35.000Z</time>
      </trkpt>
      <trkpt lon="0.5307767391204834" lat="49.3808670043945312">
        <ele>123.4302978515625</ele>
        <time>2016-09-21T13:58:38.000Z</time>
      </trkpt>
      <trkpt lon="0.5306763052940369" lat="49.3807220458984375">
        <ele>123.65572357177734</ele>
        <time>2016-09-21T13:58:41.000Z</time>
      </trkpt>
      <trkpt lon="0.5305936932563782" lat="49.3806266784667969">
        <ele>123.8611831665039</ele>
        <time>2016-09-21T13:58:43.000Z</time>
      </trkpt>
      <trkpt lon="0.5304992794990540" lat="49.3805427551269531">
        <ele>124.01143646240234</ele>
        <time>2016-09-21T13:58:45.000Z</time>
      </trkpt>
      <trkpt lon="0.5304083228111267" lat="49.3803901672363281">
        <ele>124.08320617675781</ele>
        <time>2016-09-21T13:58:48.000Z</time>
      </trkpt>
      <trkpt lon="0.5302842259407043" lat="49.3802375793457031">
        <ele>124.0080337524414</ele>
        <time>2016-09-21T13:58:51.000Z</time>
      </trkpt>
      <trkpt lon="0.5301957726478577" lat="49.3801422119140625">
        <ele>123.798828125</ele>
        <time>2016-09-21T13:58:53.000Z</time>
      </trkpt>
      <trkpt lon="0.5301015377044678" lat="49.3800239562988281">
        <ele>123.46346282958984</ele>
        <time>2016-09-21T13:58:55.000Z</time>
      </trkpt>
      <trkpt lon="0.5299849510192871" lat="49.3798789978027344">
        <ele>123.0928955078125</ele>
        <time>2016-09-21T13:58:58.000Z</time>
      </trkpt>
      <trkpt lon="0.5298948884010315" lat="49.3797798156738281">
        <ele>122.7889633178711</ele>
        <time>2016-09-21T13:59:00.000Z</time>
      </trkpt>
      <trkpt lon="0.5298358798027039" lat="49.3796768188476562">
        <ele>122.60516357421875</ele>
        <time>2016-09-21T13:59:02.000Z</time>
      </trkpt>
      <trkpt lon="0.5297129750251770" lat="49.3795318603515625">
        <ele>122.52774810791016</ele>
        <time>2016-09-21T13:59:05.000Z</time>
      </trkpt>
      <trkpt lon="0.5296300649642944" lat="49.3794250488281250">
        <ele>122.57405090332031</ele>
        <time>2016-09-21T13:59:07.000Z</time>
      </trkpt>
      <trkpt lon="0.5294645428657532" lat="49.3792686462402344">
        <ele>122.64241790771484</ele>
        <time>2016-09-21T13:59:10.000Z</time>
      </trkpt>
      <trkpt lon="0.5293026566505432" lat="49.3791313171386719">
        <ele>122.6393814086914</ele>
        <time>2016-09-21T13:59:13.000Z</time>
      </trkpt>
      <trkpt lon="0.5291757583618164" lat="49.3789939880371094">
        <ele>122.6407241821289</ele>
        <time>2016-09-21T13:59:16.000Z</time>
      </trkpt>
      <trkpt lon="0.5290834903717041" lat="49.3788909912109375">
        <ele>122.68632507324219</ele>
        <time>2016-09-21T13:59:18.000Z</time>
      </trkpt>
      <trkpt lon="0.5289964079856873" lat="49.3788108825683594">
        <ele>122.77091979980469</ele>
        <time>2016-09-21T13:59:20.000Z</time>
      </trkpt>
      <trkpt lon="0.5288565158843994" lat="49.3786697387695312">
        <ele>122.95848083496094</ele>
        <time>2016-09-21T13:59:23.000Z</time>
      </trkpt>
      <trkpt lon="0.5287626385688782" lat="49.3785934448242188">
        <ele>123.2160415649414</ele>
        <time>2016-09-21T13:59:25.000Z</time>
      </trkpt>
      <trkpt lon="0.5286228060722351" lat="49.3784255981445312">
        <ele>123.5067367553711</ele>
        <time>2016-09-21T13:59:28.000Z</time>
      </trkpt>
      <trkpt lon="0.5285342335700989" lat="49.3783226013183594">
        <ele>123.76399230957031</ele>
        <time>2016-09-21T13:59:30.000Z</time>
      </trkpt>
      <trkpt lon="0.5284563899040222" lat="49.3782272338867188">
        <ele>123.9778060913086</ele>
        <time>2016-09-21T13:59:32.000Z</time>
      </trkpt>
      <trkpt lon="0.5283471345901489" lat="49.3780593872070312">
        <ele>124.132568359375</ele>
        <time>2016-09-21T13:59:35.000Z</time>
      </trkpt>
      <trkpt lon="0.5282978415489197" lat="49.3779487609863281">
        <ele>124.27364349365234</ele>
        <time>2016-09-21T13:59:37.000Z</time>
      </trkpt>
      <trkpt lon="0.5282490253448486" lat="49.3778457641601562">
        <ele>124.3654556274414</ele>
        <time>2016-09-21T13:59:39.000Z</time>
      </trkpt>
      <trkpt lon="0.5282015800476074" lat="49.3776550292968750">
        <ele>124.47309875488281</ele>
        <time>2016-09-21T13:59:42.000Z</time>
      </trkpt>
      <trkpt lon="0.5281609892845154" lat="49.3775291442871094">
        <ele>124.61279296875</ele>
        <time>2016-09-21T13:59:44.000Z</time>
      </trkpt>
      <trkpt lon="0.5280992388725281" lat="49.3773956298828125">
        <ele>124.7131576538086</ele>
        <time>2016-09-21T13:59:46.000Z</time>
      </trkpt>
      <trkpt lon="0.5280452966690063" lat="49.3772621154785156">
        <ele>124.7490234375</ele>
        <time>2016-09-21T13:59:48.000Z</time>
      </trkpt>
      <trkpt lon="0.5279564857482910" lat="49.3770751953125000">
        <ele>124.69194030761719</ele>
        <time>2016-09-21T13:59:51.000Z</time>
      </trkpt>
      <trkpt lon="0.5278549790382385" lat="49.3768768310546875">
        <ele>124.4986801147461</ele>
        <time>2016-09-21T13:59:54.000Z</time>
      </trkpt>
      <trkpt lon="0.5277881026268005" lat="49.3766670227050781">
        <ele>124.17741394042969</ele>
        <time>2016-09-21T13:59:57.000Z</time>
      </trkpt>
      <trkpt lon="0.5277122259140015" lat="49.3764877319335938">
        <ele>123.77496337890625</ele>
        <time>2016-09-21T14:00:00.000Z</time>
      </trkpt>
      <trkpt lon="0.5276759862899780" lat="49.3763542175292969">
        <ele>123.3443374633789</ele>
        <time>2016-09-21T14:00:02.000Z</time>
      </trkpt>
      <trkpt lon="0.5275787711143494" lat="49.3762283325195312">
        <ele>122.9011459350586</ele>
        <time>2016-09-21T14:00:04.000Z</time>
      </trkpt>
      <trkpt lon="0.5274999737739563" lat="49.3760261535644531">
        <ele>122.42912292480469</ele>
        <time>2016-09-21T14:00:07.000Z</time>
      </trkpt>
      <trkpt lon="0.5273646116256714" lat="49.3758392333984375">
        <ele>121.99398040771484</ele>
        <time>2016-09-21T14:00:10.000Z</time>
      </trkpt>
      <trkpt lon="0.5272071361541748" lat="49.3756446838378906">
        <ele>121.60710144042969</ele>
        <time>2016-09-21T14:00:13.000Z</time>
      </trkpt>
      <trkpt lon="0.5269847512245178" lat="49.3754768371582031">
        <ele>121.26664733886719</ele>
        <time>2016-09-21T14:00:16.000Z</time>
      </trkpt>
      <trkpt lon="0.5268710851669312" lat="49.3753471374511719">
        <ele>120.974853515625</ele>
        <time>2016-09-21T14:00:18.000Z</time>
      </trkpt>
      <trkpt lon="0.5266550779342651" lat="49.3751640319824219">
        <ele>120.76023864746094</ele>
        <time>2016-09-21T14:00:21.000Z</time>
      </trkpt>
      <trkpt lon="0.5264564156532288" lat="49.3749771118164062">
        <ele>120.51973724365234</ele>
        <time>2016-09-21T14:00:24.000Z</time>
      </trkpt>
      <trkpt lon="0.5262778401374817" lat="49.3747863769531250">
        <ele>120.29007720947266</ele>
        <time>2016-09-21T14:00:27.000Z</time>
      </trkpt>
      <trkpt lon="0.5261475443840027" lat="49.3746109008789062">
        <ele>120.04414367675781</ele>
        <time>2016-09-21T14:00:30.000Z</time>
      </trkpt>
      <trkpt lon="0.5260531902313232" lat="49.3744773864746094">
        <ele>119.80220031738281</ele>
        <time>2016-09-21T14:00:32.000Z</time>
      </trkpt>
      <trkpt lon="0.5259087085723877" lat="49.3742752075195312">
        <ele>119.55078125</ele>
        <time>2016-09-21T14:00:35.000Z</time>
      </trkpt>
      <trkpt lon="0.5258120298385620" lat="49.3741455078125000">
        <ele>119.36161804199219</ele>
        <time>2016-09-21T14:00:37.000Z</time>
      </trkpt>
      <trkpt lon="0.5256752371788025" lat="49.3739700317382812">
        <ele>119.24141693115234</ele>
        <time>2016-09-21T14:00:40.000Z</time>
      </trkpt>
      <trkpt lon="0.5255431532859802" lat="49.3737564086914062">
        <ele>119.17041015625</ele>
        <time>2016-09-21T14:00:43.000Z</time>
      </trkpt>
      <trkpt lon="0.5254304409027100" lat="49.3736267089843750">
        <ele>119.12921142578125</ele>
        <time>2016-09-21T14:00:45.000Z</time>
      </trkpt>
      <trkpt lon="0.5253488421440125" lat="49.3734779357910156">
        <ele>119.12324523925781</ele>
        <time>2016-09-21T14:00:47.000Z</time>
      </trkpt>
      <trkpt lon="0.5252074599266052" lat="49.3732757568359375">
        <ele>119.07957458496094</ele>
        <time>2016-09-21T14:00:50.000Z</time>
      </trkpt>
      <trkpt lon="0.5251067280769348" lat="49.3731346130371094">
        <ele>118.9148178100586</ele>
        <time>2016-09-21T14:00:52.000Z</time>
      </trkpt>
      <trkpt lon="0.5250113010406494" lat="49.3730087280273438">
        <ele>118.64802551269531</ele>
        <time>2016-09-21T14:00:54.000Z</time>
      </trkpt>
      <trkpt lon="0.5248278379440308" lat="49.3728256225585938">
        <ele>118.2586441040039</ele>
        <time>2016-09-21T14:00:57.000Z</time>
      </trkpt>
      <trkpt lon="0.5246680974960327" lat="49.3726387023925781">
        <ele>117.79209899902344</ele>
        <time>2016-09-21T14:01:00.000Z</time>
      </trkpt>
      <trkpt lon="0.5245597958564758" lat="49.3725013732910156">
        <ele>117.33720397949219</ele>
        <time>2016-09-21T14:01:02.000Z</time>
      </trkpt>
      <trkpt lon="0.5244364738464355" lat="49.3723831176757812">
        <ele>117.00740051269531</ele>
        <time>2016-09-21T14:01:04.000Z</time>
      </trkpt>
      <trkpt lon="0.5242804884910583" lat="49.3721885681152344">
        <ele>116.76749420166016</ele>
        <time>2016-09-21T14:01:07.000Z</time>
      </trkpt>
      <trkpt lon="0.5241271853446960" lat="49.3720054626464844">
        <ele>116.61763000488281</ele>
        <time>2016-09-21T14:01:10.000Z</time>
      </trkpt>
      <trkpt lon="0.5239990949630737" lat="49.3718872070312500">
        <ele>116.5677490234375</ele>
        <time>2016-09-21T14:01:12.000Z</time>
      </trkpt>
      <trkpt lon="0.5238422751426697" lat="49.3716964721679688">
        <ele>116.54896545410156</ele>
        <time>2016-09-21T14:01:15.000Z</time>
      </trkpt>
      <trkpt lon="0.5236742496490479" lat="49.3715095520019531">
        <ele>116.49479675292969</ele>
        <time>2016-09-21T14:01:18.000Z</time>
      </trkpt>
      <trkpt lon="0.5235636234283447" lat="49.3713722229003906">
        <ele>116.43990325927734</ele>
        <time>2016-09-21T14:01:20.000Z</time>
      </trkpt>
      <trkpt lon="0.5233910679817200" lat="49.3711700439453125">
        <ele>116.41253662109375</ele>
        <time>2016-09-21T14:01:23.000Z</time>
      </trkpt>
      <trkpt lon="0.5232963562011719" lat="49.3710250854492188">
        <ele>116.36351013183594</ele>
        <time>2016-09-21T14:01:25.000Z</time>
      </trkpt>
      <trkpt lon="0.5231217145919800" lat="49.3708267211914062">
        <ele>116.3208236694336</ele>
        <time>2016-09-21T14:01:28.000Z</time>
      </trkpt>
      <trkpt lon="0.5230202078819275" lat="49.3706893920898438">
        <ele>116.21315002441406</ele>
        <time>2016-09-21T14:01:30.000Z</time>
      </trkpt>
      <trkpt lon="0.5228873491287231" lat="49.3704719543457031">
        <ele>115.9858169555664</ele>
        <time>2016-09-21T14:01:33.000Z</time>
      </trkpt>
      <trkpt lon="0.5228011012077332" lat="49.3703231811523438">
        <ele>115.68013000488281</ele>
        <time>2016-09-21T14:01:35.000Z</time>
      </trkpt>
      <trkpt lon="0.5226519703865051" lat="49.3701019287109375">
        <ele>115.26153564453125</ele>
        <time>2016-09-21T14:01:38.000Z</time>
      </trkpt>
      <trkpt lon="0.5225100517272949" lat="49.3698959350585938">
        <ele>114.7403793334961</ele>
        <time>2016-09-21T14:01:41.000Z</time>
      </trkpt>
      <trkpt lon="0.5224089622497559" lat="49.3697509765625000">
        <ele>114.17314147949219</ele>
        <time>2016-09-21T14:01:43.000Z</time>
      </trkpt>
      <trkpt lon="0.5222911238670349" lat="49.3695526123046875">
        <ele>113.58084869384766</ele>
        <time>2016-09-21T14:01:46.000Z</time>
      </trkpt>
      <trkpt lon="0.5221439599990845" lat="49.3693504333496094">
        <ele>112.93388366699219</ele>
        <time>2016-09-21T14:01:49.000Z</time>
      </trkpt>
      <trkpt lon="0.5220384001731873" lat="49.3692207336425781">
        <ele>112.33018493652344</ele>
        <time>2016-09-21T14:01:51.000Z</time>
      </trkpt>
      <trkpt lon="0.5219609737396240" lat="49.3690834045410156">
        <ele>111.75955963134766</ele>
        <time>2016-09-21T14:01:53.000Z</time>
      </trkpt>
      <trkpt lon="0.5218214392662048" lat="49.3688964843750000">
        <ele>111.21244049072266</ele>
        <time>2016-09-21T14:01:56.000Z</time>
      </trkpt>
      <trkpt lon="0.5217385292053223" lat="49.3687629699707031">
        <ele>110.75593566894531</ele>
        <time>2016-09-21T14:01:58.000Z</time>
      </trkpt>
      <trkpt lon="0.5216167569160461" lat="49.3685684204101562">
        <ele>110.35347747802734</ele>
        <time>2016-09-21T14:02:01.000Z</time>
      </trkpt>
      <trkpt lon="0.5214956998825073" lat="49.3683700561523438">
        <ele>109.93934631347656</ele>
        <time>2016-09-21T14:02:04.000Z</time>
      </trkpt>
      <trkpt lon="0.5213436484336853" lat="49.3681564331054688">
        <ele>109.40898132324219</ele>
        <time>2016-09-21T14:02:07.000Z</time>
      </trkpt>
      <trkpt lon="0.5210626125335693" lat="49.3679428100585938">
        <ele>108.6676025390625</ele>
        <time>2016-09-21T14:02:10.000Z</time>
      </trkpt>
      <trkpt lon="0.5206937789916992" lat="49.3677673339843750">
        <ele>107.62931823730469</ele>
        <time>2016-09-21T14:02:13.000Z</time>
      </trkpt>
      <trkpt lon="0.5203165411949158" lat="49.3675651550292969">
        <ele>106.29791259765625</ele>
        <time>2016-09-21T14:02:16.000Z</time>
      </trkpt>
      <trkpt lon="0.5200964808464050" lat="49.3674354553222656">
        <ele>104.92350006103516</ele>
        <time>2016-09-21T14:02:18.000Z</time>
      </trkpt>
      <trkpt lon="0.5199098587036133" lat="49.3672904968261719">
        <ele>103.78861999511719</ele>
        <time>2016-09-21T14:02:20.000Z</time>
      </trkpt>
      <trkpt lon="0.5195441246032715" lat="49.3670997619628906">
        <ele>102.9308090209961</ele>
        <time>2016-09-21T14:02:23.000Z</time>
      </trkpt>
      <trkpt lon="0.5193657875061035" lat="49.3669662475585938">
        <ele>102.2332763671875</ele>
        <time>2016-09-21T14:02:25.000Z</time>
      </trkpt>
      <trkpt lon="0.5190349221229553" lat="49.3667716979980469">
        <ele>101.43211364746094</ele>
        <time>2016-09-21T14:02:28.000Z</time>
      </trkpt>
      <trkpt lon="0.5186349749565125" lat="49.3665771484375000">
        <ele>100.58538055419922</ele>
        <time>2016-09-21T14:02:31.000Z</time>
      </trkpt>
      <trkpt lon="0.5181487798690796" lat="49.3664970397949219">
        <ele>99.62522888183594</ele>
        <time>2016-09-21T14:02:34.000Z</time>
      </trkpt>
      <trkpt lon="0.5178323984146118" lat="49.3664588928222656">
        <ele>98.64561462402344</ele>
        <time>2016-09-21T14:02:36.000Z</time>
      </trkpt>
      <trkpt lon="0.5173589587211609" lat="49.3663864135742188">
        <ele>97.64783477783203</ele>
        <time>2016-09-21T14:02:39.000Z</time>
      </trkpt>
      <trkpt lon="0.5170356035232544" lat="49.3663597106933594">
        <ele>96.80049896240234</ele>
        <time>2016-09-21T14:02:41.000Z</time>
      </trkpt>
      <trkpt lon="0.5166010856628418" lat="49.3662986755371094">
        <ele>95.6678237915039</ele>
        <time>2016-09-21T14:02:44.000Z</time>
      </trkpt>
      <trkpt lon="0.5162822604179382" lat="49.3662567138671875">
        <ele>94.4610824584961</ele>
        <time>2016-09-21T14:02:46.000Z</time>
      </trkpt>
      <trkpt lon="0.5157768130302429" lat="49.3661842346191406">
        <ele>92.92662048339844</ele>
        <time>2016-09-21T14:02:49.000Z</time>
      </trkpt>
      <trkpt lon="0.5153091549873352" lat="49.3660812377929688">
        <ele>90.92640686035156</ele>
        <time>2016-09-21T14:02:52.000Z</time>
      </trkpt>
      <trkpt lon="0.5147989988327026" lat="49.3659362792968750">
        <ele>88.56303405761719</ele>
        <time>2016-09-21T14:02:55.000Z</time>
      </trkpt>
      <trkpt lon="0.5143019556999207" lat="49.3657646179199219">
        <ele>86.70079803466797</ele>
        <time>2016-09-21T14:02:58.000Z</time>
      </trkpt>
      <trkpt lon="0.5140433311462402" lat="49.3656120300292969">
        <ele>84.89234161376953</ele>
        <time>2016-09-21T14:03:00.000Z</time>
      </trkpt>
      <trkpt lon="0.5139037966728210" lat="49.3654136657714844">
        <ele>82.93782806396484</ele>
        <time>2016-09-21T14:03:02.000Z</time>
      </trkpt>
      <trkpt lon="0.5135825276374817" lat="49.3651084899902344">
        <ele>80.66649627685547</ele>
        <time>2016-09-21T14:03:05.000Z</time>
      </trkpt>
      <trkpt lon="0.5133209228515625" lat="49.3649482727050781">
        <ele>78.71452331542969</ele>
        <time>2016-09-21T14:03:07.000Z</time>
      </trkpt>
      <trkpt lon="0.5128827691078186" lat="49.3647575378417969">
        <ele>77.18506622314453</ele>
        <time>2016-09-21T14:03:10.000Z</time>
      </trkpt>
      <trkpt lon="0.5125842094421387" lat="49.3646392822265625">
        <ele>75.5342025756836</ele>
        <time>2016-09-21T14:03:12.000Z</time>
      </trkpt>
      <trkpt lon="0.5122724771499634" lat="49.3645362854003906">
        <ele>74.20710754394531</ele>
        <time>2016-09-21T14:03:14.000Z</time>
      </trkpt>
      <trkpt lon="0.5119343996047974" lat="49.3643493652343750">
        <ele>73.30625915527344</ele>
        <time>2016-09-21T14:03:17.000Z</time>
      </trkpt>
      <trkpt lon="0.5116953849792480" lat="49.3640441894531250">
        <ele>71.74791717529297</ele>
        <time>2016-09-21T14:03:20.000Z</time>
      </trkpt>
      <trkpt lon="0.5116397738456726" lat="49.3638229370117188">
        <ele>69.30064392089844</ele>
        <time>2016-09-21T14:03:22.000Z</time>
      </trkpt>
      <trkpt lon="0.5115025639533997" lat="49.3635177612304688">
        <ele>66.97366333007812</ele>
        <time>2016-09-21T14:03:25.000Z</time>
      </trkpt>
      <trkpt lon="0.5113841295242310" lat="49.3630180358886719">
        <ele>64.54484558105469</ele>
        <time>2016-09-21T14:03:29.000Z</time>
      </trkpt>
      <trkpt lon="0.5114110708236694" lat="49.3626632690429688">
        <ele>62.0501823425293</ele>
        <time>2016-09-21T14:03:32.000Z</time>
      </trkpt>
      <trkpt lon="0.5115604400634766" lat="49.3623352050781250">
        <ele>59.77753448486328</ele>
        <time>2016-09-21T14:03:35.000Z</time>
      </trkpt>
      <trkpt lon="0.5116349458694458" lat="49.3620300292968750">
        <ele>57.90227508544922</ele>
        <time>2016-09-21T14:03:38.000Z</time>
      </trkpt>
      <trkpt lon="0.5118383169174194" lat="49.3617172241210938">
        <ele>55.939117431640625</ele>
        <time>2016-09-21T14:03:41.000Z</time>
      </trkpt>
      <trkpt lon="0.5120909214019775" lat="49.3614807128906250">
        <ele>53.71277618408203</ele>
        <time>2016-09-21T14:03:44.000Z</time>
      </trkpt>
      <trkpt lon="0.5124991536140442" lat="49.3612594604492188">
        <ele>51.70402908325195</ele>
        <time>2016-09-21T14:03:47.000Z</time>
      </trkpt>
      <trkpt lon="0.5127795338630676" lat="49.3611373901367188">
        <ele>50.51667404174805</ele>
        <time>2016-09-21T14:03:49.000Z</time>
      </trkpt>
      <trkpt lon="0.5132892131805420" lat="49.3610000610351562">
        <ele>49.04426956176758</ele>
        <time>2016-09-21T14:03:52.000Z</time>
      </trkpt>
      <trkpt lon="0.5137345790863037" lat="49.3609275817871094">
        <ele>47.49567413330078</ele>
        <time>2016-09-21T14:03:55.000Z</time>
      </trkpt>
      <trkpt lon="0.5140818953514099" lat="49.3608779907226562">
        <ele>46.23320388793945</ele>
        <time>2016-09-21T14:03:57.000Z</time>
      </trkpt>
      <trkpt lon="0.5145670771598816" lat="49.3607864379882812">
        <ele>45.142433166503906</ele>
        <time>2016-09-21T14:04:00.000Z</time>
      </trkpt>
      <trkpt lon="0.5148818492889404" lat="49.3607521057128906">
        <ele>43.94573974609375</ele>
        <time>2016-09-21T14:04:02.000Z</time>
      </trkpt>
      <trkpt lon="0.5151768326759338" lat="49.3607749938964844">
        <ele>42.76367950439453</ele>
        <time>2016-09-21T14:04:04.000Z</time>
      </trkpt>
      <trkpt lon="0.5158059597015381" lat="49.3608818054199219">
        <ele>41.42535400390625</ele>
        <time>2016-09-21T14:04:08.000Z</time>
      </trkpt>
      <trkpt lon="0.5161098837852478" lat="49.3610229492187500">
        <ele>40.85480499267578</ele>
        <time>2016-09-21T14:04:10.000Z</time>
      </trkpt>
      <trkpt lon="0.5165728926658630" lat="49.3611259460449219">
        <ele>40.72645950317383</ele>
        <time>2016-09-21T14:04:13.000Z</time>
      </trkpt>
      <trkpt lon="0.5168313980102539" lat="49.3611602783203125">
        <ele>40.912071228027344</ele>
        <time>2016-09-21T14:04:15.000Z</time>
      </trkpt>
      <trkpt lon="0.5172472596168518" lat="49.3610916137695312">
        <ele>41.06626510620117</ele>
        <time>2016-09-21T14:04:18.000Z</time>
      </trkpt>
      <trkpt lon="0.5174962878227234" lat="49.3607978820800781">
        <ele>39.76503372192383</ele>
        <time>2016-09-21T14:04:21.000Z</time>
      </trkpt>
      <trkpt lon="0.5174488425254822" lat="49.3604965209960938">
        <ele>37.79922103881836</ele>
        <time>2016-09-21T14:04:24.000Z</time>
      </trkpt>
      <trkpt lon="0.5173865556716919" lat="49.3602790832519531">
        <ele>35.455074310302734</ele>
        <time>2016-09-21T14:04:26.000Z</time>
      </trkpt>
      <trkpt lon="0.5173277258872986" lat="49.3599586486816406">
        <ele>32.60099411010742</ele>
        <time>2016-09-21T14:04:29.000Z</time>
      </trkpt>
      <trkpt lon="0.5173442363739014" lat="49.3597335815429688">
        <ele>30.010482788085938</ele>
        <time>2016-09-21T14:04:31.000Z</time>
      </trkpt>
      <trkpt lon="0.5173046588897705" lat="49.3594169616699219">
        <ele>29.09823989868164</ele>
        <time>2016-09-21T14:04:34.000Z</time>
      </trkpt>
      <trkpt lon="0.5172710418701172" lat="49.3591880798339844">
        <ele>28.222829818725586</ele>
        <time>2016-09-21T14:04:36.000Z</time>
      </trkpt>
      <trkpt lon="0.5172483325004578" lat="49.3589744567871094">
        <ele>27.267526626586914</ele>
        <time>2016-09-21T14:04:38.000Z</time>
      </trkpt>
      <trkpt lon="0.5172302126884460" lat="49.3586807250976562">
        <ele>26.225479125976562</ele>
        <time>2016-09-21T14:04:41.000Z</time>
      </trkpt>
      <trkpt lon="0.5172035694122314" lat="49.3584213256835938">
        <ele>24.917675018310547</ele>
        <time>2016-09-21T14:04:44.000Z</time>
      </trkpt>
      <trkpt lon="0.5172148346900940" lat="49.3581428527832031">
        <ele>23.338382720947266</ele>
        <time>2016-09-21T14:04:47.000Z</time>
      </trkpt>
      <trkpt lon="0.5171936154365540" lat="49.3579750061035156">
        <ele>21.558048248291016</ele>
        <time>2016-09-21T14:04:49.000Z</time>
      </trkpt>
      <trkpt lon="0.5171575546264648" lat="49.3578681945800781">
        <ele>19.812908172607422</ele>
        <time>2016-09-21T14:04:51.000Z</time>
      </trkpt>
      <trkpt lon="0.5170624256134033" lat="49.3577232360839844">
        <ele>18.10891342163086</ele>
        <time>2016-09-21T14:04:53.000Z</time>
      </trkpt>
      <trkpt lon="0.5168281793594360" lat="49.3576507568359375">
        <ele>16.471240997314453</ele>
        <time>2016-09-21T14:04:56.000Z</time>
      </trkpt>
      <trkpt lon="0.5165789723396301" lat="49.3577270507812500">
        <ele>15.258520126342773</ele>
        <time>2016-09-21T14:04:58.000Z</time>
      </trkpt>
      <trkpt lon="0.5161796212196350" lat="49.3578681945800781">
        <ele>14.351269721984863</ele>
        <time>2016-09-21T14:05:01.000Z</time>
      </trkpt>
      <trkpt lon="0.5159903764724731" lat="49.3579406738281250">
        <ele>13.653570175170898</ele>
        <time>2016-09-21T14:05:03.000Z</time>
      </trkpt>
      <trkpt lon="0.5157200694084167" lat="49.3581085205078125">
        <ele>13.298296928405762</ele>
        <time>2016-09-21T14:05:06.000Z</time>
      </trkpt>
      <trkpt lon="0.5155278444290161" lat="49.3582229614257812">
        <ele>13.134160041809082</ele>
        <time>2016-09-21T14:05:08.000Z</time>
      </trkpt>
      <trkpt lon="0.5152366757392883" lat="49.3583564758300781">
        <ele>12.844576835632324</ele>
        <time>2016-09-21T14:05:11.000Z</time>
      </trkpt>
      <trkpt lon="0.5151017308235168" lat="49.3584365844726562">
        <ele>12.787632942199707</ele>
        <time>2016-09-21T14:05:13.000Z</time>
      </trkpt>
      <trkpt lon="0.5148698687553406" lat="49.3585319519042969">
        <ele>13.033132553100586</ele>
        <time>2016-09-21T14:05:16.000Z</time>
      </trkpt>
      <trkpt lon="0.5145677924156189" lat="49.3585815429687500">
        <ele>13.292348861694336</ele>
        <time>2016-09-21T14:05:19.000Z</time>
      </trkpt>
      <trkpt lon="0.5143440961837769" lat="49.3585281372070312">
        <ele>13.254409790039062</ele>
        <time>2016-09-21T14:05:22.000Z</time>
      </trkpt>
      <trkpt lon="0.5141990184783936" lat="49.3583946228027344">
        <ele>12.731124877929688</ele>
        <time>2016-09-21T14:05:25.000Z</time>
      </trkpt>
      <trkpt lon="0.5140506625175476" lat="49.3583259582519531">
        <ele>11.717710494995117</ele>
        <time>2016-09-21T14:05:28.000Z</time>
      </trkpt>
      <trkpt lon="0.5140067934989929" lat="49.3582687377929688">
        <ele>10.438433647155762</ele>
        <time>2016-09-21T14:05:31.000Z</time>
      </trkpt>
      <trkpt lon="0.5139504075050354" lat="49.3582191467285156">
        <ele>9.149965286254883</ele>
        <time>2016-09-21T14:05:33.000Z</time>
      </trkpt>
      <trkpt lon="0.5138881206512451" lat="49.3581886291503906">
        <ele>8.241445541381836</ele>
        <time>2016-09-21T14:05:36.000Z</time>
      </trkpt>
      <trkpt lon="0.5138444304466248" lat="49.3581504821777344">
        <ele>7.985748291015625</ele>
        <time>2016-09-21T14:05:39.000Z</time>
      </trkpt>
      <trkpt lon="0.5138244032859802" lat="49.3581275939941406">
        <ele>8.027145385742188</ele>
        <time>2016-09-21T14:05:41.000Z</time>
      </trkpt>
      <trkpt lon="0.5138055682182312" lat="49.3581161499023438">
        <ele>8.051116943359375</ele>
        <time>2016-09-21T14:05:43.000Z</time>
      </trkpt>
      <trkpt lon="0.5137739777565002" lat="49.3580703735351562">
        <ele>8.081039428710938</ele>
        <time>2016-09-21T14:05:46.000Z</time>
      </trkpt>
      <trkpt lon="0.5136898756027222" lat="49.3579826354980469">
        <ele>8.131118774414062</ele>
        <time>2016-09-21T14:05:49.000Z</time>
      </trkpt>
      <trkpt lon="0.5135451555252075" lat="49.3577423095703125">
        <ele>8.254608154296875</ele>
        <time>2016-09-21T14:05:53.000Z</time>
      </trkpt>
      <trkpt lon="0.5134841203689575" lat="49.3576316833496094">
        <ele>8.409271240234375</ele>
        <time>2016-09-21T14:05:55.000Z</time>
      </trkpt>
      <trkpt lon="0.5133583545684814" lat="49.3575363159179688">
        <ele>8.58123779296875</ele>
        <time>2016-09-21T14:05:57.000Z</time>
      </trkpt>
      <trkpt lon="0.5132349729537964" lat="49.3574028015136719">
        <ele>8.701312065124512</ele>
        <time>2016-09-21T14:06:00.000Z</time>
      </trkpt>
      <trkpt lon="0.5131501555442810" lat="49.3572959899902344">
        <ele>8.759847640991211</ele>
        <time>2016-09-21T14:06:02.000Z</time>
      </trkpt>
      <trkpt lon="0.5130718946456909" lat="49.3572196960449219">
        <ele>8.700311660766602</ele>
        <time>2016-09-21T14:06:04.000Z</time>
      </trkpt>
      <trkpt lon="0.5129615664482117" lat="49.3570899963378906">
        <ele>8.5497407913208</ele>
        <time>2016-09-21T14:06:07.000Z</time>
      </trkpt>
      <trkpt lon="0.5128431320190430" lat="49.3569526672363281">
        <ele>8.32562255859375</ele>
        <time>2016-09-21T14:06:10.000Z</time>
      </trkpt>
      <trkpt lon="0.5128067731857300" lat="49.3568305969238281">
        <ele>8.120086669921875</ele>
        <time>2016-09-21T14:06:12.000Z</time>
      </trkpt>
      <trkpt lon="0.5127096772193909" lat="49.3567466735839844">
        <ele>7.908660888671875</ele>
        <time>2016-09-21T14:06:14.000Z</time>
      </trkpt>
      <trkpt lon="0.5126284956932068" lat="49.3566513061523438">
        <ele>7.705792427062988</ele>
        <time>2016-09-21T14:06:16.000Z</time>
      </trkpt>
      <trkpt lon="0.5124639272689819" lat="49.3565025329589844">
        <ele>7.6095452308654785</ele>
        <time>2016-09-21T14:06:19.000Z</time>
      </trkpt>
      <trkpt lon="0.5123637914657593" lat="49.3563842773437500">
        <ele>7.669775485992432</ele>
        <time>2016-09-21T14:06:21.000Z</time>
      </trkpt>
      <trkpt lon="0.5122519731521606" lat="49.3563079833984375">
        <ele>7.815344333648682</ele>
        <time>2016-09-21T14:06:23.000Z</time>
      </trkpt>
      <trkpt lon="0.5121363997459412" lat="49.3561706542968750">
        <ele>8.10840129852295</ele>
        <time>2016-09-21T14:06:26.000Z</time>
      </trkpt>
      <trkpt lon="0.5120014548301697" lat="49.3560256958007812">
        <ele>8.525590896606445</ele>
        <time>2016-09-21T14:06:29.000Z</time>
      </trkpt>
      <trkpt lon="0.5119574069976807" lat="49.3559417724609375">
        <ele>8.939722061157227</ele>
        <time>2016-09-21T14:06:31.000Z</time>
      </trkpt>
      <trkpt lon="0.5118436217308044" lat="49.3558578491210938">
        <ele>9.3009614944458</ele>
        <time>2016-09-21T14:06:33.000Z</time>
      </trkpt>
      <trkpt lon="0.5116883516311646" lat="49.3557243347167969">
        <ele>9.60746955871582</ele>
        <time>2016-09-21T14:06:36.000Z</time>
      </trkpt>
      <trkpt lon="0.5116344094276428" lat="49.3556251525878906">
        <ele>9.807973861694336</ele>
        <time>2016-09-21T14:06:38.000Z</time>
      </trkpt>
      <trkpt lon="0.5115257501602173" lat="49.3554992675781250">
        <ele>9.898804664611816</ele>
        <time>2016-09-21T14:06:41.000Z</time>
      </trkpt>
      <trkpt lon="0.5114217400550842" lat="49.3553543090820312">
        <ele>9.934334754943848</ele>
        <time>2016-09-21T14:06:44.000Z</time>
      </trkpt>
      <trkpt lon="0.5113581418991089" lat="49.3552665710449219">
        <ele>9.92458724975586</ele>
        <time>2016-09-21T14:06:46.000Z</time>
      </trkpt>
      <trkpt lon="0.5112882852554321" lat="49.3551368713378906">
        <ele>9.910543441772461</ele>
        <time>2016-09-21T14:06:49.000Z</time>
      </trkpt>
      <trkpt lon="0.5112472176551819" lat="49.3550605773925781">
        <ele>9.90886116027832</ele>
        <time>2016-09-21T14:06:51.000Z</time>
      </trkpt>
      <trkpt lon="0.5111514925956726" lat="49.3550376892089844">
        <ele>9.923650741577148</ele>
        <time>2016-09-21T14:06:54.000Z</time>
      </trkpt>
      <trkpt lon="0.5110909342765808" lat="49.3550109863281250">
        <ele>9.94651985168457</ele>
        <time>2016-09-21T14:06:56.000Z</time>
      </trkpt>
      <trkpt lon="0.5110260844230652" lat="49.3549652099609375">
        <ele>9.980676651000977</ele>
        <time>2016-09-21T14:06:58.000Z</time>
      </trkpt>
      <trkpt lon="0.5110448002815247" lat="49.3548698425292969">
        <ele>10.034330368041992</ele>
        <time>2016-09-21T14:07:00.000Z</time>
      </trkpt>
      <trkpt lon="0.5110216140747070" lat="49.3547821044921875">
        <ele>10.106212615966797</ele>
        <time>2016-09-21T14:07:03.000Z</time>
      </trkpt>
      <trkpt lon="0.5110398530960083" lat="49.3547134399414062">
        <ele>10.198043823242188</ele>
        <time>2016-09-21T14:07:05.000Z</time>
      </trkpt>
      <trkpt lon="0.5112080574035645" lat="49.3544540405273438">
        <ele>10.389620780944824</ele>
        <time>2016-09-21T14:07:09.000Z</time>
      </trkpt>
      <trkpt lon="0.5112701058387756" lat="49.3543281555175781">
        <ele>10.624330520629883</ele>
        <time>2016-09-21T14:07:12.000Z</time>
      </trkpt>
      <trkpt lon="0.5114281773567200" lat="49.3541603088378906">
        <ele>10.925366401672363</ele>
        <time>2016-09-21T14:07:15.000Z</time>
      </trkpt>
      <trkpt lon="0.5114939212799072" lat="49.3540802001953125">
        <ele>11.18698787689209</ele>
        <time>2016-09-21T14:07:17.000Z</time>
      </trkpt>
      <trkpt lon="0.5115929841995239" lat="49.3539428710937500">
        <ele>11.38510513305664</ele>
        <time>2016-09-21T14:07:20.000Z</time>
      </trkpt>
      <trkpt lon="0.5116605162620544" lat="49.3538246154785156">
        <ele>11.431357383728027</ele>
        <time>2016-09-21T14:07:23.000Z</time>
      </trkpt>
      <trkpt lon="0.5117229223251343" lat="49.3537368774414062">
        <ele>11.379510879516602</ele>
        <time>2016-09-21T14:07:25.000Z</time>
      </trkpt>
      <trkpt lon="0.5118808150291443" lat="49.3535690307617188">
        <ele>11.174814224243164</ele>
        <time>2016-09-21T14:07:28.000Z</time>
      </trkpt>
      <trkpt lon="0.5120104551315308" lat="49.3534584045410156">
        <ele>10.966630935668945</ele>
        <time>2016-09-21T14:07:31.000Z</time>
      </trkpt>
      <trkpt lon="0.5121389627456665" lat="49.3533363342285156">
        <ele>10.79626750946045</ele>
        <time>2016-09-21T14:07:34.000Z</time>
      </trkpt>
      <trkpt lon="0.5122690796852112" lat="49.3532638549804688">
        <ele>10.721972465515137</ele>
        <time>2016-09-21T14:07:36.000Z</time>
      </trkpt>
      <trkpt lon="0.5123448371887207" lat="49.3531875610351562">
        <ele>10.726641654968262</ele>
        <time>2016-09-21T14:07:39.000Z</time>
      </trkpt>
      <trkpt lon="0.5124184489250183" lat="49.3531303405761719">
        <ele>10.820820808410645</ele>
        <time>2016-09-21T14:07:42.000Z</time>
      </trkpt>
      <trkpt lon="0.5124805569648743" lat="49.3530807495117188">
        <ele>10.959047317504883</ele>
        <time>2016-09-21T14:07:44.000Z</time>
      </trkpt>
      <trkpt lon="0.5127456784248352" lat="49.3529968261718750">
        <ele>11.137321472167969</ele>
        <time>2016-09-21T14:07:47.000Z</time>
      </trkpt>
      <trkpt lon="0.5128802061080933" lat="49.3529281616210938">
        <ele>11.275671005249023</ele>
        <time>2016-09-21T14:07:49.000Z</time>
      </trkpt>
      <trkpt lon="0.5129870772361755" lat="49.3528366088867188">
        <ele>11.374292373657227</ele>
        <time>2016-09-21T14:07:51.000Z</time>
      </trkpt>
      <trkpt lon="0.5131958723068237" lat="49.3527336120605469">
        <ele>11.415521621704102</ele>
        <time>2016-09-21T14:07:54.000Z</time>
      </trkpt>
      <trkpt lon="0.5134146809577942" lat="49.3526344299316406">
        <ele>11.391283988952637</ele>
        <time>2016-09-21T14:07:57.000Z</time>
      </trkpt>
      <trkpt lon="0.5135832428932190" lat="49.3525390625000000">
        <ele>11.308354377746582</ele>
        <time>2016-09-21T14:08:00.000Z</time>
      </trkpt>
      <trkpt lon="0.5135997533798218" lat="49.3525123596191406">
        <ele>11.211166381835938</ele>
        <time>2016-09-21T14:08:02.000Z</time>
      </trkpt>
      <trkpt lon="0.5135359764099121" lat="49.3523979187011719">
        <ele>11.114434242248535</ele>
        <time>2016-09-21T14:08:05.000Z</time>
      </trkpt>
      <trkpt lon="0.5134676098823547" lat="49.3522415161132812">
        <ele>11.043749809265137</ele>
        <time>2016-09-21T14:08:08.000Z</time>
      </trkpt>
      <trkpt lon="0.5134022235870361" lat="49.3521690368652344">
        <ele>11.011914253234863</ele>
        <time>2016-09-21T14:08:10.000Z</time>
      </trkpt>
      <trkpt lon="0.5133696794509888" lat="49.3520965576171875">
        <ele>11.002538681030273</ele>
        <time>2016-09-21T14:08:12.000Z</time>
      </trkpt>
      <trkpt lon="0.5133938193321228" lat="49.3519592285156250">
        <ele>11.0</ele>
        <time>2016-09-21T14:08:15.000Z</time>
      </trkpt>
      <trkpt lon="0.5134795904159546" lat="49.3518257141113281">
        <ele>11.0</ele>
        <time>2016-09-21T14:08:18.000Z</time>
      </trkpt>
      <trkpt lon="0.5135713815689087" lat="49.3517341613769531">
        <ele>11.0</ele>
        <time>2016-09-21T14:08:20.000Z</time>
      </trkpt>
      <trkpt lon="0.5137164592742920" lat="49.3515739440917969">
        <ele>10.977930068969727</ele>
        <time>2016-09-21T14:08:23.000Z</time>
      </trkpt>
      <trkpt lon="0.5138031840324402" lat="49.3514823913574219">
        <ele>10.933398246765137</ele>
        <time>2016-09-21T14:08:25.000Z</time>
      </trkpt>
      <trkpt lon="0.5138941407203674" lat="49.3514022827148438">
        <ele>10.870312690734863</ele>
        <time>2016-09-21T14:08:27.000Z</time>
      </trkpt>
      <trkpt lon="0.5140541791915894" lat="49.3512496948242188">
        <ele>10.770116806030273</ele>
        <time>2016-09-21T14:08:30.000Z</time>
      </trkpt>
      <trkpt lon="0.5141252279281616" lat="49.3511772155761719">
        <ele>10.65234375</ele>
        <time>2016-09-21T14:08:32.000Z</time>
      </trkpt>
      <trkpt lon="0.5142933130264282" lat="49.3510780334472656">
        <ele>10.484935760498047</ele>
        <time>2016-09-21T14:08:35.000Z</time>
      </trkpt>
      <trkpt lon="0.5144619345664978" lat="49.3509063720703125">
        <ele>10.263782501220703</ele>
        <time>2016-09-21T14:08:38.000Z</time>
      </trkpt>
      <trkpt lon="0.5145502090454102" lat="49.3508110046386719">
        <ele>10.03742504119873</ele>
        <time>2016-09-21T14:08:40.000Z</time>
      </trkpt>
      <trkpt lon="0.5146545767784119" lat="49.3506965637207031">
        <ele>9.839848518371582</ele>
        <time>2016-09-21T14:08:42.000Z</time>
      </trkpt>
      <trkpt lon="0.5147638320922852" lat="49.3505516052246094">
        <ele>9.662447929382324</ele>
        <time>2016-09-21T14:08:45.000Z</time>
      </trkpt>
      <trkpt lon="0.5149314999580383" lat="49.3504257202148438">
        <ele>9.557818412780762</ele>
        <time>2016-09-21T14:08:48.000Z</time>
      </trkpt>
      <trkpt lon="0.5150632858276367" lat="49.3502883911132812">
        <ele>9.54951000213623</ele>
        <time>2016-09-21T14:08:51.000Z</time>
      </trkpt>
      <trkpt lon="0.5152217745780945" lat="49.3501892089843750">
        <ele>9.564713478088379</ele>
        <time>2016-09-21T14:08:54.000Z</time>
      </trkpt>
      <trkpt lon="0.5152993798255920" lat="49.3501014709472656">
        <ele>9.583760261535645</ele>
        <time>2016-09-21T14:08:56.000Z</time>
      </trkpt>
      <trkpt lon="0.5153961777687073" lat="49.3499832153320312">
        <ele>9.58961296081543</ele>
        <time>2016-09-21T14:08:59.000Z</time>
      </trkpt>
      <trkpt lon="0.5153589844703674" lat="49.3499183654785156">
        <ele>9.625510215759277</ele>
        <time>2016-09-21T14:09:02.000Z</time>
      </trkpt>
      <trkpt lon="0.5154149532318115" lat="49.3498268127441406">
        <ele>9.662820816040039</ele>
        <time>2016-09-21T14:09:05.000Z</time>
      </trkpt>
      <trkpt lon="0.5155259966850281" lat="49.3497734069824219">
        <ele>9.700024604797363</ele>
        <time>2016-09-21T14:09:07.000Z</time>
      </trkpt>
      <trkpt lon="0.5157025456428528" lat="49.3496055603027344">
        <ele>9.784725189208984</ele>
        <time>2016-09-21T14:09:10.000Z</time>
      </trkpt>
      <trkpt lon="0.5158151984214783" lat="49.3494720458984375">
        <ele>9.92954158782959</ele>
        <time>2016-09-21T14:09:13.000Z</time>
      </trkpt>
      <trkpt lon="0.5159478187561035" lat="49.3493347167968750">
        <ele>10.124595642089844</ele>
        <time>2016-09-21T14:09:16.000Z</time>
      </trkpt>
      <trkpt lon="0.5160673856735229" lat="49.3491706848144531">
        <ele>10.415449142456055</ele>
        <time>2016-09-21T14:09:19.000Z</time>
      </trkpt>
      <trkpt lon="0.5161718726158142" lat="49.3490867614746094">
        <ele>10.823381423950195</ele>
        <time>2016-09-21T14:09:21.000Z</time>
      </trkpt>
      <trkpt lon="0.5163145661354065" lat="49.3489723205566406">
        <ele>11.333775520324707</ele>
        <time>2016-09-21T14:09:24.000Z</time>
      </trkpt>
      <trkpt lon="0.5164244771003723" lat="49.3488769531250000">
        <ele>11.889370918273926</ele>
        <time>2016-09-21T14:09:26.000Z</time>
      </trkpt>
      <trkpt lon="0.5165184140205383" lat="49.3487625122070312">
        <ele>12.45927906036377</ele>
        <time>2016-09-21T14:09:29.000Z</time>
      </trkpt>
      <trkpt lon="0.5165771245956421" lat="49.3486671447753906">
        <ele>12.9833402633667</ele>
        <time>2016-09-21T14:09:31.000Z</time>
      </trkpt>
      <trkpt lon="0.5166196823120117" lat="49.3485832214355469">
        <ele>13.444353103637695</ele>
        <time>2016-09-21T14:09:33.000Z</time>
      </trkpt>
      <trkpt lon="0.5166457891464233" lat="49.3484611511230469">
        <ele>13.843107223510742</ele>
        <time>2016-09-21T14:09:36.000Z</time>
      </trkpt>
      <trkpt lon="0.5166636705398560" lat="49.3483581542968750">
        <ele>14.216985702514648</ele>
        <time>2016-09-21T14:09:38.000Z</time>
      </trkpt>
      <trkpt lon="0.5166525244712830" lat="49.3482170104980469">
        <ele>14.545702934265137</ele>
        <time>2016-09-21T14:09:40.000Z</time>
      </trkpt>
      <trkpt lon="0.5166448950767517" lat="49.3480453491210938">
        <ele>14.850265502929688</ele>
        <time>2016-09-21T14:09:43.000Z</time>
      </trkpt>
      <trkpt lon="0.5167216062545776" lat="49.3479194641113281">
        <ele>15.0908842086792</ele>
        <time>2016-09-21T14:09:45.000Z</time>
      </trkpt>
      <trkpt lon="0.5166565775871277" lat="49.3477783203125000">
        <ele>15.31701946258545</ele>
        <time>2016-09-21T14:09:48.000Z</time>
      </trkpt>
      <trkpt lon="0.5166314840316772" lat="49.3476562500000000">
        <ele>15.525164604187012</ele>
        <time>2016-09-21T14:09:50.000Z</time>
      </trkpt>
      <trkpt lon="0.5165473818778992" lat="49.3475341796875000">
        <ele>15.79365062713623</ele>
        <time>2016-09-21T14:09:53.000Z</time>
      </trkpt>
      <trkpt lon="0.5164306759834290" lat="49.3474349975585938">
        <ele>16.133106231689453</ele>
        <time>2016-09-21T14:09:56.000Z</time>
      </trkpt>
      <trkpt lon="0.5163469314575195" lat="49.3473510742187500">
        <ele>16.553808212280273</ele>
        <time>2016-09-21T14:09:58.000Z</time>
      </trkpt>
      <trkpt lon="0.5162909626960754" lat="49.3472595214843750">
        <ele>16.946990966796875</ele>
        <time>2016-09-21T14:10:00.000Z</time>
      </trkpt>
      <trkpt lon="0.5161526799201965" lat="49.3471298217773438">
        <ele>17.392742156982422</ele>
        <time>2016-09-21T14:10:03.000Z</time>
      </trkpt>
      <trkpt lon="0.5160343647003174" lat="49.3470115661621094">
        <ele>17.80716896057129</ele>
        <time>2016-09-21T14:10:06.000Z</time>
      </trkpt>
      <trkpt lon="0.5159692764282227" lat="49.3469429016113281">
        <ele>18.142776489257812</ele>
        <time>2016-09-21T14:10:08.000Z</time>
      </trkpt>
      <trkpt lon="0.5158517360687256" lat="49.3468132019042969">
        <ele>18.47087860107422</ele>
        <time>2016-09-21T14:10:11.000Z</time>
      </trkpt>
      <trkpt lon="0.5158005952835083" lat="49.3466987609863281">
        <ele>18.760150909423828</ele>
        <time>2016-09-21T14:10:14.000Z</time>
      </trkpt>
      <trkpt lon="0.5157318711280823" lat="49.3466148376464844">
        <ele>18.948028564453125</ele>
        <time>2016-09-21T14:10:16.000Z</time>
      </trkpt>
      <trkpt lon="0.5156417489051819" lat="49.3464889526367188">
        <ele>19.05573081970215</ele>
        <time>2016-09-21T14:10:19.000Z</time>
      </trkpt>
      <trkpt lon="0.5155587196350098" lat="49.3464012145996094">
        <ele>19.144832611083984</ele>
        <time>2016-09-21T14:10:22.000Z</time>
      </trkpt>
      <trkpt lon="0.5154990553855896" lat="49.3463249206542969">
        <ele>19.185937881469727</ele>
        <time>2016-09-21T14:10:24.000Z</time>
      </trkpt>
      <trkpt lon="0.5154373645782471" lat="49.3462524414062500">
        <ele>19.247920989990234</ele>
        <time>2016-09-21T14:10:26.000Z</time>
      </trkpt>
      <trkpt lon="0.5153091549873352" lat="49.3461303710937500">
        <ele>19.37729263305664</ele>
        <time>2016-09-21T14:10:29.000Z</time>
      </trkpt>
      <trkpt lon="0.5152213573455811" lat="49.3460159301757812">
        <ele>19.562068939208984</ele>
        <time>2016-09-21T14:10:32.000Z</time>
      </trkpt>
      <trkpt lon="0.5151621699333191" lat="49.3459510803222656">
        <ele>19.77043914794922</ele>
        <time>2016-09-21T14:10:34.000Z</time>
      </trkpt>
      <trkpt lon="0.5151122808456421" lat="49.3458671569824219">
        <ele>20.0023250579834</ele>
        <time>2016-09-21T14:10:36.000Z</time>
      </trkpt>
      <trkpt lon="0.5150116086006165" lat="49.3457565307617188">
        <ele>20.287195205688477</ele>
        <time>2016-09-21T14:10:39.000Z</time>
      </trkpt>
      <trkpt lon="0.5149115324020386" lat="49.3456497192382812">
        <ele>20.55550193786621</ele>
        <time>2016-09-21T14:10:42.000Z</time>
      </trkpt>
      <trkpt lon="0.5148444175720215" lat="49.3455734252929688">
        <ele>20.805831909179688</ele>
        <time>2016-09-21T14:10:44.000Z</time>
      </trkpt>
      <trkpt lon="0.5147338509559631" lat="49.3454513549804688">
        <ele>21.07965087890625</ele>
        <time>2016-09-21T14:10:47.000Z</time>
      </trkpt>
      <trkpt lon="0.5146539807319641" lat="49.3453330993652344">
        <ele>21.36423110961914</ele>
        <time>2016-09-21T14:10:50.000Z</time>
      </trkpt>
      <trkpt lon="0.5145165324211121" lat="49.3451919555664062">
        <ele>21.676965713500977</ele>
        <time>2016-09-21T14:10:53.000Z</time>
      </trkpt>
      <trkpt lon="0.5144429802894592" lat="49.3451194763183594">
        <ele>21.99692726135254</ele>
        <time>2016-09-21T14:10:55.000Z</time>
      </trkpt>
      <trkpt lon="0.5143216252326965" lat="49.3449974060058594">
        <ele>22.386795043945312</ele>
        <time>2016-09-21T14:10:58.000Z</time>
      </trkpt>
      <trkpt lon="0.5142523050308228" lat="49.3449211120605469">
        <ele>22.75667953491211</ele>
        <time>2016-09-21T14:11:00.000Z</time>
      </trkpt>
      <trkpt lon="0.5141517519950867" lat="49.3447952270507812">
        <ele>23.149337768554688</ele>
        <time>2016-09-21T14:11:03.000Z</time>
      </trkpt>
      <trkpt lon="0.5140379667282104" lat="49.3446273803710938">
        <ele>23.548551559448242</ele>
        <time>2016-09-21T14:11:06.000Z</time>
      </trkpt>
      <trkpt lon="0.5139522552490234" lat="49.3445243835449219">
        <ele>23.969018936157227</ele>
        <time>2016-09-21T14:11:09.000Z</time>
      </trkpt>
      <trkpt lon="0.5139046907424927" lat="49.3444404602050781">
        <ele>24.319091796875</ele>
        <time>2016-09-21T14:11:11.000Z</time>
      </trkpt>
      <trkpt lon="0.5138912796974182" lat="49.3443489074707031">
        <ele>24.608469009399414</ele>
        <time>2016-09-21T14:11:13.000Z</time>
      </trkpt>
      <trkpt lon="0.5138406157493591" lat="49.3441963195800781">
        <ele>24.838499069213867</ele>
        <time>2016-09-21T14:11:16.000Z</time>
      </trkpt>
      <trkpt lon="0.5138165950775146" lat="49.3440399169921875">
        <ele>25.00674819946289</ele>
        <time>2016-09-21T14:11:19.000Z</time>
      </trkpt>
      <trkpt lon="0.5138340592384338" lat="49.3438835144042969">
        <ele>25.108795166015625</ele>
        <time>2016-09-21T14:11:22.000Z</time>
      </trkpt>
      <trkpt lon="0.5138343572616577" lat="49.3437614440917969">
        <ele>25.20351791381836</ele>
        <time>2016-09-21T14:11:25.000Z</time>
      </trkpt>
      <trkpt lon="0.5138425230979919" lat="49.3436546325683594">
        <ele>25.326547622680664</ele>
        <time>2016-09-21T14:11:27.000Z</time>
      </trkpt>
      <trkpt lon="0.5138151645660400" lat="49.3435134887695312">
        <ele>25.503379821777344</ele>
        <time>2016-09-21T14:11:30.000Z</time>
      </trkpt>
      <trkpt lon="0.5138215422630310" lat="49.3434371948242188">
        <ele>25.6419620513916</ele>
        <time>2016-09-21T14:11:32.000Z</time>
      </trkpt>
      <trkpt lon="0.5138360857963562" lat="49.3433151245117188">
        <ele>25.770816802978516</ele>
        <time>2016-09-21T14:11:35.000Z</time>
      </trkpt>
      <trkpt lon="0.5138273239135742" lat="49.3432235717773438">
        <ele>25.877355575561523</ele>
        <time>2016-09-21T14:11:37.000Z</time>
      </trkpt>
      <trkpt lon="0.5138272047042847" lat="49.3430709838867188">
        <ele>25.961597442626953</ele>
        <time>2016-09-21T14:11:40.000Z</time>
      </trkpt>
      <trkpt lon="0.5137662291526794" lat="49.3429260253906250">
        <ele>26.059911727905273</ele>
        <time>2016-09-21T14:11:43.000Z</time>
      </trkpt>
      <trkpt lon="0.5137528181076050" lat="49.3427810668945312">
        <ele>26.166296005249023</ele>
        <time>2016-09-21T14:11:46.000Z</time>
      </trkpt>
      <trkpt lon="0.5137274265289307" lat="49.3426933288574219">
        <ele>26.305944442749023</ele>
        <time>2016-09-21T14:11:48.000Z</time>
      </trkpt>
      <trkpt lon="0.5136669278144836" lat="49.3425598144531250">
        <ele>26.540176391601562</ele>
        <time>2016-09-21T14:11:51.000Z</time>
      </trkpt>
      <trkpt lon="0.5136395096778870" lat="49.3424224853515625">
        <ele>26.834985733032227</ele>
        <time>2016-09-21T14:11:54.000Z</time>
      </trkpt>
      <trkpt lon="0.5136007070541382" lat="49.3423385620117188">
        <ele>27.122995376586914</ele>
        <time>2016-09-21T14:11:56.000Z</time>
      </trkpt>
      <trkpt lon="0.5135515928268433" lat="49.3422088623046875">
        <ele>27.493988037109375</ele>
        <time>2016-09-21T14:11:59.000Z</time>
      </trkpt>
      <trkpt lon="0.5134353041648865" lat="49.3420829772949219">
        <ele>28.0631046295166</ele>
        <time>2016-09-21T14:12:02.000Z</time>
      </trkpt>
      <trkpt lon="0.5133378505706787" lat="49.3419227600097656">
        <ele>28.755901336669922</ele>
        <time>2016-09-21T14:12:05.000Z</time>
      </trkpt>
      <trkpt lon="0.5132639408111572" lat="49.3417816162109375">
        <ele>29.566722869873047</ele>
        <time>2016-09-21T14:12:08.000Z</time>
      </trkpt>
      <trkpt lon="0.5131869912147522" lat="49.3416824340820312">
        <ele>30.4776611328125</ele>
        <time>2016-09-21T14:12:10.000Z</time>
      </trkpt>
      <trkpt lon="0.5131486654281616" lat="49.3415870666503906">
        <ele>31.298152923583984</ele>
        <time>2016-09-21T14:12:12.000Z</time>
      </trkpt>
      <trkpt lon="0.5131216049194336" lat="49.3414955139160156">
        <ele>31.868022918701172</ele>
        <time>2016-09-21T14:12:14.000Z</time>
      </trkpt>
      <trkpt lon="0.5130675435066223" lat="49.3413505554199219">
        <ele>32.238155364990234</ele>
        <time>2016-09-21T14:12:17.000Z</time>
      </trkpt>
      <trkpt lon="0.5129486918449402" lat="49.3412094116210938">
        <ele>32.68184280395508</ele>
        <time>2016-09-21T14:12:20.000Z</time>
      </trkpt>
      <trkpt lon="0.5129190087318420" lat="49.3411102294921875">
        <ele>32.998329162597656</ele>
        <time>2016-09-21T14:12:22.000Z</time>
      </trkpt>
      <trkpt lon="0.5128554701805115" lat="49.3409881591796875">
        <ele>33.46782302856445</ele>
        <time>2016-09-21T14:12:25.000Z</time>
      </trkpt>
      <trkpt lon="0.5128032565116882" lat="49.3409080505371094">
        <ele>34.111717224121094</ele>
        <time>2016-09-21T14:12:27.000Z</time>
      </trkpt>
      <trkpt lon="0.5127596855163574" lat="49.3407630920410156">
        <ele>34.734413146972656</ele>
        <time>2016-09-21T14:12:30.000Z</time>
      </trkpt>
      <trkpt lon="0.5126677155494690" lat="49.3406181335449219">
        <ele>35.0977897644043</ele>
        <time>2016-09-21T14:12:33.000Z</time>
      </trkpt>
      <trkpt lon="0.5126031637191772" lat="49.3404731750488281">
        <ele>35.27208709716797</ele>
        <time>2016-09-21T14:12:36.000Z</time>
      </trkpt>
      <trkpt lon="0.5125486254692078" lat="49.3403587341308594">
        <ele>35.145023345947266</ele>
        <time>2016-09-21T14:12:38.000Z</time>
      </trkpt>
      <trkpt lon="0.5124560594558716" lat="49.3402175903320312">
        <ele>34.69968032836914</ele>
        <time>2016-09-21T14:12:41.000Z</time>
      </trkpt>
      <trkpt lon="0.5123813152313232" lat="49.3401412963867188">
        <ele>34.21956253051758</ele>
        <time>2016-09-21T14:12:43.000Z</time>
      </trkpt>
      <trkpt lon="0.5123236179351807" lat="49.3400535583496094">
        <ele>33.67212677001953</ele>
        <time>2016-09-21T14:12:45.000Z</time>
      </trkpt>
      <trkpt lon="0.5122435688972473" lat="49.3399124145507812">
        <ele>33.279319763183594</ele>
        <time>2016-09-21T14:12:48.000Z</time>
      </trkpt>
      <trkpt lon="0.5121948719024658" lat="49.3397865295410156">
        <ele>33.07959747314453</ele>
        <time>2016-09-21T14:12:51.000Z</time>
      </trkpt>
      <trkpt lon="0.5121471881866455" lat="49.3396263122558594">
        <ele>33.074851989746094</ele>
        <time>2016-09-21T14:12:54.000Z</time>
      </trkpt>
      <trkpt lon="0.5120918154716492" lat="49.3395156860351562">
        <ele>33.17913818359375</ele>
        <time>2016-09-21T14:12:56.000Z</time>
      </trkpt>
      <trkpt lon="0.5120484828948975" lat="49.3393898010253906">
        <ele>33.40812683105469</ele>
        <time>2016-09-21T14:12:58.000Z</time>
      </trkpt>
      <trkpt lon="0.5119365453720093" lat="49.3392601013183594">
        <ele>33.83247375488281</ele>
        <time>2016-09-21T14:13:01.000Z</time>
      </trkpt>
      <trkpt lon="0.5118602514266968" lat="49.3391609191894531">
        <ele>34.33160400390625</ele>
        <time>2016-09-21T14:13:03.000Z</time>
      </trkpt>
      <trkpt lon="0.5117869377136230" lat="49.3390159606933594">
        <ele>34.816680908203125</ele>
        <time>2016-09-21T14:13:06.000Z</time>
      </trkpt>
      <trkpt lon="0.5117120742797852" lat="49.3388633728027344">
        <ele>35.212913513183594</ele>
        <time>2016-09-21T14:13:09.000Z</time>
      </trkpt>
      <trkpt lon="0.5116231441497803" lat="49.3387222290039062">
        <ele>35.54978561401367</ele>
        <time>2016-09-21T14:13:12.000Z</time>
      </trkpt>
      <trkpt lon="0.5114941000938416" lat="49.3385772705078125">
        <ele>35.67715072631836</ele>
        <time>2016-09-21T14:13:15.000Z</time>
      </trkpt>
      <trkpt lon="0.5113832950592041" lat="49.3384284973144531">
        <ele>35.61681365966797</ele>
        <time>2016-09-21T14:13:18.000Z</time>
      </trkpt>
      <trkpt lon="0.5112963318824768" lat="49.3383255004882812">
        <ele>35.49836730957031</ele>
        <time>2016-09-21T14:13:20.000Z</time>
      </trkpt>
      <trkpt lon="0.5111784338951111" lat="49.3381614685058594">
        <ele>35.31359100341797</ele>
        <time>2016-09-21T14:13:23.000Z</time>
      </trkpt>
      <trkpt lon="0.5110780000686646" lat="49.3380355834960938">
        <ele>35.08749008178711</ele>
        <time>2016-09-21T14:13:26.000Z</time>
      </trkpt>
      <trkpt lon="0.5110023021697998" lat="49.3379173278808594">
        <ele>34.78303909301758</ele>
        <time>2016-09-21T14:13:28.000Z</time>
      </trkpt>
      <trkpt lon="0.5109274387359619" lat="49.3378143310546875">
        <ele>34.46664810180664</ele>
        <time>2016-09-21T14:13:30.000Z</time>
      </trkpt>
      <trkpt lon="0.5107949376106262" lat="49.3376693725585938">
        <ele>34.13132858276367</ele>
        <time>2016-09-21T14:13:33.000Z</time>
      </trkpt>
      <trkpt lon="0.5107233524322510" lat="49.3375701904296875">
        <ele>33.82923126220703</ele>
        <time>2016-09-21T14:13:35.000Z</time>
      </trkpt>
      <trkpt lon="0.5106009244918823" lat="49.3374214172363281">
        <ele>33.57561111450195</ele>
        <time>2016-09-21T14:13:38.000Z</time>
      </trkpt>
      <trkpt lon="0.5104567408561707" lat="49.3372917175292969">
        <ele>33.47043991088867</ele>
        <time>2016-09-21T14:13:41.000Z</time>
      </trkpt>
      <trkpt lon="0.5103589892387390" lat="49.3371467590332031">
        <ele>33.424713134765625</ele>
        <time>2016-09-21T14:13:44.000Z</time>
      </trkpt>
      <trkpt lon="0.5102832317352295" lat="49.3370475769042969">
        <ele>33.446937561035156</ele>
        <time>2016-09-21T14:13:46.000Z</time>
      </trkpt>
      <trkpt lon="0.5102139115333557" lat="49.3369445800781250">
        <ele>33.517791748046875</ele>
        <time>2016-09-21T14:13:48.000Z</time>
      </trkpt>
      <trkpt lon="0.5101006031036377" lat="49.3367958068847656">
        <ele>33.629638671875</ele>
        <time>2016-09-21T14:13:51.000Z</time>
      </trkpt>
      <trkpt lon="0.5099752545356750" lat="49.3366546630859375">
        <ele>33.75154113769531</ele>
        <time>2016-09-21T14:13:54.000Z</time>
      </trkpt>
      <trkpt lon="0.5098559260368347" lat="49.3365135192871094">
        <ele>33.96192169189453</ele>
        <time>2016-09-21T14:13:57.000Z</time>
      </trkpt>
      <trkpt lon="0.5097756981849670" lat="49.3364257812500000">
        <ele>34.20448684692383</ele>
        <time>2016-09-21T14:13:59.000Z</time>
      </trkpt>
      <trkpt lon="0.5096474289894104" lat="49.3362884521484375">
        <ele>34.507320404052734</ele>
        <time>2016-09-21T14:14:02.000Z</time>
      </trkpt>
      <trkpt lon="0.5095362067222595" lat="49.3361358642578125">
        <ele>34.77292251586914</ele>
        <time>2016-09-21T14:14:05.000Z</time>
      </trkpt>
      <trkpt lon="0.5094519257545471" lat="49.3360519409179688">
        <ele>34.9865837097168</ele>
        <time>2016-09-21T14:14:07.000Z</time>
      </trkpt>
      <trkpt lon="0.5093243122100830" lat="49.3359031677246094">
        <ele>35.11854934692383</ele>
        <time>2016-09-21T14:14:10.000Z</time>
      </trkpt>
      <trkpt lon="0.5092219710350037" lat="49.3357620239257812">
        <ele>35.18314743041992</ele>
        <time>2016-09-21T14:14:13.000Z</time>
      </trkpt>
      <trkpt lon="0.5091509222984314" lat="49.3356666564941406">
        <ele>35.19911575317383</ele>
        <time>2016-09-21T14:14:15.000Z</time>
      </trkpt>
      <trkpt lon="0.5090820789337158" lat="49.3355751037597656">
        <ele>35.30519104003906</ele>
        <time>2016-09-21T14:14:17.000Z</time>
      </trkpt>
      <trkpt lon="0.5089897513389587" lat="49.3354225158691406">
        <ele>35.406036376953125</ele>
        <time>2016-09-21T14:14:20.000Z</time>
      </trkpt>
      <trkpt lon="0.5089111924171448" lat="49.3353309631347656">
        <ele>35.5543327331543</ele>
        <time>2016-09-21T14:14:22.000Z</time>
      </trkpt>
      <trkpt lon="0.5087904334068298" lat="49.3351821899414062">
        <ele>35.711341857910156</ele>
        <time>2016-09-21T14:14:25.000Z</time>
      </trkpt>
      <trkpt lon="0.5087112784385681" lat="49.3350830078125000">
        <ele>35.806800842285156</ele>
        <time>2016-09-21T14:14:27.000Z</time>
      </trkpt>
      <trkpt lon="0.5086266398429871" lat="49.3349456787109375">
        <ele>35.713077545166016</ele>
        <time>2016-09-21T14:14:30.000Z</time>
      </trkpt>
      <trkpt lon="0.5085579752922058" lat="49.3348693847656250">
        <ele>35.61497116088867</ele>
        <time>2016-09-21T14:14:32.000Z</time>
      </trkpt>
      <trkpt lon="0.5084773302078247" lat="49.3347816467285156">
        <ele>35.479835510253906</ele>
        <time>2016-09-21T14:14:34.000Z</time>
      </trkpt>
      <trkpt lon="0.5082848668098450" lat="49.3346481323242188">
        <ele>35.54985809326172</ele>
        <time>2016-09-21T14:14:37.000Z</time>
      </trkpt>
      <trkpt lon="0.5082065463066101" lat="49.3345642089843750">
        <ele>35.78385543823242</ele>
        <time>2016-09-21T14:14:39.000Z</time>
      </trkpt>
      <trkpt lon="0.5080553293228149" lat="49.3344306945800781">
        <ele>36.34487533569336</ele>
        <time>2016-09-21T14:14:42.000Z</time>
      </trkpt>
      <trkpt lon="0.5079041123390198" lat="49.3342971801757812">
        <ele>37.022979736328125</ele>
        <time>2016-09-21T14:14:45.000Z</time>
      </trkpt>
      <trkpt lon="0.5078158378601074" lat="49.3342056274414062">
        <ele>37.695831298828125</ele>
        <time>2016-09-21T14:14:47.000Z</time>
      </trkpt>
      <trkpt lon="0.5077247619628906" lat="49.3341178894042969">
        <ele>38.255287170410156</ele>
        <time>2016-09-21T14:14:49.000Z</time>
      </trkpt>
      <trkpt lon="0.5076252222061157" lat="49.3340415954589844">
        <ele>38.8475456237793</ele>
        <time>2016-09-21T14:14:51.000Z</time>
      </trkpt>
      <trkpt lon="0.5075367093086243" lat="49.3339500427246094">
        <ele>39.312835693359375</ele>
        <time>2016-09-21T14:14:53.000Z</time>
      </trkpt>
      <trkpt lon="0.5073736310005188" lat="49.3338279724121094">
        <ele>39.908714294433594</ele>
        <time>2016-09-21T14:14:56.000Z</time>
      </trkpt>
      <trkpt lon="0.5072220563888550" lat="49.3336830139160156">
        <ele>40.60735321044922</ele>
        <time>2016-09-21T14:14:59.000Z</time>
      </trkpt>
      <trkpt lon="0.5071355104446411" lat="49.3336105346679688">
        <ele>41.25182342529297</ele>
        <time>2016-09-21T14:15:01.000Z</time>
      </trkpt>
      <trkpt lon="0.5070070028305054" lat="49.3334655761718750">
        <ele>41.6174201965332</ele>
        <time>2016-09-21T14:15:04.000Z</time>
      </trkpt>
      <trkpt lon="0.5068426132202148" lat="49.3333549499511719">
        <ele>41.80602264404297</ele>
        <time>2016-09-21T14:15:07.000Z</time>
      </trkpt>
      <trkpt lon="0.5067310333251953" lat="49.3332481384277344">
        <ele>41.754966735839844</ele>
        <time>2016-09-21T14:15:09.000Z</time>
      </trkpt>
      <trkpt lon="0.5066092014312744" lat="49.3331146240234375">
        <ele>41.710914611816406</ele>
        <time>2016-09-21T14:15:12.000Z</time>
      </trkpt>
      <trkpt lon="0.5064067840576172" lat="49.3330230712890625">
        <ele>41.878807067871094</ele>
        <time>2016-09-21T14:15:15.000Z</time>
      </trkpt>
      <trkpt lon="0.5062304139137268" lat="49.3329162597656250">
        <ele>42.2719841003418</ele>
        <time>2016-09-21T14:15:18.000Z</time>
      </trkpt>
      <trkpt lon="0.5061169862747192" lat="49.3328399658203125">
        <ele>42.74761962890625</ele>
        <time>2016-09-21T14:15:20.000Z</time>
      </trkpt>
      <trkpt lon="0.5060111284255981" lat="49.3327255249023438">
        <ele>43.079864501953125</ele>
        <time>2016-09-21T14:15:22.000Z</time>
      </trkpt>
      <trkpt lon="0.5058686733245850" lat="49.3325805664062500">
        <ele>43.06864929199219</ele>
        <time>2016-09-21T14:15:25.000Z</time>
      </trkpt>
      <trkpt lon="0.5056923031806946" lat="49.3324508666992188">
        <ele>42.798301696777344</ele>
        <time>2016-09-21T14:15:28.000Z</time>
      </trkpt>
      <trkpt lon="0.5056155323982239" lat="49.3323440551757812">
        <ele>42.37548828125</ele>
        <time>2016-09-21T14:15:30.000Z</time>
      </trkpt>
      <trkpt lon="0.5054925680160522" lat="49.3322563171386719">
        <ele>41.97166061401367</ele>
        <time>2016-09-21T14:15:32.000Z</time>
      </trkpt>
      <trkpt lon="0.5053813457489014" lat="49.3321571350097656">
        <ele>41.650028228759766</ele>
        <time>2016-09-21T14:15:34.000Z</time>
      </trkpt>
      <trkpt lon="0.5051903724670410" lat="49.3320236206054688">
        <ele>41.511932373046875</ele>
        <time>2016-09-21T14:15:37.000Z</time>
      </trkpt>
      <trkpt lon="0.5050065517425537" lat="49.3318901062011719">
        <ele>41.2813606262207</ele>
        <time>2016-09-21T14:15:40.000Z</time>
      </trkpt>
      <trkpt lon="0.5048664808273315" lat="49.3317413330078125">
        <ele>41.045379638671875</ele>
        <time>2016-09-21T14:15:43.000Z</time>
      </trkpt>
      <trkpt lon="0.5047714710235596" lat="49.3316459655761719">
        <ele>40.72165298461914</ele>
        <time>2016-09-21T14:15:45.000Z</time>
      </trkpt>
      <trkpt lon="0.5046628117561340" lat="49.3315315246582031">
        <ele>40.419776916503906</ele>
        <time>2016-09-21T14:15:47.000Z</time>
      </trkpt>
      <trkpt lon="0.5045024156570435" lat="49.3313903808593750">
        <ele>40.13469314575195</ele>
        <time>2016-09-21T14:15:50.000Z</time>
      </trkpt>
      <trkpt lon="0.5044080018997192" lat="49.3313064575195312">
        <ele>39.919883728027344</ele>
        <time>2016-09-21T14:15:52.000Z</time>
      </trkpt>
      <trkpt lon="0.5042364597320557" lat="49.3311691284179688">
        <ele>39.653961181640625</ele>
        <time>2016-09-21T14:15:55.000Z</time>
      </trkpt>
      <trkpt lon="0.5041273236274719" lat="49.3310775756835938">
        <ele>39.362369537353516</ele>
        <time>2016-09-21T14:15:57.000Z</time>
      </trkpt>
      <trkpt lon="0.5039707422256470" lat="49.3309669494628906">
        <ele>39.014244079589844</ele>
        <time>2016-09-21T14:16:00.000Z</time>
      </trkpt>
      <trkpt lon="0.5038133263587952" lat="49.3308296203613281">
        <ele>38.564815521240234</ele>
        <time>2016-09-21T14:16:03.000Z</time>
      </trkpt>
      <trkpt lon="0.5036006569862366" lat="49.3307189941406250">
        <ele>38.30510711669922</ele>
        <time>2016-09-21T14:16:06.000Z</time>
      </trkpt>
      <trkpt lon="0.5033905506134033" lat="49.3306198120117188">
        <ele>38.272518157958984</ele>
        <time>2016-09-21T14:16:09.000Z</time>
      </trkpt>
      <trkpt lon="0.5032683014869690" lat="49.3305625915527344">
        <ele>38.40298080444336</ele>
        <time>2016-09-21T14:16:11.000Z</time>
      </trkpt>
      <trkpt lon="0.5030839443206787" lat="49.3304634094238281">
        <ele>38.68560028076172</ele>
        <time>2016-09-21T14:16:14.000Z</time>
      </trkpt>
      <trkpt lon="0.5029740929603577" lat="49.3304061889648438">
        <ele>39.136260986328125</ele>
        <time>2016-09-21T14:16:16.000Z</time>
      </trkpt>
      <trkpt lon="0.5028029084205627" lat="49.3303222656250000">
        <ele>39.48224639892578</ele>
        <time>2016-09-21T14:16:19.000Z</time>
      </trkpt>
      <trkpt lon="0.5026865601539612" lat="49.3302650451660156">
        <ele>39.72850036621094</ele>
        <time>2016-09-21T14:16:21.000Z</time>
      </trkpt>
      <trkpt lon="0.5025681257247925" lat="49.3302154541015625">
        <ele>39.931148529052734</ele>
        <time>2016-09-21T14:16:23.000Z</time>
      </trkpt>
      <trkpt lon="0.5024530291557312" lat="49.3301544189453125">
        <ele>40.04242706298828</ele>
        <time>2016-09-21T14:16:25.000Z</time>
      </trkpt>
      <trkpt lon="0.5022733807563782" lat="49.3300666809082031">
        <ele>40.120513916015625</ele>
        <time>2016-09-21T14:16:28.000Z</time>
      </trkpt>
      <trkpt lon="0.5020948648452759" lat="49.3299713134765625">
        <ele>40.17876052856445</ele>
        <time>2016-09-21T14:16:31.000Z</time>
      </trkpt>
      <trkpt lon="0.5019708871841431" lat="49.3299064636230469">
        <ele>40.28962326049805</ele>
        <time>2016-09-21T14:16:33.000Z</time>
      </trkpt>
      <trkpt lon="0.5018394589424133" lat="49.3298568725585938">
        <ele>40.45812225341797</ele>
        <time>2016-09-21T14:16:35.000Z</time>
      </trkpt>
      <trkpt lon="0.5016692876815796" lat="49.3297805786132812">
        <ele>40.70874786376953</ele>
        <time>2016-09-21T14:16:38.000Z</time>
      </trkpt>
      <trkpt lon="0.5015377998352051" lat="49.3297157287597656">
        <ele>41.019248962402344</ele>
        <time>2016-09-21T14:16:40.000Z</time>
      </trkpt>
      <trkpt lon="0.5014029145240784" lat="49.3296585083007812">
        <ele>41.373779296875</ele>
        <time>2016-09-21T14:16:42.000Z</time>
      </trkpt>
      <trkpt lon="0.5012116432189941" lat="49.3295555114746094">
        <ele>41.691749572753906</ele>
        <time>2016-09-21T14:16:45.000Z</time>
      </trkpt>
      <trkpt lon="0.5010564923286438" lat="49.3294792175292969">
        <ele>41.937538146972656</ele>
        <time>2016-09-21T14:16:48.000Z</time>
      </trkpt>
      <trkpt lon="0.5008878707885742" lat="49.3293647766113281">
        <ele>42.03741455078125</ele>
        <time>2016-09-21T14:16:51.000Z</time>
      </trkpt>
      <trkpt lon="0.5007877945899963" lat="49.3292846679687500">
        <ele>42.00507354736328</ele>
        <time>2016-09-21T14:16:53.000Z</time>
      </trkpt>
      <trkpt lon="0.5006375908851624" lat="49.3292427062988281">
        <ele>42.00458908081055</ele>
        <time>2016-09-21T14:16:55.000Z</time>
      </trkpt>
      <trkpt lon="0.5005167722702026" lat="49.3291854858398438">
        <ele>41.988441467285156</ele>
        <time>2016-09-21T14:16:57.000Z</time>
      </trkpt>
      <trkpt lon="0.5003322958946228" lat="49.3290901184082031">
        <ele>42.022560119628906</ele>
        <time>2016-09-21T14:17:00.000Z</time>
      </trkpt>
      <trkpt lon="0.5001980066299438" lat="49.3290023803710938">
        <ele>42.13684844970703</ele>
        <time>2016-09-21T14:17:02.000Z</time>
      </trkpt>
      <trkpt lon="0.4999792575836182" lat="49.3288993835449219">
        <ele>42.34198760986328</ele>
        <time>2016-09-21T14:17:05.000Z</time>
      </trkpt>
      <trkpt lon="0.4998515248298645" lat="49.3288383483886719">
        <ele>42.52729797363281</ele>
        <time>2016-09-21T14:17:07.000Z</time>
      </trkpt>
      <trkpt lon="0.4996738433837891" lat="49.3287544250488281">
        <ele>42.782501220703125</ele>
        <time>2016-09-21T14:17:10.000Z</time>
      </trkpt>
      <trkpt lon="0.4995523691177368" lat="49.3286972045898438">
        <ele>43.01240158081055</ele>
        <time>2016-09-21T14:17:12.000Z</time>
      </trkpt>
      <trkpt lon="0.4993351101875305" lat="49.3286476135253906">
        <ele>43.393775939941406</ele>
        <time>2016-09-21T14:17:15.000Z</time>
      </trkpt>
      <trkpt lon="0.4991063773632050" lat="49.3285560607910156">
        <ele>43.81664276123047</ele>
        <time>2016-09-21T14:17:18.000Z</time>
      </trkpt>
      <trkpt lon="0.4989674091339111" lat="49.3285064697265625">
        <ele>44.23918914794922</ele>
        <time>2016-09-21T14:17:20.000Z</time>
      </trkpt>
      <trkpt lon="0.4988043904304504" lat="49.3284454345703125">
        <ele>44.63933181762695</ele>
        <time>2016-09-21T14:17:23.000Z</time>
      </trkpt>
      <trkpt lon="0.4986753761768341" lat="49.3283729553222656">
        <ele>44.95885467529297</ele>
        <time>2016-09-21T14:17:25.000Z</time>
      </trkpt>
      <trkpt lon="0.4984775781631470" lat="49.3283004760742188">
        <ele>45.23511505126953</ele>
        <time>2016-09-21T14:17:28.000Z</time>
      </trkpt>
      <trkpt lon="0.4983356595039368" lat="49.3282279968261719">
        <ele>45.53813934326172</ele>
        <time>2016-09-21T14:17:30.000Z</time>
      </trkpt>
      <trkpt lon="0.4981805980205536" lat="49.3281784057617188">
        <ele>45.911415100097656</ele>
        <time>2016-09-21T14:17:32.000Z</time>
      </trkpt>
      <trkpt lon="0.4980783462524414" lat="49.3281288146972656">
        <ele>46.27276611328125</ele>
        <time>2016-09-21T14:17:34.000Z</time>
      </trkpt>
      <trkpt lon="0.4978790283203125" lat="49.3280372619628906">
        <ele>46.73404312133789</ele>
        <time>2016-09-21T14:17:37.000Z</time>
      </trkpt>
      <trkpt lon="0.4977635145187378" lat="49.3279762268066406">
        <ele>47.067237854003906</ele>
        <time>2016-09-21T14:17:39.000Z</time>
      </trkpt>
      <trkpt lon="0.4976578950881958" lat="49.3279457092285156">
        <ele>47.34838104248047</ele>
        <time>2016-09-21T14:17:41.000Z</time>
      </trkpt>
      <trkpt lon="0.4974733293056488" lat="49.3278617858886719">
        <ele>47.43161392211914</ele>
        <time>2016-09-21T14:17:44.000Z</time>
      </trkpt>
      <trkpt lon="0.4972783625125885" lat="49.3277816772460938">
        <ele>47.488075256347656</ele>
        <time>2016-09-21T14:17:47.000Z</time>
      </trkpt>
      <trkpt lon="0.4971539676189423" lat="49.3277397155761719">
        <ele>47.50151443481445</ele>
        <time>2016-09-21T14:17:49.000Z</time>
      </trkpt>
      <trkpt lon="0.4970279932022095" lat="49.3276824951171875">
        <ele>47.48883819580078</ele>
        <time>2016-09-21T14:17:51.000Z</time>
      </trkpt>
      <trkpt lon="0.4969134330749512" lat="49.3276329040527344">
        <ele>47.3988151550293</ele>
        <time>2016-09-21T14:17:53.000Z</time>
      </trkpt>
      <trkpt lon="0.4967320263385773" lat="49.3275718688964844">
        <ele>47.33073806762695</ele>
        <time>2016-09-21T14:17:56.000Z</time>
      </trkpt>
      <trkpt lon="0.4965314567089081" lat="49.3275070190429688">
        <ele>47.18585968017578</ele>
        <time>2016-09-21T14:17:59.000Z</time>
      </trkpt>
      <trkpt lon="0.4963191449642181" lat="49.3274269104003906">
        <ele>47.10369873046875</ele>
        <time>2016-09-21T14:18:02.000Z</time>
      </trkpt>
      <trkpt lon="0.4961172342300415" lat="49.3273620605468750">
        <ele>47.13372039794922</ele>
        <time>2016-09-21T14:18:05.000Z</time>
      </trkpt>
      <trkpt lon="0.4959090948104858" lat="49.3272972106933594">
        <ele>47.257835388183594</ele>
        <time>2016-09-21T14:18:08.000Z</time>
      </trkpt>
      <trkpt lon="0.4957344233989716" lat="49.3272552490234375">
        <ele>47.46002197265625</ele>
        <time>2016-09-21T14:18:10.000Z</time>
      </trkpt>
      <trkpt lon="0.4955754876136780" lat="49.3272285461425781">
        <ele>47.79285430908203</ele>
        <time>2016-09-21T14:18:12.000Z</time>
      </trkpt>
      <trkpt lon="0.4953268170356750" lat="49.3272056579589844">
        <ele>48.195762634277344</ele>
        <time>2016-09-21T14:18:15.000Z</time>
      </trkpt>
      <trkpt lon="0.4951761066913605" lat="49.3271713256835938">
        <ele>48.57026290893555</ele>
        <time>2016-09-21T14:18:17.000Z</time>
      </trkpt>
      <trkpt lon="0.4950384795665741" lat="49.3271408081054688">
        <ele>48.91913604736328</ele>
        <time>2016-09-21T14:18:19.000Z</time>
      </trkpt>
      <trkpt lon="0.4948363006114960" lat="49.3270568847656250">
        <ele>49.14624786376953</ele>
        <time>2016-09-21T14:18:22.000Z</time>
      </trkpt>
      <trkpt lon="0.4947037100791931" lat="49.3270111083984375">
        <ele>49.24083709716797</ele>
        <time>2016-09-21T14:18:24.000Z</time>
      </trkpt>
      <trkpt lon="0.4944902956485748" lat="49.3269386291503906">
        <ele>49.09589767456055</ele>
        <time>2016-09-21T14:18:27.000Z</time>
      </trkpt>
      <trkpt lon="0.4942740499973297" lat="49.3269081115722656">
        <ele>48.922828674316406</ele>
        <time>2016-09-21T14:18:30.000Z</time>
      </trkpt>
      <trkpt lon="0.4939987063407898" lat="49.3269004821777344">
        <ele>48.869590759277344</ele>
        <time>2016-09-21T14:18:33.000Z</time>
      </trkpt>
      <trkpt lon="0.4938424527645111" lat="49.3268508911132812">
        <ele>48.83441162109375</ele>
        <time>2016-09-21T14:18:35.000Z</time>
      </trkpt>
      <trkpt lon="0.4936092793941498" lat="49.3267860412597656">
        <ele>48.768775939941406</ele>
        <time>2016-09-21T14:18:38.000Z</time>
      </trkpt>
      <trkpt lon="0.4933800399303436" lat="49.3267364501953125">
        <ele>48.741661071777344</ele>
        <time>2016-09-21T14:18:41.000Z</time>
      </trkpt>
      <trkpt lon="0.4931581616401672" lat="49.3266754150390625">
        <ele>48.60123825073242</ele>
        <time>2016-09-21T14:18:44.000Z</time>
      </trkpt>
      <trkpt lon="0.4930219650268555" lat="49.3266220092773438">
        <ele>48.332122802734375</ele>
        <time>2016-09-21T14:18:46.000Z</time>
      </trkpt>
      <trkpt lon="0.4928399920463562" lat="49.3265609741210938">
        <ele>48.181724548339844</ele>
        <time>2016-09-21T14:18:48.000Z</time>
      </trkpt>
      <trkpt lon="0.4926160871982574" lat="49.3265266418457031">
        <ele>48.22100067138672</ele>
        <time>2016-09-21T14:18:51.000Z</time>
      </trkpt>
      <trkpt lon="0.4923780560493469" lat="49.3264846801757812">
        <ele>48.399131774902344</ele>
        <time>2016-09-21T14:18:54.000Z</time>
      </trkpt>
      <trkpt lon="0.4922168850898743" lat="49.3264694213867188">
        <ele>48.73224639892578</ele>
        <time>2016-09-21T14:18:56.000Z</time>
      </trkpt>
      <trkpt lon="0.4919283688068390" lat="49.3264503479003906">
        <ele>49.15951919555664</ele>
        <time>2016-09-21T14:18:59.000Z</time>
      </trkpt>
      <trkpt lon="0.4916991293430328" lat="49.3264160156250000">
        <ele>49.59256362915039</ele>
        <time>2016-09-21T14:19:02.000Z</time>
      </trkpt>
      <trkpt lon="0.4915576279163361" lat="49.3264427185058594">
        <ele>49.95161819458008</ele>
        <time>2016-09-21T14:19:04.000Z</time>
      </trkpt>
      <trkpt lon="0.4912486076354980" lat="49.3264884948730469">
        <ele>50.20409393310547</ele>
        <time>2016-09-21T14:19:07.000Z</time>
      </trkpt>
      <trkpt lon="0.4909957051277161" lat="49.3265304565429688">
        <ele>50.35146713256836</ele>
        <time>2016-09-21T14:19:10.000Z</time>
      </trkpt>
      <trkpt lon="0.4907276630401611" lat="49.3265953063964844">
        <ele>50.37504577636719</ele>
        <time>2016-09-21T14:19:13.000Z</time>
      </trkpt>
      <trkpt lon="0.4905641973018646" lat="49.3266105651855469">
        <ele>50.37744903564453</ele>
        <time>2016-09-21T14:19:15.000Z</time>
      </trkpt>
      <trkpt lon="0.4903041124343872" lat="49.3266563415527344">
        <ele>50.39657974243164</ele>
        <time>2016-09-21T14:19:18.000Z</time>
      </trkpt>
      <trkpt lon="0.4901697635650635" lat="49.3267021179199219">
        <ele>50.5841178894043</ele>
        <time>2016-09-21T14:19:20.000Z</time>
      </trkpt>
      <trkpt lon="0.4899385869503021" lat="49.3267173767089844">
        <ele>50.9309196472168</ele>
        <time>2016-09-21T14:19:23.000Z</time>
      </trkpt>
      <trkpt lon="0.4898043870925903" lat="49.3267402648925781">
        <ele>51.41059494018555</ele>
        <time>2016-09-21T14:19:25.000Z</time>
      </trkpt>
      <trkpt lon="0.4896638393402100" lat="49.3267631530761719">
        <ele>51.941307067871094</ele>
        <time>2016-09-21T14:19:27.000Z</time>
      </trkpt>
      <trkpt lon="0.4895270466804504" lat="49.3267860412597656">
        <ele>52.521141052246094</ele>
        <time>2016-09-21T14:19:29.000Z</time>
      </trkpt>
      <trkpt lon="0.4893078505992889" lat="49.3268318176269531">
        <ele>53.095558166503906</ele>
        <time>2016-09-21T14:19:32.000Z</time>
      </trkpt>
      <trkpt lon="0.4891650080680847" lat="49.3268585205078125">
        <ele>53.62744903564453</ele>
        <time>2016-09-21T14:19:34.000Z</time>
      </trkpt>
      <trkpt lon="0.4889674484729767" lat="49.3269042968750000">
        <ele>54.17237091064453</ele>
        <time>2016-09-21T14:19:37.000Z</time>
      </trkpt>
      <trkpt lon="0.4887735843658447" lat="49.3269500732421875">
        <ele>54.72123336791992</ele>
        <time>2016-09-21T14:19:40.000Z</time>
      </trkpt>
      <trkpt lon="0.4885668754577637" lat="49.3269691467285156">
        <ele>55.233001708984375</ele>
        <time>2016-09-21T14:19:43.000Z</time>
      </trkpt>
      <trkpt lon="0.4884455204010010" lat="49.3269996643066406">
        <ele>55.6407356262207</ele>
        <time>2016-09-21T14:19:45.000Z</time>
      </trkpt>
      <trkpt lon="0.4882668256759644" lat="49.3270301818847656">
        <ele>56.05329132080078</ele>
        <time>2016-09-21T14:19:48.000Z</time>
      </trkpt>
      <trkpt lon="0.4881363809108734" lat="49.3270530700683594">
        <ele>56.430641174316406</ele>
        <time>2016-09-21T14:19:50.000Z</time>
      </trkpt>
      <trkpt lon="0.4880172014236450" lat="49.3270797729492188">
        <ele>56.792396545410156</ele>
        <time>2016-09-21T14:19:52.000Z</time>
      </trkpt>
      <trkpt lon="0.4878278672695160" lat="49.3271255493164062">
        <ele>57.227561950683594</ele>
        <time>2016-09-21T14:19:55.000Z</time>
      </trkpt>
      <trkpt lon="0.4877007007598877" lat="49.3271484375000000">
        <ele>57.71202850341797</ele>
        <time>2016-09-21T14:19:57.000Z</time>
      </trkpt>
      <trkpt lon="0.4875835180282593" lat="49.3271675109863281">
        <ele>58.19828414916992</ele>
        <time>2016-09-21T14:19:59.000Z</time>
      </trkpt>
      <trkpt lon="0.4874697923660278" lat="49.3271865844726562">
        <ele>58.66094970703125</ele>
        <time>2016-09-21T14:20:01.000Z</time>
      </trkpt>
      <trkpt lon="0.4872961044311523" lat="49.3272056579589844">
        <ele>59.17975616455078</ele>
        <time>2016-09-21T14:20:04.000Z</time>
      </trkpt>
      <trkpt lon="0.4871634244918823" lat="49.3272132873535156">
        <ele>59.67948532104492</ele>
        <time>2016-09-21T14:20:06.000Z</time>
      </trkpt>
      <trkpt lon="0.4870220124721527" lat="49.3272285461425781">
        <ele>60.22175216674805</ele>
        <time>2016-09-21T14:20:08.000Z</time>
      </trkpt>
      <trkpt lon="0.4868992269039154" lat="49.3272514343261719">
        <ele>60.80626678466797</ele>
        <time>2016-09-21T14:20:10.000Z</time>
      </trkpt>
      <trkpt lon="0.4867237806320190" lat="49.3272933959960938">
        <ele>61.50270462036133</ele>
        <time>2016-09-21T14:20:13.000Z</time>
      </trkpt>
      <trkpt lon="0.4865383803844452" lat="49.3273582458496094">
        <ele>62.058448791503906</ele>
        <time>2016-09-21T14:20:16.000Z</time>
      </trkpt>
      <trkpt lon="0.4863678216934204" lat="49.3274383544921875">
        <ele>62.3918342590332</ele>
        <time>2016-09-21T14:20:18.000Z</time>
      </trkpt>
      <trkpt lon="0.4862109124660492" lat="49.3274612426757812">
        <ele>62.46222686767578</ele>
        <time>2016-09-21T14:20:20.000Z</time>
      </trkpt>
      <trkpt lon="0.4859982430934906" lat="49.3274688720703125">
        <ele>62.2198600769043</ele>
        <time>2016-09-21T14:20:23.000Z</time>
      </trkpt>
      <trkpt lon="0.4858399331569672" lat="49.3274765014648438">
        <ele>61.63922882080078</ele>
        <time>2016-09-21T14:20:25.000Z</time>
      </trkpt>
      <trkpt lon="0.4856774806976318" lat="49.3274955749511719">
        <ele>60.9288444519043</ele>
        <time>2016-09-21T14:20:27.000Z</time>
      </trkpt>
      <trkpt lon="0.4855244159698486" lat="49.3275032043457031">
        <ele>60.21893310546875</ele>
        <time>2016-09-21T14:20:29.000Z</time>
      </trkpt>
      <trkpt lon="0.4853120148181915" lat="49.3274841308593750">
        <ele>59.50288772583008</ele>
        <time>2016-09-21T14:20:32.000Z</time>
      </trkpt>
      <trkpt lon="0.4851113557815552" lat="49.3274574279785156">
        <ele>58.872955322265625</ele>
        <time>2016-09-21T14:20:34.000Z</time>
      </trkpt>
      <trkpt lon="0.4848938584327698" lat="49.3274879455566406">
        <ele>58.351768493652344</ele>
        <time>2016-09-21T14:20:37.000Z</time>
      </trkpt>
      <trkpt lon="0.4846190214157104" lat="49.3275146484375000">
        <ele>58.177345275878906</ele>
        <time>2016-09-21T14:20:40.000Z</time>
      </trkpt>
      <trkpt lon="0.4844954609870911" lat="49.3275146484375000">
        <ele>58.196266174316406</ele>
        <time>2016-09-21T14:20:42.000Z</time>
      </trkpt>
      <trkpt lon="0.4843465089797974" lat="49.3274993896484375">
        <ele>58.42450714111328</ele>
        <time>2016-09-21T14:20:44.000Z</time>
      </trkpt>
      <trkpt lon="0.4840942919254303" lat="49.3275070190429688">
        <ele>58.92181396484375</ele>
        <time>2016-09-21T14:20:47.000Z</time>
      </trkpt>
      <trkpt lon="0.4838701784610748" lat="49.3275337219238281">
        <ele>59.581459045410156</ele>
        <time>2016-09-21T14:20:50.000Z</time>
      </trkpt>
      <trkpt lon="0.4836573600769043" lat="49.3275260925292969">
        <ele>60.0510368347168</ele>
        <time>2016-09-21T14:20:53.000Z</time>
      </trkpt>
      <trkpt lon="0.4834958314895630" lat="49.3275146484375000">
        <ele>60.443214416503906</ele>
        <time>2016-09-21T14:20:55.000Z</time>
      </trkpt>
      <trkpt lon="0.4833199977874756" lat="49.3275070190429688">
        <ele>60.789825439453125</ele>
        <time>2016-09-21T14:20:57.000Z</time>
      </trkpt>
      <trkpt lon="0.4831051528453827" lat="49.3274917602539062">
        <ele>61.01201629638672</ele>
        <time>2016-09-21T14:21:00.000Z</time>
      </trkpt>
      <trkpt lon="0.4828507602214813" lat="49.3274536132812500">
        <ele>61.16448211669922</ele>
        <time>2016-09-21T14:21:03.000Z</time>
      </trkpt>
      <trkpt lon="0.4827021658420563" lat="49.3274307250976562">
        <ele>61.30765914916992</ele>
        <time>2016-09-21T14:21:05.000Z</time>
      </trkpt>
      <trkpt lon="0.4825040996074677" lat="49.3274154663085938">
        <ele>61.470970153808594</ele>
        <time>2016-09-21T14:21:08.000Z</time>
      </trkpt>
      <trkpt lon="0.4823548197746277" lat="49.3274154663085938">
        <ele>61.59478759765625</ele>
        <time>2016-09-21T14:21:10.000Z</time>
      </trkpt>
      <trkpt lon="0.4822357892990112" lat="49.3274116516113281">
        <ele>61.66752243041992</ele>
        <time>2016-09-21T14:21:12.000Z</time>
      </trkpt>
      <trkpt lon="0.4820676445960999" lat="49.3274192810058594">
        <ele>61.66740798950195</ele>
        <time>2016-09-21T14:21:15.000Z</time>
      </trkpt>
      <trkpt lon="0.4819435179233551" lat="49.3274269104003906">
        <ele>61.62804412841797</ele>
        <time>2016-09-21T14:21:17.000Z</time>
      </trkpt>
      <trkpt lon="0.4818221330642700" lat="49.3274307250976562">
        <ele>61.5410270690918</ele>
        <time>2016-09-21T14:21:19.000Z</time>
      </trkpt>
      <trkpt lon="0.4816446006298065" lat="49.3274230957031250">
        <ele>61.46142578125</ele>
        <time>2016-09-21T14:21:22.000Z</time>
      </trkpt>
      <trkpt lon="0.4815205633640289" lat="49.3274002075195312">
        <ele>61.46258544921875</ele>
        <time>2016-09-21T14:21:24.000Z</time>
      </trkpt>
      <trkpt lon="0.4813837707042694" lat="49.3273620605468750">
        <ele>61.557456970214844</ele>
        <time>2016-09-21T14:21:26.000Z</time>
      </trkpt>
      <trkpt lon="0.4812436103820801" lat="49.3273162841796875">
        <ele>61.735504150390625</ele>
        <time>2016-09-21T14:21:28.000Z</time>
      </trkpt>
      <trkpt lon="0.4808471500873566" lat="49.3271255493164062">
        <ele>62.0609245300293</ele>
        <time>2016-09-21T14:21:32.000Z</time>
      </trkpt>
      <trkpt lon="0.4806506037712097" lat="49.3270301818847656">
        <ele>62.42499923706055</ele>
        <time>2016-09-21T14:21:35.000Z</time>
      </trkpt>
      <trkpt lon="0.4805527925491333" lat="49.3270034790039062">
        <ele>62.72379684448242</ele>
        <time>2016-09-21T14:21:37.000Z</time>
      </trkpt>
      <trkpt lon="0.4804015755653381" lat="49.3269348144531250">
        <ele>62.915771484375</ele>
        <time>2016-09-21T14:21:40.000Z</time>
      </trkpt>
      <trkpt lon="0.4802338480949402" lat="49.3268547058105469">
        <ele>62.955055236816406</ele>
        <time>2016-09-21T14:21:43.000Z</time>
      </trkpt>
      <trkpt lon="0.4801264703273773" lat="49.3267822265625000">
        <ele>62.75905227661133</ele>
        <time>2016-09-21T14:21:45.000Z</time>
      </trkpt>
      <trkpt lon="0.4799809753894806" lat="49.3266716003417969">
        <ele>62.349510192871094</ele>
        <time>2016-09-21T14:21:48.000Z</time>
      </trkpt>
      <trkpt lon="0.4798586070537567" lat="49.3265571594238281">
        <ele>62.158111572265625</ele>
        <time>2016-09-21T14:21:51.000Z</time>
      </trkpt>
      <trkpt lon="0.4797270894050598" lat="49.3264694213867188">
        <ele>62.180381774902344</ele>
        <time>2016-09-21T14:21:54.000Z</time>
      </trkpt>
      <trkpt lon="0.4796255826950073" lat="49.3263702392578125">
        <ele>62.45299530029297</ele>
        <time>2016-09-21T14:21:57.000Z</time>
      </trkpt>
      <trkpt lon="0.4795152842998505" lat="49.3262672424316406">
        <ele>62.98979949951172</ele>
        <time>2016-09-21T14:22:00.000Z</time>
      </trkpt>
      <trkpt lon="0.4793815910816193" lat="49.3261680603027344">
        <ele>63.8405647277832</ele>
        <time>2016-09-21T14:22:03.000Z</time>
      </trkpt>
      <trkpt lon="0.4792570173740387" lat="49.3260688781738281">
        <ele>64.57994079589844</ele>
        <time>2016-09-21T14:22:06.000Z</time>
      </trkpt>
      <trkpt lon="0.4791223406791687" lat="49.3259582519531250">
        <ele>65.25443267822266</ele>
        <time>2016-09-21T14:22:09.000Z</time>
      </trkpt>
      <trkpt lon="0.4790274500846863" lat="49.3259010314941406">
        <ele>65.83184051513672</ele>
        <time>2016-09-21T14:22:11.000Z</time>
      </trkpt>
      <trkpt lon="0.4788933396339417" lat="49.3257904052734375">
        <ele>66.33570861816406</ele>
        <time>2016-09-21T14:22:14.000Z</time>
      </trkpt>
      <trkpt lon="0.4788125455379486" lat="49.3257217407226562">
        <ele>66.76100158691406</ele>
        <time>2016-09-21T14:22:16.000Z</time>
      </trkpt>
      <trkpt lon="0.4787033200263977" lat="49.3255767822265625">
        <ele>67.14851379394531</ele>
        <time>2016-09-21T14:22:19.000Z</time>
      </trkpt>
      <trkpt lon="0.4786042273044586" lat="49.3255233764648438">
        <ele>67.40179443359375</ele>
        <time>2016-09-21T14:22:21.000Z</time>
      </trkpt>
      <trkpt lon="0.4785318076610565" lat="49.3254623413085938">
        <ele>67.57064056396484</ele>
        <time>2016-09-21T14:22:23.000Z</time>
      </trkpt>
      <trkpt lon="0.4783955216407776" lat="49.3253479003906250">
        <ele>67.580078125</ele>
        <time>2016-09-21T14:22:26.000Z</time>
      </trkpt>
      <trkpt lon="0.4783075153827667" lat="49.3252601623535156">
        <ele>67.50035095214844</ele>
        <time>2016-09-21T14:22:28.000Z</time>
      </trkpt>
      <trkpt lon="0.4782009124755859" lat="49.3251762390136719">
        <ele>67.39546203613281</ele>
        <time>2016-09-21T14:22:30.000Z</time>
      </trkpt>
      <trkpt lon="0.4781191051006317" lat="49.3250923156738281">
        <ele>67.32559204101562</ele>
        <time>2016-09-21T14:22:32.000Z</time>
      </trkpt>
      <trkpt lon="0.4780469238758087" lat="49.3250160217285156">
        <ele>67.27298736572266</ele>
        <time>2016-09-21T14:22:34.000Z</time>
      </trkpt>
      <trkpt lon="0.4779434204101562" lat="49.3248939514160156">
        <ele>67.44808197021484</ele>
        <time>2016-09-21T14:22:37.000Z</time>
      </trkpt>
      <trkpt lon="0.4778673052787781" lat="49.3247718811035156">
        <ele>67.79351806640625</ele>
        <time>2016-09-21T14:22:40.000Z</time>
      </trkpt>
      <trkpt lon="0.4778216183185577" lat="49.3247032165527344">
        <ele>68.14924621582031</ele>
        <time>2016-09-21T14:22:42.000Z</time>
      </trkpt>
      <trkpt lon="0.4777540564537048" lat="49.3246307373046875">
        <ele>68.51936340332031</ele>
        <time>2016-09-21T14:22:44.000Z</time>
      </trkpt>
      <trkpt lon="0.4776611030101776" lat="49.3245468139648438">
        <ele>68.88264465332031</ele>
        <time>2016-09-21T14:22:47.000Z</time>
      </trkpt>
      <trkpt lon="0.4775909483432770" lat="49.3244781494140625">
        <ele>69.0678939819336</ele>
        <time>2016-09-21T14:22:49.000Z</time>
      </trkpt>
      <trkpt lon="0.4775088131427765" lat="49.3243560791015625">
        <ele>69.07374572753906</ele>
        <time>2016-09-21T14:22:52.000Z</time>
      </trkpt>
      <trkpt lon="0.4774299263954163" lat="49.3242378234863281">
        <ele>69.23883056640625</ele>
        <time>2016-09-21T14:22:55.000Z</time>
      </trkpt>
      <trkpt lon="0.4773767888545990" lat="49.3241043090820312">
        <ele>69.54428100585938</ele>
        <time>2016-09-21T14:22:58.000Z</time>
      </trkpt>
      <trkpt lon="0.4772846698760986" lat="49.3239898681640625">
        <ele>70.1037826538086</ele>
        <time>2016-09-21T14:23:01.000Z</time>
      </trkpt>
      <trkpt lon="0.4771972596645355" lat="49.3238716125488281">
        <ele>70.87168884277344</ele>
        <time>2016-09-21T14:23:04.000Z</time>
      </trkpt>
      <trkpt lon="0.4771275222301483" lat="49.3237380981445312">
        <ele>71.78475189208984</ele>
        <time>2016-09-21T14:23:07.000Z</time>
      </trkpt>
      <trkpt lon="0.4770561158657074" lat="49.3236579895019531">
        <ele>72.55796813964844</ele>
        <time>2016-09-21T14:23:09.000Z</time>
      </trkpt>
      <trkpt lon="0.4769561886787415" lat="49.3235282897949219">
        <ele>73.20248413085938</ele>
        <time>2016-09-21T14:23:12.000Z</time>
      </trkpt>
      <trkpt lon="0.4768761396408081" lat="49.3234596252441406">
        <ele>73.61674499511719</ele>
        <time>2016-09-21T14:23:14.000Z</time>
      </trkpt>
      <trkpt lon="0.4767696857452393" lat="49.3233489990234375">
        <ele>73.80425262451172</ele>
        <time>2016-09-21T14:23:17.000Z</time>
      </trkpt>
      <trkpt lon="0.4767027199268341" lat="49.3232879638671875">
        <ele>73.91542053222656</ele>
        <time>2016-09-21T14:23:19.000Z</time>
      </trkpt>
      <trkpt lon="0.4766173064708710" lat="49.3231658935546875">
        <ele>74.01496124267578</ele>
        <time>2016-09-21T14:23:22.000Z</time>
      </trkpt>
      <trkpt lon="0.4765201508998871" lat="49.3230476379394531">
        <ele>74.159912109375</ele>
        <time>2016-09-21T14:23:25.000Z</time>
      </trkpt>
      <trkpt lon="0.4764479994773865" lat="49.3229598999023438">
        <ele>74.34089660644531</ele>
        <time>2016-09-21T14:23:27.000Z</time>
      </trkpt>
      <trkpt lon="0.4763851463794708" lat="49.3228836059570312">
        <ele>74.60173034667969</ele>
        <time>2016-09-21T14:23:29.000Z</time>
      </trkpt>
      <trkpt lon="0.4763188362121582" lat="49.3227996826171875">
        <ele>74.86901092529297</ele>
        <time>2016-09-21T14:23:31.000Z</time>
      </trkpt>
      <trkpt lon="0.4762280583381653" lat="49.3226737976074219">
        <ele>75.09288024902344</ele>
        <time>2016-09-21T14:23:34.000Z</time>
      </trkpt>
      <trkpt lon="0.4761470854282379" lat="49.3225746154785156">
        <ele>75.23634338378906</ele>
        <time>2016-09-21T14:23:36.000Z</time>
      </trkpt>
      <trkpt lon="0.4760636091232300" lat="49.3224639892578125">
        <ele>75.34759521484375</ele>
        <time>2016-09-21T14:23:39.000Z</time>
      </trkpt>
      <trkpt lon="0.4759676158428192" lat="49.3223342895507812">
        <ele>75.492919921875</ele>
        <time>2016-09-21T14:23:42.000Z</time>
      </trkpt>
      <trkpt lon="0.4759026765823364" lat="49.3222579956054688">
        <ele>75.63197326660156</ele>
        <time>2016-09-21T14:23:44.000Z</time>
      </trkpt>
      <trkpt lon="0.4758030176162720" lat="49.3221321105957031">
        <ele>75.84165954589844</ele>
        <time>2016-09-21T14:23:47.000Z</time>
      </trkpt>
      <trkpt lon="0.4757131636142731" lat="49.3220176696777344">
        <ele>76.31388854980469</ele>
        <time>2016-09-21T14:23:50.000Z</time>
      </trkpt>
      <trkpt lon="0.4756096303462982" lat="49.3219375610351562">
        <ele>77.09273529052734</ele>
        <time>2016-09-21T14:23:52.000Z</time>
      </trkpt>
      <trkpt lon="0.4754896163940430" lat="49.3218040466308594">
        <ele>78.21865844726562</ele>
        <time>2016-09-21T14:23:55.000Z</time>
      </trkpt>
      <trkpt lon="0.4753406643867493" lat="49.3216819763183594">
        <ele>79.86858367919922</ele>
        <time>2016-09-21T14:23:58.000Z</time>
      </trkpt>
      <trkpt lon="0.4752880334854126" lat="49.3216018676757812">
        <ele>81.50942993164062</ele>
        <time>2016-09-21T14:24:00.000Z</time>
      </trkpt>
      <trkpt lon="0.4752294421195984" lat="49.3215408325195312">
        <ele>82.9517593383789</ele>
        <time>2016-09-21T14:24:02.000Z</time>
      </trkpt>
      <trkpt lon="0.4751346409320831" lat="49.3214416503906250">
        <ele>84.13224029541016</ele>
        <time>2016-09-21T14:24:05.000Z</time>
      </trkpt>
      <trkpt lon="0.4750240743160248" lat="49.3213195800781250">
        <ele>84.86934661865234</ele>
        <time>2016-09-21T14:24:08.000Z</time>
      </trkpt>
      <trkpt lon="0.4749610424041748" lat="49.3212394714355469">
        <ele>85.0146713256836</ele>
        <time>2016-09-21T14:24:10.000Z</time>
      </trkpt>
      <trkpt lon="0.4748884737491608" lat="49.3211669921875000">
        <ele>85.10095977783203</ele>
        <time>2016-09-21T14:24:12.000Z</time>
      </trkpt>
      <trkpt lon="0.4748032093048096" lat="49.3210868835449219">
        <ele>85.15042877197266</ele>
        <time>2016-09-21T14:24:14.000Z</time>
      </trkpt>
      <trkpt lon="0.4747343957424164" lat="49.3209304809570312">
        <ele>84.91790008544922</ele>
        <time>2016-09-21T14:24:17.000Z</time>
      </trkpt>
      <trkpt lon="0.4745990335941315" lat="49.3208770751953125">
        <ele>84.95909118652344</ele>
        <time>2016-09-21T14:24:19.000Z</time>
      </trkpt>
      <trkpt lon="0.4744876325130463" lat="49.3207778930664062">
        <ele>85.19438171386719</ele>
        <time>2016-09-21T14:24:22.000Z</time>
      </trkpt>
      <trkpt lon="0.4743299782276154" lat="49.3206825256347656">
        <ele>85.68524169921875</ele>
        <time>2016-09-21T14:24:25.000Z</time>
      </trkpt>
      <trkpt lon="0.4741955995559692" lat="49.3205833435058594">
        <ele>86.24769592285156</ele>
        <time>2016-09-21T14:24:28.000Z</time>
      </trkpt>
      <trkpt lon="0.4740405380725861" lat="49.3204994201660156">
        <ele>87.12671661376953</ele>
        <time>2016-09-21T14:24:31.000Z</time>
      </trkpt>
      <trkpt lon="0.4738915860652924" lat="49.3204078674316406">
        <ele>87.74569702148438</ele>
        <time>2016-09-21T14:24:34.000Z</time>
      </trkpt>
      <trkpt lon="0.4737274944782257" lat="49.3203201293945312">
        <ele>88.16346740722656</ele>
        <time>2016-09-21T14:24:37.000Z</time>
      </trkpt>
      <trkpt lon="0.4736242294311523" lat="49.3202552795410156">
        <ele>88.1811294555664</ele>
        <time>2016-09-21T14:24:39.000Z</time>
      </trkpt>
      <trkpt lon="0.4735140800476074" lat="49.3201560974121094">
        <ele>87.7956771850586</ele>
        <time>2016-09-21T14:24:42.000Z</time>
      </trkpt>
      <trkpt lon="0.4733796417713165" lat="49.3200569152832031">
        <ele>86.93663787841797</ele>
        <time>2016-09-21T14:24:45.000Z</time>
      </trkpt>
      <trkpt lon="0.4731689095497131" lat="49.3199882507324219">
        <ele>86.20294189453125</ele>
        <time>2016-09-21T14:24:48.000Z</time>
      </trkpt>
      <trkpt lon="0.4730621278285980" lat="49.3199234008789062">
        <ele>85.7651596069336</ele>
        <time>2016-09-21T14:24:50.000Z</time>
      </trkpt>
      <trkpt lon="0.4729192256927490" lat="49.3198089599609375">
        <ele>85.69400787353516</ele>
        <time>2016-09-21T14:24:53.000Z</time>
      </trkpt>
      <trkpt lon="0.4727655649185181" lat="49.3197402954101562">
        <ele>86.09722900390625</ele>
        <time>2016-09-21T14:24:56.000Z</time>
      </trkpt>
      <trkpt lon="0.4726725220680237" lat="49.3196792602539062">
        <ele>86.92513275146484</ele>
        <time>2016-09-21T14:24:58.000Z</time>
      </trkpt>
      <trkpt lon="0.4725853502750397" lat="49.3196220397949219">
        <ele>87.65215301513672</ele>
        <time>2016-09-21T14:25:00.000Z</time>
      </trkpt>
      <trkpt lon="0.4724352359771729" lat="49.3195266723632812">
        <ele>88.25858306884766</ele>
        <time>2016-09-21T14:25:03.000Z</time>
      </trkpt>
      <trkpt lon="0.4723392724990845" lat="49.3194656372070312">
        <ele>88.79737854003906</ele>
        <time>2016-09-21T14:25:05.000Z</time>
      </trkpt>
      <trkpt lon="0.4721916615962982" lat="49.3193664550781250">
        <ele>89.35444641113281</ele>
        <time>2016-09-21T14:25:08.000Z</time>
      </trkpt>
      <trkpt lon="0.4720916748046875" lat="49.3193168640136719">
        <ele>89.9836654663086</ele>
        <time>2016-09-21T14:25:10.000Z</time>
      </trkpt>
      <trkpt lon="0.4720081090927124" lat="49.3192749023437500">
        <ele>90.69095611572266</ele>
        <time>2016-09-21T14:25:12.000Z</time>
      </trkpt>
      <trkpt lon="0.4718713164329529" lat="49.3191680908203125">
        <ele>91.24468231201172</ele>
        <time>2016-09-21T14:25:15.000Z</time>
      </trkpt>
      <trkpt lon="0.4717847108840942" lat="49.3191032409667969">
        <ele>91.78112030029297</ele>
        <time>2016-09-21T14:25:17.000Z</time>
      </trkpt>
      <trkpt lon="0.4717077016830444" lat="49.3190345764160156">
        <ele>92.21121215820312</ele>
        <time>2016-09-21T14:25:19.000Z</time>
      </trkpt>
      <trkpt lon="0.4716268181800842" lat="49.3188896179199219">
        <ele>92.54820251464844</ele>
        <time>2016-09-21T14:25:22.000Z</time>
      </trkpt>
      <trkpt lon="0.4715135693550110" lat="49.3187751770019531">
        <ele>92.93704986572266</ele>
        <time>2016-09-21T14:25:25.000Z</time>
      </trkpt>
      <trkpt lon="0.4714929461479187" lat="49.3186340332031250">
        <ele>93.18315124511719</ele>
        <time>2016-09-21T14:25:28.000Z</time>
      </trkpt>
      <trkpt lon="0.4714476764202118" lat="49.3185462951660156">
        <ele>93.1949691772461</ele>
        <time>2016-09-21T14:25:30.000Z</time>
      </trkpt>
      <trkpt lon="0.4713572561740875" lat="49.3184700012207031">
        <ele>93.09123992919922</ele>
        <time>2016-09-21T14:25:33.000Z</time>
      </trkpt>
      <trkpt lon="0.4713289141654968" lat="49.3183975219726562">
        <ele>92.82950592041016</ele>
        <time>2016-09-21T14:25:35.000Z</time>
      </trkpt>
      <trkpt lon="0.4712955653667450" lat="49.3183212280273438">
        <ele>92.31664276123047</ele>
        <time>2016-09-21T14:25:37.000Z</time>
      </trkpt>
      <trkpt lon="0.4712437689304352" lat="49.3182144165039062">
        <ele>92.06419372558594</ele>
        <time>2016-09-21T14:25:40.000Z</time>
      </trkpt>
      <trkpt lon="0.4711960554122925" lat="49.3181076049804688">
        <ele>91.93932342529297</ele>
        <time>2016-09-21T14:25:43.000Z</time>
      </trkpt>
      <trkpt lon="0.4711673259735107" lat="49.3180313110351562">
        <ele>91.8615951538086</ele>
        <time>2016-09-21T14:25:45.000Z</time>
      </trkpt>
      <trkpt lon="0.4711450040340424" lat="49.3179512023925781">
        <ele>91.9222640991211</ele>
        <time>2016-09-21T14:25:47.000Z</time>
      </trkpt>
      <trkpt lon="0.4711121618747711" lat="49.3178253173828125">
        <ele>92.08995056152344</ele>
        <time>2016-09-21T14:25:50.000Z</time>
      </trkpt>
      <trkpt lon="0.4711000025272369" lat="49.3177375793457031">
        <ele>92.16645812988281</ele>
        <time>2016-09-21T14:25:52.000Z</time>
      </trkpt>
      <trkpt lon="0.4710787236690521" lat="49.3176155090332031">
        <ele>92.16793060302734</ele>
        <time>2016-09-21T14:25:55.000Z</time>
      </trkpt>
      <trkpt lon="0.4710608720779419" lat="49.3175621032714844">
        <ele>92.12126159667969</ele>
        <time>2016-09-21T14:25:57.000Z</time>
      </trkpt>
      <trkpt lon="0.4710517227649689" lat="49.3174667358398438">
        <ele>92.05653381347656</ele>
        <time>2016-09-21T14:26:00.000Z</time>
      </trkpt>
      <trkpt lon="0.4710358083248138" lat="49.3173484802246094">
        <ele>92.00874328613281</ele>
        <time>2016-09-21T14:26:03.000Z</time>
      </trkpt>
      <trkpt lon="0.4710080623626709" lat="49.3172149658203125">
        <ele>91.96235656738281</ele>
        <time>2016-09-21T14:26:06.000Z</time>
      </trkpt>
      <trkpt lon="0.4709916412830353" lat="49.3171310424804688">
        <ele>91.9369125366211</ele>
        <time>2016-09-21T14:26:08.000Z</time>
      </trkpt>
      <trkpt lon="0.4709776341915131" lat="49.3170127868652344">
        <ele>91.95054626464844</ele>
        <time>2016-09-21T14:26:11.000Z</time>
      </trkpt>
      <trkpt lon="0.4709545671939850" lat="49.3169364929199219">
        <ele>91.95072937011719</ele>
        <time>2016-09-21T14:26:13.000Z</time>
      </trkpt>
      <trkpt lon="0.4709326326847076" lat="49.3168563842773438">
        <ele>91.91485595703125</ele>
        <time>2016-09-21T14:26:15.000Z</time>
      </trkpt>
      <trkpt lon="0.4708964824676514" lat="49.3167343139648438">
        <ele>91.84184265136719</ele>
        <time>2016-09-21T14:26:18.000Z</time>
      </trkpt>
      <trkpt lon="0.4708626270294189" lat="49.3166160583496094">
        <ele>91.74273681640625</ele>
        <time>2016-09-21T14:26:21.000Z</time>
      </trkpt>
      <trkpt lon="0.4708250761032104" lat="49.3164939880371094">
        <ele>91.64148712158203</ele>
        <time>2016-09-21T14:26:24.000Z</time>
      </trkpt>
      <trkpt lon="0.4707887172698975" lat="49.3163681030273438">
        <ele>91.6903305053711</ele>
        <time>2016-09-21T14:26:27.000Z</time>
      </trkpt>
      <trkpt lon="0.4707658290863037" lat="49.3162879943847656">
        <ele>91.83807373046875</ele>
        <time>2016-09-21T14:26:29.000Z</time>
      </trkpt>
      <trkpt lon="0.4707230627536774" lat="49.3161582946777344">
        <ele>92.15470123291016</ele>
        <time>2016-09-21T14:26:32.000Z</time>
      </trkpt>
      <trkpt lon="0.4707086682319641" lat="49.3160400390625000">
        <ele>92.56806182861328</ele>
        <time>2016-09-21T14:26:35.000Z</time>
      </trkpt>
      <trkpt lon="0.4706793129444122" lat="49.3159255981445312">
        <ele>93.05899810791016</ele>
        <time>2016-09-21T14:26:38.000Z</time>
      </trkpt>
      <trkpt lon="0.4706521630287170" lat="49.3157997131347656">
        <ele>93.52821350097656</ele>
        <time>2016-09-21T14:26:41.000Z</time>
      </trkpt>
      <trkpt lon="0.4706313610076904" lat="49.3156776428222656">
        <ele>94.07420349121094</ele>
        <time>2016-09-21T14:26:44.000Z</time>
      </trkpt>
      <trkpt lon="0.4706134498119354" lat="49.3155975341796875">
        <ele>94.5929946899414</ele>
        <time>2016-09-21T14:26:46.000Z</time>
      </trkpt>
      <trkpt lon="0.4705843627452850" lat="49.3154716491699219">
        <ele>95.18940734863281</ele>
        <time>2016-09-21T14:26:49.000Z</time>
      </trkpt>
      <trkpt lon="0.4705674946308136" lat="49.3153877258300781">
        <ele>95.78433990478516</ele>
        <time>2016-09-21T14:26:51.000Z</time>
      </trkpt>
      <trkpt lon="0.4705373346805573" lat="49.3152732849121094">
        <ele>96.38459777832031</ele>
        <time>2016-09-21T14:26:54.000Z</time>
      </trkpt>
      <trkpt lon="0.4705193936824799" lat="49.3151969909667969">
        <ele>96.89824676513672</ele>
        <time>2016-09-21T14:26:56.000Z</time>
      </trkpt>
      <trkpt lon="0.4704967737197876" lat="49.3151168823242188">
        <ele>97.37619018554688</ele>
        <time>2016-09-21T14:26:58.000Z</time>
      </trkpt>
      <trkpt lon="0.4704607129096985" lat="49.3150024414062500">
        <ele>97.78607940673828</ele>
        <time>2016-09-21T14:27:01.000Z</time>
      </trkpt>
      <trkpt lon="0.4704247713088989" lat="49.3149070739746094">
        <ele>98.18112182617188</ele>
        <time>2016-09-21T14:27:04.000Z</time>
      </trkpt>
      <trkpt lon="0.4704020321369171" lat="49.3148307800292969">
        <ele>98.51854705810547</ele>
        <time>2016-09-21T14:27:06.000Z</time>
      </trkpt>
      <trkpt lon="0.4703496694564819" lat="49.3147048950195312">
        <ele>98.85646057128906</ele>
        <time>2016-09-21T14:27:09.000Z</time>
      </trkpt>
      <trkpt lon="0.4703121185302734" lat="49.3146247863769531">
        <ele>99.15997314453125</ele>
        <time>2016-09-21T14:27:11.000Z</time>
      </trkpt>
      <trkpt lon="0.4702579677104950" lat="49.3145065307617188">
        <ele>99.4150619506836</ele>
        <time>2016-09-21T14:27:14.000Z</time>
      </trkpt>
      <trkpt lon="0.4702047407627106" lat="49.3143959045410156">
        <ele>99.60758209228516</ele>
        <time>2016-09-21T14:27:17.000Z</time>
      </trkpt>
      <trkpt lon="0.4701378345489502" lat="49.3142929077148438">
        <ele>99.71562194824219</ele>
        <time>2016-09-21T14:27:20.000Z</time>
      </trkpt>
      <trkpt lon="0.4700614809989929" lat="49.3141746520996094">
        <ele>99.697998046875</ele>
        <time>2016-09-21T14:27:23.000Z</time>
      </trkpt>
      <trkpt lon="0.4700044989585876" lat="49.3140945434570312">
        <ele>99.67384338378906</ele>
        <time>2016-09-21T14:27:25.000Z</time>
      </trkpt>
      <trkpt lon="0.4699435532093048" lat="49.3140220642089844">
        <ele>99.7873764038086</ele>
        <time>2016-09-21T14:27:27.000Z</time>
      </trkpt>
      <trkpt lon="0.4698410332202911" lat="49.3139114379882812">
        <ele>100.12088775634766</ele>
        <time>2016-09-21T14:27:30.000Z</time>
      </trkpt>
      <trkpt lon="0.4697334170341492" lat="49.3138046264648438">
        <ele>100.64093017578125</ele>
        <time>2016-09-21T14:27:33.000Z</time>
      </trkpt>
      <trkpt lon="0.4696620106697083" lat="49.3137321472167969">
        <ele>101.28358459472656</ele>
        <time>2016-09-21T14:27:35.000Z</time>
      </trkpt>
      <trkpt lon="0.4695526957511902" lat="49.3136291503906250">
        <ele>101.9373779296875</ele>
        <time>2016-09-21T14:27:38.000Z</time>
      </trkpt>
      <trkpt lon="0.4694384634494781" lat="49.3135337829589844">
        <ele>102.38863372802734</ele>
        <time>2016-09-21T14:27:41.000Z</time>
      </trkpt>
      <trkpt lon="0.4693201184272766" lat="49.3134574890136719">
        <ele>102.51808166503906</ele>
        <time>2016-09-21T14:27:44.000Z</time>
      </trkpt>
      <trkpt lon="0.4692385494709015" lat="49.3134040832519531">
        <ele>102.3926010131836</ele>
        <time>2016-09-21T14:27:46.000Z</time>
      </trkpt>
      <trkpt lon="0.4691348671913147" lat="49.3133621215820312">
        <ele>102.15399169921875</ele>
        <time>2016-09-21T14:27:48.000Z</time>
      </trkpt>
      <trkpt lon="0.4689818024635315" lat="49.3132858276367188">
        <ele>102.14949035644531</ele>
        <time>2016-09-21T14:27:51.000Z</time>
      </trkpt>
      <trkpt lon="0.4688439369201660" lat="49.3131980895996094">
        <ele>102.4558334350586</ele>
        <time>2016-09-21T14:27:54.000Z</time>
      </trkpt>
      <trkpt lon="0.4687311053276062" lat="49.3131065368652344">
        <ele>103.05165100097656</ele>
        <time>2016-09-21T14:27:57.000Z</time>
      </trkpt>
      <trkpt lon="0.4686418473720551" lat="49.3130149841308594">
        <ele>103.86934661865234</ele>
        <time>2016-09-21T14:28:00.000Z</time>
      </trkpt>
      <trkpt lon="0.4685777127742767" lat="49.3129539489746094">
        <ele>104.80079650878906</ele>
        <time>2016-09-21T14:28:02.000Z</time>
      </trkpt>
      <trkpt lon="0.4684399366378784" lat="49.3128776550292969">
        <ele>105.5558090209961</ele>
        <time>2016-09-21T14:28:05.000Z</time>
      </trkpt>
      <trkpt lon="0.4682965874671936" lat="49.3128128051757812">
        <ele>106.11741638183594</ele>
        <time>2016-09-21T14:28:08.000Z</time>
      </trkpt>
      <trkpt lon="0.4681588113307953" lat="49.3127517700195312">
        <ele>106.60942077636719</ele>
        <time>2016-09-21T14:28:11.000Z</time>
      </trkpt>
      <trkpt lon="0.4680659174919128" lat="49.3127021789550781">
        <ele>107.03885650634766</ele>
        <time>2016-09-21T14:28:13.000Z</time>
      </trkpt>
      <trkpt lon="0.4679854512214661" lat="49.3126487731933594">
        <ele>107.4312973022461</ele>
        <time>2016-09-21T14:28:15.000Z</time>
      </trkpt>
      <trkpt lon="0.4678668677806854" lat="49.3125724792480469">
        <ele>107.7470703125</ele>
        <time>2016-09-21T14:28:18.000Z</time>
      </trkpt>
      <trkpt lon="0.4677703678607941" lat="49.3125190734863281">
        <ele>107.9852294921875</ele>
        <time>2016-09-21T14:28:20.000Z</time>
      </trkpt>
      <trkpt lon="0.4676433801651001" lat="49.3124237060546875">
        <ele>108.15718078613281</ele>
        <time>2016-09-21T14:28:23.000Z</time>
      </trkpt>
      <trkpt lon="0.4675219357013702" lat="49.3123283386230469">
        <ele>108.28703308105469</ele>
        <time>2016-09-21T14:28:26.000Z</time>
      </trkpt>
      <trkpt lon="0.4674357771873474" lat="49.3122596740722656">
        <ele>108.44633483886719</ele>
        <time>2016-09-21T14:28:28.000Z</time>
      </trkpt>
      <trkpt lon="0.4673263132572174" lat="49.3121528625488281">
        <ele>108.64532470703125</ele>
        <time>2016-09-21T14:28:31.000Z</time>
      </trkpt>
      <trkpt lon="0.4672534763813019" lat="49.3120841979980469">
        <ele>108.84880065917969</ele>
        <time>2016-09-21T14:28:33.000Z</time>
      </trkpt>
      <trkpt lon="0.4671421647071838" lat="49.3119850158691406">
        <ele>108.96699523925781</ele>
        <time>2016-09-21T14:28:36.000Z</time>
      </trkpt>
      <trkpt lon="0.4670751988887787" lat="49.3119239807128906">
        <ele>109.02568054199219</ele>
        <time>2016-09-21T14:28:38.000Z</time>
      </trkpt>
      <trkpt lon="0.4670162498950958" lat="49.3118591308593750">
        <ele>108.956787109375</ele>
        <time>2016-09-21T14:28:40.000Z</time>
      </trkpt>
      <trkpt lon="0.4669256508350372" lat="49.3117408752441406">
        <ele>108.6583480834961</ele>
        <time>2016-09-21T14:28:43.000Z</time>
      </trkpt>
      <trkpt lon="0.4668673872947693" lat="49.3116722106933594">
        <ele>108.2341537475586</ele>
        <time>2016-09-21T14:28:45.000Z</time>
      </trkpt>
      <trkpt lon="0.4667762815952301" lat="49.3115768432617188">
        <ele>107.84687805175781</ele>
        <time>2016-09-21T14:28:48.000Z</time>
      </trkpt>
      <trkpt lon="0.4667172729969025" lat="49.3115043640136719">
        <ele>107.49556732177734</ele>
        <time>2016-09-21T14:28:50.000Z</time>
      </trkpt>
      <trkpt lon="0.4666573405265808" lat="49.3114318847656250">
        <ele>107.21052551269531</ele>
        <time>2016-09-21T14:28:52.000Z</time>
      </trkpt>
      <trkpt lon="0.4665956497192383" lat="49.3113594055175781">
        <ele>107.21281433105469</ele>
        <time>2016-09-21T14:28:54.000Z</time>
      </trkpt>
      <trkpt lon="0.4665326178073883" lat="49.3112373352050781">
        <ele>107.42118835449219</ele>
        <time>2016-09-21T14:28:57.000Z</time>
      </trkpt>
      <trkpt lon="0.4664974212646484" lat="49.3111610412597656">
        <ele>107.65391540527344</ele>
        <time>2016-09-21T14:28:59.000Z</time>
      </trkpt>
      <trkpt lon="0.4664450287818909" lat="49.3110885620117188">
        <ele>107.9427719116211</ele>
        <time>2016-09-21T14:29:01.000Z</time>
      </trkpt>
      <trkpt lon="0.4663483798503876" lat="49.3109855651855469">
        <ele>108.3138656616211</ele>
        <time>2016-09-21T14:29:04.000Z</time>
      </trkpt>
      <trkpt lon="0.4662545025348663" lat="49.3108787536621094">
        <ele>108.61027526855469</ele>
        <time>2016-09-21T14:29:07.000Z</time>
      </trkpt>
      <trkpt lon="0.4662088453769684" lat="49.3108100891113281">
        <ele>108.84622955322266</ele>
        <time>2016-09-21T14:29:09.000Z</time>
      </trkpt>
      <trkpt lon="0.4661667644977570" lat="49.3107376098632812">
        <ele>109.14090728759766</ele>
        <time>2016-09-21T14:29:11.000Z</time>
      </trkpt>
      <trkpt lon="0.4661015570163727" lat="49.3106460571289062">
        <ele>109.4897689819336</ele>
        <time>2016-09-21T14:29:14.000Z</time>
      </trkpt>
      <trkpt lon="0.4660547673702240" lat="49.3105888366699219">
        <ele>109.8128890991211</ele>
        <time>2016-09-21T14:29:16.000Z</time>
      </trkpt>
      <trkpt lon="0.4660019576549530" lat="49.3105316162109375">
        <ele>110.13932800292969</ele>
        <time>2016-09-21T14:29:18.000Z</time>
      </trkpt>
      <trkpt lon="0.4659430384635925" lat="49.3104743957519531">
        <ele>110.46639251708984</ele>
        <time>2016-09-21T14:29:20.000Z</time>
      </trkpt>
      <trkpt lon="0.4658391177654266" lat="49.3103752136230469">
        <ele>110.71388244628906</ele>
        <time>2016-09-21T14:29:23.000Z</time>
      </trkpt>
      <trkpt lon="0.4657396078109741" lat="49.3102722167968750">
        <ele>110.99635314941406</ele>
        <time>2016-09-21T14:29:26.000Z</time>
      </trkpt>
      <trkpt lon="0.4656816124916077" lat="49.3102035522460938">
        <ele>111.30143737792969</ele>
        <time>2016-09-21T14:29:28.000Z</time>
      </trkpt>
      <trkpt lon="0.4656276404857635" lat="49.3100967407226562">
        <ele>111.6150894165039</ele>
        <time>2016-09-21T14:29:31.000Z</time>
      </trkpt>
      <trkpt lon="0.4655855596065521" lat="49.3100242614746094">
        <ele>111.93428039550781</ele>
        <time>2016-09-21T14:29:33.000Z</time>
      </trkpt>
      <trkpt lon="0.4655290544033051" lat="49.3099136352539062">
        <ele>112.31591796875</ele>
        <time>2016-09-21T14:29:36.000Z</time>
      </trkpt>
      <trkpt lon="0.4654697179794312" lat="49.3097915649414062">
        <ele>112.6298599243164</ele>
        <time>2016-09-21T14:29:39.000Z</time>
      </trkpt>
      <trkpt lon="0.4653789401054382" lat="49.3096847534179688">
        <ele>112.93663024902344</ele>
        <time>2016-09-21T14:29:42.000Z</time>
      </trkpt>
      <trkpt lon="0.4653327465057373" lat="49.3096046447753906">
        <ele>113.2103500366211</ele>
        <time>2016-09-21T14:29:44.000Z</time>
      </trkpt>
      <trkpt lon="0.4652683734893799" lat="49.3094863891601562">
        <ele>113.45152282714844</ele>
        <time>2016-09-21T14:29:47.000Z</time>
      </trkpt>
      <trkpt lon="0.4652087986469269" lat="49.3093795776367188">
        <ele>113.59574127197266</ele>
        <time>2016-09-21T14:29:50.000Z</time>
      </trkpt>
      <trkpt lon="0.4651507139205933" lat="49.3092689514160156">
        <ele>113.6234359741211</ele>
        <time>2016-09-21T14:29:53.000Z</time>
      </trkpt>
      <trkpt lon="0.4650875031948090" lat="49.3091506958007812">
        <ele>113.53617095947266</ele>
        <time>2016-09-21T14:29:56.000Z</time>
      </trkpt>
      <trkpt lon="0.4650300741195679" lat="49.3090400695800781">
        <ele>113.5249252319336</ele>
        <time>2016-09-21T14:29:59.000Z</time>
      </trkpt>
      <trkpt lon="0.4649913609027863" lat="49.3089637756347656">
        <ele>113.58967590332031</ele>
        <time>2016-09-21T14:30:01.000Z</time>
      </trkpt>
      <trkpt lon="0.4649405777454376" lat="49.3088417053222656">
        <ele>113.87554931640625</ele>
        <time>2016-09-21T14:30:04.000Z</time>
      </trkpt>
      <trkpt lon="0.4649046957492828" lat="49.3087692260742188">
        <ele>114.3255386352539</ele>
        <time>2016-09-21T14:30:06.000Z</time>
      </trkpt>
      <trkpt lon="0.4648372232913971" lat="49.3086662292480469">
        <ele>115.00227355957031</ele>
        <time>2016-09-21T14:30:09.000Z</time>
      </trkpt>
      <trkpt lon="0.4647842347621918" lat="49.3085937500000000">
        <ele>115.70845031738281</ele>
        <time>2016-09-21T14:30:11.000Z</time>
      </trkpt>
      <trkpt lon="0.4647347033023834" lat="49.3085212707519531">
        <ele>116.4442367553711</ele>
        <time>2016-09-21T14:30:13.000Z</time>
      </trkpt>
      <trkpt lon="0.4646913707256317" lat="49.3084487915039062">
        <ele>117.0694808959961</ele>
        <time>2016-09-21T14:30:15.000Z</time>
      </trkpt>
      <trkpt lon="0.4646545648574829" lat="49.3083763122558594">
        <ele>117.64710998535156</ele>
        <time>2016-09-21T14:30:17.000Z</time>
      </trkpt>
      <trkpt lon="0.4646149277687073" lat="49.3082695007324219">
        <ele>118.1241683959961</ele>
        <time>2016-09-21T14:30:20.000Z</time>
      </trkpt>
      <trkpt lon="0.4645810723304749" lat="49.3082008361816406">
        <ele>118.5196533203125</ele>
        <time>2016-09-21T14:30:22.000Z</time>
      </trkpt>
      <trkpt lon="0.4644726812839508" lat="49.3081092834472656">
        <ele>118.8617935180664</ele>
        <time>2016-09-21T14:30:25.000Z</time>
      </trkpt>
      <trkpt lon="0.4643584489822388" lat="49.3080215454101562">
        <ele>119.11241149902344</ele>
        <time>2016-09-21T14:30:28.000Z</time>
      </trkpt>
      <trkpt lon="0.4642833471298218" lat="49.3079299926757812">
        <ele>119.23814392089844</ele>
        <time>2016-09-21T14:30:31.000Z</time>
      </trkpt>
      <trkpt lon="0.4641825854778290" lat="49.3078231811523438">
        <ele>119.16670227050781</ele>
        <time>2016-09-21T14:30:34.000Z</time>
      </trkpt>
      <trkpt lon="0.4641065597534180" lat="49.3077507019042969">
        <ele>119.022216796875</ele>
        <time>2016-09-21T14:30:36.000Z</time>
      </trkpt>
      <trkpt lon="0.4640520811080933" lat="49.3076782226562500">
        <ele>118.79307556152344</ele>
        <time>2016-09-21T14:30:38.000Z</time>
      </trkpt>
      <trkpt lon="0.4639584720134735" lat="49.3075790405273438">
        <ele>118.5369873046875</ele>
        <time>2016-09-21T14:30:41.000Z</time>
      </trkpt>
      <trkpt lon="0.4638994634151459" lat="49.3075103759765625">
        <ele>118.3045654296875</ele>
        <time>2016-09-21T14:30:43.000Z</time>
      </trkpt>
      <trkpt lon="0.4638381898403168" lat="49.3074455261230469">
        <ele>118.26579284667969</ele>
        <time>2016-09-21T14:30:45.000Z</time>
      </trkpt>
      <trkpt lon="0.4637255966663361" lat="49.3073539733886719">
        <ele>118.3733901977539</ele>
        <time>2016-09-21T14:30:48.000Z</time>
      </trkpt>
      <trkpt lon="0.4636217653751373" lat="49.3072929382324219">
        <ele>118.5619888305664</ele>
        <time>2016-09-21T14:30:50.000Z</time>
      </trkpt>
      <trkpt lon="0.4634722173213959" lat="49.3072052001953125">
        <ele>118.79466247558594</ele>
        <time>2016-09-21T14:30:53.000Z</time>
      </trkpt>
      <trkpt lon="0.4633844792842865" lat="49.3071517944335938">
        <ele>119.03318786621094</ele>
        <time>2016-09-21T14:30:55.000Z</time>
      </trkpt>
      <trkpt lon="0.4632951915264130" lat="49.3071022033691406">
        <ele>119.1926040649414</ele>
        <time>2016-09-21T14:30:57.000Z</time>
      </trkpt>
      <trkpt lon="0.4631755053997040" lat="49.3070106506347656">
        <ele>119.29048156738281</ele>
        <time>2016-09-21T14:31:00.000Z</time>
      </trkpt>
      <trkpt lon="0.4631159007549286" lat="49.3069419860839844">
        <ele>119.34819030761719</ele>
        <time>2016-09-21T14:31:02.000Z</time>
      </trkpt>
      <trkpt lon="0.4630492627620697" lat="49.3068809509277344">
        <ele>119.4082260131836</ele>
        <time>2016-09-21T14:31:04.000Z</time>
      </trkpt>
      <trkpt lon="0.4629439115524292" lat="49.3067970275878906">
        <ele>119.52203369140625</ele>
        <time>2016-09-21T14:31:07.000Z</time>
      </trkpt>
      <trkpt lon="0.4628789424896240" lat="49.3067398071289062">
        <ele>119.65254211425781</ele>
        <time>2016-09-21T14:31:09.000Z</time>
      </trkpt>
      <trkpt lon="0.4627870023250580" lat="49.3066520690917969">
        <ele>119.75379943847656</ele>
        <time>2016-09-21T14:31:12.000Z</time>
      </trkpt>
      <trkpt lon="0.4627290070056915" lat="49.3065948486328125">
        <ele>119.88946533203125</ele>
        <time>2016-09-21T14:31:14.000Z</time>
      </trkpt>
      <trkpt lon="0.4626723527908325" lat="49.3065376281738281">
        <ele>120.04164123535156</ele>
        <time>2016-09-21T14:31:16.000Z</time>
      </trkpt>
      <trkpt lon="0.4625928699970245" lat="49.3064460754394531">
        <ele>120.19471740722656</ele>
        <time>2016-09-21T14:31:19.000Z</time>
      </trkpt>
      <trkpt lon="0.4625252485275269" lat="49.3063583374023438">
        <ele>120.3431396484375</ele>
        <time>2016-09-21T14:31:22.000Z</time>
      </trkpt>
      <trkpt lon="0.4624450206756592" lat="49.3062553405761719">
        <ele>120.47489166259766</ele>
        <time>2016-09-21T14:31:25.000Z</time>
      </trkpt>
      <trkpt lon="0.4623952209949493" lat="49.3061943054199219">
        <ele>120.56660461425781</ele>
        <time>2016-09-21T14:31:27.000Z</time>
      </trkpt>
      <trkpt lon="0.4623333811759949" lat="49.3061370849609375">
        <ele>120.63134765625</ele>
        <time>2016-09-21T14:31:29.000Z</time>
      </trkpt>
      <trkpt lon="0.4622441828250885" lat="49.3060455322265625">
        <ele>120.66569519042969</ele>
        <time>2016-09-21T14:31:32.000Z</time>
      </trkpt>
      <trkpt lon="0.4621872901916504" lat="49.3059768676757812">
        <ele>120.68193054199219</ele>
        <time>2016-09-21T14:31:34.000Z</time>
      </trkpt>
      <trkpt lon="0.4621047973632812" lat="49.3058738708496094">
        <ele>120.6690673828125</ele>
        <time>2016-09-21T14:31:37.000Z</time>
      </trkpt>
      <trkpt lon="0.4620230793952942" lat="49.3057708740234375">
        <ele>120.66988372802734</ele>
        <time>2016-09-21T14:31:40.000Z</time>
      </trkpt>
      <trkpt lon="0.4619359970092773" lat="49.3056640625000000">
        <ele>120.70294189453125</ele>
        <time>2016-09-21T14:31:43.000Z</time>
      </trkpt>
      <trkpt lon="0.4618763029575348" lat="49.3055877685546875">
        <ele>120.75331115722656</ele>
        <time>2016-09-21T14:31:45.000Z</time>
      </trkpt>
      <trkpt lon="0.4617953300476074" lat="49.3054847717285156">
        <ele>120.8255844116211</ele>
        <time>2016-09-21T14:31:48.000Z</time>
      </trkpt>
      <trkpt lon="0.4617087543010712" lat="49.3053779602050781">
        <ele>120.9173583984375</ele>
        <time>2016-09-21T14:31:51.000Z</time>
      </trkpt>
      <trkpt lon="0.4616619050502777" lat="49.3052978515625000">
        <ele>120.98531341552734</ele>
        <time>2016-09-21T14:31:53.000Z</time>
      </trkpt>
      <trkpt lon="0.4615810215473175" lat="49.3051872253417969">
        <ele>121.0404052734375</ele>
        <time>2016-09-21T14:31:56.000Z</time>
      </trkpt>
      <trkpt lon="0.4615228474140167" lat="49.3051147460937500">
        <ele>121.09007263183594</ele>
        <time>2016-09-21T14:31:58.000Z</time>
      </trkpt>
      <trkpt lon="0.4614677727222443" lat="49.3050422668457031">
        <ele>121.13471984863281</ele>
        <time>2016-09-21T14:32:00.000Z</time>
      </trkpt>
      <trkpt lon="0.4613895714282990" lat="49.3049354553222656">
        <ele>121.21540832519531</ele>
        <time>2016-09-21T14:32:03.000Z</time>
      </trkpt>
      <trkpt lon="0.4613335728645325" lat="49.3048629760742188">
        <ele>121.33302307128906</ele>
        <time>2016-09-21T14:32:05.000Z</time>
      </trkpt>
      <trkpt lon="0.4612447321414948" lat="49.3047561645507812">
        <ele>121.46211242675781</ele>
        <time>2016-09-21T14:32:08.000Z</time>
      </trkpt>
      <trkpt lon="0.4611621797084808" lat="49.3046493530273438">
        <ele>121.60530090332031</ele>
        <time>2016-09-21T14:32:11.000Z</time>
      </trkpt>
      <trkpt lon="0.4610640108585358" lat="49.3045387268066406">
        <ele>121.75897216796875</ele>
        <time>2016-09-21T14:32:14.000Z</time>
      </trkpt>
      <trkpt lon="0.4609973728656769" lat="49.3044624328613281">
        <ele>121.88316345214844</ele>
        <time>2016-09-21T14:32:16.000Z</time>
      </trkpt>
      <trkpt lon="0.4608992338180542" lat="49.3043479919433594">
        <ele>121.97245788574219</ele>
        <time>2016-09-21T14:32:19.000Z</time>
      </trkpt>
      <trkpt lon="0.4608026742935181" lat="49.3042335510253906">
        <ele>122.02882385253906</ele>
        <time>2016-09-21T14:32:22.000Z</time>
      </trkpt>
      <trkpt lon="0.4607374668121338" lat="49.3041572570800781">
        <ele>122.08935546875</ele>
        <time>2016-09-21T14:32:24.000Z</time>
      </trkpt>
      <trkpt lon="0.4606435894966125" lat="49.3040466308593750">
        <ele>122.1968994140625</ele>
        <time>2016-09-21T14:32:27.000Z</time>
      </trkpt>
      <trkpt lon="0.4605507850646973" lat="49.3039283752441406">
        <ele>122.35929870605469</ele>
        <time>2016-09-21T14:32:30.000Z</time>
      </trkpt>
      <trkpt lon="0.4604659676551819" lat="49.3038101196289062">
        <ele>122.5748291015625</ele>
        <time>2016-09-21T14:32:33.000Z</time>
      </trkpt>
      <trkpt lon="0.4604176878929138" lat="49.3037452697753906">
        <ele>122.80995178222656</ele>
        <time>2016-09-21T14:32:35.000Z</time>
      </trkpt>
      <trkpt lon="0.4603508114814758" lat="49.3036613464355469">
        <ele>123.04481506347656</ele>
        <time>2016-09-21T14:32:38.000Z</time>
      </trkpt>
      <trkpt lon="0.4603180289268494" lat="49.3036155700683594">
        <ele>123.228759765625</ele>
        <time>2016-09-21T14:32:40.000Z</time>
      </trkpt>
      <trkpt lon="0.4602540731430054" lat="49.3035430908203125">
        <ele>123.37864685058594</ele>
        <time>2016-09-21T14:32:43.000Z</time>
      </trkpt>
      <trkpt lon="0.4602141678333282" lat="49.3034934997558594">
        <ele>123.49288177490234</ele>
        <time>2016-09-21T14:32:45.000Z</time>
      </trkpt>
      <trkpt lon="0.4601694047451019" lat="49.3034210205078125">
        <ele>123.59747314453125</ele>
        <time>2016-09-21T14:32:48.000Z</time>
      </trkpt>
      <trkpt lon="0.4601145982742310" lat="49.3033370971679688">
        <ele>123.68727111816406</ele>
        <time>2016-09-21T14:32:51.000Z</time>
      </trkpt>
      <trkpt lon="0.4600481390953064" lat="49.3032341003417969">
        <ele>123.82259368896484</ele>
        <time>2016-09-21T14:32:54.000Z</time>
      </trkpt>
      <trkpt lon="0.4600014388561249" lat="49.3031654357910156">
        <ele>123.9789810180664</ele>
        <time>2016-09-21T14:32:56.000Z</time>
      </trkpt>
      <trkpt lon="0.4599338769912720" lat="49.3030548095703125">
        <ele>124.1788558959961</ele>
        <time>2016-09-21T14:32:59.000Z</time>
      </trkpt>
      <trkpt lon="0.4598857760429382" lat="49.3029823303222656">
        <ele>124.40373229980469</ele>
        <time>2016-09-21T14:33:01.000Z</time>
      </trkpt>
      <trkpt lon="0.4598042070865631" lat="49.3028793334960938">
        <ele>124.6740493774414</ele>
        <time>2016-09-21T14:33:04.000Z</time>
      </trkpt>
      <trkpt lon="0.4597162008285522" lat="49.3027725219726562">
        <ele>124.95694732666016</ele>
        <time>2016-09-21T14:33:07.000Z</time>
      </trkpt>
      <trkpt lon="0.4596312046051025" lat="49.3026580810546875">
        <ele>125.2734146118164</ele>
        <time>2016-09-21T14:33:10.000Z</time>
      </trkpt>
      <trkpt lon="0.4595715403556824" lat="49.3025856018066406">
        <ele>125.58717346191406</ele>
        <time>2016-09-21T14:33:12.000Z</time>
      </trkpt>
      <trkpt lon="0.4594882130622864" lat="49.3024711608886719">
        <ele>125.93009948730469</ele>
        <time>2016-09-21T14:33:15.000Z</time>
      </trkpt>
      <trkpt lon="0.4594331383705139" lat="49.3023948669433594">
        <ele>126.22344970703125</ele>
        <time>2016-09-21T14:33:17.000Z</time>
      </trkpt>
      <trkpt lon="0.4593758285045624" lat="49.3023109436035156">
        <ele>126.4573745727539</ele>
        <time>2016-09-21T14:33:19.000Z</time>
      </trkpt>
      <trkpt lon="0.4592844545841217" lat="49.3022079467773438">
        <ele>126.63265228271484</ele>
        <time>2016-09-21T14:33:22.000Z</time>
      </trkpt>
      <trkpt lon="0.4591990411281586" lat="49.3021011352539062">
        <ele>126.77262878417969</ele>
        <time>2016-09-21T14:33:25.000Z</time>
      </trkpt>
      <trkpt lon="0.4591385424137115" lat="49.3020362854003906">
        <ele>126.8468246459961</ele>
        <time>2016-09-21T14:33:27.000Z</time>
      </trkpt>
      <trkpt lon="0.4590531289577484" lat="49.3019256591796875">
        <ele>126.90234375</ele>
        <time>2016-09-21T14:33:30.000Z</time>
      </trkpt>
      <trkpt lon="0.4589588344097137" lat="49.3018074035644531">
        <ele>126.94416809082031</ele>
        <time>2016-09-21T14:33:33.000Z</time>
      </trkpt>
      <trkpt lon="0.4588962197303772" lat="49.3017349243164062">
        <ele>126.96723937988281</ele>
        <time>2016-09-21T14:33:35.000Z</time>
      </trkpt>
      <trkpt lon="0.4588113129138947" lat="49.3016204833984375">
        <ele>126.98634338378906</ele>
        <time>2016-09-21T14:33:38.000Z</time>
      </trkpt>
      <trkpt lon="0.4587316811084747" lat="49.3015098571777344">
        <ele>127.02701568603516</ele>
        <time>2016-09-21T14:33:41.000Z</time>
      </trkpt>
      <trkpt lon="0.4586507976055145" lat="49.3014068603515625">
        <ele>127.0975570678711</ele>
        <time>2016-09-21T14:33:44.000Z</time>
      </trkpt>
      <trkpt lon="0.4585649669170380" lat="49.3012924194335938">
        <ele>127.19538879394531</ele>
        <time>2016-09-21T14:33:47.000Z</time>
      </trkpt>
      <trkpt lon="0.4584771096706390" lat="49.3011817932128906">
        <ele>127.3173828125</ele>
        <time>2016-09-21T14:33:50.000Z</time>
      </trkpt>
      <trkpt lon="0.4584200382232666" lat="49.3011054992675781">
        <ele>127.4404296875</ele>
        <time>2016-09-21T14:33:52.000Z</time>
      </trkpt>
      <trkpt lon="0.4583632051944733" lat="49.3010253906250000">
        <ele>127.556640625</ele>
        <time>2016-09-21T14:33:54.000Z</time>
      </trkpt>
      <trkpt lon="0.4582454264163971" lat="49.3008995056152344">
        <ele>127.66094970703125</ele>
        <time>2016-09-21T14:33:57.000Z</time>
      </trkpt>
      <trkpt lon="0.4581497013568878" lat="49.3007888793945312">
        <ele>127.72975158691406</ele>
        <time>2016-09-21T14:34:00.000Z</time>
      </trkpt>
      <trkpt lon="0.4580558240413666" lat="49.3006744384765625">
        <ele>127.75895690917969</ele>
        <time>2016-09-21T14:34:03.000Z</time>
      </trkpt>
      <trkpt lon="0.4580026865005493" lat="49.3005752563476562">
        <ele>127.76995849609375</ele>
        <time>2016-09-21T14:34:05.000Z</time>
      </trkpt>
      <trkpt lon="0.4579577744007111" lat="49.3004951477050781">
        <ele>127.7623519897461</ele>
        <time>2016-09-21T14:34:07.000Z</time>
      </trkpt>
      <trkpt lon="0.4579001069068909" lat="49.3004150390625000">
        <ele>127.74415588378906</ele>
        <time>2016-09-21T14:34:09.000Z</time>
      </trkpt>
      <trkpt lon="0.4578161239624023" lat="49.3003082275390625">
        <ele>127.7398452758789</ele>
        <time>2016-09-21T14:34:12.000Z</time>
      </trkpt>
      <trkpt lon="0.4577695131301880" lat="49.3002319335937500">
        <ele>127.75616455078125</ele>
        <time>2016-09-21T14:34:14.000Z</time>
      </trkpt>
      <trkpt lon="0.4576883614063263" lat="49.3001136779785156">
        <ele>127.78963470458984</ele>
        <time>2016-09-21T14:34:17.000Z</time>
      </trkpt>
      <trkpt lon="0.4576084911823273" lat="49.3000030517578125">
        <ele>127.84246826171875</ele>
        <time>2016-09-21T14:34:20.000Z</time>
      </trkpt>
      <trkpt lon="0.4575278759002686" lat="49.2998886108398438">
        <ele>127.9215087890625</ele>
        <time>2016-09-21T14:34:23.000Z</time>
      </trkpt>
      <trkpt lon="0.4574464857578278" lat="49.2997779846191406">
        <ele>128.0247344970703</ele>
        <time>2016-09-21T14:34:26.000Z</time>
      </trkpt>
      <trkpt lon="0.4573852717876434" lat="49.2997055053710938">
        <ele>128.14239501953125</ele>
        <time>2016-09-21T14:34:28.000Z</time>
      </trkpt>
      <trkpt lon="0.4572900533676147" lat="49.2995948791503906">
        <ele>128.2858123779297</ele>
        <time>2016-09-21T14:34:31.000Z</time>
      </trkpt>
      <trkpt lon="0.4572019875049591" lat="49.2994880676269531">
        <ele>128.45370483398438</ele>
        <time>2016-09-21T14:34:34.000Z</time>
      </trkpt>
      <trkpt lon="0.4571096897125244" lat="49.2993736267089844">
        <ele>128.6472930908203</ele>
        <time>2016-09-21T14:34:37.000Z</time>
      </trkpt>
      <trkpt lon="0.4570458233356476" lat="49.2993049621582031">
        <ele>128.84812927246094</ele>
        <time>2016-09-21T14:34:39.000Z</time>
      </trkpt>
      <trkpt lon="0.4569571316242218" lat="49.2991981506347656">
        <ele>129.08584594726562</ele>
        <time>2016-09-21T14:34:42.000Z</time>
      </trkpt>
      <trkpt lon="0.4568544626235962" lat="49.2990951538085938">
        <ele>129.3353271484375</ele>
        <time>2016-09-21T14:34:45.000Z</time>
      </trkpt>
      <trkpt lon="0.4567717313766479" lat="49.2989997863769531">
        <ele>129.58328247070312</ele>
        <time>2016-09-21T14:34:48.000Z</time>
      </trkpt>
      <trkpt lon="0.4567002356052399" lat="49.2989082336425781">
        <ele>129.81613159179688</ele>
        <time>2016-09-21T14:34:51.000Z</time>
      </trkpt>
      <trkpt lon="0.4566408097743988" lat="49.2987976074218750">
        <ele>130.04718017578125</ele>
        <time>2016-09-21T14:34:54.000Z</time>
      </trkpt>
      <trkpt lon="0.4565919339656830" lat="49.2987251281738281">
        <ele>130.23513793945312</ele>
        <time>2016-09-21T14:34:56.000Z</time>
      </trkpt>
      <trkpt lon="0.4565229415893555" lat="49.2986145019531250">
        <ele>130.3954315185547</ele>
        <time>2016-09-21T14:34:59.000Z</time>
      </trkpt>
      <trkpt lon="0.4564460813999176" lat="49.2985076904296875">
        <ele>130.538818359375</ele>
        <time>2016-09-21T14:35:02.000Z</time>
      </trkpt>
      <trkpt lon="0.4563919603824615" lat="49.2984352111816406">
        <ele>130.6611328125</ele>
        <time>2016-09-21T14:35:04.000Z</time>
      </trkpt>
      <trkpt lon="0.4563105702400208" lat="49.2983245849609375">
        <ele>130.7744140625</ele>
        <time>2016-09-21T14:35:07.000Z</time>
      </trkpt>
      <trkpt lon="0.4562394022941589" lat="49.2982482910156250">
        <ele>130.888671875</ele>
        <time>2016-09-21T14:35:09.000Z</time>
      </trkpt>
      <trkpt lon="0.4561622738838196" lat="49.2981796264648438">
        <ele>130.9931640625</ele>
        <time>2016-09-21T14:35:11.000Z</time>
      </trkpt>
      <trkpt lon="0.4560595154762268" lat="49.2980728149414062">
        <ele>131.09765625</ele>
        <time>2016-09-21T14:35:14.000Z</time>
      </trkpt>
      <trkpt lon="0.4559684097766876" lat="49.2979621887207031">
        <ele>131.2109375</ele>
        <time>2016-09-21T14:35:17.000Z</time>
      </trkpt>
      <trkpt lon="0.4558809101581573" lat="49.2978477478027344">
        <ele>131.3251953125</ele>
        <time>2016-09-21T14:35:20.000Z</time>
      </trkpt>
      <trkpt lon="0.4557985961437225" lat="49.2977371215820312">
        <ele>131.45062255859375</ele>
        <time>2016-09-21T14:35:23.000Z</time>
      </trkpt>
      <trkpt lon="0.4557182788848877" lat="49.2976303100585938">
        <ele>131.58682250976562</ele>
        <time>2016-09-21T14:35:26.000Z</time>
      </trkpt>
      <trkpt lon="0.4556309580802917" lat="49.2975158691406250">
        <ele>131.72067260742188</ele>
        <time>2016-09-21T14:35:29.000Z</time>
      </trkpt>
      <trkpt lon="0.4555488228797913" lat="49.2974090576171875">
        <ele>131.83895874023438</ele>
        <time>2016-09-21T14:35:32.000Z</time>
      </trkpt>
      <trkpt lon="0.4554741382598877" lat="49.2972908020019531">
        <ele>131.94406127929688</ele>
        <time>2016-09-21T14:35:35.000Z</time>
      </trkpt>
      <trkpt lon="0.4553804993629456" lat="49.2971839904785156">
        <ele>132.03988647460938</ele>
        <time>2016-09-21T14:35:38.000Z</time>
      </trkpt>
      <trkpt lon="0.4553170502185822" lat="49.2971076965332031">
        <ele>132.12564086914062</ele>
        <time>2016-09-21T14:35:40.000Z</time>
      </trkpt>
      <trkpt lon="0.4552539288997650" lat="49.2970314025878906">
        <ele>132.20736694335938</ele>
        <time>2016-09-21T14:35:42.000Z</time>
      </trkpt>
      <trkpt lon="0.4551598131656647" lat="49.2969169616699219">
        <ele>132.3131866455078</ele>
        <time>2016-09-21T14:35:45.000Z</time>
      </trkpt>
      <trkpt lon="0.4550701081752777" lat="49.2968063354492188">
        <ele>132.4440460205078</ele>
        <time>2016-09-21T14:35:48.000Z</time>
      </trkpt>
      <trkpt lon="0.4549860358238220" lat="49.2966918945312500">
        <ele>132.59690856933594</ele>
        <time>2016-09-21T14:35:51.000Z</time>
      </trkpt>
      <trkpt lon="0.4548933506011963" lat="49.2965812683105469">
        <ele>132.7207489013672</ele>
        <time>2016-09-21T14:35:54.000Z</time>
      </trkpt>
      <trkpt lon="0.4548016488552094" lat="49.2964706420898438">
        <ele>132.8066864013672</ele>
        <time>2016-09-21T14:35:57.000Z</time>
      </trkpt>
      <trkpt lon="0.4547435641288757" lat="49.2964019775390625">
        <ele>132.8495330810547</ele>
        <time>2016-09-21T14:35:59.000Z</time>
      </trkpt>
      <trkpt lon="0.4546651840209961" lat="49.2962837219238281">
        <ele>132.84214782714844</ele>
        <time>2016-09-21T14:36:02.000Z</time>
      </trkpt>
      <trkpt lon="0.4545796811580658" lat="49.2961654663085938">
        <ele>132.78866577148438</ele>
        <time>2016-09-21T14:36:05.000Z</time>
      </trkpt>
      <trkpt lon="0.4545163214206696" lat="49.2960739135742188">
        <ele>132.74664306640625</ele>
        <time>2016-09-21T14:36:07.000Z</time>
      </trkpt>
      <trkpt lon="0.4544535577297211" lat="49.2960014343261719">
        <ele>132.72714233398438</ele>
        <time>2016-09-21T14:36:09.000Z</time>
      </trkpt>
      <trkpt lon="0.4543709158897400" lat="49.2958869934082031">
        <ele>132.7250518798828</ele>
        <time>2016-09-21T14:36:12.000Z</time>
      </trkpt>
      <trkpt lon="0.4542834758758545" lat="49.2957649230957031">
        <ele>132.75648498535156</ele>
        <time>2016-09-21T14:36:15.000Z</time>
      </trkpt>
      <trkpt lon="0.4541785418987274" lat="49.2956581115722656">
        <ele>132.8142547607422</ele>
        <time>2016-09-21T14:36:18.000Z</time>
      </trkpt>
      <trkpt lon="0.4540898501873016" lat="49.2955169677734375">
        <ele>132.89242553710938</ele>
        <time>2016-09-21T14:36:21.000Z</time>
      </trkpt>
      <trkpt lon="0.4539788663387299" lat="49.2953834533691406">
        <ele>132.99258422851562</ele>
        <time>2016-09-21T14:36:24.000Z</time>
      </trkpt>
      <trkpt lon="0.4539161920547485" lat="49.2952880859375000">
        <ele>133.0985870361328</ele>
        <time>2016-09-21T14:36:26.000Z</time>
      </trkpt>
      <trkpt lon="0.4538098871707916" lat="49.2951469421386719">
        <ele>133.2075958251953</ele>
        <time>2016-09-21T14:36:29.000Z</time>
      </trkpt>
      <trkpt lon="0.4537314474582672" lat="49.2950668334960938">
        <ele>133.31370544433594</ele>
        <time>2016-09-21T14:36:31.000Z</time>
      </trkpt>
      <trkpt lon="0.4536449313163757" lat="49.2949371337890625">
        <ele>133.4408721923828</ele>
        <time>2016-09-21T14:36:34.000Z</time>
      </trkpt>
      <trkpt lon="0.4535733759403229" lat="49.2948493957519531">
        <ele>133.58499145507812</ele>
        <time>2016-09-21T14:36:36.000Z</time>
      </trkpt>
      <trkpt lon="0.4534853398799896" lat="49.2947044372558594">
        <ele>133.77175903320312</ele>
        <time>2016-09-21T14:36:39.000Z</time>
      </trkpt>
      <trkpt lon="0.4533679187297821" lat="49.2945747375488281">
        <ele>133.9838104248047</ele>
        <time>2016-09-21T14:36:42.000Z</time>
      </trkpt>
      <trkpt lon="0.4532991051673889" lat="49.2944755554199219">
        <ele>134.2137451171875</ele>
        <time>2016-09-21T14:36:44.000Z</time>
      </trkpt>
      <trkpt lon="0.4531945884227753" lat="49.2943496704101562">
        <ele>134.4578857421875</ele>
        <time>2016-09-21T14:36:47.000Z</time>
      </trkpt>
      <trkpt lon="0.4531314671039581" lat="49.2942695617675781">
        <ele>134.69215393066406</ele>
        <time>2016-09-21T14:36:49.000Z</time>
      </trkpt>
      <trkpt lon="0.4530263543128967" lat="49.2941360473632812">
        <ele>134.9333953857422</ele>
        <time>2016-09-21T14:36:52.000Z</time>
      </trkpt>
      <trkpt lon="0.4529273808002472" lat="49.2940177917480469">
        <ele>135.20425415039062</ele>
        <time>2016-09-21T14:36:55.000Z</time>
      </trkpt>
      <trkpt lon="0.4528700411319733" lat="49.2939338684082031">
        <ele>135.49313354492188</ele>
        <time>2016-09-21T14:36:57.000Z</time>
      </trkpt>
      <trkpt lon="0.4527808427810669" lat="49.2938041687011719">
        <ele>135.8105926513672</ele>
        <time>2016-09-21T14:37:00.000Z</time>
      </trkpt>
      <trkpt lon="0.4526697993278503" lat="49.2936897277832031">
        <ele>136.1757049560547</ele>
        <time>2016-09-21T14:37:03.000Z</time>
      </trkpt>
      <trkpt lon="0.4526033997535706" lat="49.2935905456542969">
        <ele>136.53892517089844</ele>
        <time>2016-09-21T14:37:05.000Z</time>
      </trkpt>
      <trkpt lon="0.4525116980075836" lat="49.2934608459472656">
        <ele>136.90628051757812</ele>
        <time>2016-09-21T14:37:08.000Z</time>
      </trkpt>
      <trkpt lon="0.4524123072624207" lat="49.2933464050292969">
        <ele>137.29737854003906</ele>
        <time>2016-09-21T14:37:11.000Z</time>
      </trkpt>
      <trkpt lon="0.4523544609546661" lat="49.2932662963867188">
        <ele>137.6413116455078</ele>
        <time>2016-09-21T14:37:13.000Z</time>
      </trkpt>
      <trkpt lon="0.4522771835327148" lat="49.2931480407714844">
        <ele>137.95077514648438</ele>
        <time>2016-09-21T14:37:16.000Z</time>
      </trkpt>
      <trkpt lon="0.4521818757057190" lat="49.2930221557617188">
        <ele>138.2505645751953</ele>
        <time>2016-09-21T14:37:19.000Z</time>
      </trkpt>
      <trkpt lon="0.4520878493785858" lat="49.2928962707519531">
        <ele>138.51869201660156</ele>
        <time>2016-09-21T14:37:22.000Z</time>
      </trkpt>
      <trkpt lon="0.4520236253738403" lat="49.2928199768066406">
        <ele>138.7422637939453</ele>
        <time>2016-09-21T14:37:24.000Z</time>
      </trkpt>
      <trkpt lon="0.4519264996051788" lat="49.2926940917968750">
        <ele>138.982666015625</ele>
        <time>2016-09-21T14:37:27.000Z</time>
      </trkpt>
      <trkpt lon="0.4518664777278900" lat="49.2926177978515625">
        <ele>139.2082061767578</ele>
        <time>2016-09-21T14:37:29.000Z</time>
      </trkpt>
      <trkpt lon="0.4517862498760223" lat="49.2925033569335938">
        <ele>139.4271697998047</ele>
        <time>2016-09-21T14:37:32.000Z</time>
      </trkpt>
      <trkpt lon="0.4517069756984711" lat="49.2923774719238281">
        <ele>139.61489868164062</ele>
        <time>2016-09-21T14:37:35.000Z</time>
      </trkpt>
      <trkpt lon="0.4516352117061615" lat="49.2922973632812500">
        <ele>139.77877807617188</ele>
        <time>2016-09-21T14:37:37.000Z</time>
      </trkpt>
      <trkpt lon="0.4515659809112549" lat="49.2922172546386719">
        <ele>139.8954620361328</ele>
        <time>2016-09-21T14:37:39.000Z</time>
      </trkpt>
      <trkpt lon="0.4515022933483124" lat="49.2921295166015625">
        <ele>139.98941040039062</ele>
        <time>2016-09-21T14:37:41.000Z</time>
      </trkpt>
      <trkpt lon="0.4514176249504089" lat="49.2920074462890625">
        <ele>140.05455017089844</ele>
        <time>2016-09-21T14:37:44.000Z</time>
      </trkpt>
      <trkpt lon="0.4513465464115143" lat="49.2919197082519531">
        <ele>140.1163787841797</ele>
        <time>2016-09-21T14:37:46.000Z</time>
      </trkpt>
      <trkpt lon="0.4512369036674500" lat="49.2917938232421875">
        <ele>140.20205688476562</ele>
        <time>2016-09-21T14:37:49.000Z</time>
      </trkpt>
      <trkpt lon="0.4511399269104004" lat="49.2916755676269531">
        <ele>140.3190155029297</ele>
        <time>2016-09-21T14:37:52.000Z</time>
      </trkpt>
      <trkpt lon="0.4510847032070160" lat="49.2915954589843750">
        <ele>140.46408081054688</ele>
        <time>2016-09-21T14:37:54.000Z</time>
      </trkpt>
      <trkpt lon="0.4510355889797211" lat="49.2915115356445312">
        <ele>140.6263885498047</ele>
        <time>2016-09-21T14:37:56.000Z</time>
      </trkpt>
      <trkpt lon="0.4509485661983490" lat="49.2913780212402344">
        <ele>140.8240966796875</ele>
        <time>2016-09-21T14:37:59.000Z</time>
      </trkpt>
      <trkpt lon="0.4508738815784454" lat="49.2913208007812500">
        <ele>141.01388549804688</ele>
        <time>2016-09-21T14:38:01.000Z</time>
      </trkpt>
      <trkpt lon="0.4507628381252289" lat="49.2911911010742188">
        <ele>141.2440643310547</ele>
        <time>2016-09-21T14:38:04.000Z</time>
      </trkpt>
      <trkpt lon="0.4507005512714386" lat="49.2911033630371094">
        <ele>141.4904022216797</ele>
        <time>2016-09-21T14:38:06.000Z</time>
      </trkpt>
      <trkpt lon="0.4506315588951111" lat="49.2910423278808594">
        <ele>141.75135803222656</ele>
        <time>2016-09-21T14:38:08.000Z</time>
      </trkpt>
      <trkpt lon="0.4505266249179840" lat="49.2909088134765625">
        <ele>142.03570556640625</ele>
        <time>2016-09-21T14:38:11.000Z</time>
      </trkpt>
      <trkpt lon="0.4504486620426178" lat="49.2908210754394531">
        <ele>142.34182739257812</ele>
        <time>2016-09-21T14:38:13.000Z</time>
      </trkpt>
      <trkpt lon="0.4503446519374847" lat="49.2906990051269531">
        <ele>142.59642028808594</ele>
        <time>2016-09-21T14:38:16.000Z</time>
      </trkpt>
      <trkpt lon="0.4502176642417908" lat="49.2905960083007812">
        <ele>142.8139190673828</ele>
        <time>2016-09-21T14:38:19.000Z</time>
      </trkpt>
      <trkpt lon="0.4501270651817322" lat="49.2904624938964844">
        <ele>142.95701599121094</ele>
        <time>2016-09-21T14:38:22.000Z</time>
      </trkpt>
      <trkpt lon="0.4500651955604553" lat="49.2903747558593750">
        <ele>142.9949493408203</ele>
        <time>2016-09-21T14:38:24.000Z</time>
      </trkpt>
      <trkpt lon="0.4500081241130829" lat="49.2902755737304688">
        <ele>142.94357299804688</ele>
        <time>2016-09-21T14:38:26.000Z</time>
      </trkpt>
      <trkpt lon="0.4498776197433472" lat="49.2901725769042969">
        <ele>142.84619140625</ele>
        <time>2016-09-21T14:38:29.000Z</time>
      </trkpt>
      <trkpt lon="0.4498217999935150" lat="49.2900390625000000">
        <ele>142.68133544921875</ele>
        <time>2016-09-21T14:38:32.000Z</time>
      </trkpt>
      <trkpt lon="0.4497141540050507" lat="49.2899551391601562">
        <ele>142.55213928222656</ele>
        <time>2016-09-21T14:38:34.000Z</time>
      </trkpt>
      <trkpt lon="0.4496063888072968" lat="49.2898445129394531">
        <ele>142.49075317382812</ele>
        <time>2016-09-21T14:38:37.000Z</time>
      </trkpt>
      <trkpt lon="0.4495274126529694" lat="49.2897491455078125">
        <ele>142.50613403320312</ele>
        <time>2016-09-21T14:38:39.000Z</time>
      </trkpt>
      <trkpt lon="0.4494483768939972" lat="49.2896270751953125">
        <ele>142.5850372314453</ele>
        <time>2016-09-21T14:38:42.000Z</time>
      </trkpt>
      <trkpt lon="0.4493119120597839" lat="49.2894973754882812">
        <ele>142.7881622314453</ele>
        <time>2016-09-21T14:38:45.000Z</time>
      </trkpt>
      <trkpt lon="0.4491887986660004" lat="49.2893981933593750">
        <ele>143.05148315429688</ele>
        <time>2016-09-21T14:38:48.000Z</time>
      </trkpt>
      <trkpt lon="0.4491003751754761" lat="49.2892837524414062">
        <ele>143.34339904785156</ele>
        <time>2016-09-21T14:38:51.000Z</time>
      </trkpt>
      <trkpt lon="0.4490312933921814" lat="49.2891731262207031">
        <ele>143.65957641601562</ele>
        <time>2016-09-21T14:38:54.000Z</time>
      </trkpt>
      <trkpt lon="0.4489496648311615" lat="49.2890625000000000">
        <ele>143.96575927734375</ele>
        <time>2016-09-21T14:38:57.000Z</time>
      </trkpt>
      <trkpt lon="0.4488659203052521" lat="49.2889518737792969">
        <ele>144.22694396972656</ele>
        <time>2016-09-21T14:39:00.000Z</time>
      </trkpt>
      <trkpt lon="0.4488048255443573" lat="49.2888755798339844">
        <ele>144.4344940185547</ele>
        <time>2016-09-21T14:39:02.000Z</time>
      </trkpt>
      <trkpt lon="0.4487058222293854" lat="49.2887687683105469">
        <ele>144.59890747070312</ele>
        <time>2016-09-21T14:39:05.000Z</time>
      </trkpt>
      <trkpt lon="0.4486067593097687" lat="49.2886619567871094">
        <ele>144.7229461669922</ele>
        <time>2016-09-21T14:39:08.000Z</time>
      </trkpt>
      <trkpt lon="0.4485139548778534" lat="49.2885551452636719">
        <ele>144.82339477539062</ele>
        <time>2016-09-21T14:39:11.000Z</time>
      </trkpt>
      <trkpt lon="0.4484283924102783" lat="49.2884521484375000">
        <ele>144.9000244140625</ele>
        <time>2016-09-21T14:39:14.000Z</time>
      </trkpt>
      <trkpt lon="0.4483431279659271" lat="49.2883529663085938">
        <ele>144.95938110351562</ele>
        <time>2016-09-21T14:39:17.000Z</time>
      </trkpt>
      <trkpt lon="0.4482930302619934" lat="49.2882843017578125">
        <ele>145.00184631347656</ele>
        <time>2016-09-21T14:39:19.000Z</time>
      </trkpt>
      <trkpt lon="0.4482049942016602" lat="49.2881774902343750">
        <ele>145.04623413085938</ele>
        <time>2016-09-21T14:39:22.000Z</time>
      </trkpt>
      <trkpt lon="0.4481114745140076" lat="49.2880783081054688">
        <ele>145.0931396484375</ele>
        <time>2016-09-21T14:39:25.000Z</time>
      </trkpt>
      <trkpt lon="0.4480205178260803" lat="49.2879714965820312">
        <ele>145.14486694335938</ele>
        <time>2016-09-21T14:39:28.000Z</time>
      </trkpt>
      <trkpt lon="0.4479332566261292" lat="49.2878570556640625">
        <ele>145.2014923095703</ele>
        <time>2016-09-21T14:39:31.000Z</time>
      </trkpt>
      <trkpt lon="0.4478649497032166" lat="49.2877769470214844">
        <ele>145.2490234375</ele>
        <time>2016-09-21T14:39:33.000Z</time>
      </trkpt>
      <trkpt lon="0.4477601051330566" lat="49.2876548767089844">
        <ele>145.26780700683594</ele>
        <time>2016-09-21T14:39:36.000Z</time>
      </trkpt>
      <trkpt lon="0.4476631879806519" lat="49.2875518798828125">
        <ele>145.25949096679688</ele>
        <time>2016-09-21T14:39:39.000Z</time>
      </trkpt>
      <trkpt lon="0.4475458562374115" lat="49.2874336242675781">
        <ele>145.261474609375</ele>
        <time>2016-09-21T14:39:42.000Z</time>
      </trkpt>
      <trkpt lon="0.4474416673183441" lat="49.2873268127441406">
        <ele>145.32815551757812</ele>
        <time>2016-09-21T14:39:45.000Z</time>
      </trkpt>
      <trkpt lon="0.4473523199558258" lat="49.2872161865234375">
        <ele>145.4747314453125</ele>
        <time>2016-09-21T14:39:48.000Z</time>
      </trkpt>
      <trkpt lon="0.4473006725311279" lat="49.2871131896972656">
        <ele>145.70220947265625</ele>
        <time>2016-09-21T14:39:51.000Z</time>
      </trkpt>
      <trkpt lon="0.4472591876983643" lat="49.2870483398437500">
        <ele>145.99072265625</ele>
        <time>2016-09-21T14:39:53.000Z</time>
      </trkpt>
      <trkpt lon="0.4471583664417267" lat="49.2869377136230469">
        <ele>146.3388671875</ele>
        <time>2016-09-21T14:39:56.000Z</time>
      </trkpt>
      <trkpt lon="0.4470991790294647" lat="49.2868652343750000">
        <ele>146.669921875</ele>
        <time>2016-09-21T14:39:58.000Z</time>
      </trkpt>
      <trkpt lon="0.4470391571521759" lat="49.2867889404296875">
        <ele>146.9775390625</ele>
        <time>2016-09-21T14:40:00.000Z</time>
      </trkpt>
      <trkpt lon="0.4469398558139801" lat="49.2866783142089844">
        <ele>147.291015625</ele>
        <time>2016-09-21T14:40:03.000Z</time>
      </trkpt>
      <trkpt lon="0.4468727111816406" lat="49.2866096496582031">
        <ele>147.59698486328125</ele>
        <time>2016-09-21T14:40:05.000Z</time>
      </trkpt>
      <trkpt lon="0.4467621445655823" lat="49.2864875793457031">
        <ele>147.8839569091797</ele>
        <time>2016-09-21T14:40:08.000Z</time>
      </trkpt>
      <trkpt lon="0.4466673433780670" lat="49.2863655090332031">
        <ele>148.17190551757812</ele>
        <time>2016-09-21T14:40:11.000Z</time>
      </trkpt>
      <trkpt lon="0.4465495944023132" lat="49.2862281799316406">
        <ele>148.4276123046875</ele>
        <time>2016-09-21T14:40:14.000Z</time>
      </trkpt>
      <trkpt lon="0.4464616477489471" lat="49.2861137390136719">
        <ele>148.61990356445312</ele>
        <time>2016-09-21T14:40:17.000Z</time>
      </trkpt>
      <trkpt lon="0.4463533461093903" lat="49.2860069274902344">
        <ele>148.77078247070312</ele>
        <time>2016-09-21T14:40:20.000Z</time>
      </trkpt>
      <trkpt lon="0.4462885558605194" lat="49.2859306335449219">
        <ele>148.8623809814453</ele>
        <time>2016-09-21T14:40:22.000Z</time>
      </trkpt>
      <trkpt lon="0.4462034106254578" lat="49.2857971191406250">
        <ele>148.90322875976562</ele>
        <time>2016-09-21T14:40:25.000Z</time>
      </trkpt>
      <trkpt lon="0.4460602402687073" lat="49.2856903076171875">
        <ele>148.87832641601562</ele>
        <time>2016-09-21T14:40:28.000Z</time>
      </trkpt>
      <trkpt lon="0.4459411501884460" lat="49.2855796813964844">
        <ele>148.8069305419922</ele>
        <time>2016-09-21T14:40:31.000Z</time>
      </trkpt>
      <trkpt lon="0.4458749294281006" lat="49.2855148315429688">
        <ele>148.72142028808594</ele>
        <time>2016-09-21T14:40:33.000Z</time>
      </trkpt>
      <trkpt lon="0.4458054304122925" lat="49.2854347229003906">
        <ele>148.6346435546875</ele>
        <time>2016-09-21T14:40:35.000Z</time>
      </trkpt>
      <trkpt lon="0.4457591772079468" lat="49.2853546142578125">
        <ele>148.56344604492188</ele>
        <time>2016-09-21T14:40:37.000Z</time>
      </trkpt>
      <trkpt lon="0.4456700682640076" lat="49.2852210998535156">
        <ele>148.56683349609375</ele>
        <time>2016-09-21T14:40:40.000Z</time>
      </trkpt>
      <trkpt lon="0.4455938637256622" lat="49.2851448059082031">
        <ele>148.61956787109375</ele>
        <time>2016-09-21T14:40:42.000Z</time>
      </trkpt>
      <trkpt lon="0.4455285072326660" lat="49.2850532531738281">
        <ele>148.7099609375</ele>
        <time>2016-09-21T14:40:44.000Z</time>
      </trkpt>
      <trkpt lon="0.4454218745231628" lat="49.2849388122558594">
        <ele>148.84959411621094</ele>
        <time>2016-09-21T14:40:47.000Z</time>
      </trkpt>
      <trkpt lon="0.4453325271606445" lat="49.2848587036132812">
        <ele>149.01602172851562</ele>
        <time>2016-09-21T14:40:49.000Z</time>
      </trkpt>
      <trkpt lon="0.4452508985996246" lat="49.2847557067871094">
        <ele>149.2030792236328</ele>
        <time>2016-09-21T14:40:52.000Z</time>
      </trkpt>
      <trkpt lon="0.4451900422573090" lat="49.2846603393554688">
        <ele>149.41952514648438</ele>
        <time>2016-09-21T14:40:55.000Z</time>
      </trkpt>
      <trkpt lon="0.4451155960559845" lat="49.2845649719238281">
        <ele>149.6552734375</ele>
        <time>2016-09-21T14:40:58.000Z</time>
      </trkpt>
      <trkpt lon="0.4450283348560333" lat="49.2844657897949219">
        <ele>149.8809356689453</ele>
        <time>2016-09-21T14:41:01.000Z</time>
      </trkpt>
      <trkpt lon="0.4449633061885834" lat="49.2843971252441406">
        <ele>150.08370971679688</ele>
        <time>2016-09-21T14:41:03.000Z</time>
      </trkpt>
      <trkpt lon="0.4449025392532349" lat="49.2843246459960938">
        <ele>150.25430297851562</ele>
        <time>2016-09-21T14:41:05.000Z</time>
      </trkpt>
      <trkpt lon="0.4448033869266510" lat="49.2842216491699219">
        <ele>150.40249633789062</ele>
        <time>2016-09-21T14:41:08.000Z</time>
      </trkpt>
      <trkpt lon="0.4447461366653442" lat="49.2841491699218750">
        <ele>150.52645874023438</ele>
        <time>2016-09-21T14:41:10.000Z</time>
      </trkpt>
      <trkpt lon="0.4447004497051239" lat="49.2840843200683594">
        <ele>150.6264190673828</ele>
        <time>2016-09-21T14:41:12.000Z</time>
      </trkpt>
      <trkpt lon="0.4445842802524567" lat="49.2839546203613281">
        <ele>150.7438507080078</ele>
        <time>2016-09-21T14:41:15.000Z</time>
      </trkpt>
      <trkpt lon="0.4445480704307556" lat="49.2838439941406250">
        <ele>150.8912811279297</ele>
        <time>2016-09-21T14:41:17.000Z</time>
      </trkpt>
      <trkpt lon="0.4444545209407806" lat="49.2837333679199219">
        <ele>151.07113647460938</ele>
        <time>2016-09-21T14:41:20.000Z</time>
      </trkpt>
      <trkpt lon="0.4443624913692474" lat="49.2836227416992188">
        <ele>151.30209350585938</ele>
        <time>2016-09-21T14:41:23.000Z</time>
      </trkpt>
      <trkpt lon="0.4443010389804840" lat="49.2835350036621094">
        <ele>151.5777587890625</ele>
        <time>2016-09-21T14:41:25.000Z</time>
      </trkpt>
      <trkpt lon="0.4442098438739777" lat="49.2834472656250000">
        <ele>151.8869171142578</ele>
        <time>2016-09-21T14:41:28.000Z</time>
      </trkpt>
      <trkpt lon="0.4441159665584564" lat="49.2833557128906250">
        <ele>152.19338989257812</ele>
        <time>2016-09-21T14:41:30.000Z</time>
      </trkpt>
      <trkpt lon="0.4440499246120453" lat="49.2832679748535156">
        <ele>152.4162139892578</ele>
        <time>2016-09-21T14:41:32.000Z</time>
      </trkpt>
      <trkpt lon="0.4439752399921417" lat="49.2831726074218750">
        <ele>152.52560424804688</ele>
        <time>2016-09-21T14:41:34.000Z</time>
      </trkpt>
      <trkpt lon="0.4439196884632111" lat="49.2830924987792969">
        <ele>152.5465850830078</ele>
        <time>2016-09-21T14:41:36.000Z</time>
      </trkpt>
      <trkpt lon="0.4438234567642212" lat="49.2829627990722656">
        <ele>152.4557342529297</ele>
        <time>2016-09-21T14:41:39.000Z</time>
      </trkpt>
      <trkpt lon="0.4437319338321686" lat="49.2828559875488281">
        <ele>152.2935791015625</ele>
        <time>2016-09-21T14:41:42.000Z</time>
      </trkpt>
      <trkpt lon="0.4436484277248383" lat="49.2827377319335938">
        <ele>152.14688110351562</ele>
        <time>2016-09-21T14:41:45.000Z</time>
      </trkpt>
      <trkpt lon="0.4436221122741699" lat="49.2826690673828125">
        <ele>152.04733276367188</ele>
        <time>2016-09-21T14:41:47.000Z</time>
      </trkpt>
      <trkpt lon="0.4435220360755920" lat="49.2825317382812500">
        <ele>151.9851837158203</ele>
        <time>2016-09-21T14:41:50.000Z</time>
      </trkpt>
      <trkpt lon="0.4434556663036346" lat="49.2824668884277344">
        <ele>151.98043823242188</ele>
        <time>2016-09-21T14:41:52.000Z</time>
      </trkpt>
      <trkpt lon="0.4433880150318146" lat="49.2823905944824219">
        <ele>152.0355224609375</ele>
        <time>2016-09-21T14:41:54.000Z</time>
      </trkpt>
      <trkpt lon="0.4432988166809082" lat="49.2823181152343750">
        <ele>152.13597106933594</ele>
        <time>2016-09-21T14:41:56.000Z</time>
      </trkpt>
      <trkpt lon="0.4431635439395905" lat="49.2821807861328125">
        <ele>152.28567504882812</ele>
        <time>2016-09-21T14:41:59.000Z</time>
      </trkpt>
      <trkpt lon="0.4430461227893829" lat="49.2820701599121094">
        <ele>152.4599151611328</ele>
        <time>2016-09-21T14:42:02.000Z</time>
      </trkpt>
      <trkpt lon="0.4429689049720764" lat="49.2819976806640625">
        <ele>152.63308715820312</ele>
        <time>2016-09-21T14:42:04.000Z</time>
      </trkpt>
      <trkpt lon="0.4428584277629852" lat="49.2818908691406250">
        <ele>152.79006958007812</ele>
        <time>2016-09-21T14:42:07.000Z</time>
      </trkpt>
      <trkpt lon="0.4427794814109802" lat="49.2818107604980469">
        <ele>152.9242706298828</ele>
        <time>2016-09-21T14:42:09.000Z</time>
      </trkpt>
      <trkpt lon="0.4427011013031006" lat="49.2816925048828125">
        <ele>153.02734375</ele>
        <time>2016-09-21T14:42:12.000Z</time>
      </trkpt>
      <trkpt lon="0.4426056444644928" lat="49.2815628051757812">
        <ele>153.1043243408203</ele>
        <time>2016-09-21T14:42:15.000Z</time>
      </trkpt>
      <trkpt lon="0.4424944221973419" lat="49.2814292907714844">
        <ele>153.17294311523438</ele>
        <time>2016-09-21T14:42:18.000Z</time>
      </trkpt>
      <trkpt lon="0.4424336552619934" lat="49.2812728881835938">
        <ele>153.251220703125</ele>
        <time>2016-09-21T14:42:21.000Z</time>
      </trkpt>
      <trkpt lon="0.4423895478248596" lat="49.2811698913574219">
        <ele>153.33425903320312</ele>
        <time>2016-09-21T14:42:23.000Z</time>
      </trkpt>
      <trkpt lon="0.4422675073146820" lat="49.2810516357421875">
        <ele>153.40060424804688</ele>
        <time>2016-09-21T14:42:26.000Z</time>
      </trkpt>
      <trkpt lon="0.4421561360359192" lat="49.2809333801269531">
        <ele>153.45706176757812</ele>
        <time>2016-09-21T14:42:29.000Z</time>
      </trkpt>
      <trkpt lon="0.4420483410358429" lat="49.2808074951171875">
        <ele>153.49899291992188</ele>
        <time>2016-09-21T14:42:32.000Z</time>
      </trkpt>
      <trkpt lon="0.4419434666633606" lat="49.2807083129882812">
        <ele>153.51870727539062</ele>
        <time>2016-09-21T14:42:35.000Z</time>
      </trkpt>
      <trkpt lon="0.4418383538722992" lat="49.2805900573730469">
        <ele>153.54864501953125</ele>
        <time>2016-09-21T14:42:38.000Z</time>
      </trkpt>
      <trkpt lon="0.4417282342910767" lat="49.2804718017578125">
        <ele>153.61708068847656</ele>
        <time>2016-09-21T14:42:41.000Z</time>
      </trkpt>
      <trkpt lon="0.4416229426860809" lat="49.2803535461425781">
        <ele>153.7432861328125</ele>
        <time>2016-09-21T14:42:44.000Z</time>
      </trkpt>
      <trkpt lon="0.4415256381034851" lat="49.2802619934082031">
        <ele>153.9193115234375</ele>
        <time>2016-09-21T14:42:47.000Z</time>
      </trkpt>
      <trkpt lon="0.4414247870445251" lat="49.2801399230957031">
        <ele>154.1461639404297</ele>
        <time>2016-09-21T14:42:50.000Z</time>
      </trkpt>
      <trkpt lon="0.4413371980190277" lat="49.2800712585449219">
        <ele>154.37893676757812</ele>
        <time>2016-09-21T14:42:52.000Z</time>
      </trkpt>
      <trkpt lon="0.4412667155265808" lat="49.2799987792968750">
        <ele>154.60507202148438</ele>
        <time>2016-09-21T14:42:54.000Z</time>
      </trkpt>
      <trkpt lon="0.4411903619766235" lat="49.2799339294433594">
        <ele>154.7996368408203</ele>
        <time>2016-09-21T14:42:56.000Z</time>
      </trkpt>
      <trkpt lon="0.4411286711692810" lat="49.2798576354980469">
        <ele>154.98094177246094</ele>
        <time>2016-09-21T14:42:58.000Z</time>
      </trkpt>
      <trkpt lon="0.4410026967525482" lat="49.2797393798828125">
        <ele>155.15969848632812</ele>
        <time>2016-09-21T14:43:01.000Z</time>
      </trkpt>
      <trkpt lon="0.4408881068229675" lat="49.2796936035156250">
        <ele>155.33456420898438</ele>
        <time>2016-09-21T14:43:03.000Z</time>
      </trkpt>
      <trkpt lon="0.4408145844936371" lat="49.2796440124511719">
        <ele>155.50234985351562</ele>
        <time>2016-09-21T14:43:05.000Z</time>
      </trkpt>
      <trkpt lon="0.4407249093055725" lat="49.2795944213867188">
        <ele>155.65965270996094</ele>
        <time>2016-09-21T14:43:07.000Z</time>
      </trkpt>
      <trkpt lon="0.4405710101127625" lat="49.2795333862304688">
        <ele>155.80029296875</ele>
        <time>2016-09-21T14:43:10.000Z</time>
      </trkpt>
      <trkpt lon="0.4405021965503693" lat="49.2794799804687500">
        <ele>155.90805053710938</ele>
        <time>2016-09-21T14:43:12.000Z</time>
      </trkpt>
      <trkpt lon="0.4403702020645142" lat="49.2793884277343750">
        <ele>156.03199768066406</ele>
        <time>2016-09-21T14:43:15.000Z</time>
      </trkpt>
      <trkpt lon="0.4402603805065155" lat="49.2793006896972656">
        <ele>156.17648315429688</ele>
        <time>2016-09-21T14:43:18.000Z</time>
      </trkpt>
      <trkpt lon="0.4401758909225464" lat="49.2792587280273438">
        <ele>156.33224487304688</ele>
        <time>2016-09-21T14:43:20.000Z</time>
      </trkpt>
      <trkpt lon="0.4400697946548462" lat="49.2792358398437500">
        <ele>156.48727416992188</ele>
        <time>2016-09-21T14:43:22.000Z</time>
      </trkpt>
      <trkpt lon="0.4399631619453430" lat="49.2792091369628906">
        <ele>156.6475372314453</ele>
        <time>2016-09-21T14:43:24.000Z</time>
      </trkpt>
      <trkpt lon="0.4398029744625092" lat="49.2791748046875000">
        <ele>156.82420349121094</ele>
        <time>2016-09-21T14:43:27.000Z</time>
      </trkpt>
      <trkpt lon="0.4397124648094177" lat="49.2791404724121094">
        <ele>156.98770141601562</ele>
        <time>2016-09-21T14:43:29.000Z</time>
      </trkpt>
      <trkpt lon="0.4395638406276703" lat="49.2790908813476562">
        <ele>157.1833038330078</ele>
        <time>2016-09-21T14:43:32.000Z</time>
      </trkpt>
      <trkpt lon="0.4394063651561737" lat="49.2790260314941406">
        <ele>157.43270874023438</ele>
        <time>2016-09-21T14:43:35.000Z</time>
      </trkpt>
      <trkpt lon="0.4392403960227966" lat="49.2789382934570312">
        <ele>157.7395782470703</ele>
        <time>2016-09-21T14:43:38.000Z</time>
      </trkpt>
      <trkpt lon="0.4390770196914673" lat="49.2788505554199219">
        <ele>158.05001831054688</ele>
        <time>2016-09-21T14:43:41.000Z</time>
      </trkpt>
      <trkpt lon="0.4389709234237671" lat="49.2788124084472656">
        <ele>158.34304809570312</ele>
        <time>2016-09-21T14:43:43.000Z</time>
      </trkpt>
      <trkpt lon="0.4388660490512848" lat="49.2787742614746094">
        <ele>158.5976104736328</ele>
        <time>2016-09-21T14:43:45.000Z</time>
      </trkpt>
      <trkpt lon="0.4387653768062592" lat="49.2787246704101562">
        <ele>158.8094940185547</ele>
        <time>2016-09-21T14:43:47.000Z</time>
      </trkpt>
      <trkpt lon="0.4386664927005768" lat="49.2786827087402344">
        <ele>158.955078125</ele>
        <time>2016-09-21T14:43:49.000Z</time>
      </trkpt>
      <trkpt lon="0.4385032057762146" lat="49.2786140441894531">
        <ele>159.068359375</ele>
        <time>2016-09-21T14:43:52.000Z</time>
      </trkpt>
      <trkpt lon="0.4383414387702942" lat="49.2785224914550781">
        <ele>159.20703125</ele>
        <time>2016-09-21T14:43:55.000Z</time>
      </trkpt>
      <trkpt lon="0.4382243454456329" lat="49.2784729003906250">
        <ele>159.32540893554688</ele>
        <time>2016-09-21T14:43:57.000Z</time>
      </trkpt>
      <trkpt lon="0.4380404353141785" lat="49.2784194946289062">
        <ele>159.40158081054688</ele>
        <time>2016-09-21T14:44:00.000Z</time>
      </trkpt>
      <trkpt lon="0.4378593862056732" lat="49.2783546447753906">
        <ele>159.446044921875</ele>
        <time>2016-09-21T14:44:03.000Z</time>
      </trkpt>
      <trkpt lon="0.4376707971096039" lat="49.2782974243164062">
        <ele>159.43569946289062</ele>
        <time>2016-09-21T14:44:06.000Z</time>
      </trkpt>
      <trkpt lon="0.4375617504119873" lat="49.2782630920410156">
        <ele>159.37303161621094</ele>
        <time>2016-09-21T14:44:08.000Z</time>
      </trkpt>
      <trkpt lon="0.4374163150787354" lat="49.2782096862792969">
        <ele>159.32022094726562</ele>
        <time>2016-09-21T14:44:11.000Z</time>
      </trkpt>
      <trkpt lon="0.4372586607933044" lat="49.2781410217285156">
        <ele>159.296630859375</ele>
        <time>2016-09-21T14:44:14.000Z</time>
      </trkpt>
      <trkpt lon="0.4371314346790314" lat="49.2781028747558594">
        <ele>159.28097534179688</ele>
        <time>2016-09-21T14:44:16.000Z</time>
      </trkpt>
      <trkpt lon="0.4369573295116425" lat="49.2780418395996094">
        <ele>159.27420043945312</ele>
        <time>2016-09-21T14:44:19.000Z</time>
      </trkpt>
      <trkpt lon="0.4368499517440796" lat="49.2779998779296875">
        <ele>159.26358032226562</ele>
        <time>2016-09-21T14:44:21.000Z</time>
      </trkpt>
      <trkpt lon="0.4366834163665771" lat="49.2779426574707031">
        <ele>159.21429443359375</ele>
        <time>2016-09-21T14:44:24.000Z</time>
      </trkpt>
      <trkpt lon="0.4364902079105377" lat="49.2778549194335938">
        <ele>159.1488037109375</ele>
        <time>2016-09-21T14:44:27.000Z</time>
      </trkpt>
      <trkpt lon="0.4363186359405518" lat="49.2778015136718750">
        <ele>159.08758544921875</ele>
        <time>2016-09-21T14:44:30.000Z</time>
      </trkpt>
      <trkpt lon="0.4361876249313354" lat="49.2777595520019531">
        <ele>159.03909301757812</ele>
        <time>2016-09-21T14:44:32.000Z</time>
      </trkpt>
      <trkpt lon="0.4360360801219940" lat="49.2777137756347656">
        <ele>159.00376892089844</ele>
        <time>2016-09-21T14:44:34.000Z</time>
      </trkpt>
      <trkpt lon="0.4358343183994293" lat="49.2776756286621094">
        <ele>159.0</ele>
        <time>2016-09-21T14:44:37.000Z</time>
      </trkpt>
      <trkpt lon="0.4356632530689240" lat="49.2776451110839844">
        <ele>158.99290466308594</ele>
        <time>2016-09-21T14:44:40.000Z</time>
      </trkpt>
      <trkpt lon="0.4354890584945679" lat="49.2776298522949219">
        <ele>158.9801483154297</ele>
        <time>2016-09-21T14:44:43.000Z</time>
      </trkpt>
      <trkpt lon="0.4353512823581696" lat="49.2776184082031250">
        <ele>158.9634246826172</ele>
        <time>2016-09-21T14:44:45.000Z</time>
      </trkpt>
      <trkpt lon="0.4352181553840637" lat="49.2775917053222656">
        <ele>158.9471435546875</ele>
        <time>2016-09-21T14:44:47.000Z</time>
      </trkpt>
      <trkpt lon="0.4351157546043396" lat="49.2775230407714844">
        <ele>158.94241333007812</ele>
        <time>2016-09-21T14:44:49.000Z</time>
      </trkpt>
      <trkpt lon="0.4350066184997559" lat="49.2773857116699219">
        <ele>158.97726440429688</ele>
        <time>2016-09-21T14:44:52.000Z</time>
      </trkpt>
      <trkpt lon="0.4349150657653809" lat="49.2772941589355469">
        <ele>159.0392303466797</ele>
        <time>2016-09-21T14:44:54.000Z</time>
      </trkpt>
      <trkpt lon="0.4347985684871674" lat="49.2772407531738281">
        <ele>159.1178741455078</ele>
        <time>2016-09-21T14:44:56.000Z</time>
      </trkpt>
      <trkpt lon="0.4345555007457733" lat="49.2771377563476562">
        <ele>159.22146606445312</ele>
        <time>2016-09-21T14:44:59.000Z</time>
      </trkpt>
      <trkpt lon="0.4344112575054169" lat="49.2770614624023438">
        <ele>159.3310546875</ele>
        <time>2016-09-21T14:45:01.000Z</time>
      </trkpt>
      <trkpt lon="0.4341975748538971" lat="49.2769622802734375">
        <ele>159.4326171875</ele>
        <time>2016-09-21T14:45:04.000Z</time>
      </trkpt>
      <trkpt lon="0.4340546727180481" lat="49.2769165039062500">
        <ele>159.50460815429688</ele>
        <time>2016-09-21T14:45:06.000Z</time>
      </trkpt>
      <trkpt lon="0.4339028894901276" lat="49.2768707275390625">
        <ele>159.54574584960938</ele>
        <time>2016-09-21T14:45:08.000Z</time>
      </trkpt>
      <trkpt lon="0.4337494075298309" lat="49.2768211364746094">
        <ele>159.53958129882812</ele>
        <time>2016-09-21T14:45:10.000Z</time>
      </trkpt>
      <trkpt lon="0.4335250258445740" lat="49.2767562866210938">
        <ele>159.47567749023438</ele>
        <time>2016-09-21T14:45:13.000Z</time>
      </trkpt>
      <trkpt lon="0.4333733916282654" lat="49.2767066955566406">
        <ele>159.35556030273438</ele>
        <time>2016-09-21T14:45:15.000Z</time>
      </trkpt>
      <trkpt lon="0.4332199096679688" lat="49.2766456604003906">
        <ele>159.23434448242188</ele>
        <time>2016-09-21T14:45:17.000Z</time>
      </trkpt>
      <trkpt lon="0.4329922795295715" lat="49.2765655517578125">
        <ele>159.1312713623047</ele>
        <time>2016-09-21T14:45:20.000Z</time>
      </trkpt>
      <trkpt lon="0.4328441619873047" lat="49.2765007019042969">
        <ele>159.05014038085938</ele>
        <time>2016-09-21T14:45:22.000Z</time>
      </trkpt>
      <trkpt lon="0.4326950609683990" lat="49.2764396667480469">
        <ele>159.00917053222656</ele>
        <time>2016-09-21T14:45:24.000Z</time>
      </trkpt>
      <trkpt lon="0.4324600994586945" lat="49.2763481140136719">
        <ele>158.9808349609375</ele>
        <time>2016-09-21T14:45:27.000Z</time>
      </trkpt>
      <trkpt lon="0.4323118329048157" lat="49.2763023376464844">
        <ele>158.8905029296875</ele>
        <time>2016-09-21T14:45:29.000Z</time>
      </trkpt>
      <trkpt lon="0.4321497976779938" lat="49.2762336730957031">
        <ele>158.722412109375</ele>
        <time>2016-09-21T14:45:31.000Z</time>
      </trkpt>
      <trkpt lon="0.4319337308406830" lat="49.2761611938476562">
        <ele>158.45059204101562</ele>
        <time>2016-09-21T14:45:34.000Z</time>
      </trkpt>
      <trkpt lon="0.4317200779914856" lat="49.2760696411132812">
        <ele>158.0762176513672</ele>
        <time>2016-09-21T14:45:37.000Z</time>
      </trkpt>
      <trkpt lon="0.4315570294857025" lat="49.2760086059570312">
        <ele>157.6427459716797</ele>
        <time>2016-09-21T14:45:39.000Z</time>
      </trkpt>
      <trkpt lon="0.4313310682773590" lat="49.2759017944335938">
        <ele>157.1719970703125</ele>
        <time>2016-09-21T14:45:42.000Z</time>
      </trkpt>
      <trkpt lon="0.4311113655567169" lat="49.2757949829101562">
        <ele>156.67991638183594</ele>
        <time>2016-09-21T14:45:45.000Z</time>
      </trkpt>
      <trkpt lon="0.4308677911758423" lat="49.2757072448730469">
        <ele>156.19711303710938</ele>
        <time>2016-09-21T14:45:48.000Z</time>
      </trkpt>
      <trkpt lon="0.4306246340274811" lat="49.2755928039550781">
        <ele>155.91470336914062</ele>
        <time>2016-09-21T14:45:51.000Z</time>
      </trkpt>
      <trkpt lon="0.4304272532463074" lat="49.2754898071289062">
        <ele>155.80471801757812</ele>
        <time>2016-09-21T14:45:54.000Z</time>
      </trkpt>
      <trkpt lon="0.4302714169025421" lat="49.2754325866699219">
        <ele>155.866943359375</ele>
        <time>2016-09-21T14:45:56.000Z</time>
      </trkpt>
      <trkpt lon="0.4300425052642822" lat="49.2753181457519531">
        <ele>156.11300659179688</ele>
        <time>2016-09-21T14:45:59.000Z</time>
      </trkpt>
      <trkpt lon="0.4298197329044342" lat="49.2751884460449219">
        <ele>156.42437744140625</ele>
        <time>2016-09-21T14:46:02.000Z</time>
      </trkpt>
      <trkpt lon="0.4296260178089142" lat="49.2751274108886719">
        <ele>156.59140014648438</ele>
        <time>2016-09-21T14:46:04.000Z</time>
      </trkpt>
      <trkpt lon="0.4293883144855499" lat="49.2750320434570312">
        <ele>156.6072235107422</ele>
        <time>2016-09-21T14:46:07.000Z</time>
      </trkpt>
      <trkpt lon="0.4292358458042145" lat="49.2749595642089844">
        <ele>156.5234832763672</ele>
        <time>2016-09-21T14:46:09.000Z</time>
      </trkpt>
      <trkpt lon="0.4290194213390350" lat="49.2748565673828125">
        <ele>156.33758544921875</ele>
        <time>2016-09-21T14:46:12.000Z</time>
      </trkpt>
      <trkpt lon="0.4288779199123383" lat="49.2747917175292969">
        <ele>156.18084716796875</ele>
        <time>2016-09-21T14:46:14.000Z</time>
      </trkpt>
      <trkpt lon="0.4287263154983521" lat="49.2747383117675781">
        <ele>156.0706024169922</ele>
        <time>2016-09-21T14:46:16.000Z</time>
      </trkpt>
      <trkpt lon="0.4284667074680328" lat="49.2746200561523438">
        <ele>156.0174102783203</ele>
        <time>2016-09-21T14:46:19.000Z</time>
      </trkpt>
      <trkpt lon="0.4282297492027283" lat="49.2745170593261719">
        <ele>155.98959350585938</ele>
        <time>2016-09-21T14:46:22.000Z</time>
      </trkpt>
      <trkpt lon="0.4279689192771912" lat="49.2744102478027344">
        <ele>155.96405029296875</ele>
        <time>2016-09-21T14:46:25.000Z</time>
      </trkpt>
      <trkpt lon="0.4277031123638153" lat="49.2742996215820312">
        <ele>155.9398193359375</ele>
        <time>2016-09-21T14:46:28.000Z</time>
      </trkpt>
      <trkpt lon="0.4274591207504272" lat="49.2741966247558594">
        <ele>155.9318389892578</ele>
        <time>2016-09-21T14:46:31.000Z</time>
      </trkpt>
      <trkpt lon="0.4272323846817017" lat="49.2740859985351562">
        <ele>155.97128295898438</ele>
        <time>2016-09-21T14:46:34.000Z</time>
      </trkpt>
      <trkpt lon="0.4270161390304565" lat="49.2739791870117188">
        <ele>156.07192993164062</ele>
        <time>2016-09-21T14:46:37.000Z</time>
      </trkpt>
      <trkpt lon="0.4267884194850922" lat="49.2738838195800781">
        <ele>156.23263549804688</ele>
        <time>2016-09-21T14:46:40.000Z</time>
      </trkpt>
      <trkpt lon="0.4265495240688324" lat="49.2738075256347656">
        <ele>156.40101623535156</ele>
        <time>2016-09-21T14:46:43.000Z</time>
      </trkpt>
      <trkpt lon="0.4263371229171753" lat="49.2737121582031250">
        <ele>156.54708862304688</ele>
        <time>2016-09-21T14:46:46.000Z</time>
      </trkpt>
      <trkpt lon="0.4261108934879303" lat="49.2736320495605469">
        <ele>156.63050842285156</ele>
        <time>2016-09-21T14:46:49.000Z</time>
      </trkpt>
      <trkpt lon="0.4259786307811737" lat="49.2735557556152344">
        <ele>156.6685028076172</ele>
        <time>2016-09-21T14:46:51.000Z</time>
      </trkpt>
      <trkpt lon="0.4258590340614319" lat="49.2734870910644531">
        <ele>156.66607666015625</ele>
        <time>2016-09-21T14:46:53.000Z</time>
      </trkpt>
      <trkpt lon="0.4256951510906219" lat="49.2734260559082031">
        <ele>156.6814422607422</ele>
        <time>2016-09-21T14:46:55.000Z</time>
      </trkpt>
      <trkpt lon="0.4254795610904694" lat="49.2733383178710938">
        <ele>156.74087524414062</ele>
        <time>2016-09-21T14:46:58.000Z</time>
      </trkpt>
      <trkpt lon="0.4253504872322083" lat="49.2732810974121094">
        <ele>156.8301239013672</ele>
        <time>2016-09-21T14:47:00.000Z</time>
      </trkpt>
      <trkpt lon="0.4251107573509216" lat="49.2731895446777344">
        <ele>156.93646240234375</ele>
        <time>2016-09-21T14:47:03.000Z</time>
      </trkpt>
      <trkpt lon="0.4248762428760529" lat="49.2730674743652344">
        <ele>157.05812072753906</ele>
        <time>2016-09-21T14:47:06.000Z</time>
      </trkpt>
      <trkpt lon="0.4247322380542755" lat="49.2730178833007812">
        <ele>157.14990234375</ele>
        <time>2016-09-21T14:47:08.000Z</time>
      </trkpt>
      <trkpt lon="0.4245031774044037" lat="49.2729187011718750">
        <ele>157.1927490234375</ele>
        <time>2016-09-21T14:47:11.000Z</time>
      </trkpt>
      <trkpt lon="0.4243580698966980" lat="49.2728462219238281">
        <ele>157.20742797851562</ele>
        <time>2016-09-21T14:47:13.000Z</time>
      </trkpt>
      <trkpt lon="0.4241360425949097" lat="49.2727584838867188">
        <ele>157.18301391601562</ele>
        <time>2016-09-21T14:47:16.000Z</time>
      </trkpt>
      <trkpt lon="0.4239818155765533" lat="49.2726898193359375">
        <ele>157.19723510742188</ele>
        <time>2016-09-21T14:47:18.000Z</time>
      </trkpt>
      <trkpt lon="0.4238349497318268" lat="49.2726287841796875">
        <ele>157.28073120117188</ele>
        <time>2016-09-21T14:47:20.000Z</time>
      </trkpt>
      <trkpt lon="0.4236380755901337" lat="49.2725410461425781">
        <ele>157.48118591308594</ele>
        <time>2016-09-21T14:47:23.000Z</time>
      </trkpt>
      <trkpt lon="0.4234916269779205" lat="49.2724838256835938">
        <ele>157.7784423828125</ele>
        <time>2016-09-21T14:47:25.000Z</time>
      </trkpt>
      <trkpt lon="0.4233191311359406" lat="49.2723808288574219">
        <ele>158.1721954345703</ele>
        <time>2016-09-21T14:47:28.000Z</time>
      </trkpt>
      <trkpt lon="0.4230999350547791" lat="49.2722930908203125">
        <ele>158.57342529296875</ele>
        <time>2016-09-21T14:47:31.000Z</time>
      </trkpt>
      <trkpt lon="0.4228523373603821" lat="49.2722129821777344">
        <ele>158.9938507080078</ele>
        <time>2016-09-21T14:47:34.000Z</time>
      </trkpt>
      <trkpt lon="0.4226447343826294" lat="49.2721214294433594">
        <ele>159.3929901123047</ele>
        <time>2016-09-21T14:47:37.000Z</time>
      </trkpt>
      <trkpt lon="0.4225001335144043" lat="49.2720603942871094">
        <ele>159.77401733398438</ele>
        <time>2016-09-21T14:47:39.000Z</time>
      </trkpt>
      <trkpt lon="0.4223690330982208" lat="49.2720031738281250">
        <ele>160.0760955810547</ele>
        <time>2016-09-21T14:47:41.000Z</time>
      </trkpt>
      <trkpt lon="0.4221699833869934" lat="49.2719078063964844">
        <ele>160.32553100585938</ele>
        <time>2016-09-21T14:47:44.000Z</time>
      </trkpt>
      <trkpt lon="0.4220057725906372" lat="49.2718544006347656">
        <ele>160.4984130859375</ele>
        <time>2016-09-21T14:47:46.000Z</time>
      </trkpt>
      <trkpt lon="0.4217972457408905" lat="49.2717666625976562">
        <ele>160.61485290527344</ele>
        <time>2016-09-21T14:47:49.000Z</time>
      </trkpt>
      <trkpt lon="0.4216912984848022" lat="49.2717132568359375">
        <ele>160.6882781982422</ele>
        <time>2016-09-21T14:47:51.000Z</time>
      </trkpt>
      <trkpt lon="0.4215041995048523" lat="49.2716331481933594">
        <ele>160.7494354248047</ele>
        <time>2016-09-21T14:47:54.000Z</time>
      </trkpt>
      <trkpt lon="0.4213488996028900" lat="49.2715797424316406">
        <ele>160.76705932617188</ele>
        <time>2016-09-21T14:47:56.000Z</time>
      </trkpt>
      <trkpt lon="0.4211459457874298" lat="49.2714805603027344">
        <ele>160.73074340820312</ele>
        <time>2016-09-21T14:47:59.000Z</time>
      </trkpt>
      <trkpt lon="0.4209522604942322" lat="49.2713890075683594">
        <ele>160.61228942871094</ele>
        <time>2016-09-21T14:48:02.000Z</time>
      </trkpt>
      <trkpt lon="0.4208084940910339" lat="49.2713203430175781">
        <ele>160.42193603515625</ele>
        <time>2016-09-21T14:48:04.000Z</time>
      </trkpt>
      <trkpt lon="0.4205935001373291" lat="49.2712211608886719">
        <ele>160.13967895507812</ele>
        <time>2016-09-21T14:48:07.000Z</time>
      </trkpt>
      <trkpt lon="0.4204574823379517" lat="49.2711639404296875">
        <ele>159.82235717773438</ele>
        <time>2016-09-21T14:48:09.000Z</time>
      </trkpt>
      <trkpt lon="0.4202642738819122" lat="49.2710990905761719">
        <ele>159.45741271972656</ele>
        <time>2016-09-21T14:48:11.000Z</time>
      </trkpt>
      <trkpt lon="0.4199957847595215" lat="49.2709960937500000">
        <ele>159.01922607421875</ele>
        <time>2016-09-21T14:48:14.000Z</time>
      </trkpt>
      <trkpt lon="0.4197054505348206" lat="49.2708892822265625">
        <ele>158.62631225585938</ele>
        <time>2016-09-21T14:48:17.000Z</time>
      </trkpt>
      <trkpt lon="0.4195403158664703" lat="49.2708015441894531">
        <ele>158.34922790527344</ele>
        <time>2016-09-21T14:48:19.000Z</time>
      </trkpt>
      <trkpt lon="0.4193133413791656" lat="49.2706947326660156">
        <ele>158.162841796875</ele>
        <time>2016-09-21T14:48:22.000Z</time>
      </trkpt>
      <trkpt lon="0.4191664159297943" lat="49.2706260681152344">
        <ele>158.08584594726562</ele>
        <time>2016-09-21T14:48:24.000Z</time>
      </trkpt>
      <trkpt lon="0.4189406037330627" lat="49.2705383300781250">
        <ele>158.2106170654297</ele>
        <time>2016-09-21T14:48:27.000Z</time>
      </trkpt>
      <trkpt lon="0.4187253415584564" lat="49.2704391479492188">
        <ele>158.41610717773438</ele>
        <time>2016-09-21T14:48:30.000Z</time>
      </trkpt>
      <trkpt lon="0.4185032248497009" lat="49.2703399658203125">
        <ele>158.6856689453125</ele>
        <time>2016-09-21T14:48:33.000Z</time>
      </trkpt>
      <trkpt lon="0.4183638393878937" lat="49.2702713012695312">
        <ele>158.9799041748047</ele>
        <time>2016-09-21T14:48:35.000Z</time>
      </trkpt>
      <trkpt lon="0.4181350171566010" lat="49.2701759338378906">
        <ele>159.2882537841797</ele>
        <time>2016-09-21T14:48:38.000Z</time>
      </trkpt>
      <trkpt lon="0.4179898500442505" lat="49.2701110839843750">
        <ele>159.5375213623047</ele>
        <time>2016-09-21T14:48:40.000Z</time>
      </trkpt>
      <trkpt lon="0.4178490936756134" lat="49.2700576782226562">
        <ele>159.723388671875</ele>
        <time>2016-09-21T14:48:42.000Z</time>
      </trkpt>
      <trkpt lon="0.4176599383354187" lat="49.2699966430664062">
        <ele>159.84811401367188</ele>
        <time>2016-09-21T14:48:45.000Z</time>
      </trkpt>
      <trkpt lon="0.4175187647342682" lat="49.2699356079101562">
        <ele>159.95196533203125</ele>
        <time>2016-09-21T14:48:47.000Z</time>
      </trkpt>
      <trkpt lon="0.4173238873481750" lat="49.2698402404785156">
        <ele>160.1044921875</ele>
        <time>2016-09-21T14:48:50.000Z</time>
      </trkpt>
      <trkpt lon="0.4171707630157471" lat="49.2697830200195312">
        <ele>160.29306030273438</ele>
        <time>2016-09-21T14:48:52.000Z</time>
      </trkpt>
      <trkpt lon="0.4169523119926453" lat="49.2696990966796875">
        <ele>160.5352783203125</ele>
        <time>2016-09-21T14:48:55.000Z</time>
      </trkpt>
      <trkpt lon="0.4168338775634766" lat="49.2696495056152344">
        <ele>160.79409790039062</ele>
        <time>2016-09-21T14:48:57.000Z</time>
      </trkpt>
      <trkpt lon="0.4166439473628998" lat="49.2695617675781250">
        <ele>161.07009887695312</ele>
        <time>2016-09-21T14:49:00.000Z</time>
      </trkpt>
      <trkpt lon="0.4164993762969971" lat="49.2695121765136719">
        <ele>161.2933349609375</ele>
        <time>2016-09-21T14:49:02.000Z</time>
      </trkpt>
      <trkpt lon="0.4163266122341156" lat="49.2694320678710938">
        <ele>161.49301147460938</ele>
        <time>2016-09-21T14:49:05.000Z</time>
      </trkpt>
      <trkpt lon="0.4161765873432159" lat="49.2693824768066406">
        <ele>161.6431121826172</ele>
        <time>2016-09-21T14:49:07.000Z</time>
      </trkpt>
      <trkpt lon="0.4160438179969788" lat="49.2693252563476562">
        <ele>161.7726593017578</ele>
        <time>2016-09-21T14:49:09.000Z</time>
      </trkpt>
      <trkpt lon="0.4158864915370941" lat="49.2692298889160156">
        <ele>161.86441040039062</ele>
        <time>2016-09-21T14:49:12.000Z</time>
      </trkpt>
      <trkpt lon="0.4157660305500031" lat="49.2691688537597656">
        <ele>161.9465789794922</ele>
        <time>2016-09-21T14:49:14.000Z</time>
      </trkpt>
      <trkpt lon="0.4155781865119934" lat="49.2690811157226562">
        <ele>162.0248565673828</ele>
        <time>2016-09-21T14:49:17.000Z</time>
      </trkpt>
      <trkpt lon="0.4153426587581635" lat="49.2689857482910156">
        <ele>162.12039184570312</ele>
        <time>2016-09-21T14:49:20.000Z</time>
      </trkpt>
      <trkpt lon="0.4151360392570496" lat="49.2688789367675781">
        <ele>162.22853088378906</ele>
        <time>2016-09-21T14:49:23.000Z</time>
      </trkpt>
      <trkpt lon="0.4149289429187775" lat="49.2688026428222656">
        <ele>162.33258056640625</ele>
        <time>2016-09-21T14:49:26.000Z</time>
      </trkpt>
      <trkpt lon="0.4147923886775970" lat="49.2687416076660156">
        <ele>162.39004516601562</ele>
        <time>2016-09-21T14:49:28.000Z</time>
      </trkpt>
      <trkpt lon="0.4145542681217194" lat="49.2686500549316406">
        <ele>162.38485717773438</ele>
        <time>2016-09-21T14:49:31.000Z</time>
      </trkpt>
      <trkpt lon="0.4143973588943481" lat="49.2685813903808594">
        <ele>162.32705688476562</ele>
        <time>2016-09-21T14:49:33.000Z</time>
      </trkpt>
      <trkpt lon="0.4141998887062073" lat="49.2684974670410156">
        <ele>162.23004150390625</ele>
        <time>2016-09-21T14:49:36.000Z</time>
      </trkpt>
      <trkpt lon="0.4139615893363953" lat="49.2684059143066406">
        <ele>162.03689575195312</ele>
        <time>2016-09-21T14:49:39.000Z</time>
      </trkpt>
      <trkpt lon="0.4137557148933411" lat="49.2683029174804688">
        <ele>161.76589965820312</ele>
        <time>2016-09-21T14:49:42.000Z</time>
      </trkpt>
      <trkpt lon="0.4135804474353790" lat="49.2682266235351562">
        <ele>161.45993041992188</ele>
        <time>2016-09-21T14:49:44.000Z</time>
      </trkpt>
      <trkpt lon="0.4133435785770416" lat="49.2681274414062500">
        <ele>161.09646606445312</ele>
        <time>2016-09-21T14:49:47.000Z</time>
      </trkpt>
      <trkpt lon="0.4130953848361969" lat="49.2680397033691406">
        <ele>160.76577758789062</ele>
        <time>2016-09-21T14:49:50.000Z</time>
      </trkpt>
      <trkpt lon="0.4128765463829041" lat="49.2679290771484375">
        <ele>160.5531005859375</ele>
        <time>2016-09-21T14:49:53.000Z</time>
      </trkpt>
      <trkpt lon="0.4126448631286621" lat="49.2678298950195312">
        <ele>160.47116088867188</ele>
        <time>2016-09-21T14:49:56.000Z</time>
      </trkpt>
      <trkpt lon="0.4124203026294708" lat="49.2677307128906250">
        <ele>160.49148559570312</ele>
        <time>2016-09-21T14:49:59.000Z</time>
      </trkpt>
      <trkpt lon="0.4121875464916229" lat="49.2676239013671875">
        <ele>160.6199188232422</ele>
        <time>2016-09-21T14:50:02.000Z</time>
      </trkpt>
      <trkpt lon="0.4120164811611176" lat="49.2675514221191406">
        <ele>160.7440185546875</ele>
        <time>2016-09-21T14:50:04.000Z</time>
      </trkpt>
      <trkpt lon="0.4117370247840881" lat="49.2674255371093750">
        <ele>160.8467559814453</ele>
        <time>2016-09-21T14:50:07.000Z</time>
      </trkpt>
      <trkpt lon="0.4114746749401093" lat="49.2673263549804688">
        <ele>160.8896026611328</ele>
        <time>2016-09-21T14:50:10.000Z</time>
      </trkpt>
      <trkpt lon="0.4113442599773407" lat="49.2672576904296875">
        <ele>160.8853302001953</ele>
        <time>2016-09-21T14:50:12.000Z</time>
      </trkpt>
      <trkpt lon="0.4111077189445496" lat="49.2671508789062500">
        <ele>160.82582092285156</ele>
        <time>2016-09-21T14:50:15.000Z</time>
      </trkpt>
      <trkpt lon="0.4109563231468201" lat="49.2671012878417969">
        <ele>160.7417449951172</ele>
        <time>2016-09-21T14:50:17.000Z</time>
      </trkpt>
      <trkpt lon="0.4107268452644348" lat="49.2670021057128906">
        <ele>160.6361083984375</ele>
        <time>2016-09-21T14:50:20.000Z</time>
      </trkpt>
      <trkpt lon="0.4105674028396606" lat="49.2669296264648438">
        <ele>160.54525756835938</ele>
        <time>2016-09-21T14:50:22.000Z</time>
      </trkpt>
      <trkpt lon="0.4103446304798126" lat="49.2668228149414062">
        <ele>160.44564819335938</ele>
        <time>2016-09-21T14:50:25.000Z</time>
      </trkpt>
      <trkpt lon="0.4101779758930206" lat="49.2667541503906250">
        <ele>160.34481811523438</ele>
        <time>2016-09-21T14:50:27.000Z</time>
      </trkpt>
      <trkpt lon="0.4099640846252441" lat="49.2666511535644531">
        <ele>160.22511291503906</ele>
        <time>2016-09-21T14:50:30.000Z</time>
      </trkpt>
      <trkpt lon="0.4098164737224579" lat="49.2665863037109375">
        <ele>160.0823974609375</ele>
        <time>2016-09-21T14:50:32.000Z</time>
      </trkpt>
      <trkpt lon="0.4096731543540955" lat="49.2665367126464844">
        <ele>159.9189910888672</ele>
        <time>2016-09-21T14:50:34.000Z</time>
      </trkpt>
      <trkpt lon="0.4094739854335785" lat="49.2664489746093750">
        <ele>159.7138671875</ele>
        <time>2016-09-21T14:50:37.000Z</time>
      </trkpt>
      <trkpt lon="0.4092461764812469" lat="49.2663574218750000">
        <ele>159.44461059570312</ele>
        <time>2016-09-21T14:50:40.000Z</time>
      </trkpt>
      <trkpt lon="0.4090131521224976" lat="49.2662582397460938">
        <ele>159.10000610351562</ele>
        <time>2016-09-21T14:50:43.000Z</time>
      </trkpt>
      <trkpt lon="0.4088427424430847" lat="49.2661972045898438">
        <ele>158.72422790527344</ele>
        <time>2016-09-21T14:50:45.000Z</time>
      </trkpt>
      <trkpt lon="0.4086058735847473" lat="49.2661132812500000">
        <ele>158.30230712890625</ele>
        <time>2016-09-21T14:50:48.000Z</time>
      </trkpt>
      <trkpt lon="0.4083451032638550" lat="49.2660331726074219">
        <ele>157.86532592773438</ele>
        <time>2016-09-21T14:50:51.000Z</time>
      </trkpt>
      <trkpt lon="0.4081867933273315" lat="49.2660064697265625">
        <ele>157.5060272216797</ele>
        <time>2016-09-21T14:50:53.000Z</time>
      </trkpt>
      <trkpt lon="0.4079781472682953" lat="49.2659492492675781">
        <ele>157.24740600585938</ele>
        <time>2016-09-21T14:50:55.000Z</time>
      </trkpt>
      <trkpt lon="0.4077936708927155" lat="49.2659111022949219">
        <ele>157.0596466064453</ele>
        <time>2016-09-21T14:50:57.000Z</time>
      </trkpt>
      <trkpt lon="0.4076013863086700" lat="49.2658348083496094">
        <ele>156.97158813476562</ele>
        <time>2016-09-21T14:50:59.000Z</time>
      </trkpt>
      <trkpt lon="0.4074502587318420" lat="49.2657470703125000">
        <ele>156.65560913085938</ele>
        <time>2016-09-21T14:51:01.000Z</time>
      </trkpt>
      <trkpt lon="0.4071402251720428" lat="49.2656745910644531">
        <ele>155.97085571289062</ele>
        <time>2016-09-21T14:51:04.000Z</time>
      </trkpt>
      <trkpt lon="0.4069391489028931" lat="49.2656211853027344">
        <ele>155.03427124023438</ele>
        <time>2016-09-21T14:51:06.000Z</time>
      </trkpt>
      <trkpt lon="0.4065705835819244" lat="49.2655296325683594">
        <ele>153.6684112548828</ele>
        <time>2016-09-21T14:51:09.000Z</time>
      </trkpt>
      <trkpt lon="0.4062038064002991" lat="49.2654571533203125">
        <ele>151.96536254882812</ele>
        <time>2016-09-21T14:51:12.000Z</time>
      </trkpt>
      <trkpt lon="0.4057831168174744" lat="49.2654418945312500">
        <ele>150.41957092285156</ele>
        <time>2016-09-21T14:51:15.000Z</time>
      </trkpt>
      <trkpt lon="0.4053025841712952" lat="49.2653884887695312">
        <ele>149.03298950195312</ele>
        <time>2016-09-21T14:51:18.000Z</time>
      </trkpt>
      <trkpt lon="0.4050274789333344" lat="49.2653884887695312">
        <ele>147.8412322998047</ele>
        <time>2016-09-21T14:51:20.000Z</time>
      </trkpt>
      <trkpt lon="0.4046425819396973" lat="49.2653083801269531">
        <ele>146.84999084472656</ele>
        <time>2016-09-21T14:51:23.000Z</time>
      </trkpt>
      <trkpt lon="0.4042035341262817" lat="49.2652282714843750">
        <ele>145.94264221191406</ele>
        <time>2016-09-21T14:51:26.000Z</time>
      </trkpt>
      <trkpt lon="0.4039586186408997" lat="49.2652091979980469">
        <ele>145.1414794921875</ele>
        <time>2016-09-21T14:51:28.000Z</time>
      </trkpt>
      <trkpt lon="0.4032565355300903" lat="49.2651252746582031">
        <ele>144.26644897460938</ele>
        <time>2016-09-21T14:51:32.000Z</time>
      </trkpt>
      <trkpt lon="0.4028749167919159" lat="49.2650718688964844">
        <ele>143.0580596923828</ele>
        <time>2016-09-21T14:51:34.000Z</time>
      </trkpt>
      <trkpt lon="0.4023590981960297" lat="49.2650108337402344">
        <ele>141.654541015625</ele>
        <time>2016-09-21T14:51:37.000Z</time>
      </trkpt>
      <trkpt lon="0.4019913971424103" lat="49.2648735046386719">
        <ele>139.8710479736328</ele>
        <time>2016-09-21T14:51:39.000Z</time>
      </trkpt>
      <trkpt lon="0.4014322161674500" lat="49.2647094726562500">
        <ele>137.3912353515625</ele>
        <time>2016-09-21T14:51:42.000Z</time>
      </trkpt>
      <trkpt lon="0.4009068608283997" lat="49.2645797729492188">
        <ele>134.72201538085938</ele>
        <time>2016-09-21T14:51:45.000Z</time>
      </trkpt>
      <trkpt lon="0.4005638659000397" lat="49.2645072937011719">
        <ele>132.26365661621094</ele>
        <time>2016-09-21T14:51:47.000Z</time>
      </trkpt>
      <trkpt lon="0.4001798927783966" lat="49.2644348144531250">
        <ele>130.045654296875</ele>
        <time>2016-09-21T14:51:49.000Z</time>
      </trkpt>
      <trkpt lon="0.3997899591922760" lat="49.2644119262695312">
        <ele>128.41952514648438</ele>
        <time>2016-09-21T14:51:51.000Z</time>
      </trkpt>
      <trkpt lon="0.3992244303226471" lat="49.2643241882324219">
        <ele>127.31001281738281</ele>
        <time>2016-09-21T14:51:54.000Z</time>
      </trkpt>
      <trkpt lon="0.3988724648952484" lat="49.2642593383789062">
        <ele>126.50849914550781</ele>
        <time>2016-09-21T14:51:56.000Z</time>
      </trkpt>
      <trkpt lon="0.3983380496501923" lat="49.2641677856445312">
        <ele>125.7191390991211</ele>
        <time>2016-09-21T14:51:59.000Z</time>
      </trkpt>
      <trkpt lon="0.3977952301502228" lat="49.2640647888183594">
        <ele>124.7117919921875</ele>
        <time>2016-09-21T14:52:02.000Z</time>
      </trkpt>
      <trkpt lon="0.3972552716732025" lat="49.2640304565429688">
        <ele>123.5479736328125</ele>
        <time>2016-09-21T14:52:05.000Z</time>
      </trkpt>
      <trkpt lon="0.3967024981975555" lat="49.2639770507812500">
        <ele>122.28932189941406</ele>
        <time>2016-09-21T14:52:08.000Z</time>
      </trkpt>
      <trkpt lon="0.3961898386478424" lat="49.2639694213867188">
        <ele>121.0772476196289</ele>
        <time>2016-09-21T14:52:11.000Z</time>
      </trkpt>
      <trkpt lon="0.3958182930946350" lat="49.2639694213867188">
        <ele>119.97469329833984</ele>
        <time>2016-09-21T14:52:13.000Z</time>
      </trkpt>
      <trkpt lon="0.3952321410179138" lat="49.2639656066894531">
        <ele>119.36158752441406</ele>
        <time>2016-09-21T14:52:16.000Z</time>
      </trkpt>
      <trkpt lon="0.3948703706264496" lat="49.2639350891113281">
        <ele>118.74729919433594</ele>
        <time>2016-09-21T14:52:18.000Z</time>
      </trkpt>
      <trkpt lon="0.3944993913173676" lat="49.2638931274414062">
        <ele>117.97398376464844</ele>
        <time>2016-09-21T14:52:20.000Z</time>
      </trkpt>
      <trkpt lon="0.3941322565078735" lat="49.2638320922851562">
        <ele>116.79560852050781</ele>
        <time>2016-09-21T14:52:22.000Z</time>
      </trkpt>
      <trkpt lon="0.3935980796813965" lat="49.2637367248535156">
        <ele>115.23636627197266</ele>
        <time>2016-09-21T14:52:25.000Z</time>
      </trkpt>
      <trkpt lon="0.3932549357414246" lat="49.2636756896972656">
        <ele>113.35731506347656</ele>
        <time>2016-09-21T14:52:27.000Z</time>
      </trkpt>
      <trkpt lon="0.3927280306816101" lat="49.2635536193847656">
        <ele>111.3609390258789</ele>
        <time>2016-09-21T14:52:30.000Z</time>
      </trkpt>
      <trkpt lon="0.3922273814678192" lat="49.2634277343750000">
        <ele>109.4626235961914</ele>
        <time>2016-09-21T14:52:33.000Z</time>
      </trkpt>
      <trkpt lon="0.3918696343898773" lat="49.2633361816406250">
        <ele>107.84515380859375</ele>
        <time>2016-09-21T14:52:35.000Z</time>
      </trkpt>
      <trkpt lon="0.3913462758064270" lat="49.2632141113281250">
        <ele>106.44181060791016</ele>
        <time>2016-09-21T14:52:38.000Z</time>
      </trkpt>
      <trkpt lon="0.3908703625202179" lat="49.2630882263183594">
        <ele>104.9848861694336</ele>
        <time>2016-09-21T14:52:41.000Z</time>
      </trkpt>
      <trkpt lon="0.3904355168342590" lat="49.2629394531250000">
        <ele>103.45329284667969</ele>
        <time>2016-09-21T14:52:44.000Z</time>
      </trkpt>
      <trkpt lon="0.3900091946125031" lat="49.2627677917480469">
        <ele>101.92951965332031</ele>
        <time>2016-09-21T14:52:47.000Z</time>
      </trkpt>
      <trkpt lon="0.3895444273948669" lat="49.2625236511230469">
        <ele>100.16548919677734</ele>
        <time>2016-09-21T14:52:50.000Z</time>
      </trkpt>
      <trkpt lon="0.3890237510204315" lat="49.2623062133789062">
        <ele>98.35379028320312</ele>
        <time>2016-09-21T14:52:53.000Z</time>
      </trkpt>
      <trkpt lon="0.3886642456054688" lat="49.2620468139648438">
        <ele>96.29429626464844</ele>
        <time>2016-09-21T14:52:56.000Z</time>
      </trkpt>
      <trkpt lon="0.3884299695491791" lat="49.2618560791015625">
        <ele>94.23700714111328</ele>
        <time>2016-09-21T14:52:58.000Z</time>
      </trkpt>
      <trkpt lon="0.3882328271865845" lat="49.2616462707519531">
        <ele>92.14115905761719</ele>
        <time>2016-09-21T14:53:00.000Z</time>
      </trkpt>
      <trkpt lon="0.3879940211772919" lat="49.2614707946777344">
        <ele>90.2384262084961</ele>
        <time>2016-09-21T14:53:02.000Z</time>
      </trkpt>
      <trkpt lon="0.3875919580459595" lat="49.2611923217773438">
        <ele>88.04438018798828</ele>
        <time>2016-09-21T14:53:05.000Z</time>
      </trkpt>
      <trkpt lon="0.3873116672039032" lat="49.2610130310058594">
        <ele>85.9849624633789</ele>
        <time>2016-09-21T14:53:07.000Z</time>
      </trkpt>
      <trkpt lon="0.3869994282722473" lat="49.2608642578125000">
        <ele>83.9752426147461</ele>
        <time>2016-09-21T14:53:09.000Z</time>
      </trkpt>
      <trkpt lon="0.3865450322628021" lat="49.2606582641601562">
        <ele>82.10389709472656</ele>
        <time>2016-09-21T14:53:12.000Z</time>
      </trkpt>
      <trkpt lon="0.3862589001655579" lat="49.2605171203613281">
        <ele>80.3809585571289</ele>
        <time>2016-09-21T14:53:14.000Z</time>
      </trkpt>
      <trkpt lon="0.3857050836086273" lat="49.2603225708007812">
        <ele>78.95587158203125</ele>
        <time>2016-09-21T14:53:17.000Z</time>
      </trkpt>
      <trkpt lon="0.3852039277553558" lat="49.2601165771484375">
        <ele>77.51976013183594</ele>
        <time>2016-09-21T14:53:20.000Z</time>
      </trkpt>
      <trkpt lon="0.3849088251590729" lat="49.2599487304687500">
        <ele>76.086181640625</ele>
        <time>2016-09-21T14:53:22.000Z</time>
      </trkpt>
      <trkpt lon="0.3844490647315979" lat="49.2597427368164062">
        <ele>74.84000396728516</ele>
        <time>2016-09-21T14:53:25.000Z</time>
      </trkpt>
      <trkpt lon="0.3840076029300690" lat="49.2595214843750000">
        <ele>73.6132583618164</ele>
        <time>2016-09-21T14:53:28.000Z</time>
      </trkpt>
      <trkpt lon="0.3837334215641022" lat="49.2593879699707031">
        <ele>72.49598693847656</ele>
        <time>2016-09-21T14:53:30.000Z</time>
      </trkpt>
      <trkpt lon="0.3834442496299744" lat="49.2591514587402344">
        <ele>71.42506408691406</ele>
        <time>2016-09-21T14:53:33.000Z</time>
      </trkpt>
      <trkpt lon="0.3831786215305328" lat="49.2588958740234375">
        <ele>70.64029693603516</ele>
        <time>2016-09-21T14:53:36.000Z</time>
      </trkpt>
      <trkpt lon="0.3830353617668152" lat="49.2587127685546875">
        <ele>69.91746520996094</ele>
        <time>2016-09-21T14:53:38.000Z</time>
      </trkpt>
      <trkpt lon="0.3828243911266327" lat="49.2585067749023438">
        <ele>69.26976013183594</ele>
        <time>2016-09-21T14:53:41.000Z</time>
      </trkpt>
      <trkpt lon="0.3826177120208740" lat="49.2583084106445312">
        <ele>68.72528839111328</ele>
        <time>2016-09-21T14:53:44.000Z</time>
      </trkpt>
      <trkpt lon="0.3824577629566193" lat="49.2581024169921875">
        <ele>68.66516876220703</ele>
        <time>2016-09-21T14:53:47.000Z</time>
      </trkpt>
      <trkpt lon="0.3823451101779938" lat="49.2579841613769531">
        <ele>68.72923278808594</ele>
        <time>2016-09-21T14:53:49.000Z</time>
      </trkpt>
      <trkpt lon="0.3822822570800781" lat="49.2578849792480469">
        <ele>68.89054107666016</ele>
        <time>2016-09-21T14:53:51.000Z</time>
      </trkpt>
      <trkpt lon="0.3821395039558411" lat="49.2576980590820312">
        <ele>69.24406433105469</ele>
        <time>2016-09-21T14:53:54.000Z</time>
      </trkpt>
      <trkpt lon="0.3819982707500458" lat="49.2575263977050781">
        <ele>69.7783203125</ele>
        <time>2016-09-21T14:53:57.000Z</time>
      </trkpt>
      <trkpt lon="0.3818897306919098" lat="49.2573738098144531">
        <ele>70.24995422363281</ele>
        <time>2016-09-21T14:54:00.000Z</time>
      </trkpt>
      <trkpt lon="0.3817808628082275" lat="49.2572784423828125">
        <ele>70.6581802368164</ele>
        <time>2016-09-21T14:54:02.000Z</time>
      </trkpt>
      <trkpt lon="0.3817028999328613" lat="49.2571830749511719">
        <ele>71.0156021118164</ele>
        <time>2016-09-21T14:54:04.000Z</time>
      </trkpt>
      <trkpt lon="0.3815556466579437" lat="49.2570381164550781">
        <ele>71.21583557128906</ele>
        <time>2016-09-21T14:54:07.000Z</time>
      </trkpt>
      <trkpt lon="0.3814685344696045" lat="49.2569274902343750">
        <ele>71.27853393554688</ele>
        <time>2016-09-21T14:54:09.000Z</time>
      </trkpt>
      <trkpt lon="0.3813882470130920" lat="49.2567596435546875">
        <ele>71.2842025756836</ele>
        <time>2016-09-21T14:54:12.000Z</time>
      </trkpt>
      <trkpt lon="0.3813420534133911" lat="49.2566871643066406">
        <ele>71.26371765136719</ele>
        <time>2016-09-21T14:54:14.000Z</time>
      </trkpt>
      <trkpt lon="0.3812561333179474" lat="49.2565307617187500">
        <ele>71.21910858154297</ele>
        <time>2016-09-21T14:54:17.000Z</time>
      </trkpt>
      <trkpt lon="0.3810572326183319" lat="49.2563743591308594">
        <ele>71.17130279541016</ele>
        <time>2016-09-21T14:54:20.000Z</time>
      </trkpt>
      <trkpt lon="0.3809987306594849" lat="49.2562828063964844">
        <ele>71.15569305419922</ele>
        <time>2016-09-21T14:54:22.000Z</time>
      </trkpt>
      <trkpt lon="0.3809347748756409" lat="49.2560958862304688">
        <ele>71.20094299316406</ele>
        <time>2016-09-21T14:54:25.000Z</time>
      </trkpt>
      <trkpt lon="0.3808450102806091" lat="49.2559471130371094">
        <ele>71.30654907226562</ele>
        <time>2016-09-21T14:54:28.000Z</time>
      </trkpt>
      <trkpt lon="0.3806914687156677" lat="49.2558250427246094">
        <ele>71.44053649902344</ele>
        <time>2016-09-21T14:54:31.000Z</time>
      </trkpt>
      <trkpt lon="0.3806156814098358" lat="49.2557258605957031">
        <ele>71.63081359863281</ele>
        <time>2016-09-21T14:54:33.000Z</time>
      </trkpt>
      <trkpt lon="0.3805371522903442" lat="49.2556266784667969">
        <ele>71.83137512207031</ele>
        <time>2016-09-21T14:54:35.000Z</time>
      </trkpt>
      <trkpt lon="0.3803939819335938" lat="49.2554817199707031">
        <ele>72.00553894042969</ele>
        <time>2016-09-21T14:54:38.000Z</time>
      </trkpt>
      <trkpt lon="0.3802446126937866" lat="49.2553634643554688">
        <ele>72.14472198486328</ele>
        <time>2016-09-21T14:54:41.000Z</time>
      </trkpt>
      <trkpt lon="0.3801994323730469" lat="49.2552490234375000">
        <ele>72.3039779663086</ele>
        <time>2016-09-21T14:54:43.000Z</time>
      </trkpt>
      <trkpt lon="0.3800929188728333" lat="49.2551460266113281">
        <ele>72.45585632324219</ele>
        <time>2016-09-21T14:54:45.000Z</time>
      </trkpt>
      <trkpt lon="0.3798616528511047" lat="49.2550125122070312">
        <ele>72.621337890625</ele>
        <time>2016-09-21T14:54:48.000Z</time>
      </trkpt>
      <trkpt lon="0.3797208368778229" lat="49.2548637390136719">
        <ele>72.74658203125</ele>
        <time>2016-09-21T14:54:51.000Z</time>
      </trkpt>
      <trkpt lon="0.3796652555465698" lat="49.2547683715820312">
        <ele>72.83981323242188</ele>
        <time>2016-09-21T14:54:53.000Z</time>
      </trkpt>
      <trkpt lon="0.3795595765113831" lat="49.2546653747558594">
        <ele>72.86927032470703</ele>
        <time>2016-09-21T14:54:55.000Z</time>
      </trkpt>
      <trkpt lon="0.3794335722923279" lat="49.2545089721679688">
        <ele>72.83748626708984</ele>
        <time>2016-09-21T14:54:58.000Z</time>
      </trkpt>
      <trkpt lon="0.3792855739593506" lat="49.2543525695800781">
        <ele>72.71131134033203</ele>
        <time>2016-09-21T14:55:01.000Z</time>
      </trkpt>
      <trkpt lon="0.3791658580303192" lat="49.2541999816894531">
        <ele>72.52996826171875</ele>
        <time>2016-09-21T14:55:04.000Z</time>
      </trkpt>
      <trkpt lon="0.3790553212165833" lat="49.2540931701660156">
        <ele>72.39348602294922</ele>
        <time>2016-09-21T14:55:06.000Z</time>
      </trkpt>
      <trkpt lon="0.3789970576763153" lat="49.2539253234863281">
        <ele>72.41374206542969</ele>
        <time>2016-09-21T14:55:09.000Z</time>
      </trkpt>
      <trkpt lon="0.3789543807506561" lat="49.2538299560546875">
        <ele>72.54654693603516</ele>
        <time>2016-09-21T14:55:11.000Z</time>
      </trkpt>
      <trkpt lon="0.3788609206676483" lat="49.2536735534667969">
        <ele>72.8354263305664</ele>
        <time>2016-09-21T14:55:14.000Z</time>
      </trkpt>
      <trkpt lon="0.3787391483783722" lat="49.2535209655761719">
        <ele>73.26664733886719</ele>
        <time>2016-09-21T14:55:17.000Z</time>
      </trkpt>
      <trkpt lon="0.3786108195781708" lat="49.2533798217773438">
        <ele>73.72019958496094</ele>
        <time>2016-09-21T14:55:20.000Z</time>
      </trkpt>
      <trkpt lon="0.3784871101379395" lat="49.2532157897949219">
        <ele>74.04449462890625</ele>
        <time>2016-09-21T14:55:23.000Z</time>
      </trkpt>
      <trkpt lon="0.3783825933933258" lat="49.2530822753906250">
        <ele>74.27528381347656</ele>
        <time>2016-09-21T14:55:26.000Z</time>
      </trkpt>
      <trkpt lon="0.3782655596733093" lat="49.2529296875000000">
        <ele>74.3758316040039</ele>
        <time>2016-09-21T14:55:29.000Z</time>
      </trkpt>
      <trkpt lon="0.3781239986419678" lat="49.2527656555175781">
        <ele>74.33830261230469</ele>
        <time>2016-09-21T14:55:32.000Z</time>
      </trkpt>
      <trkpt lon="0.3779904842376709" lat="49.2526092529296875">
        <ele>74.18135070800781</ele>
        <time>2016-09-21T14:55:35.000Z</time>
      </trkpt>
      <trkpt lon="0.3779006898403168" lat="49.2524299621582031">
        <ele>74.00968170166016</ele>
        <time>2016-09-21T14:55:38.000Z</time>
      </trkpt>
      <trkpt lon="0.3777970075607300" lat="49.2522773742675781">
        <ele>73.86529541015625</ele>
        <time>2016-09-21T14:55:41.000Z</time>
      </trkpt>
      <trkpt lon="0.3776695430278778" lat="49.2521095275878906">
        <ele>73.73834228515625</ele>
        <time>2016-09-21T14:55:44.000Z</time>
      </trkpt>
      <trkpt lon="0.3775390982627869" lat="49.2519226074218750">
        <ele>73.64984130859375</ele>
        <time>2016-09-21T14:55:47.000Z</time>
      </trkpt>
      <trkpt lon="0.3773266971111298" lat="49.2517852783203125">
        <ele>73.42890930175781</ele>
        <time>2016-09-21T14:55:50.000Z</time>
      </trkpt>
      <trkpt lon="0.3773045837879181" lat="49.2516899108886719">
        <ele>73.21126556396484</ele>
        <time>2016-09-21T14:55:52.000Z</time>
      </trkpt>
      <trkpt lon="0.3771558105945587" lat="49.2515373229980469">
        <ele>72.8202133178711</ele>
        <time>2016-09-21T14:55:55.000Z</time>
      </trkpt>
      <trkpt lon="0.3770812749862671" lat="49.2514152526855469">
        <ele>72.37810516357422</ele>
        <time>2016-09-21T14:55:57.000Z</time>
      </trkpt>
      <trkpt lon="0.3768873214721680" lat="49.2512550354003906">
        <ele>71.75521087646484</ele>
        <time>2016-09-21T14:56:00.000Z</time>
      </trkpt>
      <trkpt lon="0.3767587542533875" lat="49.2511367797851562">
        <ele>71.21189880371094</ele>
        <time>2016-09-21T14:56:02.000Z</time>
      </trkpt>
      <trkpt lon="0.3766759335994720" lat="49.2510528564453125">
        <ele>70.604736328125</ele>
        <time>2016-09-21T14:56:05.000Z</time>
      </trkpt>
      <trkpt lon="0.3765689730644226" lat="49.2510147094726562">
        <ele>70.08171844482422</ele>
        <time>2016-09-21T14:56:07.000Z</time>
      </trkpt>
      <trkpt lon="0.3765371441841125" lat="49.2510375976562500">
        <ele>69.57952880859375</ele>
        <time>2016-09-21T14:56:10.000Z</time>
      </trkpt>
      <trkpt lon="0.3764404952526093" lat="49.2507820129394531">
        <ele>69.28160095214844</ele>
        <time>2016-09-21T14:56:15.000Z</time>
      </trkpt>
      <trkpt lon="0.3764024376869202" lat="49.2506027221679688">
        <ele>69.09222412109375</ele>
        <time>2016-09-21T14:56:18.000Z</time>
      </trkpt>
      <trkpt lon="0.3764054477214813" lat="49.2504081726074219">
        <ele>69.00589752197266</ele>
        <time>2016-09-21T14:56:21.000Z</time>
      </trkpt>
      <trkpt lon="0.3763932287693024" lat="49.2502326965332031">
        <ele>69.0154037475586</ele>
        <time>2016-09-21T14:56:24.000Z</time>
      </trkpt>
      <trkpt lon="0.3763568401336670" lat="49.2500419616699219">
        <ele>69.05224609375</ele>
        <time>2016-09-21T14:56:27.000Z</time>
      </trkpt>
      <trkpt lon="0.3763756155967712" lat="49.2498970031738281">
        <ele>69.0865707397461</ele>
        <time>2016-09-21T14:56:29.000Z</time>
      </trkpt>
      <trkpt lon="0.3763606250286102" lat="49.2497100830078125">
        <ele>69.06578063964844</ele>
        <time>2016-09-21T14:56:32.000Z</time>
      </trkpt>
      <trkpt lon="0.3763375580310822" lat="49.2495155334472656">
        <ele>68.93513488769531</ele>
        <time>2016-09-21T14:56:35.000Z</time>
      </trkpt>
      <trkpt lon="0.3763248920440674" lat="49.2493209838867188">
        <ele>68.72747802734375</ele>
        <time>2016-09-21T14:56:38.000Z</time>
      </trkpt>
      <trkpt lon="0.3763673305511475" lat="49.2491188049316406">
        <ele>68.54619598388672</ele>
        <time>2016-09-21T14:56:41.000Z</time>
      </trkpt>
      <trkpt lon="0.3764181137084961" lat="49.2489242553710938">
        <ele>68.4216079711914</ele>
        <time>2016-09-21T14:56:44.000Z</time>
      </trkpt>
      <trkpt lon="0.3764653801918030" lat="49.2488021850585938">
        <ele>68.41664123535156</ele>
        <time>2016-09-21T14:56:46.000Z</time>
      </trkpt>
      <trkpt lon="0.3764799833297729" lat="49.2486724853515625">
        <ele>68.50374603271484</ele>
        <time>2016-09-21T14:56:48.000Z</time>
      </trkpt>
      <trkpt lon="0.3766269981861115" lat="49.2485160827636719">
        <ele>68.829345703125</ele>
        <time>2016-09-21T14:56:51.000Z</time>
      </trkpt>
      <trkpt lon="0.3767119050025940" lat="49.2483444213867188">
        <ele>69.23213958740234</ele>
        <time>2016-09-21T14:56:56.000Z</time>
      </trkpt>
      <trkpt lon="0.3769573271274567" lat="49.2479209899902344">
        <ele>69.44328308105469</ele>
        <time>2016-09-21T14:57:02.000Z</time>
      </trkpt>
      <trkpt lon="0.3770356178283691" lat="49.2478561401367188">
        <ele>69.59355163574219</ele>
        <time>2016-09-21T14:57:04.000Z</time>
      </trkpt>
      <trkpt lon="0.3771634399890900" lat="49.2477874755859375">
        <ele>69.74424743652344</ele>
        <time>2016-09-21T14:57:06.000Z</time>
      </trkpt>
      <trkpt lon="0.3773111104965210" lat="49.2476158142089844">
        <ele>69.62727355957031</ele>
        <time>2016-09-21T14:57:09.000Z</time>
      </trkpt>
      <trkpt lon="0.3774345815181732" lat="49.2475471496582031">
        <ele>69.40621185302734</ele>
        <time>2016-09-21T14:57:11.000Z</time>
      </trkpt>
      <trkpt lon="0.3776406049728394" lat="49.2474670410156250">
        <ele>69.33855438232422</ele>
        <time>2016-09-21T14:57:14.000Z</time>
      </trkpt>
      <trkpt lon="0.3777963519096375" lat="49.2473983764648438">
        <ele>69.30001068115234</ele>
        <time>2016-09-21T14:57:16.000Z</time>
      </trkpt>
      <trkpt lon="0.3779664039611816" lat="49.2473258972167969">
        <ele>69.27241516113281</ele>
        <time>2016-09-21T14:57:19.000Z</time>
      </trkpt>
      <trkpt lon="0.3780746161937714" lat="49.2472534179687500">
        <ele>69.33526611328125</ele>
        <time>2016-09-21T14:57:21.000Z</time>
      </trkpt>
      <trkpt lon="0.3782232403755188" lat="49.2471694946289062">
        <ele>69.42083740234375</ele>
        <time>2016-09-21T14:57:24.000Z</time>
      </trkpt>
      <trkpt lon="0.3784038722515106" lat="49.2471046447753906">
        <ele>69.54127502441406</ele>
        <time>2016-09-21T14:57:27.000Z</time>
      </trkpt>
      <trkpt lon="0.3785125911235809" lat="49.2470588684082031">
        <ele>69.67939758300781</ele>
        <time>2016-09-21T14:57:29.000Z</time>
      </trkpt>
      <trkpt lon="0.3786744475364685" lat="49.2469978332519531">
        <ele>69.84686279296875</ele>
        <time>2016-09-21T14:57:32.000Z</time>
      </trkpt>
      <trkpt lon="0.3788250684738159" lat="49.2468757629394531">
        <ele>69.9936294555664</ele>
        <time>2016-09-21T14:57:35.000Z</time>
      </trkpt>
      <trkpt lon="0.3789617717266083" lat="49.2468147277832031">
        <ele>70.14656829833984</ele>
        <time>2016-09-21T14:57:37.000Z</time>
      </trkpt>
      <trkpt lon="0.3790893554687500" lat="49.2467689514160156">
        <ele>70.26229095458984</ele>
        <time>2016-09-21T14:57:39.000Z</time>
      </trkpt>
      <trkpt lon="0.3792084455490112" lat="49.2467155456542969">
        <ele>70.36320495605469</ele>
        <time>2016-09-21T14:57:41.000Z</time>
      </trkpt>
      <trkpt lon="0.3793944418430328" lat="49.2466545104980469">
        <ele>70.5048828125</ele>
        <time>2016-09-21T14:57:44.000Z</time>
      </trkpt>
      <trkpt lon="0.3795291483402252" lat="49.2466392517089844">
        <ele>70.77925109863281</ele>
        <time>2016-09-21T14:57:46.000Z</time>
      </trkpt>
      <trkpt lon="0.3796319067478180" lat="49.2465744018554688">
        <ele>71.06074523925781</ele>
        <time>2016-09-21T14:57:48.000Z</time>
      </trkpt>
      <trkpt lon="0.3798377513885498" lat="49.2464714050292969">
        <ele>71.37078857421875</ele>
        <time>2016-09-21T14:57:51.000Z</time>
      </trkpt>
      <trkpt lon="0.3799364864826202" lat="49.2463378906250000">
        <ele>71.5451889038086</ele>
        <time>2016-09-21T14:57:54.000Z</time>
      </trkpt>
      <trkpt lon="0.3799344003200531" lat="49.2462463378906250">
        <ele>71.49536895751953</ele>
        <time>2016-09-21T14:57:56.000Z</time>
      </trkpt>
      <trkpt lon="0.3799224197864532" lat="49.2460556030273438">
        <ele>71.06461334228516</ele>
        <time>2016-09-21T14:57:59.000Z</time>
      </trkpt>
      <trkpt lon="0.3799546062946320" lat="49.2459106445312500">
        <ele>70.41947174072266</ele>
        <time>2016-09-21T14:58:02.000Z</time>
      </trkpt>
      <trkpt lon="0.3799738883972168" lat="49.2458229064941406">
        <ele>69.62187957763672</ele>
        <time>2016-09-21T14:58:05.000Z</time>
      </trkpt>
      <trkpt lon="0.3799662590026855" lat="49.2457923889160156">
        <ele>68.93055725097656</ele>
        <time>2016-09-21T14:58:07.000Z</time>
      </trkpt>
      <trkpt lon="0.3799786567687988" lat="49.2457160949707031">
        <ele>68.3677749633789</ele>
        <time>2016-09-21T14:58:10.000Z</time>
      </trkpt>
      <trkpt lon="0.3799947500228882" lat="49.2455978393554688">
        <ele>68.0782241821289</ele>
        <time>2016-09-21T14:58:13.000Z</time>
      </trkpt>
      <trkpt lon="0.3800026476383209" lat="49.2454948425292969">
        <ele>67.98146057128906</ele>
        <time>2016-09-21T14:58:15.000Z</time>
      </trkpt>
      <trkpt lon="0.3800044655799866" lat="49.2453460693359375">
        <ele>67.98870849609375</ele>
        <time>2016-09-21T14:58:18.000Z</time>
      </trkpt>
      <trkpt lon="0.3800262808799744" lat="49.2452125549316406">
        <ele>68.0027084350586</ele>
        <time>2016-09-21T14:58:21.000Z</time>
      </trkpt>
      <trkpt lon="0.3800175487995148" lat="49.2450599670410156">
        <ele>68.01131439208984</ele>
        <time>2016-09-21T14:58:24.000Z</time>
      </trkpt>
      <trkpt lon="0.3800365030765533" lat="49.2449493408203125">
        <ele>68.04324340820312</ele>
        <time>2016-09-21T14:58:26.000Z</time>
      </trkpt>
      <trkpt lon="0.3800376653671265" lat="49.2448043823242188">
        <ele>68.13941192626953</ele>
        <time>2016-09-21T14:58:29.000Z</time>
      </trkpt>
      <trkpt lon="0.3800364136695862" lat="49.2447052001953125">
        <ele>68.27884674072266</ele>
        <time>2016-09-21T14:58:31.000Z</time>
      </trkpt>
      <trkpt lon="0.3800960779190063" lat="49.2445983886718750">
        <ele>68.45584869384766</ele>
        <time>2016-09-21T14:58:33.000Z</time>
      </trkpt>
      <trkpt lon="0.3801015317440033" lat="49.2444534301757812">
        <ele>68.6902084350586</ele>
        <time>2016-09-21T14:58:36.000Z</time>
      </trkpt>
      <trkpt lon="0.3801048994064331" lat="49.2442893981933594">
        <ele>68.96036529541016</ele>
        <time>2016-09-21T14:58:39.000Z</time>
      </trkpt>
      <trkpt lon="0.3800603747367859" lat="49.2442054748535156">
        <ele>69.21786499023438</ele>
        <time>2016-09-21T14:58:41.000Z</time>
      </trkpt>
      <trkpt lon="0.3800786435604095" lat="49.2440719604492188">
        <ele>69.43960571289062</ele>
        <time>2016-09-21T14:58:44.000Z</time>
      </trkpt>
      <trkpt lon="0.3801094889640808" lat="49.2439727783203125">
        <ele>69.60374450683594</ele>
        <time>2016-09-21T14:58:46.000Z</time>
      </trkpt>
      <trkpt lon="0.3801439404487610" lat="49.2438621520996094">
        <ele>69.69608306884766</ele>
        <time>2016-09-21T14:58:48.000Z</time>
      </trkpt>
      <trkpt lon="0.3801195621490479" lat="49.2437629699707031">
        <ele>69.73751068115234</ele>
        <time>2016-09-21T14:58:51.000Z</time>
      </trkpt>
      <trkpt lon="0.3801302015781403" lat="49.2436866760253906">
        <ele>69.72071838378906</ele>
        <time>2016-09-21T14:58:53.000Z</time>
      </trkpt>
      <trkpt lon="0.3800557851791382" lat="49.2436103820800781">
        <ele>69.731689453125</ele>
        <time>2016-09-21T14:58:55.000Z</time>
      </trkpt>
      <trkpt lon="0.3800600469112396" lat="49.2434844970703125">
        <ele>69.75543212890625</ele>
        <time>2016-09-21T14:58:58.000Z</time>
      </trkpt>
      <trkpt lon="0.3800643980503082" lat="49.2434158325195312">
        <ele>69.79360961914062</ele>
        <time>2016-09-21T14:59:00.000Z</time>
      </trkpt>
      <trkpt lon="0.3800768852233887" lat="49.2433433532714844">
        <ele>69.81410217285156</ele>
        <time>2016-09-21T14:59:02.000Z</time>
      </trkpt>
      <trkpt lon="0.3800951838493347" lat="49.2432403564453125">
        <ele>69.8554916381836</ele>
        <time>2016-09-21T14:59:05.000Z</time>
      </trkpt>
      <trkpt lon="0.3801005482673645" lat="49.2431716918945312">
        <ele>69.8773422241211</ele>
        <time>2016-09-21T14:59:07.000Z</time>
      </trkpt>
      <trkpt lon="0.3801089227199554" lat="49.2430572509765625">
        <ele>69.92852020263672</ele>
        <time>2016-09-21T14:59:10.000Z</time>
      </trkpt>
      <trkpt lon="0.3801157772541046" lat="49.2429847717285156">
        <ele>69.99906921386719</ele>
        <time>2016-09-21T14:59:12.000Z</time>
      </trkpt>
      <trkpt lon="0.3801203072071075" lat="49.2428703308105469">
        <ele>70.10517883300781</ele>
        <time>2016-09-21T14:59:15.000Z</time>
      </trkpt>
      <trkpt lon="0.3801289498806000" lat="49.2427673339843750">
        <ele>70.22180938720703</ele>
        <time>2016-09-21T14:59:18.000Z</time>
      </trkpt>
      <trkpt lon="0.3801328837871552" lat="49.2426643371582031">
        <ele>70.34931945800781</ele>
        <time>2016-09-21T14:59:21.000Z</time>
      </trkpt>
      <trkpt lon="0.3801322281360626" lat="49.2425537109375000">
        <ele>70.48027801513672</ele>
        <time>2016-09-21T14:59:24.000Z</time>
      </trkpt>
      <trkpt lon="0.3801426887512207" lat="49.2424468994140625">
        <ele>70.66889953613281</ele>
        <time>2016-09-21T14:59:27.000Z</time>
      </trkpt>
      <trkpt lon="0.3801413476467133" lat="49.2423820495605469">
        <ele>70.9063949584961</ele>
        <time>2016-09-21T14:59:29.000Z</time>
      </trkpt>
      <trkpt lon="0.3801434636116028" lat="49.2423171997070312">
        <ele>71.1951904296875</ele>
        <time>2016-09-21T14:59:31.000Z</time>
      </trkpt>
      <trkpt lon="0.3801793158054352" lat="49.2422218322753906">
        <ele>71.56550598144531</ele>
        <time>2016-09-21T14:59:34.000Z</time>
      </trkpt>
      <trkpt lon="0.3802122771739960" lat="49.2421150207519531">
        <ele>72.02412414550781</ele>
        <time>2016-09-21T14:59:37.000Z</time>
      </trkpt>
      <trkpt lon="0.3802251815795898" lat="49.2420387268066406">
        <ele>72.49748229980469</ele>
        <time>2016-09-21T14:59:39.000Z</time>
      </trkpt>
      <trkpt lon="0.3802434504032135" lat="49.2419319152832031">
        <ele>73.01497650146484</ele>
        <time>2016-09-21T14:59:42.000Z</time>
      </trkpt>
      <trkpt lon="0.3802523314952850" lat="49.2418670654296875">
        <ele>73.53083801269531</ele>
        <time>2016-09-21T14:59:44.000Z</time>
      </trkpt>
      <trkpt lon="0.3802595436573029" lat="49.2418022155761719">
        <ele>74.01451110839844</ele>
        <time>2016-09-21T14:59:46.000Z</time>
      </trkpt>
      <trkpt lon="0.3802820146083832" lat="49.2416954040527344">
        <ele>74.50069427490234</ele>
        <time>2016-09-21T14:59:49.000Z</time>
      </trkpt>
      <trkpt lon="0.3802918791770935" lat="49.2416305541992188">
        <ele>74.95539855957031</ele>
        <time>2016-09-21T14:59:51.000Z</time>
      </trkpt>
      <trkpt lon="0.3802991807460785" lat="49.2415618896484375">
        <ele>75.33558654785156</ele>
        <time>2016-09-21T14:59:53.000Z</time>
      </trkpt>
      <trkpt lon="0.3803164660930634" lat="49.2414512634277344">
        <ele>75.7147216796875</ele>
        <time>2016-09-21T14:59:56.000Z</time>
      </trkpt>
      <trkpt lon="0.3803222477436066" lat="49.2413787841796875">
        <ele>76.06880187988281</ele>
        <time>2016-09-21T14:59:58.000Z</time>
      </trkpt>
      <trkpt lon="0.3803166151046753" lat="49.2412719726562500">
        <ele>76.37886810302734</ele>
        <time>2016-09-21T15:00:01.000Z</time>
      </trkpt>
      <trkpt lon="0.3803173005580902" lat="49.2412109375000000">
        <ele>76.67451477050781</ele>
        <time>2016-09-21T15:00:03.000Z</time>
      </trkpt>
      <trkpt lon="0.3803190588951111" lat="49.2411231994628906">
        <ele>76.98616027832031</ele>
        <time>2016-09-21T15:00:06.000Z</time>
      </trkpt>
      <trkpt lon="0.3803232312202454" lat="49.2410278320312500">
        <ele>77.28923034667969</ele>
        <time>2016-09-21T15:00:09.000Z</time>
      </trkpt>
      <trkpt lon="0.3803284466266632" lat="49.2409286499023438">
        <ele>77.6100082397461</ele>
        <time>2016-09-21T15:00:12.000Z</time>
      </trkpt>
      <trkpt lon="0.3803355693817139" lat="49.2408218383789062">
        <ele>77.93064880371094</ele>
        <time>2016-09-21T15:00:15.000Z</time>
      </trkpt>
      <trkpt lon="0.3803463876247406" lat="49.2407188415527344">
        <ele>78.27816772460938</ele>
        <time>2016-09-21T15:00:18.000Z</time>
      </trkpt>
      <trkpt lon="0.3803566098213196" lat="49.2406501770019531">
        <ele>78.60900115966797</ele>
        <time>2016-09-21T15:00:20.000Z</time>
      </trkpt>
      <trkpt lon="0.3803582787513733" lat="49.2405509948730469">
        <ele>78.943359375</ele>
        <time>2016-09-21T15:00:23.000Z</time>
      </trkpt>
      <trkpt lon="0.3803581893444061" lat="49.2404518127441406">
        <ele>79.28192138671875</ele>
        <time>2016-09-21T15:00:26.000Z</time>
      </trkpt>
      <trkpt lon="0.3803581893444061" lat="49.2403907775878906">
        <ele>79.5870361328125</ele>
        <time>2016-09-21T15:00:28.000Z</time>
      </trkpt>
      <trkpt lon="0.3803573548793793" lat="49.2402992248535156">
        <ele>79.88616180419922</ele>
        <time>2016-09-21T15:00:31.000Z</time>
      </trkpt>
      <trkpt lon="0.3803508281707764" lat="49.2402000427246094">
        <ele>80.2098159790039</ele>
        <time>2016-09-21T15:00:34.000Z</time>
      </trkpt>
      <trkpt lon="0.3803519904613495" lat="49.2401313781738281">
        <ele>80.51307678222656</ele>
        <time>2016-09-21T15:00:36.000Z</time>
      </trkpt>
      <trkpt lon="0.3803555965423584" lat="49.2400321960449219">
        <ele>80.81546783447266</ele>
        <time>2016-09-21T15:00:39.000Z</time>
      </trkpt>
      <trkpt lon="0.3803639709949493" lat="49.2399368286132812">
        <ele>81.15431213378906</ele>
        <time>2016-09-21T15:00:42.000Z</time>
      </trkpt>
      <trkpt lon="0.3804031908512115" lat="49.2398567199707031">
        <ele>81.4972152709961</ele>
        <time>2016-09-21T15:00:45.000Z</time>
      </trkpt>
      <trkpt lon="0.3804109990596771" lat="49.2398033142089844">
        <ele>81.81714630126953</ele>
        <time>2016-09-21T15:00:47.000Z</time>
      </trkpt>
      <trkpt lon="0.3804053068161011" lat="49.2397422790527344">
        <ele>82.14752197265625</ele>
        <time>2016-09-21T15:00:49.000Z</time>
      </trkpt>
      <trkpt lon="0.3804078102111816" lat="49.2396392822265625">
        <ele>82.5025634765625</ele>
        <time>2016-09-21T15:00:52.000Z</time>
      </trkpt>
      <trkpt lon="0.3804294466972351" lat="49.2395362854003906">
        <ele>82.87356567382812</ele>
        <time>2016-09-21T15:00:55.000Z</time>
      </trkpt>
      <trkpt lon="0.3804353773593903" lat="49.2394409179687500">
        <ele>83.2642822265625</ele>
        <time>2016-09-21T15:00:58.000Z</time>
      </trkpt>
      <trkpt lon="0.3804447054862976" lat="49.2393760681152344">
        <ele>83.66633605957031</ele>
        <time>2016-09-21T15:01:00.000Z</time>
      </trkpt>
      <trkpt lon="0.3804797232151031" lat="49.2392730712890625">
        <ele>84.09770202636719</ele>
        <time>2016-09-21T15:01:03.000Z</time>
      </trkpt>
      <trkpt lon="0.3805178701877594" lat="49.2391738891601562">
        <ele>84.5205078125</ele>
        <time>2016-09-21T15:01:06.000Z</time>
      </trkpt>
      <trkpt lon="0.3805493116378784" lat="49.2390670776367188">
        <ele>84.84541320800781</ele>
        <time>2016-09-21T15:01:09.000Z</time>
      </trkpt>
      <trkpt lon="0.3805634677410126" lat="49.2389945983886719">
        <ele>85.0767593383789</ele>
        <time>2016-09-21T15:01:11.000Z</time>
      </trkpt>
      <trkpt lon="0.3805698454380035" lat="49.2388839721679688">
        <ele>85.2440185546875</ele>
        <time>2016-09-21T15:01:14.000Z</time>
      </trkpt>
      <trkpt lon="0.3805597722530365" lat="49.2388191223144531">
        <ele>85.32666015625</ele>
        <time>2016-09-21T15:01:16.000Z</time>
      </trkpt>
      <trkpt lon="0.3805305361747742" lat="49.2387199401855469">
        <ele>85.3387222290039</ele>
        <time>2016-09-21T15:01:19.000Z</time>
      </trkpt>
      <trkpt lon="0.3804908096790314" lat="49.2386627197265625">
        <ele>85.38035583496094</ele>
        <time>2016-09-21T15:01:21.000Z</time>
      </trkpt>
      <trkpt lon="0.3804590404033661" lat="49.2385940551757812">
        <ele>85.45429992675781</ele>
        <time>2016-09-21T15:01:23.000Z</time>
      </trkpt>
      <trkpt lon="0.3804056346416473" lat="49.2384796142578125">
        <ele>85.58605194091797</ele>
        <time>2016-09-21T15:01:26.000Z</time>
      </trkpt>
      <trkpt lon="0.3803809881210327" lat="49.2383995056152344">
        <ele>85.74597930908203</ele>
        <time>2016-09-21T15:01:28.000Z</time>
      </trkpt>
      <trkpt lon="0.3803001940250397" lat="49.2382965087890625">
        <ele>85.99266815185547</ele>
        <time>2016-09-21T15:01:31.000Z</time>
      </trkpt>
      <trkpt lon="0.3802050650119781" lat="49.2382087707519531">
        <ele>86.34563446044922</ele>
        <time>2016-09-21T15:01:34.000Z</time>
      </trkpt>
      <trkpt lon="0.3802035450935364" lat="49.2380943298339844">
        <ele>86.72755432128906</ele>
        <time>2016-09-21T15:01:37.000Z</time>
      </trkpt>
      <trkpt lon="0.3802269399166107" lat="49.2380142211914062">
        <ele>87.07211303710938</ele>
        <time>2016-09-21T15:01:39.000Z</time>
      </trkpt>
      <trkpt lon="0.3803303539752960" lat="49.2378959655761719">
        <ele>87.34121704101562</ele>
        <time>2016-09-21T15:01:42.000Z</time>
      </trkpt>
      <trkpt lon="0.3803954124450684" lat="49.2378234863281250">
        <ele>87.47637939453125</ele>
        <time>2016-09-21T15:01:44.000Z</time>
      </trkpt>
      <trkpt lon="0.3804158568382263" lat="49.2377014160156250">
        <ele>87.51620483398438</ele>
        <time>2016-09-21T15:01:47.000Z</time>
      </trkpt>
      <trkpt lon="0.3803848624229431" lat="49.2376213073730469">
        <ele>87.56869506835938</ele>
        <time>2016-09-21T15:01:49.000Z</time>
      </trkpt>
      <trkpt lon="0.3803313672542572" lat="49.2375144958496094">
        <ele>87.70672607421875</ele>
        <time>2016-09-21T15:01:52.000Z</time>
      </trkpt>
      <trkpt lon="0.3802756369113922" lat="49.2374114990234375">
        <ele>87.98456573486328</ele>
        <time>2016-09-21T15:01:55.000Z</time>
      </trkpt>
      <trkpt lon="0.3802347183227539" lat="49.2373466491699219">
        <ele>88.35884857177734</ele>
        <time>2016-09-21T15:01:57.000Z</time>
      </trkpt>
      <trkpt lon="0.3801918923854828" lat="49.2372817993164062">
        <ele>88.76483154296875</ele>
        <time>2016-09-21T15:01:59.000Z</time>
      </trkpt>
      <trkpt lon="0.3801423609256744" lat="49.2371788024902344">
        <ele>89.19732666015625</ele>
        <time>2016-09-21T15:02:02.000Z</time>
      </trkpt>
      <trkpt lon="0.3800897300243378" lat="49.2370758056640625">
        <ele>89.62928771972656</ele>
        <time>2016-09-21T15:02:05.000Z</time>
      </trkpt>
      <trkpt lon="0.3800401091575623" lat="49.2369689941406250">
        <ele>90.06732177734375</ele>
        <time>2016-09-21T15:02:08.000Z</time>
      </trkpt>
      <trkpt lon="0.3800075650215149" lat="49.2369003295898438">
        <ele>90.5074462890625</ele>
        <time>2016-09-21T15:02:10.000Z</time>
      </trkpt>
      <trkpt lon="0.3799782395362854" lat="49.2368354797363281">
        <ele>90.93759155273438</ele>
        <time>2016-09-21T15:02:12.000Z</time>
      </trkpt>
      <trkpt lon="0.3799276053905487" lat="49.2367324829101562">
        <ele>91.37178802490234</ele>
        <time>2016-09-21T15:02:15.000Z</time>
      </trkpt>
      <trkpt lon="0.3798971772193909" lat="49.2366600036621094">
        <ele>91.76195526123047</ele>
        <time>2016-09-21T15:02:17.000Z</time>
      </trkpt>
      <trkpt lon="0.3798479735851288" lat="49.2365493774414062">
        <ele>92.036376953125</ele>
        <time>2016-09-21T15:02:20.000Z</time>
      </trkpt>
      <trkpt lon="0.3797976970672607" lat="49.2364425659179688">
        <ele>92.23114776611328</ele>
        <time>2016-09-21T15:02:23.000Z</time>
      </trkpt>
      <trkpt lon="0.3797457218170166" lat="49.2363319396972656">
        <ele>92.3509521484375</ele>
        <time>2016-09-21T15:02:26.000Z</time>
      </trkpt>
      <trkpt lon="0.3797090947628021" lat="49.2362632751464844">
        <ele>92.36402130126953</ele>
        <time>2016-09-21T15:02:28.000Z</time>
      </trkpt>
      <trkpt lon="0.3796471655368805" lat="49.2361640930175781">
        <ele>92.31495666503906</ele>
        <time>2016-09-21T15:02:31.000Z</time>
      </trkpt>
      <trkpt lon="0.3796003758907318" lat="49.2360916137695312">
        <ele>92.27299499511719</ele>
        <time>2016-09-21T15:02:33.000Z</time>
      </trkpt>
      <trkpt lon="0.3795188367366791" lat="49.2359771728515625">
        <ele>92.2357177734375</ele>
        <time>2016-09-21T15:02:36.000Z</time>
      </trkpt>
      <trkpt lon="0.3794319033622742" lat="49.2358741760253906">
        <ele>92.21082305908203</ele>
        <time>2016-09-21T15:02:39.000Z</time>
      </trkpt>
      <trkpt lon="0.3793691992759705" lat="49.2358131408691406">
        <ele>92.20402526855469</ele>
        <time>2016-09-21T15:02:41.000Z</time>
      </trkpt>
      <trkpt lon="0.3792965412139893" lat="49.2357482910156250">
        <ele>92.22660827636719</ele>
        <time>2016-09-21T15:02:43.000Z</time>
      </trkpt>
      <trkpt lon="0.3792143166065216" lat="49.2356796264648438">
        <ele>92.27959442138672</ele>
        <time>2016-09-21T15:02:45.000Z</time>
      </trkpt>
      <trkpt lon="0.3791288137435913" lat="49.2356147766113281">
        <ele>92.40918731689453</ele>
        <time>2016-09-21T15:02:47.000Z</time>
      </trkpt>
      <trkpt lon="0.3790566623210907" lat="49.2355499267578125">
        <ele>92.63233184814453</ele>
        <time>2016-09-21T15:02:49.000Z</time>
      </trkpt>
      <trkpt lon="0.3789781928062439" lat="49.2354888916015625">
        <ele>92.93647766113281</ele>
        <time>2016-09-21T15:02:51.000Z</time>
      </trkpt>
      <trkpt lon="0.3788597583770752" lat="49.2354049682617188">
        <ele>93.33423614501953</ele>
        <time>2016-09-21T15:02:54.000Z</time>
      </trkpt>
      <trkpt lon="0.3787496984004974" lat="49.2353248596191406">
        <ele>93.78887176513672</ele>
        <time>2016-09-21T15:02:57.000Z</time>
      </trkpt>
      <trkpt lon="0.3786804676055908" lat="49.2352676391601562">
        <ele>94.20401763916016</ele>
        <time>2016-09-21T15:02:59.000Z</time>
      </trkpt>
      <trkpt lon="0.3786094784736633" lat="49.2352027893066406">
        <ele>94.53938293457031</ele>
        <time>2016-09-21T15:03:01.000Z</time>
      </trkpt>
      <trkpt lon="0.3785219788551331" lat="49.2350959777832031">
        <ele>94.7433090209961</ele>
        <time>2016-09-21T15:03:04.000Z</time>
      </trkpt>
      <trkpt lon="0.3784801363945007" lat="49.2350158691406250">
        <ele>94.76116943359375</ele>
        <time>2016-09-21T15:03:06.000Z</time>
      </trkpt>
      <trkpt lon="0.3784553408622742" lat="49.2349395751953125">
        <ele>94.70891571044922</ele>
        <time>2016-09-21T15:03:08.000Z</time>
      </trkpt>
      <trkpt lon="0.3784356415271759" lat="49.2348670959472656">
        <ele>94.66175842285156</ele>
        <time>2016-09-21T15:03:10.000Z</time>
      </trkpt>
      <trkpt lon="0.3784171938896179" lat="49.2347564697265625">
        <ele>94.64676666259766</ele>
        <time>2016-09-21T15:03:13.000Z</time>
      </trkpt>
      <trkpt lon="0.3784144222736359" lat="49.2346801757812500">
        <ele>94.69270324707031</ele>
        <time>2016-09-21T15:03:15.000Z</time>
      </trkpt>
      <trkpt lon="0.3784232437610626" lat="49.2346038818359375">
        <ele>94.81634521484375</ele>
        <time>2016-09-21T15:03:17.000Z</time>
      </trkpt>
      <trkpt lon="0.3784457743167877" lat="49.2344894409179688">
        <ele>94.93392944335938</ele>
        <time>2016-09-21T15:03:20.000Z</time>
      </trkpt>
      <trkpt lon="0.3784686625003815" lat="49.2343673706054688">
        <ele>95.0223388671875</ele>
        <time>2016-09-21T15:03:23.000Z</time>
      </trkpt>
      <trkpt lon="0.3784773647785187" lat="49.2342491149902344">
        <ele>95.086669921875</ele>
        <time>2016-09-21T15:03:26.000Z</time>
      </trkpt>
      <trkpt lon="0.3784715831279755" lat="49.2341728210449219">
        <ele>95.15383911132812</ele>
        <time>2016-09-21T15:03:28.000Z</time>
      </trkpt>
      <trkpt lon="0.3784585893154144" lat="49.2340545654296875">
        <ele>95.23683166503906</ele>
        <time>2016-09-21T15:03:31.000Z</time>
      </trkpt>
      <trkpt lon="0.3784478008747101" lat="49.2339324951171875">
        <ele>95.33551025390625</ele>
        <time>2016-09-21T15:03:34.000Z</time>
      </trkpt>
      <trkpt lon="0.3784204721450806" lat="49.2338066101074219">
        <ele>95.45703125</ele>
        <time>2016-09-21T15:03:37.000Z</time>
      </trkpt>
      <trkpt lon="0.3783946633338928" lat="49.2337226867675781">
        <ele>95.57959747314453</ele>
        <time>2016-09-21T15:03:39.000Z</time>
      </trkpt>
      <trkpt lon="0.3783465325832367" lat="49.2336006164550781">
        <ele>95.70726013183594</ele>
        <time>2016-09-21T15:03:42.000Z</time>
      </trkpt>
      <trkpt lon="0.3783065676689148" lat="49.2335243225097656">
        <ele>95.87358093261719</ele>
        <time>2016-09-21T15:03:44.000Z</time>
      </trkpt>
      <trkpt lon="0.3782328665256500" lat="49.2334136962890625">
        <ele>96.1919174194336</ele>
        <time>2016-09-21T15:03:47.000Z</time>
      </trkpt>
      <trkpt lon="0.3781629800796509" lat="49.2332992553710938">
        <ele>96.66181945800781</ele>
        <time>2016-09-21T15:03:50.000Z</time>
      </trkpt>
      <trkpt lon="0.3781061470508575" lat="49.2331962585449219">
        <ele>97.25758361816406</ele>
        <time>2016-09-21T15:03:53.000Z</time>
      </trkpt>
      <trkpt lon="0.3780564367771149" lat="49.2330894470214844">
        <ele>97.94803619384766</ele>
        <time>2016-09-21T15:03:56.000Z</time>
      </trkpt>
      <trkpt lon="0.3779835104942322" lat="49.2329940795898438">
        <ele>98.7423095703125</ele>
        <time>2016-09-21T15:03:59.000Z</time>
      </trkpt>
      <trkpt lon="0.3779290318489075" lat="49.2329406738281250">
        <ele>99.48372650146484</ele>
        <time>2016-09-21T15:04:01.000Z</time>
      </trkpt>
      <trkpt lon="0.3778737187385559" lat="49.2328758239746094">
        <ele>100.162109375</ele>
        <time>2016-09-21T15:04:03.000Z</time>
      </trkpt>
      <trkpt lon="0.3777961730957031" lat="49.2327766418457031">
        <ele>100.85225677490234</ele>
        <time>2016-09-21T15:04:06.000Z</time>
      </trkpt>
      <trkpt lon="0.3777063190937042" lat="49.2326774597167969">
        <ele>101.5935287475586</ele>
        <time>2016-09-21T15:04:09.000Z</time>
      </trkpt>
      <trkpt lon="0.3776433765888214" lat="49.2326049804687500">
        <ele>102.28221130371094</ele>
        <time>2016-09-21T15:04:11.000Z</time>
      </trkpt>
      <trkpt lon="0.3774938583374023" lat="49.2324943542480469">
        <ele>103.12144470214844</ele>
        <time>2016-09-21T15:04:14.000Z</time>
      </trkpt>
      <trkpt lon="0.3774435520172119" lat="49.2324218750000000">
        <ele>103.9224624633789</ele>
        <time>2016-09-21T15:04:16.000Z</time>
      </trkpt>
      <trkpt lon="0.3773815333843231" lat="49.2323532104492188">
        <ele>104.66546630859375</ele>
        <time>2016-09-21T15:04:18.000Z</time>
      </trkpt>
      <trkpt lon="0.3772950172424316" lat="49.2322425842285156">
        <ele>105.34776306152344</ele>
        <time>2016-09-21T15:04:21.000Z</time>
      </trkpt>
      <trkpt lon="0.3771958649158478" lat="49.2321395874023438">
        <ele>106.03840637207031</ele>
        <time>2016-09-21T15:04:24.000Z</time>
      </trkpt>
      <trkpt lon="0.3771340847015381" lat="49.2320709228515625">
        <ele>106.51835632324219</ele>
        <time>2016-09-21T15:04:26.000Z</time>
      </trkpt>
      <trkpt lon="0.3770748376846313" lat="49.2319984436035156">
        <ele>106.95973205566406</ele>
        <time>2016-09-21T15:04:28.000Z</time>
      </trkpt>
      <trkpt lon="0.3769873976707458" lat="49.2318992614746094">
        <ele>107.35530090332031</ele>
        <time>2016-09-21T15:04:31.000Z</time>
      </trkpt>
      <trkpt lon="0.3769290745258331" lat="49.2318382263183594">
        <ele>107.6668701171875</ele>
        <time>2016-09-21T15:04:33.000Z</time>
      </trkpt>
      <trkpt lon="0.3768347799777985" lat="49.2317466735839844">
        <ele>107.89228820800781</ele>
        <time>2016-09-21T15:04:36.000Z</time>
      </trkpt>
      <trkpt lon="0.3767824769020081" lat="49.2316818237304688">
        <ele>108.05233001708984</ele>
        <time>2016-09-21T15:04:38.000Z</time>
      </trkpt>
      <trkpt lon="0.3767284154891968" lat="49.2315902709960938">
        <ele>108.13470458984375</ele>
        <time>2016-09-21T15:04:41.000Z</time>
      </trkpt>
      <trkpt lon="0.3766484558582306" lat="49.2314910888671875">
        <ele>108.1497573852539</ele>
        <time>2016-09-21T15:04:44.000Z</time>
      </trkpt>
      <trkpt lon="0.3765658140182495" lat="49.2313957214355469">
        <ele>108.25667572021484</ele>
        <time>2016-09-21T15:04:47.000Z</time>
      </trkpt>
      <trkpt lon="0.3765040338039398" lat="49.2313346862792969">
        <ele>108.42228698730469</ele>
        <time>2016-09-21T15:04:49.000Z</time>
      </trkpt>
      <trkpt lon="0.3764254152774811" lat="49.2312355041503906">
        <ele>108.66682434082031</ele>
        <time>2016-09-21T15:04:52.000Z</time>
      </trkpt>
      <trkpt lon="0.3763711750507355" lat="49.2311668395996094">
        <ele>108.99876403808594</ele>
        <time>2016-09-21T15:04:54.000Z</time>
      </trkpt>
      <trkpt lon="0.3762807250022888" lat="49.2310638427734375">
        <ele>109.4205551147461</ele>
        <time>2016-09-21T15:04:57.000Z</time>
      </trkpt>
      <trkpt lon="0.3762256503105164" lat="49.2309951782226562">
        <ele>109.7504653930664</ele>
        <time>2016-09-21T15:04:59.000Z</time>
      </trkpt>
      <trkpt lon="0.3761373162269592" lat="49.2308959960937500">
        <ele>110.04389953613281</ele>
        <time>2016-09-21T15:05:02.000Z</time>
      </trkpt>
      <trkpt lon="0.3760474622249603" lat="49.2307929992675781">
        <ele>110.3144760131836</ele>
        <time>2016-09-21T15:05:05.000Z</time>
      </trkpt>
      <trkpt lon="0.3759799897670746" lat="49.2307281494140625">
        <ele>110.57713317871094</ele>
        <time>2016-09-21T15:05:07.000Z</time>
      </trkpt>
      <trkpt lon="0.3758838474750519" lat="49.2306175231933594">
        <ele>110.7385025024414</ele>
        <time>2016-09-21T15:05:10.000Z</time>
      </trkpt>
      <trkpt lon="0.3757912218570709" lat="49.2305107116699219">
        <ele>110.82902526855469</ele>
        <time>2016-09-21T15:05:13.000Z</time>
      </trkpt>
      <trkpt lon="0.3757355809211731" lat="49.2304344177246094">
        <ele>110.83321380615234</ele>
        <time>2016-09-21T15:05:15.000Z</time>
      </trkpt>
      <trkpt lon="0.3756432831287384" lat="49.2303352355957031">
        <ele>110.76152038574219</ele>
        <time>2016-09-21T15:05:18.000Z</time>
      </trkpt>
      <trkpt lon="0.3755834400653839" lat="49.2302703857421875">
        <ele>110.6123275756836</ele>
        <time>2016-09-21T15:05:20.000Z</time>
      </trkpt>
      <trkpt lon="0.3755264580249786" lat="49.2302093505859375">
        <ele>110.44316101074219</ele>
        <time>2016-09-21T15:05:22.000Z</time>
      </trkpt>
      <trkpt lon="0.3754718005657196" lat="49.2301483154296875">
        <ele>110.25141906738281</ele>
        <time>2016-09-21T15:05:24.000Z</time>
      </trkpt>
      <trkpt lon="0.3753922581672668" lat="49.2300605773925781">
        <ele>109.98118591308594</ele>
        <time>2016-09-21T15:05:27.000Z</time>
      </trkpt>
      <trkpt lon="0.3752982914447784" lat="49.2299613952636719">
        <ele>109.71141052246094</ele>
        <time>2016-09-21T15:05:30.000Z</time>
      </trkpt>
      <trkpt lon="0.3752318918704987" lat="49.2298927307128906">
        <ele>109.58390045166016</ele>
        <time>2016-09-21T15:05:32.000Z</time>
      </trkpt>
      <trkpt lon="0.3751689493656158" lat="49.2298202514648438">
        <ele>109.58247375488281</ele>
        <time>2016-09-21T15:05:34.000Z</time>
      </trkpt>
      <trkpt lon="0.3750849664211273" lat="49.2297172546386719">
        <ele>109.71543884277344</ele>
        <time>2016-09-21T15:05:37.000Z</time>
      </trkpt>
      <trkpt lon="0.3750365376472473" lat="49.2296562194824219">
        <ele>109.9755859375</ele>
        <time>2016-09-21T15:05:39.000Z</time>
      </trkpt>
      <trkpt lon="0.3749678730964661" lat="49.2295646667480469">
        <ele>110.32054138183594</ele>
        <time>2016-09-21T15:05:42.000Z</time>
      </trkpt>
      <trkpt lon="0.3748998045921326" lat="49.2295074462890625">
        <ele>110.68370056152344</ele>
        <time>2016-09-21T15:05:44.000Z</time>
      </trkpt>
      <trkpt lon="0.3747879862785339" lat="49.2294044494628906">
        <ele>111.1304702758789</ele>
        <time>2016-09-21T15:05:47.000Z</time>
      </trkpt>
      <trkpt lon="0.3746925294399261" lat="49.2292747497558594">
        <ele>111.5703125</ele>
        <time>2016-09-21T15:05:50.000Z</time>
      </trkpt>
      <trkpt lon="0.3746417462825775" lat="49.2292098999023438">
        <ele>112.00764465332031</ele>
        <time>2016-09-21T15:05:52.000Z</time>
      </trkpt>
      <trkpt lon="0.3745424151420593" lat="49.2291336059570312">
        <ele>112.49576568603516</ele>
        <time>2016-09-21T15:05:55.000Z</time>
      </trkpt>
      <trkpt lon="0.3744849860668182" lat="49.2290840148925781">
        <ele>112.9248275756836</ele>
        <time>2016-09-21T15:05:57.000Z</time>
      </trkpt>
      <trkpt lon="0.3744343817234039" lat="49.2290115356445312">
        <ele>113.20684814453125</ele>
        <time>2016-09-21T15:06:00.000Z</time>
      </trkpt>
      <trkpt lon="0.3743660449981689" lat="49.2289314270019531">
        <ele>113.43525695800781</ele>
        <time>2016-09-21T15:06:03.000Z</time>
      </trkpt>
      <trkpt lon="0.3742921352386475" lat="49.2288742065429688">
        <ele>113.66024017333984</ele>
        <time>2016-09-21T15:06:05.000Z</time>
      </trkpt>
      <trkpt lon="0.3742203712463379" lat="49.2288169860839844">
        <ele>113.76429748535156</ele>
        <time>2016-09-21T15:06:07.000Z</time>
      </trkpt>
      <trkpt lon="0.3741269111633301" lat="49.2286987304687500">
        <ele>113.76058197021484</ele>
        <time>2016-09-21T15:06:10.000Z</time>
      </trkpt>
      <trkpt lon="0.3740758001804352" lat="49.2286300659179688">
        <ele>113.76043701171875</ele>
        <time>2016-09-21T15:06:12.000Z</time>
      </trkpt>
      <trkpt lon="0.3739831745624542" lat="49.2285232543945312">
        <ele>113.81867980957031</ele>
        <time>2016-09-21T15:06:15.000Z</time>
      </trkpt>
      <trkpt lon="0.3738777339458466" lat="49.2284164428710938">
        <ele>113.9578628540039</ele>
        <time>2016-09-21T15:06:18.000Z</time>
      </trkpt>
      <trkpt lon="0.3738027215003967" lat="49.2283439636230469">
        <ele>114.17586517333984</ele>
        <time>2016-09-21T15:06:20.000Z</time>
      </trkpt>
      <trkpt lon="0.3736854493618011" lat="49.2282409667968750">
        <ele>114.64381408691406</ele>
        <time>2016-09-21T15:06:23.000Z</time>
      </trkpt>
      <trkpt lon="0.3735986053943634" lat="49.2281341552734375">
        <ele>115.16458892822266</ele>
        <time>2016-09-21T15:06:26.000Z</time>
      </trkpt>
      <trkpt lon="0.3735278546810150" lat="49.2280273437500000">
        <ele>115.5985336303711</ele>
        <time>2016-09-21T15:06:29.000Z</time>
      </trkpt>
      <trkpt lon="0.3734571337699890" lat="49.2279243469238281">
        <ele>115.86802673339844</ele>
        <time>2016-09-21T15:06:32.000Z</time>
      </trkpt>
      <trkpt lon="0.3733913302421570" lat="49.2278137207031250">
        <ele>115.92818450927734</ele>
        <time>2016-09-21T15:06:35.000Z</time>
      </trkpt>
      <trkpt lon="0.3733033835887909" lat="49.2277030944824219">
        <ele>115.65225982666016</ele>
        <time>2016-09-21T15:06:38.000Z</time>
      </trkpt>
      <trkpt lon="0.3732495009899139" lat="49.2276229858398438">
        <ele>115.27644348144531</ele>
        <time>2016-09-21T15:06:40.000Z</time>
      </trkpt>
      <trkpt lon="0.3732096850872040" lat="49.2275390625000000">
        <ele>114.83882141113281</ele>
        <time>2016-09-21T15:06:42.000Z</time>
      </trkpt>
      <trkpt lon="0.3731660246849060" lat="49.2274208068847656">
        <ele>114.48384094238281</ele>
        <time>2016-09-21T15:06:45.000Z</time>
      </trkpt>
      <trkpt lon="0.3731365203857422" lat="49.2273254394531250">
        <ele>114.32301330566406</ele>
        <time>2016-09-21T15:06:47.000Z</time>
      </trkpt>
      <trkpt lon="0.3730838000774384" lat="49.2271919250488281">
        <ele>114.3785400390625</ele>
        <time>2016-09-21T15:06:50.000Z</time>
      </trkpt>
      <trkpt lon="0.3730547130107880" lat="49.2271080017089844">
        <ele>114.4979019165039</ele>
        <time>2016-09-21T15:06:52.000Z</time>
      </trkpt>
      <trkpt lon="0.3730159699916840" lat="49.2269897460937500">
        <ele>114.7384033203125</ele>
        <time>2016-09-21T15:06:55.000Z</time>
      </trkpt>
      <trkpt lon="0.3729464113712311" lat="49.2268753051757812">
        <ele>115.0551528930664</ele>
        <time>2016-09-21T15:06:58.000Z</time>
      </trkpt>
      <trkpt lon="0.3729024827480316" lat="49.2267951965332031">
        <ele>115.3619155883789</ele>
        <time>2016-09-21T15:07:00.000Z</time>
      </trkpt>
      <trkpt lon="0.3728587329387665" lat="49.2266654968261719">
        <ele>115.58952331542969</ele>
        <time>2016-09-21T15:07:03.000Z</time>
      </trkpt>
      <trkpt lon="0.3728143870830536" lat="49.2265434265136719">
        <ele>115.88214111328125</ele>
        <time>2016-09-21T15:07:06.000Z</time>
      </trkpt>
      <trkpt lon="0.3727674484252930" lat="49.2264328002929688">
        <ele>116.21346282958984</ele>
        <time>2016-09-21T15:07:09.000Z</time>
      </trkpt>
      <trkpt lon="0.3727473318576813" lat="49.2263259887695312">
        <ele>116.48527526855469</ele>
        <time>2016-09-21T15:07:12.000Z</time>
      </trkpt>
      <trkpt lon="0.3727164864540100" lat="49.2262382507324219">
        <ele>116.74241638183594</ele>
        <time>2016-09-21T15:07:15.000Z</time>
      </trkpt>
      <trkpt lon="0.3726887404918671" lat="49.2261772155761719">
        <ele>117.00504302978516</ele>
        <time>2016-09-21T15:07:17.000Z</time>
      </trkpt>
      <trkpt lon="0.3726535439491272" lat="49.2260780334472656">
        <ele>117.17057037353516</ele>
        <time>2016-09-21T15:07:20.000Z</time>
      </trkpt>
      <trkpt lon="0.3726317584514618" lat="49.2260131835937500">
        <ele>117.2513198852539</ele>
        <time>2016-09-21T15:07:22.000Z</time>
      </trkpt>
      <trkpt lon="0.3726162612438202" lat="49.2259521484375000">
        <ele>117.28936767578125</ele>
        <time>2016-09-21T15:07:24.000Z</time>
      </trkpt>
      <trkpt lon="0.3725854754447937" lat="49.2258529663085938">
        <ele>117.27149963378906</ele>
        <time>2016-09-21T15:07:27.000Z</time>
      </trkpt>
      <trkpt lon="0.3725371360778809" lat="49.2257652282714844">
        <ele>117.24044036865234</ele>
        <time>2016-09-21T15:07:30.000Z</time>
      </trkpt>
      <trkpt lon="0.3724988996982574" lat="49.2257041931152344">
        <ele>117.2068862915039</ele>
        <time>2016-09-21T15:07:32.000Z</time>
      </trkpt>
      <trkpt lon="0.3724928796291351" lat="49.2255859375000000">
        <ele>117.2215576171875</ele>
        <time>2016-09-21T15:07:35.000Z</time>
      </trkpt>
      <trkpt lon="0.3724553883075714" lat="49.2254753112792969">
        <ele>117.36128234863281</ele>
        <time>2016-09-21T15:07:38.000Z</time>
      </trkpt>
      <trkpt lon="0.3724044263362885" lat="49.2253684997558594">
        <ele>117.6549072265625</ele>
        <time>2016-09-21T15:07:41.000Z</time>
      </trkpt>
      <trkpt lon="0.3723669648170471" lat="49.2252998352050781">
        <ele>118.0252456665039</ele>
        <time>2016-09-21T15:07:43.000Z</time>
      </trkpt>
      <trkpt lon="0.3723149895668030" lat="49.2251968383789062">
        <ele>118.48341369628906</ele>
        <time>2016-09-21T15:07:46.000Z</time>
      </trkpt>
      <trkpt lon="0.3722673058509827" lat="49.2250976562500000">
        <ele>118.96284484863281</ele>
        <time>2016-09-21T15:07:49.000Z</time>
      </trkpt>
      <trkpt lon="0.3722228109836578" lat="49.2250061035156250">
        <ele>119.37176513671875</ele>
        <time>2016-09-21T15:07:52.000Z</time>
      </trkpt>
      <trkpt lon="0.3721875846385956" lat="49.2249374389648438">
        <ele>119.7399673461914</ele>
        <time>2016-09-21T15:07:54.000Z</time>
      </trkpt>
      <trkpt lon="0.3721704185009003" lat="49.2248687744140625">
        <ele>120.09590911865234</ele>
        <time>2016-09-21T15:07:56.000Z</time>
      </trkpt>
      <trkpt lon="0.3721449375152588" lat="49.2247848510742188">
        <ele>120.4480209350586</ele>
        <time>2016-09-21T15:07:59.000Z</time>
      </trkpt>
      <trkpt lon="0.3721280097961426" lat="49.2247276306152344">
        <ele>120.7933120727539</ele>
        <time>2016-09-21T15:08:01.000Z</time>
      </trkpt>
      <trkpt lon="0.3721084594726562" lat="49.2246551513671875">
        <ele>121.1654052734375</ele>
        <time>2016-09-21T15:08:03.000Z</time>
      </trkpt>
      <trkpt lon="0.3720823228359222" lat="49.2245788574218750">
        <ele>121.53230285644531</ele>
        <time>2016-09-21T15:08:05.000Z</time>
      </trkpt>
      <trkpt lon="0.3720473647117615" lat="49.2244682312011719">
        <ele>121.9424057006836</ele>
        <time>2016-09-21T15:08:08.000Z</time>
      </trkpt>
      <trkpt lon="0.3720096647739410" lat="49.2243614196777344">
        <ele>122.3737564086914</ele>
        <time>2016-09-21T15:08:11.000Z</time>
      </trkpt>
      <trkpt lon="0.3719829022884369" lat="49.2242927551269531">
        <ele>122.8199691772461</ele>
        <time>2016-09-21T15:08:13.000Z</time>
      </trkpt>
      <trkpt lon="0.3719558417797089" lat="49.2242279052734375">
        <ele>123.26519775390625</ele>
        <time>2016-09-21T15:08:15.000Z</time>
      </trkpt>
      <trkpt lon="0.3718892037868500" lat="49.2241439819335938">
        <ele>123.74124908447266</ele>
        <time>2016-09-21T15:08:18.000Z</time>
      </trkpt>
      <trkpt lon="0.3718283474445343" lat="49.2240562438964844">
        <ele>124.15299224853516</ele>
        <time>2016-09-21T15:08:21.000Z</time>
      </trkpt>
      <trkpt lon="0.3718000948429108" lat="49.2239799499511719">
        <ele>124.45391845703125</ele>
        <time>2016-09-21T15:08:23.000Z</time>
      </trkpt>
      <trkpt lon="0.3717679083347321" lat="49.2238998413085938">
        <ele>124.66981506347656</ele>
        <time>2016-09-21T15:08:25.000Z</time>
      </trkpt>
      <trkpt lon="0.3716571033000946" lat="49.2238121032714844">
        <ele>124.8208236694336</ele>
        <time>2016-09-21T15:08:28.000Z</time>
      </trkpt>
      <trkpt lon="0.3715890347957611" lat="49.2237586975097656">
        <ele>125.0013656616211</ele>
        <time>2016-09-21T15:08:30.000Z</time>
      </trkpt>
      <trkpt lon="0.3715164661407471" lat="49.2236518859863281">
        <ele>125.24190521240234</ele>
        <time>2016-09-21T15:08:33.000Z</time>
      </trkpt>
      <trkpt lon="0.3715120255947113" lat="49.2235374450683594">
        <ele>125.40284729003906</ele>
        <time>2016-09-21T15:08:36.000Z</time>
      </trkpt>
      <trkpt lon="0.3715028762817383" lat="49.2234649658203125">
        <ele>125.53910827636719</ele>
        <time>2016-09-21T15:08:38.000Z</time>
      </trkpt>
      <trkpt lon="0.3715039789676666" lat="49.2233505249023438">
        <ele>125.5746841430664</ele>
        <time>2016-09-21T15:08:41.000Z</time>
      </trkpt>
      <trkpt lon="0.3714752197265625" lat="49.2232475280761719">
        <ele>125.60453033447266</ele>
        <time>2016-09-21T15:08:44.000Z</time>
      </trkpt>
      <trkpt lon="0.3714503347873688" lat="49.2231788635253906">
        <ele>125.6427230834961</ele>
        <time>2016-09-21T15:08:46.000Z</time>
      </trkpt>
      <trkpt lon="0.3714195787906647" lat="49.2230796813964844">
        <ele>125.9010238647461</ele>
        <time>2016-09-21T15:08:49.000Z</time>
      </trkpt>
      <trkpt lon="0.3713887929916382" lat="49.2230148315429688">
        <ele>126.29642486572266</ele>
        <time>2016-09-21T15:08:51.000Z</time>
      </trkpt>
      <trkpt lon="0.3713244199752808" lat="49.2229156494140625">
        <ele>126.94255065917969</ele>
        <time>2016-09-21T15:08:54.000Z</time>
      </trkpt>
      <trkpt lon="0.3712826967239380" lat="49.2227973937988281">
        <ele>127.5602035522461</ele>
        <time>2016-09-21T15:08:57.000Z</time>
      </trkpt>
      <trkpt lon="0.3712587058544159" lat="49.2227210998535156">
        <ele>128.11685180664062</ele>
        <time>2016-09-21T15:08:59.000Z</time>
      </trkpt>
      <trkpt lon="0.3712092638015747" lat="49.2226257324218750">
        <ele>128.59915161132812</ele>
        <time>2016-09-21T15:09:02.000Z</time>
      </trkpt>
      <trkpt lon="0.3711795806884766" lat="49.2225723266601562">
        <ele>129.00694274902344</ele>
        <time>2016-09-21T15:09:04.000Z</time>
      </trkpt>
      <trkpt lon="0.3711421191692352" lat="49.2225036621093750">
        <ele>129.28094482421875</ele>
        <time>2016-09-21T15:09:06.000Z</time>
      </trkpt>
      <trkpt lon="0.3710823655128479" lat="49.2223968505859375">
        <ele>129.58425903320312</ele>
        <time>2016-09-21T15:09:09.000Z</time>
      </trkpt>
      <trkpt lon="0.3710445463657379" lat="49.2223281860351562">
        <ele>129.91839599609375</ele>
        <time>2016-09-21T15:09:11.000Z</time>
      </trkpt>
      <trkpt lon="0.3710026443004608" lat="49.2222557067871094">
        <ele>130.2677459716797</ele>
        <time>2016-09-21T15:09:13.000Z</time>
      </trkpt>
      <trkpt lon="0.3709397912025452" lat="49.2221755981445312">
        <ele>130.6785888671875</ele>
        <time>2016-09-21T15:09:15.000Z</time>
      </trkpt>
      <trkpt lon="0.3708505928516388" lat="49.2220497131347656">
        <ele>131.1874237060547</ele>
        <time>2016-09-21T15:09:18.000Z</time>
      </trkpt>
      <trkpt lon="0.3707822859287262" lat="49.2219848632812500">
        <ele>131.69351196289062</ele>
        <time>2016-09-21T15:09:20.000Z</time>
      </trkpt>
      <trkpt lon="0.3706413805484772" lat="49.2219238281250000">
        <ele>132.3511962890625</ele>
        <time>2016-09-21T15:09:23.000Z</time>
      </trkpt>
      <trkpt lon="0.3705357015132904" lat="49.2218627929687500">
        <ele>133.0840606689453</ele>
        <time>2016-09-21T15:09:26.000Z</time>
      </trkpt>
      <trkpt lon="0.3704517185688019" lat="49.2217750549316406">
        <ele>133.83505249023438</ele>
        <time>2016-09-21T15:09:29.000Z</time>
      </trkpt>
      <trkpt lon="0.3704077005386353" lat="49.2216949462890625">
        <ele>134.50750732421875</ele>
        <time>2016-09-21T15:09:32.000Z</time>
      </trkpt>
      <trkpt lon="0.3703542947769165" lat="49.2216415405273438">
        <ele>135.1208038330078</ele>
        <time>2016-09-21T15:09:34.000Z</time>
      </trkpt>
      <trkpt lon="0.3702859878540039" lat="49.2215652465820312">
        <ele>135.65658569335938</ele>
        <time>2016-09-21T15:09:37.000Z</time>
      </trkpt>
      <trkpt lon="0.3702209591865540" lat="49.2215042114257812">
        <ele>136.15428161621094</ele>
        <time>2016-09-21T15:09:40.000Z</time>
      </trkpt>
      <trkpt lon="0.3701294958591461" lat="49.2214508056640625">
        <ele>136.64920043945312</ele>
        <time>2016-09-21T15:09:43.000Z</time>
      </trkpt>
      <trkpt lon="0.3700727522373199" lat="49.2214088439941406">
        <ele>137.17160034179688</ele>
        <time>2016-09-21T15:09:45.000Z</time>
      </trkpt>
      <trkpt lon="0.3699834048748016" lat="49.2213516235351562">
        <ele>137.69790649414062</ele>
        <time>2016-09-21T15:09:48.000Z</time>
      </trkpt>
      <trkpt lon="0.3699159324169159" lat="49.2213096618652344">
        <ele>138.1173095703125</ele>
        <time>2016-09-21T15:09:50.000Z</time>
      </trkpt>
      <trkpt lon="0.3698368966579437" lat="49.2212638854980469">
        <ele>138.46804809570312</ele>
        <time>2016-09-21T15:09:52.000Z</time>
      </trkpt>
      <trkpt lon="0.3696949779987335" lat="49.2211761474609375">
        <ele>138.7825469970703</ele>
        <time>2016-09-21T15:09:55.000Z</time>
      </trkpt>
      <trkpt lon="0.3696410059928894" lat="49.2211227416992188">
        <ele>139.05276489257812</ele>
        <time>2016-09-21T15:09:57.000Z</time>
      </trkpt>
      <trkpt lon="0.3695815801620483" lat="49.2210540771484375">
        <ele>139.2650909423828</ele>
        <time>2016-09-21T15:10:00.000Z</time>
      </trkpt>
      <trkpt lon="0.3695315420627594" lat="49.2210121154785156">
        <ele>139.42886352539062</ele>
        <time>2016-09-21T15:10:02.000Z</time>
      </trkpt>
      <trkpt lon="0.3694271743297577" lat="49.2209358215332031">
        <ele>139.53121948242188</ele>
        <time>2016-09-21T15:10:05.000Z</time>
      </trkpt>
      <trkpt lon="0.3693131804466248" lat="49.2208442687988281">
        <ele>139.5263214111328</ele>
        <time>2016-09-21T15:10:08.000Z</time>
      </trkpt>
      <trkpt lon="0.3692514300346375" lat="49.2207756042480469">
        <ele>139.49606323242188</ele>
        <time>2016-09-21T15:10:10.000Z</time>
      </trkpt>
      <trkpt lon="0.3691328167915344" lat="49.2206840515136719">
        <ele>139.45143127441406</ele>
        <time>2016-09-21T15:10:13.000Z</time>
      </trkpt>
      <trkpt lon="0.3690066635608673" lat="49.2206039428710938">
        <ele>139.44366455078125</ele>
        <time>2016-09-21T15:10:16.000Z</time>
      </trkpt>
      <trkpt lon="0.3689373433589935" lat="49.2205619812011719">
        <ele>139.46424865722656</ele>
        <time>2016-09-21T15:10:18.000Z</time>
      </trkpt>
      <trkpt lon="0.3688229322433472" lat="49.2205085754394531">
        <ele>139.53564453125</ele>
        <time>2016-09-21T15:10:21.000Z</time>
      </trkpt>
      <trkpt lon="0.3687505125999451" lat="49.2204780578613281">
        <ele>139.60873413085938</ele>
        <time>2016-09-21T15:10:23.000Z</time>
      </trkpt>
      <trkpt lon="0.3686429858207703" lat="49.2204017639160156">
        <ele>139.67030334472656</ele>
        <time>2016-09-21T15:10:26.000Z</time>
      </trkpt>
      <trkpt lon="0.3685849606990814" lat="49.2203407287597656">
        <ele>139.68252563476562</ele>
        <time>2016-09-21T15:10:28.000Z</time>
      </trkpt>
      <trkpt lon="0.3685457408428192" lat="49.2202873229980469">
        <ele>139.66885375976562</ele>
        <time>2016-09-21T15:10:30.000Z</time>
      </trkpt>
      <trkpt lon="0.3684911727905273" lat="49.2202072143554688">
        <ele>139.6239776611328</ele>
        <time>2016-09-21T15:10:33.000Z</time>
      </trkpt>
      <trkpt lon="0.3684548735618591" lat="49.2201538085937500">
        <ele>139.56056213378906</ele>
        <time>2016-09-21T15:10:35.000Z</time>
      </trkpt>
      <trkpt lon="0.3683652877807617" lat="49.2200317382812500">
        <ele>139.44508361816406</ele>
        <time>2016-09-21T15:10:38.000Z</time>
      </trkpt>
      <trkpt lon="0.3683185875415802" lat="49.2199592590332031">
        <ele>139.3496551513672</ele>
        <time>2016-09-21T15:10:40.000Z</time>
      </trkpt>
      <trkpt lon="0.3681772649288177" lat="49.2198143005371094">
        <ele>139.38478088378906</ele>
        <time>2016-09-21T15:10:43.000Z</time>
      </trkpt>
      <trkpt lon="0.3681129813194275" lat="49.2197265625000000">
        <ele>139.50265502929688</ele>
        <time>2016-09-21T15:10:45.000Z</time>
      </trkpt>
      <trkpt lon="0.3680486083030701" lat="49.2196464538574219">
        <ele>139.6891632080078</ele>
        <time>2016-09-21T15:10:47.000Z</time>
      </trkpt>
      <trkpt lon="0.3679924607276917" lat="49.2195816040039062">
        <ele>139.96878051757812</ele>
        <time>2016-09-21T15:10:49.000Z</time>
      </trkpt>
      <trkpt lon="0.3679434359073639" lat="49.2194938659667969">
        <ele>140.2796630859375</ele>
        <time>2016-09-21T15:10:52.000Z</time>
      </trkpt>
      <trkpt lon="0.3678891062736511" lat="49.2194137573242188">
        <ele>140.50526428222656</ele>
        <time>2016-09-21T15:10:55.000Z</time>
      </trkpt>
      <trkpt lon="0.3678533136844635" lat="49.2193679809570312">
        <ele>140.6855010986328</ele>
        <time>2016-09-21T15:10:57.000Z</time>
      </trkpt>
      <trkpt lon="0.3678157627582550" lat="49.2193183898925781">
        <ele>140.8311309814453</ele>
        <time>2016-09-21T15:10:59.000Z</time>
      </trkpt>
      <trkpt lon="0.3677554130554199" lat="49.2192459106445312">
        <ele>140.9598388671875</ele>
        <time>2016-09-21T15:11:02.000Z</time>
      </trkpt>
      <trkpt lon="0.3677411675453186" lat="49.2191734313964844">
        <ele>141.07131958007812</ele>
        <time>2016-09-21T15:11:05.000Z</time>
      </trkpt>
      <trkpt lon="0.3677231371402740" lat="49.2191200256347656">
        <ele>141.18826293945312</ele>
        <time>2016-09-21T15:11:07.000Z</time>
      </trkpt>
      <trkpt lon="0.3676917850971222" lat="49.2190589904785156">
        <ele>141.33413696289062</ele>
        <time>2016-09-21T15:11:09.000Z</time>
      </trkpt>
      <trkpt lon="0.3676338791847229" lat="49.2189636230468750">
        <ele>141.5264129638672</ele>
        <time>2016-09-21T15:11:12.000Z</time>
      </trkpt>
      <trkpt lon="0.3675689995288849" lat="49.2188758850097656">
        <ele>141.73904418945312</ele>
        <time>2016-09-21T15:11:15.000Z</time>
      </trkpt>
      <trkpt lon="0.3675239980220795" lat="49.2188186645507812">
        <ele>141.94677734375</ele>
        <time>2016-09-21T15:11:17.000Z</time>
      </trkpt>
      <trkpt lon="0.3674866855144501" lat="49.2187500000000000">
        <ele>142.15249633789062</ele>
        <time>2016-09-21T15:11:19.000Z</time>
      </trkpt>
      <trkpt lon="0.3674374818801880" lat="49.2186851501464844">
        <ele>142.36453247070312</ele>
        <time>2016-09-21T15:11:21.000Z</time>
      </trkpt>
      <trkpt lon="0.3673547506332397" lat="49.2185859680175781">
        <ele>142.5888214111328</ele>
        <time>2016-09-21T15:11:24.000Z</time>
      </trkpt>
      <trkpt lon="0.3672774732112885" lat="49.2185058593750000">
        <ele>142.83261108398438</ele>
        <time>2016-09-21T15:11:27.000Z</time>
      </trkpt>
      <trkpt lon="0.3671940863132477" lat="49.2184371948242188">
        <ele>143.10414123535156</ele>
        <time>2016-09-21T15:11:30.000Z</time>
      </trkpt>
      <trkpt lon="0.3671255111694336" lat="49.2183914184570312">
        <ele>143.36668395996094</ele>
        <time>2016-09-21T15:11:32.000Z</time>
      </trkpt>
      <trkpt lon="0.3670242726802826" lat="49.2183113098144531">
        <ele>143.6212921142578</ele>
        <time>2016-09-21T15:11:35.000Z</time>
      </trkpt>
      <trkpt lon="0.3669343292713165" lat="49.2182350158691406">
        <ele>143.82522583007812</ele>
        <time>2016-09-21T15:11:38.000Z</time>
      </trkpt>
      <trkpt lon="0.3668031394481659" lat="49.2181625366210938">
        <ele>143.98565673828125</ele>
        <time>2016-09-21T15:11:40.000Z</time>
      </trkpt>
      <trkpt lon="0.3666959404945374" lat="49.2181205749511719">
        <ele>144.10414123535156</ele>
        <time>2016-09-21T15:11:42.000Z</time>
      </trkpt>
      <trkpt lon="0.3666098713874817" lat="49.2180709838867188">
        <ele>144.21243286132812</ele>
        <time>2016-09-21T15:11:44.000Z</time>
      </trkpt>
      <trkpt lon="0.3664931952953339" lat="49.2180023193359375">
        <ele>144.30935668945312</ele>
        <time>2016-09-21T15:11:47.000Z</time>
      </trkpt>
      <trkpt lon="0.3664232790470123" lat="49.2179718017578125">
        <ele>144.3972625732422</ele>
        <time>2016-09-21T15:11:49.000Z</time>
      </trkpt>
      <trkpt lon="0.3663089573383331" lat="49.2179069519042969">
        <ele>144.494140625</ele>
        <time>2016-09-21T15:11:52.000Z</time>
      </trkpt>
      <trkpt lon="0.3661839663982391" lat="49.2178344726562500">
        <ele>144.60719299316406</ele>
        <time>2016-09-21T15:11:55.000Z</time>
      </trkpt>
      <trkpt lon="0.3661060333251953" lat="49.2177772521972656">
        <ele>144.7129669189453</ele>
        <time>2016-09-21T15:11:57.000Z</time>
      </trkpt>
      <trkpt lon="0.3660258948802948" lat="49.2177238464355469">
        <ele>144.79580688476562</ele>
        <time>2016-09-21T15:11:59.000Z</time>
      </trkpt>
      <trkpt lon="0.3659432530403137" lat="49.2176666259765625">
        <ele>144.87081909179688</ele>
        <time>2016-09-21T15:12:01.000Z</time>
      </trkpt>
      <trkpt lon="0.3658246397972107" lat="49.2175827026367188">
        <ele>144.92874145507812</ele>
        <time>2016-09-21T15:12:04.000Z</time>
      </trkpt>
      <trkpt lon="0.3656962215900421" lat="49.2175102233886719">
        <ele>144.9954376220703</ele>
        <time>2016-09-21T15:12:07.000Z</time>
      </trkpt>
      <trkpt lon="0.3655648827552795" lat="49.2174339294433594">
        <ele>145.1284637451172</ele>
        <time>2016-09-21T15:12:10.000Z</time>
      </trkpt>
      <trkpt lon="0.3654835820198059" lat="49.2173843383789062">
        <ele>145.3019561767578</ele>
        <time>2016-09-21T15:12:12.000Z</time>
      </trkpt>
      <trkpt lon="0.3653735220432281" lat="49.2173004150390625">
        <ele>145.52935791015625</ele>
        <time>2016-09-21T15:12:15.000Z</time>
      </trkpt>
      <trkpt lon="0.3652594387531281" lat="49.2172164916992188">
        <ele>145.7968292236328</ele>
        <time>2016-09-21T15:12:18.000Z</time>
      </trkpt>
      <trkpt lon="0.3651731908321381" lat="49.2171707153320312">
        <ele>146.05044555664062</ele>
        <time>2016-09-21T15:12:20.000Z</time>
      </trkpt>
      <trkpt lon="0.3650481402873993" lat="49.2170982360839844">
        <ele>146.24087524414062</ele>
        <time>2016-09-21T15:12:23.000Z</time>
      </trkpt>
      <trkpt lon="0.3649241030216217" lat="49.2170219421386719">
        <ele>146.39488220214844</ele>
        <time>2016-09-21T15:12:26.000Z</time>
      </trkpt>
      <trkpt lon="0.3648370802402496" lat="49.2169723510742188">
        <ele>146.49954223632812</ele>
        <time>2016-09-21T15:12:28.000Z</time>
      </trkpt>
      <trkpt lon="0.3647055625915527" lat="49.2168884277343750">
        <ele>146.57723999023438</ele>
        <time>2016-09-21T15:12:31.000Z</time>
      </trkpt>
      <trkpt lon="0.3645777404308319" lat="49.2168121337890625">
        <ele>146.6555633544922</ele>
        <time>2016-09-21T15:12:34.000Z</time>
      </trkpt>
      <trkpt lon="0.3644542098045349" lat="49.2167320251464844">
        <ele>146.73828125</ele>
        <time>2016-09-21T15:12:37.000Z</time>
      </trkpt>
      <trkpt lon="0.3643243610858917" lat="49.2166557312011719">
        <ele>146.8232421875</ele>
        <time>2016-09-21T15:12:40.000Z</time>
      </trkpt>
      <trkpt lon="0.3641986250877380" lat="49.2165870666503906">
        <ele>146.896484375</ele>
        <time>2016-09-21T15:12:43.000Z</time>
      </trkpt>
      <trkpt lon="0.3640763461589813" lat="49.2165184020996094">
        <ele>146.94921875</ele>
        <time>2016-09-21T15:12:46.000Z</time>
      </trkpt>
      <trkpt lon="0.3639936149120331" lat="49.2164726257324219">
        <ele>146.984375</ele>
        <time>2016-09-21T15:12:48.000Z</time>
      </trkpt>
      <trkpt lon="0.3639095425605774" lat="49.2164382934570312">
        <ele>147.0</ele>
        <time>2016-09-21T15:12:50.000Z</time>
      </trkpt>
      <trkpt lon="0.3633193671703339" lat="49.2161598205566406">
        <ele>147.0</ele>
        <time>2016-09-21T15:13:03.000Z</time>
      </trkpt>
      <trkpt lon="0.3626544475555420" lat="49.2159271240234375">
        <ele>147.0</ele>
        <time>2016-09-21T15:13:16.000Z</time>
      </trkpt>
      <trkpt lon="0.3623363375663757" lat="49.2158317565917969">
        <ele>147.00045776367188</ele>
        <time>2016-09-21T15:13:22.000Z</time>
      </trkpt>
      <trkpt lon="0.3622457385063171" lat="49.2158012390136719">
        <ele>147.0213623046875</ele>
        <time>2016-09-21T15:13:24.000Z</time>
      </trkpt>
      <trkpt lon="0.3621048331260681" lat="49.2157516479492188">
        <ele>147.0795135498047</ele>
        <time>2016-09-21T15:13:27.000Z</time>
      </trkpt>
      <trkpt lon="0.3620113730430603" lat="49.2157211303710938">
        <ele>147.16378784179688</ele>
        <time>2016-09-21T15:13:29.000Z</time>
      </trkpt>
      <trkpt lon="0.3618718087673187" lat="49.2156753540039062">
        <ele>147.29808044433594</ele>
        <time>2016-09-21T15:13:32.000Z</time>
      </trkpt>
      <trkpt lon="0.3617196083068848" lat="49.2156219482421875">
        <ele>147.4950408935547</ele>
        <time>2016-09-21T15:13:35.000Z</time>
      </trkpt>
      <trkpt lon="0.3615647852420807" lat="49.2155685424804688">
        <ele>147.7699432373047</ele>
        <time>2016-09-21T15:13:38.000Z</time>
      </trkpt>
      <trkpt lon="0.3614617884159088" lat="49.2155265808105469">
        <ele>148.08583068847656</ele>
        <time>2016-09-21T15:13:40.000Z</time>
      </trkpt>
      <trkpt lon="0.3613065481185913" lat="49.2154731750488281">
        <ele>148.48171997070312</ele>
        <time>2016-09-21T15:13:43.000Z</time>
      </trkpt>
      <trkpt lon="0.3612011969089508" lat="49.2154388427734375">
        <ele>148.8975372314453</ele>
        <time>2016-09-21T15:13:45.000Z</time>
      </trkpt>
      <trkpt lon="0.3610424399375916" lat="49.2153854370117188">
        <ele>149.34957885742188</ele>
        <time>2016-09-21T15:13:48.000Z</time>
      </trkpt>
      <trkpt lon="0.3609340488910675" lat="49.2153472900390625">
        <ele>149.7687225341797</ele>
        <time>2016-09-21T15:13:50.000Z</time>
      </trkpt>
      <trkpt lon="0.3607750535011292" lat="49.2152938842773438">
        <ele>150.1869659423828</ele>
        <time>2016-09-21T15:13:53.000Z</time>
      </trkpt>
      <trkpt lon="0.3606750667095184" lat="49.2152557373046875">
        <ele>150.53500366210938</ele>
        <time>2016-09-21T15:13:55.000Z</time>
      </trkpt>
      <trkpt lon="0.3605309724807739" lat="49.2151985168457031">
        <ele>150.85975646972656</ele>
        <time>2016-09-21T15:13:58.000Z</time>
      </trkpt>
      <trkpt lon="0.3603820204734802" lat="49.2151451110839844">
        <ele>151.1248016357422</ele>
        <time>2016-09-21T15:14:01.000Z</time>
      </trkpt>
      <trkpt lon="0.3602750599384308" lat="49.2151069641113281">
        <ele>151.3493194580078</ele>
        <time>2016-09-21T15:14:03.000Z</time>
      </trkpt>
      <trkpt lon="0.3601701259613037" lat="49.2150688171386719">
        <ele>151.52133178710938</ele>
        <time>2016-09-21T15:14:05.000Z</time>
      </trkpt>
      <trkpt lon="0.3600677847862244" lat="49.2150344848632812">
        <ele>151.67562866210938</ele>
        <time>2016-09-21T15:14:07.000Z</time>
      </trkpt>
      <trkpt lon="0.3599151372909546" lat="49.2149848937988281">
        <ele>151.78109741210938</ele>
        <time>2016-09-21T15:14:10.000Z</time>
      </trkpt>
      <trkpt lon="0.3598135709762573" lat="49.2149543762207031">
        <ele>151.82681274414062</ele>
        <time>2016-09-21T15:14:12.000Z</time>
      </trkpt>
      <trkpt lon="0.3597102165222168" lat="49.2149162292480469">
        <ele>151.83163452148438</ele>
        <time>2016-09-21T15:14:14.000Z</time>
      </trkpt>
      <trkpt lon="0.3595529794692993" lat="49.2148590087890625">
        <ele>151.79612731933594</ele>
        <time>2016-09-21T15:14:17.000Z</time>
      </trkpt>
      <trkpt lon="0.3593928813934326" lat="49.2148017883300781">
        <ele>151.7367706298828</ele>
        <time>2016-09-21T15:14:20.000Z</time>
      </trkpt>
      <trkpt lon="0.3592268228530884" lat="49.2147521972656250">
        <ele>151.6803436279297</ele>
        <time>2016-09-21T15:14:23.000Z</time>
      </trkpt>
      <trkpt lon="0.3590572774410248" lat="49.2146911621093750">
        <ele>151.69558715820312</ele>
        <time>2016-09-21T15:14:26.000Z</time>
      </trkpt>
      <trkpt lon="0.3588851094245911" lat="49.2146339416503906">
        <ele>151.79542541503906</ele>
        <time>2016-09-21T15:14:29.000Z</time>
      </trkpt>
      <trkpt lon="0.3587403297424316" lat="49.2145805358886719">
        <ele>151.970947265625</ele>
        <time>2016-09-21T15:14:32.000Z</time>
      </trkpt>
      <trkpt lon="0.3586509227752686" lat="49.2145462036132812">
        <ele>152.1891326904297</ele>
        <time>2016-09-21T15:14:34.000Z</time>
      </trkpt>
      <trkpt lon="0.3585683405399323" lat="49.2145195007324219">
        <ele>152.44009399414062</ele>
        <time>2016-09-21T15:14:36.000Z</time>
      </trkpt>
      <trkpt lon="0.3584318757057190" lat="49.2144699096679688">
        <ele>152.69564819335938</ele>
        <time>2016-09-21T15:14:39.000Z</time>
      </trkpt>
      <trkpt lon="0.3582702875137329" lat="49.2144126892089844">
        <ele>152.9335479736328</ele>
        <time>2016-09-21T15:14:42.000Z</time>
      </trkpt>
      <trkpt lon="0.3580987155437469" lat="49.2143554687500000">
        <ele>153.13864135742188</ele>
        <time>2016-09-21T15:14:45.000Z</time>
      </trkpt>
      <trkpt lon="0.3579071760177612" lat="49.2142906188964844">
        <ele>153.33792114257812</ele>
        <time>2016-09-21T15:14:48.000Z</time>
      </trkpt>
      <trkpt lon="0.3577350974082947" lat="49.2142295837402344">
        <ele>153.53298950195312</ele>
        <time>2016-09-21T15:14:51.000Z</time>
      </trkpt>
      <trkpt lon="0.3576226234436035" lat="49.2141876220703125">
        <ele>153.69140625</ele>
        <time>2016-09-21T15:14:53.000Z</time>
      </trkpt>
      <trkpt lon="0.3575183451175690" lat="49.2141609191894531">
        <ele>153.8125</ele>
        <time>2016-09-21T15:14:55.000Z</time>
      </trkpt>
      <trkpt lon="0.3574068546295166" lat="49.2141265869140625">
        <ele>153.89952087402344</ele>
        <time>2016-09-21T15:14:57.000Z</time>
      </trkpt>
      <trkpt lon="0.3572455942630768" lat="49.2140769958496094">
        <ele>153.94003295898438</ele>
        <time>2016-09-21T15:15:00.000Z</time>
      </trkpt>
      <trkpt lon="0.3570746183395386" lat="49.2140159606933594">
        <ele>153.9394989013672</ele>
        <time>2016-09-21T15:15:03.000Z</time>
      </trkpt>
      <trkpt lon="0.3569498062133789" lat="49.2139625549316406">
        <ele>153.91683959960938</ele>
        <time>2016-09-21T15:15:05.000Z</time>
      </trkpt>
      <trkpt lon="0.3567631244659424" lat="49.2138938903808594">
        <ele>153.866943359375</ele>
        <time>2016-09-21T15:15:08.000Z</time>
      </trkpt>
      <trkpt lon="0.3566257655620575" lat="49.2138519287109375">
        <ele>153.82211303710938</ele>
        <time>2016-09-21T15:15:10.000Z</time>
      </trkpt>
      <trkpt lon="0.3564862906932831" lat="49.2138099670410156">
        <ele>153.8120574951172</ele>
        <time>2016-09-21T15:15:12.000Z</time>
      </trkpt>
      <trkpt lon="0.3563631474971771" lat="49.2137641906738281">
        <ele>153.8352508544922</ele>
        <time>2016-09-21T15:15:14.000Z</time>
      </trkpt>
      <trkpt lon="0.3561666905879974" lat="49.2136955261230469">
        <ele>153.89425659179688</ele>
        <time>2016-09-21T15:15:17.000Z</time>
      </trkpt>
      <trkpt lon="0.3560418784618378" lat="49.2136611938476562">
        <ele>153.984375</ele>
        <time>2016-09-21T15:15:19.000Z</time>
      </trkpt>
      <trkpt lon="0.3558626770973206" lat="49.2136039733886719">
        <ele>154.103515625</ele>
        <time>2016-09-21T15:15:22.000Z</time>
      </trkpt>
      <trkpt lon="0.3556815385818481" lat="49.2135467529296875">
        <ele>154.2033233642578</ele>
        <time>2016-09-21T15:15:25.000Z</time>
      </trkpt>
      <trkpt lon="0.3555677235126495" lat="49.2135047912597656">
        <ele>154.2777099609375</ele>
        <time>2016-09-21T15:15:27.000Z</time>
      </trkpt>
      <trkpt lon="0.3554069399833679" lat="49.2134437561035156">
        <ele>154.31005859375</ele>
        <time>2016-09-21T15:15:30.000Z</time>
      </trkpt>
      <trkpt lon="0.3552667200565338" lat="49.2133865356445312">
        <ele>154.31369018554688</ele>
        <time>2016-09-21T15:15:33.000Z</time>
      </trkpt>
      <trkpt lon="0.3551764488220215" lat="49.2133560180664062">
        <ele>154.27919006347656</ele>
        <time>2016-09-21T15:15:35.000Z</time>
      </trkpt>
      <trkpt lon="0.3550259172916412" lat="49.2133026123046875">
        <ele>154.2368927001953</ele>
        <time>2016-09-21T15:15:38.000Z</time>
      </trkpt>
      <trkpt lon="0.3549135923385620" lat="49.2132644653320312">
        <ele>154.21914672851562</ele>
        <time>2016-09-21T15:15:40.000Z</time>
      </trkpt>
      <trkpt lon="0.3547500669956207" lat="49.2132072448730469">
        <ele>154.25125122070312</ele>
        <time>2016-09-21T15:15:43.000Z</time>
      </trkpt>
      <trkpt lon="0.3545978367328644" lat="49.2131500244140625">
        <ele>154.3354949951172</ele>
        <time>2016-09-21T15:15:46.000Z</time>
      </trkpt>
      <trkpt lon="0.3544919788837433" lat="49.2131118774414062">
        <ele>154.45985412597656</ele>
        <time>2016-09-21T15:15:48.000Z</time>
      </trkpt>
      <trkpt lon="0.3543334603309631" lat="49.2130508422851562">
        <ele>154.6357421875</ele>
        <time>2016-09-21T15:15:51.000Z</time>
      </trkpt>
      <trkpt lon="0.3542144596576691" lat="49.2130088806152344">
        <ele>154.8203125</ele>
        <time>2016-09-21T15:15:53.000Z</time>
      </trkpt>
      <trkpt lon="0.3540953397750854" lat="49.2129707336425781">
        <ele>154.95826721191406</ele>
        <time>2016-09-21T15:15:55.000Z</time>
      </trkpt>
      <trkpt lon="0.3539849519729614" lat="49.2129287719726562">
        <ele>155.0332794189453</ele>
        <time>2016-09-21T15:15:57.000Z</time>
      </trkpt>
      <trkpt lon="0.3538767397403717" lat="49.2128791809082031">
        <ele>155.05471801757812</ele>
        <time>2016-09-21T15:15:59.000Z</time>
      </trkpt>
      <trkpt lon="0.3536848127841949" lat="49.2127761840820312">
        <ele>154.98086547851562</ele>
        <time>2016-09-21T15:16:02.000Z</time>
      </trkpt>
      <trkpt lon="0.3535054326057434" lat="49.2127532958984375">
        <ele>154.7854461669922</ele>
        <time>2016-09-21T15:16:05.000Z</time>
      </trkpt>
      <trkpt lon="0.3533580601215363" lat="49.2127342224121094">
        <ele>154.51504516601562</ele>
        <time>2016-09-21T15:16:07.000Z</time>
      </trkpt>
      <trkpt lon="0.3532010018825531" lat="49.2126731872558594">
        <ele>154.2985382080078</ele>
        <time>2016-09-21T15:16:10.000Z</time>
      </trkpt>
      <trkpt lon="0.3530363738536835" lat="49.2126159667968750">
        <ele>154.1604766845703</ele>
        <time>2016-09-21T15:16:13.000Z</time>
      </trkpt>
      <trkpt lon="0.3528895378112793" lat="49.2125625610351562">
        <ele>154.1217041015625</ele>
        <time>2016-09-21T15:16:16.000Z</time>
      </trkpt>
      <trkpt lon="0.3527503907680511" lat="49.2125091552734375">
        <ele>154.22129821777344</ele>
        <time>2016-09-21T15:16:19.000Z</time>
      </trkpt>
      <trkpt lon="0.3526083230972290" lat="49.2124595642089844">
        <ele>154.4485321044922</ele>
        <time>2016-09-21T15:16:22.000Z</time>
      </trkpt>
      <trkpt lon="0.3525119125843048" lat="49.2124328613281250">
        <ele>154.67176818847656</ele>
        <time>2016-09-21T15:16:24.000Z</time>
      </trkpt>
      <trkpt lon="0.3523696660995483" lat="49.2123908996582031">
        <ele>154.88961791992188</ele>
        <time>2016-09-21T15:16:27.000Z</time>
      </trkpt>
      <trkpt lon="0.3522738814353943" lat="49.2123565673828125">
        <ele>155.09548950195312</ele>
        <time>2016-09-21T15:16:29.000Z</time>
      </trkpt>
      <trkpt lon="0.3521260023117065" lat="49.2122993469238281">
        <ele>155.3166046142578</ele>
        <time>2016-09-21T15:16:32.000Z</time>
      </trkpt>
      <trkpt lon="0.3519784808158875" lat="49.2122497558593750">
        <ele>155.55516052246094</ele>
        <time>2016-09-21T15:16:35.000Z</time>
      </trkpt>
      <trkpt lon="0.3518763184547424" lat="49.2122154235839844">
        <ele>155.81138610839844</ele>
        <time>2016-09-21T15:16:37.000Z</time>
      </trkpt>
      <trkpt lon="0.3517192304134369" lat="49.2121658325195312">
        <ele>156.09210205078125</ele>
        <time>2016-09-21T15:16:40.000Z</time>
      </trkpt>
      <trkpt lon="0.3515660166740417" lat="49.2121086120605469">
        <ele>156.38339233398438</ele>
        <time>2016-09-21T15:16:43.000Z</time>
      </trkpt>
      <trkpt lon="0.3514640927314758" lat="49.2120742797851562">
        <ele>156.62814331054688</ele>
        <time>2016-09-21T15:16:45.000Z</time>
      </trkpt>
      <trkpt lon="0.3513144850730896" lat="49.2120208740234375">
        <ele>156.8221435546875</ele>
        <time>2016-09-21T15:16:48.000Z</time>
      </trkpt>
      <trkpt lon="0.3511649370193481" lat="49.2119674682617188">
        <ele>156.9751739501953</ele>
        <time>2016-09-21T15:16:51.000Z</time>
      </trkpt>
      <trkpt lon="0.3510163426399231" lat="49.2119140625000000">
        <ele>157.05052185058594</ele>
        <time>2016-09-21T15:16:54.000Z</time>
      </trkpt>
      <trkpt lon="0.3508597612380981" lat="49.2118530273437500">
        <ele>157.0650177001953</ele>
        <time>2016-09-21T15:16:57.000Z</time>
      </trkpt>
      <trkpt lon="0.3507000803947449" lat="49.2117919921875000">
        <ele>157.09315490722656</ele>
        <time>2016-09-21T15:17:00.000Z</time>
      </trkpt>
      <trkpt lon="0.3505912125110626" lat="49.2117500305175781">
        <ele>157.1336669921875</ele>
        <time>2016-09-21T15:17:02.000Z</time>
      </trkpt>
      <trkpt lon="0.3504298627376556" lat="49.2116966247558594">
        <ele>157.20828247070312</ele>
        <time>2016-09-21T15:17:05.000Z</time>
      </trkpt>
      <trkpt lon="0.3503184616565704" lat="49.2116584777832031">
        <ele>157.3148193359375</ele>
        <time>2016-09-21T15:17:07.000Z</time>
      </trkpt>
      <trkpt lon="0.3502017855644226" lat="49.2116165161132812">
        <ele>157.46575927734375</ele>
        <time>2016-09-21T15:17:09.000Z</time>
      </trkpt>
      <trkpt lon="0.3500148653984070" lat="49.2115440368652344">
        <ele>157.63075256347656</ele>
        <time>2016-09-21T15:17:12.000Z</time>
      </trkpt>
      <trkpt lon="0.3498390018939972" lat="49.2114830017089844">
        <ele>157.7641143798828</ele>
        <time>2016-09-21T15:17:15.000Z</time>
      </trkpt>
      <trkpt lon="0.3497171401977539" lat="49.2114486694335938">
        <ele>157.8496551513672</ele>
        <time>2016-09-21T15:17:17.000Z</time>
      </trkpt>
      <trkpt lon="0.3495557904243469" lat="49.2113914489746094">
        <ele>157.8902587890625</ele>
        <time>2016-09-21T15:17:20.000Z</time>
      </trkpt>
      <trkpt lon="0.3493879735469818" lat="49.2113304138183594">
        <ele>157.87686157226562</ele>
        <time>2016-09-21T15:17:23.000Z</time>
      </trkpt>
      <trkpt lon="0.3492651879787445" lat="49.2112922668457031">
        <ele>157.80050659179688</ele>
        <time>2016-09-21T15:17:25.000Z</time>
      </trkpt>
      <trkpt lon="0.3490776717662811" lat="49.2112197875976562">
        <ele>157.6800537109375</ele>
        <time>2016-09-21T15:17:28.000Z</time>
      </trkpt>
      <trkpt lon="0.3489325046539307" lat="49.2111663818359375">
        <ele>157.5211944580078</ele>
        <time>2016-09-21T15:17:30.000Z</time>
      </trkpt>
      <trkpt lon="0.3487321138381958" lat="49.2110977172851562">
        <ele>157.31497192382812</ele>
        <time>2016-09-21T15:17:33.000Z</time>
      </trkpt>
      <trkpt lon="0.3486073017120361" lat="49.2110595703125000">
        <ele>157.09396362304688</ele>
        <time>2016-09-21T15:17:35.000Z</time>
      </trkpt>
      <trkpt lon="0.3483925461769104" lat="49.2109947204589844">
        <ele>156.8262481689453</ele>
        <time>2016-09-21T15:17:38.000Z</time>
      </trkpt>
      <trkpt lon="0.3482530713081360" lat="49.2109451293945312">
        <ele>156.5629119873047</ele>
        <time>2016-09-21T15:17:40.000Z</time>
      </trkpt>
      <trkpt lon="0.3480347990989685" lat="49.2108650207519531">
        <ele>156.2751922607422</ele>
        <time>2016-09-21T15:17:43.000Z</time>
      </trkpt>
      <trkpt lon="0.3478239178657532" lat="49.2107963562011719">
        <ele>155.98495483398438</ele>
        <time>2016-09-21T15:17:46.000Z</time>
      </trkpt>
      <trkpt lon="0.3476895689964294" lat="49.2107467651367188">
        <ele>155.6894989013672</ele>
        <time>2016-09-21T15:17:48.000Z</time>
      </trkpt>
      <trkpt lon="0.3474706113338470" lat="49.2106704711914062">
        <ele>155.40281677246094</ele>
        <time>2016-09-21T15:17:51.000Z</time>
      </trkpt>
      <trkpt lon="0.3472754061222076" lat="49.2105636596679688">
        <ele>155.16671752929688</ele>
        <time>2016-09-21T15:17:54.000Z</time>
      </trkpt>
      <trkpt lon="0.3470392823219299" lat="49.2104911804199219">
        <ele>155.01351928710938</ele>
        <time>2016-09-21T15:17:57.000Z</time>
      </trkpt>
      <trkpt lon="0.3468211889266968" lat="49.2104187011718750">
        <ele>154.92642211914062</ele>
        <time>2016-09-21T15:18:00.000Z</time>
      </trkpt>
      <trkpt lon="0.3465963900089264" lat="49.2103424072265625">
        <ele>154.8875274658203</ele>
        <time>2016-09-21T15:18:03.000Z</time>
      </trkpt>
      <trkpt lon="0.3464363813400269" lat="49.2103080749511719">
        <ele>154.92962646484375</ele>
        <time>2016-09-21T15:18:05.000Z</time>
      </trkpt>
      <trkpt lon="0.3462893664836884" lat="49.2102584838867188">
        <ele>154.96597290039062</ele>
        <time>2016-09-21T15:18:07.000Z</time>
      </trkpt>
      <trkpt lon="0.3460564315319061" lat="49.2101783752441406">
        <ele>154.9612579345703</ele>
        <time>2016-09-21T15:18:10.000Z</time>
      </trkpt>
      <trkpt lon="0.3459058105945587" lat="49.2101135253906250">
        <ele>154.91123962402344</ele>
        <time>2016-09-21T15:18:12.000Z</time>
      </trkpt>
      <trkpt lon="0.3456681072711945" lat="49.2100410461425781">
        <ele>154.88723754882812</ele>
        <time>2016-09-21T15:18:15.000Z</time>
      </trkpt>
      <trkpt lon="0.3455242514610291" lat="49.2099838256835938">
        <ele>154.89404296875</ele>
        <time>2016-09-21T15:18:17.000Z</time>
      </trkpt>
      <trkpt lon="0.3452760875225067" lat="49.2098884582519531">
        <ele>155.00631713867188</ele>
        <time>2016-09-21T15:18:20.000Z</time>
      </trkpt>
      <trkpt lon="0.3449962735176086" lat="49.2098045349121094">
        <ele>155.24566650390625</ele>
        <time>2016-09-21T15:18:23.000Z</time>
      </trkpt>
      <trkpt lon="0.3447833061218262" lat="49.2097167968750000">
        <ele>155.6150360107422</ele>
        <time>2016-09-21T15:18:26.000Z</time>
      </trkpt>
      <trkpt lon="0.3446238636970520" lat="49.2096557617187500">
        <ele>156.0093994140625</ele>
        <time>2016-09-21T15:18:28.000Z</time>
      </trkpt>
      <trkpt lon="0.3444689810276031" lat="49.2096061706542969">
        <ele>156.40646362304688</ele>
        <time>2016-09-21T15:18:30.000Z</time>
      </trkpt>
      <trkpt lon="0.3442225456237793" lat="49.2095451354980469">
        <ele>156.79336547851562</ele>
        <time>2016-09-21T15:18:33.000Z</time>
      </trkpt>
      <trkpt lon="0.3439671695232391" lat="49.2094612121582031">
        <ele>157.06393432617188</ele>
        <time>2016-09-21T15:18:36.000Z</time>
      </trkpt>
      <trkpt lon="0.3437919616699219" lat="49.2093925476074219">
        <ele>157.2007293701172</ele>
        <time>2016-09-21T15:18:38.000Z</time>
      </trkpt>
      <trkpt lon="0.3435654044151306" lat="49.2092742919921875">
        <ele>157.1609649658203</ele>
        <time>2016-09-21T15:18:41.000Z</time>
      </trkpt>
      <trkpt lon="0.3432854413986206" lat="49.2091827392578125">
        <ele>156.94227600097656</ele>
        <time>2016-09-21T15:18:44.000Z</time>
      </trkpt>
      <trkpt lon="0.3430136442184448" lat="49.2090682983398438">
        <ele>156.3209686279297</ele>
        <time>2016-09-21T15:18:47.000Z</time>
      </trkpt>
      <trkpt lon="0.3428265452384949" lat="49.2089958190917969">
        <ele>155.5298309326172</ele>
        <time>2016-09-21T15:18:49.000Z</time>
      </trkpt>
      <trkpt lon="0.3426252007484436" lat="49.2089385986328125">
        <ele>154.6107177734375</ele>
        <time>2016-09-21T15:18:51.000Z</time>
      </trkpt>
      <trkpt lon="0.3423954546451569" lat="49.2088699340820312">
        <ele>153.69898986816406</ele>
        <time>2016-09-21T15:18:53.000Z</time>
      </trkpt>
      <trkpt lon="0.3420869410037994" lat="49.2087974548339844">
        <ele>152.92735290527344</ele>
        <time>2016-09-21T15:18:56.000Z</time>
      </trkpt>
      <trkpt lon="0.3418130874633789" lat="49.2086753845214844">
        <ele>152.48216247558594</ele>
        <time>2016-09-21T15:18:59.000Z</time>
      </trkpt>
      <trkpt lon="0.3416511416435242" lat="49.2085952758789062">
        <ele>152.24916076660156</ele>
        <time>2016-09-21T15:19:01.000Z</time>
      </trkpt>
      <trkpt lon="0.3413726091384888" lat="49.2085189819335938">
        <ele>152.1914520263672</ele>
        <time>2016-09-21T15:19:04.000Z</time>
      </trkpt>
      <trkpt lon="0.3411915600299835" lat="49.2084426879882812">
        <ele>152.22830200195312</ele>
        <time>2016-09-21T15:19:06.000Z</time>
      </trkpt>
      <trkpt lon="0.3408903181552887" lat="49.2083244323730469">
        <ele>152.19691467285156</ele>
        <time>2016-09-21T15:19:09.000Z</time>
      </trkpt>
      <trkpt lon="0.3406840562820435" lat="49.2082405090332031">
        <ele>151.94461059570312</ele>
        <time>2016-09-21T15:19:11.000Z</time>
      </trkpt>
      <trkpt lon="0.3404624164104462" lat="49.2081756591796875">
        <ele>151.45736694335938</ele>
        <time>2016-09-21T15:19:13.000Z</time>
      </trkpt>
      <trkpt lon="0.3401968777179718" lat="49.2080650329589844">
        <ele>150.7145233154297</ele>
        <time>2016-09-21T15:19:16.000Z</time>
      </trkpt>
      <trkpt lon="0.3398455977439880" lat="49.2079734802246094">
        <ele>149.7623291015625</ele>
        <time>2016-09-21T15:19:19.000Z</time>
      </trkpt>
      <trkpt lon="0.3396643102169037" lat="49.2079086303710938">
        <ele>148.7456512451172</ele>
        <time>2016-09-21T15:19:21.000Z</time>
      </trkpt>
      <trkpt lon="0.3394001126289368" lat="49.2078132629394531">
        <ele>147.74842834472656</ele>
        <time>2016-09-21T15:19:24.000Z</time>
      </trkpt>
      <trkpt lon="0.3392124474048615" lat="49.2077827453613281">
        <ele>146.86288452148438</ele>
        <time>2016-09-21T15:19:26.000Z</time>
      </trkpt>
      <trkpt lon="0.3388790190219879" lat="49.2076873779296875">
        <ele>146.10028076171875</ele>
        <time>2016-09-21T15:19:29.000Z</time>
      </trkpt>
      <trkpt lon="0.3385975360870361" lat="49.2075881958007812">
        <ele>145.54556274414062</ele>
        <time>2016-09-21T15:19:32.000Z</time>
      </trkpt>
      <trkpt lon="0.3383758366107941" lat="49.2074890136718750">
        <ele>145.15859985351562</ele>
        <time>2016-09-21T15:19:35.000Z</time>
      </trkpt>
      <trkpt lon="0.3381573259830475" lat="49.2074279785156250">
        <ele>144.9578399658203</ele>
        <time>2016-09-21T15:19:38.000Z</time>
      </trkpt>
      <trkpt lon="0.3379726707935333" lat="49.2073745727539062">
        <ele>144.8628692626953</ele>
        <time>2016-09-21T15:19:40.000Z</time>
      </trkpt>
      <trkpt lon="0.3377141654491425" lat="49.2072753906250000">
        <ele>144.93374633789062</ele>
        <time>2016-09-21T15:19:43.000Z</time>
      </trkpt>
      <trkpt lon="0.3374569416046143" lat="49.2071647644042969">
        <ele>145.06715393066406</ele>
        <time>2016-09-21T15:19:46.000Z</time>
      </trkpt>
      <trkpt lon="0.3373136818408966" lat="49.2071495056152344">
        <ele>145.11270141601562</ele>
        <time>2016-09-21T15:19:48.000Z</time>
      </trkpt>
      <trkpt lon="0.3370713591575623" lat="49.2070159912109375">
        <ele>145.15281677246094</ele>
        <time>2016-09-21T15:19:51.000Z</time>
      </trkpt>
      <trkpt lon="0.3368982672691345" lat="49.2069511413574219">
        <ele>145.19078063964844</ele>
        <time>2016-09-21T15:19:53.000Z</time>
      </trkpt>
      <trkpt lon="0.3366658389568329" lat="49.2068595886230469">
        <ele>145.22482299804688</ele>
        <time>2016-09-21T15:19:56.000Z</time>
      </trkpt>
      <trkpt lon="0.3364617526531219" lat="49.2068023681640625">
        <ele>145.17626953125</ele>
        <time>2016-09-21T15:19:58.000Z</time>
      </trkpt>
      <trkpt lon="0.3362987935543060" lat="49.2066841125488281">
        <ele>145.15777587890625</ele>
        <time>2016-09-21T15:20:01.000Z</time>
      </trkpt>
      <trkpt lon="0.3360925316810608" lat="49.2066764831542969">
        <ele>145.0476837158203</ele>
        <time>2016-09-21T15:20:03.000Z</time>
      </trkpt>
      <trkpt lon="0.3359557390213013" lat="49.2066383361816406">
        <ele>144.8787384033203</ele>
        <time>2016-09-21T15:20:05.000Z</time>
      </trkpt>
      <trkpt lon="0.3358350396156311" lat="49.2065925598144531">
        <ele>144.63723754882812</ele>
        <time>2016-09-21T15:20:07.000Z</time>
      </trkpt>
      <trkpt lon="0.3357037007808685" lat="49.2065353393554688">
        <ele>144.3922119140625</ele>
        <time>2016-09-21T15:20:09.000Z</time>
      </trkpt>
      <trkpt lon="0.3354678153991699" lat="49.2064628601074219">
        <ele>144.0736541748047</ele>
        <time>2016-09-21T15:20:12.000Z</time>
      </trkpt>
      <trkpt lon="0.3352172076702118" lat="49.2063713073730469">
        <ele>143.78060913085938</ele>
        <time>2016-09-21T15:20:15.000Z</time>
      </trkpt>
      <trkpt lon="0.3349492251873016" lat="49.2062950134277344">
        <ele>143.48202514648438</ele>
        <time>2016-09-21T15:20:18.000Z</time>
      </trkpt>
      <trkpt lon="0.3347122669219971" lat="49.2062492370605469">
        <ele>143.1942138671875</ele>
        <time>2016-09-21T15:20:20.000Z</time>
      </trkpt>
      <trkpt lon="0.3344186544418335" lat="49.2061462402343750">
        <ele>142.93113708496094</ele>
        <time>2016-09-21T15:20:23.000Z</time>
      </trkpt>
      <trkpt lon="0.3341716527938843" lat="49.2060890197753906">
        <ele>142.71510314941406</ele>
        <time>2016-09-21T15:20:26.000Z</time>
      </trkpt>
      <trkpt lon="0.3340367078781128" lat="49.2060546875000000">
        <ele>142.62107849121094</ele>
        <time>2016-09-21T15:20:28.000Z</time>
      </trkpt>
      <trkpt lon="0.3338953852653503" lat="49.2060012817382812">
        <ele>142.65216064453125</ele>
        <time>2016-09-21T15:20:30.000Z</time>
      </trkpt>
      <trkpt lon="0.3336800336837769" lat="49.2059288024902344">
        <ele>142.80564880371094</ele>
        <time>2016-09-21T15:20:33.000Z</time>
      </trkpt>
      <trkpt lon="0.3335281610488892" lat="49.2058906555175781">
        <ele>143.03028869628906</ele>
        <time>2016-09-21T15:20:35.000Z</time>
      </trkpt>
      <trkpt lon="0.3333378136157990" lat="49.2058372497558594">
        <ele>143.3485107421875</ele>
        <time>2016-09-21T15:20:38.000Z</time>
      </trkpt>
      <trkpt lon="0.3332053720951080" lat="49.2057991027832031">
        <ele>143.6627960205078</ele>
        <time>2016-09-21T15:20:40.000Z</time>
      </trkpt>
      <trkpt lon="0.3330023586750031" lat="49.2057342529296875">
        <ele>143.9928741455078</ele>
        <time>2016-09-21T15:20:43.000Z</time>
      </trkpt>
      <trkpt lon="0.3328850269317627" lat="49.2056922912597656">
        <ele>144.28359985351562</ele>
        <time>2016-09-21T15:20:45.000Z</time>
      </trkpt>
      <trkpt lon="0.3327654898166656" lat="49.2056541442871094">
        <ele>144.5691375732422</ele>
        <time>2016-09-21T15:20:47.000Z</time>
      </trkpt>
      <trkpt lon="0.3326103389263153" lat="49.2056198120117188">
        <ele>144.8478546142578</ele>
        <time>2016-09-21T15:20:50.000Z</time>
      </trkpt>
      <trkpt lon="0.3324796855449677" lat="49.2055892944335938">
        <ele>145.12161254882812</ele>
        <time>2016-09-21T15:20:52.000Z</time>
      </trkpt>
      <trkpt lon="0.3323541879653931" lat="49.2055511474609375">
        <ele>145.3650665283203</ele>
        <time>2016-09-21T15:20:54.000Z</time>
      </trkpt>
      <trkpt lon="0.3321708738803864" lat="49.2054939270019531">
        <ele>145.63217163085938</ele>
        <time>2016-09-21T15:20:57.000Z</time>
      </trkpt>
      <trkpt lon="0.3320067524909973" lat="49.2054405212402344">
        <ele>145.91778564453125</ele>
        <time>2016-09-21T15:21:00.000Z</time>
      </trkpt>
      <trkpt lon="0.3318834602832794" lat="49.2054138183593750">
        <ele>146.1918487548828</ele>
        <time>2016-09-21T15:21:02.000Z</time>
      </trkpt>
      <trkpt lon="0.3317663669586182" lat="49.2053833007812500">
        <ele>146.462646484375</ele>
        <time>2016-09-21T15:21:04.000Z</time>
      </trkpt>
      <trkpt lon="0.3316132426261902" lat="49.2053375244140625">
        <ele>146.74725341796875</ele>
        <time>2016-09-21T15:21:06.000Z</time>
      </trkpt>
      <trkpt lon="0.3314034342765808" lat="49.2052803039550781">
        <ele>147.05435180664062</ele>
        <time>2016-09-21T15:21:09.000Z</time>
      </trkpt>
      <trkpt lon="0.3312104046344757" lat="49.2052345275878906">
        <ele>147.3756561279297</ele>
        <time>2016-09-21T15:21:12.000Z</time>
      </trkpt>
      <trkpt lon="0.3310995995998383" lat="49.2052078247070312">
        <ele>147.69546508789062</ele>
        <time>2016-09-21T15:21:14.000Z</time>
      </trkpt>
      <trkpt lon="0.3309308588504791" lat="49.2051429748535156">
        <ele>148.04156494140625</ele>
        <time>2016-09-21T15:21:17.000Z</time>
      </trkpt>
      <trkpt lon="0.3307982683181763" lat="49.2051124572753906">
        <ele>148.37742614746094</ele>
        <time>2016-09-21T15:21:19.000Z</time>
      </trkpt>
      <trkpt lon="0.3306202292442322" lat="49.2050666809082031">
        <ele>148.71859741210938</ele>
        <time>2016-09-21T15:21:22.000Z</time>
      </trkpt>
      <trkpt lon="0.3304314613342285" lat="49.2050247192382812">
        <ele>149.07997131347656</ele>
        <time>2016-09-21T15:21:25.000Z</time>
      </trkpt>
      <trkpt lon="0.3303215801715851" lat="49.2049903869628906">
        <ele>149.45213317871094</ele>
        <time>2016-09-21T15:21:27.000Z</time>
      </trkpt>
      <trkpt lon="0.3301593959331512" lat="49.2049407958984375">
        <ele>149.81405639648438</ele>
        <time>2016-09-21T15:21:30.000Z</time>
      </trkpt>
      <trkpt lon="0.3300456404685974" lat="49.2049255371093750">
        <ele>150.1660614013672</ele>
        <time>2016-09-21T15:21:32.000Z</time>
      </trkpt>
      <trkpt lon="0.3298938572406769" lat="49.2048873901367188">
        <ele>150.377197265625</ele>
        <time>2016-09-21T15:21:34.000Z</time>
      </trkpt>
      <trkpt lon="0.3297669589519501" lat="49.2048416137695312">
        <ele>150.42098999023438</ele>
        <time>2016-09-21T15:21:36.000Z</time>
      </trkpt>
      <trkpt lon="0.3295836448669434" lat="49.2047767639160156">
        <ele>150.32530212402344</ele>
        <time>2016-09-21T15:21:39.000Z</time>
      </trkpt>
      <trkpt lon="0.3293746709823608" lat="49.2047195434570312">
        <ele>150.09149169921875</ele>
        <time>2016-09-21T15:21:42.000Z</time>
      </trkpt>
      <trkpt lon="0.3292188644409180" lat="49.2046852111816406">
        <ele>149.76364135742188</ele>
        <time>2016-09-21T15:21:44.000Z</time>
      </trkpt>
      <trkpt lon="0.3290804624557495" lat="49.2046394348144531">
        <ele>149.4619903564453</ele>
        <time>2016-09-21T15:21:46.000Z</time>
      </trkpt>
      <trkpt lon="0.3288944065570831" lat="49.2045707702636719">
        <ele>149.22842407226562</ele>
        <time>2016-09-21T15:21:49.000Z</time>
      </trkpt>
      <trkpt lon="0.3286742866039276" lat="49.2045097351074219">
        <ele>149.0818328857422</ele>
        <time>2016-09-21T15:21:52.000Z</time>
      </trkpt>
      <trkpt lon="0.3285428583621979" lat="49.2044715881347656">
        <ele>149.01553344726562</ele>
        <time>2016-09-21T15:21:54.000Z</time>
      </trkpt>
      <trkpt lon="0.3283679187297821" lat="49.2044105529785156">
        <ele>149.0</ele>
        <time>2016-09-21T15:21:57.000Z</time>
      </trkpt>
      <trkpt lon="0.3282241821289062" lat="49.2043533325195312">
        <ele>148.9796905517578</ele>
        <time>2016-09-21T15:21:59.000Z</time>
      </trkpt>
      <trkpt lon="0.3280879855155945" lat="49.2043151855468750">
        <ele>148.93115234375</ele>
        <time>2016-09-21T15:22:01.000Z</time>
      </trkpt>
      <trkpt lon="0.3278807699680328" lat="49.2042465209960938">
        <ele>148.83314514160156</ele>
        <time>2016-09-21T15:22:04.000Z</time>
      </trkpt>
      <trkpt lon="0.3277088701725006" lat="49.2041969299316406">
        <ele>148.6884002685547</ele>
        <time>2016-09-21T15:22:06.000Z</time>
      </trkpt>
      <trkpt lon="0.3276038467884064" lat="49.2041549682617188">
        <ele>148.51663208007812</ele>
        <time>2016-09-21T15:22:08.000Z</time>
      </trkpt>
      <trkpt lon="0.3272837400436401" lat="49.2041282653808594">
        <ele>148.34344482421875</ele>
        <time>2016-09-21T15:22:11.000Z</time>
      </trkpt>
      <trkpt lon="0.3270560801029205" lat="49.2040252685546875">
        <ele>148.2079315185547</ele>
        <time>2016-09-21T15:22:14.000Z</time>
      </trkpt>
      <trkpt lon="0.3268950581550598" lat="49.2039909362792969">
        <ele>148.11746215820312</ele>
        <time>2016-09-21T15:22:16.000Z</time>
      </trkpt>
      <trkpt lon="0.3267008662223816" lat="49.2039680480957031">
        <ele>148.06417846679688</ele>
        <time>2016-09-21T15:22:18.000Z</time>
      </trkpt>
      <trkpt lon="0.3264499008655548" lat="49.2038841247558594">
        <ele>148.0359649658203</ele>
        <time>2016-09-21T15:22:21.000Z</time>
      </trkpt>
      <trkpt lon="0.3261766433715820" lat="49.2038040161132812">
        <ele>148.02944946289062</ele>
        <time>2016-09-21T15:22:24.000Z</time>
      </trkpt>
      <trkpt lon="0.3259892165660858" lat="49.2037467956542969">
        <ele>148.0134735107422</ele>
        <time>2016-09-21T15:22:26.000Z</time>
      </trkpt>
      <trkpt lon="0.3257629275321960" lat="49.2036514282226562">
        <ele>147.97459411621094</ele>
        <time>2016-09-21T15:22:29.000Z</time>
      </trkpt>
      <trkpt lon="0.3255003094673157" lat="49.2035560607910156">
        <ele>147.8341522216797</ele>
        <time>2016-09-21T15:22:32.000Z</time>
      </trkpt>
      <trkpt lon="0.3253536224365234" lat="49.2034988403320312">
        <ele>147.6268310546875</ele>
        <time>2016-09-21T15:22:34.000Z</time>
      </trkpt>
      <trkpt lon="0.3251089751720428" lat="49.2034187316894531">
        <ele>147.29678344726562</ele>
        <time>2016-09-21T15:22:37.000Z</time>
      </trkpt>
      <trkpt lon="0.3249089717864990" lat="49.2033767700195312">
        <ele>146.9061737060547</ele>
        <time>2016-09-21T15:22:39.000Z</time>
      </trkpt>
      <trkpt lon="0.3246965706348419" lat="49.2032661437988281">
        <ele>146.56521606445312</ele>
        <time>2016-09-21T15:22:42.000Z</time>
      </trkpt>
      <trkpt lon="0.3244852721691132" lat="49.2031784057617188">
        <ele>146.37826538085938</ele>
        <time>2016-09-21T15:22:45.000Z</time>
      </trkpt>
      <trkpt lon="0.3243193030357361" lat="49.2031288146972656">
        <ele>146.28366088867188</ele>
        <time>2016-09-21T15:22:47.000Z</time>
      </trkpt>
      <trkpt lon="0.3240885436534882" lat="49.2030525207519531">
        <ele>146.33010864257812</ele>
        <time>2016-09-21T15:22:50.000Z</time>
      </trkpt>
      <trkpt lon="0.3238752186298370" lat="49.2029685974121094">
        <ele>146.4249725341797</ele>
        <time>2016-09-21T15:22:53.000Z</time>
      </trkpt>
      <trkpt lon="0.3237301409244537" lat="49.2029266357421875">
        <ele>146.48428344726562</ele>
        <time>2016-09-21T15:22:55.000Z</time>
      </trkpt>
      <trkpt lon="0.3235230147838593" lat="49.2028427124023438">
        <ele>146.4899444580078</ele>
        <time>2016-09-21T15:22:58.000Z</time>
      </trkpt>
      <trkpt lon="0.3232817053794861" lat="49.2027702331542969">
        <ele>146.45779418945312</ele>
        <time>2016-09-21T15:23:01.000Z</time>
      </trkpt>
      <trkpt lon="0.3230440914630890" lat="49.2027015686035156">
        <ele>146.42770385742188</ele>
        <time>2016-09-21T15:23:04.000Z</time>
      </trkpt>
      <trkpt lon="0.3228463530540466" lat="49.2026290893554688">
        <ele>146.44369506835938</ele>
        <time>2016-09-21T15:23:07.000Z</time>
      </trkpt>
      <trkpt lon="0.3226150870323181" lat="49.2025527954101562">
        <ele>146.5175323486328</ele>
        <time>2016-09-21T15:23:10.000Z</time>
      </trkpt>
      <trkpt lon="0.3224939703941345" lat="49.2025146484375000">
        <ele>146.62672424316406</ele>
        <time>2016-09-21T15:23:12.000Z</time>
      </trkpt>
      <trkpt lon="0.3222731947898865" lat="49.2024307250976562">
        <ele>146.75619506835938</ele>
        <time>2016-09-21T15:23:15.000Z</time>
      </trkpt>
      <trkpt lon="0.3221325576305389" lat="49.2023811340332031">
        <ele>146.8572235107422</ele>
        <time>2016-09-21T15:23:17.000Z</time>
      </trkpt>
      <trkpt lon="0.3219830989837646" lat="49.2023391723632812">
        <ele>146.91311645507812</ele>
        <time>2016-09-21T15:23:19.000Z</time>
      </trkpt>
      <trkpt lon="0.3217790126800537" lat="49.2022819519042969">
        <ele>146.90321350097656</ele>
        <time>2016-09-21T15:23:22.000Z</time>
      </trkpt>
      <trkpt lon="0.3216575384140015" lat="49.2022399902343750">
        <ele>146.8500213623047</ele>
        <time>2016-09-21T15:23:24.000Z</time>
      </trkpt>
      <trkpt lon="0.3214762508869171" lat="49.2021713256835938">
        <ele>146.7663116455078</ele>
        <time>2016-09-21T15:23:27.000Z</time>
      </trkpt>
      <trkpt lon="0.3212917745113373" lat="49.2021026611328125">
        <ele>146.67947387695312</ele>
        <time>2016-09-21T15:23:30.000Z</time>
      </trkpt>
      <trkpt lon="0.3211761713027954" lat="49.2020530700683594">
        <ele>146.60452270507812</ele>
        <time>2016-09-21T15:23:32.000Z</time>
      </trkpt>
      <trkpt lon="0.3209926187992096" lat="49.2019996643066406">
        <ele>146.5623321533203</ele>
        <time>2016-09-21T15:23:35.000Z</time>
      </trkpt>
      <trkpt lon="0.3208864927291870" lat="49.2019653320312500">
        <ele>146.55075073242188</ele>
        <time>2016-09-21T15:23:37.000Z</time>
      </trkpt>
      <trkpt lon="0.3207134008407593" lat="49.2018890380859375">
        <ele>146.60708618164062</ele>
        <time>2016-09-21T15:23:40.000Z</time>
      </trkpt>
      <trkpt lon="0.3205168545246124" lat="49.2018318176269531">
        <ele>146.72811889648438</ele>
        <time>2016-09-21T15:23:43.000Z</time>
      </trkpt>
      <trkpt lon="0.3203977346420288" lat="49.2017936706542969">
        <ele>146.884765625</ele>
        <time>2016-09-21T15:23:45.000Z</time>
      </trkpt>
      <trkpt lon="0.3202399015426636" lat="49.2017440795898438">
        <ele>147.0820770263672</ele>
        <time>2016-09-21T15:23:48.000Z</time>
      </trkpt>
      <trkpt lon="0.3200702667236328" lat="49.2016792297363281">
        <ele>147.3341522216797</ele>
        <time>2016-09-21T15:23:51.000Z</time>
      </trkpt>
      <trkpt lon="0.3198974430561066" lat="49.2016296386718750">
        <ele>147.56613159179688</ele>
        <time>2016-09-21T15:23:54.000Z</time>
      </trkpt>
      <trkpt lon="0.3197875320911407" lat="49.2015876770019531">
        <ele>147.74462890625</ele>
        <time>2016-09-21T15:23:56.000Z</time>
      </trkpt>
      <trkpt lon="0.3196185529232025" lat="49.2015266418457031">
        <ele>147.8867645263672</ele>
        <time>2016-09-21T15:23:59.000Z</time>
      </trkpt>
      <trkpt lon="0.3194442093372345" lat="49.2014579772949219">
        <ele>147.97677612304688</ele>
        <time>2016-09-21T15:24:02.000Z</time>
      </trkpt>
      <trkpt lon="0.3192561268806458" lat="49.2013931274414062">
        <ele>148.0</ele>
        <time>2016-09-21T15:24:05.000Z</time>
      </trkpt>
      <trkpt lon="0.3191474080085754" lat="49.2013511657714844">
        <ele>148.0017547607422</ele>
        <time>2016-09-21T15:24:07.000Z</time>
      </trkpt>
      <trkpt lon="0.3189470171928406" lat="49.2012863159179688">
        <ele>148.02584838867188</ele>
        <time>2016-09-21T15:24:10.000Z</time>
      </trkpt>
      <trkpt lon="0.3187651932239532" lat="49.2012329101562500">
        <ele>148.0760040283203</ele>
        <time>2016-09-21T15:24:13.000Z</time>
      </trkpt>
      <trkpt lon="0.3186509609222412" lat="49.2011947631835938">
        <ele>148.14585876464844</ele>
        <time>2016-09-21T15:24:15.000Z</time>
      </trkpt>
      <trkpt lon="0.3184651434421539" lat="49.2011337280273438">
        <ele>148.2532196044922</ele>
        <time>2016-09-21T15:24:18.000Z</time>
      </trkpt>
      <trkpt lon="0.3183397352695465" lat="49.2010803222656250">
        <ele>148.390625</ele>
        <time>2016-09-21T15:24:20.000Z</time>
      </trkpt>
      <trkpt lon="0.3181340396404266" lat="49.2010078430175781">
        <ele>148.5721893310547</ele>
        <time>2016-09-21T15:24:23.000Z</time>
      </trkpt>
      <trkpt lon="0.3179007768630981" lat="49.2009582519531250">
        <ele>148.79537963867188</ele>
        <time>2016-09-21T15:24:26.000Z</time>
      </trkpt>
      <trkpt lon="0.3177746236324310" lat="49.2009048461914062">
        <ele>149.04281616210938</ele>
        <time>2016-09-21T15:24:28.000Z</time>
      </trkpt>
      <trkpt lon="0.3175583779811859" lat="49.2008323669433594">
        <ele>149.32122802734375</ele>
        <time>2016-09-21T15:24:31.000Z</time>
      </trkpt>
      <trkpt lon="0.3173598051071167" lat="49.2007713317871094">
        <ele>149.6709747314453</ele>
        <time>2016-09-21T15:24:34.000Z</time>
      </trkpt>
      <trkpt lon="0.3171691298484802" lat="49.2006950378417969">
        <ele>150.0508575439453</ele>
        <time>2016-09-21T15:24:37.000Z</time>
      </trkpt>
      <trkpt lon="0.3170413076877594" lat="49.2006378173828125">
        <ele>150.41397094726562</ele>
        <time>2016-09-21T15:24:39.000Z</time>
      </trkpt>
      <trkpt lon="0.3169057667255402" lat="49.2005920410156250">
        <ele>150.77389526367188</ele>
        <time>2016-09-21T15:24:41.000Z</time>
      </trkpt>
      <trkpt lon="0.3167000710964203" lat="49.2005386352539062">
        <ele>151.10952758789062</ele>
        <time>2016-09-21T15:24:44.000Z</time>
      </trkpt>
      <trkpt lon="0.3165863156318665" lat="49.2005004882812500">
        <ele>151.32916259765625</ele>
        <time>2016-09-21T15:24:46.000Z</time>
      </trkpt>
      <trkpt lon="0.3164366185665131" lat="49.2004547119140625">
        <ele>151.42282104492188</ele>
        <time>2016-09-21T15:24:48.000Z</time>
      </trkpt>
      <trkpt lon="0.3162492811679840" lat="49.2003707885742188">
        <ele>151.4307403564453</ele>
        <time>2016-09-21T15:24:51.000Z</time>
      </trkpt>
      <trkpt lon="0.3160977363586426" lat="49.2003173828125000">
        <ele>151.37765502929688</ele>
        <time>2016-09-21T15:24:53.000Z</time>
      </trkpt>
      <trkpt lon="0.3159580230712891" lat="49.2002754211425781">
        <ele>151.26617431640625</ele>
        <time>2016-09-21T15:24:55.000Z</time>
      </trkpt>
      <trkpt lon="0.3157067298889160" lat="49.2001991271972656">
        <ele>151.15036010742188</ele>
        <time>2016-09-21T15:24:58.000Z</time>
      </trkpt>
      <trkpt lon="0.3154835999011993" lat="49.2001228332519531">
        <ele>151.05889892578125</ele>
        <time>2016-09-21T15:25:01.000Z</time>
      </trkpt>
      <trkpt lon="0.3152291178703308" lat="49.2000312805175781">
        <ele>151.00888061523438</ele>
        <time>2016-09-21T15:25:04.000Z</time>
      </trkpt>
      <trkpt lon="0.3150762319564819" lat="49.1999740600585938">
        <ele>150.97299194335938</ele>
        <time>2016-09-21T15:25:06.000Z</time>
      </trkpt>
      <trkpt lon="0.3148408830165863" lat="49.1998825073242188">
        <ele>150.84085083007812</ele>
        <time>2016-09-21T15:25:09.000Z</time>
      </trkpt>
      <trkpt lon="0.3147167563438416" lat="49.1998291015625000">
        <ele>150.6580047607422</ele>
        <time>2016-09-21T15:25:11.000Z</time>
      </trkpt>
      <trkpt lon="0.3145058453083038" lat="49.1997337341308594">
        <ele>150.38143920898438</ele>
        <time>2016-09-21T15:25:14.000Z</time>
      </trkpt>
      <trkpt lon="0.3142818808555603" lat="49.1996803283691406">
        <ele>150.02108764648438</ele>
        <time>2016-09-21T15:25:17.000Z</time>
      </trkpt>
      <trkpt lon="0.3140617907047272" lat="49.1996040344238281">
        <ele>149.62088012695312</ele>
        <time>2016-09-21T15:25:20.000Z</time>
      </trkpt>
      <trkpt lon="0.3138939738273621" lat="49.1995697021484375">
        <ele>149.30918884277344</ele>
        <time>2016-09-21T15:25:22.000Z</time>
      </trkpt>
      <trkpt lon="0.3137534260749817" lat="49.1995162963867188">
        <ele>149.04168701171875</ele>
        <time>2016-09-21T15:25:24.000Z</time>
      </trkpt>
      <trkpt lon="0.3136195540428162" lat="49.1994590759277344">
        <ele>148.8452911376953</ele>
        <time>2016-09-21T15:25:26.000Z</time>
      </trkpt>
      <trkpt lon="0.3134324550628662" lat="49.1993865966796875">
        <ele>148.68136596679688</ele>
        <time>2016-09-21T15:25:29.000Z</time>
      </trkpt>
      <trkpt lon="0.3132050633430481" lat="49.1992912292480469">
        <ele>148.55416870117188</ele>
        <time>2016-09-21T15:25:32.000Z</time>
      </trkpt>
      <trkpt lon="0.3129725456237793" lat="49.1992073059082031">
        <ele>148.4842071533203</ele>
        <time>2016-09-21T15:25:35.000Z</time>
      </trkpt>
      <trkpt lon="0.3128241896629333" lat="49.1991539001464844">
        <ele>148.4608917236328</ele>
        <time>2016-09-21T15:25:37.000Z</time>
      </trkpt>
      <trkpt lon="0.3126849830150604" lat="49.1991081237792969">
        <ele>148.48789978027344</ele>
        <time>2016-09-21T15:25:39.000Z</time>
      </trkpt>
      <trkpt lon="0.3124591708183289" lat="49.1990318298339844">
        <ele>148.5756072998047</ele>
        <time>2016-09-21T15:25:42.000Z</time>
      </trkpt>
      <trkpt lon="0.3123067915439606" lat="49.1989974975585938">
        <ele>148.62814331054688</ele>
        <time>2016-09-21T15:25:44.000Z</time>
      </trkpt>
      <trkpt lon="0.3121615350246429" lat="49.1989555358886719">
        <ele>148.5997772216797</ele>
        <time>2016-09-21T15:25:46.000Z</time>
      </trkpt>
      <trkpt lon="0.3119633793830872" lat="49.1988716125488281">
        <ele>148.48141479492188</ele>
        <time>2016-09-21T15:25:49.000Z</time>
      </trkpt>
      <trkpt lon="0.3118319511413574" lat="49.1988182067871094">
        <ele>148.296142578125</ele>
        <time>2016-09-21T15:25:51.000Z</time>
      </trkpt>
      <trkpt lon="0.3116382360458374" lat="49.1987571716308594">
        <ele>148.05050659179688</ele>
        <time>2016-09-21T15:25:54.000Z</time>
      </trkpt>
      <trkpt lon="0.3114439547061920" lat="49.1986885070800781">
        <ele>147.9144287109375</ele>
        <time>2016-09-21T15:25:57.000Z</time>
      </trkpt>
      <trkpt lon="0.3113235831260681" lat="49.1986351013183594">
        <ele>147.87652587890625</ele>
        <time>2016-09-21T15:25:59.000Z</time>
      </trkpt>
      <trkpt lon="0.3111396133899689" lat="49.1985702514648438">
        <ele>148.0039520263672</ele>
        <time>2016-09-21T15:26:02.000Z</time>
      </trkpt>
      <trkpt lon="0.3110370039939880" lat="49.1985282897949219">
        <ele>148.24195861816406</ele>
        <time>2016-09-21T15:26:04.000Z</time>
      </trkpt>
      <trkpt lon="0.3108995556831360" lat="49.1984901428222656">
        <ele>148.61572265625</ele>
        <time>2016-09-21T15:26:06.000Z</time>
      </trkpt>
      <trkpt lon="0.3107394576072693" lat="49.1984329223632812">
        <ele>149.01290893554688</ele>
        <time>2016-09-21T15:26:09.000Z</time>
      </trkpt>
      <trkpt lon="0.3105904161930084" lat="49.1983757019042969">
        <ele>149.4206085205078</ele>
        <time>2016-09-21T15:26:12.000Z</time>
      </trkpt>
      <trkpt lon="0.3104860484600067" lat="49.1983299255371094">
        <ele>149.7754364013672</ele>
        <time>2016-09-21T15:26:14.000Z</time>
      </trkpt>
      <trkpt lon="0.3103930950164795" lat="49.1982917785644531">
        <ele>150.0764617919922</ele>
        <time>2016-09-21T15:26:16.000Z</time>
      </trkpt>
      <trkpt lon="0.3102186918258667" lat="49.1982192993164062">
        <ele>150.31033325195312</ele>
        <time>2016-09-21T15:26:19.000Z</time>
      </trkpt>
      <trkpt lon="0.3100640475749969" lat="49.1981430053710938">
        <ele>150.4751434326172</ele>
        <time>2016-09-21T15:26:22.000Z</time>
      </trkpt>
      <trkpt lon="0.3099632859230042" lat="49.1980857849121094">
        <ele>150.58477783203125</ele>
        <time>2016-09-21T15:26:24.000Z</time>
      </trkpt>
      <trkpt lon="0.3098132610321045" lat="49.1980018615722656">
        <ele>150.6493377685547</ele>
        <time>2016-09-21T15:26:27.000Z</time>
      </trkpt>
      <trkpt lon="0.3096752762794495" lat="49.1979179382324219">
        <ele>150.6927947998047</ele>
        <time>2016-09-21T15:26:30.000Z</time>
      </trkpt>
      <trkpt lon="0.3095299303531647" lat="49.1978340148925781">
        <ele>150.69888305664062</ele>
        <time>2016-09-21T15:26:33.000Z</time>
      </trkpt>
      <trkpt lon="0.3093968331813812" lat="49.1977424621582031">
        <ele>150.65957641601562</ele>
        <time>2016-09-21T15:26:36.000Z</time>
      </trkpt>
      <trkpt lon="0.3092867732048035" lat="49.1976242065429688">
        <ele>150.5674285888672</ele>
        <time>2016-09-21T15:26:39.000Z</time>
      </trkpt>
      <trkpt lon="0.3092027902603149" lat="49.1975440979003906">
        <ele>150.43978881835938</ele>
        <time>2016-09-21T15:26:41.000Z</time>
      </trkpt>
      <trkpt lon="0.3091337382793427" lat="49.1974868774414062">
        <ele>150.32675170898438</ele>
        <time>2016-09-21T15:26:43.000Z</time>
      </trkpt>
      <trkpt lon="0.3090462982654572" lat="49.1974182128906250">
        <ele>150.3077850341797</ele>
        <time>2016-09-21T15:26:45.000Z</time>
      </trkpt>
      <trkpt lon="0.3089185655117035" lat="49.1973190307617188">
        <ele>150.4186553955078</ele>
        <time>2016-09-21T15:26:48.000Z</time>
      </trkpt>
      <trkpt lon="0.3088025450706482" lat="49.1972122192382812">
        <ele>150.65478515625</ele>
        <time>2016-09-21T15:26:51.000Z</time>
      </trkpt>
      <trkpt lon="0.3087172210216522" lat="49.1971435546875000">
        <ele>150.9688720703125</ele>
        <time>2016-09-21T15:26:53.000Z</time>
      </trkpt>
      <trkpt lon="0.3085959553718567" lat="49.1970443725585938">
        <ele>151.31991577148438</ele>
        <time>2016-09-21T15:26:56.000Z</time>
      </trkpt>
      <trkpt lon="0.3084667921066284" lat="49.1969451904296875">
        <ele>151.61306762695312</ele>
        <time>2016-09-21T15:26:59.000Z</time>
      </trkpt>
      <trkpt lon="0.3083792626857758" lat="49.1968688964843750">
        <ele>151.80528259277344</ele>
        <time>2016-09-21T15:27:01.000Z</time>
      </trkpt>
      <trkpt lon="0.3082468509674072" lat="49.1967582702636719">
        <ele>151.91404724121094</ele>
        <time>2016-09-21T15:27:04.000Z</time>
      </trkpt>
      <trkpt lon="0.3081575632095337" lat="49.1966857910156250">
        <ele>151.98008728027344</ele>
        <time>2016-09-21T15:27:06.000Z</time>
      </trkpt>
      <trkpt lon="0.3080293238162994" lat="49.1965866088867188">
        <ele>152.02951049804688</ele>
        <time>2016-09-21T15:27:09.000Z</time>
      </trkpt>
      <trkpt lon="0.3079041838645935" lat="49.1964797973632812">
        <ele>152.09722900390625</ele>
        <time>2016-09-21T15:27:12.000Z</time>
      </trkpt>
      <trkpt lon="0.3078124821186066" lat="49.1964111328125000">
        <ele>152.19381713867188</ele>
        <time>2016-09-21T15:27:14.000Z</time>
      </trkpt>
      <trkpt lon="0.3077336251735687" lat="49.1963386535644531">
        <ele>152.32949829101562</ele>
        <time>2016-09-21T15:27:16.000Z</time>
      </trkpt>
      <trkpt lon="0.3076498806476593" lat="49.1962699890136719">
        <ele>152.5033416748047</ele>
        <time>2016-09-21T15:27:18.000Z</time>
      </trkpt>
      <trkpt lon="0.3075660467147827" lat="49.1961975097656250">
        <ele>152.69229125976562</ele>
        <time>2016-09-21T15:27:20.000Z</time>
      </trkpt>
      <trkpt lon="0.3074831664562225" lat="49.1961212158203125">
        <ele>152.87918090820312</ele>
        <time>2016-09-21T15:27:22.000Z</time>
      </trkpt>
      <trkpt lon="0.3073548376560211" lat="49.1960105895996094">
        <ele>153.03138732910156</ele>
        <time>2016-09-21T15:27:25.000Z</time>
      </trkpt>
      <trkpt lon="0.3072400987148285" lat="49.1959037780761719">
        <ele>153.14291381835938</ele>
        <time>2016-09-21T15:27:28.000Z</time>
      </trkpt>
      <trkpt lon="0.3071632385253906" lat="49.1958312988281250">
        <ele>153.20742797851562</ele>
        <time>2016-09-21T15:27:30.000Z</time>
      </trkpt>
      <trkpt lon="0.3070594668388367" lat="49.1957130432128906">
        <ele>153.18063354492188</ele>
        <time>2016-09-21T15:27:33.000Z</time>
      </trkpt>
      <trkpt lon="0.3069721162319183" lat="49.1956443786621094">
        <ele>153.07261657714844</ele>
        <time>2016-09-21T15:27:35.000Z</time>
      </trkpt>
      <trkpt lon="0.3068312108516693" lat="49.1955223083496094">
        <ele>152.8997344970703</ele>
        <time>2016-09-21T15:27:38.000Z</time>
      </trkpt>
      <trkpt lon="0.3067364096641541" lat="49.1954460144042969">
        <ele>152.68597412109375</ele>
        <time>2016-09-21T15:27:40.000Z</time>
      </trkpt>
      <trkpt lon="0.3066231906414032" lat="49.1953659057617188">
        <ele>152.45347595214844</ele>
        <time>2016-09-21T15:27:42.000Z</time>
      </trkpt>
      <trkpt lon="0.3065011501312256" lat="49.1952247619628906">
        <ele>152.2940216064453</ele>
        <time>2016-09-21T15:27:45.000Z</time>
      </trkpt>
      <trkpt lon="0.3064326643943787" lat="49.1951789855957031">
        <ele>152.19155883789062</ele>
        <time>2016-09-21T15:27:47.000Z</time>
      </trkpt>
      <trkpt lon="0.3063233494758606" lat="49.1950531005859375">
        <ele>152.1898193359375</ele>
        <time>2016-09-21T15:27:50.000Z</time>
      </trkpt>
      <trkpt lon="0.3061700463294983" lat="49.1949844360351562">
        <ele>152.27554321289062</ele>
        <time>2016-09-21T15:27:52.000Z</time>
      </trkpt>
      <trkpt lon="0.3060724735260010" lat="49.1948966979980469">
        <ele>152.4122772216797</ele>
        <time>2016-09-21T15:27:54.000Z</time>
      </trkpt>
      <trkpt lon="0.3059746623039246" lat="49.1948127746582031">
        <ele>152.5492706298828</ele>
        <time>2016-09-21T15:27:56.000Z</time>
      </trkpt>
      <trkpt lon="0.3058853149414062" lat="49.1946945190429688">
        <ele>152.69264221191406</ele>
        <time>2016-09-21T15:27:58.000Z</time>
      </trkpt>
      <trkpt lon="0.3057652115821838" lat="49.1945762634277344">
        <ele>152.791015625</ele>
        <time>2016-09-21T15:28:01.000Z</time>
      </trkpt>
      <trkpt lon="0.3056282401084900" lat="49.1944808959960938">
        <ele>152.803955078125</ele>
        <time>2016-09-21T15:28:04.000Z</time>
      </trkpt>
      <trkpt lon="0.3055420815944672" lat="49.1944122314453125">
        <ele>152.77078247070312</ele>
        <time>2016-09-21T15:28:06.000Z</time>
      </trkpt>
      <trkpt lon="0.3054064512252808" lat="49.1943016052246094">
        <ele>152.68544006347656</ele>
        <time>2016-09-21T15:28:09.000Z</time>
      </trkpt>
      <trkpt lon="0.3052358031272888" lat="49.1941947937011719">
        <ele>152.5498809814453</ele>
        <time>2016-09-21T15:28:12.000Z</time>
      </trkpt>
      <trkpt lon="0.3051122426986694" lat="49.1941299438476562">
        <ele>152.41708374023438</ele>
        <time>2016-09-21T15:28:14.000Z</time>
      </trkpt>
      <trkpt lon="0.3049660623073578" lat="49.1939888000488281">
        <ele>152.3679962158203</ele>
        <time>2016-09-21T15:28:17.000Z</time>
      </trkpt>
      <trkpt lon="0.3048303723335266" lat="49.1938591003417969">
        <ele>152.39083862304688</ele>
        <time>2016-09-21T15:28:20.000Z</time>
      </trkpt>
      <trkpt lon="0.3046787381172180" lat="49.1937141418457031">
        <ele>152.48574829101562</ele>
        <time>2016-09-21T15:28:23.000Z</time>
      </trkpt>
      <trkpt lon="0.3045940995216370" lat="49.1936225891113281">
        <ele>152.630859375</ele>
        <time>2016-09-21T15:28:25.000Z</time>
      </trkpt>
      <trkpt lon="0.3044336438179016" lat="49.1935119628906250">
        <ele>152.79486083984375</ele>
        <time>2016-09-21T15:28:28.000Z</time>
      </trkpt>
      <trkpt lon="0.3042957782745361" lat="49.1934013366699219">
        <ele>152.92431640625</ele>
        <time>2016-09-21T15:28:31.000Z</time>
      </trkpt>
      <trkpt lon="0.3042065203189850" lat="49.1933250427246094">
        <ele>153.0030975341797</ele>
        <time>2016-09-21T15:28:33.000Z</time>
      </trkpt>
      <trkpt lon="0.3040617406368256" lat="49.1931915283203125">
        <ele>153.0655059814453</ele>
        <time>2016-09-21T15:28:36.000Z</time>
      </trkpt>
      <trkpt lon="0.3039218485355377" lat="49.1930770874023438">
        <ele>153.14749145507812</ele>
        <time>2016-09-21T15:28:39.000Z</time>
      </trkpt>
      <trkpt lon="0.3037764430046082" lat="49.1929588317871094">
        <ele>153.2720184326172</ele>
        <time>2016-09-21T15:28:42.000Z</time>
      </trkpt>
      <trkpt lon="0.3036677241325378" lat="49.1928863525390625">
        <ele>153.43063354492188</ele>
        <time>2016-09-21T15:28:44.000Z</time>
      </trkpt>
      <trkpt lon="0.3035745918750763" lat="49.1927757263183594">
        <ele>153.64776611328125</ele>
        <time>2016-09-21T15:28:47.000Z</time>
      </trkpt>
      <trkpt lon="0.3034606873989105" lat="49.1926689147949219">
        <ele>153.9048309326172</ele>
        <time>2016-09-21T15:28:50.000Z</time>
      </trkpt>
      <trkpt lon="0.3033444285392761" lat="49.1925544738769531">
        <ele>154.19747924804688</ele>
        <time>2016-09-21T15:28:53.000Z</time>
      </trkpt>
      <trkpt lon="0.3031980693340302" lat="49.1924438476562500">
        <ele>154.50987243652344</ele>
        <time>2016-09-21T15:28:56.000Z</time>
      </trkpt>
      <trkpt lon="0.3030554950237274" lat="49.1923370361328125">
        <ele>154.83135986328125</ele>
        <time>2016-09-21T15:28:59.000Z</time>
      </trkpt>
      <trkpt lon="0.3029401600360870" lat="49.1922187805175781">
        <ele>155.13302612304688</ele>
        <time>2016-09-21T15:29:02.000Z</time>
      </trkpt>
      <trkpt lon="0.3027989268302917" lat="49.1921081542968750">
        <ele>155.4000701904297</ele>
        <time>2016-09-21T15:29:05.000Z</time>
      </trkpt>
      <trkpt lon="0.3026754558086395" lat="49.1919860839843750">
        <ele>155.6123046875</ele>
        <time>2016-09-21T15:29:08.000Z</time>
      </trkpt>
      <trkpt lon="0.3025235831737518" lat="49.1918640136718750">
        <ele>155.76724243164062</ele>
        <time>2016-09-21T15:29:11.000Z</time>
      </trkpt>
      <trkpt lon="0.3023708760738373" lat="49.1917457580566406">
        <ele>155.84365844726562</ele>
        <time>2016-09-21T15:29:14.000Z</time>
      </trkpt>
      <trkpt lon="0.3022493422031403" lat="49.1916160583496094">
        <ele>155.845458984375</ele>
        <time>2016-09-21T15:29:17.000Z</time>
      </trkpt>
      <trkpt lon="0.3021258711814880" lat="49.1915130615234375">
        <ele>155.77304077148438</ele>
        <time>2016-09-21T15:29:20.000Z</time>
      </trkpt>
      <trkpt lon="0.3020425438880920" lat="49.1914215087890625">
        <ele>155.65286254882812</ele>
        <time>2016-09-21T15:29:22.000Z</time>
      </trkpt>
      <trkpt lon="0.3018920123577118" lat="49.1913337707519531">
        <ele>155.48663330078125</ele>
        <time>2016-09-21T15:29:25.000Z</time>
      </trkpt>
      <trkpt lon="0.3017370402812958" lat="49.1912231445312500">
        <ele>155.3255157470703</ele>
        <time>2016-09-21T15:29:28.000Z</time>
      </trkpt>
      <trkpt lon="0.3016557395458221" lat="49.1910667419433594">
        <ele>155.19314575195312</ele>
        <time>2016-09-21T15:29:31.000Z</time>
      </trkpt>
      <trkpt lon="0.3015190958976746" lat="49.1909790039062500">
        <ele>155.09719848632812</ele>
        <time>2016-09-21T15:29:33.000Z</time>
      </trkpt>
      <trkpt lon="0.3014113903045654" lat="49.1909255981445312">
        <ele>155.02658081054688</ele>
        <time>2016-09-21T15:29:35.000Z</time>
      </trkpt>
      <trkpt lon="0.3013583421707153" lat="49.1908798217773438">
        <ele>154.98989868164062</ele>
        <time>2016-09-21T15:29:37.000Z</time>
      </trkpt>
      <trkpt lon="0.3012005090713501" lat="49.1907806396484375">
        <ele>154.9876708984375</ele>
        <time>2016-09-21T15:29:40.000Z</time>
      </trkpt>
      <trkpt lon="0.3011238873004913" lat="49.1906776428222656">
        <ele>155.0014190673828</ele>
        <time>2016-09-21T15:29:42.000Z</time>
      </trkpt>
      <trkpt lon="0.3010199666023254" lat="49.1906280517578125">
        <ele>155.01856994628906</ele>
        <time>2016-09-21T15:29:44.000Z</time>
      </trkpt>
      <trkpt lon="0.3009297847747803" lat="49.1905212402343750">
        <ele>155.0341339111328</ele>
        <time>2016-09-21T15:29:47.000Z</time>
      </trkpt>
      <trkpt lon="0.3008332252502441" lat="49.1903915405273438">
        <ele>155.0383758544922</ele>
        <time>2016-09-21T15:29:50.000Z</time>
      </trkpt>
      <trkpt lon="0.3007672429084778" lat="49.1903076171875000">
        <ele>155.02684020996094</ele>
        <time>2016-09-21T15:29:52.000Z</time>
      </trkpt>
      <trkpt lon="0.3007037043571472" lat="49.1902275085449219">
        <ele>155.00538635253906</ele>
        <time>2016-09-21T15:29:54.000Z</time>
      </trkpt>
      <trkpt lon="0.3006313741207123" lat="49.1901054382324219">
        <ele>154.9883575439453</ele>
        <time>2016-09-21T15:29:57.000Z</time>
      </trkpt>
      <trkpt lon="0.3005722761154175" lat="49.1900291442871094">
        <ele>154.977294921875</ele>
        <time>2016-09-21T15:29:59.000Z</time>
      </trkpt>
      <trkpt lon="0.3005056381225586" lat="49.1898956298828125">
        <ele>155.0269317626953</ele>
        <time>2016-09-21T15:30:02.000Z</time>
      </trkpt>
      <trkpt lon="0.3004822731018066" lat="49.1898117065429688">
        <ele>155.1234130859375</ele>
        <time>2016-09-21T15:30:04.000Z</time>
      </trkpt>
      <trkpt lon="0.3004318773746490" lat="49.1896858215332031">
        <ele>155.28302001953125</ele>
        <time>2016-09-21T15:30:07.000Z</time>
      </trkpt>
      <trkpt lon="0.3004160523414612" lat="49.1895980834960938">
        <ele>155.4812774658203</ele>
        <time>2016-09-21T15:30:09.000Z</time>
      </trkpt>
      <trkpt lon="0.3003566861152649" lat="49.1894683837890625">
        <ele>155.73828125</ele>
        <time>2016-09-21T15:30:12.000Z</time>
      </trkpt>
      <trkpt lon="0.3003120124340057" lat="49.1893539428710938">
        <ele>155.998046875</ele>
        <time>2016-09-21T15:30:15.000Z</time>
      </trkpt>
      <trkpt lon="0.3002847731113434" lat="49.1892356872558594">
        <ele>156.2734375</ele>
        <time>2016-09-21T15:30:18.000Z</time>
      </trkpt>
      <trkpt lon="0.3002492487430573" lat="49.1891174316406250">
        <ele>156.54830932617188</ele>
        <time>2016-09-21T15:30:21.000Z</time>
      </trkpt>
      <trkpt lon="0.3002308011054993" lat="49.1890411376953125">
        <ele>156.8241729736328</ele>
        <time>2016-09-21T15:30:23.000Z</time>
      </trkpt>
      <trkpt lon="0.3002116978168488" lat="49.1889686584472656">
        <ele>157.0764617919922</ele>
        <time>2016-09-21T15:30:25.000Z</time>
      </trkpt>
      <trkpt lon="0.3001795113086700" lat="49.1888542175292969">
        <ele>157.33279418945312</ele>
        <time>2016-09-21T15:30:28.000Z</time>
      </trkpt>
      <trkpt lon="0.3001443743705750" lat="49.1887435913085938">
        <ele>157.58665466308594</ele>
        <time>2016-09-21T15:30:31.000Z</time>
      </trkpt>
      <trkpt lon="0.3001139461994171" lat="49.1886253356933594">
        <ele>157.83731079101562</ele>
        <time>2016-09-21T15:30:34.000Z</time>
      </trkpt>
      <trkpt lon="0.3000785112380981" lat="49.1885185241699219">
        <ele>158.09567260742188</ele>
        <time>2016-09-21T15:30:37.000Z</time>
      </trkpt>
      <trkpt lon="0.3000539541244507" lat="49.1884460449218750">
        <ele>158.34678649902344</ele>
        <time>2016-09-21T15:30:39.000Z</time>
      </trkpt>
      <trkpt lon="0.3000096082687378" lat="49.1883392333984375">
        <ele>158.58102416992188</ele>
        <time>2016-09-21T15:30:42.000Z</time>
      </trkpt>
      <trkpt lon="0.2999713718891144" lat="49.1882400512695312">
        <ele>158.82794189453125</ele>
        <time>2016-09-21T15:30:45.000Z</time>
      </trkpt>
      <trkpt lon="0.2999330759048462" lat="49.1881370544433594">
        <ele>159.09129333496094</ele>
        <time>2016-09-21T15:30:48.000Z</time>
      </trkpt>
      <trkpt lon="0.2999067604541779" lat="49.1880340576171875">
        <ele>159.381103515625</ele>
        <time>2016-09-21T15:30:51.000Z</time>
      </trkpt>
      <trkpt lon="0.2998917698860168" lat="49.1879692077636719">
        <ele>159.6860809326172</ele>
        <time>2016-09-21T15:30:53.000Z</time>
      </trkpt>
      <trkpt lon="0.2998687922954559" lat="49.1878700256347656">
        <ele>160.01953125</ele>
        <time>2016-09-21T15:30:56.000Z</time>
      </trkpt>
      <trkpt lon="0.2998535335063934" lat="49.1877861022949219">
        <ele>160.34765625</ele>
        <time>2016-09-21T15:30:59.000Z</time>
      </trkpt>
      <trkpt lon="0.2998309135437012" lat="49.1877021789550781">
        <ele>160.6611328125</ele>
        <time>2016-09-21T15:31:02.000Z</time>
      </trkpt>
      <trkpt lon="0.2997336685657501" lat="49.1876564025878906">
        <ele>160.93359375</ele>
        <time>2016-09-21T15:31:05.000Z</time>
      </trkpt>
      <trkpt lon="0.2995656132698059" lat="49.1876564025878906">
        <ele>161.1591796875</ele>
        <time>2016-09-21T15:31:08.000Z</time>
      </trkpt>
      <trkpt lon="0.2993927001953125" lat="49.1876869201660156">
        <ele>161.291015625</ele>
        <time>2016-09-21T15:31:11.000Z</time>
      </trkpt>
      <trkpt lon="0.2992854118347168" lat="49.1877021789550781">
        <ele>161.349609375</ele>
        <time>2016-09-21T15:31:13.000Z</time>
      </trkpt>
      <trkpt lon="0.2991832196712494" lat="49.1877212524414062">
        <ele>161.337890625</ele>
        <time>2016-09-21T15:31:15.000Z</time>
      </trkpt>
      <trkpt lon="0.2990786135196686" lat="49.1877403259277344">
        <ele>161.31253051757812</ele>
        <time>2016-09-21T15:31:17.000Z</time>
      </trkpt>
      <trkpt lon="0.2989310324192047" lat="49.1877708435058594">
        <ele>161.32217407226562</ele>
        <time>2016-09-21T15:31:20.000Z</time>
      </trkpt>
      <trkpt lon="0.2987878620624542" lat="49.1877937316894531">
        <ele>161.3958740234375</ele>
        <time>2016-09-21T15:31:23.000Z</time>
      </trkpt>
      <trkpt lon="0.2986184656620026" lat="49.1878166198730469">
        <ele>161.52687072753906</ele>
        <time>2016-09-21T15:31:26.000Z</time>
      </trkpt>
      <trkpt lon="0.2984982728958130" lat="49.1878395080566406">
        <ele>161.69772338867188</ele>
        <time>2016-09-21T15:31:28.000Z</time>
      </trkpt>
      <trkpt lon="0.2982252538204193" lat="49.1879119873046875">
        <ele>161.85269165039062</ele>
        <time>2016-09-21T15:31:31.000Z</time>
      </trkpt>
      <trkpt lon="0.2980230152606964" lat="49.1879844665527344">
        <ele>161.9327850341797</ele>
        <time>2016-09-21T15:31:34.000Z</time>
      </trkpt>
      <trkpt lon="0.2979075014591217" lat="49.1880264282226562">
        <ele>161.95431518554688</ele>
        <time>2016-09-21T15:31:36.000Z</time>
      </trkpt>
      <trkpt lon="0.2977035045623779" lat="49.1881065368652344">
        <ele>161.89776611328125</ele>
        <time>2016-09-21T15:31:39.000Z</time>
      </trkpt>
      <trkpt lon="0.2975797057151794" lat="49.1881599426269531">
        <ele>161.7953643798828</ele>
        <time>2016-09-21T15:31:41.000Z</time>
      </trkpt>
      <trkpt lon="0.2974007427692413" lat="49.1882171630859375">
        <ele>161.6581268310547</ele>
        <time>2016-09-21T15:31:44.000Z</time>
      </trkpt>
      <trkpt lon="0.2972131371498108" lat="49.1882820129394531">
        <ele>161.5128936767578</ele>
        <time>2016-09-21T15:31:47.000Z</time>
      </trkpt>
      <trkpt lon="0.2970471084117889" lat="49.1883316040039062">
        <ele>161.35433959960938</ele>
        <time>2016-09-21T15:31:50.000Z</time>
      </trkpt>
      <trkpt lon="0.2968760430812836" lat="49.1883888244628906">
        <ele>161.1941375732422</ele>
        <time>2016-09-21T15:31:53.000Z</time>
      </trkpt>
      <trkpt lon="0.2967571616172791" lat="49.1884231567382812">
        <ele>161.03579711914062</ele>
        <time>2016-09-21T15:31:55.000Z</time>
      </trkpt>
      <trkpt lon="0.2965795695781708" lat="49.1884727478027344">
        <ele>160.8914794921875</ele>
        <time>2016-09-21T15:31:58.000Z</time>
      </trkpt>
      <trkpt lon="0.2964491546154022" lat="49.1884994506835938">
        <ele>160.78831481933594</ele>
        <time>2016-09-21T15:32:00.000Z</time>
      </trkpt>
      <trkpt lon="0.2963193953037262" lat="49.1885375976562500">
        <ele>160.7087860107422</ele>
        <time>2016-09-21T15:32:02.000Z</time>
      </trkpt>
      <trkpt lon="0.2961139380931854" lat="49.1885757446289062">
        <ele>160.66375732421875</ele>
        <time>2016-09-21T15:32:05.000Z</time>
      </trkpt>
      <trkpt lon="0.2959905564785004" lat="49.1886138916015625">
        <ele>160.63150024414062</ele>
        <time>2016-09-21T15:32:07.000Z</time>
      </trkpt>
      <trkpt lon="0.2958688735961914" lat="49.1886482238769531">
        <ele>160.61618041992188</ele>
        <time>2016-09-21T15:32:09.000Z</time>
      </trkpt>
      <trkpt lon="0.2957551181316376" lat="49.1886901855468750">
        <ele>160.62777709960938</ele>
        <time>2016-09-21T15:32:11.000Z</time>
      </trkpt>
      <trkpt lon="0.2955675423145294" lat="49.1887512207031250">
        <ele>160.70054626464844</ele>
        <time>2016-09-21T15:32:14.000Z</time>
      </trkpt>
      <trkpt lon="0.2954525351524353" lat="49.1887817382812500">
        <ele>160.81076049804688</ele>
        <time>2016-09-21T15:32:16.000Z</time>
      </trkpt>
      <trkpt lon="0.2953298091888428" lat="49.1888160705566406">
        <ele>160.96627807617188</ele>
        <time>2016-09-21T15:32:18.000Z</time>
      </trkpt>
      <trkpt lon="0.2951477766036987" lat="49.1888618469238281">
        <ele>161.18685913085938</ele>
        <time>2016-09-21T15:32:21.000Z</time>
      </trkpt>
      <trkpt lon="0.2949528098106384" lat="49.1888999938964844">
        <ele>161.45297241210938</ele>
        <time>2016-09-21T15:32:24.000Z</time>
      </trkpt>
      <trkpt lon="0.2947582602500916" lat="49.1889457702636719">
        <ele>161.7003631591797</ele>
        <time>2016-09-21T15:32:27.000Z</time>
      </trkpt>
      <trkpt lon="0.2946290075778961" lat="49.1889839172363281">
        <ele>161.9370574951172</ele>
        <time>2016-09-21T15:32:29.000Z</time>
      </trkpt>
      <trkpt lon="0.2944252490997314" lat="49.1890182495117188">
        <ele>162.1751708984375</ele>
        <time>2016-09-21T15:32:32.000Z</time>
      </trkpt>
      <trkpt lon="0.2942996919155121" lat="49.1890563964843750">
        <ele>162.3786163330078</ele>
        <time>2016-09-21T15:32:34.000Z</time>
      </trkpt>
      <trkpt lon="0.2941110134124756" lat="49.1891021728515625">
        <ele>162.5690460205078</ele>
        <time>2016-09-21T15:32:37.000Z</time>
      </trkpt>
      <trkpt lon="0.2939852774143219" lat="49.1891365051269531">
        <ele>162.76260375976562</ele>
        <time>2016-09-21T15:32:39.000Z</time>
      </trkpt>
      <trkpt lon="0.2937897443771362" lat="49.1891899108886719">
        <ele>162.97813415527344</ele>
        <time>2016-09-21T15:32:42.000Z</time>
      </trkpt>
      <trkpt lon="0.2936231791973114" lat="49.1892433166503906">
        <ele>163.1773223876953</ele>
        <time>2016-09-21T15:32:45.000Z</time>
      </trkpt>
      <trkpt lon="0.2934879958629608" lat="49.1892967224121094">
        <ele>163.36312866210938</ele>
        <time>2016-09-21T15:32:48.000Z</time>
      </trkpt>
      <trkpt lon="0.2933768332004547" lat="49.1893424987792969">
        <ele>163.51217651367188</ele>
        <time>2016-09-21T15:32:50.000Z</time>
      </trkpt>
      <trkpt lon="0.2931713163852692" lat="49.1893997192382812">
        <ele>163.59202575683594</ele>
        <time>2016-09-21T15:32:53.000Z</time>
      </trkpt>
      <trkpt lon="0.2929761111736298" lat="49.1894760131835938">
        <ele>163.57847595214844</ele>
        <time>2016-09-21T15:32:56.000Z</time>
      </trkpt>
      <trkpt lon="0.2927896976470947" lat="49.1895599365234375">
        <ele>163.50282287597656</ele>
        <time>2016-09-21T15:32:59.000Z</time>
      </trkpt>
      <trkpt lon="0.2926120758056641" lat="49.1896629333496094">
        <ele>163.3824005126953</ele>
        <time>2016-09-21T15:33:02.000Z</time>
      </trkpt>
      <trkpt lon="0.2925203740596771" lat="49.1897163391113281">
        <ele>163.2368927001953</ele>
        <time>2016-09-21T15:33:04.000Z</time>
      </trkpt>
      <trkpt lon="0.2923717498779297" lat="49.1897735595703125">
        <ele>163.1209259033203</ele>
        <time>2016-09-21T15:33:07.000Z</time>
      </trkpt>
      <trkpt lon="0.2922201454639435" lat="49.1898498535156250">
        <ele>163.04928588867188</ele>
        <time>2016-09-21T15:33:10.000Z</time>
      </trkpt>
      <trkpt lon="0.2920120060443878" lat="49.1898841857910156">
        <ele>163.01248168945312</ele>
        <time>2016-09-21T15:33:13.000Z</time>
      </trkpt>
      <trkpt lon="0.2918514013290405" lat="49.1898956298828125">
        <ele>163.0016632080078</ele>
        <time>2016-09-21T15:33:15.000Z</time>
      </trkpt>
      <trkpt lon="0.2916377484798431" lat="49.1899185180664062">
        <ele>163.00555419921875</ele>
        <time>2016-09-21T15:33:18.000Z</time>
      </trkpt>
      <trkpt lon="0.2914179861545563" lat="49.1899490356445312">
        <ele>163.05801391601562</ele>
        <time>2016-09-21T15:33:21.000Z</time>
      </trkpt>
      <trkpt lon="0.2912584841251373" lat="49.1899566650390625">
        <ele>163.14602661132812</ele>
        <time>2016-09-21T15:33:23.000Z</time>
      </trkpt>
      <trkpt lon="0.2910889983177185" lat="49.1899452209472656">
        <ele>163.2665252685547</ele>
        <time>2016-09-21T15:33:25.000Z</time>
      </trkpt>
      <trkpt lon="0.2908424139022827" lat="49.1899375915527344">
        <ele>163.43460083007812</ele>
        <time>2016-09-21T15:33:28.000Z</time>
      </trkpt>
      <trkpt lon="0.2906760275363922" lat="49.1899261474609375">
        <ele>163.55874633789062</ele>
        <time>2016-09-21T15:33:30.000Z</time>
      </trkpt>
      <trkpt lon="0.2904917895793915" lat="49.1898994445800781">
        <ele>163.58642578125</ele>
        <time>2016-09-21T15:33:32.000Z</time>
      </trkpt>
      <trkpt lon="0.2902098894119263" lat="49.1898689270019531">
        <ele>163.50918579101562</ele>
        <time>2016-09-21T15:33:35.000Z</time>
      </trkpt>
      <trkpt lon="0.2900274395942688" lat="49.1898994445800781">
        <ele>163.3706512451172</ele>
        <time>2016-09-21T15:33:37.000Z</time>
      </trkpt>
      <trkpt lon="0.2897812426090240" lat="49.1899642944335938">
        <ele>163.08938598632812</ele>
        <time>2016-09-21T15:33:40.000Z</time>
      </trkpt>
      <trkpt lon="0.2895021438598633" lat="49.1900024414062500">
        <ele>162.72140502929688</ele>
        <time>2016-09-21T15:33:43.000Z</time>
      </trkpt>
      <trkpt lon="0.2891952693462372" lat="49.1900405883789062">
        <ele>162.27310180664062</ele>
        <time>2016-09-21T15:33:46.000Z</time>
      </trkpt>
      <trkpt lon="0.2888562977313995" lat="49.1900215148925781">
        <ele>161.7987823486328</ele>
        <time>2016-09-21T15:33:49.000Z</time>
      </trkpt>
      <trkpt lon="0.2885281443595886" lat="49.1900253295898438">
        <ele>161.27645874023438</ele>
        <time>2016-09-21T15:33:52.000Z</time>
      </trkpt>
      <trkpt lon="0.2882153391838074" lat="49.1899795532226562">
        <ele>160.75155639648438</ele>
        <time>2016-09-21T15:33:55.000Z</time>
      </trkpt>
      <trkpt lon="0.2879982590675354" lat="49.1899757385253906">
        <ele>160.29940795898438</ele>
        <time>2016-09-21T15:33:57.000Z</time>
      </trkpt>
      <trkpt lon="0.2876912355422974" lat="49.1898918151855469">
        <ele>159.88177490234375</ele>
        <time>2016-09-21T15:34:00.000Z</time>
      </trkpt>
      <trkpt lon="0.2873776555061340" lat="49.1898269653320312">
        <ele>159.4451904296875</ele>
        <time>2016-09-21T15:34:03.000Z</time>
      </trkpt>
      <trkpt lon="0.2870338261127472" lat="49.1898078918457031">
        <ele>158.91549682617188</ele>
        <time>2016-09-21T15:34:06.000Z</time>
      </trkpt>
      <trkpt lon="0.2866733968257904" lat="49.1898117065429688">
        <ele>158.31149291992188</ele>
        <time>2016-09-21T15:34:09.000Z</time>
      </trkpt>
      <trkpt lon="0.2863446772098541" lat="49.1898231506347656">
        <ele>157.6658935546875</ele>
        <time>2016-09-21T15:34:12.000Z</time>
      </trkpt>
      <trkpt lon="0.2861431837081909" lat="49.1898498535156250">
        <ele>157.0681610107422</ele>
        <time>2016-09-21T15:34:14.000Z</time>
      </trkpt>
      <trkpt lon="0.2858626246452332" lat="49.1899070739746094">
        <ele>156.53236389160156</ele>
        <time>2016-09-21T15:34:17.000Z</time>
      </trkpt>
      <trkpt lon="0.2855964899063110" lat="49.1899604797363281">
        <ele>156.1814422607422</ele>
        <time>2016-09-21T15:34:20.000Z</time>
      </trkpt>
      <trkpt lon="0.2853286266326904" lat="49.1900062561035156">
        <ele>156.0272674560547</ele>
        <time>2016-09-21T15:34:23.000Z</time>
      </trkpt>
      <trkpt lon="0.2850871384143829" lat="49.1900520324707031">
        <ele>155.9892120361328</ele>
        <time>2016-09-21T15:34:26.000Z</time>
      </trkpt>
      <trkpt lon="0.2849429547786713" lat="49.1900749206542969">
        <ele>155.98291015625</ele>
        <time>2016-09-21T15:34:28.000Z</time>
      </trkpt>
      <trkpt lon="0.2848015725612640" lat="49.1901321411132812">
        <ele>155.994873046875</ele>
        <time>2016-09-21T15:34:30.000Z</time>
      </trkpt>
      <trkpt lon="0.2845899164676666" lat="49.1901855468750000">
        <ele>155.92996215820312</ele>
        <time>2016-09-21T15:34:33.000Z</time>
      </trkpt>
      <trkpt lon="0.2844040989875793" lat="49.1901893615722656">
        <ele>155.7637481689453</ele>
        <time>2016-09-21T15:34:35.000Z</time>
      </trkpt>
      <trkpt lon="0.2842326760292053" lat="49.1902084350585938">
        <ele>155.51670837402344</ele>
        <time>2016-09-21T15:34:37.000Z</time>
      </trkpt>
      <trkpt lon="0.2839868366718292" lat="49.1902770996093750">
        <ele>155.27609252929688</ele>
        <time>2016-09-21T15:34:40.000Z</time>
      </trkpt>
      <trkpt lon="0.2837644815444946" lat="49.1902885437011719">
        <ele>155.04037475585938</ele>
        <time>2016-09-21T15:34:43.000Z</time>
      </trkpt>
      <trkpt lon="0.2834163010120392" lat="49.1903076171875000">
        <ele>154.8147430419922</ele>
        <time>2016-09-21T15:34:46.000Z</time>
      </trkpt>
      <trkpt lon="0.2832447886466980" lat="49.1903419494628906">
        <ele>154.6501922607422</ele>
        <time>2016-09-21T15:34:48.000Z</time>
      </trkpt>
      <trkpt lon="0.2830855250358582" lat="49.1903686523437500">
        <ele>154.53350830078125</ele>
        <time>2016-09-21T15:34:50.000Z</time>
      </trkpt>
      <trkpt lon="0.2829349935054779" lat="49.1904144287109375">
        <ele>154.41574096679688</ele>
        <time>2016-09-21T15:34:52.000Z</time>
      </trkpt>
      <trkpt lon="0.2826897501945496" lat="49.1904487609863281">
        <ele>154.30006408691406</ele>
        <time>2016-09-21T15:34:55.000Z</time>
      </trkpt>
      <trkpt lon="0.2825239598751068" lat="49.1904792785644531">
        <ele>154.21481323242188</ele>
        <time>2016-09-21T15:34:57.000Z</time>
      </trkpt>
      <trkpt lon="0.2823623418807983" lat="49.1905136108398438">
        <ele>154.16226196289062</ele>
        <time>2016-09-21T15:34:59.000Z</time>
      </trkpt>
      <trkpt lon="0.2821221351623535" lat="49.1905708312988281">
        <ele>154.16236877441406</ele>
        <time>2016-09-21T15:35:02.000Z</time>
      </trkpt>
      <trkpt lon="0.2819287478923798" lat="49.1906089782714844">
        <ele>154.21072387695312</ele>
        <time>2016-09-21T15:35:04.000Z</time>
      </trkpt>
      <trkpt lon="0.2817079722881317" lat="49.1906471252441406">
        <ele>154.33334350585938</ele>
        <time>2016-09-21T15:35:07.000Z</time>
      </trkpt>
      <trkpt lon="0.2814748585224152" lat="49.1906929016113281">
        <ele>154.4966278076172</ele>
        <time>2016-09-21T15:35:10.000Z</time>
      </trkpt>
      <trkpt lon="0.2812519073486328" lat="49.1907501220703125">
        <ele>154.65647888183594</ele>
        <time>2016-09-21T15:35:13.000Z</time>
      </trkpt>
      <trkpt lon="0.2810338139533997" lat="49.1907920837402344">
        <ele>154.78427124023438</ele>
        <time>2016-09-21T15:35:16.000Z</time>
      </trkpt>
      <trkpt lon="0.2808230817317963" lat="49.1908416748046875">
        <ele>154.88937377929688</ele>
        <time>2016-09-21T15:35:19.000Z</time>
      </trkpt>
      <trkpt lon="0.2806159853935242" lat="49.1908836364746094">
        <ele>154.97640991210938</ele>
        <time>2016-09-21T15:35:22.000Z</time>
      </trkpt>
      <trkpt lon="0.2804855406284332" lat="49.1909255981445312">
        <ele>155.0673065185547</ele>
        <time>2016-09-21T15:35:24.000Z</time>
      </trkpt>
      <trkpt lon="0.2802797853946686" lat="49.1909790039062500">
        <ele>155.168701171875</ele>
        <time>2016-09-21T15:35:27.000Z</time>
      </trkpt>
      <trkpt lon="0.2800611853599548" lat="49.1910247802734375">
        <ele>155.27342224121094</ele>
        <time>2016-09-21T15:35:30.000Z</time>
      </trkpt>
      <trkpt lon="0.2798528075218201" lat="49.1910896301269531">
        <ele>155.35549926757812</ele>
        <time>2016-09-21T15:35:33.000Z</time>
      </trkpt>
      <trkpt lon="0.2797123193740845" lat="49.1911506652832031">
        <ele>155.40415954589844</ele>
        <time>2016-09-21T15:35:35.000Z</time>
      </trkpt>
      <trkpt lon="0.2794637978076935" lat="49.1912155151367188">
        <ele>155.4011688232422</ele>
        <time>2016-09-21T15:35:38.000Z</time>
      </trkpt>
      <trkpt lon="0.2792369723320007" lat="49.1912918090820312">
        <ele>155.35671997070312</ele>
        <time>2016-09-21T15:35:41.000Z</time>
      </trkpt>
      <trkpt lon="0.2789729535579681" lat="49.1913528442382812">
        <ele>155.2360382080078</ele>
        <time>2016-09-21T15:35:44.000Z</time>
      </trkpt>
      <trkpt lon="0.2787427902221680" lat="49.1914405822753906">
        <ele>155.06369018554688</ele>
        <time>2016-09-21T15:35:47.000Z</time>
      </trkpt>
      <trkpt lon="0.2785780727863312" lat="49.1915206909179688">
        <ele>154.85276794433594</ele>
        <time>2016-09-21T15:35:49.000Z</time>
      </trkpt>
      <trkpt lon="0.2783391177654266" lat="49.1916389465332031">
        <ele>154.59414672851562</ele>
        <time>2016-09-21T15:35:52.000Z</time>
      </trkpt>
      <trkpt lon="0.2781194150447845" lat="49.1917610168457031">
        <ele>154.30563354492188</ele>
        <time>2016-09-21T15:35:55.000Z</time>
      </trkpt>
      <trkpt lon="0.2779219448566437" lat="49.1918869018554688">
        <ele>154.0327911376953</ele>
        <time>2016-09-21T15:35:58.000Z</time>
      </trkpt>
      <trkpt lon="0.2777985632419586" lat="49.1919898986816406">
        <ele>153.78945922851562</ele>
        <time>2016-09-21T15:36:00.000Z</time>
      </trkpt>
      <trkpt lon="0.2776434123516083" lat="49.1921348571777344">
        <ele>153.55191040039062</ele>
        <time>2016-09-21T15:36:03.000Z</time>
      </trkpt>
      <trkpt lon="0.2775084674358368" lat="49.1922454833984375">
        <ele>153.35804748535156</ele>
        <time>2016-09-21T15:36:05.000Z</time>
      </trkpt>
      <trkpt lon="0.2773632109165192" lat="49.1923370361328125">
        <ele>153.14370727539062</ele>
        <time>2016-09-21T15:36:07.000Z</time>
      </trkpt>
      <trkpt lon="0.2772275805473328" lat="49.1925086975097656">
        <ele>152.9167022705078</ele>
        <time>2016-09-21T15:36:10.000Z</time>
      </trkpt>
      <trkpt lon="0.2770845890045166" lat="49.1926460266113281">
        <ele>152.73397827148438</ele>
        <time>2016-09-21T15:36:13.000Z</time>
      </trkpt>
      <trkpt lon="0.2769271731376648" lat="49.1927223205566406">
        <ele>152.5668487548828</ele>
        <time>2016-09-21T15:36:15.000Z</time>
      </trkpt>
      <trkpt lon="0.2768183052539825" lat="49.1927795410156250">
        <ele>152.4280242919922</ele>
        <time>2016-09-21T15:36:17.000Z</time>
      </trkpt>
      <trkpt lon="0.2766767442226410" lat="49.1928863525390625">
        <ele>152.37631225585938</ele>
        <time>2016-09-21T15:36:20.000Z</time>
      </trkpt>
      <trkpt lon="0.2764659225940704" lat="49.1929931640625000">
        <ele>152.40896606445312</ele>
        <time>2016-09-21T15:36:23.000Z</time>
      </trkpt>
      <trkpt lon="0.2762873172760010" lat="49.1930999755859375">
        <ele>152.4602508544922</ele>
        <time>2016-09-21T15:36:26.000Z</time>
      </trkpt>
      <trkpt lon="0.2760855555534363" lat="49.1931991577148438">
        <ele>152.5579833984375</ele>
        <time>2016-09-21T15:36:29.000Z</time>
      </trkpt>
      <trkpt lon="0.2758856415748596" lat="49.1933059692382812">
        <ele>152.68798828125</ele>
        <time>2016-09-21T15:36:32.000Z</time>
      </trkpt>
      <trkpt lon="0.2757428288459778" lat="49.1933631896972656">
        <ele>152.78518676757812</ele>
        <time>2016-09-21T15:36:34.000Z</time>
      </trkpt>
      <trkpt lon="0.2755488753318787" lat="49.1934661865234375">
        <ele>152.83163452148438</ele>
        <time>2016-09-21T15:36:37.000Z</time>
      </trkpt>
      <trkpt lon="0.2754337787628174" lat="49.1935234069824219">
        <ele>152.83897399902344</ele>
        <time>2016-09-21T15:36:39.000Z</time>
      </trkpt>
      <trkpt lon="0.2752249836921692" lat="49.1936302185058594">
        <ele>152.8325958251953</ele>
        <time>2016-09-21T15:36:42.000Z</time>
      </trkpt>
      <trkpt lon="0.2750188708305359" lat="49.1937332153320312">
        <ele>152.8317413330078</ele>
        <time>2016-09-21T15:36:45.000Z</time>
      </trkpt>
      <trkpt lon="0.2749021947383881" lat="49.1937866210937500">
        <ele>152.83323669433594</ele>
        <time>2016-09-21T15:36:47.000Z</time>
      </trkpt>
      <trkpt lon="0.2747628092765808" lat="49.1938323974609375">
        <ele>152.82803344726562</ele>
        <time>2016-09-21T15:36:49.000Z</time>
      </trkpt>
      <trkpt lon="0.2746288776397705" lat="49.1938972473144531">
        <ele>152.80152893066406</ele>
        <time>2016-09-21T15:36:51.000Z</time>
      </trkpt>
      <trkpt lon="0.2745033800601959" lat="49.1939620971679688">
        <ele>152.73538208007812</ele>
        <time>2016-09-21T15:36:53.000Z</time>
      </trkpt>
      <trkpt lon="0.2742896378040314" lat="49.1940574645996094">
        <ele>152.57247924804688</ele>
        <time>2016-09-21T15:36:56.000Z</time>
      </trkpt>
      <trkpt lon="0.2741474211215973" lat="49.1941108703613281">
        <ele>152.37344360351562</ele>
        <time>2016-09-21T15:36:58.000Z</time>
      </trkpt>
      <trkpt lon="0.2739065885543823" lat="49.1941909790039062">
        <ele>152.173828125</ele>
        <time>2016-09-21T15:37:01.000Z</time>
      </trkpt>
      <trkpt lon="0.2737604081630707" lat="49.1942367553710938">
        <ele>151.98965454101562</ele>
        <time>2016-09-21T15:37:03.000Z</time>
      </trkpt>
      <trkpt lon="0.2735258042812347" lat="49.1943054199218750">
        <ele>151.80894470214844</ele>
        <time>2016-09-21T15:37:06.000Z</time>
      </trkpt>
      <trkpt lon="0.2733880877494812" lat="49.1943588256835938">
        <ele>151.6856231689453</ele>
        <time>2016-09-21T15:37:08.000Z</time>
      </trkpt>
      <trkpt lon="0.2731706798076630" lat="49.1944160461425781">
        <ele>151.57286071777344</ele>
        <time>2016-09-21T15:37:11.000Z</time>
      </trkpt>
      <trkpt lon="0.2730290889739990" lat="49.1944618225097656">
        <ele>151.4672393798828</ele>
        <time>2016-09-21T15:37:13.000Z</time>
      </trkpt>
      <trkpt lon="0.2728839218616486" lat="49.1944999694824219">
        <ele>151.3389129638672</ele>
        <time>2016-09-21T15:37:15.000Z</time>
      </trkpt>
      <trkpt lon="0.2726715207099915" lat="49.1945495605468750">
        <ele>151.178466796875</ele>
        <time>2016-09-21T15:37:18.000Z</time>
      </trkpt>
      <trkpt lon="0.2725442051887512" lat="49.1946067810058594">
        <ele>150.99464416503906</ele>
        <time>2016-09-21T15:37:20.000Z</time>
      </trkpt>
      <trkpt lon="0.2723076641559601" lat="49.1946792602539062">
        <ele>150.8015899658203</ele>
        <time>2016-09-21T15:37:23.000Z</time>
      </trkpt>
      <trkpt lon="0.2721484899520874" lat="49.1947326660156250">
        <ele>150.6106719970703</ele>
        <time>2016-09-21T15:37:25.000Z</time>
      </trkpt>
      <trkpt lon="0.2719396948814392" lat="49.1948204040527344">
        <ele>150.4244842529297</ele>
        <time>2016-09-21T15:37:28.000Z</time>
      </trkpt>
      <trkpt lon="0.2717850506305695" lat="49.1948623657226562">
        <ele>150.2681121826172</ele>
        <time>2016-09-21T15:37:30.000Z</time>
      </trkpt>
      <trkpt lon="0.2716263830661774" lat="49.1949119567871094">
        <ele>150.10678100585938</ele>
        <time>2016-09-21T15:37:32.000Z</time>
      </trkpt>
      <trkpt lon="0.2714203596115112" lat="49.1949615478515625">
        <ele>149.90573120117188</ele>
        <time>2016-09-21T15:37:35.000Z</time>
      </trkpt>
      <trkpt lon="0.2711742520332336" lat="49.1950340270996094">
        <ele>149.6361541748047</ele>
        <time>2016-09-21T15:37:38.000Z</time>
      </trkpt>
      <trkpt lon="0.2710408270359039" lat="49.1950798034667969">
        <ele>149.3617706298828</ele>
        <time>2016-09-21T15:37:40.000Z</time>
      </trkpt>
      <trkpt lon="0.2708385586738586" lat="49.1951675415039062">
        <ele>149.08828735351562</ele>
        <time>2016-09-21T15:37:43.000Z</time>
      </trkpt>
      <trkpt lon="0.2706120014190674" lat="49.1952323913574219">
        <ele>148.90847778320312</ele>
        <time>2016-09-21T15:37:46.000Z</time>
      </trkpt>
      <trkpt lon="0.2704701125621796" lat="49.1952743530273438">
        <ele>148.8605194091797</ele>
        <time>2016-09-21T15:37:48.000Z</time>
      </trkpt>
      <trkpt lon="0.2703072428703308" lat="49.1952972412109375">
        <ele>148.93630981445312</ele>
        <time>2016-09-21T15:37:50.000Z</time>
      </trkpt>
      <trkpt lon="0.2701010406017303" lat="49.1953353881835938">
        <ele>149.10195922851562</ele>
        <time>2016-09-21T15:37:53.000Z</time>
      </trkpt>
      <trkpt lon="0.2699605524539948" lat="49.1953773498535156">
        <ele>149.34292602539062</ele>
        <time>2016-09-21T15:37:55.000Z</time>
      </trkpt>
      <trkpt lon="0.2698165774345398" lat="49.1953926086425781">
        <ele>149.5399169921875</ele>
        <time>2016-09-21T15:37:57.000Z</time>
      </trkpt>
      <trkpt lon="0.2696987986564636" lat="49.1953964233398438">
        <ele>149.6944580078125</ele>
        <time>2016-09-21T15:37:59.000Z</time>
      </trkpt>
      <trkpt lon="0.2696025669574738" lat="49.1954116821289062">
        <ele>149.83004760742188</ele>
        <time>2016-09-21T15:38:01.000Z</time>
      </trkpt>
      <trkpt lon="0.2694698870182037" lat="49.1954383850097656">
        <ele>149.9375</ele>
        <time>2016-09-21T15:38:04.000Z</time>
      </trkpt>
      <trkpt lon="0.2693056762218475" lat="49.1954727172851562">
        <ele>150.02734375</ele>
        <time>2016-09-21T15:38:06.000Z</time>
      </trkpt>
      <trkpt lon="0.2691073715686798" lat="49.1955299377441406">
        <ele>150.16146850585938</ele>
        <time>2016-09-21T15:38:09.000Z</time>
      </trkpt>
      <trkpt lon="0.2689215540885925" lat="49.1955299377441406">
        <ele>150.30801391601562</ele>
        <time>2016-09-21T15:38:11.000Z</time>
      </trkpt>
      <trkpt lon="0.2686646282672882" lat="49.1955680847167969">
        <ele>150.49859619140625</ele>
        <time>2016-09-21T15:38:14.000Z</time>
      </trkpt>
      <trkpt lon="0.2685146927833557" lat="49.1955795288085938">
        <ele>150.6826934814453</ele>
        <time>2016-09-21T15:38:16.000Z</time>
      </trkpt>
      <trkpt lon="0.2682751417160034" lat="49.1956024169921875">
        <ele>150.8912811279297</ele>
        <time>2016-09-21T15:38:19.000Z</time>
      </trkpt>
      <trkpt lon="0.2680683434009552" lat="49.1956367492675781">
        <ele>151.1656036376953</ele>
        <time>2016-09-21T15:38:22.000Z</time>
      </trkpt>
      <trkpt lon="0.2679689526557922" lat="49.1956520080566406">
        <ele>151.4801025390625</ele>
        <time>2016-09-21T15:38:24.000Z</time>
      </trkpt>
      <trkpt lon="0.2677831947803497" lat="49.1956977844238281">
        <ele>151.8631591796875</ele>
        <time>2016-09-21T15:38:27.000Z</time>
      </trkpt>
      <trkpt lon="0.2676752507686615" lat="49.1957168579101562">
        <ele>152.2888946533203</ele>
        <time>2016-09-21T15:38:29.000Z</time>
      </trkpt>
      <trkpt lon="0.2675758302211761" lat="49.1957244873046875">
        <ele>152.71243286132812</ele>
        <time>2016-09-21T15:38:31.000Z</time>
      </trkpt>
      <trkpt lon="0.2674123942852020" lat="49.1957588195800781">
        <ele>153.07315063476562</ele>
        <time>2016-09-21T15:38:34.000Z</time>
      </trkpt>
      <trkpt lon="0.2672220170497894" lat="49.1957817077636719">
        <ele>153.39199829101562</ele>
        <time>2016-09-21T15:38:37.000Z</time>
      </trkpt>
      <trkpt lon="0.2671004831790924" lat="49.1958045959472656">
        <ele>153.60409545898438</ele>
        <time>2016-09-21T15:38:39.000Z</time>
      </trkpt>
      <trkpt lon="0.2669468522071838" lat="49.1958427429199219">
        <ele>153.7796630859375</ele>
        <time>2016-09-21T15:38:42.000Z</time>
      </trkpt>
      <trkpt lon="0.2668466866016388" lat="49.1958618164062500">
        <ele>153.9195556640625</ele>
        <time>2016-09-21T15:38:44.000Z</time>
      </trkpt>
      <trkpt lon="0.2666710913181305" lat="49.1958999633789062">
        <ele>154.0346221923828</ele>
        <time>2016-09-21T15:38:47.000Z</time>
      </trkpt>
      <trkpt lon="0.2665493786334991" lat="49.1959228515625000">
        <ele>154.15562438964844</ele>
        <time>2016-09-21T15:38:49.000Z</time>
      </trkpt>
      <trkpt lon="0.2663728594779968" lat="49.1959457397460938">
        <ele>154.27586364746094</ele>
        <time>2016-09-21T15:38:52.000Z</time>
      </trkpt>
      <trkpt lon="0.2662358880043030" lat="49.1959609985351562">
        <ele>154.37481689453125</ele>
        <time>2016-09-21T15:38:54.000Z</time>
      </trkpt>
      <trkpt lon="0.2660335600376129" lat="49.1959877014160156">
        <ele>154.47067260742188</ele>
        <time>2016-09-21T15:38:57.000Z</time>
      </trkpt>
      <trkpt lon="0.2658374309539795" lat="49.1960144042968750">
        <ele>154.53744506835938</ele>
        <time>2016-09-21T15:39:00.000Z</time>
      </trkpt>
      <trkpt lon="0.2657108604907990" lat="49.1960334777832031">
        <ele>154.539306640625</ele>
        <time>2016-09-21T15:39:02.000Z</time>
      </trkpt>
      <trkpt lon="0.2655350863933563" lat="49.1960792541503906">
        <ele>154.47219848632812</ele>
        <time>2016-09-21T15:39:05.000Z</time>
      </trkpt>
      <trkpt lon="0.2654227614402771" lat="49.1961135864257812">
        <ele>154.371826171875</ele>
        <time>2016-09-21T15:39:07.000Z</time>
      </trkpt>
      <trkpt lon="0.2652777731418610" lat="49.1961364746093750">
        <ele>154.2017059326172</ele>
        <time>2016-09-21T15:39:09.000Z</time>
      </trkpt>
      <trkpt lon="0.2651198506355286" lat="49.1962280273437500">
        <ele>154.01431274414062</ele>
        <time>2016-09-21T15:39:12.000Z</time>
      </trkpt>
      <trkpt lon="0.2649475038051605" lat="49.1963081359863281">
        <ele>153.87229919433594</ele>
        <time>2016-09-21T15:39:15.000Z</time>
      </trkpt>
      <trkpt lon="0.2648035883903503" lat="49.1963920593261719">
        <ele>153.84104919433594</ele>
        <time>2016-09-21T15:39:18.000Z</time>
      </trkpt>
      <trkpt lon="0.2646418213844299" lat="49.1964988708496094">
        <ele>153.91644287109375</ele>
        <time>2016-09-21T15:39:21.000Z</time>
      </trkpt>
      <trkpt lon="0.2644759416580200" lat="49.1965942382812500">
        <ele>154.11416625976562</ele>
        <time>2016-09-21T15:39:24.000Z</time>
      </trkpt>
      <trkpt lon="0.2642843425273895" lat="49.1966743469238281">
        <ele>154.37277221679688</ele>
        <time>2016-09-21T15:39:27.000Z</time>
      </trkpt>
      <trkpt lon="0.2641182839870453" lat="49.1967773437500000">
        <ele>154.6199188232422</ele>
        <time>2016-09-21T15:39:30.000Z</time>
      </trkpt>
      <trkpt lon="0.2639847695827484" lat="49.1968460083007812">
        <ele>154.78433227539062</ele>
        <time>2016-09-21T15:39:32.000Z</time>
      </trkpt>
      <trkpt lon="0.2638127803802490" lat="49.1969451904296875">
        <ele>154.8472137451172</ele>
        <time>2016-09-21T15:39:35.000Z</time>
      </trkpt>
      <trkpt lon="0.2636892199516296" lat="49.1970291137695312">
        <ele>154.83468627929688</ele>
        <time>2016-09-21T15:39:38.000Z</time>
      </trkpt>
      <trkpt lon="0.2635589838027954" lat="49.1970863342285156">
        <ele>154.76202392578125</ele>
        <time>2016-09-21T15:39:40.000Z</time>
      </trkpt>
      <trkpt lon="0.2633483409881592" lat="49.1971855163574219">
        <ele>154.6976776123047</ele>
        <time>2016-09-21T15:39:43.000Z</time>
      </trkpt>
      <trkpt lon="0.2631955444812775" lat="49.1972618103027344">
        <ele>154.64161682128906</ele>
        <time>2016-09-21T15:39:45.000Z</time>
      </trkpt>
      <trkpt lon="0.2629700601100922" lat="49.1973648071289062">
        <ele>154.57827758789062</ele>
        <time>2016-09-21T15:39:48.000Z</time>
      </trkpt>
      <trkpt lon="0.2628196179866791" lat="49.1974220275878906">
        <ele>154.50051879882812</ele>
        <time>2016-09-21T15:39:50.000Z</time>
      </trkpt>
      <trkpt lon="0.2626716494560242" lat="49.1974830627441406">
        <ele>154.40957641601562</ele>
        <time>2016-09-21T15:39:52.000Z</time>
      </trkpt>
      <trkpt lon="0.2624746859073639" lat="49.1975898742675781">
        <ele>154.32640075683594</ele>
        <time>2016-09-21T15:39:55.000Z</time>
      </trkpt>
      <trkpt lon="0.2623306810855865" lat="49.1976776123046875">
        <ele>154.28424072265625</ele>
        <time>2016-09-21T15:39:57.000Z</time>
      </trkpt>
      <trkpt lon="0.2621209621429443" lat="49.1977691650390625">
        <ele>154.27493286132812</ele>
        <time>2016-09-21T15:40:00.000Z</time>
      </trkpt>
      <trkpt lon="0.2618840038776398" lat="49.1978454589843750">
        <ele>154.26036071777344</ele>
        <time>2016-09-21T15:40:03.000Z</time>
      </trkpt>
      <trkpt lon="0.2617320418357849" lat="49.1979141235351562">
        <ele>154.23919677734375</ele>
        <time>2016-09-21T15:40:05.000Z</time>
      </trkpt>
      <trkpt lon="0.2615317106246948" lat="49.1979904174804688">
        <ele>154.1376953125</ele>
        <time>2016-09-21T15:40:07.000Z</time>
      </trkpt>
      <trkpt lon="0.2613525092601776" lat="49.1980514526367188">
        <ele>153.94363403320312</ele>
        <time>2016-09-21T15:40:09.000Z</time>
      </trkpt>
      <trkpt lon="0.2611221969127655" lat="49.1981582641601562">
        <ele>153.6868896484375</ele>
        <time>2016-09-21T15:40:12.000Z</time>
      </trkpt>
      <trkpt lon="0.2608887553215027" lat="49.1982612609863281">
        <ele>153.4254608154297</ele>
        <time>2016-09-21T15:40:15.000Z</time>
      </trkpt>
      <trkpt lon="0.2607364356517792" lat="49.1983299255371094">
        <ele>153.18594360351562</ele>
        <time>2016-09-21T15:40:17.000Z</time>
      </trkpt>
      <trkpt lon="0.2604822218418121" lat="49.1984176635742188">
        <ele>152.97239685058594</ele>
        <time>2016-09-21T15:40:20.000Z</time>
      </trkpt>
      <trkpt lon="0.2602192163467407" lat="49.1985015869140625">
        <ele>152.76220703125</ele>
        <time>2016-09-21T15:40:23.000Z</time>
      </trkpt>
      <trkpt lon="0.2599546611309052" lat="49.1985893249511719">
        <ele>152.54071044921875</ele>
        <time>2016-09-21T15:40:26.000Z</time>
      </trkpt>
      <trkpt lon="0.2597873806953430" lat="49.1986579895019531">
        <ele>152.3279266357422</ele>
        <time>2016-09-21T15:40:28.000Z</time>
      </trkpt>
      <trkpt lon="0.2595714628696442" lat="49.1987571716308594">
        <ele>152.1016082763672</ele>
        <time>2016-09-21T15:40:31.000Z</time>
      </trkpt>
      <trkpt lon="0.2593277096748352" lat="49.1988449096679688">
        <ele>151.91183471679688</ele>
        <time>2016-09-21T15:40:34.000Z</time>
      </trkpt>
      <trkpt lon="0.2591620683670044" lat="49.1988945007324219">
        <ele>151.7818145751953</ele>
        <time>2016-09-21T15:40:36.000Z</time>
      </trkpt>
      <trkpt lon="0.2589060068130493" lat="49.1989898681640625">
        <ele>151.6846160888672</ele>
        <time>2016-09-21T15:40:39.000Z</time>
      </trkpt>
      <trkpt lon="0.2586581707000732" lat="49.1990928649902344">
        <ele>151.5760040283203</ele>
        <time>2016-09-21T15:40:42.000Z</time>
      </trkpt>
      <trkpt lon="0.2584859132766724" lat="49.1991577148437500">
        <ele>151.46078491210938</ele>
        <time>2016-09-21T15:40:44.000Z</time>
      </trkpt>
      <trkpt lon="0.2582246363162994" lat="49.1992034912109375">
        <ele>151.3467254638672</ele>
        <time>2016-09-21T15:40:47.000Z</time>
      </trkpt>
      <trkpt lon="0.2579715847969055" lat="49.1992797851562500">
        <ele>151.27133178710938</ele>
        <time>2016-09-21T15:40:50.000Z</time>
      </trkpt>
      <trkpt lon="0.2577379047870636" lat="49.1993675231933594">
        <ele>151.25247192382812</ele>
        <time>2016-09-21T15:40:53.000Z</time>
      </trkpt>
      <trkpt lon="0.2574882805347443" lat="49.1994438171386719">
        <ele>151.25942993164062</ele>
        <time>2016-09-21T15:40:56.000Z</time>
      </trkpt>
      <trkpt lon="0.2572504878044128" lat="49.1995315551757812">
        <ele>151.33889770507812</ele>
        <time>2016-09-21T15:40:59.000Z</time>
      </trkpt>
      <trkpt lon="0.2569864690303802" lat="49.1996383666992188">
        <ele>151.49813842773438</ele>
        <time>2016-09-21T15:41:02.000Z</time>
      </trkpt>
      <trkpt lon="0.2567506134510040" lat="49.1997261047363281">
        <ele>151.6958465576172</ele>
        <time>2016-09-21T15:41:05.000Z</time>
      </trkpt>
      <trkpt lon="0.2565873265266418" lat="49.1997833251953125">
        <ele>151.8778533935547</ele>
        <time>2016-09-21T15:41:07.000Z</time>
      </trkpt>
      <trkpt lon="0.2563458383083344" lat="49.1998558044433594">
        <ele>151.98837280273438</ele>
        <time>2016-09-21T15:41:10.000Z</time>
      </trkpt>
      <trkpt lon="0.2561216950416565" lat="49.1999359130859375">
        <ele>151.9815673828125</ele>
        <time>2016-09-21T15:41:13.000Z</time>
      </trkpt>
      <trkpt lon="0.2559520602226257" lat="49.1999855041503906">
        <ele>151.8479766845703</ele>
        <time>2016-09-21T15:41:15.000Z</time>
      </trkpt>
      <trkpt lon="0.2557725906372070" lat="49.2000122070312500">
        <ele>151.5836639404297</ele>
        <time>2016-09-21T15:41:17.000Z</time>
      </trkpt>
      <trkpt lon="0.2555210590362549" lat="49.2000579833984375">
        <ele>151.2776641845703</ele>
        <time>2016-09-21T15:41:20.000Z</time>
      </trkpt>
      <trkpt lon="0.2552514970302582" lat="49.2000732421875000">
        <ele>150.99554443359375</ele>
        <time>2016-09-21T15:41:23.000Z</time>
      </trkpt>
      <trkpt lon="0.2549222707748413" lat="49.2000923156738281">
        <ele>150.73329162597656</ele>
        <time>2016-09-21T15:41:26.000Z</time>
      </trkpt>
      <trkpt lon="0.2547169923782349" lat="49.2000656127929688">
        <ele>150.51536560058594</ele>
        <time>2016-09-21T15:41:28.000Z</time>
      </trkpt>
      <trkpt lon="0.2543976306915283" lat="49.2000312805175781">
        <ele>150.33970642089844</ele>
        <time>2016-09-21T15:41:31.000Z</time>
      </trkpt>
      <trkpt lon="0.2540823817253113" lat="49.2000007629394531">
        <ele>150.18731689453125</ele>
        <time>2016-09-21T15:41:34.000Z</time>
      </trkpt>
      <trkpt lon="0.2537913620471954" lat="49.1999855041503906">
        <ele>150.0896453857422</ele>
        <time>2016-09-21T15:41:37.000Z</time>
      </trkpt>
      <trkpt lon="0.2535907924175262" lat="49.1999740600585938">
        <ele>150.0429229736328</ele>
        <time>2016-09-21T15:41:39.000Z</time>
      </trkpt>
      <trkpt lon="0.2532938122749329" lat="49.1999893188476562">
        <ele>150.00247192382812</ele>
        <time>2016-09-21T15:41:42.000Z</time>
      </trkpt>
      <trkpt lon="0.2529730498790741" lat="49.2000122070312500">
        <ele>149.90328979492188</ele>
        <time>2016-09-21T15:41:45.000Z</time>
      </trkpt>
      <trkpt lon="0.2527064979076385" lat="49.2000198364257812">
        <ele>149.7577362060547</ele>
        <time>2016-09-21T15:41:48.000Z</time>
      </trkpt>
      <trkpt lon="0.2524387836456299" lat="49.2000503540039062">
        <ele>149.55606079101562</ele>
        <time>2016-09-21T15:41:51.000Z</time>
      </trkpt>
      <trkpt lon="0.2521458268165588" lat="49.2000885009765625">
        <ele>149.2852325439453</ele>
        <time>2016-09-21T15:41:54.000Z</time>
      </trkpt>
      <trkpt lon="0.2519078850746155" lat="49.2001113891601562">
        <ele>148.95994567871094</ele>
        <time>2016-09-21T15:41:57.000Z</time>
      </trkpt>
      <trkpt lon="0.2516323626041412" lat="49.2001342773437500">
        <ele>148.64907836914062</ele>
        <time>2016-09-21T15:42:00.000Z</time>
      </trkpt>
      <trkpt lon="0.2513579428195953" lat="49.2001533508300781">
        <ele>148.4412384033203</ele>
        <time>2016-09-21T15:42:03.000Z</time>
      </trkpt>
      <trkpt lon="0.2511193752288818" lat="49.2001953125000000">
        <ele>148.31484985351562</ele>
        <time>2016-09-21T15:42:06.000Z</time>
      </trkpt>
      <trkpt lon="0.2508328258991241" lat="49.2001953125000000">
        <ele>148.29367065429688</ele>
        <time>2016-09-21T15:42:09.000Z</time>
      </trkpt>
      <trkpt lon="0.2505547106266022" lat="49.2002258300781250">
        <ele>148.28848266601562</ele>
        <time>2016-09-21T15:42:12.000Z</time>
      </trkpt>
      <trkpt lon="0.2503646910190582" lat="49.2002296447753906">
        <ele>148.3225555419922</ele>
        <time>2016-09-21T15:42:14.000Z</time>
      </trkpt>
      <trkpt lon="0.2501791119575500" lat="49.2002258300781250">
        <ele>148.29544067382812</ele>
        <time>2016-09-21T15:42:16.000Z</time>
      </trkpt>
      <trkpt lon="0.2498569041490555" lat="49.2002372741699219">
        <ele>148.17184448242188</ele>
        <time>2016-09-21T15:42:19.000Z</time>
      </trkpt>
      <trkpt lon="0.2496558278799057" lat="49.2002449035644531">
        <ele>147.93467712402344</ele>
        <time>2016-09-21T15:42:21.000Z</time>
      </trkpt>
      <trkpt lon="0.2493122518062592" lat="49.2002983093261719">
        <ele>147.5916290283203</ele>
        <time>2016-09-21T15:42:24.000Z</time>
      </trkpt>
      <trkpt lon="0.2490606307983398" lat="49.2003173828125000">
        <ele>147.1487274169922</ele>
        <time>2016-09-21T15:42:26.000Z</time>
      </trkpt>
      <trkpt lon="0.2487618923187256" lat="49.2003517150878906">
        <ele>146.56698608398438</ele>
        <time>2016-09-21T15:42:29.000Z</time>
      </trkpt>
      <trkpt lon="0.2485584616661072" lat="49.2003479003906250">
        <ele>145.9608612060547</ele>
        <time>2016-09-21T15:42:31.000Z</time>
      </trkpt>
      <trkpt lon="0.2483474165201187" lat="49.2003860473632812">
        <ele>145.3130645751953</ele>
        <time>2016-09-21T15:42:34.000Z</time>
      </trkpt>
      <trkpt lon="0.2482406198978424" lat="49.2003898620605469">
        <ele>144.7742156982422</ele>
        <time>2016-09-21T15:42:36.000Z</time>
      </trkpt>
      <trkpt lon="0.2481469213962555" lat="49.2003898620605469">
        <ele>144.3214569091797</ele>
        <time>2016-09-21T15:42:39.000Z</time>
      </trkpt>
      <trkpt lon="0.2480460852384567" lat="49.2003631591796875">
        <ele>144.00196838378906</ele>
        <time>2016-09-21T15:42:41.000Z</time>
      </trkpt>
      <trkpt lon="0.2478771060705185" lat="49.2002754211425781">
        <ele>143.74642944335938</ele>
        <time>2016-09-21T15:42:44.000Z</time>
      </trkpt>
      <trkpt lon="0.2477095425128937" lat="49.2002410888671875">
        <ele>143.55369567871094</ele>
        <time>2016-09-21T15:42:46.000Z</time>
      </trkpt>
      <trkpt lon="0.2475326955318451" lat="49.2001953125000000">
        <ele>143.34225463867188</ele>
        <time>2016-09-21T15:42:48.000Z</time>
      </trkpt>
      <trkpt lon="0.2473825663328171" lat="49.2001228332519531">
        <ele>143.11672973632812</ele>
        <time>2016-09-21T15:42:50.000Z</time>
      </trkpt>
      <trkpt lon="0.2471104860305786" lat="49.2000579833984375">
        <ele>142.8042449951172</ele>
        <time>2016-09-21T15:42:53.000Z</time>
      </trkpt>
      <trkpt lon="0.2469170391559601" lat="49.2000236511230469">
        <ele>142.43809509277344</ele>
        <time>2016-09-21T15:42:55.000Z</time>
      </trkpt>
      <trkpt lon="0.2466398477554321" lat="49.1999511718750000">
        <ele>142.03834533691406</ele>
        <time>2016-09-21T15:42:58.000Z</time>
      </trkpt>
      <trkpt lon="0.2464590519666672" lat="49.1999130249023438">
        <ele>141.6830596923828</ele>
        <time>2016-09-21T15:43:00.000Z</time>
      </trkpt>
      <trkpt lon="0.2461904883384705" lat="49.1998062133789062">
        <ele>141.3909454345703</ele>
        <time>2016-09-21T15:43:03.000Z</time>
      </trkpt>
      <trkpt lon="0.2459123879671097" lat="49.1997146606445312">
        <ele>141.209228515625</ele>
        <time>2016-09-21T15:43:06.000Z</time>
      </trkpt>
      <trkpt lon="0.2457284778356552" lat="49.1996574401855469">
        <ele>141.0259246826172</ele>
        <time>2016-09-21T15:43:08.000Z</time>
      </trkpt>
      <trkpt lon="0.2455497831106186" lat="49.1996192932128906">
        <ele>140.76913452148438</ele>
        <time>2016-09-21T15:43:10.000Z</time>
      </trkpt>
      <trkpt lon="0.2452687323093414" lat="49.1995658874511719">
        <ele>140.25811767578125</ele>
        <time>2016-09-21T15:43:13.000Z</time>
      </trkpt>
      <trkpt lon="0.2449632138013840" lat="49.1995162963867188">
        <ele>139.44284057617188</ele>
        <time>2016-09-21T15:43:16.000Z</time>
      </trkpt>
      <trkpt lon="0.2447937279939651" lat="49.1995086669921875">
        <ele>138.53585815429688</ele>
        <time>2016-09-21T15:43:18.000Z</time>
      </trkpt>
      <trkpt lon="0.2444897294044495" lat="49.1994705200195312">
        <ele>137.5649871826172</ele>
        <time>2016-09-21T15:43:21.000Z</time>
      </trkpt>
      <trkpt lon="0.2442545294761658" lat="49.1994552612304688">
        <ele>136.6350860595703</ele>
        <time>2016-09-21T15:43:23.000Z</time>
      </trkpt>
      <trkpt lon="0.2439441382884979" lat="49.1994056701660156">
        <ele>135.88548278808594</ele>
        <time>2016-09-21T15:43:26.000Z</time>
      </trkpt>
      <trkpt lon="0.2436295747756958" lat="49.1993522644042969">
        <ele>135.39610290527344</ele>
        <time>2016-09-21T15:43:29.000Z</time>
      </trkpt>
      <trkpt lon="0.2434149086475372" lat="49.1993064880371094">
        <ele>135.0238037109375</ele>
        <time>2016-09-21T15:43:31.000Z</time>
      </trkpt>
      <trkpt lon="0.2432181090116501" lat="49.1992530822753906">
        <ele>134.86097717285156</ele>
        <time>2016-09-21T15:43:33.000Z</time>
      </trkpt>
      <trkpt lon="0.2429435104131699" lat="49.1991577148437500">
        <ele>134.93067932128906</ele>
        <time>2016-09-21T15:43:36.000Z</time>
      </trkpt>
      <trkpt lon="0.2427149415016174" lat="49.1990661621093750">
        <ele>135.0986785888672</ele>
        <time>2016-09-21T15:43:39.000Z</time>
      </trkpt>
      <trkpt lon="0.2425277680158615" lat="49.1989669799804688">
        <ele>135.32620239257812</ele>
        <time>2016-09-21T15:43:42.000Z</time>
      </trkpt>
      <trkpt lon="0.2424193024635315" lat="49.1989097595214844">
        <ele>135.55319213867188</ele>
        <time>2016-09-21T15:43:44.000Z</time>
      </trkpt>
      <trkpt lon="0.2422328889369965" lat="49.1988067626953125">
        <ele>135.773681640625</ele>
        <time>2016-09-21T15:43:47.000Z</time>
      </trkpt>
      <trkpt lon="0.2421401888132095" lat="49.1987457275390625">
        <ele>135.9214324951172</ele>
        <time>2016-09-21T15:43:49.000Z</time>
      </trkpt>
      <trkpt lon="0.2420317232608795" lat="49.1986846923828125">
        <ele>136.10113525390625</ele>
        <time>2016-09-21T15:43:51.000Z</time>
      </trkpt>
      <trkpt lon="0.2418623268604279" lat="49.1985778808593750">
        <ele>136.33279418945312</ele>
        <time>2016-09-21T15:43:54.000Z</time>
      </trkpt>
      <trkpt lon="0.2417008131742477" lat="49.1984710693359375">
        <ele>136.63111877441406</ele>
        <time>2016-09-21T15:43:57.000Z</time>
      </trkpt>
      <trkpt lon="0.2415779381990433" lat="49.1983947753906250">
        <ele>136.9056854248047</ele>
        <time>2016-09-21T15:43:59.000Z</time>
      </trkpt>
      <trkpt lon="0.2414219528436661" lat="49.1982917785644531">
        <ele>137.1287384033203</ele>
        <time>2016-09-21T15:44:02.000Z</time>
      </trkpt>
      <trkpt lon="0.2413269728422165" lat="49.1982231140136719">
        <ele>137.2668914794922</ele>
        <time>2016-09-21T15:44:04.000Z</time>
      </trkpt>
      <trkpt lon="0.2412176728248596" lat="49.1981468200683594">
        <ele>137.27053833007812</ele>
        <time>2016-09-21T15:44:06.000Z</time>
      </trkpt>
      <trkpt lon="0.2410490363836288" lat="49.1980209350585938">
        <ele>137.10397338867188</ele>
        <time>2016-09-21T15:44:09.000Z</time>
      </trkpt>
      <trkpt lon="0.2409433424472809" lat="49.1979370117187500">
        <ele>136.8603057861328</ele>
        <time>2016-09-21T15:44:11.000Z</time>
      </trkpt>
      <trkpt lon="0.2408469468355179" lat="49.1978492736816406">
        <ele>136.5843048095703</ele>
        <time>2016-09-21T15:44:13.000Z</time>
      </trkpt>
      <trkpt lon="0.2407421767711639" lat="49.1976852416992188">
        <ele>136.3206329345703</ele>
        <time>2016-09-21T15:44:16.000Z</time>
      </trkpt>
      <trkpt lon="0.2406023591756821" lat="49.1975669860839844">
        <ele>136.07626342773438</ele>
        <time>2016-09-21T15:44:19.000Z</time>
      </trkpt>
      <trkpt lon="0.2405461221933365" lat="49.1974296569824219">
        <ele>135.89846801757812</ele>
        <time>2016-09-21T15:44:21.000Z</time>
      </trkpt>
      <trkpt lon="0.2403918057680130" lat="49.1972885131835938">
        <ele>135.74270629882812</ele>
        <time>2016-09-21T15:44:24.000Z</time>
      </trkpt>
      <trkpt lon="0.2402675896883011" lat="49.1971855163574219">
        <ele>135.62750244140625</ele>
        <time>2016-09-21T15:44:27.000Z</time>
      </trkpt>
      <trkpt lon="0.2400990277528763" lat="49.1970520019531250">
        <ele>135.55960083007812</ele>
        <time>2016-09-21T15:44:30.000Z</time>
      </trkpt>
      <trkpt lon="0.2399372607469559" lat="49.1969947814941406">
        <ele>135.5260772705078</ele>
        <time>2016-09-21T15:44:32.000Z</time>
      </trkpt>
      <trkpt lon="0.2397652566432953" lat="49.1968879699707031">
        <ele>135.49110412597656</ele>
        <time>2016-09-21T15:44:35.000Z</time>
      </trkpt>
      <trkpt lon="0.2396921664476395" lat="49.1968002319335938">
        <ele>135.4877471923828</ele>
        <time>2016-09-21T15:44:37.000Z</time>
      </trkpt>
      <trkpt lon="0.2395665347576141" lat="49.1966819763183594">
        <ele>135.48828125</ele>
        <time>2016-09-21T15:44:40.000Z</time>
      </trkpt>
      <trkpt lon="0.2394594103097916" lat="49.1966171264648438">
        <ele>135.45660400390625</ele>
        <time>2016-09-21T15:44:42.000Z</time>
      </trkpt>
      <trkpt lon="0.2393304109573364" lat="49.1964988708496094">
        <ele>135.41348266601562</ele>
        <time>2016-09-21T15:44:45.000Z</time>
      </trkpt>
      <trkpt lon="0.2391976416110992" lat="49.1963768005371094">
        <ele>135.39418029785156</ele>
        <time>2016-09-21T15:44:48.000Z</time>
      </trkpt>
      <trkpt lon="0.2391202747821808" lat="49.1962890625000000">
        <ele>135.3900604248047</ele>
        <time>2016-09-21T15:44:50.000Z</time>
      </trkpt>
      <trkpt lon="0.2389471828937531" lat="49.1961555480957031">
        <ele>135.43307495117188</ele>
        <time>2016-09-21T15:44:53.000Z</time>
      </trkpt>
      <trkpt lon="0.2388769537210464" lat="49.1960678100585938">
        <ele>135.5329132080078</ele>
        <time>2016-09-21T15:44:55.000Z</time>
      </trkpt>
      <trkpt lon="0.2387750297784805" lat="49.1959800720214844">
        <ele>135.69520568847656</ele>
        <time>2016-09-21T15:44:57.000Z</time>
      </trkpt>
      <trkpt lon="0.2386506348848343" lat="49.1958274841308594">
        <ele>135.95188903808594</ele>
        <time>2016-09-21T15:45:00.000Z</time>
      </trkpt>
      <trkpt lon="0.2385557591915131" lat="49.1957359313964844">
        <ele>136.30892944335938</ele>
        <time>2016-09-21T15:45:02.000Z</time>
      </trkpt>
      <trkpt lon="0.2384526580572128" lat="49.1955947875976562">
        <ele>136.7841339111328</ele>
        <time>2016-09-21T15:45:05.000Z</time>
      </trkpt>
      <trkpt lon="0.2383340597152710" lat="49.1955146789550781">
        <ele>137.31521606445312</ele>
        <time>2016-09-21T15:45:07.000Z</time>
      </trkpt>
      <trkpt lon="0.2382017076015472" lat="49.1953849792480469">
        <ele>137.9214324951172</ele>
        <time>2016-09-21T15:45:10.000Z</time>
      </trkpt>
      <trkpt lon="0.2381197214126587" lat="49.1952819824218750">
        <ele>138.5413818359375</ele>
        <time>2016-09-21T15:45:12.000Z</time>
      </trkpt>
      <trkpt lon="0.2380251735448837" lat="49.1951370239257812">
        <ele>139.21229553222656</ele>
        <time>2016-09-21T15:45:15.000Z</time>
      </trkpt>
      <trkpt lon="0.2379517555236816" lat="49.1950149536132812">
        <ele>139.8755340576172</ele>
        <time>2016-09-21T15:45:17.000Z</time>
      </trkpt>
      <trkpt lon="0.2378587126731873" lat="49.1949157714843750">
        <ele>140.52627563476562</ele>
        <time>2016-09-21T15:45:19.000Z</time>
      </trkpt>
      <trkpt lon="0.2377064228057861" lat="49.1947555541992188">
        <ele>141.1622772216797</ele>
        <time>2016-09-21T15:45:22.000Z</time>
      </trkpt>
      <trkpt lon="0.2375339120626450" lat="49.1946296691894531">
        <ele>141.7841796875</ele>
        <time>2016-09-21T15:45:25.000Z</time>
      </trkpt>
      <trkpt lon="0.2373242825269699" lat="49.1945075988769531">
        <ele>142.26121520996094</ele>
        <time>2016-09-21T15:45:28.000Z</time>
      </trkpt>
      <trkpt lon="0.2371812909841537" lat="49.1944389343261719">
        <ele>142.58131408691406</ele>
        <time>2016-09-21T15:45:30.000Z</time>
      </trkpt>
      <trkpt lon="0.2369645386934280" lat="49.1943511962890625">
        <ele>142.8084259033203</ele>
        <time>2016-09-21T15:45:33.000Z</time>
      </trkpt>
      <trkpt lon="0.2367382198572159" lat="49.1942863464355469">
        <ele>142.89974975585938</ele>
        <time>2016-09-21T15:45:36.000Z</time>
      </trkpt>
      <trkpt lon="0.2365523129701614" lat="49.1942100524902344">
        <ele>142.7486572265625</ele>
        <time>2016-09-21T15:45:38.000Z</time>
      </trkpt>
      <trkpt lon="0.2362838387489319" lat="49.1941032409667969">
        <ele>141.98863220214844</ele>
        <time>2016-09-21T15:45:41.000Z</time>
      </trkpt>
      <trkpt lon="0.2361326366662979" lat="49.1940422058105469">
        <ele>140.83566284179688</ele>
        <time>2016-09-21T15:45:43.000Z</time>
      </trkpt>
      <trkpt lon="0.2359198927879333" lat="49.1939506530761719">
        <ele>139.1717529296875</ele>
        <time>2016-09-21T15:45:46.000Z</time>
      </trkpt>
      <trkpt lon="0.2357800900936127" lat="49.1938667297363281">
        <ele>137.20028686523438</ele>
        <time>2016-09-21T15:45:48.000Z</time>
      </trkpt>
      <trkpt lon="0.2354400306940079" lat="49.1936798095703125">
        <ele>134.8513946533203</ele>
        <time>2016-09-21T15:45:52.000Z</time>
      </trkpt>
      <trkpt lon="0.2352974563837051" lat="49.1935768127441406">
        <ele>132.88836669921875</ele>
        <time>2016-09-21T15:45:54.000Z</time>
      </trkpt>
      <trkpt lon="0.2350058555603027" lat="49.1933975219726562">
        <ele>131.1209259033203</ele>
        <time>2016-09-21T15:45:57.000Z</time>
      </trkpt>
      <trkpt lon="0.2348403036594391" lat="49.1932716369628906">
        <ele>129.67453002929688</ele>
        <time>2016-09-21T15:45:59.000Z</time>
      </trkpt>
      <trkpt lon="0.2345689833164215" lat="49.1930732727050781">
        <ele>128.12039184570312</ele>
        <time>2016-09-21T15:46:02.000Z</time>
      </trkpt>
      <trkpt lon="0.2343914508819580" lat="49.1929359436035156">
        <ele>126.8169174194336</ele>
        <time>2016-09-21T15:46:04.000Z</time>
      </trkpt>
      <trkpt lon="0.2342021167278290" lat="49.1927757263183594">
        <ele>125.4439926147461</ele>
        <time>2016-09-21T15:46:06.000Z</time>
      </trkpt>
      <trkpt lon="0.2338862866163254" lat="49.1925735473632812">
        <ele>124.07304382324219</ele>
        <time>2016-09-21T15:46:09.000Z</time>
      </trkpt>
      <trkpt lon="0.2336420267820358" lat="49.1924858093261719">
        <ele>122.99571228027344</ele>
        <time>2016-09-21T15:46:11.000Z</time>
      </trkpt>
      <trkpt lon="0.2333232611417770" lat="49.1922454833984375">
        <ele>122.2243423461914</ele>
        <time>2016-09-21T15:46:14.000Z</time>
      </trkpt>
      <trkpt lon="0.2331133782863617" lat="49.1921005249023438">
        <ele>121.73779296875</ele>
        <time>2016-09-21T15:46:16.000Z</time>
      </trkpt>
      <trkpt lon="0.2329252064228058" lat="49.1919555664062500">
        <ele>121.54496765136719</ele>
        <time>2016-09-21T15:46:18.000Z</time>
      </trkpt>
      <trkpt lon="0.2326595038175583" lat="49.1917037963867188">
        <ele>121.5944595336914</ele>
        <time>2016-09-21T15:46:21.000Z</time>
      </trkpt>
      <trkpt lon="0.2324887663125992" lat="49.1913681030273438">
        <ele>121.16999816894531</ele>
        <time>2016-09-21T15:46:24.000Z</time>
      </trkpt>
      <trkpt lon="0.2323987483978271" lat="49.1910400390625000">
        <ele>120.30009460449219</ele>
        <time>2016-09-21T15:46:27.000Z</time>
      </trkpt>
      <trkpt lon="0.2324538081884384" lat="49.1908264160156250">
        <ele>118.88813781738281</ele>
        <time>2016-09-21T15:46:29.000Z</time>
      </trkpt>
      <trkpt lon="0.2324626147747040" lat="49.1905250549316406">
        <ele>116.8398666381836</ele>
        <time>2016-09-21T15:46:32.000Z</time>
      </trkpt>
      <trkpt lon="0.2324558198451996" lat="49.1901893615722656">
        <ele>114.10203552246094</ele>
        <time>2016-09-21T15:46:35.000Z</time>
      </trkpt>
      <trkpt lon="0.2324372231960297" lat="49.1899871826171875">
        <ele>111.37510681152344</ele>
        <time>2016-09-21T15:46:37.000Z</time>
      </trkpt>
      <trkpt lon="0.2324537336826324" lat="49.1896629333496094">
        <ele>108.82023620605469</ele>
        <time>2016-09-21T15:46:40.000Z</time>
      </trkpt>
      <trkpt lon="0.2325038462877274" lat="49.1893577575683594">
        <ele>106.37947082519531</ele>
        <time>2016-09-21T15:46:43.000Z</time>
      </trkpt>
      <trkpt lon="0.2324934601783752" lat="49.1891670227050781">
        <ele>104.32865142822266</ele>
        <time>2016-09-21T15:46:45.000Z</time>
      </trkpt>
      <trkpt lon="0.2324554026126862" lat="49.1889762878417969">
        <ele>102.49928283691406</ele>
        <time>2016-09-21T15:46:47.000Z</time>
      </trkpt>
      <trkpt lon="0.2324202805757523" lat="49.1887779235839844">
        <ele>100.6064682006836</ele>
        <time>2016-09-21T15:46:49.000Z</time>
      </trkpt>
      <trkpt lon="0.2323990017175674" lat="49.1884689331054688">
        <ele>98.42672729492188</ele>
        <time>2016-09-21T15:46:52.000Z</time>
      </trkpt>
      <trkpt lon="0.2324044406414032" lat="49.1882286071777344">
        <ele>95.96202850341797</ele>
        <time>2016-09-21T15:46:54.000Z</time>
      </trkpt>
      <trkpt lon="0.2321047037839890" lat="49.1880264282226562">
        <ele>93.4493637084961</ele>
        <time>2016-09-21T15:46:57.000Z</time>
      </trkpt>
      <trkpt lon="0.2318649888038635" lat="49.1877593994140625">
        <ele>90.82170104980469</ele>
        <time>2016-09-21T15:47:00.000Z</time>
      </trkpt>
      <trkpt lon="0.2316802442073822" lat="49.1875801086425781">
        <ele>88.32205200195312</ele>
        <time>2016-09-21T15:47:02.000Z</time>
      </trkpt>
      <trkpt lon="0.2314735502004623" lat="49.1873893737792969">
        <ele>86.19976043701172</ele>
        <time>2016-09-21T15:47:04.000Z</time>
      </trkpt>
      <trkpt lon="0.2312036454677582" lat="49.1870803833007812">
        <ele>84.23048400878906</ele>
        <time>2016-09-21T15:47:07.000Z</time>
      </trkpt>
      <trkpt lon="0.2308851331472397" lat="49.1867752075195312">
        <ele>81.99919128417969</ele>
        <time>2016-09-21T15:47:10.000Z</time>
      </trkpt>
      <trkpt lon="0.2306139022111893" lat="49.1864395141601562">
        <ele>79.71586608886719</ele>
        <time>2016-09-21T15:47:13.000Z</time>
      </trkpt>
      <trkpt lon="0.2303155064582825" lat="49.1861305236816406">
        <ele>77.15946197509766</ele>
        <time>2016-09-21T15:47:16.000Z</time>
      </trkpt>
      <trkpt lon="0.2300766259431839" lat="49.1857757568359375">
        <ele>74.09944915771484</ele>
        <time>2016-09-21T15:47:19.000Z</time>
      </trkpt>
      <trkpt lon="0.2297864407300949" lat="49.1854667663574219">
        <ele>71.02854919433594</ele>
        <time>2016-09-21T15:47:22.000Z</time>
      </trkpt>
      <trkpt lon="0.2295688390731812" lat="49.1851959228515625">
        <ele>67.96842193603516</ele>
        <time>2016-09-21T15:47:25.000Z</time>
      </trkpt>
      <trkpt lon="0.2293766438961029" lat="49.1849021911621094">
        <ele>65.08961486816406</ele>
        <time>2016-09-21T15:47:28.000Z</time>
      </trkpt>
      <trkpt lon="0.2291290462017059" lat="49.1846160888671875">
        <ele>62.62559127807617</ele>
        <time>2016-09-21T15:47:31.000Z</time>
      </trkpt>
      <trkpt lon="0.2289526015520096" lat="49.1843833923339844">
        <ele>60.8692741394043</ele>
        <time>2016-09-21T15:47:33.000Z</time>
      </trkpt>
      <trkpt lon="0.2286216914653778" lat="49.1840896606445312">
        <ele>59.52130126953125</ele>
        <time>2016-09-21T15:47:36.000Z</time>
      </trkpt>
      <trkpt lon="0.2283522933721542" lat="49.1839179992675781">
        <ele>58.76752853393555</ele>
        <time>2016-09-21T15:47:38.000Z</time>
      </trkpt>
      <trkpt lon="0.2280415743589401" lat="49.1837158203125000">
        <ele>58.41636276245117</ele>
        <time>2016-09-21T15:47:41.000Z</time>
      </trkpt>
      <trkpt lon="0.2278164476156235" lat="49.1836090087890625">
        <ele>58.105926513671875</ele>
        <time>2016-09-21T15:47:43.000Z</time>
      </trkpt>
      <trkpt lon="0.2274391651153564" lat="49.1835365295410156">
        <ele>57.59492111206055</ele>
        <time>2016-09-21T15:47:46.000Z</time>
      </trkpt>
      <trkpt lon="0.2268563807010651" lat="49.1835441589355469">
        <ele>56.849517822265625</ele>
        <time>2016-09-21T15:47:49.000Z</time>
      </trkpt>
      <trkpt lon="0.2265124619007111" lat="49.1833839416503906">
        <ele>55.603515625</ele>
        <time>2016-09-21T15:47:52.000Z</time>
      </trkpt>
      <trkpt lon="0.2263247966766357" lat="49.1832733154296875">
        <ele>54.253868103027344</ele>
        <time>2016-09-21T15:47:54.000Z</time>
      </trkpt>
      <trkpt lon="0.2260359525680542" lat="49.1830825805664062">
        <ele>52.9652099609375</ele>
        <time>2016-09-21T15:47:57.000Z</time>
      </trkpt>
      <trkpt lon="0.2257537394762039" lat="49.1829566955566406">
        <ele>51.813079833984375</ele>
        <time>2016-09-21T15:47:59.000Z</time>
      </trkpt>
      <trkpt lon="0.2254452854394913" lat="49.1827468872070312">
        <ele>50.86276626586914</ele>
        <time>2016-09-21T15:48:02.000Z</time>
      </trkpt>
      <trkpt lon="0.2251441180706024" lat="49.1825752258300781">
        <ele>50.04069137573242</ele>
        <time>2016-09-21T15:48:05.000Z</time>
      </trkpt>
      <trkpt lon="0.2249753177165985" lat="49.1824607849121094">
        <ele>49.10814666748047</ele>
        <time>2016-09-21T15:48:07.000Z</time>
      </trkpt>
      <trkpt lon="0.2247541993856430" lat="49.1823463439941406">
        <ele>48.046852111816406</ele>
        <time>2016-09-21T15:48:10.000Z</time>
      </trkpt>
      <trkpt lon="0.2245423048734665" lat="49.1822738647460938">
        <ele>47.009315490722656</ele>
        <time>2016-09-21T15:48:13.000Z</time>
      </trkpt>
      <trkpt lon="0.2244792729616165" lat="49.1821174621582031">
        <ele>46.00469207763672</ele>
        <time>2016-09-21T15:48:16.000Z</time>
      </trkpt>
      <trkpt lon="0.2245085239410400" lat="49.1819953918457031">
        <ele>45.22419357299805</ele>
        <time>2016-09-21T15:48:18.000Z</time>
      </trkpt>
      <trkpt lon="0.2245806902647018" lat="49.1818199157714844">
        <ele>44.57188034057617</ele>
        <time>2016-09-21T15:48:21.000Z</time>
      </trkpt>
      <trkpt lon="0.2246054112911224" lat="49.1816253662109375">
        <ele>43.99633026123047</ele>
        <time>2016-09-21T15:48:24.000Z</time>
      </trkpt>
      <trkpt lon="0.2246400415897369" lat="49.1814155578613281">
        <ele>43.50278091430664</ele>
        <time>2016-09-21T15:48:27.000Z</time>
      </trkpt>
      <trkpt lon="0.2247044146060944" lat="49.1812286376953125">
        <ele>43.08378219604492</ele>
        <time>2016-09-21T15:48:30.000Z</time>
      </trkpt>
      <trkpt lon="0.2247598916292191" lat="49.1810379028320312">
        <ele>42.64629364013672</ele>
        <time>2016-09-21T15:48:33.000Z</time>
      </trkpt>
      <trkpt lon="0.2247914075851440" lat="49.1808128356933594">
        <ele>42.176239013671875</ele>
        <time>2016-09-21T15:48:36.000Z</time>
      </trkpt>
      <trkpt lon="0.2248370051383972" lat="49.1806068420410156">
        <ele>41.69096755981445</ele>
        <time>2016-09-21T15:48:39.000Z</time>
      </trkpt>
      <trkpt lon="0.2248524278402328" lat="49.1804618835449219">
        <ele>41.190757751464844</ele>
        <time>2016-09-21T15:48:41.000Z</time>
      </trkpt>
      <trkpt lon="0.2248892337083817" lat="49.1802444458007812">
        <ele>40.642303466796875</ele>
        <time>2016-09-21T15:48:44.000Z</time>
      </trkpt>
      <trkpt lon="0.2249320596456528" lat="49.1800422668457031">
        <ele>40.084808349609375</ele>
        <time>2016-09-21T15:48:47.000Z</time>
      </trkpt>
      <trkpt lon="0.2249712944030762" lat="49.1798248291015625">
        <ele>39.598731994628906</ele>
        <time>2016-09-21T15:48:50.000Z</time>
      </trkpt>
      <trkpt lon="0.2250404357910156" lat="49.1796188354492188">
        <ele>39.197845458984375</ele>
        <time>2016-09-21T15:48:53.000Z</time>
      </trkpt>
      <trkpt lon="0.2250835150480270" lat="49.1794319152832031">
        <ele>38.83649444580078</ele>
        <time>2016-09-21T15:48:56.000Z</time>
      </trkpt>
      <trkpt lon="0.2251177132129669" lat="49.1792907714843750">
        <ele>38.559165954589844</ele>
        <time>2016-09-21T15:48:59.000Z</time>
      </trkpt>
      <trkpt lon="0.2251240909099579" lat="49.1792030334472656">
        <ele>38.36271286010742</ele>
        <time>2016-09-21T15:49:01.000Z</time>
      </trkpt>
      <trkpt lon="0.2249152958393097" lat="49.1791954040527344">
        <ele>38.216102600097656</ele>
        <time>2016-09-21T15:49:04.000Z</time>
      </trkpt>
      <trkpt lon="0.2247883081436157" lat="49.1792106628417969">
        <ele>38.11571502685547</ele>
        <time>2016-09-21T15:49:06.000Z</time>
      </trkpt>
      <trkpt lon="0.2245516926050186" lat="49.1792411804199219">
        <ele>38.060359954833984</ele>
        <time>2016-09-21T15:49:09.000Z</time>
      </trkpt>
      <trkpt lon="0.2243254631757736" lat="49.1792640686035156">
        <ele>38.03553009033203</ele>
        <time>2016-09-21T15:49:12.000Z</time>
      </trkpt>
      <trkpt lon="0.2240847349166870" lat="49.1792755126953125">
        <ele>38.00707244873047</ele>
        <time>2016-09-21T15:49:15.000Z</time>
      </trkpt>
      <trkpt lon="0.2238362133502960" lat="49.1792945861816406">
        <ele>37.92162322998047</ele>
        <time>2016-09-21T15:49:18.000Z</time>
      </trkpt>
      <trkpt lon="0.2235753685235977" lat="49.1792831420898438">
        <ele>37.771705627441406</ele>
        <time>2016-09-21T15:49:21.000Z</time>
      </trkpt>
      <trkpt lon="0.2233983427286148" lat="49.1792831420898438">
        <ele>37.57918167114258</ele>
        <time>2016-09-21T15:49:23.000Z</time>
      </trkpt>
      <trkpt lon="0.2231364101171494" lat="49.1792373657226562">
        <ele>37.327449798583984</ele>
        <time>2016-09-21T15:49:26.000Z</time>
      </trkpt>
      <trkpt lon="0.2229532599449158" lat="49.1792373657226562">
        <ele>37.05590057373047</ele>
        <time>2016-09-21T15:49:29.000Z</time>
      </trkpt>
      <trkpt lon="0.2227776646614075" lat="49.1792221069335938">
        <ele>36.80185317993164</ele>
        <time>2016-09-21T15:49:31.000Z</time>
      </trkpt>
      <trkpt lon="0.2226430475711823" lat="49.1792068481445312">
        <ele>36.578086853027344</ele>
        <time>2016-09-21T15:49:33.000Z</time>
      </trkpt>
      <trkpt lon="0.2223896682262421" lat="49.1791763305664062">
        <ele>36.3100471496582</ele>
        <time>2016-09-21T15:49:36.000Z</time>
      </trkpt>
      <trkpt lon="0.2221621721982956" lat="49.1791648864746094">
        <ele>35.995147705078125</ele>
        <time>2016-09-21T15:49:39.000Z</time>
      </trkpt>
      <trkpt lon="0.2219425737857819" lat="49.1791534423828125">
        <ele>35.622718811035156</ele>
        <time>2016-09-21T15:49:42.000Z</time>
      </trkpt>
      <trkpt lon="0.2217297554016113" lat="49.1791610717773438">
        <ele>35.18816375732422</ele>
        <time>2016-09-21T15:49:45.000Z</time>
      </trkpt>
      <trkpt lon="0.2215181887149811" lat="49.1791572570800781">
        <ele>34.793033599853516</ele>
        <time>2016-09-21T15:49:48.000Z</time>
      </trkpt>
      <trkpt lon="0.2212948203086853" lat="49.1791534423828125">
        <ele>34.539268493652344</ele>
        <time>2016-09-21T15:49:51.000Z</time>
      </trkpt>
      <trkpt lon="0.2210199683904648" lat="49.1791610717773438">
        <ele>34.45783233642578</ele>
        <time>2016-09-21T15:49:54.000Z</time>
      </trkpt>
      <trkpt lon="0.2207261919975281" lat="49.1791534423828125">
        <ele>34.54936981201172</ele>
        <time>2016-09-21T15:49:57.000Z</time>
      </trkpt>
      <trkpt lon="0.2204260379076004" lat="49.1791191101074219">
        <ele>34.81529998779297</ele>
        <time>2016-09-21T15:50:00.000Z</time>
      </trkpt>
      <trkpt lon="0.2202721387147903" lat="49.1791076660156250">
        <ele>35.10605239868164</ele>
        <time>2016-09-21T15:50:02.000Z</time>
      </trkpt>
      <trkpt lon="0.2200820446014404" lat="49.1790771484375000">
        <ele>35.375308990478516</ele>
        <time>2016-09-21T15:50:04.000Z</time>
      </trkpt>
      <trkpt lon="0.2198602557182312" lat="49.1790504455566406">
        <ele>35.59058380126953</ele>
        <time>2016-09-21T15:50:07.000Z</time>
      </trkpt>
      <trkpt lon="0.2197149097919464" lat="49.1790657043457031">
        <ele>35.738277435302734</ele>
        <time>2016-09-21T15:50:09.000Z</time>
      </trkpt>
      <trkpt lon="0.2194325327873230" lat="49.1790390014648438">
        <ele>35.80998992919922</ele>
        <time>2016-09-21T15:50:12.000Z</time>
      </trkpt>
      <trkpt lon="0.2192243188619614" lat="49.1790275573730469">
        <ele>35.84684371948242</ele>
        <time>2016-09-21T15:50:15.000Z</time>
      </trkpt>
      <trkpt lon="0.2190114259719849" lat="49.1790313720703125">
        <ele>35.820308685302734</ele>
        <time>2016-09-21T15:50:18.000Z</time>
      </trkpt>
      <trkpt lon="0.2188535034656525" lat="49.1790161132812500">
        <ele>35.75091552734375</ele>
        <time>2016-09-21T15:50:20.000Z</time>
      </trkpt>
      <trkpt lon="0.2186899781227112" lat="49.1789932250976562">
        <ele>35.64295196533203</ele>
        <time>2016-09-21T15:50:22.000Z</time>
      </trkpt>
      <trkpt lon="0.2185196578502655" lat="49.1789855957031250">
        <ele>35.508338928222656</ele>
        <time>2016-09-21T15:50:24.000Z</time>
      </trkpt>
      <trkpt lon="0.2183447182178497" lat="49.1789741516113281">
        <ele>35.34364700317383</ele>
        <time>2016-09-21T15:50:26.000Z</time>
      </trkpt>
      <trkpt lon="0.2181136310100555" lat="49.1789665222167969">
        <ele>35.167015075683594</ele>
        <time>2016-09-21T15:50:29.000Z</time>
      </trkpt>
      <trkpt lon="0.2179682850837708" lat="49.1789741516113281">
        <ele>34.997222900390625</ele>
        <time>2016-09-21T15:50:31.000Z</time>
      </trkpt>
      <trkpt lon="0.2177298218011856" lat="49.1789627075195312">
        <ele>34.82011795043945</ele>
        <time>2016-09-21T15:50:34.000Z</time>
      </trkpt>
      <trkpt lon="0.2175315171480179" lat="49.1789436340332031">
        <ele>34.64425277709961</ele>
        <time>2016-09-21T15:50:37.000Z</time>
      </trkpt>
      <trkpt lon="0.2173767834901810" lat="49.1789360046386719">
        <ele>34.46001052856445</ele>
        <time>2016-09-21T15:50:39.000Z</time>
      </trkpt>
      <trkpt lon="0.2172369658946991" lat="49.1789360046386719">
        <ele>34.275089263916016</ele>
        <time>2016-09-21T15:50:41.000Z</time>
      </trkpt>
      <trkpt lon="0.2170431762933731" lat="49.1789207458496094">
        <ele>34.05942916870117</ele>
        <time>2016-09-21T15:50:44.000Z</time>
      </trkpt>
      <trkpt lon="0.2168252468109131" lat="49.1789093017578125">
        <ele>33.81867599487305</ele>
        <time>2016-09-21T15:50:47.000Z</time>
      </trkpt>
      <trkpt lon="0.2166807502508163" lat="49.1789054870605469">
        <ele>33.563865661621094</ele>
        <time>2016-09-21T15:50:49.000Z</time>
      </trkpt>
      <trkpt lon="0.2164715379476547" lat="49.1788978576660156">
        <ele>33.36265182495117</ele>
        <time>2016-09-21T15:50:52.000Z</time>
      </trkpt>
      <trkpt lon="0.2162773311138153" lat="49.1788864135742188">
        <ele>33.218162536621094</ele>
        <time>2016-09-21T15:50:55.000Z</time>
      </trkpt>
      <trkpt lon="0.2160482555627823" lat="49.1788787841796875">
        <ele>33.1468391418457</ele>
        <time>2016-09-21T15:50:58.000Z</time>
      </trkpt>
      <trkpt lon="0.2158882319927216" lat="49.1788787841796875">
        <ele>33.15435791015625</ele>
        <time>2016-09-21T15:51:00.000Z</time>
      </trkpt>
      <trkpt lon="0.2156888395547867" lat="49.1788368225097656">
        <ele>33.17075729370117</ele>
        <time>2016-09-21T15:51:03.000Z</time>
      </trkpt>
      <trkpt lon="0.2155086249113083" lat="49.1788253784179688">
        <ele>33.144081115722656</ele>
        <time>2016-09-21T15:51:05.000Z</time>
      </trkpt>
      <trkpt lon="0.2152672260999680" lat="49.1788291931152344">
        <ele>33.0706901550293</ele>
        <time>2016-09-21T15:51:08.000Z</time>
      </trkpt>
      <trkpt lon="0.2150689959526062" lat="49.1788177490234375">
        <ele>32.95079803466797</ele>
        <time>2016-09-21T15:51:11.000Z</time>
      </trkpt>
      <trkpt lon="0.2148456126451492" lat="49.1788024902343750">
        <ele>32.82190704345703</ele>
        <time>2016-09-21T15:51:14.000Z</time>
      </trkpt>
      <trkpt lon="0.2146357297897339" lat="49.1787910461425781">
        <ele>32.7504997253418</ele>
        <time>2016-09-21T15:51:17.000Z</time>
      </trkpt>
      <trkpt lon="0.2145018726587296" lat="49.1787910461425781">
        <ele>32.72439193725586</ele>
        <time>2016-09-21T15:51:19.000Z</time>
      </trkpt>
      <trkpt lon="0.2143063992261887" lat="49.1787796020507812">
        <ele>32.751747131347656</ele>
        <time>2016-09-21T15:51:22.000Z</time>
      </trkpt>
      <trkpt lon="0.2141200751066208" lat="49.1787605285644531">
        <ele>32.82586669921875</ele>
        <time>2016-09-21T15:51:25.000Z</time>
      </trkpt>
      <trkpt lon="0.2139732241630554" lat="49.1787452697753906">
        <ele>32.89820098876953</ele>
        <time>2016-09-21T15:51:27.000Z</time>
      </trkpt>
      <trkpt lon="0.2137667834758759" lat="49.1787338256835938">
        <ele>32.95214080810547</ele>
        <time>2016-09-21T15:51:30.000Z</time>
      </trkpt>
      <trkpt lon="0.2135721445083618" lat="49.1787338256835938">
        <ele>32.9932975769043</ele>
        <time>2016-09-21T15:51:33.000Z</time>
      </trkpt>
      <trkpt lon="0.2134213596582413" lat="49.1787147521972656">
        <ele>33.02387619018555</ele>
        <time>2016-09-21T15:51:35.000Z</time>
      </trkpt>
      <trkpt lon="0.2132002413272858" lat="49.1787109375000000">
        <ele>33.039894104003906</ele>
        <time>2016-09-21T15:51:38.000Z</time>
      </trkpt>
      <trkpt lon="0.2130690664052963" lat="49.1787071228027344">
        <ele>33.053306579589844</ele>
        <time>2016-09-21T15:51:40.000Z</time>
      </trkpt>
      <trkpt lon="0.2127813249826431" lat="49.1787071228027344">
        <ele>33.056922912597656</ele>
        <time>2016-09-21T15:51:43.000Z</time>
      </trkpt>
      <trkpt lon="0.2125171273946762" lat="49.1786766052246094">
        <ele>33.0526123046875</ele>
        <time>2016-09-21T15:51:46.000Z</time>
      </trkpt>
      <trkpt lon="0.2123062312602997" lat="49.1786766052246094">
        <ele>33.018333435058594</ele>
        <time>2016-09-21T15:51:49.000Z</time>
      </trkpt>
      <trkpt lon="0.2121384292840958" lat="49.1786651611328125">
        <ele>32.967918395996094</ele>
        <time>2016-09-21T15:51:51.000Z</time>
      </trkpt>
      <trkpt lon="0.2120038121938705" lat="49.1786651611328125">
        <ele>32.906219482421875</ele>
        <time>2016-09-21T15:51:53.000Z</time>
      </trkpt>
      <trkpt lon="0.2118414491415024" lat="49.1786537170410156">
        <ele>32.838417053222656</ele>
        <time>2016-09-21T15:51:55.000Z</time>
      </trkpt>
      <trkpt lon="0.2116445600986481" lat="49.1786422729492188">
        <ele>32.7636833190918</ele>
        <time>2016-09-21T15:51:58.000Z</time>
      </trkpt>
      <trkpt lon="0.2114888280630112" lat="49.1786308288574219">
        <ele>32.71184539794922</ele>
        <time>2016-09-21T15:52:00.000Z</time>
      </trkpt>
      <trkpt lon="0.2112878262996674" lat="49.1786117553710938">
        <ele>32.6793212890625</ele>
        <time>2016-09-21T15:52:03.000Z</time>
      </trkpt>
      <trkpt lon="0.2111516296863556" lat="49.1786003112792969">
        <ele>32.66262435913086</ele>
        <time>2016-09-21T15:52:05.000Z</time>
      </trkpt>
      <trkpt lon="0.2109375447034836" lat="49.1786003112792969">
        <ele>32.6591796875</ele>
        <time>2016-09-21T15:52:08.000Z</time>
      </trkpt>
      <trkpt lon="0.2107124179601669" lat="49.1785850524902344">
        <ele>32.75115203857422</ele>
        <time>2016-09-21T15:52:11.000Z</time>
      </trkpt>
      <trkpt lon="0.2105722725391388" lat="49.1785774230957031">
        <ele>32.93351745605469</ele>
        <time>2016-09-21T15:52:13.000Z</time>
      </trkpt>
      <trkpt lon="0.2104343920946121" lat="49.1785659790039062">
        <ele>33.2059211730957</ele>
        <time>2016-09-21T15:52:15.000Z</time>
      </trkpt>
      <trkpt lon="0.2102287709712982" lat="49.1785469055175781">
        <ele>33.61648941040039</ele>
        <time>2016-09-21T15:52:18.000Z</time>
      </trkpt>
      <trkpt lon="0.2100965976715088" lat="49.1785392761230469">
        <ele>34.11772918701172</ele>
        <time>2016-09-21T15:52:20.000Z</time>
      </trkpt>
      <trkpt lon="0.2099142819643021" lat="49.1785392761230469">
        <ele>34.641700744628906</ele>
        <time>2016-09-21T15:52:23.000Z</time>
      </trkpt>
      <trkpt lon="0.2098056524991989" lat="49.1785316467285156">
        <ele>35.12841033935547</ele>
        <time>2016-09-21T15:52:26.000Z</time>
      </trkpt>
      <trkpt lon="0.2097511738538742" lat="49.1785354614257812">
        <ele>35.54536056518555</ele>
        <time>2016-09-21T15:52:28.000Z</time>
      </trkpt>
      <trkpt lon="0.2096846252679825" lat="49.1785430908203125">
        <ele>35.84925842285156</ele>
        <time>2016-09-21T15:52:31.000Z</time>
      </trkpt>
      <trkpt lon="0.2096507549285889" lat="49.1785469055175781">
        <ele>36.07678985595703</ele>
        <time>2016-09-21T15:52:33.000Z</time>
      </trkpt>
      <trkpt lon="0.2096103578805923" lat="49.1785621643066406">
        <ele>36.212913513183594</ele>
        <time>2016-09-21T15:52:36.000Z</time>
      </trkpt>
      <trkpt lon="0.2095775008201599" lat="49.1785736083984375">
        <ele>36.302894592285156</ele>
        <time>2016-09-21T15:52:38.000Z</time>
      </trkpt>
      <trkpt lon="0.2095143049955368" lat="49.1785774230957031">
        <ele>36.397064208984375</ele>
        <time>2016-09-21T15:52:41.000Z</time>
      </trkpt>
      <trkpt lon="0.2095191627740860" lat="49.1785049438476562">
        <ele>36.49601745605469</ele>
        <time>2016-09-21T15:52:43.000Z</time>
      </trkpt>
      <trkpt lon="0.2096136361360550" lat="49.1782302856445312">
        <ele>36.63798904418945</ele>
        <time>2016-09-21T15:52:47.000Z</time>
      </trkpt>
      <trkpt lon="0.2096443027257919" lat="49.1781425476074219">
        <ele>36.763282775878906</ele>
        <time>2016-09-21T15:52:49.000Z</time>
      </trkpt>
      <trkpt lon="0.2096805125474930" lat="49.1780357360839844">
        <ele>36.8668212890625</ele>
        <time>2016-09-21T15:52:51.000Z</time>
      </trkpt>
      <trkpt lon="0.2097495049238205" lat="49.1778984069824219">
        <ele>36.89189910888672</ele>
        <time>2016-09-21T15:52:54.000Z</time>
      </trkpt>
      <trkpt lon="0.2097794264554977" lat="49.1777954101562500">
        <ele>36.856201171875</ele>
        <time>2016-09-21T15:52:56.000Z</time>
      </trkpt>
      <trkpt lon="0.2098293006420135" lat="49.1776580810546875">
        <ele>36.70234298706055</ele>
        <time>2016-09-21T15:52:59.000Z</time>
      </trkpt>
      <trkpt lon="0.2098987847566605" lat="49.1775245666503906">
        <ele>36.44755935668945</ele>
        <time>2016-09-21T15:53:02.000Z</time>
      </trkpt>
      <trkpt lon="0.2099417746067047" lat="49.1774368286132812">
        <ele>36.275264739990234</ele>
        <time>2016-09-21T15:53:04.000Z</time>
      </trkpt>
      <trkpt lon="0.2100147008895874" lat="49.1773338317871094">
        <ele>36.269901275634766</ele>
        <time>2016-09-21T15:53:07.000Z</time>
      </trkpt>
      <trkpt lon="0.2100865393877029" lat="49.1772499084472656">
        <ele>36.37978744506836</ele>
        <time>2016-09-21T15:53:09.000Z</time>
      </trkpt>
      <trkpt lon="0.2101315408945084" lat="49.1771697998046875">
        <ele>36.65966033935547</ele>
        <time>2016-09-21T15:53:11.000Z</time>
      </trkpt>
      <trkpt lon="0.2101614773273468" lat="49.1770782470703125">
        <ele>37.186988830566406</ele>
        <time>2016-09-21T15:53:13.000Z</time>
      </trkpt>
      <trkpt lon="0.2102538347244263" lat="49.1769561767578125">
        <ele>37.75626754760742</ele>
        <time>2016-09-21T15:53:16.000Z</time>
      </trkpt>
      <trkpt lon="0.2103031277656555" lat="49.1768493652343750">
        <ele>38.35226058959961</ele>
        <time>2016-09-21T15:53:19.000Z</time>
      </trkpt>
      <trkpt lon="0.2103560119867325" lat="49.1767730712890625">
        <ele>38.92080307006836</ele>
        <time>2016-09-21T15:53:21.000Z</time>
      </trkpt>
      <trkpt lon="0.2104854285717010" lat="49.1766662597656250">
        <ele>39.36973190307617</ele>
        <time>2016-09-21T15:53:24.000Z</time>
      </trkpt>
      <trkpt lon="0.2106025218963623" lat="49.1765556335449219">
        <ele>39.72875213623047</ele>
        <time>2016-09-21T15:53:27.000Z</time>
      </trkpt>
      <trkpt lon="0.2106500566005707" lat="49.1764793395996094">
        <ele>40.06409454345703</ele>
        <time>2016-09-21T15:53:29.000Z</time>
      </trkpt>
      <trkpt lon="0.2107557505369186" lat="49.1763648986816406">
        <ele>40.37055587768555</ele>
        <time>2016-09-21T15:53:32.000Z</time>
      </trkpt>
      <trkpt lon="0.2108317762613297" lat="49.1762542724609375">
        <ele>40.772918701171875</ele>
        <time>2016-09-21T15:53:35.000Z</time>
      </trkpt>
      <trkpt lon="0.2109228819608688" lat="49.1761360168457031">
        <ele>41.31240463256836</ele>
        <time>2016-09-21T15:53:38.000Z</time>
      </trkpt>
      <trkpt lon="0.2109984010457993" lat="49.1760482788085938">
        <ele>41.852867126464844</ele>
        <time>2016-09-21T15:53:40.000Z</time>
      </trkpt>
      <trkpt lon="0.2110887616872787" lat="49.1759223937988281">
        <ele>42.39373016357422</ele>
        <time>2016-09-21T15:53:43.000Z</time>
      </trkpt>
      <trkpt lon="0.2111508697271347" lat="49.1757965087890625">
        <ele>42.915584564208984</ele>
        <time>2016-09-21T15:53:46.000Z</time>
      </trkpt>
      <trkpt lon="0.2112256437540054" lat="49.1756629943847656">
        <ele>43.29726791381836</ele>
        <time>2016-09-21T15:53:49.000Z</time>
      </trkpt>
      <trkpt lon="0.2112753391265869" lat="49.1755714416503906">
        <ele>43.57160186767578</ele>
        <time>2016-09-21T15:53:51.000Z</time>
      </trkpt>
      <trkpt lon="0.2113139778375626" lat="49.1754837036132812">
        <ele>43.8253173828125</ele>
        <time>2016-09-21T15:53:53.000Z</time>
      </trkpt>
      <trkpt lon="0.2113990634679794" lat="49.1753578186035156">
        <ele>43.98639678955078</ele>
        <time>2016-09-21T15:53:56.000Z</time>
      </trkpt>
      <trkpt lon="0.2114665359258652" lat="49.1752319335937500">
        <ele>44.08967208862305</ele>
        <time>2016-09-21T15:53:59.000Z</time>
      </trkpt>
      <trkpt lon="0.2115042507648468" lat="49.1751327514648438">
        <ele>44.23848342895508</ele>
        <time>2016-09-21T15:54:01.000Z</time>
      </trkpt>
      <trkpt lon="0.2115796953439713" lat="49.1750030517578125">
        <ele>44.404483795166016</ele>
        <time>2016-09-21T15:54:04.000Z</time>
      </trkpt>
      <trkpt lon="0.2116326689720154" lat="49.1748580932617188">
        <ele>44.511837005615234</ele>
        <time>2016-09-21T15:54:07.000Z</time>
      </trkpt>
      <trkpt lon="0.2116491794586182" lat="49.1747894287109375">
        <ele>44.62333297729492</ele>
        <time>2016-09-21T15:54:09.000Z</time>
      </trkpt>
      <trkpt lon="0.2117059230804443" lat="49.1746330261230469">
        <ele>44.673667907714844</ele>
        <time>2016-09-21T15:54:12.000Z</time>
      </trkpt>
      <trkpt lon="0.2117936015129089" lat="49.1744956970214844">
        <ele>44.5963020324707</ele>
        <time>2016-09-21T15:54:15.000Z</time>
      </trkpt>
      <trkpt lon="0.2118697911500931" lat="49.1743698120117188">
        <ele>44.433433532714844</ele>
        <time>2016-09-21T15:54:18.000Z</time>
      </trkpt>
      <trkpt lon="0.2119518518447876" lat="49.1742744445800781">
        <ele>44.22502517700195</ele>
        <time>2016-09-21T15:54:20.000Z</time>
      </trkpt>
      <trkpt lon="0.2120187282562256" lat="49.1741714477539062">
        <ele>43.9788932800293</ele>
        <time>2016-09-21T15:54:22.000Z</time>
      </trkpt>
      <trkpt lon="0.2120893150568008" lat="49.1740760803222656">
        <ele>43.785762786865234</ele>
        <time>2016-09-21T15:54:24.000Z</time>
      </trkpt>
      <trkpt lon="0.2122209817171097" lat="49.1739654541015625">
        <ele>43.5966911315918</ele>
        <time>2016-09-21T15:54:27.000Z</time>
      </trkpt>
      <trkpt lon="0.2123270183801651" lat="49.1738586425781250">
        <ele>43.40213394165039</ele>
        <time>2016-09-21T15:54:29.000Z</time>
      </trkpt>
      <trkpt lon="0.2123932391405106" lat="49.1737594604492188">
        <ele>43.26940155029297</ele>
        <time>2016-09-21T15:54:31.000Z</time>
      </trkpt>
      <trkpt lon="0.2124791443347931" lat="49.1736450195312500">
        <ele>43.121604919433594</ele>
        <time>2016-09-21T15:54:33.000Z</time>
      </trkpt>
      <trkpt lon="0.2126268446445465" lat="49.1734924316406250">
        <ele>42.88108444213867</ele>
        <time>2016-09-21T15:54:36.000Z</time>
      </trkpt>
      <trkpt lon="0.2127948999404907" lat="49.1733398437500000">
        <ele>42.59351348876953</ele>
        <time>2016-09-21T15:54:39.000Z</time>
      </trkpt>
      <trkpt lon="0.2129604369401932" lat="49.1731872558593750">
        <ele>42.411048889160156</ele>
        <time>2016-09-21T15:54:42.000Z</time>
      </trkpt>
      <trkpt lon="0.2130834013223648" lat="49.1730766296386719">
        <ele>42.2709846496582</ele>
        <time>2016-09-21T15:54:44.000Z</time>
      </trkpt>
      <trkpt lon="0.2131878435611725" lat="49.1729698181152344">
        <ele>42.23558807373047</ele>
        <time>2016-09-21T15:54:46.000Z</time>
      </trkpt>
      <trkpt lon="0.2133434116840363" lat="49.1728019714355469">
        <ele>42.35751724243164</ele>
        <time>2016-09-21T15:54:49.000Z</time>
      </trkpt>
      <trkpt lon="0.2134676277637482" lat="49.1726951599121094">
        <ele>42.56427001953125</ele>
        <time>2016-09-21T15:54:51.000Z</time>
      </trkpt>
      <trkpt lon="0.2135732471942902" lat="49.1725921630859375">
        <ele>42.68749237060547</ele>
        <time>2016-09-21T15:54:53.000Z</time>
      </trkpt>
      <trkpt lon="0.2136977165937424" lat="49.1724853515625000">
        <ele>42.6522216796875</ele>
        <time>2016-09-21T15:54:55.000Z</time>
      </trkpt>
      <trkpt lon="0.2139137983322144" lat="49.1723175048828125">
        <ele>42.177589416503906</ele>
        <time>2016-09-21T15:54:58.000Z</time>
      </trkpt>
      <trkpt lon="0.2140618264675140" lat="49.1722183227539062">
        <ele>41.33772659301758</ele>
        <time>2016-09-21T15:55:00.000Z</time>
      </trkpt>
      <trkpt lon="0.2142570316791534" lat="49.1720771789550781">
        <ele>40.286537170410156</ele>
        <time>2016-09-21T15:55:03.000Z</time>
      </trkpt>
      <trkpt lon="0.2144235074520111" lat="49.1719436645507812">
        <ele>39.18272018432617</ele>
        <time>2016-09-21T15:55:06.000Z</time>
      </trkpt>
      <trkpt lon="0.2146084904670715" lat="49.1718139648437500">
        <ele>38.086647033691406</ele>
        <time>2016-09-21T15:55:09.000Z</time>
      </trkpt>
      <trkpt lon="0.2147944867610931" lat="49.1716804504394531">
        <ele>37.2467155456543</ele>
        <time>2016-09-21T15:55:12.000Z</time>
      </trkpt>
      <trkpt lon="0.2149749398231506" lat="49.1715583801269531">
        <ele>36.5107536315918</ele>
        <time>2016-09-21T15:55:15.000Z</time>
      </trkpt>
      <trkpt lon="0.2151751965284348" lat="49.1715011596679688">
        <ele>36.009735107421875</ele>
        <time>2016-09-21T15:55:17.000Z</time>
      </trkpt>
      <trkpt lon="0.2153470963239670" lat="49.1713752746582031">
        <ele>35.59387969970703</ele>
        <time>2016-09-21T15:55:20.000Z</time>
      </trkpt>
      <trkpt lon="0.2154626846313477" lat="49.1712837219238281">
        <ele>35.279319763183594</ele>
        <time>2016-09-21T15:55:22.000Z</time>
      </trkpt>
      <trkpt lon="0.2155852317810059" lat="49.1712074279785156">
        <ele>35.07166290283203</ele>
        <time>2016-09-21T15:55:24.000Z</time>
      </trkpt>
      <trkpt lon="0.2157449126243591" lat="49.1711463928222656">
        <ele>35.00090408325195</ele>
        <time>2016-09-21T15:55:27.000Z</time>
      </trkpt>
      <trkpt lon="0.2158704698085785" lat="49.1710281372070312">
        <ele>34.88301086425781</ele>
        <time>2016-09-21T15:55:30.000Z</time>
      </trkpt>
      <trkpt lon="0.2159462422132492" lat="49.1709632873535156">
        <ele>34.7663459777832</ele>
        <time>2016-09-21T15:55:32.000Z</time>
      </trkpt>
      <trkpt lon="0.2159893214702606" lat="49.1709022521972656">
        <ele>34.65888214111328</ele>
        <time>2016-09-21T15:55:35.000Z</time>
      </trkpt>
      <trkpt lon="0.2159763276576996" lat="49.1707725524902344">
        <ele>34.539268493652344</ele>
        <time>2016-09-21T15:55:38.000Z</time>
      </trkpt>
      <trkpt lon="0.2159793525934219" lat="49.1706733703613281">
        <ele>34.44702911376953</ele>
        <time>2016-09-21T15:55:40.000Z</time>
      </trkpt>
      <trkpt lon="0.2160245329141617" lat="49.1705894470214844">
        <ele>34.41796112060547</ele>
        <time>2016-09-21T15:55:42.000Z</time>
      </trkpt>
      <trkpt lon="0.2161693722009659" lat="49.1704635620117188">
        <ele>34.43519592285156</ele>
        <time>2016-09-21T15:55:45.000Z</time>
      </trkpt>
      <trkpt lon="0.2162918299436569" lat="49.1704406738281250">
        <ele>34.501834869384766</ele>
        <time>2016-09-21T15:55:47.000Z</time>
      </trkpt>
      <trkpt lon="0.2164147943258286" lat="49.1704597473144531">
        <ele>34.652122497558594</ele>
        <time>2016-09-21T15:55:49.000Z</time>
      </trkpt>
      <trkpt lon="0.2166091650724411" lat="49.1704101562500000">
        <ele>34.866546630859375</ele>
        <time>2016-09-21T15:55:52.000Z</time>
      </trkpt>
      <trkpt lon="0.2167371511459351" lat="49.1703491210937500">
        <ele>35.08183670043945</ele>
        <time>2016-09-21T15:55:54.000Z</time>
      </trkpt>
      <trkpt lon="0.2168367356061935" lat="49.1702728271484375">
        <ele>35.249107360839844</ele>
        <time>2016-09-21T15:55:56.000Z</time>
      </trkpt>
      <trkpt lon="0.2169954031705856" lat="49.1701469421386719">
        <ele>35.38068389892578</ele>
        <time>2016-09-21T15:55:59.000Z</time>
      </trkpt>
      <trkpt lon="0.2171663939952850" lat="49.1699943542480469">
        <ele>35.48302459716797</ele>
        <time>2016-09-21T15:56:02.000Z</time>
      </trkpt>
      <trkpt lon="0.2172559201717377" lat="49.1699180603027344">
        <ele>35.526878356933594</ele>
        <time>2016-09-21T15:56:04.000Z</time>
      </trkpt>
      <trkpt lon="0.2173549830913544" lat="49.1698417663574219">
        <ele>35.56017303466797</ele>
        <time>2016-09-21T15:56:06.000Z</time>
      </trkpt>
      <trkpt lon="0.2175263166427612" lat="49.1697120666503906">
        <ele>35.602027893066406</ele>
        <time>2016-09-21T15:56:09.000Z</time>
      </trkpt>
      <trkpt lon="0.2176598310470581" lat="49.1695785522460938">
        <ele>35.620208740234375</ele>
        <time>2016-09-21T15:56:12.000Z</time>
      </trkpt>
      <trkpt lon="0.2177679687738419" lat="49.1694869995117188">
        <ele>35.60288619995117</ele>
        <time>2016-09-21T15:56:14.000Z</time>
      </trkpt>
      <trkpt lon="0.2178550511598587" lat="49.1693496704101562">
        <ele>35.54330062866211</ele>
        <time>2016-09-21T15:56:17.000Z</time>
      </trkpt>
      <trkpt lon="0.2179618328809738" lat="49.1691894531250000">
        <ele>35.424888610839844</ele>
        <time>2016-09-21T15:56:20.000Z</time>
      </trkpt>
      <trkpt lon="0.2180544584989548" lat="49.1690368652343750">
        <ele>35.33252716064453</ele>
        <time>2016-09-21T15:56:23.000Z</time>
      </trkpt>
      <trkpt lon="0.2181133776903152" lat="49.1689338684082031">
        <ele>35.285133361816406</ele>
        <time>2016-09-21T15:56:25.000Z</time>
      </trkpt>
      <trkpt lon="0.2182282209396362" lat="49.1687698364257812">
        <ele>35.290809631347656</ele>
        <time>2016-09-21T15:56:28.000Z</time>
      </trkpt>
      <trkpt lon="0.2183155566453934" lat="49.1686096191406250">
        <ele>35.36473846435547</ele>
        <time>2016-09-21T15:56:31.000Z</time>
      </trkpt>
      <trkpt lon="0.2183848768472672" lat="49.1684951782226562">
        <ele>35.514915466308594</ele>
        <time>2016-09-21T15:56:34.000Z</time>
      </trkpt>
      <trkpt lon="0.2184521853923798" lat="49.1683654785156250">
        <ele>35.6406364440918</ele>
        <time>2016-09-21T15:56:37.000Z</time>
      </trkpt>
      <trkpt lon="0.2185117751359940" lat="49.1682472229003906">
        <ele>35.714900970458984</ele>
        <time>2016-09-21T15:56:40.000Z</time>
      </trkpt>
      <trkpt lon="0.2185572087764740" lat="49.1681060791015625">
        <ele>35.72892761230469</ele>
        <time>2016-09-21T15:56:43.000Z</time>
      </trkpt>
      <trkpt lon="0.2186093330383301" lat="49.1680030822753906">
        <ele>35.699745178222656</ele>
        <time>2016-09-21T15:56:45.000Z</time>
      </trkpt>
      <trkpt lon="0.2186694443225861" lat="49.1678695678710938">
        <ele>35.638954162597656</ele>
        <time>2016-09-21T15:56:48.000Z</time>
      </trkpt>
      <trkpt lon="0.2187266796827316" lat="49.1677627563476562">
        <ele>35.56891632080078</ele>
        <time>2016-09-21T15:56:50.000Z</time>
      </trkpt>
      <trkpt lon="0.2187699377536774" lat="49.1676712036132812">
        <ele>35.526611328125</ele>
        <time>2016-09-21T15:56:52.000Z</time>
      </trkpt>
      <trkpt lon="0.2188232392072678" lat="49.1675224304199219">
        <ele>35.52215576171875</ele>
        <time>2016-09-21T15:56:55.000Z</time>
      </trkpt>
      <trkpt lon="0.2188622206449509" lat="49.1673889160156250">
        <ele>35.535179138183594</ele>
        <time>2016-09-21T15:56:58.000Z</time>
      </trkpt>
      <trkpt lon="0.2188867777585983" lat="49.1672935485839844">
        <ele>35.5538330078125</ele>
        <time>2016-09-21T15:57:00.000Z</time>
      </trkpt>
      <trkpt lon="0.2189451158046722" lat="49.1671409606933594">
        <ele>35.562599182128906</ele>
        <time>2016-09-21T15:57:03.000Z</time>
      </trkpt>
      <trkpt lon="0.2190155237913132" lat="49.1669883728027344">
        <ele>35.545223236083984</ele>
        <time>2016-09-21T15:57:06.000Z</time>
      </trkpt>
      <trkpt lon="0.2190502285957336" lat="49.1668510437011719">
        <ele>35.4881477355957</ele>
        <time>2016-09-21T15:57:09.000Z</time>
      </trkpt>
      <trkpt lon="0.2190784811973572" lat="49.1667137145996094">
        <ele>35.3986701965332</ele>
        <time>2016-09-21T15:57:12.000Z</time>
      </trkpt>
      <trkpt lon="0.2191398292779922" lat="49.1665649414062500">
        <ele>35.33582305908203</ele>
        <time>2016-09-21T15:57:15.000Z</time>
      </trkpt>
      <trkpt lon="0.2191868573427200" lat="49.1664543151855469">
        <ele>35.33917236328125</ele>
        <time>2016-09-21T15:57:17.000Z</time>
      </trkpt>
      <trkpt lon="0.2192250788211823" lat="49.1663589477539062">
        <ele>35.42500305175781</ele>
        <time>2016-09-21T15:57:19.000Z</time>
      </trkpt>
      <trkpt lon="0.2192704230546951" lat="49.1662292480468750">
        <ele>35.61300277709961</ele>
        <time>2016-09-21T15:57:22.000Z</time>
      </trkpt>
      <trkpt lon="0.2193025201559067" lat="49.1661338806152344">
        <ele>35.882816314697266</ele>
        <time>2016-09-21T15:57:24.000Z</time>
      </trkpt>
      <trkpt lon="0.2193421721458435" lat="49.1660003662109375">
        <ele>36.19994354248047</ele>
        <time>2016-09-21T15:57:27.000Z</time>
      </trkpt>
      <trkpt lon="0.2193670570850372" lat="49.1659126281738281">
        <ele>36.503990173339844</ele>
        <time>2016-09-21T15:57:29.000Z</time>
      </trkpt>
      <trkpt lon="0.2194236367940903" lat="49.1657752990722656">
        <ele>36.77625274658203</ele>
        <time>2016-09-21T15:57:32.000Z</time>
      </trkpt>
      <trkpt lon="0.2194925397634506" lat="49.1656341552734375">
        <ele>36.94001388549805</ele>
        <time>2016-09-21T15:57:35.000Z</time>
      </trkpt>
      <trkpt lon="0.2195543199777603" lat="49.1654891967773438">
        <ele>37.012359619140625</ele>
        <time>2016-09-21T15:57:38.000Z</time>
      </trkpt>
      <trkpt lon="0.2196113169193268" lat="49.1653404235839844">
        <ele>36.966739654541016</ele>
        <time>2016-09-21T15:57:41.000Z</time>
      </trkpt>
      <trkpt lon="0.2195694893598557" lat="49.1652450561523438">
        <ele>36.8404541015625</ele>
        <time>2016-09-21T15:57:43.000Z</time>
      </trkpt>
      <trkpt lon="0.2195771932601929" lat="49.1651115417480469">
        <ele>36.63715362548828</ele>
        <time>2016-09-21T15:57:46.000Z</time>
      </trkpt>
      <trkpt lon="0.2195773720741272" lat="49.1650238037109375">
        <ele>36.43394088745117</ele>
        <time>2016-09-21T15:57:48.000Z</time>
      </trkpt>
      <trkpt lon="0.2196017503738403" lat="49.1648941040039062">
        <ele>36.273704528808594</ele>
        <time>2016-09-21T15:57:51.000Z</time>
      </trkpt>
      <trkpt lon="0.2196521311998367" lat="49.1647644042968750">
        <ele>36.17230987548828</ele>
        <time>2016-09-21T15:57:54.000Z</time>
      </trkpt>
      <trkpt lon="0.2196759432554245" lat="49.1646003723144531">
        <ele>36.121891021728516</ele>
        <time>2016-09-21T15:57:57.000Z</time>
      </trkpt>
      <trkpt lon="0.2197356969118118" lat="49.1645050048828125">
        <ele>36.1192626953125</ele>
        <time>2016-09-21T15:57:59.000Z</time>
      </trkpt>
      <trkpt lon="0.2197782844305038" lat="49.1644058227539062">
        <ele>36.149131774902344</ele>
        <time>2016-09-21T15:58:01.000Z</time>
      </trkpt>
      <trkpt lon="0.2197546362876892" lat="49.1642913818359375">
        <ele>36.18696212768555</ele>
        <time>2016-09-21T15:58:03.000Z</time>
      </trkpt>
      <trkpt lon="0.2196989059448242" lat="49.1642265319824219">
        <ele>36.2303352355957</ele>
        <time>2016-09-21T15:58:05.000Z</time>
      </trkpt>
      <trkpt lon="0.2197169214487076" lat="49.1641235351562500">
        <ele>36.281612396240234</ele>
        <time>2016-09-21T15:58:08.000Z</time>
      </trkpt>
      <trkpt lon="0.2197354435920715" lat="49.1640357971191406">
        <ele>36.37117385864258</ele>
        <time>2016-09-21T15:58:10.000Z</time>
      </trkpt>
      <trkpt lon="0.2197709828615189" lat="49.1639022827148438">
        <ele>36.5142707824707</ele>
        <time>2016-09-21T15:58:13.000Z</time>
      </trkpt>
      <trkpt lon="0.2197378724813461" lat="49.1638031005859375">
        <ele>36.70203399658203</ele>
        <time>2016-09-21T15:58:15.000Z</time>
      </trkpt>
      <trkpt lon="0.2197559773921967" lat="49.1637191772460938">
        <ele>36.90747833251953</ele>
        <time>2016-09-21T15:58:17.000Z</time>
      </trkpt>
      <trkpt lon="0.2198030054569244" lat="49.1635589599609375">
        <ele>37.158302307128906</ele>
        <time>2016-09-21T15:58:20.000Z</time>
      </trkpt>
      <trkpt lon="0.2198539674282074" lat="49.1634254455566406">
        <ele>37.42282485961914</ele>
        <time>2016-09-21T15:58:23.000Z</time>
      </trkpt>
      <trkpt lon="0.2198335230350494" lat="49.1632843017578125">
        <ele>37.67012405395508</ele>
        <time>2016-09-21T15:58:26.000Z</time>
      </trkpt>
      <trkpt lon="0.2198320925235748" lat="49.1631851196289062">
        <ele>37.83657455444336</ele>
        <time>2016-09-21T15:58:28.000Z</time>
      </trkpt>
      <trkpt lon="0.2198561429977417" lat="49.1630401611328125">
        <ele>37.92835998535156</ele>
        <time>2016-09-21T15:58:31.000Z</time>
      </trkpt>
      <trkpt lon="0.2198957055807114" lat="49.1628913879394531">
        <ele>37.90767288208008</ele>
        <time>2016-09-21T15:58:34.000Z</time>
      </trkpt>
      <trkpt lon="0.2199070304632187" lat="49.1627349853515625">
        <ele>37.79494094848633</ele>
        <time>2016-09-21T15:58:37.000Z</time>
      </trkpt>
      <trkpt lon="0.2199283093214035" lat="49.1625747680664062">
        <ele>37.601287841796875</ele>
        <time>2016-09-21T15:58:40.000Z</time>
      </trkpt>
      <trkpt lon="0.2199223637580872" lat="49.1624679565429688">
        <ele>37.421913146972656</ele>
        <time>2016-09-21T15:58:42.000Z</time>
      </trkpt>
      <trkpt lon="0.2199445813894272" lat="49.1623039245605469">
        <ele>37.31144332885742</ele>
        <time>2016-09-21T15:58:45.000Z</time>
      </trkpt>
      <trkpt lon="0.2199565619230270" lat="49.1622161865234375">
        <ele>37.264320373535156</ele>
        <time>2016-09-21T15:58:47.000Z</time>
      </trkpt>
      <trkpt lon="0.2199923545122147" lat="49.1620674133300781">
        <ele>37.288822174072266</ele>
        <time>2016-09-21T15:58:50.000Z</time>
      </trkpt>
      <trkpt lon="0.2200099527835846" lat="49.1619644165039062">
        <ele>37.380558013916016</ele>
        <time>2016-09-21T15:58:52.000Z</time>
      </trkpt>
      <trkpt lon="0.2200221121311188" lat="49.1618576049804688">
        <ele>37.50455856323242</ele>
        <time>2016-09-21T15:58:55.000Z</time>
      </trkpt>
      <trkpt lon="0.2200672924518585" lat="49.1617126464843750">
        <ele>37.623924255371094</ele>
        <time>2016-09-21T15:58:58.000Z</time>
      </trkpt>
      <trkpt lon="0.2200849801301956" lat="49.1616210937500000">
        <ele>37.73186492919922</ele>
        <time>2016-09-21T15:59:00.000Z</time>
      </trkpt>
      <trkpt lon="0.2200976312160492" lat="49.1615219116210938">
        <ele>37.80498504638672</ele>
        <time>2016-09-21T15:59:02.000Z</time>
      </trkpt>
      <trkpt lon="0.2201505154371262" lat="49.1613464355468750">
        <ele>37.84233856201172</ele>
        <time>2016-09-21T15:59:05.000Z</time>
      </trkpt>
      <trkpt lon="0.2201945185661316" lat="49.1612548828125000">
        <ele>37.84666442871094</ele>
        <time>2016-09-21T15:59:07.000Z</time>
      </trkpt>
      <trkpt lon="0.2202228605747223" lat="49.1611633300781250">
        <ele>37.81987762451172</ele>
        <time>2016-09-21T15:59:09.000Z</time>
      </trkpt>
      <trkpt lon="0.2202853858470917" lat="49.1610374450683594">
        <ele>37.77178192138672</ele>
        <time>2016-09-21T15:59:12.000Z</time>
      </trkpt>
      <trkpt lon="0.2203723937273026" lat="49.1608924865722656">
        <ele>37.705841064453125</ele>
        <time>2016-09-21T15:59:15.000Z</time>
      </trkpt>
      <trkpt lon="0.2204445600509644" lat="49.1608047485351562">
        <ele>37.63190460205078</ele>
        <time>2016-09-21T15:59:17.000Z</time>
      </trkpt>
      <trkpt lon="0.2205803394317627" lat="49.1606788635253906">
        <ele>37.52791976928711</ele>
        <time>2016-09-21T15:59:20.000Z</time>
      </trkpt>
      <trkpt lon="0.2207345664501190" lat="49.1605224609375000">
        <ele>37.39626693725586</ele>
        <time>2016-09-21T15:59:23.000Z</time>
      </trkpt>
      <trkpt lon="0.2207991182804108" lat="49.1604309082031250">
        <ele>37.26902389526367</ele>
        <time>2016-09-21T15:59:25.000Z</time>
      </trkpt>
      <trkpt lon="0.2208545953035355" lat="49.1603393554687500">
        <ele>37.15934371948242</ele>
        <time>2016-09-21T15:59:27.000Z</time>
      </trkpt>
      <trkpt lon="0.2209202349185944" lat="49.1602249145507812">
        <ele>37.0789794921875</ele>
        <time>2016-09-21T15:59:30.000Z</time>
      </trkpt>
      <trkpt lon="0.2210250049829483" lat="49.1600914001464844">
        <ele>37.065582275390625</ele>
        <time>2016-09-21T15:59:33.000Z</time>
      </trkpt>
      <trkpt lon="0.2210903763771057" lat="49.1599693298339844">
        <ele>37.1124153137207</ele>
        <time>2016-09-21T15:59:36.000Z</time>
      </trkpt>
      <trkpt lon="0.2211773097515106" lat="49.1598968505859375">
        <ele>37.19070053100586</ele>
        <time>2016-09-21T15:59:38.000Z</time>
      </trkpt>
      <trkpt lon="0.2212658971548080" lat="49.1597442626953125">
        <ele>37.29357147216797</ele>
        <time>2016-09-21T15:59:41.000Z</time>
      </trkpt>
      <trkpt lon="0.2214119136333466" lat="49.1596183776855469">
        <ele>37.42285919189453</ele>
        <time>2016-09-21T15:59:44.000Z</time>
      </trkpt>
      <trkpt lon="0.2215072959661484" lat="49.1594657897949219">
        <ele>37.548667907714844</ele>
        <time>2016-09-21T15:59:47.000Z</time>
      </trkpt>
      <trkpt lon="0.2216055393218994" lat="49.1593437194824219">
        <ele>37.67230987548828</ele>
        <time>2016-09-21T15:59:50.000Z</time>
      </trkpt>
      <trkpt lon="0.2216830700635910" lat="49.1592483520507812">
        <ele>37.789756774902344</ele>
        <time>2016-09-21T15:59:52.000Z</time>
      </trkpt>
      <trkpt lon="0.2217497080564499" lat="49.1591567993164062">
        <ele>37.888675689697266</ele>
        <time>2016-09-21T15:59:54.000Z</time>
      </trkpt>
      <trkpt lon="0.2218235433101654" lat="49.1590614318847656">
        <ele>37.97500991821289</ele>
        <time>2016-09-21T15:59:56.000Z</time>
      </trkpt>
      <trkpt lon="0.2219025045633316" lat="49.1589355468750000">
        <ele>38.068729400634766</ele>
        <time>2016-09-21T15:59:59.000Z</time>
      </trkpt>
      <trkpt lon="0.2219848185777664" lat="49.1588058471679688">
        <ele>38.17011642456055</ele>
        <time>2016-09-21T16:00:02.000Z</time>
      </trkpt>
      <trkpt lon="0.2220201939344406" lat="49.1587066650390625">
        <ele>38.2802734375</ele>
        <time>2016-09-21T16:00:04.000Z</time>
      </trkpt>
      <trkpt lon="0.2220482677221298" lat="49.1585578918457031">
        <ele>38.423828125</ele>
        <time>2016-09-21T16:00:07.000Z</time>
      </trkpt>
      <trkpt lon="0.2220770120620728" lat="49.1584281921386719">
        <ele>38.576171875</ele>
        <time>2016-09-21T16:00:10.000Z</time>
      </trkpt>
      <trkpt lon="0.2220941185951233" lat="49.1583328247070312">
        <ele>38.720703125</ele>
        <time>2016-09-21T16:00:12.000Z</time>
      </trkpt>
      <trkpt lon="0.2221092879772186" lat="49.1582107543945312">
        <ele>38.8046875</ele>
        <time>2016-09-21T16:00:15.000Z</time>
      </trkpt>
      <trkpt lon="0.2221339344978333" lat="49.1581420898437500">
        <ele>38.8486328125</ele>
        <time>2016-09-21T16:00:17.000Z</time>
      </trkpt>
      <trkpt lon="0.2221382111310959" lat="49.1580467224121094">
        <ele>38.833984375</ele>
        <time>2016-09-21T16:00:20.000Z</time>
      </trkpt>
      <trkpt lon="0.2221556454896927" lat="49.1579895019531250">
        <ele>38.7744140625</ele>
        <time>2016-09-21T16:00:22.000Z</time>
      </trkpt>
      <trkpt lon="0.2221719771623611" lat="49.1579322814941406">
        <ele>38.677734375</ele>
        <time>2016-09-21T16:00:24.000Z</time>
      </trkpt>
      <trkpt lon="0.2221947014331818" lat="49.1578559875488281">
        <ele>38.5927734375</ele>
        <time>2016-09-21T16:00:27.000Z</time>
      </trkpt>
      <trkpt lon="0.2222097814083099" lat="49.1577835083007812">
        <ele>38.5068359375</ele>
        <time>2016-09-21T16:00:30.000Z</time>
      </trkpt>
      <trkpt lon="0.2222205102443695" lat="49.1577453613281250">
        <ele>38.4345703125</ele>
        <time>2016-09-21T16:00:32.000Z</time>
      </trkpt>
      <trkpt lon="0.2222395390272141" lat="49.1576919555664062">
        <ele>38.3623046875</ele>
        <time>2016-09-21T16:00:35.000Z</time>
      </trkpt>
      <trkpt lon="0.2222581505775452" lat="49.1576385498046875">
        <ele>38.2919921875</ele>
        <time>2016-09-21T16:00:38.000Z</time>
      </trkpt>
      <trkpt lon="0.2222655266523361" lat="49.1576118469238281">
        <ele>38.2333984375</ele>
        <time>2016-09-21T16:00:40.000Z</time>
      </trkpt>
      <trkpt lon="0.2222655266523361" lat="49.1576118469238281">
        <ele>38.2333984375</ele>
        <time>2016-09-21T16:00:50.000Z</time>
      </trkpt>
      <trkpt lon="0.2222396284341812" lat="49.1576080322265625">
        <ele>38.19140625</ele>
        <time>2016-09-21T16:01:05.000Z</time>
      </trkpt>
      <trkpt lon="0.2222498506307602" lat="49.1575775146484375">
        <ele>38.150390625</ele>
        <time>2016-09-21T16:01:07.000Z</time>
      </trkpt>
      <trkpt lon="0.2222728133201599" lat="49.1575088500976562">
        <ele>38.1064453125</ele>
        <time>2016-09-21T16:01:10.000Z</time>
      </trkpt>
      <trkpt lon="0.2223152369260788" lat="49.1574363708496094">
        <ele>38.111385345458984</ele>
        <time>2016-09-21T16:01:13.000Z</time>
      </trkpt>
      <trkpt lon="0.2223420590162277" lat="49.1573905944824219">
        <ele>38.15385818481445</ele>
        <time>2016-09-21T16:01:15.000Z</time>
      </trkpt>
      <trkpt lon="0.2223798483610153" lat="49.1573066711425781">
        <ele>38.2526741027832</ele>
        <time>2016-09-21T16:01:18.000Z</time>
      </trkpt>
      <trkpt lon="0.2224075943231583" lat="49.1572380065917969">
        <ele>38.40849685668945</ele>
        <time>2016-09-21T16:01:20.000Z</time>
      </trkpt>
      <trkpt lon="0.2224472463130951" lat="49.1571311950683594">
        <ele>38.65984344482422</ele>
        <time>2016-09-21T16:01:23.000Z</time>
      </trkpt>
      <trkpt lon="0.2224739789962769" lat="49.1570472717285156">
        <ele>38.940895080566406</ele>
        <time>2016-09-21T16:01:25.000Z</time>
      </trkpt>
      <trkpt lon="0.2224979549646378" lat="49.1569595336914062">
        <ele>39.26087188720703</ele>
        <time>2016-09-21T16:01:27.000Z</time>
      </trkpt>
      <trkpt lon="0.2225376069545746" lat="49.1568031311035156">
        <ele>39.640403747558594</ele>
        <time>2016-09-21T16:01:30.000Z</time>
      </trkpt>
      <trkpt lon="0.2225604802370071" lat="49.1566886901855469">
        <ele>40.05060958862305</ele>
        <time>2016-09-21T16:01:32.000Z</time>
      </trkpt>
      <trkpt lon="0.2225705385208130" lat="49.1565246582031250">
        <ele>40.363914489746094</ele>
        <time>2016-09-21T16:01:35.000Z</time>
      </trkpt>
      <trkpt lon="0.2225748151540756" lat="49.1563758850097656">
        <ele>40.57518768310547</ele>
        <time>2016-09-21T16:01:38.000Z</time>
      </trkpt>
      <trkpt lon="0.2225934267044067" lat="49.1562652587890625">
        <ele>40.68949890136719</ele>
        <time>2016-09-21T16:01:40.000Z</time>
      </trkpt>
      <trkpt lon="0.2226608097553253" lat="49.1561698913574219">
        <ele>40.665443420410156</ele>
        <time>2016-09-21T16:01:42.000Z</time>
      </trkpt>
      <trkpt lon="0.2227041572332382" lat="49.1560134887695312">
        <ele>40.5244140625</ele>
        <time>2016-09-21T16:01:45.000Z</time>
      </trkpt>
      <trkpt lon="0.2227501720190048" lat="49.1558647155761719">
        <ele>40.365234375</ele>
        <time>2016-09-21T16:01:48.000Z</time>
      </trkpt>
      <trkpt lon="0.2227822691202164" lat="49.1557693481445312">
        <ele>40.229801177978516</ele>
        <time>2016-09-21T16:01:50.000Z</time>
      </trkpt>
      <trkpt lon="0.2228232622146606" lat="49.1556358337402344">
        <ele>40.10748291015625</ele>
        <time>2016-09-21T16:01:53.000Z</time>
      </trkpt>
      <trkpt lon="0.2228602170944214" lat="49.1554756164550781">
        <ele>39.99003601074219</ele>
        <time>2016-09-21T16:01:56.000Z</time>
      </trkpt>
      <trkpt lon="0.2228795886039734" lat="49.1553153991699219">
        <ele>39.889915466308594</ele>
        <time>2016-09-21T16:01:59.000Z</time>
      </trkpt>
      <trkpt lon="0.2229085862636566" lat="49.1551666259765625">
        <ele>39.80435562133789</ele>
        <time>2016-09-21T16:02:02.000Z</time>
      </trkpt>
      <trkpt lon="0.2229583710432053" lat="49.1550636291503906">
        <ele>39.707672119140625</ele>
        <time>2016-09-21T16:02:04.000Z</time>
      </trkpt>
      <trkpt lon="0.2229889631271362" lat="49.1549606323242188">
        <ele>39.61434555053711</ele>
        <time>2016-09-21T16:02:06.000Z</time>
      </trkpt>
      <trkpt lon="0.2230207324028015" lat="49.1548614501953125">
        <ele>39.546974182128906</ele>
        <time>2016-09-21T16:02:08.000Z</time>
      </trkpt>
      <trkpt lon="0.2230645716190338" lat="49.1546974182128906">
        <ele>39.517730712890625</ele>
        <time>2016-09-21T16:02:11.000Z</time>
      </trkpt>
      <trkpt lon="0.2230959981679916" lat="49.1545295715332031">
        <ele>39.53390121459961</ele>
        <time>2016-09-21T16:02:14.000Z</time>
      </trkpt>
      <trkpt lon="0.2231489717960358" lat="49.1543769836425781">
        <ele>39.5962028503418</ele>
        <time>2016-09-21T16:02:17.000Z</time>
      </trkpt>
      <trkpt lon="0.2231757193803787" lat="49.1542778015136719">
        <ele>39.686553955078125</ele>
        <time>2016-09-21T16:02:19.000Z</time>
      </trkpt>
      <trkpt lon="0.2232092469930649" lat="49.1541252136230469">
        <ele>39.789451599121094</ele>
        <time>2016-09-21T16:02:22.000Z</time>
      </trkpt>
      <trkpt lon="0.2232292741537094" lat="49.1540260314941406">
        <ele>39.871192932128906</ele>
        <time>2016-09-21T16:02:24.000Z</time>
      </trkpt>
      <trkpt lon="0.2232801616191864" lat="49.1538505554199219">
        <ele>39.928489685058594</ele>
        <time>2016-09-21T16:02:27.000Z</time>
      </trkpt>
      <trkpt lon="0.2233064770698547" lat="49.1537437438964844">
        <ele>39.96476364135742</ele>
        <time>2016-09-21T16:02:29.000Z</time>
      </trkpt>
      <trkpt lon="0.2234086543321609" lat="49.1536254882812500">
        <ele>39.99788284301758</ele>
        <time>2016-09-21T16:02:32.000Z</time>
      </trkpt>
      <trkpt lon="0.2234105765819550" lat="49.1535110473632812">
        <ele>40.01390838623047</ele>
        <time>2016-09-21T16:02:34.000Z</time>
      </trkpt>
      <trkpt lon="0.2234888672828674" lat="49.1533546447753906">
        <ele>40.05463409423828</ele>
        <time>2016-09-21T16:02:37.000Z</time>
      </trkpt>
      <trkpt lon="0.2235285043716431" lat="49.1532135009765625">
        <ele>40.113014221191406</ele>
        <time>2016-09-21T16:02:40.000Z</time>
      </trkpt>
      <trkpt lon="0.2235742807388306" lat="49.1530456542968750">
        <ele>40.19422149658203</ele>
        <time>2016-09-21T16:02:43.000Z</time>
      </trkpt>
      <trkpt lon="0.2236271649599075" lat="49.1529006958007812">
        <ele>40.289573669433594</ele>
        <time>2016-09-21T16:02:46.000Z</time>
      </trkpt>
      <trkpt lon="0.2236310988664627" lat="49.1527976989746094">
        <ele>40.392242431640625</ele>
        <time>2016-09-21T16:02:48.000Z</time>
      </trkpt>
      <trkpt lon="0.2236694097518921" lat="49.1526222229003906">
        <ele>40.50544357299805</ele>
        <time>2016-09-21T16:02:51.000Z</time>
      </trkpt>
      <trkpt lon="0.2236509770154953" lat="49.1524925231933594">
        <ele>40.60419464111328</ele>
        <time>2016-09-21T16:02:53.000Z</time>
      </trkpt>
      <trkpt lon="0.2237397283315659" lat="49.1523399353027344">
        <ele>40.70351791381836</ele>
        <time>2016-09-21T16:02:56.000Z</time>
      </trkpt>
      <trkpt lon="0.2237703353166580" lat="49.1522445678710938">
        <ele>40.77125930786133</ele>
        <time>2016-09-21T16:02:58.000Z</time>
      </trkpt>
      <trkpt lon="0.2237732559442520" lat="49.1521568298339844">
        <ele>40.81707000732422</ele>
        <time>2016-09-21T16:03:00.000Z</time>
      </trkpt>
      <trkpt lon="0.2238223850727081" lat="49.1520500183105469">
        <ele>40.82015609741211</ele>
        <time>2016-09-21T16:03:02.000Z</time>
      </trkpt>
      <trkpt lon="0.2237435132265091" lat="49.1519470214843750">
        <ele>40.80127716064453</ele>
        <time>2016-09-21T16:03:05.000Z</time>
      </trkpt>
      <trkpt lon="0.2235894501209259" lat="49.1518554687500000">
        <ele>40.75901794433594</ele>
        <time>2016-09-21T16:03:08.000Z</time>
      </trkpt>
      <trkpt lon="0.2234542518854141" lat="49.1517486572265625">
        <ele>40.743919372558594</ele>
        <time>2016-09-21T16:03:11.000Z</time>
      </trkpt>
      <trkpt lon="0.2233529090881348" lat="49.1516571044921875">
        <ele>40.77882766723633</ele>
        <time>2016-09-21T16:03:14.000Z</time>
      </trkpt>
      <trkpt lon="0.2232135981321335" lat="49.1516036987304688">
        <ele>40.83912658691406</ele>
        <time>2016-09-21T16:03:16.000Z</time>
      </trkpt>
      <trkpt lon="0.2230535894632339" lat="49.1514930725097656">
        <ele>40.933372497558594</ele>
        <time>2016-09-21T16:03:19.000Z</time>
      </trkpt>
      <trkpt lon="0.2229605466127396" lat="49.1514091491699219">
        <ele>41.03269958496094</ele>
        <time>2016-09-21T16:03:21.000Z</time>
      </trkpt>
      <trkpt lon="0.2228678464889526" lat="49.1513481140136719">
        <ele>41.106849670410156</ele>
        <time>2016-09-21T16:03:23.000Z</time>
      </trkpt>
      <trkpt lon="0.2227564603090286" lat="49.1512870788574219">
        <ele>41.13701629638672</ele>
        <time>2016-09-21T16:03:25.000Z</time>
      </trkpt>
      <trkpt lon="0.2225883156061172" lat="49.1511688232421875">
        <ele>41.13666534423828</ele>
        <time>2016-09-21T16:03:28.000Z</time>
      </trkpt>
      <trkpt lon="0.2224303930997849" lat="49.1510772705078125">
        <ele>41.11393737792969</ele>
        <time>2016-09-21T16:03:31.000Z</time>
      </trkpt>
      <trkpt lon="0.2222886532545090" lat="49.1509590148925781">
        <ele>41.087337493896484</ele>
        <time>2016-09-21T16:03:34.000Z</time>
      </trkpt>
      <trkpt lon="0.2222155630588531" lat="49.1508712768554688">
        <ele>41.05652618408203</ele>
        <time>2016-09-21T16:03:36.000Z</time>
      </trkpt>
      <trkpt lon="0.2222090363502502" lat="49.1507759094238281">
        <ele>41.0418701171875</ele>
        <time>2016-09-21T16:03:38.000Z</time>
      </trkpt>
      <trkpt lon="0.2222958654165268" lat="49.1506156921386719">
        <ele>41.08171844482422</ele>
        <time>2016-09-21T16:03:41.000Z</time>
      </trkpt>
      <trkpt lon="0.2223940193653107" lat="49.1504898071289062">
        <ele>41.15962219238281</ele>
        <time>2016-09-21T16:03:44.000Z</time>
      </trkpt>
      <trkpt lon="0.2224589735269547" lat="49.1503677368164062">
        <ele>41.26400375366211</ele>
        <time>2016-09-21T16:03:47.000Z</time>
      </trkpt>
      <trkpt lon="0.2225100249052048" lat="49.1502609252929688">
        <ele>41.400840759277344</ele>
        <time>2016-09-21T16:03:50.000Z</time>
      </trkpt>
      <trkpt lon="0.2225301414728165" lat="49.1502113342285156">
        <ele>41.54381561279297</ele>
        <time>2016-09-21T16:03:52.000Z</time>
      </trkpt>
      <trkpt lon="0.2225551158189774" lat="49.1501693725585938">
        <ele>41.663490295410156</ele>
        <time>2016-09-21T16:03:55.000Z</time>
      </trkpt>
      <trkpt lon="0.2225539535284042" lat="49.1501579284667969">
        <ele>41.75554275512695</ele>
        <time>2016-09-21T16:03:57.000Z</time>
      </trkpt>
      <trkpt lon="0.2225539535284042" lat="49.1501579284667969">
        <ele>41.75554275512695</ele>
        <time>2016-09-21T16:03:57.000Z</time>
      </trkpt>
    </trkseg>
  </trk>
</gpx>
